<?xml version="1.0" encoding="UTF-8" standalone="no" ?>
<gpx xmlns="http://www.topografix.com/GPX/1/1" xmlns:xsi="http://www.w3.org/2001/XMLSchema-instance" xsi:schemaLocation="http://www.topografix.com/GPX/1/1 http://www.topografix.com/GPX/1/1/gpx.xsd" version="1.1" creator="VisuGPX - https://www.visugpx.com">
  <metadata>
    <name>Veigy  Cranves-Sales AR boucle  23/02/2020</name>
    <desc><![CDATA[Veigy Cranves-Sales alller  et retour HW février 2020  premier essai]]></desc>
  </metadata>
  <wpt lat="49.01469" lon="2.05879">
    <ele>25</ele>
    <name><![CDATA[Coordonnées]]></name>
    <type><![CDATA[user]]></type>
  </wpt>
  <wpt lat="38.85555" lon="-94.79902">
    <ele>325</ele>
    <name><![CDATA[Garmin]]></name>
    <type><![CDATA[user]]></type>
  </wpt>
  <trk>
    <name><![CDATA[23/02/2020 13:24:57]]></name>
    <trkseg>
      <trkpt lat="46.26883" lon="6.25883">
        <ele>431.79998779297</ele>
        <time>2020-02-23T12:24:57Z</time>
      </trkpt>
      <trkpt lat="46.26873" lon="6.25902">
        <ele>431.60000610352</ele>
        <time>2020-02-23T12:25:02Z</time>
      </trkpt>
      <trkpt lat="46.26863" lon="6.2592">
        <ele>431.60000610352</ele>
        <time>2020-02-23T12:25:06Z</time>
      </trkpt>
      <trkpt lat="46.26861" lon="6.25925">
        <ele>431.39999389648</ele>
        <time>2020-02-23T12:25:07Z</time>
      </trkpt>
      <trkpt lat="46.26859" lon="6.25929">
        <ele>431.39999389648</ele>
        <time>2020-02-23T12:25:08Z</time>
      </trkpt>
      <trkpt lat="46.26858" lon="6.25931">
        <ele>431.39999389648</ele>
        <time>2020-02-23T12:25:09Z</time>
      </trkpt>
      <trkpt lat="46.26858" lon="6.25932">
        <ele>431.39999389648</ele>
        <time>2020-02-23T12:25:10Z</time>
      </trkpt>
      <trkpt lat="46.26857" lon="6.25932">
        <ele>431.39999389648</ele>
        <time>2020-02-23T12:25:14Z</time>
      </trkpt>
      <trkpt lat="46.26857" lon="6.25932">
        <ele>431.79998779297</ele>
        <time>2020-02-23T12:25:34Z</time>
      </trkpt>
      <trkpt lat="46.26856" lon="6.25936">
        <ele>431.79998779297</ele>
        <time>2020-02-23T12:25:39Z</time>
      </trkpt>
      <trkpt lat="46.26855" lon="6.25939">
        <ele>431.79998779297</ele>
        <time>2020-02-23T12:25:40Z</time>
      </trkpt>
      <trkpt lat="46.26854" lon="6.25942">
        <ele>431.79998779297</ele>
        <time>2020-02-23T12:25:41Z</time>
      </trkpt>
      <trkpt lat="46.26852" lon="6.25946">
        <ele>431.79998779297</ele>
        <time>2020-02-23T12:25:42Z</time>
      </trkpt>
      <trkpt lat="46.26847" lon="6.2596">
        <ele>431.79998779297</ele>
        <time>2020-02-23T12:25:45Z</time>
      </trkpt>
      <trkpt lat="46.26833" lon="6.26009">
        <ele>431</ele>
        <time>2020-02-23T12:25:54Z</time>
      </trkpt>
      <trkpt lat="46.26831" lon="6.26016">
        <ele>431</ele>
        <time>2020-02-23T12:25:55Z</time>
      </trkpt>
      <trkpt lat="46.2683" lon="6.26023">
        <ele>430.79998779297</ele>
        <time>2020-02-23T12:25:56Z</time>
      </trkpt>
      <trkpt lat="46.26824" lon="6.26051">
        <ele>430.79998779297</ele>
        <time>2020-02-23T12:26:00Z</time>
      </trkpt>
      <trkpt lat="46.26823" lon="6.26057">
        <ele>431</ele>
        <time>2020-02-23T12:26:01Z</time>
      </trkpt>
      <trkpt lat="46.26822" lon="6.26064">
        <ele>431</ele>
        <time>2020-02-23T12:26:02Z</time>
      </trkpt>
      <trkpt lat="46.26821" lon="6.2607">
        <ele>431.20001220703</ele>
        <time>2020-02-23T12:26:03Z</time>
      </trkpt>
      <trkpt lat="46.2682" lon="6.26076">
        <ele>431.20001220703</ele>
        <time>2020-02-23T12:26:04Z</time>
      </trkpt>
      <trkpt lat="46.26819" lon="6.26081">
        <ele>431.60000610352</ele>
        <time>2020-02-23T12:26:05Z</time>
      </trkpt>
      <trkpt lat="46.26818" lon="6.26086">
        <ele>431.79998779297</ele>
        <time>2020-02-23T12:26:06Z</time>
      </trkpt>
      <trkpt lat="46.26817" lon="6.26092">
        <ele>431.79998779297</ele>
        <time>2020-02-23T12:26:07Z</time>
      </trkpt>
      <trkpt lat="46.26816" lon="6.26097">
        <ele>431.79998779297</ele>
        <time>2020-02-23T12:26:08Z</time>
      </trkpt>
      <trkpt lat="46.26815" lon="6.26102">
        <ele>431.79998779297</ele>
        <time>2020-02-23T12:26:09Z</time>
      </trkpt>
      <trkpt lat="46.26811" lon="6.26125">
        <ele>432</ele>
        <time>2020-02-23T12:26:13Z</time>
      </trkpt>
      <trkpt lat="46.26806" lon="6.26143">
        <ele>432.20001220703</ele>
        <time>2020-02-23T12:26:16Z</time>
      </trkpt>
      <trkpt lat="46.26805" lon="6.26149">
        <ele>432.39999389648</ele>
        <time>2020-02-23T12:26:17Z</time>
      </trkpt>
      <trkpt lat="46.26804" lon="6.26155">
        <ele>432.60000610352</ele>
        <time>2020-02-23T12:26:18Z</time>
      </trkpt>
      <trkpt lat="46.26803" lon="6.26161">
        <ele>432.60000610352</ele>
        <time>2020-02-23T12:26:19Z</time>
      </trkpt>
      <trkpt lat="46.26802" lon="6.26166">
        <ele>432.60000610352</ele>
        <time>2020-02-23T12:26:20Z</time>
      </trkpt>
      <trkpt lat="46.26801" lon="6.26171">
        <ele>432.60000610352</ele>
        <time>2020-02-23T12:26:21Z</time>
      </trkpt>
      <trkpt lat="46.268" lon="6.26176">
        <ele>432.79998779297</ele>
        <time>2020-02-23T12:26:22Z</time>
      </trkpt>
      <trkpt lat="46.26799" lon="6.2618">
        <ele>432.79998779297</ele>
        <time>2020-02-23T12:26:23Z</time>
      </trkpt>
      <trkpt lat="46.26799" lon="6.26185">
        <ele>433</ele>
        <time>2020-02-23T12:26:24Z</time>
      </trkpt>
      <trkpt lat="46.26795" lon="6.26208">
        <ele>433.39999389648</ele>
        <time>2020-02-23T12:26:29Z</time>
      </trkpt>
      <trkpt lat="46.26794" lon="6.26213">
        <ele>433.60000610352</ele>
        <time>2020-02-23T12:26:30Z</time>
      </trkpt>
      <trkpt lat="46.26786" lon="6.26258">
        <ele>434</ele>
        <time>2020-02-23T12:26:38Z</time>
      </trkpt>
      <trkpt lat="46.26784" lon="6.26263">
        <ele>434</ele>
        <time>2020-02-23T12:26:39Z</time>
      </trkpt>
      <trkpt lat="46.26783" lon="6.26269">
        <ele>434.20001220703</ele>
        <time>2020-02-23T12:26:40Z</time>
      </trkpt>
      <trkpt lat="46.26782" lon="6.26275">
        <ele>434.20001220703</ele>
        <time>2020-02-23T12:26:41Z</time>
      </trkpt>
      <trkpt lat="46.26779" lon="6.26293">
        <ele>434.39999389648</ele>
        <time>2020-02-23T12:26:44Z</time>
      </trkpt>
      <trkpt lat="46.26769" lon="6.26351">
        <ele>435</ele>
        <time>2020-02-23T12:26:53Z</time>
      </trkpt>
      <trkpt lat="46.26765" lon="6.26371">
        <ele>435</ele>
        <time>2020-02-23T12:26:56Z</time>
      </trkpt>
      <trkpt lat="46.2676" lon="6.26399">
        <ele>435.20001220703</ele>
        <time>2020-02-23T12:27:00Z</time>
      </trkpt>
      <trkpt lat="46.26759" lon="6.26405">
        <ele>435.20001220703</ele>
        <time>2020-02-23T12:27:01Z</time>
      </trkpt>
      <trkpt lat="46.26758" lon="6.26412">
        <ele>435</ele>
        <time>2020-02-23T12:27:02Z</time>
      </trkpt>
      <trkpt lat="46.26757" lon="6.26419">
        <ele>435.20001220703</ele>
        <time>2020-02-23T12:27:03Z</time>
      </trkpt>
      <trkpt lat="46.26756" lon="6.26425">
        <ele>435.20001220703</ele>
        <time>2020-02-23T12:27:04Z</time>
      </trkpt>
      <trkpt lat="46.26755" lon="6.26432">
        <ele>435.20001220703</ele>
        <time>2020-02-23T12:27:05Z</time>
      </trkpt>
      <trkpt lat="46.26754" lon="6.26438">
        <ele>435.39999389648</ele>
        <time>2020-02-23T12:27:06Z</time>
      </trkpt>
      <trkpt lat="46.26752" lon="6.26459">
        <ele>435.39999389648</ele>
        <time>2020-02-23T12:27:09Z</time>
      </trkpt>
      <trkpt lat="46.26749" lon="6.26481">
        <ele>435.79998779297</ele>
        <time>2020-02-23T12:27:12Z</time>
      </trkpt>
      <trkpt lat="46.26747" lon="6.26503">
        <ele>436</ele>
        <time>2020-02-23T12:27:15Z</time>
      </trkpt>
      <trkpt lat="46.26747" lon="6.2651">
        <ele>436.20001220703</ele>
        <time>2020-02-23T12:27:16Z</time>
      </trkpt>
      <trkpt lat="46.26746" lon="6.26517">
        <ele>436.20001220703</ele>
        <time>2020-02-23T12:27:17Z</time>
      </trkpt>
      <trkpt lat="46.26745" lon="6.26525">
        <ele>436.20001220703</ele>
        <time>2020-02-23T12:27:18Z</time>
      </trkpt>
      <trkpt lat="46.26745" lon="6.26532">
        <ele>436.20001220703</ele>
        <time>2020-02-23T12:27:19Z</time>
      </trkpt>
      <trkpt lat="46.26744" lon="6.26539">
        <ele>436.39999389648</ele>
        <time>2020-02-23T12:27:20Z</time>
      </trkpt>
      <trkpt lat="46.26743" lon="6.26546">
        <ele>436.39999389648</ele>
        <time>2020-02-23T12:27:21Z</time>
      </trkpt>
      <trkpt lat="46.26742" lon="6.26553">
        <ele>436.39999389648</ele>
        <time>2020-02-23T12:27:22Z</time>
      </trkpt>
      <trkpt lat="46.26742" lon="6.26559">
        <ele>436.60000610352</ele>
        <time>2020-02-23T12:27:23Z</time>
      </trkpt>
      <trkpt lat="46.26741" lon="6.26566">
        <ele>436.60000610352</ele>
        <time>2020-02-23T12:27:24Z</time>
      </trkpt>
      <trkpt lat="46.2674" lon="6.26573">
        <ele>436.39999389648</ele>
        <time>2020-02-23T12:27:25Z</time>
      </trkpt>
      <trkpt lat="46.2674" lon="6.2658">
        <ele>436.60000610352</ele>
        <time>2020-02-23T12:27:26Z</time>
      </trkpt>
      <trkpt lat="46.26739" lon="6.26586">
        <ele>436.60000610352</ele>
        <time>2020-02-23T12:27:27Z</time>
      </trkpt>
      <trkpt lat="46.26739" lon="6.26593">
        <ele>436.79998779297</ele>
        <time>2020-02-23T12:27:28Z</time>
      </trkpt>
      <trkpt lat="46.26738" lon="6.266">
        <ele>436.60000610352</ele>
        <time>2020-02-23T12:27:29Z</time>
      </trkpt>
      <trkpt lat="46.26739" lon="6.26607">
        <ele>436.79998779297</ele>
        <time>2020-02-23T12:27:30Z</time>
      </trkpt>
      <trkpt lat="46.26739" lon="6.26613">
        <ele>437</ele>
        <time>2020-02-23T12:27:31Z</time>
      </trkpt>
      <trkpt lat="46.26739" lon="6.26619">
        <ele>437.20001220703</ele>
        <time>2020-02-23T12:27:32Z</time>
      </trkpt>
      <trkpt lat="46.2674" lon="6.26624">
        <ele>437.20001220703</ele>
        <time>2020-02-23T12:27:33Z</time>
      </trkpt>
      <trkpt lat="46.2674" lon="6.26629">
        <ele>437.39999389648</ele>
        <time>2020-02-23T12:27:34Z</time>
      </trkpt>
      <trkpt lat="46.26741" lon="6.26635">
        <ele>437.39999389648</ele>
        <time>2020-02-23T12:27:35Z</time>
      </trkpt>
      <trkpt lat="46.26742" lon="6.2664">
        <ele>437.60000610352</ele>
        <time>2020-02-23T12:27:36Z</time>
      </trkpt>
      <trkpt lat="46.26742" lon="6.26644">
        <ele>437.79998779297</ele>
        <time>2020-02-23T12:27:37Z</time>
      </trkpt>
      <trkpt lat="46.26743" lon="6.26649">
        <ele>437.79998779297</ele>
        <time>2020-02-23T12:27:38Z</time>
      </trkpt>
      <trkpt lat="46.26744" lon="6.26653">
        <ele>438</ele>
        <time>2020-02-23T12:27:39Z</time>
      </trkpt>
      <trkpt lat="46.26745" lon="6.26657">
        <ele>438.20001220703</ele>
        <time>2020-02-23T12:27:40Z</time>
      </trkpt>
      <trkpt lat="46.26754" lon="6.26683">
        <ele>438.79998779297</ele>
        <time>2020-02-23T12:27:46Z</time>
      </trkpt>
      <trkpt lat="46.26768" lon="6.26721">
        <ele>439</ele>
        <time>2020-02-23T12:27:53Z</time>
      </trkpt>
      <trkpt lat="46.2677" lon="6.26727">
        <ele>438.79998779297</ele>
        <time>2020-02-23T12:27:54Z</time>
      </trkpt>
      <trkpt lat="46.26772" lon="6.26732">
        <ele>439</ele>
        <time>2020-02-23T12:27:55Z</time>
      </trkpt>
      <trkpt lat="46.26774" lon="6.26738">
        <ele>438.79998779297</ele>
        <time>2020-02-23T12:27:56Z</time>
      </trkpt>
      <trkpt lat="46.26785" lon="6.2677">
        <ele>438.60000610352</ele>
        <time>2020-02-23T12:28:01Z</time>
      </trkpt>
      <trkpt lat="46.26789" lon="6.26785">
        <ele>438.39999389648</ele>
        <time>2020-02-23T12:28:03Z</time>
      </trkpt>
      <trkpt lat="46.26792" lon="6.26802">
        <ele>438.39999389648</ele>
        <time>2020-02-23T12:28:05Z</time>
      </trkpt>
      <trkpt lat="46.26795" lon="6.2682">
        <ele>438.39999389648</ele>
        <time>2020-02-23T12:28:07Z</time>
      </trkpt>
      <trkpt lat="46.26797" lon="6.26838">
        <ele>438.20001220703</ele>
        <time>2020-02-23T12:28:09Z</time>
      </trkpt>
      <trkpt lat="46.26797" lon="6.26847">
        <ele>438.20001220703</ele>
        <time>2020-02-23T12:28:10Z</time>
      </trkpt>
      <trkpt lat="46.26797" lon="6.26875">
        <ele>437.60000610352</ele>
        <time>2020-02-23T12:28:13Z</time>
      </trkpt>
      <trkpt lat="46.26797" lon="6.26885">
        <ele>437.39999389648</ele>
        <time>2020-02-23T12:28:14Z</time>
      </trkpt>
      <trkpt lat="46.26797" lon="6.26904">
        <ele>436.79998779297</ele>
        <time>2020-02-23T12:28:16Z</time>
      </trkpt>
      <trkpt lat="46.26797" lon="6.26912">
        <ele>436.39999389648</ele>
        <time>2020-02-23T12:28:17Z</time>
      </trkpt>
      <trkpt lat="46.26797" lon="6.2692">
        <ele>436.20001220703</ele>
        <time>2020-02-23T12:28:18Z</time>
      </trkpt>
      <trkpt lat="46.26797" lon="6.26927">
        <ele>436</ele>
        <time>2020-02-23T12:28:19Z</time>
      </trkpt>
      <trkpt lat="46.26797" lon="6.26934">
        <ele>435.79998779297</ele>
        <time>2020-02-23T12:28:20Z</time>
      </trkpt>
      <trkpt lat="46.26797" lon="6.26941">
        <ele>435.60000610352</ele>
        <time>2020-02-23T12:28:21Z</time>
      </trkpt>
      <trkpt lat="46.26796" lon="6.26993">
        <ele>434.60000610352</ele>
        <time>2020-02-23T12:28:28Z</time>
      </trkpt>
      <trkpt lat="46.26796" lon="6.27008">
        <ele>434.39999389648</ele>
        <time>2020-02-23T12:28:30Z</time>
      </trkpt>
      <trkpt lat="46.26795" lon="6.27016">
        <ele>434.39999389648</ele>
        <time>2020-02-23T12:28:31Z</time>
      </trkpt>
      <trkpt lat="46.26795" lon="6.27023">
        <ele>434.39999389648</ele>
        <time>2020-02-23T12:28:32Z</time>
      </trkpt>
      <trkpt lat="46.26794" lon="6.2703">
        <ele>434.20001220703</ele>
        <time>2020-02-23T12:28:33Z</time>
      </trkpt>
      <trkpt lat="46.26793" lon="6.27037">
        <ele>434.20001220703</ele>
        <time>2020-02-23T12:28:34Z</time>
      </trkpt>
      <trkpt lat="46.26793" lon="6.27043">
        <ele>434.20001220703</ele>
        <time>2020-02-23T12:28:35Z</time>
      </trkpt>
      <trkpt lat="46.26792" lon="6.27049">
        <ele>434.20001220703</ele>
        <time>2020-02-23T12:28:36Z</time>
      </trkpt>
      <trkpt lat="46.26791" lon="6.27055">
        <ele>434.20001220703</ele>
        <time>2020-02-23T12:28:37Z</time>
      </trkpt>
      <trkpt lat="46.2679" lon="6.27062">
        <ele>434.20001220703</ele>
        <time>2020-02-23T12:28:38Z</time>
      </trkpt>
      <trkpt lat="46.26789" lon="6.27068">
        <ele>434.20001220703</ele>
        <time>2020-02-23T12:28:39Z</time>
      </trkpt>
      <trkpt lat="46.26788" lon="6.27074">
        <ele>434.20001220703</ele>
        <time>2020-02-23T12:28:40Z</time>
      </trkpt>
      <trkpt lat="46.26787" lon="6.2708">
        <ele>434.20001220703</ele>
        <time>2020-02-23T12:28:41Z</time>
      </trkpt>
      <trkpt lat="46.26786" lon="6.27085">
        <ele>434.20001220703</ele>
        <time>2020-02-23T12:28:42Z</time>
      </trkpt>
      <trkpt lat="46.26785" lon="6.27091">
        <ele>434.20001220703</ele>
        <time>2020-02-23T12:28:43Z</time>
      </trkpt>
      <trkpt lat="46.26783" lon="6.27095">
        <ele>434.20001220703</ele>
        <time>2020-02-23T12:28:44Z</time>
      </trkpt>
      <trkpt lat="46.26781" lon="6.27099">
        <ele>434.20001220703</ele>
        <time>2020-02-23T12:28:45Z</time>
      </trkpt>
      <trkpt lat="46.26778" lon="6.27101">
        <ele>434</ele>
        <time>2020-02-23T12:28:46Z</time>
      </trkpt>
      <trkpt lat="46.26775" lon="6.27101">
        <ele>434.20001220703</ele>
        <time>2020-02-23T12:28:47Z</time>
      </trkpt>
      <trkpt lat="46.26771" lon="6.27099">
        <ele>434.20001220703</ele>
        <time>2020-02-23T12:28:48Z</time>
      </trkpt>
      <trkpt lat="46.26767" lon="6.27096">
        <ele>434.20001220703</ele>
        <time>2020-02-23T12:28:49Z</time>
      </trkpt>
      <trkpt lat="46.2676" lon="6.27089">
        <ele>434.20001220703</ele>
        <time>2020-02-23T12:28:51Z</time>
      </trkpt>
      <trkpt lat="46.2674" lon="6.27072">
        <ele>434.20001220703</ele>
        <time>2020-02-23T12:28:56Z</time>
      </trkpt>
      <trkpt lat="46.26736" lon="6.27068">
        <ele>434</ele>
        <time>2020-02-23T12:28:57Z</time>
      </trkpt>
      <trkpt lat="46.26733" lon="6.27065">
        <ele>434</ele>
        <time>2020-02-23T12:28:58Z</time>
      </trkpt>
      <trkpt lat="46.2673" lon="6.27062">
        <ele>434</ele>
        <time>2020-02-23T12:28:59Z</time>
      </trkpt>
      <trkpt lat="46.26728" lon="6.27061">
        <ele>434</ele>
        <time>2020-02-23T12:29:00Z</time>
      </trkpt>
      <trkpt lat="46.26728" lon="6.2706">
        <ele>434</ele>
        <time>2020-02-23T12:29:02Z</time>
      </trkpt>
      <trkpt lat="46.26727" lon="6.27059">
        <ele>434</ele>
        <time>2020-02-23T12:29:04Z</time>
      </trkpt>
      <trkpt lat="46.26727" lon="6.27058">
        <ele>434</ele>
        <time>2020-02-23T12:29:05Z</time>
      </trkpt>
      <trkpt lat="46.26727" lon="6.27057">
        <ele>434</ele>
        <time>2020-02-23T12:29:06Z</time>
      </trkpt>
      <trkpt lat="46.26727" lon="6.27056">
        <ele>434.60000610352</ele>
        <time>2020-02-23T12:29:09Z</time>
      </trkpt>
      <trkpt lat="46.26727" lon="6.27056">
        <ele>435.20001220703</ele>
        <time>2020-02-23T12:29:10Z</time>
      </trkpt>
      <trkpt lat="46.26727" lon="6.27057">
        <ele>435.60000610352</ele>
        <time>2020-02-23T12:31:27Z</time>
      </trkpt>
      <trkpt lat="46.26726" lon="6.27056">
        <ele>435.20001220703</ele>
        <time>2020-02-23T12:31:50Z</time>
      </trkpt>
      <trkpt lat="46.26726" lon="6.27056">
        <ele>435.39999389648</ele>
        <time>2020-02-23T12:31:53Z</time>
      </trkpt>
      <trkpt lat="46.26725" lon="6.27056">
        <ele>435.20001220703</ele>
        <time>2020-02-23T12:32:03Z</time>
      </trkpt>
      <trkpt lat="46.26723" lon="6.27053">
        <ele>435.20001220703</ele>
        <time>2020-02-23T12:32:05Z</time>
      </trkpt>
      <trkpt lat="46.26721" lon="6.27052">
        <ele>435.20001220703</ele>
        <time>2020-02-23T12:32:06Z</time>
      </trkpt>
      <trkpt lat="46.26719" lon="6.27049">
        <ele>435</ele>
        <time>2020-02-23T12:32:07Z</time>
      </trkpt>
      <trkpt lat="46.26716" lon="6.27046">
        <ele>435</ele>
        <time>2020-02-23T12:32:09Z</time>
      </trkpt>
      <trkpt lat="46.26711" lon="6.27043">
        <ele>435</ele>
        <time>2020-02-23T12:32:11Z</time>
      </trkpt>
      <trkpt lat="46.26703" lon="6.27036">
        <ele>435</ele>
        <time>2020-02-23T12:32:14Z</time>
      </trkpt>
      <trkpt lat="46.267" lon="6.27034">
        <ele>434.79998779297</ele>
        <time>2020-02-23T12:32:15Z</time>
      </trkpt>
      <trkpt lat="46.26698" lon="6.2703">
        <ele>434.79998779297</ele>
        <time>2020-02-23T12:32:16Z</time>
      </trkpt>
      <trkpt lat="46.26696" lon="6.27028">
        <ele>434.79998779297</ele>
        <time>2020-02-23T12:32:17Z</time>
      </trkpt>
      <trkpt lat="46.26693" lon="6.27026">
        <ele>434.79998779297</ele>
        <time>2020-02-23T12:32:18Z</time>
      </trkpt>
      <trkpt lat="46.26691" lon="6.27024">
        <ele>434.79998779297</ele>
        <time>2020-02-23T12:32:19Z</time>
      </trkpt>
      <trkpt lat="46.26684" lon="6.27015">
        <ele>434.79998779297</ele>
        <time>2020-02-23T12:32:22Z</time>
      </trkpt>
      <trkpt lat="46.26682" lon="6.27012">
        <ele>434.79998779297</ele>
        <time>2020-02-23T12:32:23Z</time>
      </trkpt>
      <trkpt lat="46.26679" lon="6.2701">
        <ele>434.79998779297</ele>
        <time>2020-02-23T12:32:24Z</time>
      </trkpt>
      <trkpt lat="46.26676" lon="6.27007">
        <ele>434.79998779297</ele>
        <time>2020-02-23T12:32:25Z</time>
      </trkpt>
      <trkpt lat="46.26673" lon="6.27005">
        <ele>434.79998779297</ele>
        <time>2020-02-23T12:32:26Z</time>
      </trkpt>
      <trkpt lat="46.2667" lon="6.27004">
        <ele>434.79998779297</ele>
        <time>2020-02-23T12:32:27Z</time>
      </trkpt>
      <trkpt lat="46.26667" lon="6.27005">
        <ele>435</ele>
        <time>2020-02-23T12:32:28Z</time>
      </trkpt>
      <trkpt lat="46.26665" lon="6.27008">
        <ele>435</ele>
        <time>2020-02-23T12:32:29Z</time>
      </trkpt>
      <trkpt lat="46.26664" lon="6.27011">
        <ele>435.39999389648</ele>
        <time>2020-02-23T12:32:30Z</time>
      </trkpt>
      <trkpt lat="46.26663" lon="6.27015">
        <ele>435.39999389648</ele>
        <time>2020-02-23T12:32:31Z</time>
      </trkpt>
      <trkpt lat="46.26662" lon="6.27018">
        <ele>435.39999389648</ele>
        <time>2020-02-23T12:32:32Z</time>
      </trkpt>
      <trkpt lat="46.26662" lon="6.27021">
        <ele>435.39999389648</ele>
        <time>2020-02-23T12:32:33Z</time>
      </trkpt>
      <trkpt lat="46.26661" lon="6.27025">
        <ele>435.60000610352</ele>
        <time>2020-02-23T12:32:34Z</time>
      </trkpt>
      <trkpt lat="46.26661" lon="6.27029">
        <ele>435.60000610352</ele>
        <time>2020-02-23T12:32:35Z</time>
      </trkpt>
      <trkpt lat="46.26661" lon="6.27033">
        <ele>435.79998779297</ele>
        <time>2020-02-23T12:32:36Z</time>
      </trkpt>
      <trkpt lat="46.26661" lon="6.27037">
        <ele>436</ele>
        <time>2020-02-23T12:32:37Z</time>
      </trkpt>
      <trkpt lat="46.26661" lon="6.27045">
        <ele>436.39999389648</ele>
        <time>2020-02-23T12:32:38Z</time>
      </trkpt>
      <trkpt lat="46.26661" lon="6.27045">
        <ele>437</ele>
        <time>2020-02-23T12:32:39Z</time>
      </trkpt>
      <trkpt lat="46.26661" lon="6.27049">
        <ele>437.20001220703</ele>
        <time>2020-02-23T12:32:40Z</time>
      </trkpt>
      <trkpt lat="46.26661" lon="6.27053">
        <ele>437.79998779297</ele>
        <time>2020-02-23T12:32:41Z</time>
      </trkpt>
      <trkpt lat="46.2666" lon="6.27057">
        <ele>438</ele>
        <time>2020-02-23T12:32:42Z</time>
      </trkpt>
      <trkpt lat="46.2666" lon="6.2706">
        <ele>438.20001220703</ele>
        <time>2020-02-23T12:32:43Z</time>
      </trkpt>
      <trkpt lat="46.26659" lon="6.27064">
        <ele>438.60000610352</ele>
        <time>2020-02-23T12:32:44Z</time>
      </trkpt>
      <trkpt lat="46.26658" lon="6.27068">
        <ele>438.79998779297</ele>
        <time>2020-02-23T12:32:45Z</time>
      </trkpt>
      <trkpt lat="46.26657" lon="6.27072">
        <ele>438.79998779297</ele>
        <time>2020-02-23T12:32:46Z</time>
      </trkpt>
      <trkpt lat="46.26656" lon="6.27076">
        <ele>438.79998779297</ele>
        <time>2020-02-23T12:32:47Z</time>
      </trkpt>
      <trkpt lat="46.26655" lon="6.2708">
        <ele>439.20001220703</ele>
        <time>2020-02-23T12:32:48Z</time>
      </trkpt>
      <trkpt lat="46.26654" lon="6.27084">
        <ele>439.60000610352</ele>
        <time>2020-02-23T12:32:49Z</time>
      </trkpt>
      <trkpt lat="46.26653" lon="6.27087">
        <ele>439.79998779297</ele>
        <time>2020-02-23T12:32:50Z</time>
      </trkpt>
      <trkpt lat="46.26652" lon="6.27091">
        <ele>439.79998779297</ele>
        <time>2020-02-23T12:32:51Z</time>
      </trkpt>
      <trkpt lat="46.2665" lon="6.27094">
        <ele>440.20001220703</ele>
        <time>2020-02-23T12:32:52Z</time>
      </trkpt>
      <trkpt lat="46.26649" lon="6.27097">
        <ele>440.60000610352</ele>
        <time>2020-02-23T12:32:53Z</time>
      </trkpt>
      <trkpt lat="46.26647" lon="6.271">
        <ele>440.79998779297</ele>
        <time>2020-02-23T12:32:54Z</time>
      </trkpt>
      <trkpt lat="46.26646" lon="6.27103">
        <ele>441</ele>
        <time>2020-02-23T12:32:55Z</time>
      </trkpt>
      <trkpt lat="46.26645" lon="6.27107">
        <ele>441.20001220703</ele>
        <time>2020-02-23T12:32:56Z</time>
      </trkpt>
      <trkpt lat="46.26643" lon="6.2711">
        <ele>441.60000610352</ele>
        <time>2020-02-23T12:32:57Z</time>
      </trkpt>
      <trkpt lat="46.26641" lon="6.27113">
        <ele>441.79998779297</ele>
        <time>2020-02-23T12:32:58Z</time>
      </trkpt>
      <trkpt lat="46.26638" lon="6.27115">
        <ele>441.79998779297</ele>
        <time>2020-02-23T12:32:59Z</time>
      </trkpt>
      <trkpt lat="46.26636" lon="6.27118">
        <ele>442.20001220703</ele>
        <time>2020-02-23T12:33:00Z</time>
      </trkpt>
      <trkpt lat="46.26634" lon="6.27121">
        <ele>442.60000610352</ele>
        <time>2020-02-23T12:33:01Z</time>
      </trkpt>
      <trkpt lat="46.26632" lon="6.27124">
        <ele>442.79998779297</ele>
        <time>2020-02-23T12:33:02Z</time>
      </trkpt>
      <trkpt lat="46.26629" lon="6.27127">
        <ele>442.79998779297</ele>
        <time>2020-02-23T12:33:03Z</time>
      </trkpt>
      <trkpt lat="46.26627" lon="6.2713">
        <ele>443</ele>
        <time>2020-02-23T12:33:04Z</time>
      </trkpt>
      <trkpt lat="46.26625" lon="6.27133">
        <ele>443.39999389648</ele>
        <time>2020-02-23T12:33:05Z</time>
      </trkpt>
      <trkpt lat="46.26623" lon="6.27137">
        <ele>443.60000610352</ele>
        <time>2020-02-23T12:33:06Z</time>
      </trkpt>
      <trkpt lat="46.26621" lon="6.2714">
        <ele>444</ele>
        <time>2020-02-23T12:33:07Z</time>
      </trkpt>
      <trkpt lat="46.26619" lon="6.27144">
        <ele>444</ele>
        <time>2020-02-23T12:33:08Z</time>
      </trkpt>
      <trkpt lat="46.26617" lon="6.27147">
        <ele>444.39999389648</ele>
        <time>2020-02-23T12:33:09Z</time>
      </trkpt>
      <trkpt lat="46.26615" lon="6.2715">
        <ele>444.60000610352</ele>
        <time>2020-02-23T12:33:10Z</time>
      </trkpt>
      <trkpt lat="46.26614" lon="6.27154">
        <ele>444.60000610352</ele>
        <time>2020-02-23T12:33:11Z</time>
      </trkpt>
      <trkpt lat="46.26613" lon="6.27158">
        <ele>444.60000610352</ele>
        <time>2020-02-23T12:33:12Z</time>
      </trkpt>
      <trkpt lat="46.26613" lon="6.27162">
        <ele>444.79998779297</ele>
        <time>2020-02-23T12:33:13Z</time>
      </trkpt>
      <trkpt lat="46.26613" lon="6.27167">
        <ele>444.79998779297</ele>
        <time>2020-02-23T12:33:14Z</time>
      </trkpt>
      <trkpt lat="46.26613" lon="6.27171">
        <ele>444.79998779297</ele>
        <time>2020-02-23T12:33:15Z</time>
      </trkpt>
      <trkpt lat="46.26613" lon="6.27176">
        <ele>444.79998779297</ele>
        <time>2020-02-23T12:33:16Z</time>
      </trkpt>
      <trkpt lat="46.26613" lon="6.2719">
        <ele>445.39999389648</ele>
        <time>2020-02-23T12:33:19Z</time>
      </trkpt>
      <trkpt lat="46.26613" lon="6.27195">
        <ele>445.39999389648</ele>
        <time>2020-02-23T12:33:20Z</time>
      </trkpt>
      <trkpt lat="46.26613" lon="6.27214">
        <ele>445.79998779297</ele>
        <time>2020-02-23T12:33:24Z</time>
      </trkpt>
      <trkpt lat="46.26613" lon="6.27219">
        <ele>445.79998779297</ele>
        <time>2020-02-23T12:33:25Z</time>
      </trkpt>
      <trkpt lat="46.26612" lon="6.27229">
        <ele>446</ele>
        <time>2020-02-23T12:33:27Z</time>
      </trkpt>
      <trkpt lat="46.26612" lon="6.27234">
        <ele>446</ele>
        <time>2020-02-23T12:33:28Z</time>
      </trkpt>
      <trkpt lat="46.26612" lon="6.27245">
        <ele>446.20001220703</ele>
        <time>2020-02-23T12:33:30Z</time>
      </trkpt>
      <trkpt lat="46.26612" lon="6.27251">
        <ele>446.20001220703</ele>
        <time>2020-02-23T12:33:31Z</time>
      </trkpt>
      <trkpt lat="46.26612" lon="6.27256">
        <ele>446.39999389648</ele>
        <time>2020-02-23T12:33:32Z</time>
      </trkpt>
      <trkpt lat="46.26612" lon="6.27267">
        <ele>446.39999389648</ele>
        <time>2020-02-23T12:33:34Z</time>
      </trkpt>
      <trkpt lat="46.26611" lon="6.27272">
        <ele>446.39999389648</ele>
        <time>2020-02-23T12:33:35Z</time>
      </trkpt>
      <trkpt lat="46.26611" lon="6.27289">
        <ele>446.79998779297</ele>
        <time>2020-02-23T12:33:38Z</time>
      </trkpt>
      <trkpt lat="46.26611" lon="6.27294">
        <ele>447</ele>
        <time>2020-02-23T12:33:39Z</time>
      </trkpt>
      <trkpt lat="46.26611" lon="6.273">
        <ele>447</ele>
        <time>2020-02-23T12:33:40Z</time>
      </trkpt>
      <trkpt lat="46.26611" lon="6.27311">
        <ele>447.20001220703</ele>
        <time>2020-02-23T12:33:42Z</time>
      </trkpt>
      <trkpt lat="46.26611" lon="6.27316">
        <ele>447.39999389648</ele>
        <time>2020-02-23T12:33:43Z</time>
      </trkpt>
      <trkpt lat="46.2661" lon="6.27321">
        <ele>447.39999389648</ele>
        <time>2020-02-23T12:33:44Z</time>
      </trkpt>
      <trkpt lat="46.2661" lon="6.27327">
        <ele>447.39999389648</ele>
        <time>2020-02-23T12:33:45Z</time>
      </trkpt>
      <trkpt lat="46.2661" lon="6.27332">
        <ele>447.39999389648</ele>
        <time>2020-02-23T12:33:46Z</time>
      </trkpt>
      <trkpt lat="46.2661" lon="6.27338">
        <ele>447.60000610352</ele>
        <time>2020-02-23T12:33:47Z</time>
      </trkpt>
      <trkpt lat="46.26611" lon="6.27343">
        <ele>447.79998779297</ele>
        <time>2020-02-23T12:33:48Z</time>
      </trkpt>
      <trkpt lat="46.2661" lon="6.27365">
        <ele>448</ele>
        <time>2020-02-23T12:33:52Z</time>
      </trkpt>
      <trkpt lat="46.26609" lon="6.27382">
        <ele>448.60000610352</ele>
        <time>2020-02-23T12:33:55Z</time>
      </trkpt>
      <trkpt lat="46.26607" lon="6.27424">
        <ele>449</ele>
        <time>2020-02-23T12:34:02Z</time>
      </trkpt>
      <trkpt lat="46.26607" lon="6.27429">
        <ele>449.20001220703</ele>
        <time>2020-02-23T12:34:03Z</time>
      </trkpt>
      <trkpt lat="46.26606" lon="6.27478">
        <ele>449.60000610352</ele>
        <time>2020-02-23T12:34:11Z</time>
      </trkpt>
      <trkpt lat="46.26607" lon="6.27498">
        <ele>449.79998779297</ele>
        <time>2020-02-23T12:34:14Z</time>
      </trkpt>
      <trkpt lat="46.26608" lon="6.27505">
        <ele>449.79998779297</ele>
        <time>2020-02-23T12:34:15Z</time>
      </trkpt>
      <trkpt lat="46.26608" lon="6.27511">
        <ele>449.79998779297</ele>
        <time>2020-02-23T12:34:16Z</time>
      </trkpt>
      <trkpt lat="46.26608" lon="6.27517">
        <ele>449.79998779297</ele>
        <time>2020-02-23T12:34:17Z</time>
      </trkpt>
      <trkpt lat="46.26609" lon="6.27522">
        <ele>449.79998779297</ele>
        <time>2020-02-23T12:34:18Z</time>
      </trkpt>
      <trkpt lat="46.26609" lon="6.27527">
        <ele>449.79998779297</ele>
        <time>2020-02-23T12:34:19Z</time>
      </trkpt>
      <trkpt lat="46.26609" lon="6.27532">
        <ele>449.79998779297</ele>
        <time>2020-02-23T12:34:20Z</time>
      </trkpt>
      <trkpt lat="46.26608" lon="6.27536">
        <ele>449.79998779297</ele>
        <time>2020-02-23T12:34:21Z</time>
      </trkpt>
      <trkpt lat="46.26607" lon="6.2754">
        <ele>450</ele>
        <time>2020-02-23T12:34:22Z</time>
      </trkpt>
      <trkpt lat="46.26605" lon="6.27542">
        <ele>450</ele>
        <time>2020-02-23T12:34:23Z</time>
      </trkpt>
      <trkpt lat="46.26604" lon="6.27545">
        <ele>450.20001220703</ele>
        <time>2020-02-23T12:34:24Z</time>
      </trkpt>
      <trkpt lat="46.26598" lon="6.27554">
        <ele>450.20001220703</ele>
        <time>2020-02-23T12:34:27Z</time>
      </trkpt>
      <trkpt lat="46.26591" lon="6.27564">
        <ele>450.60000610352</ele>
        <time>2020-02-23T12:34:30Z</time>
      </trkpt>
      <trkpt lat="46.26578" lon="6.27582">
        <ele>451</ele>
        <time>2020-02-23T12:34:35Z</time>
      </trkpt>
      <trkpt lat="46.26571" lon="6.2759">
        <ele>451</ele>
        <time>2020-02-23T12:34:37Z</time>
      </trkpt>
      <trkpt lat="46.26568" lon="6.27594">
        <ele>451.20001220703</ele>
        <time>2020-02-23T12:34:38Z</time>
      </trkpt>
      <trkpt lat="46.26555" lon="6.27611">
        <ele>451.39999389648</ele>
        <time>2020-02-23T12:34:42Z</time>
      </trkpt>
      <trkpt lat="46.26552" lon="6.27615">
        <ele>451.20001220703</ele>
        <time>2020-02-23T12:34:43Z</time>
      </trkpt>
      <trkpt lat="46.26549" lon="6.27619">
        <ele>451.39999389648</ele>
        <time>2020-02-23T12:34:44Z</time>
      </trkpt>
      <trkpt lat="46.26547" lon="6.27622">
        <ele>451.60000610352</ele>
        <time>2020-02-23T12:34:45Z</time>
      </trkpt>
      <trkpt lat="46.26544" lon="6.27625">
        <ele>451.60000610352</ele>
        <time>2020-02-23T12:34:46Z</time>
      </trkpt>
      <trkpt lat="46.26542" lon="6.27629">
        <ele>451.60000610352</ele>
        <time>2020-02-23T12:34:47Z</time>
      </trkpt>
      <trkpt lat="46.2654" lon="6.27632">
        <ele>451.79998779297</ele>
        <time>2020-02-23T12:34:48Z</time>
      </trkpt>
      <trkpt lat="46.26539" lon="6.27634">
        <ele>451.79998779297</ele>
        <time>2020-02-23T12:34:49Z</time>
      </trkpt>
      <trkpt lat="46.26537" lon="6.27637">
        <ele>451.79998779297</ele>
        <time>2020-02-23T12:34:50Z</time>
      </trkpt>
      <trkpt lat="46.26536" lon="6.27639">
        <ele>452</ele>
        <time>2020-02-23T12:34:51Z</time>
      </trkpt>
      <trkpt lat="46.26535" lon="6.27641">
        <ele>452</ele>
        <time>2020-02-23T12:34:52Z</time>
      </trkpt>
      <trkpt lat="46.26534" lon="6.27644">
        <ele>452.20001220703</ele>
        <time>2020-02-23T12:34:53Z</time>
      </trkpt>
      <trkpt lat="46.26534" lon="6.27647">
        <ele>452.20001220703</ele>
        <time>2020-02-23T12:34:54Z</time>
      </trkpt>
      <trkpt lat="46.26534" lon="6.27651">
        <ele>452.39999389648</ele>
        <time>2020-02-23T12:34:55Z</time>
      </trkpt>
      <trkpt lat="46.26534" lon="6.27655">
        <ele>452.60000610352</ele>
        <time>2020-02-23T12:34:56Z</time>
      </trkpt>
      <trkpt lat="46.26535" lon="6.27659">
        <ele>453</ele>
        <time>2020-02-23T12:34:57Z</time>
      </trkpt>
      <trkpt lat="46.26536" lon="6.27662">
        <ele>453.20001220703</ele>
        <time>2020-02-23T12:34:58Z</time>
      </trkpt>
      <trkpt lat="46.26537" lon="6.27665">
        <ele>453.39999389648</ele>
        <time>2020-02-23T12:34:59Z</time>
      </trkpt>
      <trkpt lat="46.26539" lon="6.27668">
        <ele>453.39999389648</ele>
        <time>2020-02-23T12:35:00Z</time>
      </trkpt>
      <trkpt lat="46.2654" lon="6.2767">
        <ele>453.60000610352</ele>
        <time>2020-02-23T12:35:01Z</time>
      </trkpt>
      <trkpt lat="46.26541" lon="6.27672">
        <ele>453.60000610352</ele>
        <time>2020-02-23T12:35:02Z</time>
      </trkpt>
      <trkpt lat="46.26542" lon="6.27674">
        <ele>453.60000610352</ele>
        <time>2020-02-23T12:35:03Z</time>
      </trkpt>
      <trkpt lat="46.26542" lon="6.27676">
        <ele>453.60000610352</ele>
        <time>2020-02-23T12:35:04Z</time>
      </trkpt>
      <trkpt lat="46.26543" lon="6.27677">
        <ele>453.60000610352</ele>
        <time>2020-02-23T12:35:05Z</time>
      </trkpt>
      <trkpt lat="46.26543" lon="6.27677">
        <ele>453.60000610352</ele>
        <time>2020-02-23T12:35:06Z</time>
      </trkpt>
      <trkpt lat="46.26543" lon="6.27677">
        <ele>454</ele>
        <time>2020-02-23T12:35:14Z</time>
      </trkpt>
      <trkpt lat="46.26543" lon="6.27678">
        <ele>453.79998779297</ele>
        <time>2020-02-23T12:35:30Z</time>
      </trkpt>
      <trkpt lat="46.26542" lon="6.27679">
        <ele>454</ele>
        <time>2020-02-23T12:35:31Z</time>
      </trkpt>
      <trkpt lat="46.26542" lon="6.27681">
        <ele>453.79998779297</ele>
        <time>2020-02-23T12:35:32Z</time>
      </trkpt>
      <trkpt lat="46.26541" lon="6.27683">
        <ele>453.79998779297</ele>
        <time>2020-02-23T12:35:33Z</time>
      </trkpt>
      <trkpt lat="46.26541" lon="6.27686">
        <ele>453.79998779297</ele>
        <time>2020-02-23T12:35:34Z</time>
      </trkpt>
      <trkpt lat="46.26541" lon="6.27687">
        <ele>453.79998779297</ele>
        <time>2020-02-23T12:35:35Z</time>
      </trkpt>
      <trkpt lat="46.2654" lon="6.27689">
        <ele>453.60000610352</ele>
        <time>2020-02-23T12:35:36Z</time>
      </trkpt>
      <trkpt lat="46.2654" lon="6.27689">
        <ele>453.60000610352</ele>
        <time>2020-02-23T12:35:37Z</time>
      </trkpt>
      <trkpt lat="46.26539" lon="6.27691">
        <ele>453.39999389648</ele>
        <time>2020-02-23T12:35:43Z</time>
      </trkpt>
      <trkpt lat="46.26539" lon="6.27693">
        <ele>453.39999389648</ele>
        <time>2020-02-23T12:35:47Z</time>
      </trkpt>
      <trkpt lat="46.26539" lon="6.27695">
        <ele>453.39999389648</ele>
        <time>2020-02-23T12:35:49Z</time>
      </trkpt>
      <trkpt lat="46.26538" lon="6.27697">
        <ele>453.20001220703</ele>
        <time>2020-02-23T12:35:50Z</time>
      </trkpt>
      <trkpt lat="46.26536" lon="6.277">
        <ele>453.39999389648</ele>
        <time>2020-02-23T12:35:56Z</time>
      </trkpt>
      <trkpt lat="46.26535" lon="6.27701">
        <ele>453.39999389648</ele>
        <time>2020-02-23T12:35:57Z</time>
      </trkpt>
      <trkpt lat="46.26535" lon="6.27702">
        <ele>453.39999389648</ele>
        <time>2020-02-23T12:35:58Z</time>
      </trkpt>
      <trkpt lat="46.26535" lon="6.27704">
        <ele>453.39999389648</ele>
        <time>2020-02-23T12:35:59Z</time>
      </trkpt>
      <trkpt lat="46.26535" lon="6.27704">
        <ele>453.39999389648</ele>
        <time>2020-02-23T12:36:00Z</time>
      </trkpt>
      <trkpt lat="46.26535" lon="6.27706">
        <ele>453.60000610352</ele>
        <time>2020-02-23T12:36:01Z</time>
      </trkpt>
      <trkpt lat="46.26535" lon="6.27706">
        <ele>453.60000610352</ele>
        <time>2020-02-23T12:36:02Z</time>
      </trkpt>
      <trkpt lat="46.26535" lon="6.27707">
        <ele>453.39999389648</ele>
        <time>2020-02-23T12:36:03Z</time>
      </trkpt>
      <trkpt lat="46.26535" lon="6.27709">
        <ele>453.39999389648</ele>
        <time>2020-02-23T12:36:04Z</time>
      </trkpt>
      <trkpt lat="46.26535" lon="6.2771">
        <ele>453.60000610352</ele>
        <time>2020-02-23T12:36:05Z</time>
      </trkpt>
      <trkpt lat="46.26534" lon="6.27713">
        <ele>453.60000610352</ele>
        <time>2020-02-23T12:36:06Z</time>
      </trkpt>
      <trkpt lat="46.26534" lon="6.27713">
        <ele>453.60000610352</ele>
        <time>2020-02-23T12:36:07Z</time>
      </trkpt>
      <trkpt lat="46.26534" lon="6.27715">
        <ele>453.60000610352</ele>
        <time>2020-02-23T12:36:08Z</time>
      </trkpt>
      <trkpt lat="46.26534" lon="6.27716">
        <ele>453.60000610352</ele>
        <time>2020-02-23T12:36:09Z</time>
      </trkpt>
      <trkpt lat="46.26533" lon="6.27717">
        <ele>453.60000610352</ele>
        <time>2020-02-23T12:36:10Z</time>
      </trkpt>
      <trkpt lat="46.26533" lon="6.27718">
        <ele>453.79998779297</ele>
        <time>2020-02-23T12:36:11Z</time>
      </trkpt>
      <trkpt lat="46.26532" lon="6.27718">
        <ele>453.79998779297</ele>
        <time>2020-02-23T12:36:14Z</time>
      </trkpt>
      <trkpt lat="46.26532" lon="6.27718">
        <ele>453.79998779297</ele>
        <time>2020-02-23T12:36:28Z</time>
      </trkpt>
      <trkpt lat="46.26531" lon="6.27719">
        <ele>454</ele>
        <time>2020-02-23T12:36:43Z</time>
      </trkpt>
      <trkpt lat="46.26531" lon="6.27723">
        <ele>453.79998779297</ele>
        <time>2020-02-23T12:36:47Z</time>
      </trkpt>
      <trkpt lat="46.2653" lon="6.27725">
        <ele>453.79998779297</ele>
        <time>2020-02-23T12:36:48Z</time>
      </trkpt>
      <trkpt lat="46.2653" lon="6.27727">
        <ele>453.79998779297</ele>
        <time>2020-02-23T12:36:49Z</time>
      </trkpt>
      <trkpt lat="46.26529" lon="6.2773">
        <ele>453.79998779297</ele>
        <time>2020-02-23T12:36:51Z</time>
      </trkpt>
      <trkpt lat="46.26528" lon="6.27735">
        <ele>453.60000610352</ele>
        <time>2020-02-23T12:36:52Z</time>
      </trkpt>
      <trkpt lat="46.26527" lon="6.27737">
        <ele>453.79998779297</ele>
        <time>2020-02-23T12:36:54Z</time>
      </trkpt>
      <trkpt lat="46.26527" lon="6.2774">
        <ele>453.79998779297</ele>
        <time>2020-02-23T12:36:55Z</time>
      </trkpt>
      <trkpt lat="46.26526" lon="6.27743">
        <ele>453.60000610352</ele>
        <time>2020-02-23T12:36:56Z</time>
      </trkpt>
      <trkpt lat="46.26524" lon="6.27749">
        <ele>453.60000610352</ele>
        <time>2020-02-23T12:36:57Z</time>
      </trkpt>
      <trkpt lat="46.26524" lon="6.27749">
        <ele>453.60000610352</ele>
        <time>2020-02-23T12:36:58Z</time>
      </trkpt>
      <trkpt lat="46.26523" lon="6.27752">
        <ele>453.60000610352</ele>
        <time>2020-02-23T12:36:59Z</time>
      </trkpt>
      <trkpt lat="46.26514" lon="6.27774">
        <ele>453.60000610352</ele>
        <time>2020-02-23T12:37:04Z</time>
      </trkpt>
      <trkpt lat="46.26512" lon="6.27778">
        <ele>453.39999389648</ele>
        <time>2020-02-23T12:37:05Z</time>
      </trkpt>
      <trkpt lat="46.26511" lon="6.27783">
        <ele>453.60000610352</ele>
        <time>2020-02-23T12:37:06Z</time>
      </trkpt>
      <trkpt lat="46.2651" lon="6.27787">
        <ele>453.39999389648</ele>
        <time>2020-02-23T12:37:07Z</time>
      </trkpt>
      <trkpt lat="46.26507" lon="6.27795">
        <ele>453.60000610352</ele>
        <time>2020-02-23T12:37:08Z</time>
      </trkpt>
      <trkpt lat="46.26506" lon="6.27799">
        <ele>453.39999389648</ele>
        <time>2020-02-23T12:37:09Z</time>
      </trkpt>
      <trkpt lat="46.26506" lon="6.27799">
        <ele>453.39999389648</ele>
        <time>2020-02-23T12:37:10Z</time>
      </trkpt>
      <trkpt lat="46.26504" lon="6.27806">
        <ele>453.60000610352</ele>
        <time>2020-02-23T12:37:12Z</time>
      </trkpt>
      <trkpt lat="46.26501" lon="6.27814">
        <ele>453.39999389648</ele>
        <time>2020-02-23T12:37:14Z</time>
      </trkpt>
      <trkpt lat="46.265" lon="6.27817">
        <ele>453.39999389648</ele>
        <time>2020-02-23T12:37:15Z</time>
      </trkpt>
      <trkpt lat="46.26498" lon="6.27823">
        <ele>453.60000610352</ele>
        <time>2020-02-23T12:37:16Z</time>
      </trkpt>
      <trkpt lat="46.26498" lon="6.27823">
        <ele>453.79998779297</ele>
        <time>2020-02-23T12:37:17Z</time>
      </trkpt>
      <trkpt lat="46.26496" lon="6.27826">
        <ele>453.79998779297</ele>
        <time>2020-02-23T12:37:18Z</time>
      </trkpt>
      <trkpt lat="46.26494" lon="6.27829">
        <ele>453.60000610352</ele>
        <time>2020-02-23T12:37:19Z</time>
      </trkpt>
      <trkpt lat="46.26492" lon="6.27831">
        <ele>453.79998779297</ele>
        <time>2020-02-23T12:37:20Z</time>
      </trkpt>
      <trkpt lat="46.2649" lon="6.27833">
        <ele>453.79998779297</ele>
        <time>2020-02-23T12:37:21Z</time>
      </trkpt>
      <trkpt lat="46.26485" lon="6.27838">
        <ele>454</ele>
        <time>2020-02-23T12:37:23Z</time>
      </trkpt>
      <trkpt lat="46.26481" lon="6.27843">
        <ele>454.20001220703</ele>
        <time>2020-02-23T12:37:25Z</time>
      </trkpt>
      <trkpt lat="46.26479" lon="6.27845">
        <ele>454.39999389648</ele>
        <time>2020-02-23T12:37:26Z</time>
      </trkpt>
      <trkpt lat="46.26474" lon="6.27847">
        <ele>454.39999389648</ele>
        <time>2020-02-23T12:37:27Z</time>
      </trkpt>
      <trkpt lat="46.26472" lon="6.27848">
        <ele>454.39999389648</ele>
        <time>2020-02-23T12:37:28Z</time>
      </trkpt>
      <trkpt lat="46.26469" lon="6.27849">
        <ele>454.39999389648</ele>
        <time>2020-02-23T12:37:29Z</time>
      </trkpt>
      <trkpt lat="46.26467" lon="6.27849">
        <ele>454.60000610352</ele>
        <time>2020-02-23T12:37:30Z</time>
      </trkpt>
      <trkpt lat="46.26467" lon="6.27849">
        <ele>454.60000610352</ele>
        <time>2020-02-23T12:37:31Z</time>
      </trkpt>
      <trkpt lat="46.26464" lon="6.2785">
        <ele>454.60000610352</ele>
        <time>2020-02-23T12:37:32Z</time>
      </trkpt>
      <trkpt lat="46.26459" lon="6.27851">
        <ele>454.60000610352</ele>
        <time>2020-02-23T12:37:33Z</time>
      </trkpt>
      <trkpt lat="46.26457" lon="6.27851">
        <ele>454.79998779297</ele>
        <time>2020-02-23T12:37:34Z</time>
      </trkpt>
      <trkpt lat="46.26455" lon="6.27852">
        <ele>455</ele>
        <time>2020-02-23T12:37:35Z</time>
      </trkpt>
      <trkpt lat="46.26453" lon="6.27853">
        <ele>455</ele>
        <time>2020-02-23T12:37:36Z</time>
      </trkpt>
      <trkpt lat="46.26453" lon="6.27853">
        <ele>455</ele>
        <time>2020-02-23T12:37:37Z</time>
      </trkpt>
      <trkpt lat="46.26441" lon="6.27861">
        <ele>455.20001220703</ele>
        <time>2020-02-23T12:37:42Z</time>
      </trkpt>
      <trkpt lat="46.26437" lon="6.27866">
        <ele>455.20001220703</ele>
        <time>2020-02-23T12:37:43Z</time>
      </trkpt>
      <trkpt lat="46.26436" lon="6.27869">
        <ele>455.39999389648</ele>
        <time>2020-02-23T12:37:44Z</time>
      </trkpt>
      <trkpt lat="46.26435" lon="6.27871">
        <ele>455.39999389648</ele>
        <time>2020-02-23T12:37:45Z</time>
      </trkpt>
      <trkpt lat="46.26435" lon="6.27871">
        <ele>455.39999389648</ele>
        <time>2020-02-23T12:37:46Z</time>
      </trkpt>
      <trkpt lat="46.26432" lon="6.2788">
        <ele>455.39999389648</ele>
        <time>2020-02-23T12:37:48Z</time>
      </trkpt>
      <trkpt lat="46.26431" lon="6.27883">
        <ele>455.39999389648</ele>
        <time>2020-02-23T12:37:49Z</time>
      </trkpt>
      <trkpt lat="46.26431" lon="6.27883">
        <ele>455.39999389648</ele>
        <time>2020-02-23T12:37:50Z</time>
      </trkpt>
      <trkpt lat="46.26427" lon="6.27892">
        <ele>455.39999389648</ele>
        <time>2020-02-23T12:37:53Z</time>
      </trkpt>
      <trkpt lat="46.26425" lon="6.27894">
        <ele>455.60000610352</ele>
        <time>2020-02-23T12:37:54Z</time>
      </trkpt>
      <trkpt lat="46.26424" lon="6.27897">
        <ele>455.60000610352</ele>
        <time>2020-02-23T12:37:55Z</time>
      </trkpt>
      <trkpt lat="46.26421" lon="6.27901">
        <ele>455.60000610352</ele>
        <time>2020-02-23T12:37:56Z</time>
      </trkpt>
      <trkpt lat="46.26421" lon="6.27901">
        <ele>455.79998779297</ele>
        <time>2020-02-23T12:37:57Z</time>
      </trkpt>
      <trkpt lat="46.26419" lon="6.27905">
        <ele>455.60000610352</ele>
        <time>2020-02-23T12:37:58Z</time>
      </trkpt>
      <trkpt lat="46.26419" lon="6.27905">
        <ele>455.79998779297</ele>
        <time>2020-02-23T12:37:59Z</time>
      </trkpt>
      <trkpt lat="46.26418" lon="6.27907">
        <ele>455.79998779297</ele>
        <time>2020-02-23T12:38:00Z</time>
      </trkpt>
      <trkpt lat="46.26417" lon="6.27908">
        <ele>455.79998779297</ele>
        <time>2020-02-23T12:38:01Z</time>
      </trkpt>
      <trkpt lat="46.26417" lon="6.27909">
        <ele>455.79998779297</ele>
        <time>2020-02-23T12:38:02Z</time>
      </trkpt>
      <trkpt lat="46.26416" lon="6.27911">
        <ele>455.79998779297</ele>
        <time>2020-02-23T12:38:03Z</time>
      </trkpt>
      <trkpt lat="46.26415" lon="6.27912">
        <ele>455.79998779297</ele>
        <time>2020-02-23T12:38:04Z</time>
      </trkpt>
      <trkpt lat="46.26414" lon="6.27914">
        <ele>456</ele>
        <time>2020-02-23T12:38:05Z</time>
      </trkpt>
      <trkpt lat="46.26412" lon="6.27917">
        <ele>455.79998779297</ele>
        <time>2020-02-23T12:38:07Z</time>
      </trkpt>
      <trkpt lat="46.26411" lon="6.27919">
        <ele>455.79998779297</ele>
        <time>2020-02-23T12:38:08Z</time>
      </trkpt>
      <trkpt lat="46.2641" lon="6.27921">
        <ele>456</ele>
        <time>2020-02-23T12:38:09Z</time>
      </trkpt>
      <trkpt lat="46.26409" lon="6.27924">
        <ele>456</ele>
        <time>2020-02-23T12:38:10Z</time>
      </trkpt>
      <trkpt lat="46.26406" lon="6.27929">
        <ele>456</ele>
        <time>2020-02-23T12:38:11Z</time>
      </trkpt>
      <trkpt lat="46.26406" lon="6.27929">
        <ele>456</ele>
        <time>2020-02-23T12:38:12Z</time>
      </trkpt>
      <trkpt lat="46.26405" lon="6.27931">
        <ele>456</ele>
        <time>2020-02-23T12:38:13Z</time>
      </trkpt>
      <trkpt lat="46.26404" lon="6.27933">
        <ele>456.20001220703</ele>
        <time>2020-02-23T12:38:14Z</time>
      </trkpt>
      <trkpt lat="46.26403" lon="6.27935">
        <ele>456</ele>
        <time>2020-02-23T12:38:15Z</time>
      </trkpt>
      <trkpt lat="46.26402" lon="6.27938">
        <ele>456.20001220703</ele>
        <time>2020-02-23T12:38:16Z</time>
      </trkpt>
      <trkpt lat="46.264" lon="6.27942">
        <ele>456.20001220703</ele>
        <time>2020-02-23T12:38:17Z</time>
      </trkpt>
      <trkpt lat="46.26398" lon="6.27945">
        <ele>456.20001220703</ele>
        <time>2020-02-23T12:38:18Z</time>
      </trkpt>
      <trkpt lat="46.26398" lon="6.27945">
        <ele>456.39999389648</ele>
        <time>2020-02-23T12:38:19Z</time>
      </trkpt>
      <trkpt lat="46.26397" lon="6.27947">
        <ele>456.39999389648</ele>
        <time>2020-02-23T12:38:20Z</time>
      </trkpt>
      <trkpt lat="46.26394" lon="6.27952">
        <ele>456.60000610352</ele>
        <time>2020-02-23T12:38:21Z</time>
      </trkpt>
      <trkpt lat="46.26392" lon="6.27955">
        <ele>456.79998779297</ele>
        <time>2020-02-23T12:38:22Z</time>
      </trkpt>
      <trkpt lat="46.26392" lon="6.27955">
        <ele>456.79998779297</ele>
        <time>2020-02-23T12:38:23Z</time>
      </trkpt>
      <trkpt lat="46.26389" lon="6.27961">
        <ele>457</ele>
        <time>2020-02-23T12:38:24Z</time>
      </trkpt>
      <trkpt lat="46.26389" lon="6.27961">
        <ele>456.79998779297</ele>
        <time>2020-02-23T12:38:25Z</time>
      </trkpt>
      <trkpt lat="46.26388" lon="6.27964">
        <ele>457.20001220703</ele>
        <time>2020-02-23T12:38:26Z</time>
      </trkpt>
      <trkpt lat="46.26386" lon="6.27966">
        <ele>457.20001220703</ele>
        <time>2020-02-23T12:38:27Z</time>
      </trkpt>
      <trkpt lat="46.26384" lon="6.27969">
        <ele>457.20001220703</ele>
        <time>2020-02-23T12:38:28Z</time>
      </trkpt>
      <trkpt lat="46.26382" lon="6.27971">
        <ele>457.20001220703</ele>
        <time>2020-02-23T12:38:29Z</time>
      </trkpt>
      <trkpt lat="46.26382" lon="6.27971">
        <ele>457.20001220703</ele>
        <time>2020-02-23T12:38:30Z</time>
      </trkpt>
      <trkpt lat="46.26381" lon="6.27974">
        <ele>457.39999389648</ele>
        <time>2020-02-23T12:38:31Z</time>
      </trkpt>
      <trkpt lat="46.26377" lon="6.27979">
        <ele>457.39999389648</ele>
        <time>2020-02-23T12:38:32Z</time>
      </trkpt>
      <trkpt lat="46.26377" lon="6.27979">
        <ele>457.39999389648</ele>
        <time>2020-02-23T12:38:33Z</time>
      </trkpt>
      <trkpt lat="46.26376" lon="6.27982">
        <ele>457.39999389648</ele>
        <time>2020-02-23T12:38:34Z</time>
      </trkpt>
      <trkpt lat="46.26373" lon="6.27987">
        <ele>457.39999389648</ele>
        <time>2020-02-23T12:38:36Z</time>
      </trkpt>
      <trkpt lat="46.26371" lon="6.27989">
        <ele>457.39999389648</ele>
        <time>2020-02-23T12:38:37Z</time>
      </trkpt>
      <trkpt lat="46.26368" lon="6.27993">
        <ele>457.60000610352</ele>
        <time>2020-02-23T12:38:38Z</time>
      </trkpt>
      <trkpt lat="46.26367" lon="6.27995">
        <ele>457.39999389648</ele>
        <time>2020-02-23T12:38:40Z</time>
      </trkpt>
      <trkpt lat="46.26366" lon="6.27998">
        <ele>457.39999389648</ele>
        <time>2020-02-23T12:38:41Z</time>
      </trkpt>
      <trkpt lat="46.26363" lon="6.28003">
        <ele>457.60000610352</ele>
        <time>2020-02-23T12:38:43Z</time>
      </trkpt>
      <trkpt lat="46.26361" lon="6.28007">
        <ele>457.79998779297</ele>
        <time>2020-02-23T12:38:44Z</time>
      </trkpt>
      <trkpt lat="46.26361" lon="6.28009">
        <ele>457.60000610352</ele>
        <time>2020-02-23T12:38:45Z</time>
      </trkpt>
      <trkpt lat="46.2636" lon="6.28012">
        <ele>457.79998779297</ele>
        <time>2020-02-23T12:38:46Z</time>
      </trkpt>
      <trkpt lat="46.26358" lon="6.28017">
        <ele>457.79998779297</ele>
        <time>2020-02-23T12:38:48Z</time>
      </trkpt>
      <trkpt lat="46.26357" lon="6.2802">
        <ele>457.79998779297</ele>
        <time>2020-02-23T12:38:49Z</time>
      </trkpt>
      <trkpt lat="46.26356" lon="6.28023">
        <ele>457.79998779297</ele>
        <time>2020-02-23T12:38:50Z</time>
      </trkpt>
      <trkpt lat="46.26356" lon="6.28025">
        <ele>458</ele>
        <time>2020-02-23T12:38:51Z</time>
      </trkpt>
      <trkpt lat="46.26354" lon="6.28028">
        <ele>457.79998779297</ele>
        <time>2020-02-23T12:38:52Z</time>
      </trkpt>
      <trkpt lat="46.26353" lon="6.2803">
        <ele>457.79998779297</ele>
        <time>2020-02-23T12:38:53Z</time>
      </trkpt>
      <trkpt lat="46.26352" lon="6.28033">
        <ele>457.79998779297</ele>
        <time>2020-02-23T12:38:54Z</time>
      </trkpt>
      <trkpt lat="46.26349" lon="6.28038">
        <ele>458</ele>
        <time>2020-02-23T12:38:55Z</time>
      </trkpt>
      <trkpt lat="46.26349" lon="6.28038">
        <ele>458</ele>
        <time>2020-02-23T12:38:56Z</time>
      </trkpt>
      <trkpt lat="46.26346" lon="6.28043">
        <ele>458</ele>
        <time>2020-02-23T12:38:58Z</time>
      </trkpt>
      <trkpt lat="46.26345" lon="6.28046">
        <ele>458</ele>
        <time>2020-02-23T12:38:59Z</time>
      </trkpt>
      <trkpt lat="46.26343" lon="6.28048">
        <ele>458</ele>
        <time>2020-02-23T12:39:00Z</time>
      </trkpt>
      <trkpt lat="46.26341" lon="6.28053">
        <ele>458</ele>
        <time>2020-02-23T12:39:01Z</time>
      </trkpt>
      <trkpt lat="46.26341" lon="6.28053">
        <ele>458</ele>
        <time>2020-02-23T12:39:02Z</time>
      </trkpt>
      <trkpt lat="46.2634" lon="6.28056">
        <ele>458</ele>
        <time>2020-02-23T12:39:03Z</time>
      </trkpt>
      <trkpt lat="46.26339" lon="6.28059">
        <ele>458.20001220703</ele>
        <time>2020-02-23T12:39:04Z</time>
      </trkpt>
      <trkpt lat="46.26337" lon="6.28065">
        <ele>458.39999389648</ele>
        <time>2020-02-23T12:39:06Z</time>
      </trkpt>
      <trkpt lat="46.26337" lon="6.28069">
        <ele>458.39999389648</ele>
        <time>2020-02-23T12:39:07Z</time>
      </trkpt>
      <trkpt lat="46.26336" lon="6.28072">
        <ele>458.39999389648</ele>
        <time>2020-02-23T12:39:08Z</time>
      </trkpt>
      <trkpt lat="46.26336" lon="6.28074">
        <ele>458.39999389648</ele>
        <time>2020-02-23T12:39:09Z</time>
      </trkpt>
      <trkpt lat="46.26335" lon="6.28075">
        <ele>458.39999389648</ele>
        <time>2020-02-23T12:39:11Z</time>
      </trkpt>
      <trkpt lat="46.26329" lon="6.2808">
        <ele>458.79998779297</ele>
        <time>2020-02-23T12:39:18Z</time>
      </trkpt>
      <trkpt lat="46.26329" lon="6.2808">
        <ele>459</ele>
        <time>2020-02-23T12:39:19Z</time>
      </trkpt>
      <trkpt lat="46.26328" lon="6.28081">
        <ele>459</ele>
        <time>2020-02-23T12:39:20Z</time>
      </trkpt>
      <trkpt lat="46.26328" lon="6.28082">
        <ele>459</ele>
        <time>2020-02-23T12:39:21Z</time>
      </trkpt>
      <trkpt lat="46.26328" lon="6.28083">
        <ele>459</ele>
        <time>2020-02-23T12:39:22Z</time>
      </trkpt>
      <trkpt lat="46.26328" lon="6.28083">
        <ele>458.79998779297</ele>
        <time>2020-02-23T12:39:23Z</time>
      </trkpt>
      <trkpt lat="46.26327" lon="6.28084">
        <ele>459</ele>
        <time>2020-02-23T12:39:24Z</time>
      </trkpt>
      <trkpt lat="46.26327" lon="6.28084">
        <ele>459</ele>
        <time>2020-02-23T12:39:25Z</time>
      </trkpt>
      <trkpt lat="46.26327" lon="6.28085">
        <ele>459</ele>
        <time>2020-02-23T12:39:26Z</time>
      </trkpt>
      <trkpt lat="46.26327" lon="6.28085">
        <ele>459</ele>
        <time>2020-02-23T12:39:27Z</time>
      </trkpt>
      <trkpt lat="46.26327" lon="6.28085">
        <ele>459</ele>
        <time>2020-02-23T12:39:28Z</time>
      </trkpt>
      <trkpt lat="46.26327" lon="6.28085">
        <ele>459.20001220703</ele>
        <time>2020-02-23T12:39:30Z</time>
      </trkpt>
      <trkpt lat="46.26327" lon="6.28086">
        <ele>459.20001220703</ele>
        <time>2020-02-23T12:39:36Z</time>
      </trkpt>
      <trkpt lat="46.26326" lon="6.28088">
        <ele>459.20001220703</ele>
        <time>2020-02-23T12:39:37Z</time>
      </trkpt>
      <trkpt lat="46.26326" lon="6.28089">
        <ele>459.39999389648</ele>
        <time>2020-02-23T12:39:38Z</time>
      </trkpt>
      <trkpt lat="46.26326" lon="6.28091">
        <ele>459.20001220703</ele>
        <time>2020-02-23T12:39:40Z</time>
      </trkpt>
      <trkpt lat="46.26326" lon="6.28091">
        <ele>459.20001220703</ele>
        <time>2020-02-23T12:39:41Z</time>
      </trkpt>
      <trkpt lat="46.26326" lon="6.28093">
        <ele>459.39999389648</ele>
        <time>2020-02-23T12:39:42Z</time>
      </trkpt>
      <trkpt lat="46.26327" lon="6.28095">
        <ele>459.39999389648</ele>
        <time>2020-02-23T12:39:43Z</time>
      </trkpt>
      <trkpt lat="46.26327" lon="6.28095">
        <ele>459.20001220703</ele>
        <time>2020-02-23T12:39:44Z</time>
      </trkpt>
      <trkpt lat="46.26327" lon="6.28097">
        <ele>459.20001220703</ele>
        <time>2020-02-23T12:39:45Z</time>
      </trkpt>
      <trkpt lat="46.26327" lon="6.28097">
        <ele>459.20001220703</ele>
        <time>2020-02-23T12:39:46Z</time>
      </trkpt>
      <trkpt lat="46.26327" lon="6.281">
        <ele>459.20001220703</ele>
        <time>2020-02-23T12:39:47Z</time>
      </trkpt>
      <trkpt lat="46.26327" lon="6.28101">
        <ele>459.20001220703</ele>
        <time>2020-02-23T12:39:48Z</time>
      </trkpt>
      <trkpt lat="46.26327" lon="6.28104">
        <ele>459.20001220703</ele>
        <time>2020-02-23T12:39:50Z</time>
      </trkpt>
      <trkpt lat="46.26327" lon="6.28106">
        <ele>459.20001220703</ele>
        <time>2020-02-23T12:39:51Z</time>
      </trkpt>
      <trkpt lat="46.26327" lon="6.28106">
        <ele>459</ele>
        <time>2020-02-23T12:39:52Z</time>
      </trkpt>
      <trkpt lat="46.26328" lon="6.28108">
        <ele>459</ele>
        <time>2020-02-23T12:39:53Z</time>
      </trkpt>
      <trkpt lat="46.26328" lon="6.2811">
        <ele>459</ele>
        <time>2020-02-23T12:39:54Z</time>
      </trkpt>
      <trkpt lat="46.26328" lon="6.28112">
        <ele>459</ele>
        <time>2020-02-23T12:39:55Z</time>
      </trkpt>
      <trkpt lat="46.26328" lon="6.28113">
        <ele>459</ele>
        <time>2020-02-23T12:39:57Z</time>
      </trkpt>
      <trkpt lat="46.26328" lon="6.28116">
        <ele>459</ele>
        <time>2020-02-23T12:39:58Z</time>
      </trkpt>
      <trkpt lat="46.26328" lon="6.28117">
        <ele>459</ele>
        <time>2020-02-23T12:39:59Z</time>
      </trkpt>
      <trkpt lat="46.26327" lon="6.28121">
        <ele>459</ele>
        <time>2020-02-23T12:40:02Z</time>
      </trkpt>
      <trkpt lat="46.26327" lon="6.28123">
        <ele>459</ele>
        <time>2020-02-23T12:40:03Z</time>
      </trkpt>
      <trkpt lat="46.26327" lon="6.28123">
        <ele>459.20001220703</ele>
        <time>2020-02-23T12:40:04Z</time>
      </trkpt>
      <trkpt lat="46.26327" lon="6.28125">
        <ele>459</ele>
        <time>2020-02-23T12:40:05Z</time>
      </trkpt>
      <trkpt lat="46.26326" lon="6.28127">
        <ele>459.20001220703</ele>
        <time>2020-02-23T12:40:07Z</time>
      </trkpt>
      <trkpt lat="46.26326" lon="6.28128">
        <ele>459</ele>
        <time>2020-02-23T12:40:09Z</time>
      </trkpt>
      <trkpt lat="46.26325" lon="6.2813">
        <ele>458.79998779297</ele>
        <time>2020-02-23T12:40:12Z</time>
      </trkpt>
      <trkpt lat="46.26325" lon="6.28131">
        <ele>459</ele>
        <time>2020-02-23T12:40:13Z</time>
      </trkpt>
      <trkpt lat="46.26323" lon="6.28139">
        <ele>458.79998779297</ele>
        <time>2020-02-23T12:40:15Z</time>
      </trkpt>
      <trkpt lat="46.26323" lon="6.28139">
        <ele>459</ele>
        <time>2020-02-23T12:40:16Z</time>
      </trkpt>
      <trkpt lat="46.26323" lon="6.28147">
        <ele>459</ele>
        <time>2020-02-23T12:40:18Z</time>
      </trkpt>
      <trkpt lat="46.26323" lon="6.28147">
        <ele>459</ele>
        <time>2020-02-23T12:40:19Z</time>
      </trkpt>
      <trkpt lat="46.26324" lon="6.28152">
        <ele>459</ele>
        <time>2020-02-23T12:40:20Z</time>
      </trkpt>
      <trkpt lat="46.26323" lon="6.28157">
        <ele>459</ele>
        <time>2020-02-23T12:40:22Z</time>
      </trkpt>
      <trkpt lat="46.26323" lon="6.2816">
        <ele>459</ele>
        <time>2020-02-23T12:40:23Z</time>
      </trkpt>
      <trkpt lat="46.26323" lon="6.2816">
        <ele>459</ele>
        <time>2020-02-23T12:40:24Z</time>
      </trkpt>
      <trkpt lat="46.26322" lon="6.28163">
        <ele>458.79998779297</ele>
        <time>2020-02-23T12:40:25Z</time>
      </trkpt>
      <trkpt lat="46.26321" lon="6.28168">
        <ele>459</ele>
        <time>2020-02-23T12:40:26Z</time>
      </trkpt>
      <trkpt lat="46.26321" lon="6.2817">
        <ele>459</ele>
        <time>2020-02-23T12:40:27Z</time>
      </trkpt>
      <trkpt lat="46.2632" lon="6.28172">
        <ele>459</ele>
        <time>2020-02-23T12:40:28Z</time>
      </trkpt>
      <trkpt lat="46.2632" lon="6.28174">
        <ele>459</ele>
        <time>2020-02-23T12:40:29Z</time>
      </trkpt>
      <trkpt lat="46.26319" lon="6.28177">
        <ele>459</ele>
        <time>2020-02-23T12:40:30Z</time>
      </trkpt>
      <trkpt lat="46.26318" lon="6.28179">
        <ele>459</ele>
        <time>2020-02-23T12:40:31Z</time>
      </trkpt>
      <trkpt lat="46.26317" lon="6.28182">
        <ele>459</ele>
        <time>2020-02-23T12:40:32Z</time>
      </trkpt>
      <trkpt lat="46.26315" lon="6.28189">
        <ele>459.20001220703</ele>
        <time>2020-02-23T12:40:34Z</time>
      </trkpt>
      <trkpt lat="46.2631" lon="6.28204">
        <ele>459.20001220703</ele>
        <time>2020-02-23T12:40:38Z</time>
      </trkpt>
      <trkpt lat="46.2631" lon="6.28206">
        <ele>459.20001220703</ele>
        <time>2020-02-23T12:40:39Z</time>
      </trkpt>
      <trkpt lat="46.2631" lon="6.28208">
        <ele>459.20001220703</ele>
        <time>2020-02-23T12:40:40Z</time>
      </trkpt>
      <trkpt lat="46.26309" lon="6.28211">
        <ele>459.39999389648</ele>
        <time>2020-02-23T12:40:41Z</time>
      </trkpt>
      <trkpt lat="46.26309" lon="6.28213">
        <ele>459.39999389648</ele>
        <time>2020-02-23T12:40:42Z</time>
      </trkpt>
      <trkpt lat="46.26308" lon="6.28215">
        <ele>459.39999389648</ele>
        <time>2020-02-23T12:40:43Z</time>
      </trkpt>
      <trkpt lat="46.26308" lon="6.28217">
        <ele>459.39999389648</ele>
        <time>2020-02-23T12:40:44Z</time>
      </trkpt>
      <trkpt lat="46.26307" lon="6.28221">
        <ele>459.39999389648</ele>
        <time>2020-02-23T12:40:45Z</time>
      </trkpt>
      <trkpt lat="46.26307" lon="6.28226">
        <ele>459.60000610352</ele>
        <time>2020-02-23T12:40:47Z</time>
      </trkpt>
      <trkpt lat="46.26308" lon="6.28229">
        <ele>459.60000610352</ele>
        <time>2020-02-23T12:40:48Z</time>
      </trkpt>
      <trkpt lat="46.26308" lon="6.28229">
        <ele>459.39999389648</ele>
        <time>2020-02-23T12:40:49Z</time>
      </trkpt>
      <trkpt lat="46.2631" lon="6.28241">
        <ele>459.39999389648</ele>
        <time>2020-02-23T12:40:52Z</time>
      </trkpt>
      <trkpt lat="46.2631" lon="6.28244">
        <ele>459.60000610352</ele>
        <time>2020-02-23T12:40:53Z</time>
      </trkpt>
      <trkpt lat="46.2631" lon="6.28246">
        <ele>459.39999389648</ele>
        <time>2020-02-23T12:40:54Z</time>
      </trkpt>
      <trkpt lat="46.2631" lon="6.28249">
        <ele>459.60000610352</ele>
        <time>2020-02-23T12:40:55Z</time>
      </trkpt>
      <trkpt lat="46.2631" lon="6.28251">
        <ele>459.60000610352</ele>
        <time>2020-02-23T12:40:56Z</time>
      </trkpt>
      <trkpt lat="46.2631" lon="6.28253">
        <ele>459.60000610352</ele>
        <time>2020-02-23T12:40:57Z</time>
      </trkpt>
      <trkpt lat="46.26309" lon="6.28256">
        <ele>459.60000610352</ele>
        <time>2020-02-23T12:40:58Z</time>
      </trkpt>
      <trkpt lat="46.26309" lon="6.28259">
        <ele>459.60000610352</ele>
        <time>2020-02-23T12:40:59Z</time>
      </trkpt>
      <trkpt lat="46.26308" lon="6.28263">
        <ele>459.60000610352</ele>
        <time>2020-02-23T12:41:01Z</time>
      </trkpt>
      <trkpt lat="46.26308" lon="6.28269">
        <ele>459.60000610352</ele>
        <time>2020-02-23T12:41:02Z</time>
      </trkpt>
      <trkpt lat="46.26308" lon="6.28271">
        <ele>459.79998779297</ele>
        <time>2020-02-23T12:41:03Z</time>
      </trkpt>
      <trkpt lat="46.26307" lon="6.28273">
        <ele>459.60000610352</ele>
        <time>2020-02-23T12:41:04Z</time>
      </trkpt>
      <trkpt lat="46.26307" lon="6.28275">
        <ele>459.79998779297</ele>
        <time>2020-02-23T12:41:05Z</time>
      </trkpt>
      <trkpt lat="46.26307" lon="6.28275">
        <ele>459.79998779297</ele>
        <time>2020-02-23T12:41:06Z</time>
      </trkpt>
      <trkpt lat="46.26307" lon="6.28277">
        <ele>459.79998779297</ele>
        <time>2020-02-23T12:41:07Z</time>
      </trkpt>
      <trkpt lat="46.26303" lon="6.28288">
        <ele>459.79998779297</ele>
        <time>2020-02-23T12:41:08Z</time>
      </trkpt>
      <trkpt lat="46.26301" lon="6.28294">
        <ele>459.79998779297</ele>
        <time>2020-02-23T12:41:09Z</time>
      </trkpt>
      <trkpt lat="46.26298" lon="6.28307">
        <ele>459.60000610352</ele>
        <time>2020-02-23T12:41:12Z</time>
      </trkpt>
      <trkpt lat="46.26297" lon="6.28311">
        <ele>459.60000610352</ele>
        <time>2020-02-23T12:41:13Z</time>
      </trkpt>
      <trkpt lat="46.26296" lon="6.28315">
        <ele>459.79998779297</ele>
        <time>2020-02-23T12:41:14Z</time>
      </trkpt>
      <trkpt lat="46.26295" lon="6.28319">
        <ele>459.60000610352</ele>
        <time>2020-02-23T12:41:15Z</time>
      </trkpt>
      <trkpt lat="46.26296" lon="6.28321">
        <ele>459.79998779297</ele>
        <time>2020-02-23T12:41:16Z</time>
      </trkpt>
      <trkpt lat="46.26295" lon="6.28324">
        <ele>459.79998779297</ele>
        <time>2020-02-23T12:41:17Z</time>
      </trkpt>
      <trkpt lat="46.26294" lon="6.28327">
        <ele>459.79998779297</ele>
        <time>2020-02-23T12:41:18Z</time>
      </trkpt>
      <trkpt lat="46.26293" lon="6.2833">
        <ele>459.79998779297</ele>
        <time>2020-02-23T12:41:19Z</time>
      </trkpt>
      <trkpt lat="46.26291" lon="6.28337">
        <ele>459.79998779297</ele>
        <time>2020-02-23T12:41:21Z</time>
      </trkpt>
      <trkpt lat="46.26289" lon="6.28342">
        <ele>460</ele>
        <time>2020-02-23T12:41:23Z</time>
      </trkpt>
      <trkpt lat="46.26288" lon="6.28345">
        <ele>459.79998779297</ele>
        <time>2020-02-23T12:41:24Z</time>
      </trkpt>
      <trkpt lat="46.26288" lon="6.28345">
        <ele>459.79998779297</ele>
        <time>2020-02-23T12:41:25Z</time>
      </trkpt>
      <trkpt lat="46.26286" lon="6.28349">
        <ele>459.79998779297</ele>
        <time>2020-02-23T12:41:26Z</time>
      </trkpt>
      <trkpt lat="46.26284" lon="6.28352">
        <ele>460</ele>
        <time>2020-02-23T12:41:27Z</time>
      </trkpt>
      <trkpt lat="46.26283" lon="6.28355">
        <ele>459.79998779297</ele>
        <time>2020-02-23T12:41:28Z</time>
      </trkpt>
      <trkpt lat="46.26282" lon="6.28357">
        <ele>460</ele>
        <time>2020-02-23T12:41:30Z</time>
      </trkpt>
      <trkpt lat="46.26281" lon="6.28361">
        <ele>460</ele>
        <time>2020-02-23T12:41:31Z</time>
      </trkpt>
      <trkpt lat="46.26279" lon="6.28366">
        <ele>460</ele>
        <time>2020-02-23T12:41:32Z</time>
      </trkpt>
      <trkpt lat="46.26279" lon="6.28366">
        <ele>460.20001220703</ele>
        <time>2020-02-23T12:41:33Z</time>
      </trkpt>
      <trkpt lat="46.26278" lon="6.28371">
        <ele>460</ele>
        <time>2020-02-23T12:41:34Z</time>
      </trkpt>
      <trkpt lat="46.26278" lon="6.28371">
        <ele>460</ele>
        <time>2020-02-23T12:41:35Z</time>
      </trkpt>
      <trkpt lat="46.26278" lon="6.28373">
        <ele>460.20001220703</ele>
        <time>2020-02-23T12:41:36Z</time>
      </trkpt>
      <trkpt lat="46.26278" lon="6.28375">
        <ele>460.20001220703</ele>
        <time>2020-02-23T12:41:37Z</time>
      </trkpt>
      <trkpt lat="46.26278" lon="6.28381">
        <ele>460.20001220703</ele>
        <time>2020-02-23T12:41:39Z</time>
      </trkpt>
      <trkpt lat="46.26277" lon="6.28396">
        <ele>460.39999389648</ele>
        <time>2020-02-23T12:41:43Z</time>
      </trkpt>
      <trkpt lat="46.26277" lon="6.28401">
        <ele>460.39999389648</ele>
        <time>2020-02-23T12:41:44Z</time>
      </trkpt>
      <trkpt lat="46.26277" lon="6.28401">
        <ele>460.39999389648</ele>
        <time>2020-02-23T12:41:45Z</time>
      </trkpt>
      <trkpt lat="46.26276" lon="6.28404">
        <ele>460.39999389648</ele>
        <time>2020-02-23T12:41:46Z</time>
      </trkpt>
      <trkpt lat="46.26276" lon="6.28407">
        <ele>460.39999389648</ele>
        <time>2020-02-23T12:41:47Z</time>
      </trkpt>
      <trkpt lat="46.26273" lon="6.28415">
        <ele>460.60000610352</ele>
        <time>2020-02-23T12:41:49Z</time>
      </trkpt>
      <trkpt lat="46.26267" lon="6.28428">
        <ele>460.60000610352</ele>
        <time>2020-02-23T12:41:52Z</time>
      </trkpt>
      <trkpt lat="46.26266" lon="6.28431">
        <ele>460.60000610352</ele>
        <time>2020-02-23T12:41:53Z</time>
      </trkpt>
      <trkpt lat="46.26261" lon="6.2844">
        <ele>460.60000610352</ele>
        <time>2020-02-23T12:41:54Z</time>
      </trkpt>
      <trkpt lat="46.2626" lon="6.28443">
        <ele>460.60000610352</ele>
        <time>2020-02-23T12:41:55Z</time>
      </trkpt>
      <trkpt lat="46.2626" lon="6.28443">
        <ele>460.60000610352</ele>
        <time>2020-02-23T12:41:56Z</time>
      </trkpt>
      <trkpt lat="46.26258" lon="6.28449">
        <ele>460.79998779297</ele>
        <time>2020-02-23T12:41:57Z</time>
      </trkpt>
      <trkpt lat="46.26257" lon="6.28452">
        <ele>460.79998779297</ele>
        <time>2020-02-23T12:41:58Z</time>
      </trkpt>
      <trkpt lat="46.26256" lon="6.28455">
        <ele>460.79998779297</ele>
        <time>2020-02-23T12:41:59Z</time>
      </trkpt>
      <trkpt lat="46.26256" lon="6.28457">
        <ele>460.79998779297</ele>
        <time>2020-02-23T12:42:00Z</time>
      </trkpt>
      <trkpt lat="46.26256" lon="6.28457">
        <ele>461</ele>
        <time>2020-02-23T12:42:01Z</time>
      </trkpt>
      <trkpt lat="46.26256" lon="6.2846">
        <ele>460.79998779297</ele>
        <time>2020-02-23T12:42:02Z</time>
      </trkpt>
      <trkpt lat="46.26256" lon="6.2846">
        <ele>460.79998779297</ele>
        <time>2020-02-23T12:42:03Z</time>
      </trkpt>
      <trkpt lat="46.26256" lon="6.28462">
        <ele>461.39999389648</ele>
        <time>2020-02-23T12:42:20Z</time>
      </trkpt>
      <trkpt lat="46.26256" lon="6.28463">
        <ele>461.39999389648</ele>
        <time>2020-02-23T12:43:01Z</time>
      </trkpt>
      <trkpt lat="46.26256" lon="6.28464">
        <ele>461.39999389648</ele>
        <time>2020-02-23T12:43:02Z</time>
      </trkpt>
      <trkpt lat="46.26255" lon="6.28466">
        <ele>461.20001220703</ele>
        <time>2020-02-23T12:43:03Z</time>
      </trkpt>
      <trkpt lat="46.26254" lon="6.28469">
        <ele>461.20001220703</ele>
        <time>2020-02-23T12:43:05Z</time>
      </trkpt>
      <trkpt lat="46.26254" lon="6.28469">
        <ele>461.20001220703</ele>
        <time>2020-02-23T12:43:06Z</time>
      </trkpt>
      <trkpt lat="46.26253" lon="6.28471">
        <ele>461.39999389648</ele>
        <time>2020-02-23T12:43:07Z</time>
      </trkpt>
      <trkpt lat="46.26251" lon="6.28475">
        <ele>461.20001220703</ele>
        <time>2020-02-23T12:43:08Z</time>
      </trkpt>
      <trkpt lat="46.2625" lon="6.2848">
        <ele>461.20001220703</ele>
        <time>2020-02-23T12:43:10Z</time>
      </trkpt>
      <trkpt lat="46.2625" lon="6.2848">
        <ele>461.20001220703</ele>
        <time>2020-02-23T12:43:11Z</time>
      </trkpt>
      <trkpt lat="46.26246" lon="6.28491">
        <ele>461.20001220703</ele>
        <time>2020-02-23T12:43:14Z</time>
      </trkpt>
      <trkpt lat="46.26245" lon="6.28494">
        <ele>461.20001220703</ele>
        <time>2020-02-23T12:43:15Z</time>
      </trkpt>
      <trkpt lat="46.26245" lon="6.28495">
        <ele>461.39999389648</ele>
        <time>2020-02-23T12:43:16Z</time>
      </trkpt>
      <trkpt lat="46.26245" lon="6.28495">
        <ele>461.39999389648</ele>
        <time>2020-02-23T12:43:17Z</time>
      </trkpt>
      <trkpt lat="46.26242" lon="6.28498">
        <ele>461.60000610352</ele>
        <time>2020-02-23T12:43:20Z</time>
      </trkpt>
      <trkpt lat="46.2624" lon="6.28497">
        <ele>462</ele>
        <time>2020-02-23T12:43:29Z</time>
      </trkpt>
      <trkpt lat="46.26241" lon="6.28495">
        <ele>462</ele>
        <time>2020-02-23T12:43:32Z</time>
      </trkpt>
      <trkpt lat="46.26241" lon="6.28494">
        <ele>462</ele>
        <time>2020-02-23T12:43:33Z</time>
      </trkpt>
      <trkpt lat="46.26241" lon="6.28492">
        <ele>462</ele>
        <time>2020-02-23T12:43:34Z</time>
      </trkpt>
      <trkpt lat="46.26242" lon="6.2849">
        <ele>462</ele>
        <time>2020-02-23T12:43:35Z</time>
      </trkpt>
      <trkpt lat="46.26243" lon="6.28488">
        <ele>462.20001220703</ele>
        <time>2020-02-23T12:43:36Z</time>
      </trkpt>
      <trkpt lat="46.26243" lon="6.28486">
        <ele>462</ele>
        <time>2020-02-23T12:43:37Z</time>
      </trkpt>
      <trkpt lat="46.26245" lon="6.28481">
        <ele>461.79998779297</ele>
        <time>2020-02-23T12:43:39Z</time>
      </trkpt>
      <trkpt lat="46.26247" lon="6.28473">
        <ele>462</ele>
        <time>2020-02-23T12:43:42Z</time>
      </trkpt>
      <trkpt lat="46.26248" lon="6.28471">
        <ele>461.79998779297</ele>
        <time>2020-02-23T12:43:43Z</time>
      </trkpt>
      <trkpt lat="46.26249" lon="6.28469">
        <ele>461.79998779297</ele>
        <time>2020-02-23T12:43:44Z</time>
      </trkpt>
      <trkpt lat="46.26249" lon="6.28467">
        <ele>461.79998779297</ele>
        <time>2020-02-23T12:43:45Z</time>
      </trkpt>
      <trkpt lat="46.2625" lon="6.28466">
        <ele>461.60000610352</ele>
        <time>2020-02-23T12:43:46Z</time>
      </trkpt>
      <trkpt lat="46.2625" lon="6.28465">
        <ele>461.79998779297</ele>
        <time>2020-02-23T12:43:47Z</time>
      </trkpt>
      <trkpt lat="46.2625" lon="6.28464">
        <ele>461.60000610352</ele>
        <time>2020-02-23T12:43:48Z</time>
      </trkpt>
      <trkpt lat="46.26251" lon="6.28464">
        <ele>461.79998779297</ele>
        <time>2020-02-23T12:43:49Z</time>
      </trkpt>
      <trkpt lat="46.26251" lon="6.28463">
        <ele>461.60000610352</ele>
        <time>2020-02-23T12:43:51Z</time>
      </trkpt>
      <trkpt lat="46.26252" lon="6.2846">
        <ele>461.60000610352</ele>
        <time>2020-02-23T12:43:52Z</time>
      </trkpt>
      <trkpt lat="46.26252" lon="6.28458">
        <ele>461.60000610352</ele>
        <time>2020-02-23T12:43:53Z</time>
      </trkpt>
      <trkpt lat="46.26253" lon="6.28456">
        <ele>461.60000610352</ele>
        <time>2020-02-23T12:43:55Z</time>
      </trkpt>
      <trkpt lat="46.26256" lon="6.28451">
        <ele>461.39999389648</ele>
        <time>2020-02-23T12:43:56Z</time>
      </trkpt>
      <trkpt lat="46.26259" lon="6.28444">
        <ele>461.60000610352</ele>
        <time>2020-02-23T12:43:58Z</time>
      </trkpt>
      <trkpt lat="46.26261" lon="6.28441">
        <ele>461.60000610352</ele>
        <time>2020-02-23T12:43:59Z</time>
      </trkpt>
      <trkpt lat="46.26262" lon="6.28439">
        <ele>461.39999389648</ele>
        <time>2020-02-23T12:44:00Z</time>
      </trkpt>
      <trkpt lat="46.26262" lon="6.28436">
        <ele>461.39999389648</ele>
        <time>2020-02-23T12:44:01Z</time>
      </trkpt>
      <trkpt lat="46.26263" lon="6.28433">
        <ele>461.60000610352</ele>
        <time>2020-02-23T12:44:02Z</time>
      </trkpt>
      <trkpt lat="46.26265" lon="6.28427">
        <ele>461.39999389648</ele>
        <time>2020-02-23T12:44:04Z</time>
      </trkpt>
      <trkpt lat="46.26265" lon="6.28424">
        <ele>461.39999389648</ele>
        <time>2020-02-23T12:44:05Z</time>
      </trkpt>
      <trkpt lat="46.26266" lon="6.28421">
        <ele>461.39999389648</ele>
        <time>2020-02-23T12:44:06Z</time>
      </trkpt>
      <trkpt lat="46.26267" lon="6.28418">
        <ele>461.39999389648</ele>
        <time>2020-02-23T12:44:07Z</time>
      </trkpt>
      <trkpt lat="46.26267" lon="6.28414">
        <ele>461.39999389648</ele>
        <time>2020-02-23T12:44:08Z</time>
      </trkpt>
      <trkpt lat="46.26268" lon="6.28411">
        <ele>461.20001220703</ele>
        <time>2020-02-23T12:44:09Z</time>
      </trkpt>
      <trkpt lat="46.26269" lon="6.28407">
        <ele>461.20001220703</ele>
        <time>2020-02-23T12:44:10Z</time>
      </trkpt>
      <trkpt lat="46.26271" lon="6.28401">
        <ele>461.39999389648</ele>
        <time>2020-02-23T12:44:12Z</time>
      </trkpt>
      <trkpt lat="46.26272" lon="6.28398">
        <ele>461.20001220703</ele>
        <time>2020-02-23T12:44:13Z</time>
      </trkpt>
      <trkpt lat="46.26273" lon="6.28394">
        <ele>461</ele>
        <time>2020-02-23T12:44:14Z</time>
      </trkpt>
      <trkpt lat="46.26274" lon="6.28391">
        <ele>461.20001220703</ele>
        <time>2020-02-23T12:44:15Z</time>
      </trkpt>
      <trkpt lat="46.26275" lon="6.28388">
        <ele>461.20001220703</ele>
        <time>2020-02-23T12:44:16Z</time>
      </trkpt>
      <trkpt lat="46.26275" lon="6.28385">
        <ele>461</ele>
        <time>2020-02-23T12:44:17Z</time>
      </trkpt>
      <trkpt lat="46.26276" lon="6.28383">
        <ele>461</ele>
        <time>2020-02-23T12:44:18Z</time>
      </trkpt>
      <trkpt lat="46.26276" lon="6.28381">
        <ele>461</ele>
        <time>2020-02-23T12:44:19Z</time>
      </trkpt>
      <trkpt lat="46.26278" lon="6.28379">
        <ele>460.60000610352</ele>
        <time>2020-02-23T12:44:20Z</time>
      </trkpt>
      <trkpt lat="46.26279" lon="6.28376">
        <ele>460.60000610352</ele>
        <time>2020-02-23T12:44:21Z</time>
      </trkpt>
      <trkpt lat="46.2628" lon="6.28372">
        <ele>460.60000610352</ele>
        <time>2020-02-23T12:44:22Z</time>
      </trkpt>
      <trkpt lat="46.26281" lon="6.28369">
        <ele>460.60000610352</ele>
        <time>2020-02-23T12:44:23Z</time>
      </trkpt>
      <trkpt lat="46.26282" lon="6.28366">
        <ele>460.39999389648</ele>
        <time>2020-02-23T12:44:24Z</time>
      </trkpt>
      <trkpt lat="46.26283" lon="6.28362">
        <ele>460.39999389648</ele>
        <time>2020-02-23T12:44:25Z</time>
      </trkpt>
      <trkpt lat="46.26284" lon="6.28359">
        <ele>460.39999389648</ele>
        <time>2020-02-23T12:44:26Z</time>
      </trkpt>
      <trkpt lat="46.26285" lon="6.28356">
        <ele>460.39999389648</ele>
        <time>2020-02-23T12:44:27Z</time>
      </trkpt>
      <trkpt lat="46.26285" lon="6.28353">
        <ele>460.39999389648</ele>
        <time>2020-02-23T12:44:28Z</time>
      </trkpt>
      <trkpt lat="46.26286" lon="6.28349">
        <ele>460.20001220703</ele>
        <time>2020-02-23T12:44:29Z</time>
      </trkpt>
      <trkpt lat="46.26287" lon="6.28345">
        <ele>460.39999389648</ele>
        <time>2020-02-23T12:44:30Z</time>
      </trkpt>
      <trkpt lat="46.26289" lon="6.28337">
        <ele>460.20001220703</ele>
        <time>2020-02-23T12:44:32Z</time>
      </trkpt>
      <trkpt lat="46.26291" lon="6.28329">
        <ele>460.39999389648</ele>
        <time>2020-02-23T12:44:34Z</time>
      </trkpt>
      <trkpt lat="46.26292" lon="6.28325">
        <ele>460.20001220703</ele>
        <time>2020-02-23T12:44:35Z</time>
      </trkpt>
      <trkpt lat="46.26294" lon="6.2832">
        <ele>460.20001220703</ele>
        <time>2020-02-23T12:44:36Z</time>
      </trkpt>
      <trkpt lat="46.26295" lon="6.28316">
        <ele>460.20001220703</ele>
        <time>2020-02-23T12:44:37Z</time>
      </trkpt>
      <trkpt lat="46.26297" lon="6.28308">
        <ele>460.20001220703</ele>
        <time>2020-02-23T12:44:39Z</time>
      </trkpt>
      <trkpt lat="46.26298" lon="6.28305">
        <ele>460.20001220703</ele>
        <time>2020-02-23T12:44:40Z</time>
      </trkpt>
      <trkpt lat="46.26299" lon="6.28302">
        <ele>460.20001220703</ele>
        <time>2020-02-23T12:44:41Z</time>
      </trkpt>
      <trkpt lat="46.26299" lon="6.28299">
        <ele>460.20001220703</ele>
        <time>2020-02-23T12:44:42Z</time>
      </trkpt>
      <trkpt lat="46.263" lon="6.28297">
        <ele>460.20001220703</ele>
        <time>2020-02-23T12:44:43Z</time>
      </trkpt>
      <trkpt lat="46.26301" lon="6.28295">
        <ele>460.20001220703</ele>
        <time>2020-02-23T12:44:44Z</time>
      </trkpt>
      <trkpt lat="46.26301" lon="6.28292">
        <ele>460.20001220703</ele>
        <time>2020-02-23T12:44:45Z</time>
      </trkpt>
      <trkpt lat="46.26303" lon="6.28286">
        <ele>460.20001220703</ele>
        <time>2020-02-23T12:44:47Z</time>
      </trkpt>
      <trkpt lat="46.26303" lon="6.28283">
        <ele>460.20001220703</ele>
        <time>2020-02-23T12:44:48Z</time>
      </trkpt>
      <trkpt lat="46.26304" lon="6.2828">
        <ele>460</ele>
        <time>2020-02-23T12:44:49Z</time>
      </trkpt>
      <trkpt lat="46.26304" lon="6.28277">
        <ele>460</ele>
        <time>2020-02-23T12:44:50Z</time>
      </trkpt>
      <trkpt lat="46.26305" lon="6.28274">
        <ele>460</ele>
        <time>2020-02-23T12:44:51Z</time>
      </trkpt>
      <trkpt lat="46.26305" lon="6.28271">
        <ele>460</ele>
        <time>2020-02-23T12:44:52Z</time>
      </trkpt>
      <trkpt lat="46.26306" lon="6.28268">
        <ele>460</ele>
        <time>2020-02-23T12:44:53Z</time>
      </trkpt>
      <trkpt lat="46.26307" lon="6.28267">
        <ele>460</ele>
        <time>2020-02-23T12:44:54Z</time>
      </trkpt>
      <trkpt lat="46.26308" lon="6.28265">
        <ele>460</ele>
        <time>2020-02-23T12:44:55Z</time>
      </trkpt>
      <trkpt lat="46.26308" lon="6.28265">
        <ele>459.79998779297</ele>
        <time>2020-02-23T12:44:56Z</time>
      </trkpt>
      <trkpt lat="46.26309" lon="6.28263">
        <ele>459.79998779297</ele>
        <time>2020-02-23T12:45:02Z</time>
      </trkpt>
      <trkpt lat="46.26309" lon="6.28263">
        <ele>460</ele>
        <time>2020-02-23T12:45:15Z</time>
      </trkpt>
      <trkpt lat="46.26311" lon="6.28265">
        <ele>460</ele>
        <time>2020-02-23T12:45:23Z</time>
      </trkpt>
      <trkpt lat="46.26311" lon="6.28266">
        <ele>460</ele>
        <time>2020-02-23T12:45:24Z</time>
      </trkpt>
      <trkpt lat="46.26311" lon="6.28267">
        <ele>460</ele>
        <time>2020-02-23T12:45:25Z</time>
      </trkpt>
      <trkpt lat="46.26312" lon="6.28268">
        <ele>460.20001220703</ele>
        <time>2020-02-23T12:45:27Z</time>
      </trkpt>
      <trkpt lat="46.26313" lon="6.28268">
        <ele>460.20001220703</ele>
        <time>2020-02-23T12:45:28Z</time>
      </trkpt>
      <trkpt lat="46.26313" lon="6.28269">
        <ele>460.20001220703</ele>
        <time>2020-02-23T12:45:29Z</time>
      </trkpt>
      <trkpt lat="46.26313" lon="6.2827">
        <ele>460</ele>
        <time>2020-02-23T12:45:32Z</time>
      </trkpt>
      <trkpt lat="46.26314" lon="6.2827">
        <ele>460.20001220703</ele>
        <time>2020-02-23T12:45:33Z</time>
      </trkpt>
      <trkpt lat="46.26314" lon="6.2827">
        <ele>460</ele>
        <time>2020-02-23T12:45:34Z</time>
      </trkpt>
      <trkpt lat="46.26314" lon="6.28268">
        <ele>460.20001220703</ele>
        <time>2020-02-23T12:45:41Z</time>
      </trkpt>
      <trkpt lat="46.26314" lon="6.28268">
        <ele>460.20001220703</ele>
        <time>2020-02-23T12:45:42Z</time>
      </trkpt>
      <trkpt lat="46.26314" lon="6.28268">
        <ele>460.39999389648</ele>
        <time>2020-02-23T12:45:43Z</time>
      </trkpt>
      <trkpt lat="46.26313" lon="6.28267">
        <ele>460.20001220703</ele>
        <time>2020-02-23T12:45:47Z</time>
      </trkpt>
      <trkpt lat="46.26313" lon="6.28266">
        <ele>460</ele>
        <time>2020-02-23T12:45:52Z</time>
      </trkpt>
      <trkpt lat="46.26313" lon="6.28265">
        <ele>460.20001220703</ele>
        <time>2020-02-23T12:45:55Z</time>
      </trkpt>
      <trkpt lat="46.26312" lon="6.28263">
        <ele>460.20001220703</ele>
        <time>2020-02-23T12:46:00Z</time>
      </trkpt>
      <trkpt lat="46.26311" lon="6.28262">
        <ele>460.20001220703</ele>
        <time>2020-02-23T12:46:01Z</time>
      </trkpt>
      <trkpt lat="46.26311" lon="6.28262">
        <ele>460.20001220703</ele>
        <time>2020-02-23T12:46:02Z</time>
      </trkpt>
      <trkpt lat="46.26311" lon="6.28262">
        <ele>460.39999389648</ele>
        <time>2020-02-23T12:46:03Z</time>
      </trkpt>
      <trkpt lat="46.26311" lon="6.28262">
        <ele>460.39999389648</ele>
        <time>2020-02-23T12:46:09Z</time>
      </trkpt>
      <trkpt lat="46.2631" lon="6.28263">
        <ele>460.20001220703</ele>
        <time>2020-02-23T12:46:24Z</time>
      </trkpt>
      <trkpt lat="46.2631" lon="6.28264">
        <ele>460.20001220703</ele>
        <time>2020-02-23T12:46:25Z</time>
      </trkpt>
      <trkpt lat="46.2631" lon="6.28267">
        <ele>460.20001220703</ele>
        <time>2020-02-23T12:46:32Z</time>
      </trkpt>
      <trkpt lat="46.2631" lon="6.28268">
        <ele>460.20001220703</ele>
        <time>2020-02-23T12:46:33Z</time>
      </trkpt>
      <trkpt lat="46.2631" lon="6.2827">
        <ele>460.20001220703</ele>
        <time>2020-02-23T12:46:34Z</time>
      </trkpt>
      <trkpt lat="46.2631" lon="6.28271">
        <ele>460.20001220703</ele>
        <time>2020-02-23T12:46:35Z</time>
      </trkpt>
      <trkpt lat="46.26309" lon="6.28276">
        <ele>460.20001220703</ele>
        <time>2020-02-23T12:46:37Z</time>
      </trkpt>
      <trkpt lat="46.26307" lon="6.28285">
        <ele>460.20001220703</ele>
        <time>2020-02-23T12:46:40Z</time>
      </trkpt>
      <trkpt lat="46.26304" lon="6.28293">
        <ele>460.20001220703</ele>
        <time>2020-02-23T12:46:42Z</time>
      </trkpt>
      <trkpt lat="46.26302" lon="6.283">
        <ele>460.20001220703</ele>
        <time>2020-02-23T12:46:44Z</time>
      </trkpt>
      <trkpt lat="46.26301" lon="6.28303">
        <ele>460.20001220703</ele>
        <time>2020-02-23T12:46:45Z</time>
      </trkpt>
      <trkpt lat="46.263" lon="6.28306">
        <ele>460.20001220703</ele>
        <time>2020-02-23T12:46:46Z</time>
      </trkpt>
      <trkpt lat="46.263" lon="6.28308">
        <ele>460.20001220703</ele>
        <time>2020-02-23T12:46:47Z</time>
      </trkpt>
      <trkpt lat="46.26299" lon="6.28311">
        <ele>460</ele>
        <time>2020-02-23T12:46:48Z</time>
      </trkpt>
      <trkpt lat="46.26298" lon="6.28313">
        <ele>460.20001220703</ele>
        <time>2020-02-23T12:46:49Z</time>
      </trkpt>
      <trkpt lat="46.26297" lon="6.28316">
        <ele>460</ele>
        <time>2020-02-23T12:46:50Z</time>
      </trkpt>
      <trkpt lat="46.26297" lon="6.28318">
        <ele>460.20001220703</ele>
        <time>2020-02-23T12:46:51Z</time>
      </trkpt>
      <trkpt lat="46.26296" lon="6.28319">
        <ele>460</ele>
        <time>2020-02-23T12:46:52Z</time>
      </trkpt>
      <trkpt lat="46.26296" lon="6.2832">
        <ele>460.20001220703</ele>
        <time>2020-02-23T12:46:53Z</time>
      </trkpt>
      <trkpt lat="46.26295" lon="6.28321">
        <ele>460.20001220703</ele>
        <time>2020-02-23T12:46:54Z</time>
      </trkpt>
      <trkpt lat="46.26295" lon="6.28324">
        <ele>460.60000610352</ele>
        <time>2020-02-23T12:47:10Z</time>
      </trkpt>
      <trkpt lat="46.26293" lon="6.28327">
        <ele>460.79998779297</ele>
        <time>2020-02-23T12:47:26Z</time>
      </trkpt>
      <trkpt lat="46.26294" lon="6.28327">
        <ele>460.79998779297</ele>
        <time>2020-02-23T12:47:37Z</time>
      </trkpt>
      <trkpt lat="46.26294" lon="6.28327">
        <ele>461</ele>
        <time>2020-02-23T12:47:53Z</time>
      </trkpt>
      <trkpt lat="46.26294" lon="6.28326">
        <ele>460.79998779297</ele>
        <time>2020-02-23T12:47:58Z</time>
      </trkpt>
      <trkpt lat="46.26295" lon="6.28324">
        <ele>460.79998779297</ele>
        <time>2020-02-23T12:48:00Z</time>
      </trkpt>
      <trkpt lat="46.26295" lon="6.28322">
        <ele>461</ele>
        <time>2020-02-23T12:48:01Z</time>
      </trkpt>
      <trkpt lat="46.26296" lon="6.2832">
        <ele>461</ele>
        <time>2020-02-23T12:48:02Z</time>
      </trkpt>
      <trkpt lat="46.26297" lon="6.28318">
        <ele>461</ele>
        <time>2020-02-23T12:48:03Z</time>
      </trkpt>
      <trkpt lat="46.26298" lon="6.28315">
        <ele>460.79998779297</ele>
        <time>2020-02-23T12:48:04Z</time>
      </trkpt>
      <trkpt lat="46.26299" lon="6.28313">
        <ele>461</ele>
        <time>2020-02-23T12:48:05Z</time>
      </trkpt>
      <trkpt lat="46.26299" lon="6.28311">
        <ele>461</ele>
        <time>2020-02-23T12:48:06Z</time>
      </trkpt>
      <trkpt lat="46.263" lon="6.28308">
        <ele>461</ele>
        <time>2020-02-23T12:48:07Z</time>
      </trkpt>
      <trkpt lat="46.263" lon="6.28304">
        <ele>461</ele>
        <time>2020-02-23T12:48:08Z</time>
      </trkpt>
      <trkpt lat="46.26301" lon="6.28301">
        <ele>461</ele>
        <time>2020-02-23T12:48:09Z</time>
      </trkpt>
      <trkpt lat="46.26302" lon="6.28298">
        <ele>461</ele>
        <time>2020-02-23T12:48:10Z</time>
      </trkpt>
      <trkpt lat="46.26302" lon="6.28295">
        <ele>460.79998779297</ele>
        <time>2020-02-23T12:48:11Z</time>
      </trkpt>
      <trkpt lat="46.26303" lon="6.28291">
        <ele>460.79998779297</ele>
        <time>2020-02-23T12:48:12Z</time>
      </trkpt>
      <trkpt lat="46.26305" lon="6.28281">
        <ele>460.60000610352</ele>
        <time>2020-02-23T12:48:15Z</time>
      </trkpt>
      <trkpt lat="46.26306" lon="6.28278">
        <ele>460.60000610352</ele>
        <time>2020-02-23T12:48:16Z</time>
      </trkpt>
      <trkpt lat="46.26307" lon="6.28274">
        <ele>460.60000610352</ele>
        <time>2020-02-23T12:48:17Z</time>
      </trkpt>
      <trkpt lat="46.26307" lon="6.28271">
        <ele>460.60000610352</ele>
        <time>2020-02-23T12:48:18Z</time>
      </trkpt>
      <trkpt lat="46.26307" lon="6.28268">
        <ele>460.60000610352</ele>
        <time>2020-02-23T12:48:19Z</time>
      </trkpt>
      <trkpt lat="46.26307" lon="6.28265">
        <ele>460.60000610352</ele>
        <time>2020-02-23T12:48:20Z</time>
      </trkpt>
      <trkpt lat="46.26306" lon="6.28262">
        <ele>460.39999389648</ele>
        <time>2020-02-23T12:48:21Z</time>
      </trkpt>
      <trkpt lat="46.26306" lon="6.28259">
        <ele>460.39999389648</ele>
        <time>2020-02-23T12:48:22Z</time>
      </trkpt>
      <trkpt lat="46.26305" lon="6.28256">
        <ele>460.39999389648</ele>
        <time>2020-02-23T12:48:23Z</time>
      </trkpt>
      <trkpt lat="46.26305" lon="6.28252">
        <ele>460.39999389648</ele>
        <time>2020-02-23T12:48:24Z</time>
      </trkpt>
      <trkpt lat="46.26304" lon="6.28244">
        <ele>460.20001220703</ele>
        <time>2020-02-23T12:48:26Z</time>
      </trkpt>
      <trkpt lat="46.26305" lon="6.28236">
        <ele>460.20001220703</ele>
        <time>2020-02-23T12:48:28Z</time>
      </trkpt>
      <trkpt lat="46.26306" lon="6.28233">
        <ele>460.20001220703</ele>
        <time>2020-02-23T12:48:29Z</time>
      </trkpt>
      <trkpt lat="46.26306" lon="6.2823">
        <ele>460.20001220703</ele>
        <time>2020-02-23T12:48:30Z</time>
      </trkpt>
      <trkpt lat="46.26306" lon="6.28227">
        <ele>460.20001220703</ele>
        <time>2020-02-23T12:48:31Z</time>
      </trkpt>
      <trkpt lat="46.26307" lon="6.28223">
        <ele>460.20001220703</ele>
        <time>2020-02-23T12:48:32Z</time>
      </trkpt>
      <trkpt lat="46.2631" lon="6.28208">
        <ele>460</ele>
        <time>2020-02-23T12:48:36Z</time>
      </trkpt>
      <trkpt lat="46.2631" lon="6.28205">
        <ele>460</ele>
        <time>2020-02-23T12:48:37Z</time>
      </trkpt>
      <trkpt lat="46.26311" lon="6.28202">
        <ele>460</ele>
        <time>2020-02-23T12:48:38Z</time>
      </trkpt>
      <trkpt lat="46.26312" lon="6.282">
        <ele>460.20001220703</ele>
        <time>2020-02-23T12:48:39Z</time>
      </trkpt>
      <trkpt lat="46.26313" lon="6.28197">
        <ele>460</ele>
        <time>2020-02-23T12:48:40Z</time>
      </trkpt>
      <trkpt lat="46.26314" lon="6.28195">
        <ele>460</ele>
        <time>2020-02-23T12:48:41Z</time>
      </trkpt>
      <trkpt lat="46.26315" lon="6.28192">
        <ele>460</ele>
        <time>2020-02-23T12:48:42Z</time>
      </trkpt>
      <trkpt lat="46.26316" lon="6.2819">
        <ele>460</ele>
        <time>2020-02-23T12:48:43Z</time>
      </trkpt>
      <trkpt lat="46.26317" lon="6.28188">
        <ele>460.20001220703</ele>
        <time>2020-02-23T12:48:44Z</time>
      </trkpt>
      <trkpt lat="46.26319" lon="6.28186">
        <ele>460.20001220703</ele>
        <time>2020-02-23T12:48:45Z</time>
      </trkpt>
      <trkpt lat="46.26319" lon="6.28183">
        <ele>460.20001220703</ele>
        <time>2020-02-23T12:48:46Z</time>
      </trkpt>
      <trkpt lat="46.26319" lon="6.28181">
        <ele>460.20001220703</ele>
        <time>2020-02-23T12:48:47Z</time>
      </trkpt>
      <trkpt lat="46.2632" lon="6.28178">
        <ele>460.20001220703</ele>
        <time>2020-02-23T12:48:48Z</time>
      </trkpt>
      <trkpt lat="46.2632" lon="6.28176">
        <ele>460.20001220703</ele>
        <time>2020-02-23T12:48:49Z</time>
      </trkpt>
      <trkpt lat="46.2632" lon="6.28173">
        <ele>460</ele>
        <time>2020-02-23T12:48:50Z</time>
      </trkpt>
      <trkpt lat="46.2632" lon="6.28171">
        <ele>460.20001220703</ele>
        <time>2020-02-23T12:48:51Z</time>
      </trkpt>
      <trkpt lat="46.26321" lon="6.28169">
        <ele>460.20001220703</ele>
        <time>2020-02-23T12:48:52Z</time>
      </trkpt>
      <trkpt lat="46.26321" lon="6.28166">
        <ele>460.20001220703</ele>
        <time>2020-02-23T12:48:53Z</time>
      </trkpt>
      <trkpt lat="46.26321" lon="6.2816">
        <ele>460</ele>
        <time>2020-02-23T12:48:55Z</time>
      </trkpt>
      <trkpt lat="46.26321" lon="6.28157">
        <ele>460</ele>
        <time>2020-02-23T12:48:56Z</time>
      </trkpt>
      <trkpt lat="46.26321" lon="6.28151">
        <ele>460</ele>
        <time>2020-02-23T12:48:58Z</time>
      </trkpt>
      <trkpt lat="46.26322" lon="6.28148">
        <ele>460</ele>
        <time>2020-02-23T12:48:59Z</time>
      </trkpt>
      <trkpt lat="46.26322" lon="6.28145">
        <ele>460</ele>
        <time>2020-02-23T12:49:00Z</time>
      </trkpt>
      <trkpt lat="46.26322" lon="6.28142">
        <ele>460</ele>
        <time>2020-02-23T12:49:01Z</time>
      </trkpt>
      <trkpt lat="46.26323" lon="6.2814">
        <ele>460.20001220703</ele>
        <time>2020-02-23T12:49:02Z</time>
      </trkpt>
      <trkpt lat="46.26323" lon="6.28137">
        <ele>460.20001220703</ele>
        <time>2020-02-23T12:49:03Z</time>
      </trkpt>
      <trkpt lat="46.26324" lon="6.28134">
        <ele>460.20001220703</ele>
        <time>2020-02-23T12:49:04Z</time>
      </trkpt>
      <trkpt lat="46.26324" lon="6.28131">
        <ele>460</ele>
        <time>2020-02-23T12:49:05Z</time>
      </trkpt>
      <trkpt lat="46.26325" lon="6.28126">
        <ele>460</ele>
        <time>2020-02-23T12:49:07Z</time>
      </trkpt>
      <trkpt lat="46.26324" lon="6.28124">
        <ele>460</ele>
        <time>2020-02-23T12:49:08Z</time>
      </trkpt>
      <trkpt lat="46.26324" lon="6.28121">
        <ele>460</ele>
        <time>2020-02-23T12:49:09Z</time>
      </trkpt>
      <trkpt lat="46.26323" lon="6.2812">
        <ele>459.79998779297</ele>
        <time>2020-02-23T12:49:10Z</time>
      </trkpt>
      <trkpt lat="46.26322" lon="6.28119">
        <ele>460</ele>
        <time>2020-02-23T12:49:11Z</time>
      </trkpt>
      <trkpt lat="46.26321" lon="6.28117">
        <ele>460</ele>
        <time>2020-02-23T12:49:12Z</time>
      </trkpt>
      <trkpt lat="46.2632" lon="6.28117">
        <ele>460</ele>
        <time>2020-02-23T12:49:13Z</time>
      </trkpt>
      <trkpt lat="46.2632" lon="6.28116">
        <ele>460</ele>
        <time>2020-02-23T12:49:15Z</time>
      </trkpt>
      <trkpt lat="46.26321" lon="6.28113">
        <ele>460</ele>
        <time>2020-02-23T12:49:17Z</time>
      </trkpt>
      <trkpt lat="46.26321" lon="6.28112">
        <ele>460</ele>
        <time>2020-02-23T12:49:18Z</time>
      </trkpt>
      <trkpt lat="46.26321" lon="6.2811">
        <ele>460</ele>
        <time>2020-02-23T12:49:20Z</time>
      </trkpt>
      <trkpt lat="46.2632" lon="6.28109">
        <ele>460</ele>
        <time>2020-02-23T12:49:21Z</time>
      </trkpt>
      <trkpt lat="46.2632" lon="6.28108">
        <ele>460</ele>
        <time>2020-02-23T12:49:22Z</time>
      </trkpt>
      <trkpt lat="46.26319" lon="6.28106">
        <ele>460</ele>
        <time>2020-02-23T12:49:23Z</time>
      </trkpt>
      <trkpt lat="46.26319" lon="6.28104">
        <ele>460</ele>
        <time>2020-02-23T12:49:25Z</time>
      </trkpt>
      <trkpt lat="46.26319" lon="6.28102">
        <ele>460</ele>
        <time>2020-02-23T12:49:26Z</time>
      </trkpt>
      <trkpt lat="46.26319" lon="6.28101">
        <ele>460.20001220703</ele>
        <time>2020-02-23T12:49:27Z</time>
      </trkpt>
      <trkpt lat="46.2632" lon="6.281">
        <ele>460</ele>
        <time>2020-02-23T12:49:28Z</time>
      </trkpt>
      <trkpt lat="46.2632" lon="6.281">
        <ele>460</ele>
        <time>2020-02-23T12:49:29Z</time>
      </trkpt>
      <trkpt lat="46.26321" lon="6.28099">
        <ele>460.20001220703</ele>
        <time>2020-02-23T12:49:30Z</time>
      </trkpt>
      <trkpt lat="46.26321" lon="6.28097">
        <ele>460.20001220703</ele>
        <time>2020-02-23T12:49:31Z</time>
      </trkpt>
      <trkpt lat="46.26322" lon="6.28096">
        <ele>460.20001220703</ele>
        <time>2020-02-23T12:49:32Z</time>
      </trkpt>
      <trkpt lat="46.26322" lon="6.28095">
        <ele>460</ele>
        <time>2020-02-23T12:49:33Z</time>
      </trkpt>
      <trkpt lat="46.26323" lon="6.28093">
        <ele>460</ele>
        <time>2020-02-23T12:49:34Z</time>
      </trkpt>
      <trkpt lat="46.26324" lon="6.28091">
        <ele>460.20001220703</ele>
        <time>2020-02-23T12:49:35Z</time>
      </trkpt>
      <trkpt lat="46.26325" lon="6.28088">
        <ele>460.20001220703</ele>
        <time>2020-02-23T12:49:38Z</time>
      </trkpt>
      <trkpt lat="46.26324" lon="6.28089">
        <ele>460.20001220703</ele>
        <time>2020-02-23T12:49:39Z</time>
      </trkpt>
      <trkpt lat="46.26324" lon="6.28089">
        <ele>460.20001220703</ele>
        <time>2020-02-23T12:49:41Z</time>
      </trkpt>
      <trkpt lat="46.26324" lon="6.28089">
        <ele>459.79998779297</ele>
        <time>2020-02-23T12:49:56Z</time>
      </trkpt>
      <trkpt lat="46.26325" lon="6.28085">
        <ele>459.79998779297</ele>
        <time>2020-02-23T12:50:00Z</time>
      </trkpt>
      <trkpt lat="46.26325" lon="6.28084">
        <ele>459.79998779297</ele>
        <time>2020-02-23T12:50:01Z</time>
      </trkpt>
      <trkpt lat="46.26326" lon="6.28082">
        <ele>459.79998779297</ele>
        <time>2020-02-23T12:50:02Z</time>
      </trkpt>
      <trkpt lat="46.26326" lon="6.2808">
        <ele>459.79998779297</ele>
        <time>2020-02-23T12:50:03Z</time>
      </trkpt>
      <trkpt lat="46.26327" lon="6.28078">
        <ele>459.79998779297</ele>
        <time>2020-02-23T12:50:04Z</time>
      </trkpt>
      <trkpt lat="46.26328" lon="6.28074">
        <ele>459.60000610352</ele>
        <time>2020-02-23T12:50:06Z</time>
      </trkpt>
      <trkpt lat="46.26329" lon="6.28071">
        <ele>459.60000610352</ele>
        <time>2020-02-23T12:50:07Z</time>
      </trkpt>
      <trkpt lat="46.2633" lon="6.28069">
        <ele>459.79998779297</ele>
        <time>2020-02-23T12:50:08Z</time>
      </trkpt>
      <trkpt lat="46.26331" lon="6.28066">
        <ele>459.60000610352</ele>
        <time>2020-02-23T12:50:09Z</time>
      </trkpt>
      <trkpt lat="46.26332" lon="6.28064">
        <ele>459.60000610352</ele>
        <time>2020-02-23T12:50:10Z</time>
      </trkpt>
      <trkpt lat="46.26333" lon="6.28062">
        <ele>459.60000610352</ele>
        <time>2020-02-23T12:50:11Z</time>
      </trkpt>
      <trkpt lat="46.26334" lon="6.2806">
        <ele>459.60000610352</ele>
        <time>2020-02-23T12:50:12Z</time>
      </trkpt>
      <trkpt lat="46.26335" lon="6.28058">
        <ele>459.39999389648</ele>
        <time>2020-02-23T12:50:13Z</time>
      </trkpt>
      <trkpt lat="46.26337" lon="6.28054">
        <ele>459.20001220703</ele>
        <time>2020-02-23T12:50:15Z</time>
      </trkpt>
      <trkpt lat="46.26337" lon="6.28052">
        <ele>459.39999389648</ele>
        <time>2020-02-23T12:50:16Z</time>
      </trkpt>
      <trkpt lat="46.26338" lon="6.2805">
        <ele>459.20001220703</ele>
        <time>2020-02-23T12:50:17Z</time>
      </trkpt>
      <trkpt lat="46.26338" lon="6.28048">
        <ele>459.39999389648</ele>
        <time>2020-02-23T12:50:18Z</time>
      </trkpt>
      <trkpt lat="46.2634" lon="6.28046">
        <ele>459.20001220703</ele>
        <time>2020-02-23T12:50:19Z</time>
      </trkpt>
      <trkpt lat="46.26341" lon="6.28044">
        <ele>459.20001220703</ele>
        <time>2020-02-23T12:50:20Z</time>
      </trkpt>
      <trkpt lat="46.26343" lon="6.28039">
        <ele>459</ele>
        <time>2020-02-23T12:50:22Z</time>
      </trkpt>
      <trkpt lat="46.26344" lon="6.28037">
        <ele>458.79998779297</ele>
        <time>2020-02-23T12:50:23Z</time>
      </trkpt>
      <trkpt lat="46.26344" lon="6.28035">
        <ele>459</ele>
        <time>2020-02-23T12:50:24Z</time>
      </trkpt>
      <trkpt lat="46.26345" lon="6.28033">
        <ele>458.79998779297</ele>
        <time>2020-02-23T12:50:25Z</time>
      </trkpt>
      <trkpt lat="46.26346" lon="6.28031">
        <ele>458.79998779297</ele>
        <time>2020-02-23T12:50:26Z</time>
      </trkpt>
      <trkpt lat="46.26347" lon="6.28029">
        <ele>458.79998779297</ele>
        <time>2020-02-23T12:50:27Z</time>
      </trkpt>
      <trkpt lat="46.26348" lon="6.28027">
        <ele>458.79998779297</ele>
        <time>2020-02-23T12:50:28Z</time>
      </trkpt>
      <trkpt lat="46.26349" lon="6.28024">
        <ele>458.79998779297</ele>
        <time>2020-02-23T12:50:29Z</time>
      </trkpt>
      <trkpt lat="46.26351" lon="6.28022">
        <ele>458.79998779297</ele>
        <time>2020-02-23T12:50:30Z</time>
      </trkpt>
      <trkpt lat="46.26352" lon="6.2802">
        <ele>458.60000610352</ele>
        <time>2020-02-23T12:50:31Z</time>
      </trkpt>
      <trkpt lat="46.26354" lon="6.28018">
        <ele>458.79998779297</ele>
        <time>2020-02-23T12:50:32Z</time>
      </trkpt>
      <trkpt lat="46.26355" lon="6.28016">
        <ele>458.79998779297</ele>
        <time>2020-02-23T12:50:33Z</time>
      </trkpt>
      <trkpt lat="46.26356" lon="6.28014">
        <ele>458.79998779297</ele>
        <time>2020-02-23T12:50:34Z</time>
      </trkpt>
      <trkpt lat="46.26357" lon="6.28011">
        <ele>458.79998779297</ele>
        <time>2020-02-23T12:50:35Z</time>
      </trkpt>
      <trkpt lat="46.26358" lon="6.28009">
        <ele>458.79998779297</ele>
        <time>2020-02-23T12:50:36Z</time>
      </trkpt>
      <trkpt lat="46.2636" lon="6.28007">
        <ele>458.60000610352</ele>
        <time>2020-02-23T12:50:37Z</time>
      </trkpt>
      <trkpt lat="46.26361" lon="6.28005">
        <ele>458.79998779297</ele>
        <time>2020-02-23T12:50:38Z</time>
      </trkpt>
      <trkpt lat="46.26362" lon="6.28003">
        <ele>458.79998779297</ele>
        <time>2020-02-23T12:50:39Z</time>
      </trkpt>
      <trkpt lat="46.26363" lon="6.28001">
        <ele>458.79998779297</ele>
        <time>2020-02-23T12:50:40Z</time>
      </trkpt>
      <trkpt lat="46.26364" lon="6.27999">
        <ele>459</ele>
        <time>2020-02-23T12:50:41Z</time>
      </trkpt>
      <trkpt lat="46.26365" lon="6.27997">
        <ele>459</ele>
        <time>2020-02-23T12:50:42Z</time>
      </trkpt>
      <trkpt lat="46.26366" lon="6.27996">
        <ele>459</ele>
        <time>2020-02-23T12:50:43Z</time>
      </trkpt>
      <trkpt lat="46.26367" lon="6.27994">
        <ele>459</ele>
        <time>2020-02-23T12:50:44Z</time>
      </trkpt>
      <trkpt lat="46.2637" lon="6.2799">
        <ele>458.79998779297</ele>
        <time>2020-02-23T12:50:46Z</time>
      </trkpt>
      <trkpt lat="46.26371" lon="6.27988">
        <ele>458.79998779297</ele>
        <time>2020-02-23T12:50:47Z</time>
      </trkpt>
      <trkpt lat="46.26372" lon="6.27986">
        <ele>458.79998779297</ele>
        <time>2020-02-23T12:50:48Z</time>
      </trkpt>
      <trkpt lat="46.26376" lon="6.2798">
        <ele>459</ele>
        <time>2020-02-23T12:50:51Z</time>
      </trkpt>
      <trkpt lat="46.26378" lon="6.27978">
        <ele>459</ele>
        <time>2020-02-23T12:50:52Z</time>
      </trkpt>
      <trkpt lat="46.2638" lon="6.27974">
        <ele>458.79998779297</ele>
        <time>2020-02-23T12:50:54Z</time>
      </trkpt>
      <trkpt lat="46.26381" lon="6.27972">
        <ele>458.79998779297</ele>
        <time>2020-02-23T12:50:55Z</time>
      </trkpt>
      <trkpt lat="46.26382" lon="6.27969">
        <ele>458.79998779297</ele>
        <time>2020-02-23T12:50:56Z</time>
      </trkpt>
      <trkpt lat="46.26385" lon="6.27965">
        <ele>458.60000610352</ele>
        <time>2020-02-23T12:50:58Z</time>
      </trkpt>
      <trkpt lat="46.26388" lon="6.27961">
        <ele>458.79998779297</ele>
        <time>2020-02-23T12:51:00Z</time>
      </trkpt>
      <trkpt lat="46.2639" lon="6.27958">
        <ele>458.60000610352</ele>
        <time>2020-02-23T12:51:01Z</time>
      </trkpt>
      <trkpt lat="46.26391" lon="6.27956">
        <ele>458.79998779297</ele>
        <time>2020-02-23T12:51:02Z</time>
      </trkpt>
      <trkpt lat="46.26393" lon="6.27954">
        <ele>458.60000610352</ele>
        <time>2020-02-23T12:51:03Z</time>
      </trkpt>
      <trkpt lat="46.26394" lon="6.27952">
        <ele>458.60000610352</ele>
        <time>2020-02-23T12:51:04Z</time>
      </trkpt>
      <trkpt lat="46.26395" lon="6.2795">
        <ele>458.60000610352</ele>
        <time>2020-02-23T12:51:05Z</time>
      </trkpt>
      <trkpt lat="46.26397" lon="6.27947">
        <ele>458.39999389648</ele>
        <time>2020-02-23T12:51:06Z</time>
      </trkpt>
      <trkpt lat="46.26398" lon="6.27945">
        <ele>458.39999389648</ele>
        <time>2020-02-23T12:51:07Z</time>
      </trkpt>
      <trkpt lat="46.26399" lon="6.27943">
        <ele>458.39999389648</ele>
        <time>2020-02-23T12:51:08Z</time>
      </trkpt>
      <trkpt lat="46.264" lon="6.27941">
        <ele>458.39999389648</ele>
        <time>2020-02-23T12:51:09Z</time>
      </trkpt>
      <trkpt lat="46.264" lon="6.27939">
        <ele>458.39999389648</ele>
        <time>2020-02-23T12:51:10Z</time>
      </trkpt>
      <trkpt lat="46.26402" lon="6.27937">
        <ele>458.20001220703</ele>
        <time>2020-02-23T12:51:11Z</time>
      </trkpt>
      <trkpt lat="46.26403" lon="6.27935">
        <ele>458</ele>
        <time>2020-02-23T12:51:12Z</time>
      </trkpt>
      <trkpt lat="46.26403" lon="6.27933">
        <ele>458</ele>
        <time>2020-02-23T12:51:13Z</time>
      </trkpt>
      <trkpt lat="46.26404" lon="6.27931">
        <ele>458</ele>
        <time>2020-02-23T12:51:14Z</time>
      </trkpt>
      <trkpt lat="46.26405" lon="6.2793">
        <ele>458</ele>
        <time>2020-02-23T12:51:15Z</time>
      </trkpt>
      <trkpt lat="46.26405" lon="6.2793">
        <ele>458</ele>
        <time>2020-02-23T12:51:16Z</time>
      </trkpt>
      <trkpt lat="46.26408" lon="6.27929">
        <ele>457.60000610352</ele>
        <time>2020-02-23T12:51:30Z</time>
      </trkpt>
      <trkpt lat="46.26409" lon="6.2793">
        <ele>457.39999389648</ele>
        <time>2020-02-23T12:51:31Z</time>
      </trkpt>
      <trkpt lat="46.26409" lon="6.2793">
        <ele>457.39999389648</ele>
        <time>2020-02-23T12:51:32Z</time>
      </trkpt>
      <trkpt lat="46.2641" lon="6.27933">
        <ele>457.39999389648</ele>
        <time>2020-02-23T12:51:36Z</time>
      </trkpt>
      <trkpt lat="46.2641" lon="6.27934">
        <ele>457.39999389648</ele>
        <time>2020-02-23T12:51:37Z</time>
      </trkpt>
      <trkpt lat="46.2641" lon="6.27935">
        <ele>457.60000610352</ele>
        <time>2020-02-23T12:51:38Z</time>
      </trkpt>
      <trkpt lat="46.2641" lon="6.27936">
        <ele>457.60000610352</ele>
        <time>2020-02-23T12:51:39Z</time>
      </trkpt>
      <trkpt lat="46.2641" lon="6.27937">
        <ele>457.39999389648</ele>
        <time>2020-02-23T12:51:40Z</time>
      </trkpt>
      <trkpt lat="46.26411" lon="6.27938">
        <ele>457.39999389648</ele>
        <time>2020-02-23T12:51:41Z</time>
      </trkpt>
      <trkpt lat="46.26411" lon="6.27941">
        <ele>457.39999389648</ele>
        <time>2020-02-23T12:51:43Z</time>
      </trkpt>
      <trkpt lat="46.26412" lon="6.27942">
        <ele>457.60000610352</ele>
        <time>2020-02-23T12:51:44Z</time>
      </trkpt>
      <trkpt lat="46.26414" lon="6.27945">
        <ele>457.79998779297</ele>
        <time>2020-02-23T12:51:47Z</time>
      </trkpt>
      <trkpt lat="46.26415" lon="6.27946">
        <ele>457.79998779297</ele>
        <time>2020-02-23T12:51:48Z</time>
      </trkpt>
      <trkpt lat="46.26417" lon="6.27946">
        <ele>457.79998779297</ele>
        <time>2020-02-23T12:51:50Z</time>
      </trkpt>
      <trkpt lat="46.26417" lon="6.27946">
        <ele>458</ele>
        <time>2020-02-23T12:51:51Z</time>
      </trkpt>
      <trkpt lat="46.26418" lon="6.27945">
        <ele>457.79998779297</ele>
        <time>2020-02-23T12:51:54Z</time>
      </trkpt>
      <trkpt lat="46.26419" lon="6.27947">
        <ele>458.39999389648</ele>
        <time>2020-02-23T12:52:02Z</time>
      </trkpt>
      <trkpt lat="46.2642" lon="6.27948">
        <ele>458.20001220703</ele>
        <time>2020-02-23T12:52:03Z</time>
      </trkpt>
      <trkpt lat="46.26421" lon="6.2795">
        <ele>458.39999389648</ele>
        <time>2020-02-23T12:52:04Z</time>
      </trkpt>
      <trkpt lat="46.26423" lon="6.27951">
        <ele>458.39999389648</ele>
        <time>2020-02-23T12:52:05Z</time>
      </trkpt>
      <trkpt lat="46.26425" lon="6.27954">
        <ele>458.20001220703</ele>
        <time>2020-02-23T12:52:07Z</time>
      </trkpt>
      <trkpt lat="46.26426" lon="6.27955">
        <ele>458.20001220703</ele>
        <time>2020-02-23T12:52:08Z</time>
      </trkpt>
      <trkpt lat="46.26428" lon="6.27957">
        <ele>458.20001220703</ele>
        <time>2020-02-23T12:52:09Z</time>
      </trkpt>
      <trkpt lat="46.26429" lon="6.27959">
        <ele>458.20001220703</ele>
        <time>2020-02-23T12:52:10Z</time>
      </trkpt>
      <trkpt lat="46.26433" lon="6.2796">
        <ele>458.39999389648</ele>
        <time>2020-02-23T12:52:12Z</time>
      </trkpt>
      <trkpt lat="46.26434" lon="6.27961">
        <ele>458.20001220703</ele>
        <time>2020-02-23T12:52:13Z</time>
      </trkpt>
      <trkpt lat="46.26435" lon="6.27962">
        <ele>458.20001220703</ele>
        <time>2020-02-23T12:52:14Z</time>
      </trkpt>
      <trkpt lat="46.26436" lon="6.27963">
        <ele>458.20001220703</ele>
        <time>2020-02-23T12:52:15Z</time>
      </trkpt>
      <trkpt lat="46.26438" lon="6.27964">
        <ele>458.20001220703</ele>
        <time>2020-02-23T12:52:16Z</time>
      </trkpt>
      <trkpt lat="46.26438" lon="6.27966">
        <ele>458.20001220703</ele>
        <time>2020-02-23T12:52:17Z</time>
      </trkpt>
      <trkpt lat="46.26439" lon="6.27968">
        <ele>458.20001220703</ele>
        <time>2020-02-23T12:52:18Z</time>
      </trkpt>
      <trkpt lat="46.2644" lon="6.27969">
        <ele>458</ele>
        <time>2020-02-23T12:52:19Z</time>
      </trkpt>
      <trkpt lat="46.26441" lon="6.27972">
        <ele>458.20001220703</ele>
        <time>2020-02-23T12:52:20Z</time>
      </trkpt>
      <trkpt lat="46.26442" lon="6.27974">
        <ele>458</ele>
        <time>2020-02-23T12:52:21Z</time>
      </trkpt>
      <trkpt lat="46.26443" lon="6.27976">
        <ele>458</ele>
        <time>2020-02-23T12:52:22Z</time>
      </trkpt>
      <trkpt lat="46.26444" lon="6.27978">
        <ele>458</ele>
        <time>2020-02-23T12:52:23Z</time>
      </trkpt>
      <trkpt lat="46.26443" lon="6.27979">
        <ele>458</ele>
        <time>2020-02-23T12:52:24Z</time>
      </trkpt>
      <trkpt lat="46.26443" lon="6.27981">
        <ele>458</ele>
        <time>2020-02-23T12:52:26Z</time>
      </trkpt>
      <trkpt lat="46.26445" lon="6.27987">
        <ele>457.79998779297</ele>
        <time>2020-02-23T12:52:33Z</time>
      </trkpt>
      <trkpt lat="46.26447" lon="6.27994">
        <ele>457.79998779297</ele>
        <time>2020-02-23T12:52:36Z</time>
      </trkpt>
      <trkpt lat="46.26448" lon="6.27996">
        <ele>457.79998779297</ele>
        <time>2020-02-23T12:52:37Z</time>
      </trkpt>
      <trkpt lat="46.26449" lon="6.27998">
        <ele>458</ele>
        <time>2020-02-23T12:52:38Z</time>
      </trkpt>
      <trkpt lat="46.2645" lon="6.28001">
        <ele>458</ele>
        <time>2020-02-23T12:52:39Z</time>
      </trkpt>
      <trkpt lat="46.2645" lon="6.28004">
        <ele>458</ele>
        <time>2020-02-23T12:52:40Z</time>
      </trkpt>
      <trkpt lat="46.26451" lon="6.28007">
        <ele>458</ele>
        <time>2020-02-23T12:52:41Z</time>
      </trkpt>
      <trkpt lat="46.26452" lon="6.28009">
        <ele>458</ele>
        <time>2020-02-23T12:52:42Z</time>
      </trkpt>
      <trkpt lat="46.26453" lon="6.28011">
        <ele>458</ele>
        <time>2020-02-23T12:52:43Z</time>
      </trkpt>
      <trkpt lat="46.26453" lon="6.28013">
        <ele>457.79998779297</ele>
        <time>2020-02-23T12:52:44Z</time>
      </trkpt>
      <trkpt lat="46.26455" lon="6.28019">
        <ele>457.79998779297</ele>
        <time>2020-02-23T12:52:46Z</time>
      </trkpt>
      <trkpt lat="46.26456" lon="6.28023">
        <ele>457.60000610352</ele>
        <time>2020-02-23T12:52:48Z</time>
      </trkpt>
      <trkpt lat="46.26457" lon="6.28026">
        <ele>457.79998779297</ele>
        <time>2020-02-23T12:52:49Z</time>
      </trkpt>
      <trkpt lat="46.26457" lon="6.28028">
        <ele>457.79998779297</ele>
        <time>2020-02-23T12:52:50Z</time>
      </trkpt>
      <trkpt lat="46.26458" lon="6.28031">
        <ele>457.60000610352</ele>
        <time>2020-02-23T12:52:51Z</time>
      </trkpt>
      <trkpt lat="46.26458" lon="6.28033">
        <ele>457.79998779297</ele>
        <time>2020-02-23T12:52:52Z</time>
      </trkpt>
      <trkpt lat="46.26459" lon="6.28036">
        <ele>457.79998779297</ele>
        <time>2020-02-23T12:52:53Z</time>
      </trkpt>
      <trkpt lat="46.2646" lon="6.28038">
        <ele>457.79998779297</ele>
        <time>2020-02-23T12:52:54Z</time>
      </trkpt>
      <trkpt lat="46.26462" lon="6.28043">
        <ele>457.79998779297</ele>
        <time>2020-02-23T12:52:56Z</time>
      </trkpt>
      <trkpt lat="46.26463" lon="6.28046">
        <ele>457.79998779297</ele>
        <time>2020-02-23T12:52:57Z</time>
      </trkpt>
      <trkpt lat="46.26464" lon="6.28048">
        <ele>457.79998779297</ele>
        <time>2020-02-23T12:52:58Z</time>
      </trkpt>
      <trkpt lat="46.26465" lon="6.28051">
        <ele>457.79998779297</ele>
        <time>2020-02-23T12:52:59Z</time>
      </trkpt>
      <trkpt lat="46.26465" lon="6.28054">
        <ele>457.79998779297</ele>
        <time>2020-02-23T12:53:00Z</time>
      </trkpt>
      <trkpt lat="46.26466" lon="6.28057">
        <ele>457.79998779297</ele>
        <time>2020-02-23T12:53:01Z</time>
      </trkpt>
      <trkpt lat="46.26467" lon="6.2806">
        <ele>457.79998779297</ele>
        <time>2020-02-23T12:53:02Z</time>
      </trkpt>
      <trkpt lat="46.26468" lon="6.28062">
        <ele>457.79998779297</ele>
        <time>2020-02-23T12:53:03Z</time>
      </trkpt>
      <trkpt lat="46.26469" lon="6.28064">
        <ele>458</ele>
        <time>2020-02-23T12:53:04Z</time>
      </trkpt>
      <trkpt lat="46.26469" lon="6.28067">
        <ele>457.79998779297</ele>
        <time>2020-02-23T12:53:05Z</time>
      </trkpt>
      <trkpt lat="46.2647" lon="6.28069">
        <ele>457.79998779297</ele>
        <time>2020-02-23T12:53:06Z</time>
      </trkpt>
      <trkpt lat="46.26471" lon="6.28072">
        <ele>458</ele>
        <time>2020-02-23T12:53:07Z</time>
      </trkpt>
      <trkpt lat="46.26472" lon="6.28075">
        <ele>458</ele>
        <time>2020-02-23T12:53:08Z</time>
      </trkpt>
      <trkpt lat="46.26473" lon="6.28077">
        <ele>458</ele>
        <time>2020-02-23T12:53:09Z</time>
      </trkpt>
      <trkpt lat="46.26473" lon="6.28079">
        <ele>457.79998779297</ele>
        <time>2020-02-23T12:53:10Z</time>
      </trkpt>
      <trkpt lat="46.26474" lon="6.28082">
        <ele>458</ele>
        <time>2020-02-23T12:53:11Z</time>
      </trkpt>
      <trkpt lat="46.26475" lon="6.28084">
        <ele>458</ele>
        <time>2020-02-23T12:53:12Z</time>
      </trkpt>
      <trkpt lat="46.26476" lon="6.28086">
        <ele>458</ele>
        <time>2020-02-23T12:53:13Z</time>
      </trkpt>
      <trkpt lat="46.26477" lon="6.28087">
        <ele>458</ele>
        <time>2020-02-23T12:53:14Z</time>
      </trkpt>
      <trkpt lat="46.26478" lon="6.2809">
        <ele>458</ele>
        <time>2020-02-23T12:53:15Z</time>
      </trkpt>
      <trkpt lat="46.26479" lon="6.28091">
        <ele>458</ele>
        <time>2020-02-23T12:53:16Z</time>
      </trkpt>
      <trkpt lat="46.2648" lon="6.28093">
        <ele>458</ele>
        <time>2020-02-23T12:53:17Z</time>
      </trkpt>
      <trkpt lat="46.2648" lon="6.28095">
        <ele>458</ele>
        <time>2020-02-23T12:53:18Z</time>
      </trkpt>
      <trkpt lat="46.26481" lon="6.28097">
        <ele>458.20001220703</ele>
        <time>2020-02-23T12:53:19Z</time>
      </trkpt>
      <trkpt lat="46.26481" lon="6.28098">
        <ele>458.20001220703</ele>
        <time>2020-02-23T12:53:20Z</time>
      </trkpt>
      <trkpt lat="46.26481" lon="6.28099">
        <ele>458.20001220703</ele>
        <time>2020-02-23T12:53:21Z</time>
      </trkpt>
      <trkpt lat="46.26481" lon="6.281">
        <ele>458.20001220703</ele>
        <time>2020-02-23T12:53:22Z</time>
      </trkpt>
      <trkpt lat="46.26481" lon="6.28101">
        <ele>458</ele>
        <time>2020-02-23T12:53:23Z</time>
      </trkpt>
      <trkpt lat="46.2648" lon="6.28102">
        <ele>458</ele>
        <time>2020-02-23T12:53:24Z</time>
      </trkpt>
      <trkpt lat="46.2648" lon="6.28102">
        <ele>458.20001220703</ele>
        <time>2020-02-23T12:53:25Z</time>
      </trkpt>
      <trkpt lat="46.26479" lon="6.28104">
        <ele>458.20001220703</ele>
        <time>2020-02-23T12:53:28Z</time>
      </trkpt>
      <trkpt lat="46.26478" lon="6.28106">
        <ele>458.20001220703</ele>
        <time>2020-02-23T12:53:29Z</time>
      </trkpt>
      <trkpt lat="46.26478" lon="6.28108">
        <ele>458.20001220703</ele>
        <time>2020-02-23T12:53:30Z</time>
      </trkpt>
      <trkpt lat="46.26478" lon="6.28109">
        <ele>458.20001220703</ele>
        <time>2020-02-23T12:53:31Z</time>
      </trkpt>
      <trkpt lat="46.26478" lon="6.28111">
        <ele>458.20001220703</ele>
        <time>2020-02-23T12:53:32Z</time>
      </trkpt>
      <trkpt lat="46.26478" lon="6.28113">
        <ele>458.39999389648</ele>
        <time>2020-02-23T12:53:33Z</time>
      </trkpt>
      <trkpt lat="46.26479" lon="6.28114">
        <ele>458.20001220703</ele>
        <time>2020-02-23T12:53:34Z</time>
      </trkpt>
      <trkpt lat="46.26479" lon="6.28116">
        <ele>458.39999389648</ele>
        <time>2020-02-23T12:53:36Z</time>
      </trkpt>
      <trkpt lat="46.26479" lon="6.28117">
        <ele>458.39999389648</ele>
        <time>2020-02-23T12:53:37Z</time>
      </trkpt>
      <trkpt lat="46.2648" lon="6.28118">
        <ele>458.39999389648</ele>
        <time>2020-02-23T12:53:38Z</time>
      </trkpt>
      <trkpt lat="46.2648" lon="6.2812">
        <ele>458.39999389648</ele>
        <time>2020-02-23T12:53:39Z</time>
      </trkpt>
      <trkpt lat="46.26483" lon="6.28122">
        <ele>458.39999389648</ele>
        <time>2020-02-23T12:53:42Z</time>
      </trkpt>
      <trkpt lat="46.26484" lon="6.28123">
        <ele>458.39999389648</ele>
        <time>2020-02-23T12:53:43Z</time>
      </trkpt>
      <trkpt lat="46.26485" lon="6.28124">
        <ele>458.39999389648</ele>
        <time>2020-02-23T12:53:44Z</time>
      </trkpt>
      <trkpt lat="46.26486" lon="6.28124">
        <ele>458.39999389648</ele>
        <time>2020-02-23T12:53:45Z</time>
      </trkpt>
      <trkpt lat="46.26486" lon="6.28125">
        <ele>458.39999389648</ele>
        <time>2020-02-23T12:53:46Z</time>
      </trkpt>
      <trkpt lat="46.26486" lon="6.28126">
        <ele>458.20001220703</ele>
        <time>2020-02-23T12:53:51Z</time>
      </trkpt>
      <trkpt lat="46.26485" lon="6.28125">
        <ele>458</ele>
        <time>2020-02-23T12:53:56Z</time>
      </trkpt>
      <trkpt lat="46.26484" lon="6.28125">
        <ele>458.20001220703</ele>
        <time>2020-02-23T12:53:57Z</time>
      </trkpt>
      <trkpt lat="46.26484" lon="6.28125">
        <ele>458.20001220703</ele>
        <time>2020-02-23T12:53:58Z</time>
      </trkpt>
      <trkpt lat="46.26483" lon="6.28124">
        <ele>458</ele>
        <time>2020-02-23T12:53:59Z</time>
      </trkpt>
      <trkpt lat="46.26482" lon="6.28123">
        <ele>458</ele>
        <time>2020-02-23T12:54:00Z</time>
      </trkpt>
      <trkpt lat="46.26479" lon="6.28125">
        <ele>458</ele>
        <time>2020-02-23T12:54:03Z</time>
      </trkpt>
      <trkpt lat="46.26478" lon="6.28124">
        <ele>458</ele>
        <time>2020-02-23T12:54:05Z</time>
      </trkpt>
      <trkpt lat="46.26478" lon="6.28124">
        <ele>458</ele>
        <time>2020-02-23T12:54:06Z</time>
      </trkpt>
      <trkpt lat="46.26478" lon="6.28123">
        <ele>458</ele>
        <time>2020-02-23T12:54:07Z</time>
      </trkpt>
      <trkpt lat="46.26478" lon="6.28121">
        <ele>458.20001220703</ele>
        <time>2020-02-23T12:54:08Z</time>
      </trkpt>
      <trkpt lat="46.26478" lon="6.2812">
        <ele>458.20001220703</ele>
        <time>2020-02-23T12:54:09Z</time>
      </trkpt>
      <trkpt lat="46.26478" lon="6.28119">
        <ele>458.20001220703</ele>
        <time>2020-02-23T12:54:10Z</time>
      </trkpt>
      <trkpt lat="46.26478" lon="6.28118">
        <ele>458.20001220703</ele>
        <time>2020-02-23T12:54:11Z</time>
      </trkpt>
      <trkpt lat="46.26478" lon="6.28116">
        <ele>458</ele>
        <time>2020-02-23T12:54:12Z</time>
      </trkpt>
      <trkpt lat="46.26478" lon="6.28115">
        <ele>458</ele>
        <time>2020-02-23T12:54:13Z</time>
      </trkpt>
      <trkpt lat="46.26478" lon="6.28115">
        <ele>458.20001220703</ele>
        <time>2020-02-23T12:54:14Z</time>
      </trkpt>
      <trkpt lat="46.26478" lon="6.28114">
        <ele>458</ele>
        <time>2020-02-23T12:54:15Z</time>
      </trkpt>
      <trkpt lat="46.26477" lon="6.28112">
        <ele>458</ele>
        <time>2020-02-23T12:54:16Z</time>
      </trkpt>
      <trkpt lat="46.26477" lon="6.28111">
        <ele>458</ele>
        <time>2020-02-23T12:54:17Z</time>
      </trkpt>
      <trkpt lat="46.26477" lon="6.2811">
        <ele>458</ele>
        <time>2020-02-23T12:54:18Z</time>
      </trkpt>
      <trkpt lat="46.26478" lon="6.28109">
        <ele>458</ele>
        <time>2020-02-23T12:54:19Z</time>
      </trkpt>
      <trkpt lat="46.26478" lon="6.28108">
        <ele>458.20001220703</ele>
        <time>2020-02-23T12:54:20Z</time>
      </trkpt>
      <trkpt lat="46.26478" lon="6.28107">
        <ele>458</ele>
        <time>2020-02-23T12:54:21Z</time>
      </trkpt>
      <trkpt lat="46.26478" lon="6.28106">
        <ele>458</ele>
        <time>2020-02-23T12:54:22Z</time>
      </trkpt>
      <trkpt lat="46.26478" lon="6.28105">
        <ele>458.20001220703</ele>
        <time>2020-02-23T12:54:23Z</time>
      </trkpt>
      <trkpt lat="46.26478" lon="6.28103">
        <ele>458</ele>
        <time>2020-02-23T12:54:24Z</time>
      </trkpt>
      <trkpt lat="46.26478" lon="6.28102">
        <ele>458</ele>
        <time>2020-02-23T12:54:25Z</time>
      </trkpt>
      <trkpt lat="46.26477" lon="6.28098">
        <ele>458</ele>
        <time>2020-02-23T12:54:28Z</time>
      </trkpt>
      <trkpt lat="46.26477" lon="6.28097">
        <ele>458</ele>
        <time>2020-02-23T12:54:29Z</time>
      </trkpt>
      <trkpt lat="46.26476" lon="6.28096">
        <ele>458</ele>
        <time>2020-02-23T12:54:30Z</time>
      </trkpt>
      <trkpt lat="46.26476" lon="6.28095">
        <ele>458</ele>
        <time>2020-02-23T12:54:31Z</time>
      </trkpt>
      <trkpt lat="46.26475" lon="6.28095">
        <ele>458</ele>
        <time>2020-02-23T12:54:32Z</time>
      </trkpt>
      <trkpt lat="46.26475" lon="6.28094">
        <ele>457.79998779297</ele>
        <time>2020-02-23T12:54:33Z</time>
      </trkpt>
      <trkpt lat="46.26474" lon="6.28092">
        <ele>458</ele>
        <time>2020-02-23T12:54:37Z</time>
      </trkpt>
      <trkpt lat="46.26474" lon="6.2809">
        <ele>458</ele>
        <time>2020-02-23T12:54:38Z</time>
      </trkpt>
      <trkpt lat="46.26473" lon="6.28088">
        <ele>458</ele>
        <time>2020-02-23T12:54:39Z</time>
      </trkpt>
      <trkpt lat="46.26473" lon="6.28085">
        <ele>458</ele>
        <time>2020-02-23T12:54:40Z</time>
      </trkpt>
      <trkpt lat="46.26472" lon="6.28082">
        <ele>458</ele>
        <time>2020-02-23T12:54:41Z</time>
      </trkpt>
      <trkpt lat="46.26471" lon="6.28079">
        <ele>458</ele>
        <time>2020-02-23T12:54:42Z</time>
      </trkpt>
      <trkpt lat="46.2647" lon="6.28076">
        <ele>458</ele>
        <time>2020-02-23T12:54:43Z</time>
      </trkpt>
      <trkpt lat="46.2647" lon="6.28074">
        <ele>457.79998779297</ele>
        <time>2020-02-23T12:54:44Z</time>
      </trkpt>
      <trkpt lat="46.26469" lon="6.28071">
        <ele>458</ele>
        <time>2020-02-23T12:54:45Z</time>
      </trkpt>
      <trkpt lat="46.26469" lon="6.28069">
        <ele>458</ele>
        <time>2020-02-23T12:54:46Z</time>
      </trkpt>
      <trkpt lat="46.26469" lon="6.28066">
        <ele>457.79998779297</ele>
        <time>2020-02-23T12:54:47Z</time>
      </trkpt>
      <trkpt lat="46.26468" lon="6.28064">
        <ele>457.79998779297</ele>
        <time>2020-02-23T12:54:48Z</time>
      </trkpt>
      <trkpt lat="46.26468" lon="6.28062">
        <ele>457.79998779297</ele>
        <time>2020-02-23T12:54:49Z</time>
      </trkpt>
      <trkpt lat="46.26467" lon="6.2806">
        <ele>457.79998779297</ele>
        <time>2020-02-23T12:54:50Z</time>
      </trkpt>
      <trkpt lat="46.26467" lon="6.28058">
        <ele>457.79998779297</ele>
        <time>2020-02-23T12:54:51Z</time>
      </trkpt>
      <trkpt lat="46.26465" lon="6.2805">
        <ele>457.79998779297</ele>
        <time>2020-02-23T12:54:54Z</time>
      </trkpt>
      <trkpt lat="46.26465" lon="6.28048">
        <ele>457.79998779297</ele>
        <time>2020-02-23T12:54:55Z</time>
      </trkpt>
      <trkpt lat="46.26464" lon="6.28045">
        <ele>457.79998779297</ele>
        <time>2020-02-23T12:54:56Z</time>
      </trkpt>
      <trkpt lat="46.26464" lon="6.28043">
        <ele>457.79998779297</ele>
        <time>2020-02-23T12:54:57Z</time>
      </trkpt>
      <trkpt lat="46.26463" lon="6.2804">
        <ele>457.79998779297</ele>
        <time>2020-02-23T12:54:58Z</time>
      </trkpt>
      <trkpt lat="46.26462" lon="6.28035">
        <ele>457.79998779297</ele>
        <time>2020-02-23T12:55:00Z</time>
      </trkpt>
      <trkpt lat="46.26461" lon="6.28032">
        <ele>457.79998779297</ele>
        <time>2020-02-23T12:55:01Z</time>
      </trkpt>
      <trkpt lat="46.26461" lon="6.28028">
        <ele>457.79998779297</ele>
        <time>2020-02-23T12:55:02Z</time>
      </trkpt>
      <trkpt lat="46.2646" lon="6.28023">
        <ele>458</ele>
        <time>2020-02-23T12:55:04Z</time>
      </trkpt>
      <trkpt lat="46.26459" lon="6.28021">
        <ele>457.79998779297</ele>
        <time>2020-02-23T12:55:05Z</time>
      </trkpt>
      <trkpt lat="46.26459" lon="6.28018">
        <ele>458</ele>
        <time>2020-02-23T12:55:06Z</time>
      </trkpt>
      <trkpt lat="46.26458" lon="6.28016">
        <ele>458</ele>
        <time>2020-02-23T12:55:07Z</time>
      </trkpt>
      <trkpt lat="46.26457" lon="6.28014">
        <ele>458</ele>
        <time>2020-02-23T12:55:08Z</time>
      </trkpt>
      <trkpt lat="46.26456" lon="6.28009">
        <ele>458</ele>
        <time>2020-02-23T12:55:10Z</time>
      </trkpt>
      <trkpt lat="46.26456" lon="6.28007">
        <ele>457.79998779297</ele>
        <time>2020-02-23T12:55:11Z</time>
      </trkpt>
      <trkpt lat="46.26455" lon="6.28004">
        <ele>457.79998779297</ele>
        <time>2020-02-23T12:55:12Z</time>
      </trkpt>
      <trkpt lat="46.26451" lon="6.27993">
        <ele>458</ele>
        <time>2020-02-23T12:55:16Z</time>
      </trkpt>
      <trkpt lat="46.2645" lon="6.2799">
        <ele>458</ele>
        <time>2020-02-23T12:55:17Z</time>
      </trkpt>
      <trkpt lat="46.26448" lon="6.27986">
        <ele>458</ele>
        <time>2020-02-23T12:55:19Z</time>
      </trkpt>
      <trkpt lat="46.26447" lon="6.27984">
        <ele>458</ele>
        <time>2020-02-23T12:55:20Z</time>
      </trkpt>
      <trkpt lat="46.26446" lon="6.27981">
        <ele>458</ele>
        <time>2020-02-23T12:55:21Z</time>
      </trkpt>
      <trkpt lat="46.26446" lon="6.27978">
        <ele>458</ele>
        <time>2020-02-23T12:55:22Z</time>
      </trkpt>
      <trkpt lat="46.26445" lon="6.27976">
        <ele>458</ele>
        <time>2020-02-23T12:55:23Z</time>
      </trkpt>
      <trkpt lat="46.26444" lon="6.27974">
        <ele>458</ele>
        <time>2020-02-23T12:55:24Z</time>
      </trkpt>
      <trkpt lat="46.26443" lon="6.27972">
        <ele>458</ele>
        <time>2020-02-23T12:55:25Z</time>
      </trkpt>
      <trkpt lat="46.26442" lon="6.2797">
        <ele>457.79998779297</ele>
        <time>2020-02-23T12:55:26Z</time>
      </trkpt>
      <trkpt lat="46.26441" lon="6.27968">
        <ele>457.79998779297</ele>
        <time>2020-02-23T12:55:27Z</time>
      </trkpt>
      <trkpt lat="46.2644" lon="6.27966">
        <ele>457.79998779297</ele>
        <time>2020-02-23T12:55:28Z</time>
      </trkpt>
      <trkpt lat="46.26436" lon="6.27961">
        <ele>457.79998779297</ele>
        <time>2020-02-23T12:55:31Z</time>
      </trkpt>
      <trkpt lat="46.26435" lon="6.27959">
        <ele>458</ele>
        <time>2020-02-23T12:55:32Z</time>
      </trkpt>
      <trkpt lat="46.26434" lon="6.27957">
        <ele>457.79998779297</ele>
        <time>2020-02-23T12:55:33Z</time>
      </trkpt>
      <trkpt lat="46.26432" lon="6.27955">
        <ele>458</ele>
        <time>2020-02-23T12:55:34Z</time>
      </trkpt>
      <trkpt lat="46.26431" lon="6.27953">
        <ele>457.79998779297</ele>
        <time>2020-02-23T12:55:35Z</time>
      </trkpt>
      <trkpt lat="46.2643" lon="6.27951">
        <ele>457.79998779297</ele>
        <time>2020-02-23T12:55:36Z</time>
      </trkpt>
      <trkpt lat="46.26429" lon="6.27949">
        <ele>457.79998779297</ele>
        <time>2020-02-23T12:55:37Z</time>
      </trkpt>
      <trkpt lat="46.26428" lon="6.27947">
        <ele>458</ele>
        <time>2020-02-23T12:55:38Z</time>
      </trkpt>
      <trkpt lat="46.26428" lon="6.27946">
        <ele>458</ele>
        <time>2020-02-23T12:55:39Z</time>
      </trkpt>
      <trkpt lat="46.26427" lon="6.27945">
        <ele>457.79998779297</ele>
        <time>2020-02-23T12:55:40Z</time>
      </trkpt>
      <trkpt lat="46.26426" lon="6.27943">
        <ele>457.79998779297</ele>
        <time>2020-02-23T12:55:41Z</time>
      </trkpt>
      <trkpt lat="46.26425" lon="6.27941">
        <ele>458</ele>
        <time>2020-02-23T12:55:42Z</time>
      </trkpt>
      <trkpt lat="46.26424" lon="6.27939">
        <ele>458</ele>
        <time>2020-02-23T12:55:43Z</time>
      </trkpt>
      <trkpt lat="46.26423" lon="6.27937">
        <ele>457.79998779297</ele>
        <time>2020-02-23T12:55:44Z</time>
      </trkpt>
      <trkpt lat="46.26422" lon="6.27935">
        <ele>458</ele>
        <time>2020-02-23T12:55:45Z</time>
      </trkpt>
      <trkpt lat="46.26421" lon="6.27934">
        <ele>458</ele>
        <time>2020-02-23T12:55:46Z</time>
      </trkpt>
      <trkpt lat="46.26421" lon="6.27932">
        <ele>458</ele>
        <time>2020-02-23T12:55:47Z</time>
      </trkpt>
      <trkpt lat="46.2642" lon="6.27931">
        <ele>458</ele>
        <time>2020-02-23T12:55:48Z</time>
      </trkpt>
      <trkpt lat="46.26419" lon="6.27929">
        <ele>458</ele>
        <time>2020-02-23T12:55:49Z</time>
      </trkpt>
      <trkpt lat="46.26419" lon="6.27928">
        <ele>458</ele>
        <time>2020-02-23T12:55:50Z</time>
      </trkpt>
      <trkpt lat="46.2642" lon="6.27922">
        <ele>458</ele>
        <time>2020-02-23T12:55:53Z</time>
      </trkpt>
      <trkpt lat="46.26421" lon="6.27921">
        <ele>458</ele>
        <time>2020-02-23T12:55:54Z</time>
      </trkpt>
      <trkpt lat="46.26421" lon="6.27919">
        <ele>458</ele>
        <time>2020-02-23T12:55:55Z</time>
      </trkpt>
      <trkpt lat="46.26422" lon="6.27918">
        <ele>458</ele>
        <time>2020-02-23T12:55:56Z</time>
      </trkpt>
      <trkpt lat="46.26422" lon="6.27916">
        <ele>458</ele>
        <time>2020-02-23T12:55:57Z</time>
      </trkpt>
      <trkpt lat="46.26423" lon="6.27914">
        <ele>458</ele>
        <time>2020-02-23T12:55:58Z</time>
      </trkpt>
      <trkpt lat="46.26424" lon="6.27912">
        <ele>458</ele>
        <time>2020-02-23T12:55:59Z</time>
      </trkpt>
      <trkpt lat="46.26424" lon="6.2791">
        <ele>457.79998779297</ele>
        <time>2020-02-23T12:56:00Z</time>
      </trkpt>
      <trkpt lat="46.26425" lon="6.27908">
        <ele>457.79998779297</ele>
        <time>2020-02-23T12:56:01Z</time>
      </trkpt>
      <trkpt lat="46.26426" lon="6.27906">
        <ele>457.79998779297</ele>
        <time>2020-02-23T12:56:02Z</time>
      </trkpt>
      <trkpt lat="46.26427" lon="6.27905">
        <ele>457.60000610352</ele>
        <time>2020-02-23T12:56:03Z</time>
      </trkpt>
      <trkpt lat="46.26427" lon="6.27903">
        <ele>457.39999389648</ele>
        <time>2020-02-23T12:56:04Z</time>
      </trkpt>
      <trkpt lat="46.26428" lon="6.279">
        <ele>457.60000610352</ele>
        <time>2020-02-23T12:56:05Z</time>
      </trkpt>
      <trkpt lat="46.26429" lon="6.27895">
        <ele>457.39999389648</ele>
        <time>2020-02-23T12:56:07Z</time>
      </trkpt>
      <trkpt lat="46.26429" lon="6.27892">
        <ele>457.39999389648</ele>
        <time>2020-02-23T12:56:08Z</time>
      </trkpt>
      <trkpt lat="46.2643" lon="6.27889">
        <ele>457.39999389648</ele>
        <time>2020-02-23T12:56:09Z</time>
      </trkpt>
      <trkpt lat="46.2643" lon="6.27886">
        <ele>457.39999389648</ele>
        <time>2020-02-23T12:56:10Z</time>
      </trkpt>
      <trkpt lat="46.26432" lon="6.27883">
        <ele>457.39999389648</ele>
        <time>2020-02-23T12:56:12Z</time>
      </trkpt>
      <trkpt lat="46.26433" lon="6.27881">
        <ele>457.39999389648</ele>
        <time>2020-02-23T12:56:13Z</time>
      </trkpt>
      <trkpt lat="46.26433" lon="6.27878">
        <ele>457.39999389648</ele>
        <time>2020-02-23T12:56:14Z</time>
      </trkpt>
      <trkpt lat="46.26435" lon="6.27873">
        <ele>457.39999389648</ele>
        <time>2020-02-23T12:56:16Z</time>
      </trkpt>
      <trkpt lat="46.26435" lon="6.2787">
        <ele>457.39999389648</ele>
        <time>2020-02-23T12:56:17Z</time>
      </trkpt>
      <trkpt lat="46.26436" lon="6.27868">
        <ele>457.39999389648</ele>
        <time>2020-02-23T12:56:18Z</time>
      </trkpt>
      <trkpt lat="46.26437" lon="6.27866">
        <ele>457.39999389648</ele>
        <time>2020-02-23T12:56:19Z</time>
      </trkpt>
      <trkpt lat="46.2644" lon="6.27861">
        <ele>457.20001220703</ele>
        <time>2020-02-23T12:56:21Z</time>
      </trkpt>
      <trkpt lat="46.26441" lon="6.27859">
        <ele>457.39999389648</ele>
        <time>2020-02-23T12:56:22Z</time>
      </trkpt>
      <trkpt lat="46.26443" lon="6.27858">
        <ele>457.39999389648</ele>
        <time>2020-02-23T12:56:23Z</time>
      </trkpt>
      <trkpt lat="46.26445" lon="6.27856">
        <ele>457.39999389648</ele>
        <time>2020-02-23T12:56:24Z</time>
      </trkpt>
      <trkpt lat="46.26447" lon="6.27855">
        <ele>457.39999389648</ele>
        <time>2020-02-23T12:56:25Z</time>
      </trkpt>
      <trkpt lat="46.26449" lon="6.27854">
        <ele>457.20001220703</ele>
        <time>2020-02-23T12:56:26Z</time>
      </trkpt>
      <trkpt lat="46.2645" lon="6.27854">
        <ele>457.39999389648</ele>
        <time>2020-02-23T12:56:27Z</time>
      </trkpt>
      <trkpt lat="46.26452" lon="6.27854">
        <ele>457.39999389648</ele>
        <time>2020-02-23T12:56:28Z</time>
      </trkpt>
      <trkpt lat="46.26454" lon="6.27853">
        <ele>457.39999389648</ele>
        <time>2020-02-23T12:56:29Z</time>
      </trkpt>
      <trkpt lat="46.26456" lon="6.27852">
        <ele>457.39999389648</ele>
        <time>2020-02-23T12:56:30Z</time>
      </trkpt>
      <trkpt lat="46.26462" lon="6.27851">
        <ele>457.20001220703</ele>
        <time>2020-02-23T12:56:33Z</time>
      </trkpt>
      <trkpt lat="46.26464" lon="6.27851">
        <ele>457.39999389648</ele>
        <time>2020-02-23T12:56:34Z</time>
      </trkpt>
      <trkpt lat="46.26466" lon="6.2785">
        <ele>457.20001220703</ele>
        <time>2020-02-23T12:56:35Z</time>
      </trkpt>
      <trkpt lat="46.26467" lon="6.2785">
        <ele>457.20001220703</ele>
        <time>2020-02-23T12:56:36Z</time>
      </trkpt>
      <trkpt lat="46.26469" lon="6.27849">
        <ele>457.20001220703</ele>
        <time>2020-02-23T12:56:37Z</time>
      </trkpt>
      <trkpt lat="46.26472" lon="6.27848">
        <ele>457</ele>
        <time>2020-02-23T12:56:39Z</time>
      </trkpt>
      <trkpt lat="46.26478" lon="6.27846">
        <ele>457</ele>
        <time>2020-02-23T12:56:42Z</time>
      </trkpt>
      <trkpt lat="46.2648" lon="6.27845">
        <ele>457</ele>
        <time>2020-02-23T12:56:43Z</time>
      </trkpt>
      <trkpt lat="46.26482" lon="6.27843">
        <ele>457</ele>
        <time>2020-02-23T12:56:44Z</time>
      </trkpt>
      <trkpt lat="46.26485" lon="6.2784">
        <ele>456.79998779297</ele>
        <time>2020-02-23T12:56:46Z</time>
      </trkpt>
      <trkpt lat="46.2649" lon="6.27834">
        <ele>456.79998779297</ele>
        <time>2020-02-23T12:56:49Z</time>
      </trkpt>
      <trkpt lat="46.26493" lon="6.2783">
        <ele>456.79998779297</ele>
        <time>2020-02-23T12:56:51Z</time>
      </trkpt>
      <trkpt lat="46.26494" lon="6.27829">
        <ele>456.79998779297</ele>
        <time>2020-02-23T12:56:52Z</time>
      </trkpt>
      <trkpt lat="46.26496" lon="6.27826">
        <ele>456.79998779297</ele>
        <time>2020-02-23T12:56:53Z</time>
      </trkpt>
      <trkpt lat="46.26498" lon="6.27822">
        <ele>456.79998779297</ele>
        <time>2020-02-23T12:56:55Z</time>
      </trkpt>
      <trkpt lat="46.26499" lon="6.2782">
        <ele>456.79998779297</ele>
        <time>2020-02-23T12:56:56Z</time>
      </trkpt>
      <trkpt lat="46.26501" lon="6.27816">
        <ele>456.60000610352</ele>
        <time>2020-02-23T12:56:58Z</time>
      </trkpt>
      <trkpt lat="46.26503" lon="6.2781">
        <ele>456.39999389648</ele>
        <time>2020-02-23T12:57:00Z</time>
      </trkpt>
      <trkpt lat="46.26503" lon="6.27807">
        <ele>456.60000610352</ele>
        <time>2020-02-23T12:57:01Z</time>
      </trkpt>
      <trkpt lat="46.26504" lon="6.27805">
        <ele>456.60000610352</ele>
        <time>2020-02-23T12:57:02Z</time>
      </trkpt>
      <trkpt lat="46.26506" lon="6.27797">
        <ele>456</ele>
        <time>2020-02-23T12:57:05Z</time>
      </trkpt>
      <trkpt lat="46.26507" lon="6.27795">
        <ele>456</ele>
        <time>2020-02-23T12:57:06Z</time>
      </trkpt>
      <trkpt lat="46.26508" lon="6.27792">
        <ele>456</ele>
        <time>2020-02-23T12:57:07Z</time>
      </trkpt>
      <trkpt lat="46.26509" lon="6.2779">
        <ele>456</ele>
        <time>2020-02-23T12:57:08Z</time>
      </trkpt>
      <trkpt lat="46.2651" lon="6.27788">
        <ele>456</ele>
        <time>2020-02-23T12:57:09Z</time>
      </trkpt>
      <trkpt lat="46.2651" lon="6.27787">
        <ele>456</ele>
        <time>2020-02-23T12:57:10Z</time>
      </trkpt>
      <trkpt lat="46.26511" lon="6.27786">
        <ele>456</ele>
        <time>2020-02-23T12:57:11Z</time>
      </trkpt>
      <trkpt lat="46.26512" lon="6.27787">
        <ele>456</ele>
        <time>2020-02-23T12:57:13Z</time>
      </trkpt>
      <trkpt lat="46.26512" lon="6.27786">
        <ele>455.79998779297</ele>
        <time>2020-02-23T12:57:17Z</time>
      </trkpt>
      <trkpt lat="46.26512" lon="6.27786">
        <ele>455.60000610352</ele>
        <time>2020-02-23T12:57:32Z</time>
      </trkpt>
      <trkpt lat="46.26513" lon="6.27787">
        <ele>455.79998779297</ele>
        <time>2020-02-23T12:57:44Z</time>
      </trkpt>
      <trkpt lat="46.26513" lon="6.27787">
        <ele>455.79998779297</ele>
        <time>2020-02-23T12:57:45Z</time>
      </trkpt>
      <trkpt lat="46.26513" lon="6.27787">
        <ele>455.79998779297</ele>
        <time>2020-02-23T12:57:46Z</time>
      </trkpt>
      <trkpt lat="46.26513" lon="6.27787">
        <ele>456</ele>
        <time>2020-02-23T12:57:47Z</time>
      </trkpt>
      <trkpt lat="46.26513" lon="6.27787">
        <ele>456</ele>
        <time>2020-02-23T12:57:48Z</time>
      </trkpt>
      <trkpt lat="46.26513" lon="6.27787">
        <ele>455.79998779297</ele>
        <time>2020-02-23T12:57:49Z</time>
      </trkpt>
      <trkpt lat="46.26513" lon="6.27787">
        <ele>455.79998779297</ele>
        <time>2020-02-23T12:58:03Z</time>
      </trkpt>
      <trkpt lat="46.26515" lon="6.2778">
        <ele>456</ele>
        <time>2020-02-23T12:58:08Z</time>
      </trkpt>
      <trkpt lat="46.26516" lon="6.27778">
        <ele>456</ele>
        <time>2020-02-23T12:58:09Z</time>
      </trkpt>
      <trkpt lat="46.26516" lon="6.27776">
        <ele>456</ele>
        <time>2020-02-23T12:58:10Z</time>
      </trkpt>
      <trkpt lat="46.26517" lon="6.27773">
        <ele>455.79998779297</ele>
        <time>2020-02-23T12:58:11Z</time>
      </trkpt>
      <trkpt lat="46.2652" lon="6.27765">
        <ele>455.79998779297</ele>
        <time>2020-02-23T12:58:14Z</time>
      </trkpt>
      <trkpt lat="46.26521" lon="6.27762">
        <ele>455.79998779297</ele>
        <time>2020-02-23T12:58:15Z</time>
      </trkpt>
      <trkpt lat="46.26521" lon="6.27759">
        <ele>455.79998779297</ele>
        <time>2020-02-23T12:58:16Z</time>
      </trkpt>
      <trkpt lat="46.26522" lon="6.27757">
        <ele>455.79998779297</ele>
        <time>2020-02-23T12:58:17Z</time>
      </trkpt>
      <trkpt lat="46.26523" lon="6.27755">
        <ele>455.79998779297</ele>
        <time>2020-02-23T12:58:18Z</time>
      </trkpt>
      <trkpt lat="46.26523" lon="6.27752">
        <ele>455.79998779297</ele>
        <time>2020-02-23T12:58:19Z</time>
      </trkpt>
      <trkpt lat="46.26524" lon="6.2775">
        <ele>455.79998779297</ele>
        <time>2020-02-23T12:58:20Z</time>
      </trkpt>
      <trkpt lat="46.26525" lon="6.27747">
        <ele>455.60000610352</ele>
        <time>2020-02-23T12:58:21Z</time>
      </trkpt>
      <trkpt lat="46.26526" lon="6.27744">
        <ele>455.60000610352</ele>
        <time>2020-02-23T12:58:22Z</time>
      </trkpt>
      <trkpt lat="46.26527" lon="6.27742">
        <ele>455.60000610352</ele>
        <time>2020-02-23T12:58:23Z</time>
      </trkpt>
      <trkpt lat="46.26527" lon="6.2774">
        <ele>455.60000610352</ele>
        <time>2020-02-23T12:58:24Z</time>
      </trkpt>
      <trkpt lat="46.26527" lon="6.27737">
        <ele>455.60000610352</ele>
        <time>2020-02-23T12:58:25Z</time>
      </trkpt>
      <trkpt lat="46.26528" lon="6.27735">
        <ele>455.60000610352</ele>
        <time>2020-02-23T12:58:26Z</time>
      </trkpt>
      <trkpt lat="46.26529" lon="6.27732">
        <ele>455.60000610352</ele>
        <time>2020-02-23T12:58:27Z</time>
      </trkpt>
      <trkpt lat="46.26529" lon="6.27729">
        <ele>455.60000610352</ele>
        <time>2020-02-23T12:58:28Z</time>
      </trkpt>
      <trkpt lat="46.2653" lon="6.27727">
        <ele>455.60000610352</ele>
        <time>2020-02-23T12:58:29Z</time>
      </trkpt>
      <trkpt lat="46.26531" lon="6.27724">
        <ele>455.60000610352</ele>
        <time>2020-02-23T12:58:30Z</time>
      </trkpt>
      <trkpt lat="46.26532" lon="6.27718">
        <ele>455.60000610352</ele>
        <time>2020-02-23T12:58:32Z</time>
      </trkpt>
      <trkpt lat="46.26532" lon="6.27716">
        <ele>455.60000610352</ele>
        <time>2020-02-23T12:58:33Z</time>
      </trkpt>
      <trkpt lat="46.26533" lon="6.27713">
        <ele>455.60000610352</ele>
        <time>2020-02-23T12:58:34Z</time>
      </trkpt>
      <trkpt lat="46.26534" lon="6.27711">
        <ele>455.60000610352</ele>
        <time>2020-02-23T12:58:35Z</time>
      </trkpt>
      <trkpt lat="46.26534" lon="6.27709">
        <ele>455.39999389648</ele>
        <time>2020-02-23T12:58:36Z</time>
      </trkpt>
      <trkpt lat="46.26535" lon="6.27706">
        <ele>455.60000610352</ele>
        <time>2020-02-23T12:58:37Z</time>
      </trkpt>
      <trkpt lat="46.26536" lon="6.27704">
        <ele>455.39999389648</ele>
        <time>2020-02-23T12:58:38Z</time>
      </trkpt>
      <trkpt lat="46.26536" lon="6.27702">
        <ele>455.60000610352</ele>
        <time>2020-02-23T12:58:39Z</time>
      </trkpt>
      <trkpt lat="46.26537" lon="6.277">
        <ele>455.39999389648</ele>
        <time>2020-02-23T12:58:40Z</time>
      </trkpt>
      <trkpt lat="46.26537" lon="6.27698">
        <ele>455.39999389648</ele>
        <time>2020-02-23T12:58:41Z</time>
      </trkpt>
      <trkpt lat="46.26538" lon="6.27696">
        <ele>455.39999389648</ele>
        <time>2020-02-23T12:58:42Z</time>
      </trkpt>
      <trkpt lat="46.26538" lon="6.27694">
        <ele>455.39999389648</ele>
        <time>2020-02-23T12:58:43Z</time>
      </trkpt>
      <trkpt lat="46.26539" lon="6.27692">
        <ele>455.39999389648</ele>
        <time>2020-02-23T12:58:44Z</time>
      </trkpt>
      <trkpt lat="46.26539" lon="6.2769">
        <ele>455.39999389648</ele>
        <time>2020-02-23T12:58:45Z</time>
      </trkpt>
      <trkpt lat="46.2654" lon="6.27687">
        <ele>455.39999389648</ele>
        <time>2020-02-23T12:58:46Z</time>
      </trkpt>
      <trkpt lat="46.26541" lon="6.27685">
        <ele>455.39999389648</ele>
        <time>2020-02-23T12:58:47Z</time>
      </trkpt>
      <trkpt lat="46.26541" lon="6.27682">
        <ele>455.20001220703</ele>
        <time>2020-02-23T12:58:48Z</time>
      </trkpt>
      <trkpt lat="46.26541" lon="6.27677">
        <ele>455.20001220703</ele>
        <time>2020-02-23T12:58:50Z</time>
      </trkpt>
      <trkpt lat="46.26541" lon="6.27675">
        <ele>455.20001220703</ele>
        <time>2020-02-23T12:58:51Z</time>
      </trkpt>
      <trkpt lat="46.2654" lon="6.27669">
        <ele>455.39999389648</ele>
        <time>2020-02-23T12:58:53Z</time>
      </trkpt>
      <trkpt lat="46.26539" lon="6.27665">
        <ele>455.20001220703</ele>
        <time>2020-02-23T12:58:54Z</time>
      </trkpt>
      <trkpt lat="46.26538" lon="6.27661">
        <ele>455.39999389648</ele>
        <time>2020-02-23T12:58:55Z</time>
      </trkpt>
      <trkpt lat="46.26538" lon="6.27658">
        <ele>455.39999389648</ele>
        <time>2020-02-23T12:58:56Z</time>
      </trkpt>
      <trkpt lat="46.26537" lon="6.27653">
        <ele>455.39999389648</ele>
        <time>2020-02-23T12:58:57Z</time>
      </trkpt>
      <trkpt lat="46.26536" lon="6.27641">
        <ele>455.39999389648</ele>
        <time>2020-02-23T12:59:00Z</time>
      </trkpt>
      <trkpt lat="46.26536" lon="6.27637">
        <ele>455.39999389648</ele>
        <time>2020-02-23T12:59:01Z</time>
      </trkpt>
      <trkpt lat="46.26536" lon="6.27634">
        <ele>455.39999389648</ele>
        <time>2020-02-23T12:59:02Z</time>
      </trkpt>
      <trkpt lat="46.26535" lon="6.27633">
        <ele>455.39999389648</ele>
        <time>2020-02-23T12:59:03Z</time>
      </trkpt>
      <trkpt lat="46.26535" lon="6.27631">
        <ele>455.60000610352</ele>
        <time>2020-02-23T12:59:04Z</time>
      </trkpt>
      <trkpt lat="46.26535" lon="6.27631">
        <ele>455.39999389648</ele>
        <time>2020-02-23T12:59:05Z</time>
      </trkpt>
      <trkpt lat="46.26536" lon="6.27629">
        <ele>455.60000610352</ele>
        <time>2020-02-23T12:59:19Z</time>
      </trkpt>
      <trkpt lat="46.26535" lon="6.27629">
        <ele>455.60000610352</ele>
        <time>2020-02-23T12:59:20Z</time>
      </trkpt>
      <trkpt lat="46.26534" lon="6.27627">
        <ele>455.39999389648</ele>
        <time>2020-02-23T12:59:27Z</time>
      </trkpt>
      <trkpt lat="46.26534" lon="6.27626">
        <ele>455.39999389648</ele>
        <time>2020-02-23T12:59:28Z</time>
      </trkpt>
      <trkpt lat="46.26533" lon="6.27624">
        <ele>455.20001220703</ele>
        <time>2020-02-23T12:59:29Z</time>
      </trkpt>
      <trkpt lat="46.26531" lon="6.27618">
        <ele>455</ele>
        <time>2020-02-23T12:59:32Z</time>
      </trkpt>
      <trkpt lat="46.2653" lon="6.27615">
        <ele>455</ele>
        <time>2020-02-23T12:59:33Z</time>
      </trkpt>
      <trkpt lat="46.26528" lon="6.27612">
        <ele>454.79998779297</ele>
        <time>2020-02-23T12:59:34Z</time>
      </trkpt>
      <trkpt lat="46.26527" lon="6.2761">
        <ele>454.79998779297</ele>
        <time>2020-02-23T12:59:35Z</time>
      </trkpt>
      <trkpt lat="46.26523" lon="6.27602">
        <ele>454.60000610352</ele>
        <time>2020-02-23T12:59:38Z</time>
      </trkpt>
      <trkpt lat="46.26521" lon="6.276">
        <ele>454.60000610352</ele>
        <time>2020-02-23T12:59:39Z</time>
      </trkpt>
      <trkpt lat="46.2652" lon="6.27597">
        <ele>454.39999389648</ele>
        <time>2020-02-23T12:59:40Z</time>
      </trkpt>
      <trkpt lat="46.2652" lon="6.27594">
        <ele>454.39999389648</ele>
        <time>2020-02-23T12:59:41Z</time>
      </trkpt>
      <trkpt lat="46.26519" lon="6.27591">
        <ele>454.39999389648</ele>
        <time>2020-02-23T12:59:42Z</time>
      </trkpt>
      <trkpt lat="46.26518" lon="6.27588">
        <ele>454.20001220703</ele>
        <time>2020-02-23T12:59:43Z</time>
      </trkpt>
      <trkpt lat="46.26517" lon="6.27585">
        <ele>454.20001220703</ele>
        <time>2020-02-23T12:59:44Z</time>
      </trkpt>
      <trkpt lat="46.26514" lon="6.27576">
        <ele>454.20001220703</ele>
        <time>2020-02-23T12:59:47Z</time>
      </trkpt>
      <trkpt lat="46.26513" lon="6.27573">
        <ele>454.20001220703</ele>
        <time>2020-02-23T12:59:48Z</time>
      </trkpt>
      <trkpt lat="46.26512" lon="6.2757">
        <ele>454.20001220703</ele>
        <time>2020-02-23T12:59:49Z</time>
      </trkpt>
      <trkpt lat="46.26511" lon="6.27568">
        <ele>454.20001220703</ele>
        <time>2020-02-23T12:59:50Z</time>
      </trkpt>
      <trkpt lat="46.2651" lon="6.27565">
        <ele>454.20001220703</ele>
        <time>2020-02-23T12:59:51Z</time>
      </trkpt>
      <trkpt lat="46.26505" lon="6.27552">
        <ele>454.20001220703</ele>
        <time>2020-02-23T12:59:55Z</time>
      </trkpt>
      <trkpt lat="46.26503" lon="6.27545">
        <ele>454.20001220703</ele>
        <time>2020-02-23T12:59:57Z</time>
      </trkpt>
      <trkpt lat="46.26501" lon="6.27541">
        <ele>454.20001220703</ele>
        <time>2020-02-23T12:59:58Z</time>
      </trkpt>
      <trkpt lat="46.26498" lon="6.27534">
        <ele>454</ele>
        <time>2020-02-23T13:00:00Z</time>
      </trkpt>
      <trkpt lat="46.26497" lon="6.27531">
        <ele>454</ele>
        <time>2020-02-23T13:00:01Z</time>
      </trkpt>
      <trkpt lat="46.26496" lon="6.27528">
        <ele>454.20001220703</ele>
        <time>2020-02-23T13:00:02Z</time>
      </trkpt>
      <trkpt lat="46.26495" lon="6.27524">
        <ele>454.20001220703</ele>
        <time>2020-02-23T13:00:03Z</time>
      </trkpt>
      <trkpt lat="46.26494" lon="6.27521">
        <ele>454</ele>
        <time>2020-02-23T13:00:04Z</time>
      </trkpt>
      <trkpt lat="46.26493" lon="6.27518">
        <ele>454</ele>
        <time>2020-02-23T13:00:05Z</time>
      </trkpt>
      <trkpt lat="46.26491" lon="6.27515">
        <ele>454.20001220703</ele>
        <time>2020-02-23T13:00:06Z</time>
      </trkpt>
      <trkpt lat="46.2649" lon="6.27511">
        <ele>454</ele>
        <time>2020-02-23T13:00:07Z</time>
      </trkpt>
      <trkpt lat="46.26487" lon="6.27505">
        <ele>454</ele>
        <time>2020-02-23T13:00:09Z</time>
      </trkpt>
      <trkpt lat="46.26482" lon="6.27491">
        <ele>453.79998779297</ele>
        <time>2020-02-23T13:00:13Z</time>
      </trkpt>
      <trkpt lat="46.26481" lon="6.27489">
        <ele>453.60000610352</ele>
        <time>2020-02-23T13:00:14Z</time>
      </trkpt>
      <trkpt lat="46.2648" lon="6.27486">
        <ele>453.79998779297</ele>
        <time>2020-02-23T13:00:15Z</time>
      </trkpt>
      <trkpt lat="46.26478" lon="6.27483">
        <ele>453.79998779297</ele>
        <time>2020-02-23T13:00:16Z</time>
      </trkpt>
      <trkpt lat="46.26477" lon="6.2748">
        <ele>454</ele>
        <time>2020-02-23T13:00:17Z</time>
      </trkpt>
      <trkpt lat="46.26476" lon="6.27477">
        <ele>453.79998779297</ele>
        <time>2020-02-23T13:00:18Z</time>
      </trkpt>
      <trkpt lat="46.26471" lon="6.27466">
        <ele>453.60000610352</ele>
        <time>2020-02-23T13:00:21Z</time>
      </trkpt>
      <trkpt lat="46.26468" lon="6.2746">
        <ele>453.60000610352</ele>
        <time>2020-02-23T13:00:23Z</time>
      </trkpt>
      <trkpt lat="46.26466" lon="6.27456">
        <ele>453.39999389648</ele>
        <time>2020-02-23T13:00:24Z</time>
      </trkpt>
      <trkpt lat="46.26465" lon="6.27453">
        <ele>453.39999389648</ele>
        <time>2020-02-23T13:00:25Z</time>
      </trkpt>
      <trkpt lat="46.26454" lon="6.27432">
        <ele>453</ele>
        <time>2020-02-23T13:00:31Z</time>
      </trkpt>
      <trkpt lat="46.26452" lon="6.27428">
        <ele>453</ele>
        <time>2020-02-23T13:00:32Z</time>
      </trkpt>
      <trkpt lat="46.2645" lon="6.27425">
        <ele>453</ele>
        <time>2020-02-23T13:00:33Z</time>
      </trkpt>
      <trkpt lat="46.26449" lon="6.27422">
        <ele>453</ele>
        <time>2020-02-23T13:00:34Z</time>
      </trkpt>
      <trkpt lat="46.26447" lon="6.27418">
        <ele>452.79998779297</ele>
        <time>2020-02-23T13:00:35Z</time>
      </trkpt>
      <trkpt lat="46.26445" lon="6.27415">
        <ele>452.79998779297</ele>
        <time>2020-02-23T13:00:36Z</time>
      </trkpt>
      <trkpt lat="46.26443" lon="6.27412">
        <ele>452.79998779297</ele>
        <time>2020-02-23T13:00:37Z</time>
      </trkpt>
      <trkpt lat="46.26442" lon="6.2741">
        <ele>452.79998779297</ele>
        <time>2020-02-23T13:00:38Z</time>
      </trkpt>
      <trkpt lat="46.2644" lon="6.27407">
        <ele>452.79998779297</ele>
        <time>2020-02-23T13:00:39Z</time>
      </trkpt>
      <trkpt lat="46.26438" lon="6.27405">
        <ele>452.79998779297</ele>
        <time>2020-02-23T13:00:40Z</time>
      </trkpt>
      <trkpt lat="46.26437" lon="6.27403">
        <ele>452.79998779297</ele>
        <time>2020-02-23T13:00:41Z</time>
      </trkpt>
      <trkpt lat="46.26435" lon="6.27402">
        <ele>452.79998779297</ele>
        <time>2020-02-23T13:00:42Z</time>
      </trkpt>
      <trkpt lat="46.26434" lon="6.27402">
        <ele>452.79998779297</ele>
        <time>2020-02-23T13:00:43Z</time>
      </trkpt>
      <trkpt lat="46.26433" lon="6.27402">
        <ele>453</ele>
        <time>2020-02-23T13:00:44Z</time>
      </trkpt>
      <trkpt lat="46.26432" lon="6.27401">
        <ele>452.79998779297</ele>
        <time>2020-02-23T13:00:45Z</time>
      </trkpt>
      <trkpt lat="46.2643" lon="6.274">
        <ele>452.79998779297</ele>
        <time>2020-02-23T13:00:46Z</time>
      </trkpt>
      <trkpt lat="46.26427" lon="6.27396">
        <ele>453</ele>
        <time>2020-02-23T13:00:48Z</time>
      </trkpt>
      <trkpt lat="46.26425" lon="6.27393">
        <ele>452.79998779297</ele>
        <time>2020-02-23T13:00:49Z</time>
      </trkpt>
      <trkpt lat="46.26423" lon="6.2739">
        <ele>452.79998779297</ele>
        <time>2020-02-23T13:00:50Z</time>
      </trkpt>
      <trkpt lat="46.2642" lon="6.27385">
        <ele>452.79998779297</ele>
        <time>2020-02-23T13:00:52Z</time>
      </trkpt>
      <trkpt lat="46.26413" lon="6.27374">
        <ele>452.79998779297</ele>
        <time>2020-02-23T13:00:56Z</time>
      </trkpt>
      <trkpt lat="46.26411" lon="6.27372">
        <ele>453</ele>
        <time>2020-02-23T13:00:57Z</time>
      </trkpt>
      <trkpt lat="46.26409" lon="6.27369">
        <ele>453</ele>
        <time>2020-02-23T13:00:58Z</time>
      </trkpt>
      <trkpt lat="46.264" lon="6.27355">
        <ele>452.79998779297</ele>
        <time>2020-02-23T13:01:02Z</time>
      </trkpt>
      <trkpt lat="46.26395" lon="6.27344">
        <ele>452.60000610352</ele>
        <time>2020-02-23T13:01:05Z</time>
      </trkpt>
      <trkpt lat="46.26393" lon="6.27341">
        <ele>452.60000610352</ele>
        <time>2020-02-23T13:01:06Z</time>
      </trkpt>
      <trkpt lat="46.26391" lon="6.27337">
        <ele>452.60000610352</ele>
        <time>2020-02-23T13:01:07Z</time>
      </trkpt>
      <trkpt lat="46.26389" lon="6.27334">
        <ele>452.60000610352</ele>
        <time>2020-02-23T13:01:08Z</time>
      </trkpt>
      <trkpt lat="46.26382" lon="6.27314">
        <ele>452.20001220703</ele>
        <time>2020-02-23T13:01:13Z</time>
      </trkpt>
      <trkpt lat="46.26381" lon="6.2731">
        <ele>452.20001220703</ele>
        <time>2020-02-23T13:01:14Z</time>
      </trkpt>
      <trkpt lat="46.2638" lon="6.27306">
        <ele>452</ele>
        <time>2020-02-23T13:01:15Z</time>
      </trkpt>
      <trkpt lat="46.26377" lon="6.27298">
        <ele>452</ele>
        <time>2020-02-23T13:01:17Z</time>
      </trkpt>
      <trkpt lat="46.26374" lon="6.2729">
        <ele>452</ele>
        <time>2020-02-23T13:01:19Z</time>
      </trkpt>
      <trkpt lat="46.26373" lon="6.27286">
        <ele>451.79998779297</ele>
        <time>2020-02-23T13:01:20Z</time>
      </trkpt>
      <trkpt lat="46.26372" lon="6.27282">
        <ele>451.79998779297</ele>
        <time>2020-02-23T13:01:21Z</time>
      </trkpt>
      <trkpt lat="46.26371" lon="6.27278">
        <ele>451.79998779297</ele>
        <time>2020-02-23T13:01:22Z</time>
      </trkpt>
      <trkpt lat="46.2637" lon="6.27275">
        <ele>451.79998779297</ele>
        <time>2020-02-23T13:01:23Z</time>
      </trkpt>
      <trkpt lat="46.26369" lon="6.27271">
        <ele>451.60000610352</ele>
        <time>2020-02-23T13:01:24Z</time>
      </trkpt>
      <trkpt lat="46.26368" lon="6.27267">
        <ele>451.79998779297</ele>
        <time>2020-02-23T13:01:25Z</time>
      </trkpt>
      <trkpt lat="46.26367" lon="6.27263">
        <ele>451.79998779297</ele>
        <time>2020-02-23T13:01:26Z</time>
      </trkpt>
      <trkpt lat="46.26361" lon="6.27239">
        <ele>451.79998779297</ele>
        <time>2020-02-23T13:01:32Z</time>
      </trkpt>
      <trkpt lat="46.2636" lon="6.27235">
        <ele>451.79998779297</ele>
        <time>2020-02-23T13:01:33Z</time>
      </trkpt>
      <trkpt lat="46.26359" lon="6.27231">
        <ele>451.79998779297</ele>
        <time>2020-02-23T13:01:34Z</time>
      </trkpt>
      <trkpt lat="46.26358" lon="6.27227">
        <ele>451.79998779297</ele>
        <time>2020-02-23T13:01:35Z</time>
      </trkpt>
      <trkpt lat="46.26356" lon="6.27223">
        <ele>451.79998779297</ele>
        <time>2020-02-23T13:01:36Z</time>
      </trkpt>
      <trkpt lat="46.26355" lon="6.27219">
        <ele>451.79998779297</ele>
        <time>2020-02-23T13:01:37Z</time>
      </trkpt>
      <trkpt lat="46.26354" lon="6.27215">
        <ele>451.79998779297</ele>
        <time>2020-02-23T13:01:38Z</time>
      </trkpt>
      <trkpt lat="46.26353" lon="6.27211">
        <ele>451.79998779297</ele>
        <time>2020-02-23T13:01:39Z</time>
      </trkpt>
      <trkpt lat="46.26352" lon="6.27208">
        <ele>451.79998779297</ele>
        <time>2020-02-23T13:01:40Z</time>
      </trkpt>
      <trkpt lat="46.2635" lon="6.27204">
        <ele>451.79998779297</ele>
        <time>2020-02-23T13:01:41Z</time>
      </trkpt>
      <trkpt lat="46.26349" lon="6.27201">
        <ele>451.79998779297</ele>
        <time>2020-02-23T13:01:42Z</time>
      </trkpt>
      <trkpt lat="46.26348" lon="6.27197">
        <ele>451.60000610352</ele>
        <time>2020-02-23T13:01:43Z</time>
      </trkpt>
      <trkpt lat="46.26345" lon="6.2719">
        <ele>451.60000610352</ele>
        <time>2020-02-23T13:01:45Z</time>
      </trkpt>
      <trkpt lat="46.26334" lon="6.27164">
        <ele>451.60000610352</ele>
        <time>2020-02-23T13:01:52Z</time>
      </trkpt>
      <trkpt lat="46.26332" lon="6.27161">
        <ele>451.39999389648</ele>
        <time>2020-02-23T13:01:53Z</time>
      </trkpt>
      <trkpt lat="46.26331" lon="6.27158">
        <ele>451.39999389648</ele>
        <time>2020-02-23T13:01:54Z</time>
      </trkpt>
      <trkpt lat="46.26329" lon="6.27155">
        <ele>451.39999389648</ele>
        <time>2020-02-23T13:01:55Z</time>
      </trkpt>
      <trkpt lat="46.26328" lon="6.27152">
        <ele>451.20001220703</ele>
        <time>2020-02-23T13:01:56Z</time>
      </trkpt>
      <trkpt lat="46.26326" lon="6.2715">
        <ele>451.39999389648</ele>
        <time>2020-02-23T13:01:57Z</time>
      </trkpt>
      <trkpt lat="46.26325" lon="6.27148">
        <ele>451.39999389648</ele>
        <time>2020-02-23T13:01:58Z</time>
      </trkpt>
      <trkpt lat="46.26323" lon="6.27146">
        <ele>451.20001220703</ele>
        <time>2020-02-23T13:01:59Z</time>
      </trkpt>
      <trkpt lat="46.26304" lon="6.27128">
        <ele>451.39999389648</ele>
        <time>2020-02-23T13:02:06Z</time>
      </trkpt>
      <trkpt lat="46.26302" lon="6.27125">
        <ele>451.39999389648</ele>
        <time>2020-02-23T13:02:07Z</time>
      </trkpt>
      <trkpt lat="46.263" lon="6.27122">
        <ele>451.39999389648</ele>
        <time>2020-02-23T13:02:08Z</time>
      </trkpt>
      <trkpt lat="46.26298" lon="6.27119">
        <ele>451.20001220703</ele>
        <time>2020-02-23T13:02:09Z</time>
      </trkpt>
      <trkpt lat="46.26296" lon="6.27116">
        <ele>451.20001220703</ele>
        <time>2020-02-23T13:02:10Z</time>
      </trkpt>
      <trkpt lat="46.26294" lon="6.27113">
        <ele>450.79998779297</ele>
        <time>2020-02-23T13:02:11Z</time>
      </trkpt>
      <trkpt lat="46.26293" lon="6.2711">
        <ele>451</ele>
        <time>2020-02-23T13:02:12Z</time>
      </trkpt>
      <trkpt lat="46.26291" lon="6.27101">
        <ele>450.60000610352</ele>
        <time>2020-02-23T13:02:14Z</time>
      </trkpt>
      <trkpt lat="46.26288" lon="6.27087">
        <ele>450.39999389648</ele>
        <time>2020-02-23T13:02:17Z</time>
      </trkpt>
      <trkpt lat="46.26287" lon="6.27082">
        <ele>450.39999389648</ele>
        <time>2020-02-23T13:02:18Z</time>
      </trkpt>
      <trkpt lat="46.26286" lon="6.27071">
        <ele>450.39999389648</ele>
        <time>2020-02-23T13:02:20Z</time>
      </trkpt>
      <trkpt lat="46.26285" lon="6.27061">
        <ele>450.20001220703</ele>
        <time>2020-02-23T13:02:22Z</time>
      </trkpt>
      <trkpt lat="46.26284" lon="6.27056">
        <ele>450.20001220703</ele>
        <time>2020-02-23T13:02:23Z</time>
      </trkpt>
      <trkpt lat="46.26283" lon="6.27052">
        <ele>450.39999389648</ele>
        <time>2020-02-23T13:02:24Z</time>
      </trkpt>
      <trkpt lat="46.26283" lon="6.27047">
        <ele>450.39999389648</ele>
        <time>2020-02-23T13:02:25Z</time>
      </trkpt>
      <trkpt lat="46.26282" lon="6.27042">
        <ele>450.39999389648</ele>
        <time>2020-02-23T13:02:26Z</time>
      </trkpt>
      <trkpt lat="46.26281" lon="6.27037">
        <ele>450.39999389648</ele>
        <time>2020-02-23T13:02:27Z</time>
      </trkpt>
      <trkpt lat="46.2628" lon="6.27033">
        <ele>450.60000610352</ele>
        <time>2020-02-23T13:02:28Z</time>
      </trkpt>
      <trkpt lat="46.26279" lon="6.27028">
        <ele>450.39999389648</ele>
        <time>2020-02-23T13:02:29Z</time>
      </trkpt>
      <trkpt lat="46.26273" lon="6.27005">
        <ele>450.39999389648</ele>
        <time>2020-02-23T13:02:34Z</time>
      </trkpt>
      <trkpt lat="46.26272" lon="6.27001">
        <ele>450.39999389648</ele>
        <time>2020-02-23T13:02:35Z</time>
      </trkpt>
      <trkpt lat="46.26271" lon="6.26997">
        <ele>450.39999389648</ele>
        <time>2020-02-23T13:02:36Z</time>
      </trkpt>
      <trkpt lat="46.26267" lon="6.26988">
        <ele>450.39999389648</ele>
        <time>2020-02-23T13:02:38Z</time>
      </trkpt>
      <trkpt lat="46.26262" lon="6.26981">
        <ele>450.39999389648</ele>
        <time>2020-02-23T13:02:40Z</time>
      </trkpt>
      <trkpt lat="46.26259" lon="6.26978">
        <ele>450.20001220703</ele>
        <time>2020-02-23T13:02:41Z</time>
      </trkpt>
      <trkpt lat="46.26257" lon="6.26975">
        <ele>450.20001220703</ele>
        <time>2020-02-23T13:02:42Z</time>
      </trkpt>
      <trkpt lat="46.26255" lon="6.26972">
        <ele>450.20001220703</ele>
        <time>2020-02-23T13:02:43Z</time>
      </trkpt>
      <trkpt lat="46.26249" lon="6.26966">
        <ele>450</ele>
        <time>2020-02-23T13:02:45Z</time>
      </trkpt>
      <trkpt lat="46.26247" lon="6.26963">
        <ele>450.20001220703</ele>
        <time>2020-02-23T13:02:46Z</time>
      </trkpt>
      <trkpt lat="46.26235" lon="6.26952">
        <ele>450.20001220703</ele>
        <time>2020-02-23T13:02:50Z</time>
      </trkpt>
      <trkpt lat="46.26229" lon="6.26946">
        <ele>450</ele>
        <time>2020-02-23T13:02:52Z</time>
      </trkpt>
      <trkpt lat="46.26226" lon="6.26943">
        <ele>450</ele>
        <time>2020-02-23T13:02:53Z</time>
      </trkpt>
      <trkpt lat="46.26225" lon="6.26939">
        <ele>450</ele>
        <time>2020-02-23T13:02:54Z</time>
      </trkpt>
      <trkpt lat="46.26224" lon="6.26935">
        <ele>450</ele>
        <time>2020-02-23T13:02:55Z</time>
      </trkpt>
      <trkpt lat="46.26224" lon="6.26931">
        <ele>450</ele>
        <time>2020-02-23T13:02:56Z</time>
      </trkpt>
      <trkpt lat="46.26225" lon="6.26927">
        <ele>450</ele>
        <time>2020-02-23T13:02:57Z</time>
      </trkpt>
      <trkpt lat="46.26227" lon="6.26923">
        <ele>450</ele>
        <time>2020-02-23T13:02:58Z</time>
      </trkpt>
      <trkpt lat="46.26228" lon="6.26919">
        <ele>450</ele>
        <time>2020-02-23T13:02:59Z</time>
      </trkpt>
      <trkpt lat="46.26236" lon="6.26895">
        <ele>450</ele>
        <time>2020-02-23T13:03:04Z</time>
      </trkpt>
      <trkpt lat="46.26237" lon="6.2689">
        <ele>449.79998779297</ele>
        <time>2020-02-23T13:03:05Z</time>
      </trkpt>
      <trkpt lat="46.26238" lon="6.26885">
        <ele>449.79998779297</ele>
        <time>2020-02-23T13:03:06Z</time>
      </trkpt>
      <trkpt lat="46.26238" lon="6.26881">
        <ele>449.60000610352</ele>
        <time>2020-02-23T13:03:07Z</time>
      </trkpt>
      <trkpt lat="46.26237" lon="6.26876">
        <ele>449.79998779297</ele>
        <time>2020-02-23T13:03:08Z</time>
      </trkpt>
      <trkpt lat="46.26236" lon="6.26873">
        <ele>449.79998779297</ele>
        <time>2020-02-23T13:03:09Z</time>
      </trkpt>
      <trkpt lat="46.26235" lon="6.26869">
        <ele>449.60000610352</ele>
        <time>2020-02-23T13:03:10Z</time>
      </trkpt>
      <trkpt lat="46.26235" lon="6.26866">
        <ele>449.60000610352</ele>
        <time>2020-02-23T13:03:11Z</time>
      </trkpt>
      <trkpt lat="46.26234" lon="6.26863">
        <ele>449.60000610352</ele>
        <time>2020-02-23T13:03:12Z</time>
      </trkpt>
      <trkpt lat="46.26233" lon="6.26861">
        <ele>449.60000610352</ele>
        <time>2020-02-23T13:03:13Z</time>
      </trkpt>
      <trkpt lat="46.26232" lon="6.26859">
        <ele>449.60000610352</ele>
        <time>2020-02-23T13:03:14Z</time>
      </trkpt>
      <trkpt lat="46.2623" lon="6.26858">
        <ele>449.60000610352</ele>
        <time>2020-02-23T13:03:15Z</time>
      </trkpt>
      <trkpt lat="46.26229" lon="6.26857">
        <ele>449.60000610352</ele>
        <time>2020-02-23T13:03:16Z</time>
      </trkpt>
      <trkpt lat="46.26229" lon="6.26857">
        <ele>449.60000610352</ele>
        <time>2020-02-23T13:03:17Z</time>
      </trkpt>
      <trkpt lat="46.26229" lon="6.26857">
        <ele>449.60000610352</ele>
        <time>2020-02-23T13:03:24Z</time>
      </trkpt>
      <trkpt lat="46.26229" lon="6.26857">
        <ele>449.60000610352</ele>
        <time>2020-02-23T13:03:42Z</time>
      </trkpt>
      <trkpt lat="46.26228" lon="6.26857">
        <ele>449.79998779297</ele>
        <time>2020-02-23T13:03:44Z</time>
      </trkpt>
      <trkpt lat="46.26228" lon="6.26857">
        <ele>449.60000610352</ele>
        <time>2020-02-23T13:03:45Z</time>
      </trkpt>
      <trkpt lat="46.26228" lon="6.26857">
        <ele>449.60000610352</ele>
        <time>2020-02-23T13:03:49Z</time>
      </trkpt>
      <trkpt lat="46.26228" lon="6.26858">
        <ele>449.39999389648</ele>
        <time>2020-02-23T13:05:38Z</time>
      </trkpt>
      <trkpt lat="46.26227" lon="6.26857">
        <ele>449.39999389648</ele>
        <time>2020-02-23T13:05:39Z</time>
      </trkpt>
      <trkpt lat="46.26226" lon="6.26856">
        <ele>449.39999389648</ele>
        <time>2020-02-23T13:05:40Z</time>
      </trkpt>
      <trkpt lat="46.26225" lon="6.26855">
        <ele>449.60000610352</ele>
        <time>2020-02-23T13:05:41Z</time>
      </trkpt>
      <trkpt lat="46.26225" lon="6.26854">
        <ele>449.60000610352</ele>
        <time>2020-02-23T13:05:42Z</time>
      </trkpt>
      <trkpt lat="46.26224" lon="6.26853">
        <ele>449.60000610352</ele>
        <time>2020-02-23T13:05:43Z</time>
      </trkpt>
      <trkpt lat="46.26223" lon="6.26853">
        <ele>449.60000610352</ele>
        <time>2020-02-23T13:05:44Z</time>
      </trkpt>
      <trkpt lat="46.26223" lon="6.26853">
        <ele>449.60000610352</ele>
        <time>2020-02-23T13:05:46Z</time>
      </trkpt>
      <trkpt lat="46.26223" lon="6.26853">
        <ele>450</ele>
        <time>2020-02-23T13:05:50Z</time>
      </trkpt>
      <trkpt lat="46.26223" lon="6.26853">
        <ele>450.20001220703</ele>
        <time>2020-02-23T13:05:55Z</time>
      </trkpt>
      <trkpt lat="46.26223" lon="6.26853">
        <ele>450.20001220703</ele>
        <time>2020-02-23T13:05:56Z</time>
      </trkpt>
      <trkpt lat="46.26223" lon="6.26853">
        <ele>450.20001220703</ele>
        <time>2020-02-23T13:05:57Z</time>
      </trkpt>
      <trkpt lat="46.26223" lon="6.26853">
        <ele>450.39999389648</ele>
        <time>2020-02-23T13:05:58Z</time>
      </trkpt>
      <trkpt lat="46.26223" lon="6.26853">
        <ele>450.39999389648</ele>
        <time>2020-02-23T13:06:00Z</time>
      </trkpt>
      <trkpt lat="46.26223" lon="6.26853">
        <ele>450.39999389648</ele>
        <time>2020-02-23T13:06:12Z</time>
      </trkpt>
      <trkpt lat="46.26223" lon="6.26852">
        <ele>450.60000610352</ele>
        <time>2020-02-23T13:06:24Z</time>
      </trkpt>
      <trkpt lat="46.26223" lon="6.26852">
        <ele>450.60000610352</ele>
        <time>2020-02-23T13:06:27Z</time>
      </trkpt>
      <trkpt lat="46.26222" lon="6.26851">
        <ele>450.60000610352</ele>
        <time>2020-02-23T13:06:28Z</time>
      </trkpt>
      <trkpt lat="46.2622" lon="6.26849">
        <ele>450.79998779297</ele>
        <time>2020-02-23T13:06:29Z</time>
      </trkpt>
      <trkpt lat="46.26219" lon="6.26848">
        <ele>450.60000610352</ele>
        <time>2020-02-23T13:06:30Z</time>
      </trkpt>
      <trkpt lat="46.26215" lon="6.26844">
        <ele>450.60000610352</ele>
        <time>2020-02-23T13:06:32Z</time>
      </trkpt>
      <trkpt lat="46.26207" lon="6.26836">
        <ele>450.60000610352</ele>
        <time>2020-02-23T13:06:35Z</time>
      </trkpt>
      <trkpt lat="46.26199" lon="6.26827">
        <ele>450.39999389648</ele>
        <time>2020-02-23T13:06:38Z</time>
      </trkpt>
      <trkpt lat="46.26197" lon="6.26825">
        <ele>450.39999389648</ele>
        <time>2020-02-23T13:06:39Z</time>
      </trkpt>
      <trkpt lat="46.26194" lon="6.26822">
        <ele>450.20001220703</ele>
        <time>2020-02-23T13:06:40Z</time>
      </trkpt>
      <trkpt lat="46.26192" lon="6.26819">
        <ele>450</ele>
        <time>2020-02-23T13:06:41Z</time>
      </trkpt>
      <trkpt lat="46.2619" lon="6.26817">
        <ele>450</ele>
        <time>2020-02-23T13:06:42Z</time>
      </trkpt>
      <trkpt lat="46.26188" lon="6.26814">
        <ele>449.79998779297</ele>
        <time>2020-02-23T13:06:43Z</time>
      </trkpt>
      <trkpt lat="46.26186" lon="6.26811">
        <ele>450</ele>
        <time>2020-02-23T13:06:44Z</time>
      </trkpt>
      <trkpt lat="46.26184" lon="6.26808">
        <ele>450</ele>
        <time>2020-02-23T13:06:45Z</time>
      </trkpt>
      <trkpt lat="46.26183" lon="6.26806">
        <ele>449.79998779297</ele>
        <time>2020-02-23T13:06:46Z</time>
      </trkpt>
      <trkpt lat="46.26181" lon="6.26803">
        <ele>449.79998779297</ele>
        <time>2020-02-23T13:06:47Z</time>
      </trkpt>
      <trkpt lat="46.26179" lon="6.26799">
        <ele>449.79998779297</ele>
        <time>2020-02-23T13:06:48Z</time>
      </trkpt>
      <trkpt lat="46.26177" lon="6.26796">
        <ele>449.60000610352</ele>
        <time>2020-02-23T13:06:49Z</time>
      </trkpt>
      <trkpt lat="46.26175" lon="6.26793">
        <ele>449.60000610352</ele>
        <time>2020-02-23T13:06:50Z</time>
      </trkpt>
      <trkpt lat="46.26169" lon="6.26782">
        <ele>449.79998779297</ele>
        <time>2020-02-23T13:06:53Z</time>
      </trkpt>
      <trkpt lat="46.26164" lon="6.26776">
        <ele>450.20001220703</ele>
        <time>2020-02-23T13:06:55Z</time>
      </trkpt>
      <trkpt lat="46.26162" lon="6.26773">
        <ele>450</ele>
        <time>2020-02-23T13:06:56Z</time>
      </trkpt>
      <trkpt lat="46.26159" lon="6.2677">
        <ele>450</ele>
        <time>2020-02-23T13:06:57Z</time>
      </trkpt>
      <trkpt lat="46.26157" lon="6.26768">
        <ele>450.20001220703</ele>
        <time>2020-02-23T13:06:58Z</time>
      </trkpt>
      <trkpt lat="46.26155" lon="6.26765">
        <ele>450.20001220703</ele>
        <time>2020-02-23T13:06:59Z</time>
      </trkpt>
      <trkpt lat="46.26153" lon="6.26764">
        <ele>450.20001220703</ele>
        <time>2020-02-23T13:07:00Z</time>
      </trkpt>
      <trkpt lat="46.26146" lon="6.26757">
        <ele>450.39999389648</ele>
        <time>2020-02-23T13:07:03Z</time>
      </trkpt>
      <trkpt lat="46.26144" lon="6.26755">
        <ele>450.20001220703</ele>
        <time>2020-02-23T13:07:04Z</time>
      </trkpt>
      <trkpt lat="46.26142" lon="6.26753">
        <ele>450.39999389648</ele>
        <time>2020-02-23T13:07:05Z</time>
      </trkpt>
      <trkpt lat="46.26139" lon="6.26751">
        <ele>450.39999389648</ele>
        <time>2020-02-23T13:07:06Z</time>
      </trkpt>
      <trkpt lat="46.26137" lon="6.26749">
        <ele>450.39999389648</ele>
        <time>2020-02-23T13:07:07Z</time>
      </trkpt>
      <trkpt lat="46.26134" lon="6.26747">
        <ele>450.60000610352</ele>
        <time>2020-02-23T13:07:08Z</time>
      </trkpt>
      <trkpt lat="46.26121" lon="6.26735">
        <ele>450.60000610352</ele>
        <time>2020-02-23T13:07:13Z</time>
      </trkpt>
      <trkpt lat="46.26119" lon="6.26733">
        <ele>450.79998779297</ele>
        <time>2020-02-23T13:07:14Z</time>
      </trkpt>
      <trkpt lat="46.26116" lon="6.2673">
        <ele>450.79998779297</ele>
        <time>2020-02-23T13:07:15Z</time>
      </trkpt>
      <trkpt lat="46.26113" lon="6.26728">
        <ele>450.79998779297</ele>
        <time>2020-02-23T13:07:16Z</time>
      </trkpt>
      <trkpt lat="46.26111" lon="6.26726">
        <ele>450.79998779297</ele>
        <time>2020-02-23T13:07:17Z</time>
      </trkpt>
      <trkpt lat="46.26108" lon="6.26724">
        <ele>450.79998779297</ele>
        <time>2020-02-23T13:07:18Z</time>
      </trkpt>
      <trkpt lat="46.26106" lon="6.26722">
        <ele>450.79998779297</ele>
        <time>2020-02-23T13:07:19Z</time>
      </trkpt>
      <trkpt lat="46.26103" lon="6.26719">
        <ele>451</ele>
        <time>2020-02-23T13:07:20Z</time>
      </trkpt>
      <trkpt lat="46.26098" lon="6.26714">
        <ele>451.20001220703</ele>
        <time>2020-02-23T13:07:22Z</time>
      </trkpt>
      <trkpt lat="46.26095" lon="6.26712">
        <ele>451.20001220703</ele>
        <time>2020-02-23T13:07:23Z</time>
      </trkpt>
      <trkpt lat="46.26093" lon="6.2671">
        <ele>451.20001220703</ele>
        <time>2020-02-23T13:07:24Z</time>
      </trkpt>
      <trkpt lat="46.2609" lon="6.26708">
        <ele>451.20001220703</ele>
        <time>2020-02-23T13:07:25Z</time>
      </trkpt>
      <trkpt lat="46.26087" lon="6.26706">
        <ele>451.20001220703</ele>
        <time>2020-02-23T13:07:26Z</time>
      </trkpt>
      <trkpt lat="46.26085" lon="6.26704">
        <ele>451.39999389648</ele>
        <time>2020-02-23T13:07:27Z</time>
      </trkpt>
      <trkpt lat="46.26083" lon="6.26702">
        <ele>451.39999389648</ele>
        <time>2020-02-23T13:07:28Z</time>
      </trkpt>
      <trkpt lat="46.26082" lon="6.267">
        <ele>451.39999389648</ele>
        <time>2020-02-23T13:07:29Z</time>
      </trkpt>
      <trkpt lat="46.26081" lon="6.26699">
        <ele>451.39999389648</ele>
        <time>2020-02-23T13:07:30Z</time>
      </trkpt>
      <trkpt lat="46.26079" lon="6.26697">
        <ele>451.60000610352</ele>
        <time>2020-02-23T13:07:31Z</time>
      </trkpt>
      <trkpt lat="46.26077" lon="6.26697">
        <ele>451.60000610352</ele>
        <time>2020-02-23T13:07:32Z</time>
      </trkpt>
      <trkpt lat="46.26075" lon="6.26696">
        <ele>451.79998779297</ele>
        <time>2020-02-23T13:07:33Z</time>
      </trkpt>
      <trkpt lat="46.26074" lon="6.26694">
        <ele>451.79998779297</ele>
        <time>2020-02-23T13:07:34Z</time>
      </trkpt>
      <trkpt lat="46.26072" lon="6.26692">
        <ele>452</ele>
        <time>2020-02-23T13:07:35Z</time>
      </trkpt>
      <trkpt lat="46.26067" lon="6.26688">
        <ele>452.20001220703</ele>
        <time>2020-02-23T13:07:37Z</time>
      </trkpt>
      <trkpt lat="46.2606" lon="6.26681">
        <ele>452.60000610352</ele>
        <time>2020-02-23T13:07:40Z</time>
      </trkpt>
      <trkpt lat="46.26055" lon="6.26675">
        <ele>452.39999389648</ele>
        <time>2020-02-23T13:07:42Z</time>
      </trkpt>
      <trkpt lat="46.26052" lon="6.26672">
        <ele>452.60000610352</ele>
        <time>2020-02-23T13:07:43Z</time>
      </trkpt>
      <trkpt lat="46.2605" lon="6.2667">
        <ele>452.60000610352</ele>
        <time>2020-02-23T13:07:44Z</time>
      </trkpt>
      <trkpt lat="46.26047" lon="6.26667">
        <ele>452.60000610352</ele>
        <time>2020-02-23T13:07:45Z</time>
      </trkpt>
      <trkpt lat="46.26045" lon="6.26665">
        <ele>452.60000610352</ele>
        <time>2020-02-23T13:07:46Z</time>
      </trkpt>
      <trkpt lat="46.26042" lon="6.26662">
        <ele>452.79998779297</ele>
        <time>2020-02-23T13:07:47Z</time>
      </trkpt>
      <trkpt lat="46.2604" lon="6.26659">
        <ele>452.79998779297</ele>
        <time>2020-02-23T13:07:48Z</time>
      </trkpt>
      <trkpt lat="46.26038" lon="6.26656">
        <ele>452.79998779297</ele>
        <time>2020-02-23T13:07:49Z</time>
      </trkpt>
      <trkpt lat="46.26037" lon="6.26653">
        <ele>452.79998779297</ele>
        <time>2020-02-23T13:07:50Z</time>
      </trkpt>
      <trkpt lat="46.26035" lon="6.26649">
        <ele>452.79998779297</ele>
        <time>2020-02-23T13:07:51Z</time>
      </trkpt>
      <trkpt lat="46.26033" lon="6.26645">
        <ele>452.79998779297</ele>
        <time>2020-02-23T13:07:52Z</time>
      </trkpt>
      <trkpt lat="46.26031" lon="6.26642">
        <ele>452.79998779297</ele>
        <time>2020-02-23T13:07:53Z</time>
      </trkpt>
      <trkpt lat="46.26029" lon="6.26637">
        <ele>453</ele>
        <time>2020-02-23T13:07:54Z</time>
      </trkpt>
      <trkpt lat="46.26026" lon="6.26633">
        <ele>453</ele>
        <time>2020-02-23T13:07:55Z</time>
      </trkpt>
      <trkpt lat="46.26021" lon="6.26623">
        <ele>453</ele>
        <time>2020-02-23T13:07:57Z</time>
      </trkpt>
      <trkpt lat="46.26019" lon="6.26617">
        <ele>453</ele>
        <time>2020-02-23T13:07:58Z</time>
      </trkpt>
      <trkpt lat="46.26014" lon="6.26607">
        <ele>453.20001220703</ele>
        <time>2020-02-23T13:08:00Z</time>
      </trkpt>
      <trkpt lat="46.26011" lon="6.26603">
        <ele>453.20001220703</ele>
        <time>2020-02-23T13:08:01Z</time>
      </trkpt>
      <trkpt lat="46.26008" lon="6.26598">
        <ele>453.20001220703</ele>
        <time>2020-02-23T13:08:02Z</time>
      </trkpt>
      <trkpt lat="46.26005" lon="6.26594">
        <ele>453.20001220703</ele>
        <time>2020-02-23T13:08:03Z</time>
      </trkpt>
      <trkpt lat="46.26002" lon="6.2659">
        <ele>453</ele>
        <time>2020-02-23T13:08:04Z</time>
      </trkpt>
      <trkpt lat="46.25999" lon="6.26587">
        <ele>453</ele>
        <time>2020-02-23T13:08:05Z</time>
      </trkpt>
      <trkpt lat="46.25996" lon="6.26584">
        <ele>453</ele>
        <time>2020-02-23T13:08:06Z</time>
      </trkpt>
      <trkpt lat="46.25992" lon="6.26581">
        <ele>452.79998779297</ele>
        <time>2020-02-23T13:08:07Z</time>
      </trkpt>
      <trkpt lat="46.25989" lon="6.26578">
        <ele>452.60000610352</ele>
        <time>2020-02-23T13:08:08Z</time>
      </trkpt>
      <trkpt lat="46.25986" lon="6.26575">
        <ele>452.39999389648</ele>
        <time>2020-02-23T13:08:09Z</time>
      </trkpt>
      <trkpt lat="46.25982" lon="6.26573">
        <ele>452.39999389648</ele>
        <time>2020-02-23T13:08:10Z</time>
      </trkpt>
      <trkpt lat="46.25979" lon="6.26571">
        <ele>452.39999389648</ele>
        <time>2020-02-23T13:08:11Z</time>
      </trkpt>
      <trkpt lat="46.25976" lon="6.2657">
        <ele>452.39999389648</ele>
        <time>2020-02-23T13:08:12Z</time>
      </trkpt>
      <trkpt lat="46.25973" lon="6.2657">
        <ele>452.39999389648</ele>
        <time>2020-02-23T13:08:13Z</time>
      </trkpt>
      <trkpt lat="46.25972" lon="6.2657">
        <ele>452.39999389648</ele>
        <time>2020-02-23T13:08:14Z</time>
      </trkpt>
      <trkpt lat="46.25972" lon="6.26572">
        <ele>452.20001220703</ele>
        <time>2020-02-23T13:08:15Z</time>
      </trkpt>
      <trkpt lat="46.25973" lon="6.26573">
        <ele>452.39999389648</ele>
        <time>2020-02-23T13:08:16Z</time>
      </trkpt>
      <trkpt lat="46.25973" lon="6.26573">
        <ele>452.39999389648</ele>
        <time>2020-02-23T13:08:17Z</time>
      </trkpt>
      <trkpt lat="46.25973" lon="6.26573">
        <ele>452.39999389648</ele>
        <time>2020-02-23T13:08:18Z</time>
      </trkpt>
      <trkpt lat="46.25973" lon="6.26573">
        <ele>453.20001220703</ele>
        <time>2020-02-23T13:08:32Z</time>
      </trkpt>
      <trkpt lat="46.25973" lon="6.26573">
        <ele>452.79998779297</ele>
        <time>2020-02-23T13:08:53Z</time>
      </trkpt>
      <trkpt lat="46.25972" lon="6.26573">
        <ele>453.39999389648</ele>
        <time>2020-02-23T13:09:19Z</time>
      </trkpt>
      <trkpt lat="46.25972" lon="6.26573">
        <ele>453.60000610352</ele>
        <time>2020-02-23T13:09:23Z</time>
      </trkpt>
      <trkpt lat="46.25972" lon="6.26573">
        <ele>453.60000610352</ele>
        <time>2020-02-23T13:09:26Z</time>
      </trkpt>
      <trkpt lat="46.25972" lon="6.26574">
        <ele>453.60000610352</ele>
        <time>2020-02-23T13:09:37Z</time>
      </trkpt>
      <trkpt lat="46.25972" lon="6.26574">
        <ele>453.60000610352</ele>
        <time>2020-02-23T13:09:39Z</time>
      </trkpt>
      <trkpt lat="46.25972" lon="6.26574">
        <ele>453.79998779297</ele>
        <time>2020-02-23T13:09:49Z</time>
      </trkpt>
      <trkpt lat="46.25972" lon="6.26574">
        <ele>453.60000610352</ele>
        <time>2020-02-23T13:10:07Z</time>
      </trkpt>
      <trkpt lat="46.25973" lon="6.26574">
        <ele>453.60000610352</ele>
        <time>2020-02-23T13:10:30Z</time>
      </trkpt>
      <trkpt lat="46.25973" lon="6.26574">
        <ele>454</ele>
        <time>2020-02-23T13:10:49Z</time>
      </trkpt>
      <trkpt lat="46.25973" lon="6.26574">
        <ele>454.20001220703</ele>
        <time>2020-02-23T13:10:50Z</time>
      </trkpt>
      <trkpt lat="46.25974" lon="6.26574">
        <ele>454.39999389648</ele>
        <time>2020-02-23T13:11:09Z</time>
      </trkpt>
      <trkpt lat="46.25974" lon="6.26574">
        <ele>454.39999389648</ele>
        <time>2020-02-23T13:11:10Z</time>
      </trkpt>
      <trkpt lat="46.25974" lon="6.26574">
        <ele>454.39999389648</ele>
        <time>2020-02-23T13:11:24Z</time>
      </trkpt>
      <trkpt lat="46.25974" lon="6.26574">
        <ele>454.20001220703</ele>
        <time>2020-02-23T13:11:26Z</time>
      </trkpt>
      <trkpt lat="46.25973" lon="6.26575">
        <ele>454.39999389648</ele>
        <time>2020-02-23T13:11:38Z</time>
      </trkpt>
      <trkpt lat="46.25972" lon="6.26576">
        <ele>454.39999389648</ele>
        <time>2020-02-23T13:11:39Z</time>
      </trkpt>
      <trkpt lat="46.25972" lon="6.26576">
        <ele>454.39999389648</ele>
        <time>2020-02-23T13:11:40Z</time>
      </trkpt>
      <trkpt lat="46.25971" lon="6.26576">
        <ele>454.39999389648</ele>
        <time>2020-02-23T13:11:41Z</time>
      </trkpt>
      <trkpt lat="46.2597" lon="6.26575">
        <ele>454.39999389648</ele>
        <time>2020-02-23T13:11:44Z</time>
      </trkpt>
      <trkpt lat="46.25967" lon="6.26573">
        <ele>454.39999389648</ele>
        <time>2020-02-23T13:11:46Z</time>
      </trkpt>
      <trkpt lat="46.25966" lon="6.2657">
        <ele>454.39999389648</ele>
        <time>2020-02-23T13:11:47Z</time>
      </trkpt>
      <trkpt lat="46.25965" lon="6.26566">
        <ele>454.39999389648</ele>
        <time>2020-02-23T13:11:48Z</time>
      </trkpt>
      <trkpt lat="46.25962" lon="6.26558">
        <ele>454.39999389648</ele>
        <time>2020-02-23T13:11:50Z</time>
      </trkpt>
      <trkpt lat="46.2596" lon="6.26555">
        <ele>454.20001220703</ele>
        <time>2020-02-23T13:11:51Z</time>
      </trkpt>
      <trkpt lat="46.25958" lon="6.26546">
        <ele>454.20001220703</ele>
        <time>2020-02-23T13:11:53Z</time>
      </trkpt>
      <trkpt lat="46.25958" lon="6.26541">
        <ele>454.20001220703</ele>
        <time>2020-02-23T13:11:54Z</time>
      </trkpt>
      <trkpt lat="46.25959" lon="6.26536">
        <ele>454.20001220703</ele>
        <time>2020-02-23T13:11:55Z</time>
      </trkpt>
      <trkpt lat="46.25961" lon="6.2652">
        <ele>454</ele>
        <time>2020-02-23T13:11:58Z</time>
      </trkpt>
      <trkpt lat="46.25964" lon="6.26508">
        <ele>454</ele>
        <time>2020-02-23T13:12:00Z</time>
      </trkpt>
      <trkpt lat="46.25965" lon="6.26501">
        <ele>453.79998779297</ele>
        <time>2020-02-23T13:12:01Z</time>
      </trkpt>
      <trkpt lat="46.25967" lon="6.26488">
        <ele>453.60000610352</ele>
        <time>2020-02-23T13:12:03Z</time>
      </trkpt>
      <trkpt lat="46.25968" lon="6.26482">
        <ele>453.60000610352</ele>
        <time>2020-02-23T13:12:04Z</time>
      </trkpt>
      <trkpt lat="46.25969" lon="6.26476">
        <ele>453.39999389648</ele>
        <time>2020-02-23T13:12:05Z</time>
      </trkpt>
      <trkpt lat="46.2597" lon="6.2647">
        <ele>453.39999389648</ele>
        <time>2020-02-23T13:12:06Z</time>
      </trkpt>
      <trkpt lat="46.25971" lon="6.26466">
        <ele>453.20001220703</ele>
        <time>2020-02-23T13:12:07Z</time>
      </trkpt>
      <trkpt lat="46.25972" lon="6.26462">
        <ele>453</ele>
        <time>2020-02-23T13:12:08Z</time>
      </trkpt>
      <trkpt lat="46.25972" lon="6.26459">
        <ele>453</ele>
        <time>2020-02-23T13:12:09Z</time>
      </trkpt>
      <trkpt lat="46.25972" lon="6.26456">
        <ele>453</ele>
        <time>2020-02-23T13:12:10Z</time>
      </trkpt>
      <trkpt lat="46.25972" lon="6.26454">
        <ele>453</ele>
        <time>2020-02-23T13:12:11Z</time>
      </trkpt>
      <trkpt lat="46.2597" lon="6.26451">
        <ele>453</ele>
        <time>2020-02-23T13:12:12Z</time>
      </trkpt>
      <trkpt lat="46.25968" lon="6.26449">
        <ele>452.79998779297</ele>
        <time>2020-02-23T13:12:13Z</time>
      </trkpt>
      <trkpt lat="46.25966" lon="6.26446">
        <ele>452.79998779297</ele>
        <time>2020-02-23T13:12:14Z</time>
      </trkpt>
      <trkpt lat="46.25963" lon="6.26443">
        <ele>452.79998779297</ele>
        <time>2020-02-23T13:12:15Z</time>
      </trkpt>
      <trkpt lat="46.25951" lon="6.26434">
        <ele>452.60000610352</ele>
        <time>2020-02-23T13:12:19Z</time>
      </trkpt>
      <trkpt lat="46.25948" lon="6.26431">
        <ele>452.60000610352</ele>
        <time>2020-02-23T13:12:20Z</time>
      </trkpt>
      <trkpt lat="46.25946" lon="6.26429">
        <ele>452.60000610352</ele>
        <time>2020-02-23T13:12:21Z</time>
      </trkpt>
      <trkpt lat="46.25943" lon="6.26427">
        <ele>452.79998779297</ele>
        <time>2020-02-23T13:12:22Z</time>
      </trkpt>
      <trkpt lat="46.2594" lon="6.26425">
        <ele>452.60000610352</ele>
        <time>2020-02-23T13:12:23Z</time>
      </trkpt>
      <trkpt lat="46.25938" lon="6.26422">
        <ele>452.60000610352</ele>
        <time>2020-02-23T13:12:24Z</time>
      </trkpt>
      <trkpt lat="46.25935" lon="6.2642">
        <ele>452.60000610352</ele>
        <time>2020-02-23T13:12:25Z</time>
      </trkpt>
      <trkpt lat="46.25932" lon="6.26418">
        <ele>452.79998779297</ele>
        <time>2020-02-23T13:12:26Z</time>
      </trkpt>
      <trkpt lat="46.25926" lon="6.26414">
        <ele>452.60000610352</ele>
        <time>2020-02-23T13:12:28Z</time>
      </trkpt>
      <trkpt lat="46.25923" lon="6.26412">
        <ele>452.60000610352</ele>
        <time>2020-02-23T13:12:29Z</time>
      </trkpt>
      <trkpt lat="46.2592" lon="6.2641">
        <ele>452.60000610352</ele>
        <time>2020-02-23T13:12:30Z</time>
      </trkpt>
      <trkpt lat="46.25918" lon="6.26407">
        <ele>452.60000610352</ele>
        <time>2020-02-23T13:12:31Z</time>
      </trkpt>
      <trkpt lat="46.25916" lon="6.26403">
        <ele>452.79998779297</ele>
        <time>2020-02-23T13:12:32Z</time>
      </trkpt>
      <trkpt lat="46.25914" lon="6.264">
        <ele>452.79998779297</ele>
        <time>2020-02-23T13:12:33Z</time>
      </trkpt>
      <trkpt lat="46.25911" lon="6.26398">
        <ele>452.79998779297</ele>
        <time>2020-02-23T13:12:34Z</time>
      </trkpt>
      <trkpt lat="46.25908" lon="6.26398">
        <ele>452.79998779297</ele>
        <time>2020-02-23T13:12:35Z</time>
      </trkpt>
      <trkpt lat="46.25905" lon="6.26399">
        <ele>453.20001220703</ele>
        <time>2020-02-23T13:12:36Z</time>
      </trkpt>
      <trkpt lat="46.25902" lon="6.26401">
        <ele>453.39999389648</ele>
        <time>2020-02-23T13:12:37Z</time>
      </trkpt>
      <trkpt lat="46.25899" lon="6.26403">
        <ele>453.60000610352</ele>
        <time>2020-02-23T13:12:38Z</time>
      </trkpt>
      <trkpt lat="46.25896" lon="6.26403">
        <ele>453.79998779297</ele>
        <time>2020-02-23T13:12:39Z</time>
      </trkpt>
      <trkpt lat="46.25893" lon="6.26404">
        <ele>454</ele>
        <time>2020-02-23T13:12:40Z</time>
      </trkpt>
      <trkpt lat="46.25886" lon="6.26404">
        <ele>454.20001220703</ele>
        <time>2020-02-23T13:12:42Z</time>
      </trkpt>
      <trkpt lat="46.25876" lon="6.26404">
        <ele>454.20001220703</ele>
        <time>2020-02-23T13:12:45Z</time>
      </trkpt>
      <trkpt lat="46.25873" lon="6.26403">
        <ele>454.20001220703</ele>
        <time>2020-02-23T13:12:46Z</time>
      </trkpt>
      <trkpt lat="46.25863" lon="6.26401">
        <ele>454.20001220703</ele>
        <time>2020-02-23T13:12:49Z</time>
      </trkpt>
      <trkpt lat="46.2586" lon="6.26401">
        <ele>454.20001220703</ele>
        <time>2020-02-23T13:12:50Z</time>
      </trkpt>
      <trkpt lat="46.25857" lon="6.26401">
        <ele>454.20001220703</ele>
        <time>2020-02-23T13:12:51Z</time>
      </trkpt>
      <trkpt lat="46.2585" lon="6.26399">
        <ele>454.39999389648</ele>
        <time>2020-02-23T13:12:53Z</time>
      </trkpt>
      <trkpt lat="46.25847" lon="6.26398">
        <ele>454.20001220703</ele>
        <time>2020-02-23T13:12:54Z</time>
      </trkpt>
      <trkpt lat="46.25845" lon="6.26398">
        <ele>454.39999389648</ele>
        <time>2020-02-23T13:12:55Z</time>
      </trkpt>
      <trkpt lat="46.25842" lon="6.26397">
        <ele>454.20001220703</ele>
        <time>2020-02-23T13:12:56Z</time>
      </trkpt>
      <trkpt lat="46.25839" lon="6.26396">
        <ele>454.39999389648</ele>
        <time>2020-02-23T13:12:57Z</time>
      </trkpt>
      <trkpt lat="46.25837" lon="6.26396">
        <ele>454.20001220703</ele>
        <time>2020-02-23T13:12:58Z</time>
      </trkpt>
      <trkpt lat="46.25834" lon="6.26395">
        <ele>454.20001220703</ele>
        <time>2020-02-23T13:12:59Z</time>
      </trkpt>
      <trkpt lat="46.25829" lon="6.26394">
        <ele>454.39999389648</ele>
        <time>2020-02-23T13:13:01Z</time>
      </trkpt>
      <trkpt lat="46.25823" lon="6.26394">
        <ele>454.79998779297</ele>
        <time>2020-02-23T13:13:03Z</time>
      </trkpt>
      <trkpt lat="46.2582" lon="6.26394">
        <ele>455</ele>
        <time>2020-02-23T13:13:04Z</time>
      </trkpt>
      <trkpt lat="46.25818" lon="6.26394">
        <ele>455.20001220703</ele>
        <time>2020-02-23T13:13:05Z</time>
      </trkpt>
      <trkpt lat="46.25816" lon="6.26393">
        <ele>455.20001220703</ele>
        <time>2020-02-23T13:13:06Z</time>
      </trkpt>
      <trkpt lat="46.25813" lon="6.26393">
        <ele>455.20001220703</ele>
        <time>2020-02-23T13:13:07Z</time>
      </trkpt>
      <trkpt lat="46.25811" lon="6.26393">
        <ele>455.39999389648</ele>
        <time>2020-02-23T13:13:08Z</time>
      </trkpt>
      <trkpt lat="46.25805" lon="6.26392">
        <ele>455.39999389648</ele>
        <time>2020-02-23T13:13:10Z</time>
      </trkpt>
      <trkpt lat="46.25799" lon="6.26391">
        <ele>455.20001220703</ele>
        <time>2020-02-23T13:13:12Z</time>
      </trkpt>
      <trkpt lat="46.25796" lon="6.2639">
        <ele>455.39999389648</ele>
        <time>2020-02-23T13:13:13Z</time>
      </trkpt>
      <trkpt lat="46.25789" lon="6.2639">
        <ele>455.39999389648</ele>
        <time>2020-02-23T13:13:15Z</time>
      </trkpt>
      <trkpt lat="46.25769" lon="6.26382">
        <ele>455</ele>
        <time>2020-02-23T13:13:21Z</time>
      </trkpt>
      <trkpt lat="46.25766" lon="6.26381">
        <ele>455</ele>
        <time>2020-02-23T13:13:22Z</time>
      </trkpt>
      <trkpt lat="46.25763" lon="6.26379">
        <ele>455</ele>
        <time>2020-02-23T13:13:23Z</time>
      </trkpt>
      <trkpt lat="46.2576" lon="6.26378">
        <ele>454.79998779297</ele>
        <time>2020-02-23T13:13:24Z</time>
      </trkpt>
      <trkpt lat="46.25757" lon="6.26376">
        <ele>455</ele>
        <time>2020-02-23T13:13:25Z</time>
      </trkpt>
      <trkpt lat="46.25754" lon="6.26374">
        <ele>455</ele>
        <time>2020-02-23T13:13:26Z</time>
      </trkpt>
      <trkpt lat="46.25743" lon="6.26366">
        <ele>455</ele>
        <time>2020-02-23T13:13:29Z</time>
      </trkpt>
      <trkpt lat="46.2571" lon="6.2634">
        <ele>455.60000610352</ele>
        <time>2020-02-23T13:13:38Z</time>
      </trkpt>
      <trkpt lat="46.25706" lon="6.26337">
        <ele>455.60000610352</ele>
        <time>2020-02-23T13:13:39Z</time>
      </trkpt>
      <trkpt lat="46.25702" lon="6.26334">
        <ele>455.60000610352</ele>
        <time>2020-02-23T13:13:40Z</time>
      </trkpt>
      <trkpt lat="46.25699" lon="6.26331">
        <ele>455.60000610352</ele>
        <time>2020-02-23T13:13:41Z</time>
      </trkpt>
      <trkpt lat="46.25695" lon="6.26328">
        <ele>455.60000610352</ele>
        <time>2020-02-23T13:13:42Z</time>
      </trkpt>
      <trkpt lat="46.25692" lon="6.26325">
        <ele>455.39999389648</ele>
        <time>2020-02-23T13:13:43Z</time>
      </trkpt>
      <trkpt lat="46.25689" lon="6.26322">
        <ele>455.39999389648</ele>
        <time>2020-02-23T13:13:44Z</time>
      </trkpt>
      <trkpt lat="46.25685" lon="6.2632">
        <ele>455.20001220703</ele>
        <time>2020-02-23T13:13:45Z</time>
      </trkpt>
      <trkpt lat="46.25682" lon="6.26318">
        <ele>455</ele>
        <time>2020-02-23T13:13:46Z</time>
      </trkpt>
      <trkpt lat="46.25679" lon="6.26315">
        <ele>455</ele>
        <time>2020-02-23T13:13:47Z</time>
      </trkpt>
      <trkpt lat="46.25675" lon="6.26312">
        <ele>455</ele>
        <time>2020-02-23T13:13:48Z</time>
      </trkpt>
      <trkpt lat="46.25672" lon="6.2631">
        <ele>455</ele>
        <time>2020-02-23T13:13:49Z</time>
      </trkpt>
      <trkpt lat="46.25669" lon="6.26307">
        <ele>454.79998779297</ele>
        <time>2020-02-23T13:13:50Z</time>
      </trkpt>
      <trkpt lat="46.25655" lon="6.26296">
        <ele>454.79998779297</ele>
        <time>2020-02-23T13:13:54Z</time>
      </trkpt>
      <trkpt lat="46.25652" lon="6.26293">
        <ele>454.79998779297</ele>
        <time>2020-02-23T13:13:55Z</time>
      </trkpt>
      <trkpt lat="46.25648" lon="6.26291">
        <ele>454.79998779297</ele>
        <time>2020-02-23T13:13:56Z</time>
      </trkpt>
      <trkpt lat="46.25645" lon="6.26289">
        <ele>454.79998779297</ele>
        <time>2020-02-23T13:13:57Z</time>
      </trkpt>
      <trkpt lat="46.25641" lon="6.26286">
        <ele>455</ele>
        <time>2020-02-23T13:13:58Z</time>
      </trkpt>
      <trkpt lat="46.25638" lon="6.26283">
        <ele>455</ele>
        <time>2020-02-23T13:13:59Z</time>
      </trkpt>
      <trkpt lat="46.25635" lon="6.26281">
        <ele>454.79998779297</ele>
        <time>2020-02-23T13:14:00Z</time>
      </trkpt>
      <trkpt lat="46.25632" lon="6.26278">
        <ele>454.79998779297</ele>
        <time>2020-02-23T13:14:01Z</time>
      </trkpt>
      <trkpt lat="46.25629" lon="6.26277">
        <ele>455</ele>
        <time>2020-02-23T13:14:02Z</time>
      </trkpt>
      <trkpt lat="46.25626" lon="6.26275">
        <ele>455</ele>
        <time>2020-02-23T13:14:03Z</time>
      </trkpt>
      <trkpt lat="46.25605" lon="6.26262">
        <ele>455</ele>
        <time>2020-02-23T13:14:09Z</time>
      </trkpt>
      <trkpt lat="46.25601" lon="6.26259">
        <ele>455</ele>
        <time>2020-02-23T13:14:10Z</time>
      </trkpt>
      <trkpt lat="46.2559" lon="6.26252">
        <ele>455</ele>
        <time>2020-02-23T13:14:13Z</time>
      </trkpt>
      <trkpt lat="46.25587" lon="6.2625">
        <ele>455</ele>
        <time>2020-02-23T13:14:14Z</time>
      </trkpt>
      <trkpt lat="46.25583" lon="6.26247">
        <ele>455</ele>
        <time>2020-02-23T13:14:15Z</time>
      </trkpt>
      <trkpt lat="46.2558" lon="6.26245">
        <ele>454.79998779297</ele>
        <time>2020-02-23T13:14:16Z</time>
      </trkpt>
      <trkpt lat="46.25576" lon="6.26242">
        <ele>455</ele>
        <time>2020-02-23T13:14:17Z</time>
      </trkpt>
      <trkpt lat="46.25573" lon="6.2624">
        <ele>454.79998779297</ele>
        <time>2020-02-23T13:14:18Z</time>
      </trkpt>
      <trkpt lat="46.25569" lon="6.26237">
        <ele>455</ele>
        <time>2020-02-23T13:14:19Z</time>
      </trkpt>
      <trkpt lat="46.25566" lon="6.26234">
        <ele>455</ele>
        <time>2020-02-23T13:14:20Z</time>
      </trkpt>
      <trkpt lat="46.25555" lon="6.26226">
        <ele>455</ele>
        <time>2020-02-23T13:14:23Z</time>
      </trkpt>
      <trkpt lat="46.25552" lon="6.26224">
        <ele>455</ele>
        <time>2020-02-23T13:14:24Z</time>
      </trkpt>
      <trkpt lat="46.25549" lon="6.26221">
        <ele>455.20001220703</ele>
        <time>2020-02-23T13:14:25Z</time>
      </trkpt>
      <trkpt lat="46.25545" lon="6.26218">
        <ele>455.39999389648</ele>
        <time>2020-02-23T13:14:26Z</time>
      </trkpt>
      <trkpt lat="46.25542" lon="6.26215">
        <ele>455.39999389648</ele>
        <time>2020-02-23T13:14:27Z</time>
      </trkpt>
      <trkpt lat="46.25539" lon="6.26212">
        <ele>455.39999389648</ele>
        <time>2020-02-23T13:14:28Z</time>
      </trkpt>
      <trkpt lat="46.25535" lon="6.2621">
        <ele>455.39999389648</ele>
        <time>2020-02-23T13:14:29Z</time>
      </trkpt>
      <trkpt lat="46.25532" lon="6.26207">
        <ele>455.20001220703</ele>
        <time>2020-02-23T13:14:30Z</time>
      </trkpt>
      <trkpt lat="46.25529" lon="6.26205">
        <ele>455.39999389648</ele>
        <time>2020-02-23T13:14:31Z</time>
      </trkpt>
      <trkpt lat="46.25526" lon="6.26202">
        <ele>455.39999389648</ele>
        <time>2020-02-23T13:14:32Z</time>
      </trkpt>
      <trkpt lat="46.25523" lon="6.26199">
        <ele>455.39999389648</ele>
        <time>2020-02-23T13:14:33Z</time>
      </trkpt>
      <trkpt lat="46.2552" lon="6.26196">
        <ele>455.39999389648</ele>
        <time>2020-02-23T13:14:34Z</time>
      </trkpt>
      <trkpt lat="46.25517" lon="6.26194">
        <ele>455.39999389648</ele>
        <time>2020-02-23T13:14:35Z</time>
      </trkpt>
      <trkpt lat="46.25513" lon="6.26191">
        <ele>455.39999389648</ele>
        <time>2020-02-23T13:14:36Z</time>
      </trkpt>
      <trkpt lat="46.2551" lon="6.26189">
        <ele>455.60000610352</ele>
        <time>2020-02-23T13:14:37Z</time>
      </trkpt>
      <trkpt lat="46.25507" lon="6.26187">
        <ele>455.39999389648</ele>
        <time>2020-02-23T13:14:38Z</time>
      </trkpt>
      <trkpt lat="46.25503" lon="6.26185">
        <ele>455.60000610352</ele>
        <time>2020-02-23T13:14:39Z</time>
      </trkpt>
      <trkpt lat="46.255" lon="6.26182">
        <ele>455.60000610352</ele>
        <time>2020-02-23T13:14:40Z</time>
      </trkpt>
      <trkpt lat="46.25497" lon="6.2618">
        <ele>455.60000610352</ele>
        <time>2020-02-23T13:14:41Z</time>
      </trkpt>
      <trkpt lat="46.25493" lon="6.26178">
        <ele>455.79998779297</ele>
        <time>2020-02-23T13:14:42Z</time>
      </trkpt>
      <trkpt lat="46.25486" lon="6.26174">
        <ele>456.20001220703</ele>
        <time>2020-02-23T13:14:44Z</time>
      </trkpt>
      <trkpt lat="46.25483" lon="6.26172">
        <ele>456.20001220703</ele>
        <time>2020-02-23T13:14:45Z</time>
      </trkpt>
      <trkpt lat="46.25468" lon="6.26165">
        <ele>456.39999389648</ele>
        <time>2020-02-23T13:14:49Z</time>
      </trkpt>
      <trkpt lat="46.25457" lon="6.26161">
        <ele>456.60000610352</ele>
        <time>2020-02-23T13:14:52Z</time>
      </trkpt>
      <trkpt lat="46.25453" lon="6.2616">
        <ele>456.79998779297</ele>
        <time>2020-02-23T13:14:53Z</time>
      </trkpt>
      <trkpt lat="46.25449" lon="6.26159">
        <ele>456.60000610352</ele>
        <time>2020-02-23T13:14:54Z</time>
      </trkpt>
      <trkpt lat="46.25446" lon="6.26157">
        <ele>456.79998779297</ele>
        <time>2020-02-23T13:14:55Z</time>
      </trkpt>
      <trkpt lat="46.25442" lon="6.26155">
        <ele>456.79998779297</ele>
        <time>2020-02-23T13:14:56Z</time>
      </trkpt>
      <trkpt lat="46.25435" lon="6.26152">
        <ele>456.60000610352</ele>
        <time>2020-02-23T13:14:58Z</time>
      </trkpt>
      <trkpt lat="46.25432" lon="6.2615">
        <ele>456.60000610352</ele>
        <time>2020-02-23T13:14:59Z</time>
      </trkpt>
      <trkpt lat="46.25429" lon="6.26149">
        <ele>456.60000610352</ele>
        <time>2020-02-23T13:15:00Z</time>
      </trkpt>
      <trkpt lat="46.25425" lon="6.26148">
        <ele>456.60000610352</ele>
        <time>2020-02-23T13:15:01Z</time>
      </trkpt>
      <trkpt lat="46.25422" lon="6.26147">
        <ele>456.79998779297</ele>
        <time>2020-02-23T13:15:02Z</time>
      </trkpt>
      <trkpt lat="46.25418" lon="6.26145">
        <ele>456.79998779297</ele>
        <time>2020-02-23T13:15:03Z</time>
      </trkpt>
      <trkpt lat="46.25415" lon="6.26143">
        <ele>456.60000610352</ele>
        <time>2020-02-23T13:15:04Z</time>
      </trkpt>
      <trkpt lat="46.25412" lon="6.26142">
        <ele>456.79998779297</ele>
        <time>2020-02-23T13:15:05Z</time>
      </trkpt>
      <trkpt lat="46.25405" lon="6.26138">
        <ele>456.79998779297</ele>
        <time>2020-02-23T13:15:07Z</time>
      </trkpt>
      <trkpt lat="46.25401" lon="6.26137">
        <ele>456.79998779297</ele>
        <time>2020-02-23T13:15:08Z</time>
      </trkpt>
      <trkpt lat="46.25398" lon="6.26135">
        <ele>456.79998779297</ele>
        <time>2020-02-23T13:15:09Z</time>
      </trkpt>
      <trkpt lat="46.25395" lon="6.26134">
        <ele>457</ele>
        <time>2020-02-23T13:15:10Z</time>
      </trkpt>
      <trkpt lat="46.25392" lon="6.26133">
        <ele>457.20001220703</ele>
        <time>2020-02-23T13:15:11Z</time>
      </trkpt>
      <trkpt lat="46.25388" lon="6.26131">
        <ele>457.20001220703</ele>
        <time>2020-02-23T13:15:12Z</time>
      </trkpt>
      <trkpt lat="46.25385" lon="6.2613">
        <ele>457.20001220703</ele>
        <time>2020-02-23T13:15:13Z</time>
      </trkpt>
      <trkpt lat="46.25382" lon="6.26128">
        <ele>457.20001220703</ele>
        <time>2020-02-23T13:15:14Z</time>
      </trkpt>
      <trkpt lat="46.25379" lon="6.26127">
        <ele>457.39999389648</ele>
        <time>2020-02-23T13:15:15Z</time>
      </trkpt>
      <trkpt lat="46.25376" lon="6.26126">
        <ele>457.60000610352</ele>
        <time>2020-02-23T13:15:16Z</time>
      </trkpt>
      <trkpt lat="46.25373" lon="6.26124">
        <ele>457.60000610352</ele>
        <time>2020-02-23T13:15:17Z</time>
      </trkpt>
      <trkpt lat="46.2537" lon="6.26123">
        <ele>457.79998779297</ele>
        <time>2020-02-23T13:15:18Z</time>
      </trkpt>
      <trkpt lat="46.25367" lon="6.26121">
        <ele>457.79998779297</ele>
        <time>2020-02-23T13:15:19Z</time>
      </trkpt>
      <trkpt lat="46.25363" lon="6.2612">
        <ele>457.79998779297</ele>
        <time>2020-02-23T13:15:20Z</time>
      </trkpt>
      <trkpt lat="46.2536" lon="6.26118">
        <ele>458.20001220703</ele>
        <time>2020-02-23T13:15:21Z</time>
      </trkpt>
      <trkpt lat="46.25357" lon="6.26117">
        <ele>458.20001220703</ele>
        <time>2020-02-23T13:15:22Z</time>
      </trkpt>
      <trkpt lat="46.25354" lon="6.26115">
        <ele>458.39999389648</ele>
        <time>2020-02-23T13:15:23Z</time>
      </trkpt>
      <trkpt lat="46.25351" lon="6.26114">
        <ele>458.60000610352</ele>
        <time>2020-02-23T13:15:24Z</time>
      </trkpt>
      <trkpt lat="46.25348" lon="6.26113">
        <ele>459</ele>
        <time>2020-02-23T13:15:25Z</time>
      </trkpt>
      <trkpt lat="46.25346" lon="6.26112">
        <ele>459</ele>
        <time>2020-02-23T13:15:26Z</time>
      </trkpt>
      <trkpt lat="46.25344" lon="6.26111">
        <ele>459</ele>
        <time>2020-02-23T13:15:27Z</time>
      </trkpt>
      <trkpt lat="46.25341" lon="6.2611">
        <ele>459.39999389648</ele>
        <time>2020-02-23T13:15:28Z</time>
      </trkpt>
      <trkpt lat="46.2534" lon="6.26109">
        <ele>459.60000610352</ele>
        <time>2020-02-23T13:15:29Z</time>
      </trkpt>
      <trkpt lat="46.25338" lon="6.26109">
        <ele>459.60000610352</ele>
        <time>2020-02-23T13:15:30Z</time>
      </trkpt>
      <trkpt lat="46.25337" lon="6.26108">
        <ele>459.60000610352</ele>
        <time>2020-02-23T13:15:31Z</time>
      </trkpt>
      <trkpt lat="46.25336" lon="6.26108">
        <ele>459.79998779297</ele>
        <time>2020-02-23T13:15:32Z</time>
      </trkpt>
      <trkpt lat="46.25335" lon="6.26107">
        <ele>460</ele>
        <time>2020-02-23T13:15:33Z</time>
      </trkpt>
      <trkpt lat="46.25334" lon="6.26106">
        <ele>460.20001220703</ele>
        <time>2020-02-23T13:15:34Z</time>
      </trkpt>
      <trkpt lat="46.25333" lon="6.26104">
        <ele>460.60000610352</ele>
        <time>2020-02-23T13:15:35Z</time>
      </trkpt>
      <trkpt lat="46.25332" lon="6.26102">
        <ele>460.79998779297</ele>
        <time>2020-02-23T13:15:36Z</time>
      </trkpt>
      <trkpt lat="46.25331" lon="6.26101">
        <ele>460.79998779297</ele>
        <time>2020-02-23T13:15:37Z</time>
      </trkpt>
      <trkpt lat="46.25329" lon="6.26099">
        <ele>460.79998779297</ele>
        <time>2020-02-23T13:15:38Z</time>
      </trkpt>
      <trkpt lat="46.25327" lon="6.26099">
        <ele>461</ele>
        <time>2020-02-23T13:15:39Z</time>
      </trkpt>
      <trkpt lat="46.25325" lon="6.26099">
        <ele>461.20001220703</ele>
        <time>2020-02-23T13:15:40Z</time>
      </trkpt>
      <trkpt lat="46.25323" lon="6.26099">
        <ele>461.39999389648</ele>
        <time>2020-02-23T13:15:41Z</time>
      </trkpt>
      <trkpt lat="46.25321" lon="6.261">
        <ele>461.39999389648</ele>
        <time>2020-02-23T13:15:42Z</time>
      </trkpt>
      <trkpt lat="46.25319" lon="6.26101">
        <ele>461.39999389648</ele>
        <time>2020-02-23T13:15:43Z</time>
      </trkpt>
      <trkpt lat="46.25317" lon="6.261">
        <ele>461.39999389648</ele>
        <time>2020-02-23T13:15:44Z</time>
      </trkpt>
      <trkpt lat="46.25314" lon="6.26099">
        <ele>461.39999389648</ele>
        <time>2020-02-23T13:15:45Z</time>
      </trkpt>
      <trkpt lat="46.25308" lon="6.26097">
        <ele>461.60000610352</ele>
        <time>2020-02-23T13:15:47Z</time>
      </trkpt>
      <trkpt lat="46.25302" lon="6.26094">
        <ele>461.79998779297</ele>
        <time>2020-02-23T13:15:49Z</time>
      </trkpt>
      <trkpt lat="46.25299" lon="6.26093">
        <ele>461.60000610352</ele>
        <time>2020-02-23T13:15:50Z</time>
      </trkpt>
      <trkpt lat="46.25296" lon="6.26091">
        <ele>461.79998779297</ele>
        <time>2020-02-23T13:15:51Z</time>
      </trkpt>
      <trkpt lat="46.25265" lon="6.26079">
        <ele>461.60000610352</ele>
        <time>2020-02-23T13:15:59Z</time>
      </trkpt>
      <trkpt lat="46.25261" lon="6.26077">
        <ele>461.60000610352</ele>
        <time>2020-02-23T13:16:00Z</time>
      </trkpt>
      <trkpt lat="46.25258" lon="6.26075">
        <ele>461.60000610352</ele>
        <time>2020-02-23T13:16:01Z</time>
      </trkpt>
      <trkpt lat="46.25254" lon="6.26074">
        <ele>461.60000610352</ele>
        <time>2020-02-23T13:16:02Z</time>
      </trkpt>
      <trkpt lat="46.25251" lon="6.26072">
        <ele>461.60000610352</ele>
        <time>2020-02-23T13:16:03Z</time>
      </trkpt>
      <trkpt lat="46.25248" lon="6.26069">
        <ele>461.60000610352</ele>
        <time>2020-02-23T13:16:04Z</time>
      </trkpt>
      <trkpt lat="46.25244" lon="6.26067">
        <ele>461.60000610352</ele>
        <time>2020-02-23T13:16:05Z</time>
      </trkpt>
      <trkpt lat="46.25241" lon="6.26065">
        <ele>461.39999389648</ele>
        <time>2020-02-23T13:16:06Z</time>
      </trkpt>
      <trkpt lat="46.25235" lon="6.26058">
        <ele>461.39999389648</ele>
        <time>2020-02-23T13:16:08Z</time>
      </trkpt>
      <trkpt lat="46.25229" lon="6.26052">
        <ele>461.39999389648</ele>
        <time>2020-02-23T13:16:10Z</time>
      </trkpt>
      <trkpt lat="46.25226" lon="6.26049">
        <ele>461.60000610352</ele>
        <time>2020-02-23T13:16:11Z</time>
      </trkpt>
      <trkpt lat="46.25219" lon="6.26044">
        <ele>461.60000610352</ele>
        <time>2020-02-23T13:16:13Z</time>
      </trkpt>
      <trkpt lat="46.25203" lon="6.26029">
        <ele>461.60000610352</ele>
        <time>2020-02-23T13:16:18Z</time>
      </trkpt>
      <trkpt lat="46.25196" lon="6.26023">
        <ele>461.79998779297</ele>
        <time>2020-02-23T13:16:20Z</time>
      </trkpt>
      <trkpt lat="46.25193" lon="6.2602">
        <ele>461.79998779297</ele>
        <time>2020-02-23T13:16:21Z</time>
      </trkpt>
      <trkpt lat="46.2519" lon="6.26018">
        <ele>462</ele>
        <time>2020-02-23T13:16:22Z</time>
      </trkpt>
      <trkpt lat="46.25187" lon="6.26015">
        <ele>461.79998779297</ele>
        <time>2020-02-23T13:16:23Z</time>
      </trkpt>
      <trkpt lat="46.25184" lon="6.26013">
        <ele>462</ele>
        <time>2020-02-23T13:16:24Z</time>
      </trkpt>
      <trkpt lat="46.25181" lon="6.26011">
        <ele>462</ele>
        <time>2020-02-23T13:16:25Z</time>
      </trkpt>
      <trkpt lat="46.25178" lon="6.26009">
        <ele>462.20001220703</ele>
        <time>2020-02-23T13:16:26Z</time>
      </trkpt>
      <trkpt lat="46.25176" lon="6.26008">
        <ele>462.20001220703</ele>
        <time>2020-02-23T13:16:27Z</time>
      </trkpt>
      <trkpt lat="46.25173" lon="6.26007">
        <ele>462.20001220703</ele>
        <time>2020-02-23T13:16:28Z</time>
      </trkpt>
      <trkpt lat="46.25171" lon="6.26006">
        <ele>462.20001220703</ele>
        <time>2020-02-23T13:16:29Z</time>
      </trkpt>
      <trkpt lat="46.25169" lon="6.26007">
        <ele>462.39999389648</ele>
        <time>2020-02-23T13:16:30Z</time>
      </trkpt>
      <trkpt lat="46.25167" lon="6.26009">
        <ele>462.39999389648</ele>
        <time>2020-02-23T13:16:31Z</time>
      </trkpt>
      <trkpt lat="46.25166" lon="6.26012">
        <ele>462.79998779297</ele>
        <time>2020-02-23T13:16:32Z</time>
      </trkpt>
      <trkpt lat="46.25166" lon="6.26015">
        <ele>463</ele>
        <time>2020-02-23T13:16:33Z</time>
      </trkpt>
      <trkpt lat="46.25166" lon="6.26018">
        <ele>463.20001220703</ele>
        <time>2020-02-23T13:16:34Z</time>
      </trkpt>
      <trkpt lat="46.25166" lon="6.26021">
        <ele>463.39999389648</ele>
        <time>2020-02-23T13:16:35Z</time>
      </trkpt>
      <trkpt lat="46.25166" lon="6.26024">
        <ele>463.60000610352</ele>
        <time>2020-02-23T13:16:36Z</time>
      </trkpt>
      <trkpt lat="46.25166" lon="6.26027">
        <ele>463.60000610352</ele>
        <time>2020-02-23T13:16:37Z</time>
      </trkpt>
      <trkpt lat="46.25165" lon="6.2603">
        <ele>463.79998779297</ele>
        <time>2020-02-23T13:16:38Z</time>
      </trkpt>
      <trkpt lat="46.25164" lon="6.26032">
        <ele>463.79998779297</ele>
        <time>2020-02-23T13:16:39Z</time>
      </trkpt>
      <trkpt lat="46.25163" lon="6.26035">
        <ele>464</ele>
        <time>2020-02-23T13:16:40Z</time>
      </trkpt>
      <trkpt lat="46.25158" lon="6.26048">
        <ele>464.60000610352</ele>
        <time>2020-02-23T13:16:44Z</time>
      </trkpt>
      <trkpt lat="46.25156" lon="6.26056">
        <ele>464.39999389648</ele>
        <time>2020-02-23T13:16:46Z</time>
      </trkpt>
      <trkpt lat="46.25145" lon="6.26092">
        <ele>464.60000610352</ele>
        <time>2020-02-23T13:16:53Z</time>
      </trkpt>
      <trkpt lat="46.25137" lon="6.26116">
        <ele>464.39999389648</ele>
        <time>2020-02-23T13:16:57Z</time>
      </trkpt>
      <trkpt lat="46.2513" lon="6.26143">
        <ele>464</ele>
        <time>2020-02-23T13:17:01Z</time>
      </trkpt>
      <trkpt lat="46.25129" lon="6.26149">
        <ele>464</ele>
        <time>2020-02-23T13:17:02Z</time>
      </trkpt>
      <trkpt lat="46.25127" lon="6.26156">
        <ele>464.20001220703</ele>
        <time>2020-02-23T13:17:03Z</time>
      </trkpt>
      <trkpt lat="46.25118" lon="6.26205">
        <ele>463.79998779297</ele>
        <time>2020-02-23T13:17:10Z</time>
      </trkpt>
      <trkpt lat="46.25114" lon="6.26227">
        <ele>463.60000610352</ele>
        <time>2020-02-23T13:17:13Z</time>
      </trkpt>
      <trkpt lat="46.25112" lon="6.26234">
        <ele>463.60000610352</ele>
        <time>2020-02-23T13:17:14Z</time>
      </trkpt>
      <trkpt lat="46.25111" lon="6.26241">
        <ele>463.60000610352</ele>
        <time>2020-02-23T13:17:15Z</time>
      </trkpt>
      <trkpt lat="46.25109" lon="6.26248">
        <ele>463.60000610352</ele>
        <time>2020-02-23T13:17:16Z</time>
      </trkpt>
      <trkpt lat="46.25108" lon="6.26255">
        <ele>463.39999389648</ele>
        <time>2020-02-23T13:17:17Z</time>
      </trkpt>
      <trkpt lat="46.25106" lon="6.26262">
        <ele>463.39999389648</ele>
        <time>2020-02-23T13:17:18Z</time>
      </trkpt>
      <trkpt lat="46.25104" lon="6.26269">
        <ele>463.20001220703</ele>
        <time>2020-02-23T13:17:19Z</time>
      </trkpt>
      <trkpt lat="46.25102" lon="6.26275">
        <ele>463.39999389648</ele>
        <time>2020-02-23T13:17:20Z</time>
      </trkpt>
      <trkpt lat="46.251" lon="6.26281">
        <ele>463.39999389648</ele>
        <time>2020-02-23T13:17:21Z</time>
      </trkpt>
      <trkpt lat="46.25098" lon="6.26286">
        <ele>463.39999389648</ele>
        <time>2020-02-23T13:17:22Z</time>
      </trkpt>
      <trkpt lat="46.25096" lon="6.26292">
        <ele>463.39999389648</ele>
        <time>2020-02-23T13:17:23Z</time>
      </trkpt>
      <trkpt lat="46.25094" lon="6.26297">
        <ele>463.20001220703</ele>
        <time>2020-02-23T13:17:24Z</time>
      </trkpt>
      <trkpt lat="46.25092" lon="6.26302">
        <ele>463.39999389648</ele>
        <time>2020-02-23T13:17:25Z</time>
      </trkpt>
      <trkpt lat="46.25089" lon="6.26306">
        <ele>463.39999389648</ele>
        <time>2020-02-23T13:17:26Z</time>
      </trkpt>
      <trkpt lat="46.25087" lon="6.2631">
        <ele>463.39999389648</ele>
        <time>2020-02-23T13:17:27Z</time>
      </trkpt>
      <trkpt lat="46.25084" lon="6.26314">
        <ele>463.39999389648</ele>
        <time>2020-02-23T13:17:28Z</time>
      </trkpt>
      <trkpt lat="46.25082" lon="6.26318">
        <ele>463.39999389648</ele>
        <time>2020-02-23T13:17:29Z</time>
      </trkpt>
      <trkpt lat="46.2508" lon="6.26321">
        <ele>463.39999389648</ele>
        <time>2020-02-23T13:17:30Z</time>
      </trkpt>
      <trkpt lat="46.25077" lon="6.26325">
        <ele>463.79998779297</ele>
        <time>2020-02-23T13:17:31Z</time>
      </trkpt>
      <trkpt lat="46.25074" lon="6.26329">
        <ele>463.79998779297</ele>
        <time>2020-02-23T13:17:32Z</time>
      </trkpt>
      <trkpt lat="46.25072" lon="6.26333">
        <ele>464</ele>
        <time>2020-02-23T13:17:33Z</time>
      </trkpt>
      <trkpt lat="46.25069" lon="6.26337">
        <ele>464.20001220703</ele>
        <time>2020-02-23T13:17:34Z</time>
      </trkpt>
      <trkpt lat="46.25066" lon="6.26341">
        <ele>464.20001220703</ele>
        <time>2020-02-23T13:17:35Z</time>
      </trkpt>
      <trkpt lat="46.25063" lon="6.26345">
        <ele>464.20001220703</ele>
        <time>2020-02-23T13:17:36Z</time>
      </trkpt>
      <trkpt lat="46.2506" lon="6.26349">
        <ele>464.20001220703</ele>
        <time>2020-02-23T13:17:37Z</time>
      </trkpt>
      <trkpt lat="46.25057" lon="6.26353">
        <ele>464.39999389648</ele>
        <time>2020-02-23T13:17:38Z</time>
      </trkpt>
      <trkpt lat="46.25054" lon="6.26356">
        <ele>464.79998779297</ele>
        <time>2020-02-23T13:17:39Z</time>
      </trkpt>
      <trkpt lat="46.25042" lon="6.26372">
        <ele>465.60000610352</ele>
        <time>2020-02-23T13:17:43Z</time>
      </trkpt>
      <trkpt lat="46.2504" lon="6.26376">
        <ele>465.79998779297</ele>
        <time>2020-02-23T13:17:44Z</time>
      </trkpt>
      <trkpt lat="46.25038" lon="6.26379">
        <ele>465.79998779297</ele>
        <time>2020-02-23T13:17:45Z</time>
      </trkpt>
      <trkpt lat="46.25036" lon="6.26382">
        <ele>465.79998779297</ele>
        <time>2020-02-23T13:17:46Z</time>
      </trkpt>
      <trkpt lat="46.25034" lon="6.26386">
        <ele>466</ele>
        <time>2020-02-23T13:17:47Z</time>
      </trkpt>
      <trkpt lat="46.25032" lon="6.26389">
        <ele>466</ele>
        <time>2020-02-23T13:17:48Z</time>
      </trkpt>
      <trkpt lat="46.2503" lon="6.26392">
        <ele>466</ele>
        <time>2020-02-23T13:17:49Z</time>
      </trkpt>
      <trkpt lat="46.25028" lon="6.26395">
        <ele>466.20001220703</ele>
        <time>2020-02-23T13:17:50Z</time>
      </trkpt>
      <trkpt lat="46.25026" lon="6.26398">
        <ele>466.20001220703</ele>
        <time>2020-02-23T13:17:51Z</time>
      </trkpt>
      <trkpt lat="46.25025" lon="6.264">
        <ele>466.39999389648</ele>
        <time>2020-02-23T13:17:52Z</time>
      </trkpt>
      <trkpt lat="46.25023" lon="6.26403">
        <ele>466.60000610352</ele>
        <time>2020-02-23T13:17:53Z</time>
      </trkpt>
      <trkpt lat="46.25022" lon="6.26406">
        <ele>466.60000610352</ele>
        <time>2020-02-23T13:17:54Z</time>
      </trkpt>
      <trkpt lat="46.2502" lon="6.26408">
        <ele>467.20001220703</ele>
        <time>2020-02-23T13:17:55Z</time>
      </trkpt>
      <trkpt lat="46.25017" lon="6.26408">
        <ele>467.39999389648</ele>
        <time>2020-02-23T13:17:56Z</time>
      </trkpt>
      <trkpt lat="46.25016" lon="6.26406">
        <ele>467.20001220703</ele>
        <time>2020-02-23T13:17:57Z</time>
      </trkpt>
      <trkpt lat="46.25015" lon="6.26405">
        <ele>467.39999389648</ele>
        <time>2020-02-23T13:17:58Z</time>
      </trkpt>
      <trkpt lat="46.25014" lon="6.26405">
        <ele>467.39999389648</ele>
        <time>2020-02-23T13:17:59Z</time>
      </trkpt>
      <trkpt lat="46.25014" lon="6.26405">
        <ele>467.39999389648</ele>
        <time>2020-02-23T13:18:00Z</time>
      </trkpt>
      <trkpt lat="46.25014" lon="6.26404">
        <ele>467.39999389648</ele>
        <time>2020-02-23T13:18:01Z</time>
      </trkpt>
      <trkpt lat="46.25013" lon="6.26403">
        <ele>467.39999389648</ele>
        <time>2020-02-23T13:18:02Z</time>
      </trkpt>
      <trkpt lat="46.25012" lon="6.26401">
        <ele>467.60000610352</ele>
        <time>2020-02-23T13:18:03Z</time>
      </trkpt>
      <trkpt lat="46.25011" lon="6.264">
        <ele>467.60000610352</ele>
        <time>2020-02-23T13:18:04Z</time>
      </trkpt>
      <trkpt lat="46.25009" lon="6.26398">
        <ele>467.60000610352</ele>
        <time>2020-02-23T13:18:05Z</time>
      </trkpt>
      <trkpt lat="46.25008" lon="6.26396">
        <ele>467.60000610352</ele>
        <time>2020-02-23T13:18:06Z</time>
      </trkpt>
      <trkpt lat="46.25005" lon="6.26394">
        <ele>467.79998779297</ele>
        <time>2020-02-23T13:18:07Z</time>
      </trkpt>
      <trkpt lat="46.25002" lon="6.26391">
        <ele>467.60000610352</ele>
        <time>2020-02-23T13:18:08Z</time>
      </trkpt>
      <trkpt lat="46.24999" lon="6.26389">
        <ele>467.79998779297</ele>
        <time>2020-02-23T13:18:09Z</time>
      </trkpt>
      <trkpt lat="46.24991" lon="6.26383">
        <ele>467.39999389648</ele>
        <time>2020-02-23T13:18:11Z</time>
      </trkpt>
      <trkpt lat="46.24986" lon="6.2638">
        <ele>467.60000610352</ele>
        <time>2020-02-23T13:18:12Z</time>
      </trkpt>
      <trkpt lat="46.24968" lon="6.26367">
        <ele>467.20001220703</ele>
        <time>2020-02-23T13:18:16Z</time>
      </trkpt>
      <trkpt lat="46.24954" lon="6.26357">
        <ele>466.79998779297</ele>
        <time>2020-02-23T13:18:19Z</time>
      </trkpt>
      <trkpt lat="46.24949" lon="6.26355">
        <ele>466.60000610352</ele>
        <time>2020-02-23T13:18:20Z</time>
      </trkpt>
      <trkpt lat="46.24945" lon="6.26354">
        <ele>466.39999389648</ele>
        <time>2020-02-23T13:18:21Z</time>
      </trkpt>
      <trkpt lat="46.24941" lon="6.26352">
        <ele>466</ele>
        <time>2020-02-23T13:18:22Z</time>
      </trkpt>
      <trkpt lat="46.24938" lon="6.26349">
        <ele>465.79998779297</ele>
        <time>2020-02-23T13:18:23Z</time>
      </trkpt>
      <trkpt lat="46.24935" lon="6.26347">
        <ele>465.60000610352</ele>
        <time>2020-02-23T13:18:24Z</time>
      </trkpt>
      <trkpt lat="46.24931" lon="6.26344">
        <ele>465.39999389648</ele>
        <time>2020-02-23T13:18:25Z</time>
      </trkpt>
      <trkpt lat="46.24927" lon="6.26342">
        <ele>465.39999389648</ele>
        <time>2020-02-23T13:18:26Z</time>
      </trkpt>
      <trkpt lat="46.24908" lon="6.26328">
        <ele>465.39999389648</ele>
        <time>2020-02-23T13:18:31Z</time>
      </trkpt>
      <trkpt lat="46.24904" lon="6.26326">
        <ele>465.39999389648</ele>
        <time>2020-02-23T13:18:32Z</time>
      </trkpt>
      <trkpt lat="46.24901" lon="6.26324">
        <ele>465.39999389648</ele>
        <time>2020-02-23T13:18:33Z</time>
      </trkpt>
      <trkpt lat="46.24898" lon="6.26321">
        <ele>465.39999389648</ele>
        <time>2020-02-23T13:18:34Z</time>
      </trkpt>
      <trkpt lat="46.24895" lon="6.26319">
        <ele>465.39999389648</ele>
        <time>2020-02-23T13:18:35Z</time>
      </trkpt>
      <trkpt lat="46.24892" lon="6.26317">
        <ele>465.39999389648</ele>
        <time>2020-02-23T13:18:36Z</time>
      </trkpt>
      <trkpt lat="46.24888" lon="6.26314">
        <ele>465.60000610352</ele>
        <time>2020-02-23T13:18:37Z</time>
      </trkpt>
      <trkpt lat="46.24878" lon="6.26307">
        <ele>465.60000610352</ele>
        <time>2020-02-23T13:18:40Z</time>
      </trkpt>
      <trkpt lat="46.24872" lon="6.26303">
        <ele>465.79998779297</ele>
        <time>2020-02-23T13:18:42Z</time>
      </trkpt>
      <trkpt lat="46.24869" lon="6.26301">
        <ele>465.79998779297</ele>
        <time>2020-02-23T13:18:43Z</time>
      </trkpt>
      <trkpt lat="46.24866" lon="6.26299">
        <ele>465.79998779297</ele>
        <time>2020-02-23T13:18:44Z</time>
      </trkpt>
      <trkpt lat="46.24864" lon="6.26297">
        <ele>465.60000610352</ele>
        <time>2020-02-23T13:18:45Z</time>
      </trkpt>
      <trkpt lat="46.24861" lon="6.26295">
        <ele>465.60000610352</ele>
        <time>2020-02-23T13:18:46Z</time>
      </trkpt>
      <trkpt lat="46.2485" lon="6.26286">
        <ele>465.79998779297</ele>
        <time>2020-02-23T13:18:50Z</time>
      </trkpt>
      <trkpt lat="46.24839" lon="6.2628">
        <ele>465.79998779297</ele>
        <time>2020-02-23T13:18:53Z</time>
      </trkpt>
      <trkpt lat="46.24836" lon="6.26278">
        <ele>465.60000610352</ele>
        <time>2020-02-23T13:18:54Z</time>
      </trkpt>
      <trkpt lat="46.24833" lon="6.26277">
        <ele>465.60000610352</ele>
        <time>2020-02-23T13:18:55Z</time>
      </trkpt>
      <trkpt lat="46.2483" lon="6.26275">
        <ele>465.60000610352</ele>
        <time>2020-02-23T13:18:56Z</time>
      </trkpt>
      <trkpt lat="46.24828" lon="6.26274">
        <ele>465.60000610352</ele>
        <time>2020-02-23T13:18:57Z</time>
      </trkpt>
      <trkpt lat="46.24826" lon="6.26274">
        <ele>465.60000610352</ele>
        <time>2020-02-23T13:18:58Z</time>
      </trkpt>
      <trkpt lat="46.24824" lon="6.26275">
        <ele>465.79998779297</ele>
        <time>2020-02-23T13:18:59Z</time>
      </trkpt>
      <trkpt lat="46.24823" lon="6.26275">
        <ele>465.60000610352</ele>
        <time>2020-02-23T13:19:00Z</time>
      </trkpt>
      <trkpt lat="46.24823" lon="6.26275">
        <ele>465.60000610352</ele>
        <time>2020-02-23T13:19:02Z</time>
      </trkpt>
      <trkpt lat="46.24823" lon="6.26276">
        <ele>465.79998779297</ele>
        <time>2020-02-23T13:19:03Z</time>
      </trkpt>
      <trkpt lat="46.24823" lon="6.26277">
        <ele>466.79998779297</ele>
        <time>2020-02-23T13:19:20Z</time>
      </trkpt>
      <trkpt lat="46.24822" lon="6.26278">
        <ele>466.79998779297</ele>
        <time>2020-02-23T13:19:21Z</time>
      </trkpt>
      <trkpt lat="46.24821" lon="6.26279">
        <ele>466.79998779297</ele>
        <time>2020-02-23T13:19:22Z</time>
      </trkpt>
      <trkpt lat="46.24819" lon="6.26282">
        <ele>466.79998779297</ele>
        <time>2020-02-23T13:19:23Z</time>
      </trkpt>
      <trkpt lat="46.24818" lon="6.26286">
        <ele>466.79998779297</ele>
        <time>2020-02-23T13:19:24Z</time>
      </trkpt>
      <trkpt lat="46.24816" lon="6.2629">
        <ele>466.79998779297</ele>
        <time>2020-02-23T13:19:25Z</time>
      </trkpt>
      <trkpt lat="46.24813" lon="6.26295">
        <ele>466.79998779297</ele>
        <time>2020-02-23T13:19:26Z</time>
      </trkpt>
      <trkpt lat="46.24811" lon="6.263">
        <ele>466.79998779297</ele>
        <time>2020-02-23T13:19:27Z</time>
      </trkpt>
      <trkpt lat="46.24801" lon="6.26317">
        <ele>466.79998779297</ele>
        <time>2020-02-23T13:19:30Z</time>
      </trkpt>
      <trkpt lat="46.24798" lon="6.26324">
        <ele>466.60000610352</ele>
        <time>2020-02-23T13:19:31Z</time>
      </trkpt>
      <trkpt lat="46.24783" lon="6.26351">
        <ele>466.39999389648</ele>
        <time>2020-02-23T13:19:35Z</time>
      </trkpt>
      <trkpt lat="46.2478" lon="6.26357">
        <ele>466</ele>
        <time>2020-02-23T13:19:36Z</time>
      </trkpt>
      <trkpt lat="46.24777" lon="6.26363">
        <ele>465.60000610352</ele>
        <time>2020-02-23T13:19:37Z</time>
      </trkpt>
      <trkpt lat="46.24774" lon="6.26368">
        <ele>465.39999389648</ele>
        <time>2020-02-23T13:19:38Z</time>
      </trkpt>
      <trkpt lat="46.24771" lon="6.26373">
        <ele>465.20001220703</ele>
        <time>2020-02-23T13:19:39Z</time>
      </trkpt>
      <trkpt lat="46.24768" lon="6.26378">
        <ele>465.20001220703</ele>
        <time>2020-02-23T13:19:40Z</time>
      </trkpt>
      <trkpt lat="46.24765" lon="6.26383">
        <ele>465</ele>
        <time>2020-02-23T13:19:41Z</time>
      </trkpt>
      <trkpt lat="46.24763" lon="6.26387">
        <ele>465</ele>
        <time>2020-02-23T13:19:42Z</time>
      </trkpt>
      <trkpt lat="46.2476" lon="6.26391">
        <ele>465</ele>
        <time>2020-02-23T13:19:43Z</time>
      </trkpt>
      <trkpt lat="46.24757" lon="6.26395">
        <ele>465</ele>
        <time>2020-02-23T13:19:44Z</time>
      </trkpt>
      <trkpt lat="46.24752" lon="6.26405">
        <ele>465</ele>
        <time>2020-02-23T13:19:46Z</time>
      </trkpt>
      <trkpt lat="46.24737" lon="6.26433">
        <ele>465</ele>
        <time>2020-02-23T13:19:51Z</time>
      </trkpt>
      <trkpt lat="46.24734" lon="6.26438">
        <ele>465</ele>
        <time>2020-02-23T13:19:52Z</time>
      </trkpt>
      <trkpt lat="46.2473" lon="6.26443">
        <ele>465</ele>
        <time>2020-02-23T13:19:53Z</time>
      </trkpt>
      <trkpt lat="46.24727" lon="6.26449">
        <ele>464.79998779297</ele>
        <time>2020-02-23T13:19:54Z</time>
      </trkpt>
      <trkpt lat="46.2472" lon="6.26461">
        <ele>465</ele>
        <time>2020-02-23T13:19:56Z</time>
      </trkpt>
      <trkpt lat="46.24713" lon="6.26473">
        <ele>464.79998779297</ele>
        <time>2020-02-23T13:19:58Z</time>
      </trkpt>
      <trkpt lat="46.24702" lon="6.26491">
        <ele>464.60000610352</ele>
        <time>2020-02-23T13:20:01Z</time>
      </trkpt>
      <trkpt lat="46.24699" lon="6.26497">
        <ele>464.60000610352</ele>
        <time>2020-02-23T13:20:02Z</time>
      </trkpt>
      <trkpt lat="46.24695" lon="6.26503">
        <ele>464.60000610352</ele>
        <time>2020-02-23T13:20:03Z</time>
      </trkpt>
      <trkpt lat="46.24692" lon="6.26509">
        <ele>464.39999389648</ele>
        <time>2020-02-23T13:20:04Z</time>
      </trkpt>
      <trkpt lat="46.2469" lon="6.26514">
        <ele>464.39999389648</ele>
        <time>2020-02-23T13:20:05Z</time>
      </trkpt>
      <trkpt lat="46.24687" lon="6.26519">
        <ele>464.39999389648</ele>
        <time>2020-02-23T13:20:06Z</time>
      </trkpt>
      <trkpt lat="46.24684" lon="6.26523">
        <ele>464.39999389648</ele>
        <time>2020-02-23T13:20:07Z</time>
      </trkpt>
      <trkpt lat="46.24682" lon="6.26526">
        <ele>464.60000610352</ele>
        <time>2020-02-23T13:20:08Z</time>
      </trkpt>
      <trkpt lat="46.24681" lon="6.2653">
        <ele>464.60000610352</ele>
        <time>2020-02-23T13:20:09Z</time>
      </trkpt>
      <trkpt lat="46.2468" lon="6.26533">
        <ele>464.39999389648</ele>
        <time>2020-02-23T13:20:10Z</time>
      </trkpt>
      <trkpt lat="46.24679" lon="6.26536">
        <ele>464.60000610352</ele>
        <time>2020-02-23T13:20:11Z</time>
      </trkpt>
      <trkpt lat="46.24678" lon="6.26538">
        <ele>464.39999389648</ele>
        <time>2020-02-23T13:20:12Z</time>
      </trkpt>
      <trkpt lat="46.24677" lon="6.2654">
        <ele>464.39999389648</ele>
        <time>2020-02-23T13:20:13Z</time>
      </trkpt>
      <trkpt lat="46.24676" lon="6.26542">
        <ele>464.60000610352</ele>
        <time>2020-02-23T13:20:14Z</time>
      </trkpt>
      <trkpt lat="46.24675" lon="6.26544">
        <ele>464.60000610352</ele>
        <time>2020-02-23T13:20:15Z</time>
      </trkpt>
      <trkpt lat="46.24674" lon="6.26547">
        <ele>464.60000610352</ele>
        <time>2020-02-23T13:20:16Z</time>
      </trkpt>
      <trkpt lat="46.24673" lon="6.26549">
        <ele>464.79998779297</ele>
        <time>2020-02-23T13:20:17Z</time>
      </trkpt>
      <trkpt lat="46.24672" lon="6.26551">
        <ele>464.60000610352</ele>
        <time>2020-02-23T13:20:18Z</time>
      </trkpt>
      <trkpt lat="46.2467" lon="6.26555">
        <ele>464.60000610352</ele>
        <time>2020-02-23T13:20:20Z</time>
      </trkpt>
      <trkpt lat="46.24669" lon="6.26556">
        <ele>464.79998779297</ele>
        <time>2020-02-23T13:20:21Z</time>
      </trkpt>
      <trkpt lat="46.24669" lon="6.26557">
        <ele>464.79998779297</ele>
        <time>2020-02-23T13:20:22Z</time>
      </trkpt>
      <trkpt lat="46.24669" lon="6.26557">
        <ele>465</ele>
        <time>2020-02-23T13:20:23Z</time>
      </trkpt>
      <trkpt lat="46.24668" lon="6.26558">
        <ele>465</ele>
        <time>2020-02-23T13:20:31Z</time>
      </trkpt>
      <trkpt lat="46.24668" lon="6.26558">
        <ele>465.20001220703</ele>
        <time>2020-02-23T13:20:42Z</time>
      </trkpt>
      <trkpt lat="46.24668" lon="6.26558">
        <ele>465.39999389648</ele>
        <time>2020-02-23T13:20:51Z</time>
      </trkpt>
      <trkpt lat="46.24668" lon="6.26559">
        <ele>465.79998779297</ele>
        <time>2020-02-23T13:21:02Z</time>
      </trkpt>
      <trkpt lat="46.24668" lon="6.26559">
        <ele>465.39999389648</ele>
        <time>2020-02-23T13:21:20Z</time>
      </trkpt>
      <trkpt lat="46.24667" lon="6.26558">
        <ele>465.39999389648</ele>
        <time>2020-02-23T13:21:30Z</time>
      </trkpt>
      <trkpt lat="46.24666" lon="6.26556">
        <ele>465.39999389648</ele>
        <time>2020-02-23T13:21:32Z</time>
      </trkpt>
      <trkpt lat="46.24665" lon="6.26555">
        <ele>465.39999389648</ele>
        <time>2020-02-23T13:21:33Z</time>
      </trkpt>
      <trkpt lat="46.24663" lon="6.26554">
        <ele>465.60000610352</ele>
        <time>2020-02-23T13:21:34Z</time>
      </trkpt>
      <trkpt lat="46.24662" lon="6.26551">
        <ele>465.60000610352</ele>
        <time>2020-02-23T13:21:35Z</time>
      </trkpt>
      <trkpt lat="46.2466" lon="6.26548">
        <ele>465.60000610352</ele>
        <time>2020-02-23T13:21:36Z</time>
      </trkpt>
      <trkpt lat="46.24658" lon="6.26545">
        <ele>465.60000610352</ele>
        <time>2020-02-23T13:21:37Z</time>
      </trkpt>
      <trkpt lat="46.2465" lon="6.26537">
        <ele>465.39999389648</ele>
        <time>2020-02-23T13:21:39Z</time>
      </trkpt>
      <trkpt lat="46.24646" lon="6.26533">
        <ele>465.39999389648</ele>
        <time>2020-02-23T13:21:40Z</time>
      </trkpt>
      <trkpt lat="46.24641" lon="6.26528">
        <ele>465.20001220703</ele>
        <time>2020-02-23T13:21:41Z</time>
      </trkpt>
      <trkpt lat="46.24637" lon="6.26524">
        <ele>465.20001220703</ele>
        <time>2020-02-23T13:21:42Z</time>
      </trkpt>
      <trkpt lat="46.24632" lon="6.26519">
        <ele>465.20001220703</ele>
        <time>2020-02-23T13:21:43Z</time>
      </trkpt>
      <trkpt lat="46.24627" lon="6.26516">
        <ele>464.79998779297</ele>
        <time>2020-02-23T13:21:44Z</time>
      </trkpt>
      <trkpt lat="46.24623" lon="6.26513">
        <ele>464.39999389648</ele>
        <time>2020-02-23T13:21:45Z</time>
      </trkpt>
      <trkpt lat="46.24619" lon="6.2651">
        <ele>464.39999389648</ele>
        <time>2020-02-23T13:21:46Z</time>
      </trkpt>
      <trkpt lat="46.24615" lon="6.26507">
        <ele>464.39999389648</ele>
        <time>2020-02-23T13:21:47Z</time>
      </trkpt>
      <trkpt lat="46.24612" lon="6.26504">
        <ele>464.20001220703</ele>
        <time>2020-02-23T13:21:48Z</time>
      </trkpt>
      <trkpt lat="46.24609" lon="6.26501">
        <ele>464</ele>
        <time>2020-02-23T13:21:49Z</time>
      </trkpt>
      <trkpt lat="46.24606" lon="6.26498">
        <ele>464</ele>
        <time>2020-02-23T13:21:50Z</time>
      </trkpt>
      <trkpt lat="46.24603" lon="6.26496">
        <ele>464.20001220703</ele>
        <time>2020-02-23T13:21:51Z</time>
      </trkpt>
      <trkpt lat="46.24595" lon="6.2649">
        <ele>464</ele>
        <time>2020-02-23T13:21:53Z</time>
      </trkpt>
      <trkpt lat="46.24589" lon="6.26484">
        <ele>463.79998779297</ele>
        <time>2020-02-23T13:21:55Z</time>
      </trkpt>
      <trkpt lat="46.24585" lon="6.26482">
        <ele>464</ele>
        <time>2020-02-23T13:21:56Z</time>
      </trkpt>
      <trkpt lat="46.24582" lon="6.26479">
        <ele>464</ele>
        <time>2020-02-23T13:21:57Z</time>
      </trkpt>
      <trkpt lat="46.24579" lon="6.26477">
        <ele>463.79998779297</ele>
        <time>2020-02-23T13:21:58Z</time>
      </trkpt>
      <trkpt lat="46.24576" lon="6.26475">
        <ele>463.79998779297</ele>
        <time>2020-02-23T13:21:59Z</time>
      </trkpt>
      <trkpt lat="46.24573" lon="6.26473">
        <ele>463.79998779297</ele>
        <time>2020-02-23T13:22:00Z</time>
      </trkpt>
      <trkpt lat="46.2457" lon="6.26473">
        <ele>463.79998779297</ele>
        <time>2020-02-23T13:22:01Z</time>
      </trkpt>
      <trkpt lat="46.24568" lon="6.26474">
        <ele>463.79998779297</ele>
        <time>2020-02-23T13:22:02Z</time>
      </trkpt>
      <trkpt lat="46.24565" lon="6.26476">
        <ele>464</ele>
        <time>2020-02-23T13:22:03Z</time>
      </trkpt>
      <trkpt lat="46.24562" lon="6.26479">
        <ele>463.79998779297</ele>
        <time>2020-02-23T13:22:04Z</time>
      </trkpt>
      <trkpt lat="46.24561" lon="6.26483">
        <ele>463.79998779297</ele>
        <time>2020-02-23T13:22:05Z</time>
      </trkpt>
      <trkpt lat="46.24559" lon="6.26489">
        <ele>464</ele>
        <time>2020-02-23T13:22:06Z</time>
      </trkpt>
      <trkpt lat="46.24548" lon="6.26535">
        <ele>463.79998779297</ele>
        <time>2020-02-23T13:22:13Z</time>
      </trkpt>
      <trkpt lat="46.24532" lon="6.26597">
        <ele>464.20001220703</ele>
        <time>2020-02-23T13:22:21Z</time>
      </trkpt>
      <trkpt lat="46.24527" lon="6.26613">
        <ele>464</ele>
        <time>2020-02-23T13:22:23Z</time>
      </trkpt>
      <trkpt lat="46.24525" lon="6.2662">
        <ele>464</ele>
        <time>2020-02-23T13:22:24Z</time>
      </trkpt>
      <trkpt lat="46.24523" lon="6.26627">
        <ele>464</ele>
        <time>2020-02-23T13:22:25Z</time>
      </trkpt>
      <trkpt lat="46.2452" lon="6.26634">
        <ele>464</ele>
        <time>2020-02-23T13:22:26Z</time>
      </trkpt>
      <trkpt lat="46.24518" lon="6.2664">
        <ele>464</ele>
        <time>2020-02-23T13:22:27Z</time>
      </trkpt>
      <trkpt lat="46.24516" lon="6.26647">
        <ele>464</ele>
        <time>2020-02-23T13:22:28Z</time>
      </trkpt>
      <trkpt lat="46.24513" lon="6.26653">
        <ele>464</ele>
        <time>2020-02-23T13:22:29Z</time>
      </trkpt>
      <trkpt lat="46.24511" lon="6.26659">
        <ele>464.20001220703</ele>
        <time>2020-02-23T13:22:30Z</time>
      </trkpt>
      <trkpt lat="46.24491" lon="6.26703">
        <ele>464.39999389648</ele>
        <time>2020-02-23T13:22:37Z</time>
      </trkpt>
      <trkpt lat="46.24478" lon="6.26728">
        <ele>464.39999389648</ele>
        <time>2020-02-23T13:22:41Z</time>
      </trkpt>
      <trkpt lat="46.24475" lon="6.26735">
        <ele>464.39999389648</ele>
        <time>2020-02-23T13:22:42Z</time>
      </trkpt>
      <trkpt lat="46.24459" lon="6.26767">
        <ele>464.60000610352</ele>
        <time>2020-02-23T13:22:47Z</time>
      </trkpt>
      <trkpt lat="46.24455" lon="6.26774">
        <ele>464.60000610352</ele>
        <time>2020-02-23T13:22:48Z</time>
      </trkpt>
      <trkpt lat="46.24452" lon="6.2678">
        <ele>464.39999389648</ele>
        <time>2020-02-23T13:22:49Z</time>
      </trkpt>
      <trkpt lat="46.24449" lon="6.26786">
        <ele>464.39999389648</ele>
        <time>2020-02-23T13:22:50Z</time>
      </trkpt>
      <trkpt lat="46.24446" lon="6.26793">
        <ele>464.60000610352</ele>
        <time>2020-02-23T13:22:51Z</time>
      </trkpt>
      <trkpt lat="46.24443" lon="6.26799">
        <ele>464.60000610352</ele>
        <time>2020-02-23T13:22:52Z</time>
      </trkpt>
      <trkpt lat="46.2444" lon="6.26805">
        <ele>464.60000610352</ele>
        <time>2020-02-23T13:22:53Z</time>
      </trkpt>
      <trkpt lat="46.24437" lon="6.26811">
        <ele>464.60000610352</ele>
        <time>2020-02-23T13:22:54Z</time>
      </trkpt>
      <trkpt lat="46.24434" lon="6.26816">
        <ele>464.60000610352</ele>
        <time>2020-02-23T13:22:55Z</time>
      </trkpt>
      <trkpt lat="46.2443" lon="6.26821">
        <ele>464.60000610352</ele>
        <time>2020-02-23T13:22:56Z</time>
      </trkpt>
      <trkpt lat="46.24428" lon="6.26826">
        <ele>464.79998779297</ele>
        <time>2020-02-23T13:22:57Z</time>
      </trkpt>
      <trkpt lat="46.24425" lon="6.26832">
        <ele>464.79998779297</ele>
        <time>2020-02-23T13:22:58Z</time>
      </trkpt>
      <trkpt lat="46.24423" lon="6.26837">
        <ele>465</ele>
        <time>2020-02-23T13:22:59Z</time>
      </trkpt>
      <trkpt lat="46.2442" lon="6.26842">
        <ele>465</ele>
        <time>2020-02-23T13:23:00Z</time>
      </trkpt>
      <trkpt lat="46.24417" lon="6.26847">
        <ele>465</ele>
        <time>2020-02-23T13:23:01Z</time>
      </trkpt>
      <trkpt lat="46.24414" lon="6.26851">
        <ele>465</ele>
        <time>2020-02-23T13:23:02Z</time>
      </trkpt>
      <trkpt lat="46.24411" lon="6.26856">
        <ele>465.20001220703</ele>
        <time>2020-02-23T13:23:03Z</time>
      </trkpt>
      <trkpt lat="46.24408" lon="6.2686">
        <ele>465.20001220703</ele>
        <time>2020-02-23T13:23:04Z</time>
      </trkpt>
      <trkpt lat="46.24405" lon="6.26865">
        <ele>465.39999389648</ele>
        <time>2020-02-23T13:23:05Z</time>
      </trkpt>
      <trkpt lat="46.24402" lon="6.2687">
        <ele>465.79998779297</ele>
        <time>2020-02-23T13:23:06Z</time>
      </trkpt>
      <trkpt lat="46.24399" lon="6.26874">
        <ele>466.20001220703</ele>
        <time>2020-02-23T13:23:07Z</time>
      </trkpt>
      <trkpt lat="46.24395" lon="6.26878">
        <ele>466.60000610352</ele>
        <time>2020-02-23T13:23:08Z</time>
      </trkpt>
      <trkpt lat="46.24392" lon="6.26882">
        <ele>466.79998779297</ele>
        <time>2020-02-23T13:23:09Z</time>
      </trkpt>
      <trkpt lat="46.24389" lon="6.26885">
        <ele>467.20001220703</ele>
        <time>2020-02-23T13:23:10Z</time>
      </trkpt>
      <trkpt lat="46.24386" lon="6.26888">
        <ele>467.20001220703</ele>
        <time>2020-02-23T13:23:11Z</time>
      </trkpt>
      <trkpt lat="46.24383" lon="6.26891">
        <ele>467.39999389648</ele>
        <time>2020-02-23T13:23:12Z</time>
      </trkpt>
      <trkpt lat="46.2438" lon="6.26894">
        <ele>467.39999389648</ele>
        <time>2020-02-23T13:23:13Z</time>
      </trkpt>
      <trkpt lat="46.24359" lon="6.26915">
        <ele>468</ele>
        <time>2020-02-23T13:23:19Z</time>
      </trkpt>
      <trkpt lat="46.24342" lon="6.26931">
        <ele>468.20001220703</ele>
        <time>2020-02-23T13:23:23Z</time>
      </trkpt>
      <trkpt lat="46.24337" lon="6.26935">
        <ele>468.39999389648</ele>
        <time>2020-02-23T13:23:24Z</time>
      </trkpt>
      <trkpt lat="46.24333" lon="6.26939">
        <ele>468.39999389648</ele>
        <time>2020-02-23T13:23:25Z</time>
      </trkpt>
      <trkpt lat="46.24329" lon="6.26943">
        <ele>468.20001220703</ele>
        <time>2020-02-23T13:23:26Z</time>
      </trkpt>
      <trkpt lat="46.24325" lon="6.26946">
        <ele>468.39999389648</ele>
        <time>2020-02-23T13:23:27Z</time>
      </trkpt>
      <trkpt lat="46.24322" lon="6.2695">
        <ele>468.39999389648</ele>
        <time>2020-02-23T13:23:28Z</time>
      </trkpt>
      <trkpt lat="46.24318" lon="6.26953">
        <ele>468.39999389648</ele>
        <time>2020-02-23T13:23:29Z</time>
      </trkpt>
      <trkpt lat="46.24315" lon="6.26956">
        <ele>468.39999389648</ele>
        <time>2020-02-23T13:23:30Z</time>
      </trkpt>
      <trkpt lat="46.24313" lon="6.26959">
        <ele>468.39999389648</ele>
        <time>2020-02-23T13:23:31Z</time>
      </trkpt>
      <trkpt lat="46.2431" lon="6.26962">
        <ele>468.60000610352</ele>
        <time>2020-02-23T13:23:32Z</time>
      </trkpt>
      <trkpt lat="46.24307" lon="6.26964">
        <ele>468.60000610352</ele>
        <time>2020-02-23T13:23:33Z</time>
      </trkpt>
      <trkpt lat="46.24305" lon="6.26967">
        <ele>469</ele>
        <time>2020-02-23T13:23:34Z</time>
      </trkpt>
      <trkpt lat="46.24302" lon="6.26969">
        <ele>469</ele>
        <time>2020-02-23T13:23:35Z</time>
      </trkpt>
      <trkpt lat="46.24299" lon="6.26972">
        <ele>469.20001220703</ele>
        <time>2020-02-23T13:23:36Z</time>
      </trkpt>
      <trkpt lat="46.24296" lon="6.26975">
        <ele>469.20001220703</ele>
        <time>2020-02-23T13:23:37Z</time>
      </trkpt>
      <trkpt lat="46.24292" lon="6.26978">
        <ele>469.39999389648</ele>
        <time>2020-02-23T13:23:38Z</time>
      </trkpt>
      <trkpt lat="46.24289" lon="6.26981">
        <ele>469.39999389648</ele>
        <time>2020-02-23T13:23:39Z</time>
      </trkpt>
      <trkpt lat="46.24286" lon="6.26984">
        <ele>469.79998779297</ele>
        <time>2020-02-23T13:23:40Z</time>
      </trkpt>
      <trkpt lat="46.24282" lon="6.26987">
        <ele>470</ele>
        <time>2020-02-23T13:23:41Z</time>
      </trkpt>
      <trkpt lat="46.24271" lon="6.26997">
        <ele>470.20001220703</ele>
        <time>2020-02-23T13:23:44Z</time>
      </trkpt>
      <trkpt lat="46.24261" lon="6.27006">
        <ele>470.60000610352</ele>
        <time>2020-02-23T13:23:47Z</time>
      </trkpt>
      <trkpt lat="46.24257" lon="6.2701">
        <ele>470.79998779297</ele>
        <time>2020-02-23T13:23:48Z</time>
      </trkpt>
      <trkpt lat="46.2425" lon="6.27016">
        <ele>470.79998779297</ele>
        <time>2020-02-23T13:23:50Z</time>
      </trkpt>
      <trkpt lat="46.24247" lon="6.27018">
        <ele>470.79998779297</ele>
        <time>2020-02-23T13:23:51Z</time>
      </trkpt>
      <trkpt lat="46.24244" lon="6.27021">
        <ele>471</ele>
        <time>2020-02-23T13:23:52Z</time>
      </trkpt>
      <trkpt lat="46.24241" lon="6.27023">
        <ele>471.20001220703</ele>
        <time>2020-02-23T13:23:53Z</time>
      </trkpt>
      <trkpt lat="46.24239" lon="6.27026">
        <ele>471.20001220703</ele>
        <time>2020-02-23T13:23:54Z</time>
      </trkpt>
      <trkpt lat="46.24237" lon="6.27028">
        <ele>471.20001220703</ele>
        <time>2020-02-23T13:23:55Z</time>
      </trkpt>
      <trkpt lat="46.24235" lon="6.2703">
        <ele>471.39999389648</ele>
        <time>2020-02-23T13:23:56Z</time>
      </trkpt>
      <trkpt lat="46.24233" lon="6.27033">
        <ele>471.39999389648</ele>
        <time>2020-02-23T13:23:57Z</time>
      </trkpt>
      <trkpt lat="46.24231" lon="6.27035">
        <ele>471.60000610352</ele>
        <time>2020-02-23T13:23:58Z</time>
      </trkpt>
      <trkpt lat="46.2423" lon="6.27037">
        <ele>471.79998779297</ele>
        <time>2020-02-23T13:23:59Z</time>
      </trkpt>
      <trkpt lat="46.24228" lon="6.27038">
        <ele>471.79998779297</ele>
        <time>2020-02-23T13:24:00Z</time>
      </trkpt>
      <trkpt lat="46.24226" lon="6.2704">
        <ele>472.20001220703</ele>
        <time>2020-02-23T13:24:01Z</time>
      </trkpt>
      <trkpt lat="46.24225" lon="6.27042">
        <ele>472.39999389648</ele>
        <time>2020-02-23T13:24:02Z</time>
      </trkpt>
      <trkpt lat="46.24224" lon="6.27044">
        <ele>472.60000610352</ele>
        <time>2020-02-23T13:24:03Z</time>
      </trkpt>
      <trkpt lat="46.24225" lon="6.27046">
        <ele>472.79998779297</ele>
        <time>2020-02-23T13:24:04Z</time>
      </trkpt>
      <trkpt lat="46.24226" lon="6.27046">
        <ele>473</ele>
        <time>2020-02-23T13:24:05Z</time>
      </trkpt>
      <trkpt lat="46.24228" lon="6.27044">
        <ele>473</ele>
        <time>2020-02-23T13:24:06Z</time>
      </trkpt>
      <trkpt lat="46.2423" lon="6.27041">
        <ele>473</ele>
        <time>2020-02-23T13:24:07Z</time>
      </trkpt>
      <trkpt lat="46.24231" lon="6.27038">
        <ele>473</ele>
        <time>2020-02-23T13:24:08Z</time>
      </trkpt>
      <trkpt lat="46.24233" lon="6.27033">
        <ele>473</ele>
        <time>2020-02-23T13:24:09Z</time>
      </trkpt>
      <trkpt lat="46.24234" lon="6.27029">
        <ele>473.20001220703</ele>
        <time>2020-02-23T13:24:10Z</time>
      </trkpt>
      <trkpt lat="46.24234" lon="6.27026">
        <ele>473</ele>
        <time>2020-02-23T13:24:11Z</time>
      </trkpt>
      <trkpt lat="46.24233" lon="6.27024">
        <ele>473.20001220703</ele>
        <time>2020-02-23T13:24:12Z</time>
      </trkpt>
      <trkpt lat="46.24233" lon="6.27024">
        <ele>473</ele>
        <time>2020-02-23T13:24:13Z</time>
      </trkpt>
      <trkpt lat="46.24233" lon="6.27023">
        <ele>473.20001220703</ele>
        <time>2020-02-23T13:24:16Z</time>
      </trkpt>
      <trkpt lat="46.24234" lon="6.2702">
        <ele>473.20001220703</ele>
        <time>2020-02-23T13:24:19Z</time>
      </trkpt>
      <trkpt lat="46.24234" lon="6.27018">
        <ele>473.20001220703</ele>
        <time>2020-02-23T13:24:20Z</time>
      </trkpt>
      <trkpt lat="46.24234" lon="6.27016">
        <ele>473.20001220703</ele>
        <time>2020-02-23T13:24:21Z</time>
      </trkpt>
      <trkpt lat="46.24233" lon="6.27013">
        <ele>473.20001220703</ele>
        <time>2020-02-23T13:24:22Z</time>
      </trkpt>
      <trkpt lat="46.24233" lon="6.27011">
        <ele>473.20001220703</ele>
        <time>2020-02-23T13:24:23Z</time>
      </trkpt>
      <trkpt lat="46.24232" lon="6.27009">
        <ele>473.20001220703</ele>
        <time>2020-02-23T13:24:24Z</time>
      </trkpt>
      <trkpt lat="46.24231" lon="6.27006">
        <ele>473</ele>
        <time>2020-02-23T13:24:25Z</time>
      </trkpt>
      <trkpt lat="46.2423" lon="6.27003">
        <ele>473.20001220703</ele>
        <time>2020-02-23T13:24:26Z</time>
      </trkpt>
      <trkpt lat="46.24228" lon="6.27001">
        <ele>473.20001220703</ele>
        <time>2020-02-23T13:24:27Z</time>
      </trkpt>
      <trkpt lat="46.24223" lon="6.26995">
        <ele>473.20001220703</ele>
        <time>2020-02-23T13:24:29Z</time>
      </trkpt>
      <trkpt lat="46.2422" lon="6.26991">
        <ele>473.20001220703</ele>
        <time>2020-02-23T13:24:30Z</time>
      </trkpt>
      <trkpt lat="46.24206" lon="6.26967">
        <ele>473.20001220703</ele>
        <time>2020-02-23T13:24:35Z</time>
      </trkpt>
      <trkpt lat="46.2419" lon="6.26939">
        <ele>473</ele>
        <time>2020-02-23T13:24:40Z</time>
      </trkpt>
      <trkpt lat="46.24187" lon="6.26934">
        <ele>472.79998779297</ele>
        <time>2020-02-23T13:24:41Z</time>
      </trkpt>
      <trkpt lat="46.24184" lon="6.26928">
        <ele>472.79998779297</ele>
        <time>2020-02-23T13:24:42Z</time>
      </trkpt>
      <trkpt lat="46.24181" lon="6.26923">
        <ele>472.79998779297</ele>
        <time>2020-02-23T13:24:43Z</time>
      </trkpt>
      <trkpt lat="46.24178" lon="6.26918">
        <ele>472.79998779297</ele>
        <time>2020-02-23T13:24:44Z</time>
      </trkpt>
      <trkpt lat="46.24175" lon="6.26912">
        <ele>472.60000610352</ele>
        <time>2020-02-23T13:24:45Z</time>
      </trkpt>
      <trkpt lat="46.24173" lon="6.26907">
        <ele>472.39999389648</ele>
        <time>2020-02-23T13:24:46Z</time>
      </trkpt>
      <trkpt lat="46.2417" lon="6.26902">
        <ele>472.20001220703</ele>
        <time>2020-02-23T13:24:47Z</time>
      </trkpt>
      <trkpt lat="46.24168" lon="6.26897">
        <ele>472.20001220703</ele>
        <time>2020-02-23T13:24:48Z</time>
      </trkpt>
      <trkpt lat="46.24162" lon="6.26886">
        <ele>472</ele>
        <time>2020-02-23T13:24:50Z</time>
      </trkpt>
      <trkpt lat="46.24146" lon="6.26846">
        <ele>471.79998779297</ele>
        <time>2020-02-23T13:24:56Z</time>
      </trkpt>
      <trkpt lat="46.2414" lon="6.26833">
        <ele>471.60000610352</ele>
        <time>2020-02-23T13:24:58Z</time>
      </trkpt>
      <trkpt lat="46.24138" lon="6.26826">
        <ele>471.60000610352</ele>
        <time>2020-02-23T13:24:59Z</time>
      </trkpt>
      <trkpt lat="46.24136" lon="6.26819">
        <ele>471.79998779297</ele>
        <time>2020-02-23T13:25:00Z</time>
      </trkpt>
      <trkpt lat="46.24134" lon="6.26813">
        <ele>471.79998779297</ele>
        <time>2020-02-23T13:25:01Z</time>
      </trkpt>
      <trkpt lat="46.24133" lon="6.26807">
        <ele>471.60000610352</ele>
        <time>2020-02-23T13:25:02Z</time>
      </trkpt>
      <trkpt lat="46.24131" lon="6.268">
        <ele>471.20001220703</ele>
        <time>2020-02-23T13:25:03Z</time>
      </trkpt>
      <trkpt lat="46.24129" lon="6.26794">
        <ele>471.20001220703</ele>
        <time>2020-02-23T13:25:04Z</time>
      </trkpt>
      <trkpt lat="46.24128" lon="6.26787">
        <ele>471</ele>
        <time>2020-02-23T13:25:05Z</time>
      </trkpt>
      <trkpt lat="46.24117" lon="6.26738">
        <ele>470.39999389648</ele>
        <time>2020-02-23T13:25:11Z</time>
      </trkpt>
      <trkpt lat="46.24115" lon="6.26729">
        <ele>470.39999389648</ele>
        <time>2020-02-23T13:25:12Z</time>
      </trkpt>
      <trkpt lat="46.24111" lon="6.26709">
        <ele>470.20001220703</ele>
        <time>2020-02-23T13:25:14Z</time>
      </trkpt>
      <trkpt lat="46.24106" lon="6.26688">
        <ele>469.79998779297</ele>
        <time>2020-02-23T13:25:16Z</time>
      </trkpt>
      <trkpt lat="46.24102" lon="6.26668">
        <ele>469.79998779297</ele>
        <time>2020-02-23T13:25:18Z</time>
      </trkpt>
      <trkpt lat="46.24098" lon="6.26647">
        <ele>469.39999389648</ele>
        <time>2020-02-23T13:25:20Z</time>
      </trkpt>
      <trkpt lat="46.24095" lon="6.26637">
        <ele>469.20001220703</ele>
        <time>2020-02-23T13:25:21Z</time>
      </trkpt>
      <trkpt lat="46.24092" lon="6.26628">
        <ele>468.60000610352</ele>
        <time>2020-02-23T13:25:22Z</time>
      </trkpt>
      <trkpt lat="46.24089" lon="6.26619">
        <ele>468.20001220703</ele>
        <time>2020-02-23T13:25:23Z</time>
      </trkpt>
      <trkpt lat="46.24086" lon="6.2661">
        <ele>467.60000610352</ele>
        <time>2020-02-23T13:25:24Z</time>
      </trkpt>
      <trkpt lat="46.24082" lon="6.26602">
        <ele>467.20001220703</ele>
        <time>2020-02-23T13:25:25Z</time>
      </trkpt>
      <trkpt lat="46.24079" lon="6.26594">
        <ele>467</ele>
        <time>2020-02-23T13:25:26Z</time>
      </trkpt>
      <trkpt lat="46.24075" lon="6.26587">
        <ele>467</ele>
        <time>2020-02-23T13:25:27Z</time>
      </trkpt>
      <trkpt lat="46.24072" lon="6.2658">
        <ele>467</ele>
        <time>2020-02-23T13:25:28Z</time>
      </trkpt>
      <trkpt lat="46.24068" lon="6.26573">
        <ele>466.79998779297</ele>
        <time>2020-02-23T13:25:29Z</time>
      </trkpt>
      <trkpt lat="46.24065" lon="6.26567">
        <ele>466.60000610352</ele>
        <time>2020-02-23T13:25:30Z</time>
      </trkpt>
      <trkpt lat="46.24061" lon="6.2656">
        <ele>466.20001220703</ele>
        <time>2020-02-23T13:25:31Z</time>
      </trkpt>
      <trkpt lat="46.24057" lon="6.26554">
        <ele>466.20001220703</ele>
        <time>2020-02-23T13:25:32Z</time>
      </trkpt>
      <trkpt lat="46.24053" lon="6.26548">
        <ele>465.79998779297</ele>
        <time>2020-02-23T13:25:33Z</time>
      </trkpt>
      <trkpt lat="46.24049" lon="6.26542">
        <ele>465.79998779297</ele>
        <time>2020-02-23T13:25:34Z</time>
      </trkpt>
      <trkpt lat="46.24046" lon="6.26535">
        <ele>465.60000610352</ele>
        <time>2020-02-23T13:25:35Z</time>
      </trkpt>
      <trkpt lat="46.24043" lon="6.26529">
        <ele>465.60000610352</ele>
        <time>2020-02-23T13:25:36Z</time>
      </trkpt>
      <trkpt lat="46.2404" lon="6.26522">
        <ele>465.39999389648</ele>
        <time>2020-02-23T13:25:37Z</time>
      </trkpt>
      <trkpt lat="46.24034" lon="6.26508">
        <ele>465.39999389648</ele>
        <time>2020-02-23T13:25:39Z</time>
      </trkpt>
      <trkpt lat="46.24025" lon="6.26487">
        <ele>465.39999389648</ele>
        <time>2020-02-23T13:25:42Z</time>
      </trkpt>
      <trkpt lat="46.24021" lon="6.26481">
        <ele>465.39999389648</ele>
        <time>2020-02-23T13:25:43Z</time>
      </trkpt>
      <trkpt lat="46.24017" lon="6.26476">
        <ele>465.39999389648</ele>
        <time>2020-02-23T13:25:44Z</time>
      </trkpt>
      <trkpt lat="46.24013" lon="6.26471">
        <ele>465.20001220703</ele>
        <time>2020-02-23T13:25:45Z</time>
      </trkpt>
      <trkpt lat="46.24008" lon="6.26466">
        <ele>465.20001220703</ele>
        <time>2020-02-23T13:25:46Z</time>
      </trkpt>
      <trkpt lat="46.23985" lon="6.26443">
        <ele>464.79998779297</ele>
        <time>2020-02-23T13:25:51Z</time>
      </trkpt>
      <trkpt lat="46.2398" lon="6.26439">
        <ele>464.79998779297</ele>
        <time>2020-02-23T13:25:52Z</time>
      </trkpt>
      <trkpt lat="46.23975" lon="6.26436">
        <ele>464.79998779297</ele>
        <time>2020-02-23T13:25:53Z</time>
      </trkpt>
      <trkpt lat="46.23969" lon="6.26432">
        <ele>464.79998779297</ele>
        <time>2020-02-23T13:25:54Z</time>
      </trkpt>
      <trkpt lat="46.23964" lon="6.26429">
        <ele>464.60000610352</ele>
        <time>2020-02-23T13:25:55Z</time>
      </trkpt>
      <trkpt lat="46.2396" lon="6.26425">
        <ele>464.60000610352</ele>
        <time>2020-02-23T13:25:56Z</time>
      </trkpt>
      <trkpt lat="46.23955" lon="6.26422">
        <ele>464.39999389648</ele>
        <time>2020-02-23T13:25:57Z</time>
      </trkpt>
      <trkpt lat="46.2395" lon="6.26418">
        <ele>464.60000610352</ele>
        <time>2020-02-23T13:25:58Z</time>
      </trkpt>
      <trkpt lat="46.23946" lon="6.26415">
        <ele>464.60000610352</ele>
        <time>2020-02-23T13:25:59Z</time>
      </trkpt>
      <trkpt lat="46.23941" lon="6.26411">
        <ele>464.60000610352</ele>
        <time>2020-02-23T13:26:00Z</time>
      </trkpt>
      <trkpt lat="46.23936" lon="6.26408">
        <ele>464.79998779297</ele>
        <time>2020-02-23T13:26:01Z</time>
      </trkpt>
      <trkpt lat="46.23932" lon="6.26404">
        <ele>464.60000610352</ele>
        <time>2020-02-23T13:26:02Z</time>
      </trkpt>
      <trkpt lat="46.23928" lon="6.26401">
        <ele>464.79998779297</ele>
        <time>2020-02-23T13:26:03Z</time>
      </trkpt>
      <trkpt lat="46.23923" lon="6.26397">
        <ele>464.79998779297</ele>
        <time>2020-02-23T13:26:04Z</time>
      </trkpt>
      <trkpt lat="46.23919" lon="6.26393">
        <ele>465</ele>
        <time>2020-02-23T13:26:05Z</time>
      </trkpt>
      <trkpt lat="46.23915" lon="6.2639">
        <ele>465.20001220703</ele>
        <time>2020-02-23T13:26:06Z</time>
      </trkpt>
      <trkpt lat="46.23911" lon="6.26386">
        <ele>465.20001220703</ele>
        <time>2020-02-23T13:26:07Z</time>
      </trkpt>
      <trkpt lat="46.23908" lon="6.26383">
        <ele>465</ele>
        <time>2020-02-23T13:26:08Z</time>
      </trkpt>
      <trkpt lat="46.23904" lon="6.26379">
        <ele>465.20001220703</ele>
        <time>2020-02-23T13:26:09Z</time>
      </trkpt>
      <trkpt lat="46.23901" lon="6.26376">
        <ele>465</ele>
        <time>2020-02-23T13:26:10Z</time>
      </trkpt>
      <trkpt lat="46.23897" lon="6.26372">
        <ele>465.20001220703</ele>
        <time>2020-02-23T13:26:11Z</time>
      </trkpt>
      <trkpt lat="46.23893" lon="6.26369">
        <ele>465.39999389648</ele>
        <time>2020-02-23T13:26:12Z</time>
      </trkpt>
      <trkpt lat="46.2389" lon="6.26365">
        <ele>465.60000610352</ele>
        <time>2020-02-23T13:26:13Z</time>
      </trkpt>
      <trkpt lat="46.23886" lon="6.26362">
        <ele>465.60000610352</ele>
        <time>2020-02-23T13:26:14Z</time>
      </trkpt>
      <trkpt lat="46.23883" lon="6.26358">
        <ele>465.79998779297</ele>
        <time>2020-02-23T13:26:15Z</time>
      </trkpt>
      <trkpt lat="46.2388" lon="6.26354">
        <ele>465.60000610352</ele>
        <time>2020-02-23T13:26:16Z</time>
      </trkpt>
      <trkpt lat="46.23877" lon="6.26351">
        <ele>465.60000610352</ele>
        <time>2020-02-23T13:26:17Z</time>
      </trkpt>
      <trkpt lat="46.23873" lon="6.26347">
        <ele>465.60000610352</ele>
        <time>2020-02-23T13:26:18Z</time>
      </trkpt>
      <trkpt lat="46.2387" lon="6.26344">
        <ele>466</ele>
        <time>2020-02-23T13:26:19Z</time>
      </trkpt>
      <trkpt lat="46.23867" lon="6.2634">
        <ele>465.79998779297</ele>
        <time>2020-02-23T13:26:20Z</time>
      </trkpt>
      <trkpt lat="46.23863" lon="6.26337">
        <ele>466</ele>
        <time>2020-02-23T13:26:21Z</time>
      </trkpt>
      <trkpt lat="46.2386" lon="6.26333">
        <ele>466</ele>
        <time>2020-02-23T13:26:22Z</time>
      </trkpt>
      <trkpt lat="46.23856" lon="6.2633">
        <ele>466.39999389648</ele>
        <time>2020-02-23T13:26:23Z</time>
      </trkpt>
      <trkpt lat="46.23846" lon="6.26319">
        <ele>467.79998779297</ele>
        <time>2020-02-23T13:26:26Z</time>
      </trkpt>
      <trkpt lat="46.23838" lon="6.26312">
        <ele>467.79998779297</ele>
        <time>2020-02-23T13:26:28Z</time>
      </trkpt>
      <trkpt lat="46.23803" lon="6.26279">
        <ele>468</ele>
        <time>2020-02-23T13:26:37Z</time>
      </trkpt>
      <trkpt lat="46.23799" lon="6.26275">
        <ele>468</ele>
        <time>2020-02-23T13:26:38Z</time>
      </trkpt>
      <trkpt lat="46.23795" lon="6.26272">
        <ele>467.79998779297</ele>
        <time>2020-02-23T13:26:39Z</time>
      </trkpt>
      <trkpt lat="46.23791" lon="6.26268">
        <ele>468</ele>
        <time>2020-02-23T13:26:40Z</time>
      </trkpt>
      <trkpt lat="46.23788" lon="6.26265">
        <ele>468</ele>
        <time>2020-02-23T13:26:41Z</time>
      </trkpt>
      <trkpt lat="46.23784" lon="6.26261">
        <ele>468</ele>
        <time>2020-02-23T13:26:42Z</time>
      </trkpt>
      <trkpt lat="46.2378" lon="6.26258">
        <ele>467.79998779297</ele>
        <time>2020-02-23T13:26:43Z</time>
      </trkpt>
      <trkpt lat="46.23776" lon="6.26255">
        <ele>468</ele>
        <time>2020-02-23T13:26:44Z</time>
      </trkpt>
      <trkpt lat="46.23773" lon="6.26252">
        <ele>468</ele>
        <time>2020-02-23T13:26:45Z</time>
      </trkpt>
      <trkpt lat="46.23769" lon="6.26249">
        <ele>468</ele>
        <time>2020-02-23T13:26:46Z</time>
      </trkpt>
      <trkpt lat="46.23766" lon="6.26247">
        <ele>468</ele>
        <time>2020-02-23T13:26:47Z</time>
      </trkpt>
      <trkpt lat="46.23763" lon="6.26244">
        <ele>468.20001220703</ele>
        <time>2020-02-23T13:26:48Z</time>
      </trkpt>
      <trkpt lat="46.2376" lon="6.26243">
        <ele>468.20001220703</ele>
        <time>2020-02-23T13:26:49Z</time>
      </trkpt>
      <trkpt lat="46.23757" lon="6.26241">
        <ele>468.39999389648</ele>
        <time>2020-02-23T13:26:50Z</time>
      </trkpt>
      <trkpt lat="46.23755" lon="6.2624">
        <ele>468.39999389648</ele>
        <time>2020-02-23T13:26:51Z</time>
      </trkpt>
      <trkpt lat="46.23752" lon="6.2624">
        <ele>468.39999389648</ele>
        <time>2020-02-23T13:26:52Z</time>
      </trkpt>
      <trkpt lat="46.2375" lon="6.2624">
        <ele>468.39999389648</ele>
        <time>2020-02-23T13:26:53Z</time>
      </trkpt>
      <trkpt lat="46.23748" lon="6.2624">
        <ele>468.60000610352</ele>
        <time>2020-02-23T13:26:54Z</time>
      </trkpt>
      <trkpt lat="46.23746" lon="6.2624">
        <ele>468.60000610352</ele>
        <time>2020-02-23T13:26:55Z</time>
      </trkpt>
      <trkpt lat="46.23745" lon="6.2624">
        <ele>468.79998779297</ele>
        <time>2020-02-23T13:26:56Z</time>
      </trkpt>
      <trkpt lat="46.23743" lon="6.26239">
        <ele>468.79998779297</ele>
        <time>2020-02-23T13:26:57Z</time>
      </trkpt>
      <trkpt lat="46.23742" lon="6.26237">
        <ele>468.79998779297</ele>
        <time>2020-02-23T13:26:58Z</time>
      </trkpt>
      <trkpt lat="46.23742" lon="6.26234">
        <ele>469</ele>
        <time>2020-02-23T13:26:59Z</time>
      </trkpt>
      <trkpt lat="46.23737" lon="6.26223">
        <ele>469.60000610352</ele>
        <time>2020-02-23T13:27:03Z</time>
      </trkpt>
      <trkpt lat="46.23735" lon="6.26221">
        <ele>469.79998779297</ele>
        <time>2020-02-23T13:27:04Z</time>
      </trkpt>
      <trkpt lat="46.23733" lon="6.26219">
        <ele>469.60000610352</ele>
        <time>2020-02-23T13:27:05Z</time>
      </trkpt>
      <trkpt lat="46.23731" lon="6.26218">
        <ele>469.79998779297</ele>
        <time>2020-02-23T13:27:06Z</time>
      </trkpt>
      <trkpt lat="46.2373" lon="6.26218">
        <ele>469.79998779297</ele>
        <time>2020-02-23T13:27:07Z</time>
      </trkpt>
      <trkpt lat="46.2373" lon="6.26218">
        <ele>469.60000610352</ele>
        <time>2020-02-23T13:27:08Z</time>
      </trkpt>
      <trkpt lat="46.23731" lon="6.26218">
        <ele>470</ele>
        <time>2020-02-23T13:27:17Z</time>
      </trkpt>
      <trkpt lat="46.23731" lon="6.26218">
        <ele>470.79998779297</ele>
        <time>2020-02-23T13:29:22Z</time>
      </trkpt>
      <trkpt lat="46.23731" lon="6.26218">
        <ele>470.39999389648</ele>
        <time>2020-02-23T13:29:56Z</time>
      </trkpt>
      <trkpt lat="46.23731" lon="6.26218">
        <ele>470.60000610352</ele>
        <time>2020-02-23T13:30:28Z</time>
      </trkpt>
      <trkpt lat="46.23731" lon="6.26219">
        <ele>470.79998779297</ele>
        <time>2020-02-23T13:31:12Z</time>
      </trkpt>
      <trkpt lat="46.23731" lon="6.26219">
        <ele>470.60000610352</ele>
        <time>2020-02-23T13:31:51Z</time>
      </trkpt>
      <trkpt lat="46.2373" lon="6.2622">
        <ele>470.39999389648</ele>
        <time>2020-02-23T13:32:07Z</time>
      </trkpt>
      <trkpt lat="46.2373" lon="6.26222">
        <ele>470.60000610352</ele>
        <time>2020-02-23T13:32:09Z</time>
      </trkpt>
      <trkpt lat="46.23731" lon="6.26222">
        <ele>470.60000610352</ele>
        <time>2020-02-23T13:32:12Z</time>
      </trkpt>
      <trkpt lat="46.23731" lon="6.26227">
        <ele>470.79998779297</ele>
        <time>2020-02-23T13:32:15Z</time>
      </trkpt>
      <trkpt lat="46.23732" lon="6.26229">
        <ele>470.79998779297</ele>
        <time>2020-02-23T13:32:16Z</time>
      </trkpt>
      <trkpt lat="46.23733" lon="6.26231">
        <ele>471</ele>
        <time>2020-02-23T13:32:17Z</time>
      </trkpt>
      <trkpt lat="46.23734" lon="6.26234">
        <ele>471</ele>
        <time>2020-02-23T13:32:18Z</time>
      </trkpt>
      <trkpt lat="46.23734" lon="6.26239">
        <ele>471</ele>
        <time>2020-02-23T13:32:19Z</time>
      </trkpt>
      <trkpt lat="46.23734" lon="6.26244">
        <ele>471.20001220703</ele>
        <time>2020-02-23T13:32:20Z</time>
      </trkpt>
      <trkpt lat="46.23732" lon="6.26249">
        <ele>471</ele>
        <time>2020-02-23T13:32:21Z</time>
      </trkpt>
      <trkpt lat="46.23729" lon="6.26253">
        <ele>471</ele>
        <time>2020-02-23T13:32:22Z</time>
      </trkpt>
      <trkpt lat="46.23727" lon="6.26258">
        <ele>471</ele>
        <time>2020-02-23T13:32:23Z</time>
      </trkpt>
      <trkpt lat="46.23721" lon="6.26266">
        <ele>471.20001220703</ele>
        <time>2020-02-23T13:32:25Z</time>
      </trkpt>
      <trkpt lat="46.23718" lon="6.2627">
        <ele>471</ele>
        <time>2020-02-23T13:32:26Z</time>
      </trkpt>
      <trkpt lat="46.23715" lon="6.26273">
        <ele>471</ele>
        <time>2020-02-23T13:32:27Z</time>
      </trkpt>
      <trkpt lat="46.23713" lon="6.26277">
        <ele>471</ele>
        <time>2020-02-23T13:32:28Z</time>
      </trkpt>
      <trkpt lat="46.2371" lon="6.26281">
        <ele>471</ele>
        <time>2020-02-23T13:32:29Z</time>
      </trkpt>
      <trkpt lat="46.23704" lon="6.26287">
        <ele>471</ele>
        <time>2020-02-23T13:32:31Z</time>
      </trkpt>
      <trkpt lat="46.23697" lon="6.26294">
        <ele>470.39999389648</ele>
        <time>2020-02-23T13:32:33Z</time>
      </trkpt>
      <trkpt lat="46.23694" lon="6.26297">
        <ele>470</ele>
        <time>2020-02-23T13:32:34Z</time>
      </trkpt>
      <trkpt lat="46.2369" lon="6.263">
        <ele>469.79998779297</ele>
        <time>2020-02-23T13:32:35Z</time>
      </trkpt>
      <trkpt lat="46.23687" lon="6.26304">
        <ele>469.60000610352</ele>
        <time>2020-02-23T13:32:36Z</time>
      </trkpt>
      <trkpt lat="46.23684" lon="6.26308">
        <ele>469.60000610352</ele>
        <time>2020-02-23T13:32:37Z</time>
      </trkpt>
      <trkpt lat="46.2367" lon="6.26325">
        <ele>469.60000610352</ele>
        <time>2020-02-23T13:32:41Z</time>
      </trkpt>
      <trkpt lat="46.23663" lon="6.26333">
        <ele>469.60000610352</ele>
        <time>2020-02-23T13:32:43Z</time>
      </trkpt>
      <trkpt lat="46.2366" lon="6.26337">
        <ele>469.60000610352</ele>
        <time>2020-02-23T13:32:44Z</time>
      </trkpt>
      <trkpt lat="46.23657" lon="6.26341">
        <ele>469.60000610352</ele>
        <time>2020-02-23T13:32:45Z</time>
      </trkpt>
      <trkpt lat="46.23654" lon="6.26345">
        <ele>469.60000610352</ele>
        <time>2020-02-23T13:32:46Z</time>
      </trkpt>
      <trkpt lat="46.23651" lon="6.2635">
        <ele>469.79998779297</ele>
        <time>2020-02-23T13:32:47Z</time>
      </trkpt>
      <trkpt lat="46.23648" lon="6.26354">
        <ele>469.79998779297</ele>
        <time>2020-02-23T13:32:48Z</time>
      </trkpt>
      <trkpt lat="46.23645" lon="6.26358">
        <ele>469.79998779297</ele>
        <time>2020-02-23T13:32:49Z</time>
      </trkpt>
      <trkpt lat="46.23642" lon="6.26363">
        <ele>470</ele>
        <time>2020-02-23T13:32:50Z</time>
      </trkpt>
      <trkpt lat="46.23639" lon="6.26368">
        <ele>470</ele>
        <time>2020-02-23T13:32:51Z</time>
      </trkpt>
      <trkpt lat="46.23636" lon="6.26372">
        <ele>470</ele>
        <time>2020-02-23T13:32:52Z</time>
      </trkpt>
      <trkpt lat="46.23634" lon="6.26378">
        <ele>470</ele>
        <time>2020-02-23T13:32:53Z</time>
      </trkpt>
      <trkpt lat="46.23631" lon="6.26383">
        <ele>470.20001220703</ele>
        <time>2020-02-23T13:32:54Z</time>
      </trkpt>
      <trkpt lat="46.23629" lon="6.26388">
        <ele>470.20001220703</ele>
        <time>2020-02-23T13:32:55Z</time>
      </trkpt>
      <trkpt lat="46.23627" lon="6.26394">
        <ele>470.39999389648</ele>
        <time>2020-02-23T13:32:56Z</time>
      </trkpt>
      <trkpt lat="46.23624" lon="6.26399">
        <ele>470.60000610352</ele>
        <time>2020-02-23T13:32:57Z</time>
      </trkpt>
      <trkpt lat="46.23622" lon="6.26404">
        <ele>470.60000610352</ele>
        <time>2020-02-23T13:32:58Z</time>
      </trkpt>
      <trkpt lat="46.2362" lon="6.2641">
        <ele>470.79998779297</ele>
        <time>2020-02-23T13:32:59Z</time>
      </trkpt>
      <trkpt lat="46.23618" lon="6.26415">
        <ele>471</ele>
        <time>2020-02-23T13:33:00Z</time>
      </trkpt>
      <trkpt lat="46.23617" lon="6.26421">
        <ele>471.39999389648</ele>
        <time>2020-02-23T13:33:01Z</time>
      </trkpt>
      <trkpt lat="46.23615" lon="6.26426">
        <ele>471.79998779297</ele>
        <time>2020-02-23T13:33:02Z</time>
      </trkpt>
      <trkpt lat="46.23613" lon="6.26431">
        <ele>472.20001220703</ele>
        <time>2020-02-23T13:33:03Z</time>
      </trkpt>
      <trkpt lat="46.23612" lon="6.26436">
        <ele>472.60000610352</ele>
        <time>2020-02-23T13:33:04Z</time>
      </trkpt>
      <trkpt lat="46.2361" lon="6.26441">
        <ele>472.60000610352</ele>
        <time>2020-02-23T13:33:05Z</time>
      </trkpt>
      <trkpt lat="46.23609" lon="6.26445">
        <ele>472.79998779297</ele>
        <time>2020-02-23T13:33:06Z</time>
      </trkpt>
      <trkpt lat="46.23608" lon="6.26448">
        <ele>472.79998779297</ele>
        <time>2020-02-23T13:33:07Z</time>
      </trkpt>
      <trkpt lat="46.23607" lon="6.26452">
        <ele>473</ele>
        <time>2020-02-23T13:33:08Z</time>
      </trkpt>
      <trkpt lat="46.23605" lon="6.26455">
        <ele>473</ele>
        <time>2020-02-23T13:33:09Z</time>
      </trkpt>
      <trkpt lat="46.23604" lon="6.26459">
        <ele>473</ele>
        <time>2020-02-23T13:33:10Z</time>
      </trkpt>
      <trkpt lat="46.23603" lon="6.26462">
        <ele>473.20001220703</ele>
        <time>2020-02-23T13:33:11Z</time>
      </trkpt>
      <trkpt lat="46.23602" lon="6.26466">
        <ele>473.20001220703</ele>
        <time>2020-02-23T13:33:12Z</time>
      </trkpt>
      <trkpt lat="46.23599" lon="6.26474">
        <ele>473.60000610352</ele>
        <time>2020-02-23T13:33:14Z</time>
      </trkpt>
      <trkpt lat="46.23596" lon="6.26483">
        <ele>473.79998779297</ele>
        <time>2020-02-23T13:33:16Z</time>
      </trkpt>
      <trkpt lat="46.23591" lon="6.26496">
        <ele>474</ele>
        <time>2020-02-23T13:33:19Z</time>
      </trkpt>
      <trkpt lat="46.23588" lon="6.26506">
        <ele>474.20001220703</ele>
        <time>2020-02-23T13:33:21Z</time>
      </trkpt>
      <trkpt lat="46.23585" lon="6.26515">
        <ele>474.20001220703</ele>
        <time>2020-02-23T13:33:23Z</time>
      </trkpt>
      <trkpt lat="46.23583" lon="6.2652">
        <ele>474.39999389648</ele>
        <time>2020-02-23T13:33:24Z</time>
      </trkpt>
      <trkpt lat="46.23578" lon="6.26535">
        <ele>474.39999389648</ele>
        <time>2020-02-23T13:33:27Z</time>
      </trkpt>
      <trkpt lat="46.23577" lon="6.2654">
        <ele>474.39999389648</ele>
        <time>2020-02-23T13:33:28Z</time>
      </trkpt>
      <trkpt lat="46.23575" lon="6.26546">
        <ele>474.39999389648</ele>
        <time>2020-02-23T13:33:29Z</time>
      </trkpt>
      <trkpt lat="46.23573" lon="6.26551">
        <ele>474.60000610352</ele>
        <time>2020-02-23T13:33:30Z</time>
      </trkpt>
      <trkpt lat="46.23572" lon="6.26556">
        <ele>474.79998779297</ele>
        <time>2020-02-23T13:33:31Z</time>
      </trkpt>
      <trkpt lat="46.2357" lon="6.26561">
        <ele>475</ele>
        <time>2020-02-23T13:33:32Z</time>
      </trkpt>
      <trkpt lat="46.23569" lon="6.26565">
        <ele>475</ele>
        <time>2020-02-23T13:33:33Z</time>
      </trkpt>
      <trkpt lat="46.23568" lon="6.26568">
        <ele>475</ele>
        <time>2020-02-23T13:33:34Z</time>
      </trkpt>
      <trkpt lat="46.23566" lon="6.26572">
        <ele>475.20001220703</ele>
        <time>2020-02-23T13:33:35Z</time>
      </trkpt>
      <trkpt lat="46.23565" lon="6.26575">
        <ele>475.39999389648</ele>
        <time>2020-02-23T13:33:36Z</time>
      </trkpt>
      <trkpt lat="46.23564" lon="6.2658">
        <ele>475.60000610352</ele>
        <time>2020-02-23T13:33:37Z</time>
      </trkpt>
      <trkpt lat="46.23556" lon="6.26609">
        <ele>476.39999389648</ele>
        <time>2020-02-23T13:33:43Z</time>
      </trkpt>
      <trkpt lat="46.23555" lon="6.26613">
        <ele>476.39999389648</ele>
        <time>2020-02-23T13:33:44Z</time>
      </trkpt>
      <trkpt lat="46.23554" lon="6.26616">
        <ele>476.60000610352</ele>
        <time>2020-02-23T13:33:45Z</time>
      </trkpt>
      <trkpt lat="46.23554" lon="6.26619">
        <ele>476.60000610352</ele>
        <time>2020-02-23T13:33:46Z</time>
      </trkpt>
      <trkpt lat="46.23553" lon="6.26622">
        <ele>476.60000610352</ele>
        <time>2020-02-23T13:33:47Z</time>
      </trkpt>
      <trkpt lat="46.23552" lon="6.26625">
        <ele>476.60000610352</ele>
        <time>2020-02-23T13:33:48Z</time>
      </trkpt>
      <trkpt lat="46.23551" lon="6.26627">
        <ele>476.60000610352</ele>
        <time>2020-02-23T13:33:49Z</time>
      </trkpt>
      <trkpt lat="46.2355" lon="6.2663">
        <ele>476.79998779297</ele>
        <time>2020-02-23T13:33:50Z</time>
      </trkpt>
      <trkpt lat="46.23548" lon="6.26631">
        <ele>477.20001220703</ele>
        <time>2020-02-23T13:33:51Z</time>
      </trkpt>
      <trkpt lat="46.23546" lon="6.26633">
        <ele>477.20001220703</ele>
        <time>2020-02-23T13:33:52Z</time>
      </trkpt>
      <trkpt lat="46.23545" lon="6.26635">
        <ele>477.60000610352</ele>
        <time>2020-02-23T13:33:53Z</time>
      </trkpt>
      <trkpt lat="46.23543" lon="6.26637">
        <ele>477.60000610352</ele>
        <time>2020-02-23T13:33:54Z</time>
      </trkpt>
      <trkpt lat="46.23542" lon="6.26638">
        <ele>477.60000610352</ele>
        <time>2020-02-23T13:33:55Z</time>
      </trkpt>
      <trkpt lat="46.23541" lon="6.26639">
        <ele>477.79998779297</ele>
        <time>2020-02-23T13:33:56Z</time>
      </trkpt>
      <trkpt lat="46.23541" lon="6.26639">
        <ele>477.79998779297</ele>
        <time>2020-02-23T13:33:58Z</time>
      </trkpt>
      <trkpt lat="46.2354" lon="6.26638">
        <ele>478.60000610352</ele>
        <time>2020-02-23T13:34:09Z</time>
      </trkpt>
      <trkpt lat="46.2354" lon="6.26637">
        <ele>478.60000610352</ele>
        <time>2020-02-23T13:34:10Z</time>
      </trkpt>
      <trkpt lat="46.23539" lon="6.26636">
        <ele>478.60000610352</ele>
        <time>2020-02-23T13:34:11Z</time>
      </trkpt>
      <trkpt lat="46.23538" lon="6.26634">
        <ele>478.39999389648</ele>
        <time>2020-02-23T13:34:12Z</time>
      </trkpt>
      <trkpt lat="46.23537" lon="6.26631">
        <ele>478.60000610352</ele>
        <time>2020-02-23T13:34:13Z</time>
      </trkpt>
      <trkpt lat="46.23535" lon="6.26622">
        <ele>478.60000610352</ele>
        <time>2020-02-23T13:34:15Z</time>
      </trkpt>
      <trkpt lat="46.23533" lon="6.26618">
        <ele>478.39999389648</ele>
        <time>2020-02-23T13:34:16Z</time>
      </trkpt>
      <trkpt lat="46.23525" lon="6.26595">
        <ele>477.60000610352</ele>
        <time>2020-02-23T13:34:20Z</time>
      </trkpt>
      <trkpt lat="46.23521" lon="6.26584">
        <ele>477.20001220703</ele>
        <time>2020-02-23T13:34:22Z</time>
      </trkpt>
      <trkpt lat="46.23515" lon="6.26572">
        <ele>477.20001220703</ele>
        <time>2020-02-23T13:34:24Z</time>
      </trkpt>
      <trkpt lat="46.23511" lon="6.26567">
        <ele>477</ele>
        <time>2020-02-23T13:34:25Z</time>
      </trkpt>
      <trkpt lat="46.23506" lon="6.26562">
        <ele>477</ele>
        <time>2020-02-23T13:34:26Z</time>
      </trkpt>
      <trkpt lat="46.23502" lon="6.26558">
        <ele>476.79998779297</ele>
        <time>2020-02-23T13:34:27Z</time>
      </trkpt>
      <trkpt lat="46.23498" lon="6.26554">
        <ele>476.60000610352</ele>
        <time>2020-02-23T13:34:28Z</time>
      </trkpt>
      <trkpt lat="46.23495" lon="6.2655">
        <ele>476.60000610352</ele>
        <time>2020-02-23T13:34:29Z</time>
      </trkpt>
      <trkpt lat="46.23491" lon="6.26547">
        <ele>476.60000610352</ele>
        <time>2020-02-23T13:34:30Z</time>
      </trkpt>
      <trkpt lat="46.23488" lon="6.26544">
        <ele>476.60000610352</ele>
        <time>2020-02-23T13:34:31Z</time>
      </trkpt>
      <trkpt lat="46.23485" lon="6.26542">
        <ele>476.60000610352</ele>
        <time>2020-02-23T13:34:32Z</time>
      </trkpt>
      <trkpt lat="46.23483" lon="6.2654">
        <ele>476.60000610352</ele>
        <time>2020-02-23T13:34:33Z</time>
      </trkpt>
      <trkpt lat="46.2348" lon="6.26538">
        <ele>476</ele>
        <time>2020-02-23T13:34:34Z</time>
      </trkpt>
      <trkpt lat="46.23478" lon="6.26535">
        <ele>475.79998779297</ele>
        <time>2020-02-23T13:34:35Z</time>
      </trkpt>
      <trkpt lat="46.23476" lon="6.26533">
        <ele>475.60000610352</ele>
        <time>2020-02-23T13:34:36Z</time>
      </trkpt>
      <trkpt lat="46.23474" lon="6.26531">
        <ele>475.39999389648</ele>
        <time>2020-02-23T13:34:37Z</time>
      </trkpt>
      <trkpt lat="46.23471" lon="6.26531">
        <ele>475.20001220703</ele>
        <time>2020-02-23T13:34:38Z</time>
      </trkpt>
      <trkpt lat="46.2347" lon="6.26534">
        <ele>475.20001220703</ele>
        <time>2020-02-23T13:34:39Z</time>
      </trkpt>
      <trkpt lat="46.23468" lon="6.26538">
        <ele>475.20001220703</ele>
        <time>2020-02-23T13:34:40Z</time>
      </trkpt>
      <trkpt lat="46.23467" lon="6.26543">
        <ele>475.20001220703</ele>
        <time>2020-02-23T13:34:41Z</time>
      </trkpt>
      <trkpt lat="46.23465" lon="6.26548">
        <ele>475.20001220703</ele>
        <time>2020-02-23T13:34:42Z</time>
      </trkpt>
      <trkpt lat="46.23463" lon="6.26553">
        <ele>475</ele>
        <time>2020-02-23T13:34:43Z</time>
      </trkpt>
      <trkpt lat="46.2346" lon="6.26558">
        <ele>475.20001220703</ele>
        <time>2020-02-23T13:34:44Z</time>
      </trkpt>
      <trkpt lat="46.23458" lon="6.26563">
        <ele>475.20001220703</ele>
        <time>2020-02-23T13:34:45Z</time>
      </trkpt>
      <trkpt lat="46.23455" lon="6.26568">
        <ele>475.20001220703</ele>
        <time>2020-02-23T13:34:46Z</time>
      </trkpt>
      <trkpt lat="46.23445" lon="6.26592">
        <ele>475.39999389648</ele>
        <time>2020-02-23T13:34:50Z</time>
      </trkpt>
      <trkpt lat="46.23439" lon="6.26605">
        <ele>475.39999389648</ele>
        <time>2020-02-23T13:34:52Z</time>
      </trkpt>
      <trkpt lat="46.23425" lon="6.26631">
        <ele>475.20001220703</ele>
        <time>2020-02-23T13:34:56Z</time>
      </trkpt>
      <trkpt lat="46.23417" lon="6.26642">
        <ele>475.20001220703</ele>
        <time>2020-02-23T13:34:58Z</time>
      </trkpt>
      <trkpt lat="46.23412" lon="6.26648">
        <ele>475.20001220703</ele>
        <time>2020-02-23T13:34:59Z</time>
      </trkpt>
      <trkpt lat="46.23409" lon="6.26654">
        <ele>475.39999389648</ele>
        <time>2020-02-23T13:35:00Z</time>
      </trkpt>
      <trkpt lat="46.23405" lon="6.26659">
        <ele>475.39999389648</ele>
        <time>2020-02-23T13:35:01Z</time>
      </trkpt>
      <trkpt lat="46.234" lon="6.26665">
        <ele>475.20001220703</ele>
        <time>2020-02-23T13:35:02Z</time>
      </trkpt>
      <trkpt lat="46.23396" lon="6.2667">
        <ele>475</ele>
        <time>2020-02-23T13:35:03Z</time>
      </trkpt>
      <trkpt lat="46.23392" lon="6.26675">
        <ele>475</ele>
        <time>2020-02-23T13:35:04Z</time>
      </trkpt>
      <trkpt lat="46.23389" lon="6.26681">
        <ele>475</ele>
        <time>2020-02-23T13:35:05Z</time>
      </trkpt>
      <trkpt lat="46.23385" lon="6.26685">
        <ele>474.79998779297</ele>
        <time>2020-02-23T13:35:06Z</time>
      </trkpt>
      <trkpt lat="46.23381" lon="6.2669">
        <ele>474.79998779297</ele>
        <time>2020-02-23T13:35:07Z</time>
      </trkpt>
      <trkpt lat="46.23378" lon="6.26694">
        <ele>474.79998779297</ele>
        <time>2020-02-23T13:35:08Z</time>
      </trkpt>
      <trkpt lat="46.23374" lon="6.26698">
        <ele>475</ele>
        <time>2020-02-23T13:35:09Z</time>
      </trkpt>
      <trkpt lat="46.23371" lon="6.26702">
        <ele>475</ele>
        <time>2020-02-23T13:35:10Z</time>
      </trkpt>
      <trkpt lat="46.23361" lon="6.26715">
        <ele>475</ele>
        <time>2020-02-23T13:35:13Z</time>
      </trkpt>
      <trkpt lat="46.23357" lon="6.2672">
        <ele>475</ele>
        <time>2020-02-23T13:35:14Z</time>
      </trkpt>
      <trkpt lat="46.23354" lon="6.26724">
        <ele>475.20001220703</ele>
        <time>2020-02-23T13:35:15Z</time>
      </trkpt>
      <trkpt lat="46.23351" lon="6.26728">
        <ele>475.20001220703</ele>
        <time>2020-02-23T13:35:16Z</time>
      </trkpt>
      <trkpt lat="46.23328" lon="6.26763">
        <ele>475</ele>
        <time>2020-02-23T13:35:23Z</time>
      </trkpt>
      <trkpt lat="46.23318" lon="6.26779">
        <ele>475</ele>
        <time>2020-02-23T13:35:26Z</time>
      </trkpt>
      <trkpt lat="46.23315" lon="6.26785">
        <ele>474.79998779297</ele>
        <time>2020-02-23T13:35:27Z</time>
      </trkpt>
      <trkpt lat="46.23312" lon="6.2679">
        <ele>474.79998779297</ele>
        <time>2020-02-23T13:35:28Z</time>
      </trkpt>
      <trkpt lat="46.2331" lon="6.26795">
        <ele>474.79998779297</ele>
        <time>2020-02-23T13:35:29Z</time>
      </trkpt>
      <trkpt lat="46.23308" lon="6.268">
        <ele>474.79998779297</ele>
        <time>2020-02-23T13:35:30Z</time>
      </trkpt>
      <trkpt lat="46.23306" lon="6.26805">
        <ele>474.79998779297</ele>
        <time>2020-02-23T13:35:31Z</time>
      </trkpt>
      <trkpt lat="46.23304" lon="6.2681">
        <ele>474.79998779297</ele>
        <time>2020-02-23T13:35:32Z</time>
      </trkpt>
      <trkpt lat="46.23302" lon="6.26816">
        <ele>474.79998779297</ele>
        <time>2020-02-23T13:35:33Z</time>
      </trkpt>
      <trkpt lat="46.23301" lon="6.26822">
        <ele>474.79998779297</ele>
        <time>2020-02-23T13:35:34Z</time>
      </trkpt>
      <trkpt lat="46.23299" lon="6.26829">
        <ele>474.79998779297</ele>
        <time>2020-02-23T13:35:35Z</time>
      </trkpt>
      <trkpt lat="46.23298" lon="6.26836">
        <ele>474.79998779297</ele>
        <time>2020-02-23T13:35:36Z</time>
      </trkpt>
      <trkpt lat="46.23296" lon="6.26842">
        <ele>474.79998779297</ele>
        <time>2020-02-23T13:35:37Z</time>
      </trkpt>
      <trkpt lat="46.23293" lon="6.26848">
        <ele>475</ele>
        <time>2020-02-23T13:35:38Z</time>
      </trkpt>
      <trkpt lat="46.23291" lon="6.26854">
        <ele>475.20001220703</ele>
        <time>2020-02-23T13:35:39Z</time>
      </trkpt>
      <trkpt lat="46.23287" lon="6.26858">
        <ele>475.39999389648</ele>
        <time>2020-02-23T13:35:40Z</time>
      </trkpt>
      <trkpt lat="46.23284" lon="6.26862">
        <ele>475.39999389648</ele>
        <time>2020-02-23T13:35:41Z</time>
      </trkpt>
      <trkpt lat="46.2328" lon="6.26866">
        <ele>475.39999389648</ele>
        <time>2020-02-23T13:35:42Z</time>
      </trkpt>
      <trkpt lat="46.23276" lon="6.26868">
        <ele>475.60000610352</ele>
        <time>2020-02-23T13:35:43Z</time>
      </trkpt>
      <trkpt lat="46.23272" lon="6.26871">
        <ele>475.60000610352</ele>
        <time>2020-02-23T13:35:44Z</time>
      </trkpt>
      <trkpt lat="46.23268" lon="6.26874">
        <ele>475.39999389648</ele>
        <time>2020-02-23T13:35:45Z</time>
      </trkpt>
      <trkpt lat="46.23256" lon="6.26882">
        <ele>475.60000610352</ele>
        <time>2020-02-23T13:35:48Z</time>
      </trkpt>
      <trkpt lat="46.23248" lon="6.26888">
        <ele>475.79998779297</ele>
        <time>2020-02-23T13:35:50Z</time>
      </trkpt>
      <trkpt lat="46.23243" lon="6.26891">
        <ele>475.79998779297</ele>
        <time>2020-02-23T13:35:51Z</time>
      </trkpt>
      <trkpt lat="46.23239" lon="6.26894">
        <ele>476</ele>
        <time>2020-02-23T13:35:52Z</time>
      </trkpt>
      <trkpt lat="46.23235" lon="6.26897">
        <ele>476.20001220703</ele>
        <time>2020-02-23T13:35:53Z</time>
      </trkpt>
      <trkpt lat="46.23231" lon="6.269">
        <ele>476.20001220703</ele>
        <time>2020-02-23T13:35:54Z</time>
      </trkpt>
      <trkpt lat="46.23227" lon="6.26903">
        <ele>476.20001220703</ele>
        <time>2020-02-23T13:35:55Z</time>
      </trkpt>
      <trkpt lat="46.23223" lon="6.26906">
        <ele>476.20001220703</ele>
        <time>2020-02-23T13:35:56Z</time>
      </trkpt>
      <trkpt lat="46.2322" lon="6.26909">
        <ele>476.20001220703</ele>
        <time>2020-02-23T13:35:57Z</time>
      </trkpt>
      <trkpt lat="46.23216" lon="6.26913">
        <ele>476.39999389648</ele>
        <time>2020-02-23T13:35:58Z</time>
      </trkpt>
      <trkpt lat="46.23213" lon="6.26917">
        <ele>476.60000610352</ele>
        <time>2020-02-23T13:35:59Z</time>
      </trkpt>
      <trkpt lat="46.23209" lon="6.26921">
        <ele>476.39999389648</ele>
        <time>2020-02-23T13:36:00Z</time>
      </trkpt>
      <trkpt lat="46.23206" lon="6.26925">
        <ele>476.60000610352</ele>
        <time>2020-02-23T13:36:01Z</time>
      </trkpt>
      <trkpt lat="46.23203" lon="6.2693">
        <ele>476.60000610352</ele>
        <time>2020-02-23T13:36:02Z</time>
      </trkpt>
      <trkpt lat="46.232" lon="6.26935">
        <ele>476.79998779297</ele>
        <time>2020-02-23T13:36:03Z</time>
      </trkpt>
      <trkpt lat="46.23197" lon="6.2694">
        <ele>477</ele>
        <time>2020-02-23T13:36:04Z</time>
      </trkpt>
      <trkpt lat="46.23195" lon="6.26945">
        <ele>477</ele>
        <time>2020-02-23T13:36:05Z</time>
      </trkpt>
      <trkpt lat="46.23192" lon="6.26951">
        <ele>477.39999389648</ele>
        <time>2020-02-23T13:36:06Z</time>
      </trkpt>
      <trkpt lat="46.23189" lon="6.26956">
        <ele>477.39999389648</ele>
        <time>2020-02-23T13:36:07Z</time>
      </trkpt>
      <trkpt lat="46.23186" lon="6.26962">
        <ele>478.20001220703</ele>
        <time>2020-02-23T13:36:08Z</time>
      </trkpt>
      <trkpt lat="46.23183" lon="6.26967">
        <ele>478.39999389648</ele>
        <time>2020-02-23T13:36:09Z</time>
      </trkpt>
      <trkpt lat="46.23181" lon="6.26973">
        <ele>478.79998779297</ele>
        <time>2020-02-23T13:36:10Z</time>
      </trkpt>
      <trkpt lat="46.23178" lon="6.26979">
        <ele>479</ele>
        <time>2020-02-23T13:36:11Z</time>
      </trkpt>
      <trkpt lat="46.23175" lon="6.26984">
        <ele>479</ele>
        <time>2020-02-23T13:36:12Z</time>
      </trkpt>
      <trkpt lat="46.23165" lon="6.27">
        <ele>479.39999389648</ele>
        <time>2020-02-23T13:36:15Z</time>
      </trkpt>
      <trkpt lat="46.23158" lon="6.2701">
        <ele>479.60000610352</ele>
        <time>2020-02-23T13:36:17Z</time>
      </trkpt>
      <trkpt lat="46.23155" lon="6.27015">
        <ele>479.60000610352</ele>
        <time>2020-02-23T13:36:18Z</time>
      </trkpt>
      <trkpt lat="46.23151" lon="6.27019">
        <ele>479.60000610352</ele>
        <time>2020-02-23T13:36:19Z</time>
      </trkpt>
      <trkpt lat="46.23147" lon="6.27023">
        <ele>479.79998779297</ele>
        <time>2020-02-23T13:36:20Z</time>
      </trkpt>
      <trkpt lat="46.23144" lon="6.27027">
        <ele>479.79998779297</ele>
        <time>2020-02-23T13:36:21Z</time>
      </trkpt>
      <trkpt lat="46.2314" lon="6.27031">
        <ele>479.79998779297</ele>
        <time>2020-02-23T13:36:22Z</time>
      </trkpt>
      <trkpt lat="46.23136" lon="6.27035">
        <ele>479.79998779297</ele>
        <time>2020-02-23T13:36:23Z</time>
      </trkpt>
      <trkpt lat="46.23125" lon="6.27047">
        <ele>480</ele>
        <time>2020-02-23T13:36:26Z</time>
      </trkpt>
      <trkpt lat="46.23121" lon="6.27051">
        <ele>480.39999389648</ele>
        <time>2020-02-23T13:36:27Z</time>
      </trkpt>
      <trkpt lat="46.23117" lon="6.27055">
        <ele>480.39999389648</ele>
        <time>2020-02-23T13:36:28Z</time>
      </trkpt>
      <trkpt lat="46.23114" lon="6.27058">
        <ele>480.39999389648</ele>
        <time>2020-02-23T13:36:29Z</time>
      </trkpt>
      <trkpt lat="46.2311" lon="6.27062">
        <ele>480.79998779297</ele>
        <time>2020-02-23T13:36:30Z</time>
      </trkpt>
      <trkpt lat="46.23107" lon="6.27066">
        <ele>480.79998779297</ele>
        <time>2020-02-23T13:36:31Z</time>
      </trkpt>
      <trkpt lat="46.23104" lon="6.27069">
        <ele>480.79998779297</ele>
        <time>2020-02-23T13:36:32Z</time>
      </trkpt>
      <trkpt lat="46.231" lon="6.27073">
        <ele>480.79998779297</ele>
        <time>2020-02-23T13:36:33Z</time>
      </trkpt>
      <trkpt lat="46.23097" lon="6.27077">
        <ele>480.79998779297</ele>
        <time>2020-02-23T13:36:34Z</time>
      </trkpt>
      <trkpt lat="46.23086" lon="6.27088">
        <ele>481.20001220703</ele>
        <time>2020-02-23T13:36:37Z</time>
      </trkpt>
      <trkpt lat="46.23083" lon="6.27092">
        <ele>481.20001220703</ele>
        <time>2020-02-23T13:36:38Z</time>
      </trkpt>
      <trkpt lat="46.23079" lon="6.27096">
        <ele>481.20001220703</ele>
        <time>2020-02-23T13:36:39Z</time>
      </trkpt>
      <trkpt lat="46.23076" lon="6.271">
        <ele>481.39999389648</ele>
        <time>2020-02-23T13:36:40Z</time>
      </trkpt>
      <trkpt lat="46.23073" lon="6.27104">
        <ele>481.60000610352</ele>
        <time>2020-02-23T13:36:41Z</time>
      </trkpt>
      <trkpt lat="46.23069" lon="6.27107">
        <ele>481.60000610352</ele>
        <time>2020-02-23T13:36:42Z</time>
      </trkpt>
      <trkpt lat="46.23066" lon="6.27111">
        <ele>481.60000610352</ele>
        <time>2020-02-23T13:36:43Z</time>
      </trkpt>
      <trkpt lat="46.23062" lon="6.27115">
        <ele>481.79998779297</ele>
        <time>2020-02-23T13:36:44Z</time>
      </trkpt>
      <trkpt lat="46.23059" lon="6.27119">
        <ele>481.79998779297</ele>
        <time>2020-02-23T13:36:45Z</time>
      </trkpt>
      <trkpt lat="46.23055" lon="6.27124">
        <ele>482.39999389648</ele>
        <time>2020-02-23T13:36:46Z</time>
      </trkpt>
      <trkpt lat="46.23052" lon="6.27128">
        <ele>482.39999389648</ele>
        <time>2020-02-23T13:36:47Z</time>
      </trkpt>
      <trkpt lat="46.23048" lon="6.27133">
        <ele>482.79998779297</ele>
        <time>2020-02-23T13:36:48Z</time>
      </trkpt>
      <trkpt lat="46.23045" lon="6.27137">
        <ele>483</ele>
        <time>2020-02-23T13:36:49Z</time>
      </trkpt>
      <trkpt lat="46.23042" lon="6.27142">
        <ele>483.39999389648</ele>
        <time>2020-02-23T13:36:50Z</time>
      </trkpt>
      <trkpt lat="46.23039" lon="6.27146">
        <ele>483.60000610352</ele>
        <time>2020-02-23T13:36:51Z</time>
      </trkpt>
      <trkpt lat="46.23036" lon="6.27151">
        <ele>483.79998779297</ele>
        <time>2020-02-23T13:36:52Z</time>
      </trkpt>
      <trkpt lat="46.23033" lon="6.27155">
        <ele>484</ele>
        <time>2020-02-23T13:36:53Z</time>
      </trkpt>
      <trkpt lat="46.2303" lon="6.27159">
        <ele>484</ele>
        <time>2020-02-23T13:36:54Z</time>
      </trkpt>
      <trkpt lat="46.23027" lon="6.27164">
        <ele>484</ele>
        <time>2020-02-23T13:36:55Z</time>
      </trkpt>
      <trkpt lat="46.23024" lon="6.27168">
        <ele>484</ele>
        <time>2020-02-23T13:36:56Z</time>
      </trkpt>
      <trkpt lat="46.23021" lon="6.27173">
        <ele>484.39999389648</ele>
        <time>2020-02-23T13:36:57Z</time>
      </trkpt>
      <trkpt lat="46.23019" lon="6.27178">
        <ele>484.60000610352</ele>
        <time>2020-02-23T13:36:58Z</time>
      </trkpt>
      <trkpt lat="46.23016" lon="6.27183">
        <ele>484.79998779297</ele>
        <time>2020-02-23T13:36:59Z</time>
      </trkpt>
      <trkpt lat="46.23013" lon="6.27187">
        <ele>484.79998779297</ele>
        <time>2020-02-23T13:37:00Z</time>
      </trkpt>
      <trkpt lat="46.2301" lon="6.27191">
        <ele>485.20001220703</ele>
        <time>2020-02-23T13:37:01Z</time>
      </trkpt>
      <trkpt lat="46.23008" lon="6.27195">
        <ele>485.20001220703</ele>
        <time>2020-02-23T13:37:02Z</time>
      </trkpt>
      <trkpt lat="46.23005" lon="6.272">
        <ele>485.39999389648</ele>
        <time>2020-02-23T13:37:03Z</time>
      </trkpt>
      <trkpt lat="46.23002" lon="6.27204">
        <ele>485.39999389648</ele>
        <time>2020-02-23T13:37:04Z</time>
      </trkpt>
      <trkpt lat="46.22999" lon="6.27208">
        <ele>485.60000610352</ele>
        <time>2020-02-23T13:37:05Z</time>
      </trkpt>
      <trkpt lat="46.22996" lon="6.27213">
        <ele>486.20001220703</ele>
        <time>2020-02-23T13:37:06Z</time>
      </trkpt>
      <trkpt lat="46.22992" lon="6.27218">
        <ele>486.60000610352</ele>
        <time>2020-02-23T13:37:07Z</time>
      </trkpt>
      <trkpt lat="46.22989" lon="6.27222">
        <ele>487</ele>
        <time>2020-02-23T13:37:08Z</time>
      </trkpt>
      <trkpt lat="46.22985" lon="6.27226">
        <ele>487.39999389648</ele>
        <time>2020-02-23T13:37:09Z</time>
      </trkpt>
      <trkpt lat="46.22981" lon="6.27229">
        <ele>487.79998779297</ele>
        <time>2020-02-23T13:37:10Z</time>
      </trkpt>
      <trkpt lat="46.22977" lon="6.27232">
        <ele>487.79998779297</ele>
        <time>2020-02-23T13:37:11Z</time>
      </trkpt>
      <trkpt lat="46.22973" lon="6.27235">
        <ele>488</ele>
        <time>2020-02-23T13:37:12Z</time>
      </trkpt>
      <trkpt lat="46.2297" lon="6.27238">
        <ele>488.39999389648</ele>
        <time>2020-02-23T13:37:13Z</time>
      </trkpt>
      <trkpt lat="46.22967" lon="6.2724">
        <ele>488.60000610352</ele>
        <time>2020-02-23T13:37:14Z</time>
      </trkpt>
      <trkpt lat="46.22964" lon="6.27242">
        <ele>488.60000610352</ele>
        <time>2020-02-23T13:37:15Z</time>
      </trkpt>
      <trkpt lat="46.22961" lon="6.27245">
        <ele>488.60000610352</ele>
        <time>2020-02-23T13:37:16Z</time>
      </trkpt>
      <trkpt lat="46.22958" lon="6.27247">
        <ele>488.79998779297</ele>
        <time>2020-02-23T13:37:17Z</time>
      </trkpt>
      <trkpt lat="46.22955" lon="6.27249">
        <ele>488.79998779297</ele>
        <time>2020-02-23T13:37:18Z</time>
      </trkpt>
      <trkpt lat="46.22953" lon="6.27251">
        <ele>488.79998779297</ele>
        <time>2020-02-23T13:37:19Z</time>
      </trkpt>
      <trkpt lat="46.22938" lon="6.2726">
        <ele>488.79998779297</ele>
        <time>2020-02-23T13:37:23Z</time>
      </trkpt>
      <trkpt lat="46.22934" lon="6.27262">
        <ele>488.79998779297</ele>
        <time>2020-02-23T13:37:24Z</time>
      </trkpt>
      <trkpt lat="46.22899" lon="6.27288">
        <ele>488</ele>
        <time>2020-02-23T13:37:32Z</time>
      </trkpt>
      <trkpt lat="46.22895" lon="6.27292">
        <ele>487.79998779297</ele>
        <time>2020-02-23T13:37:33Z</time>
      </trkpt>
      <trkpt lat="46.2289" lon="6.27295">
        <ele>487.79998779297</ele>
        <time>2020-02-23T13:37:34Z</time>
      </trkpt>
      <trkpt lat="46.22886" lon="6.27298">
        <ele>487.60000610352</ele>
        <time>2020-02-23T13:37:35Z</time>
      </trkpt>
      <trkpt lat="46.22882" lon="6.27301">
        <ele>487.39999389648</ele>
        <time>2020-02-23T13:37:36Z</time>
      </trkpt>
      <trkpt lat="46.22878" lon="6.27304">
        <ele>487.39999389648</ele>
        <time>2020-02-23T13:37:37Z</time>
      </trkpt>
      <trkpt lat="46.22875" lon="6.27307">
        <ele>487.20001220703</ele>
        <time>2020-02-23T13:37:38Z</time>
      </trkpt>
      <trkpt lat="46.22871" lon="6.2731">
        <ele>487</ele>
        <time>2020-02-23T13:37:39Z</time>
      </trkpt>
      <trkpt lat="46.22869" lon="6.27314">
        <ele>486.79998779297</ele>
        <time>2020-02-23T13:37:40Z</time>
      </trkpt>
      <trkpt lat="46.22867" lon="6.27319">
        <ele>486.79998779297</ele>
        <time>2020-02-23T13:37:41Z</time>
      </trkpt>
      <trkpt lat="46.22866" lon="6.27323">
        <ele>487</ele>
        <time>2020-02-23T13:37:42Z</time>
      </trkpt>
      <trkpt lat="46.22866" lon="6.27328">
        <ele>486.79998779297</ele>
        <time>2020-02-23T13:37:43Z</time>
      </trkpt>
      <trkpt lat="46.22865" lon="6.27332">
        <ele>486.79998779297</ele>
        <time>2020-02-23T13:37:44Z</time>
      </trkpt>
      <trkpt lat="46.22865" lon="6.27336">
        <ele>486.79998779297</ele>
        <time>2020-02-23T13:37:45Z</time>
      </trkpt>
      <trkpt lat="46.22864" lon="6.27341">
        <ele>486.79998779297</ele>
        <time>2020-02-23T13:37:46Z</time>
      </trkpt>
      <trkpt lat="46.22864" lon="6.27345">
        <ele>486.79998779297</ele>
        <time>2020-02-23T13:37:47Z</time>
      </trkpt>
      <trkpt lat="46.22863" lon="6.27348">
        <ele>486.79998779297</ele>
        <time>2020-02-23T13:37:48Z</time>
      </trkpt>
      <trkpt lat="46.22863" lon="6.27352">
        <ele>486.79998779297</ele>
        <time>2020-02-23T13:37:49Z</time>
      </trkpt>
      <trkpt lat="46.22862" lon="6.27356">
        <ele>487.39999389648</ele>
        <time>2020-02-23T13:37:50Z</time>
      </trkpt>
      <trkpt lat="46.22862" lon="6.27359">
        <ele>488</ele>
        <time>2020-02-23T13:37:51Z</time>
      </trkpt>
      <trkpt lat="46.22862" lon="6.27362">
        <ele>488.39999389648</ele>
        <time>2020-02-23T13:37:52Z</time>
      </trkpt>
      <trkpt lat="46.22861" lon="6.27366">
        <ele>488.39999389648</ele>
        <time>2020-02-23T13:37:53Z</time>
      </trkpt>
      <trkpt lat="46.2286" lon="6.27369">
        <ele>488.60000610352</ele>
        <time>2020-02-23T13:37:54Z</time>
      </trkpt>
      <trkpt lat="46.2286" lon="6.27372">
        <ele>488.79998779297</ele>
        <time>2020-02-23T13:37:55Z</time>
      </trkpt>
      <trkpt lat="46.22859" lon="6.27378">
        <ele>488.79998779297</ele>
        <time>2020-02-23T13:37:57Z</time>
      </trkpt>
      <trkpt lat="46.22859" lon="6.27381">
        <ele>488.79998779297</ele>
        <time>2020-02-23T13:37:58Z</time>
      </trkpt>
      <trkpt lat="46.22859" lon="6.27383">
        <ele>488.79998779297</ele>
        <time>2020-02-23T13:37:59Z</time>
      </trkpt>
      <trkpt lat="46.22859" lon="6.27386">
        <ele>489</ele>
        <time>2020-02-23T13:38:00Z</time>
      </trkpt>
      <trkpt lat="46.22859" lon="6.27388">
        <ele>488.79998779297</ele>
        <time>2020-02-23T13:38:01Z</time>
      </trkpt>
      <trkpt lat="46.22858" lon="6.27391">
        <ele>489</ele>
        <time>2020-02-23T13:38:02Z</time>
      </trkpt>
      <trkpt lat="46.22858" lon="6.27393">
        <ele>489</ele>
        <time>2020-02-23T13:38:03Z</time>
      </trkpt>
      <trkpt lat="46.22858" lon="6.27396">
        <ele>489</ele>
        <time>2020-02-23T13:38:04Z</time>
      </trkpt>
      <trkpt lat="46.22858" lon="6.27397">
        <ele>489</ele>
        <time>2020-02-23T13:38:05Z</time>
      </trkpt>
      <trkpt lat="46.22858" lon="6.27397">
        <ele>489</ele>
        <time>2020-02-23T13:38:06Z</time>
      </trkpt>
      <trkpt lat="46.22858" lon="6.27397">
        <ele>489</ele>
        <time>2020-02-23T13:38:08Z</time>
      </trkpt>
      <trkpt lat="46.22858" lon="6.27397">
        <ele>489</ele>
        <time>2020-02-23T13:38:11Z</time>
      </trkpt>
      <trkpt lat="46.22858" lon="6.27397">
        <ele>489</ele>
        <time>2020-02-23T13:38:14Z</time>
      </trkpt>
      <trkpt lat="46.22858" lon="6.27398">
        <ele>489</ele>
        <time>2020-02-23T13:38:29Z</time>
      </trkpt>
      <trkpt lat="46.22858" lon="6.27399">
        <ele>489</ele>
        <time>2020-02-23T13:38:30Z</time>
      </trkpt>
      <trkpt lat="46.22858" lon="6.27401">
        <ele>489</ele>
        <time>2020-02-23T13:38:31Z</time>
      </trkpt>
      <trkpt lat="46.2286" lon="6.27407">
        <ele>489</ele>
        <time>2020-02-23T13:38:34Z</time>
      </trkpt>
      <trkpt lat="46.22859" lon="6.27409">
        <ele>488.79998779297</ele>
        <time>2020-02-23T13:38:35Z</time>
      </trkpt>
      <trkpt lat="46.22859" lon="6.27416">
        <ele>488.79998779297</ele>
        <time>2020-02-23T13:38:37Z</time>
      </trkpt>
      <trkpt lat="46.22858" lon="6.27425">
        <ele>489</ele>
        <time>2020-02-23T13:38:39Z</time>
      </trkpt>
      <trkpt lat="46.22857" lon="6.27464">
        <ele>488.79998779297</ele>
        <time>2020-02-23T13:38:45Z</time>
      </trkpt>
      <trkpt lat="46.22856" lon="6.27488">
        <ele>489</ele>
        <time>2020-02-23T13:38:48Z</time>
      </trkpt>
      <trkpt lat="46.22856" lon="6.27495">
        <ele>489</ele>
        <time>2020-02-23T13:38:49Z</time>
      </trkpt>
      <trkpt lat="46.22856" lon="6.27502">
        <ele>489</ele>
        <time>2020-02-23T13:38:50Z</time>
      </trkpt>
      <trkpt lat="46.22856" lon="6.27509">
        <ele>489</ele>
        <time>2020-02-23T13:38:51Z</time>
      </trkpt>
      <trkpt lat="46.22856" lon="6.27516">
        <ele>488.79998779297</ele>
        <time>2020-02-23T13:38:52Z</time>
      </trkpt>
      <trkpt lat="46.22856" lon="6.27524">
        <ele>489</ele>
        <time>2020-02-23T13:38:53Z</time>
      </trkpt>
      <trkpt lat="46.22856" lon="6.27531">
        <ele>489</ele>
        <time>2020-02-23T13:38:54Z</time>
      </trkpt>
      <trkpt lat="46.22856" lon="6.27538">
        <ele>489</ele>
        <time>2020-02-23T13:38:55Z</time>
      </trkpt>
      <trkpt lat="46.22856" lon="6.27545">
        <ele>489</ele>
        <time>2020-02-23T13:38:56Z</time>
      </trkpt>
      <trkpt lat="46.22855" lon="6.27577">
        <ele>489</ele>
        <time>2020-02-23T13:39:00Z</time>
      </trkpt>
      <trkpt lat="46.22853" lon="6.27595">
        <ele>488.60000610352</ele>
        <time>2020-02-23T13:39:02Z</time>
      </trkpt>
      <trkpt lat="46.22851" lon="6.27603">
        <ele>488.79998779297</ele>
        <time>2020-02-23T13:39:03Z</time>
      </trkpt>
      <trkpt lat="46.22846" lon="6.27638">
        <ele>488.39999389648</ele>
        <time>2020-02-23T13:39:07Z</time>
      </trkpt>
      <trkpt lat="46.22845" lon="6.27647">
        <ele>488.39999389648</ele>
        <time>2020-02-23T13:39:08Z</time>
      </trkpt>
      <trkpt lat="46.22845" lon="6.27656">
        <ele>488.39999389648</ele>
        <time>2020-02-23T13:39:09Z</time>
      </trkpt>
      <trkpt lat="46.22843" lon="6.27674">
        <ele>488</ele>
        <time>2020-02-23T13:39:11Z</time>
      </trkpt>
      <trkpt lat="46.22843" lon="6.27682">
        <ele>487.79998779297</ele>
        <time>2020-02-23T13:39:12Z</time>
      </trkpt>
      <trkpt lat="46.22842" lon="6.2769">
        <ele>487.60000610352</ele>
        <time>2020-02-23T13:39:13Z</time>
      </trkpt>
      <trkpt lat="46.22841" lon="6.27698">
        <ele>487.60000610352</ele>
        <time>2020-02-23T13:39:14Z</time>
      </trkpt>
      <trkpt lat="46.22841" lon="6.27705">
        <ele>487.39999389648</ele>
        <time>2020-02-23T13:39:15Z</time>
      </trkpt>
      <trkpt lat="46.2284" lon="6.27711">
        <ele>487.39999389648</ele>
        <time>2020-02-23T13:39:16Z</time>
      </trkpt>
      <trkpt lat="46.22839" lon="6.27716">
        <ele>487.39999389648</ele>
        <time>2020-02-23T13:39:17Z</time>
      </trkpt>
      <trkpt lat="46.22839" lon="6.2772">
        <ele>487.60000610352</ele>
        <time>2020-02-23T13:39:18Z</time>
      </trkpt>
      <trkpt lat="46.22838" lon="6.27723">
        <ele>487.39999389648</ele>
        <time>2020-02-23T13:39:19Z</time>
      </trkpt>
      <trkpt lat="46.22837" lon="6.27726">
        <ele>487.39999389648</ele>
        <time>2020-02-23T13:39:20Z</time>
      </trkpt>
      <trkpt lat="46.22837" lon="6.27729">
        <ele>487.60000610352</ele>
        <time>2020-02-23T13:39:21Z</time>
      </trkpt>
      <trkpt lat="46.22836" lon="6.27731">
        <ele>487.39999389648</ele>
        <time>2020-02-23T13:39:22Z</time>
      </trkpt>
      <trkpt lat="46.22835" lon="6.27734">
        <ele>487.39999389648</ele>
        <time>2020-02-23T13:39:23Z</time>
      </trkpt>
      <trkpt lat="46.22835" lon="6.27737">
        <ele>487.79998779297</ele>
        <time>2020-02-23T13:39:24Z</time>
      </trkpt>
      <trkpt lat="46.22834" lon="6.27741">
        <ele>488.20001220703</ele>
        <time>2020-02-23T13:39:25Z</time>
      </trkpt>
      <trkpt lat="46.22833" lon="6.27744">
        <ele>488.60000610352</ele>
        <time>2020-02-23T13:39:26Z</time>
      </trkpt>
      <trkpt lat="46.22832" lon="6.27748">
        <ele>489</ele>
        <time>2020-02-23T13:39:27Z</time>
      </trkpt>
      <trkpt lat="46.22831" lon="6.27757">
        <ele>489.39999389648</ele>
        <time>2020-02-23T13:39:29Z</time>
      </trkpt>
      <trkpt lat="46.22828" lon="6.2778">
        <ele>489.60000610352</ele>
        <time>2020-02-23T13:39:34Z</time>
      </trkpt>
      <trkpt lat="46.22828" lon="6.27785">
        <ele>489.60000610352</ele>
        <time>2020-02-23T13:39:35Z</time>
      </trkpt>
      <trkpt lat="46.22828" lon="6.27789">
        <ele>489.60000610352</ele>
        <time>2020-02-23T13:39:36Z</time>
      </trkpt>
      <trkpt lat="46.22827" lon="6.27793">
        <ele>489.79998779297</ele>
        <time>2020-02-23T13:39:37Z</time>
      </trkpt>
      <trkpt lat="46.22827" lon="6.27797">
        <ele>489.60000610352</ele>
        <time>2020-02-23T13:39:38Z</time>
      </trkpt>
      <trkpt lat="46.22827" lon="6.278">
        <ele>489.79998779297</ele>
        <time>2020-02-23T13:39:39Z</time>
      </trkpt>
      <trkpt lat="46.22826" lon="6.27803">
        <ele>489.79998779297</ele>
        <time>2020-02-23T13:39:40Z</time>
      </trkpt>
      <trkpt lat="46.22826" lon="6.27805">
        <ele>490</ele>
        <time>2020-02-23T13:39:41Z</time>
      </trkpt>
      <trkpt lat="46.22826" lon="6.27807">
        <ele>489.79998779297</ele>
        <time>2020-02-23T13:39:42Z</time>
      </trkpt>
      <trkpt lat="46.22826" lon="6.27809">
        <ele>489.79998779297</ele>
        <time>2020-02-23T13:39:43Z</time>
      </trkpt>
      <trkpt lat="46.22826" lon="6.27811">
        <ele>490</ele>
        <time>2020-02-23T13:39:44Z</time>
      </trkpt>
      <trkpt lat="46.22826" lon="6.27813">
        <ele>490.39999389648</ele>
        <time>2020-02-23T13:39:45Z</time>
      </trkpt>
      <trkpt lat="46.22826" lon="6.27818">
        <ele>490.60000610352</ele>
        <time>2020-02-23T13:39:47Z</time>
      </trkpt>
      <trkpt lat="46.22826" lon="6.27821">
        <ele>490.60000610352</ele>
        <time>2020-02-23T13:39:48Z</time>
      </trkpt>
      <trkpt lat="46.22826" lon="6.27825">
        <ele>490.79998779297</ele>
        <time>2020-02-23T13:39:49Z</time>
      </trkpt>
      <trkpt lat="46.22826" lon="6.27829">
        <ele>490.79998779297</ele>
        <time>2020-02-23T13:39:50Z</time>
      </trkpt>
      <trkpt lat="46.22826" lon="6.27838">
        <ele>491</ele>
        <time>2020-02-23T13:39:52Z</time>
      </trkpt>
      <trkpt lat="46.22826" lon="6.27842">
        <ele>491.20001220703</ele>
        <time>2020-02-23T13:39:53Z</time>
      </trkpt>
      <trkpt lat="46.22827" lon="6.27847">
        <ele>491.20001220703</ele>
        <time>2020-02-23T13:39:54Z</time>
      </trkpt>
      <trkpt lat="46.22826" lon="6.27879">
        <ele>491.39999389648</ele>
        <time>2020-02-23T13:40:00Z</time>
      </trkpt>
      <trkpt lat="46.22827" lon="6.2789">
        <ele>491.79998779297</ele>
        <time>2020-02-23T13:40:02Z</time>
      </trkpt>
      <trkpt lat="46.22827" lon="6.27902">
        <ele>492</ele>
        <time>2020-02-23T13:40:04Z</time>
      </trkpt>
      <trkpt lat="46.22827" lon="6.2792">
        <ele>492</ele>
        <time>2020-02-23T13:40:07Z</time>
      </trkpt>
      <trkpt lat="46.22827" lon="6.27931">
        <ele>492.39999389648</ele>
        <time>2020-02-23T13:40:09Z</time>
      </trkpt>
      <trkpt lat="46.22827" lon="6.27936">
        <ele>492.39999389648</ele>
        <time>2020-02-23T13:40:10Z</time>
      </trkpt>
      <trkpt lat="46.22826" lon="6.27941">
        <ele>492.39999389648</ele>
        <time>2020-02-23T13:40:11Z</time>
      </trkpt>
      <trkpt lat="46.22826" lon="6.27945">
        <ele>492.39999389648</ele>
        <time>2020-02-23T13:40:12Z</time>
      </trkpt>
      <trkpt lat="46.22826" lon="6.2795">
        <ele>492.39999389648</ele>
        <time>2020-02-23T13:40:13Z</time>
      </trkpt>
      <trkpt lat="46.22825" lon="6.27954">
        <ele>492.39999389648</ele>
        <time>2020-02-23T13:40:14Z</time>
      </trkpt>
      <trkpt lat="46.22825" lon="6.27959">
        <ele>492.60000610352</ele>
        <time>2020-02-23T13:40:15Z</time>
      </trkpt>
      <trkpt lat="46.22825" lon="6.27964">
        <ele>492.39999389648</ele>
        <time>2020-02-23T13:40:16Z</time>
      </trkpt>
      <trkpt lat="46.22825" lon="6.27969">
        <ele>492.39999389648</ele>
        <time>2020-02-23T13:40:17Z</time>
      </trkpt>
      <trkpt lat="46.22826" lon="6.27975">
        <ele>492.60000610352</ele>
        <time>2020-02-23T13:40:18Z</time>
      </trkpt>
      <trkpt lat="46.22825" lon="6.27986">
        <ele>493</ele>
        <time>2020-02-23T13:40:20Z</time>
      </trkpt>
      <trkpt lat="46.22825" lon="6.27991">
        <ele>493.20001220703</ele>
        <time>2020-02-23T13:40:21Z</time>
      </trkpt>
      <trkpt lat="46.22823" lon="6.28003">
        <ele>493.60000610352</ele>
        <time>2020-02-23T13:40:23Z</time>
      </trkpt>
      <trkpt lat="46.22822" lon="6.28008">
        <ele>493.39999389648</ele>
        <time>2020-02-23T13:40:24Z</time>
      </trkpt>
      <trkpt lat="46.22821" lon="6.28014">
        <ele>493.60000610352</ele>
        <time>2020-02-23T13:40:25Z</time>
      </trkpt>
      <trkpt lat="46.22819" lon="6.28019">
        <ele>493.60000610352</ele>
        <time>2020-02-23T13:40:26Z</time>
      </trkpt>
      <trkpt lat="46.22818" lon="6.28025">
        <ele>493.60000610352</ele>
        <time>2020-02-23T13:40:27Z</time>
      </trkpt>
      <trkpt lat="46.22816" lon="6.28029">
        <ele>493.79998779297</ele>
        <time>2020-02-23T13:40:28Z</time>
      </trkpt>
      <trkpt lat="46.22815" lon="6.28033">
        <ele>493.60000610352</ele>
        <time>2020-02-23T13:40:29Z</time>
      </trkpt>
      <trkpt lat="46.22814" lon="6.28038">
        <ele>493.60000610352</ele>
        <time>2020-02-23T13:40:30Z</time>
      </trkpt>
      <trkpt lat="46.22812" lon="6.28042">
        <ele>493.60000610352</ele>
        <time>2020-02-23T13:40:31Z</time>
      </trkpt>
      <trkpt lat="46.2281" lon="6.28047">
        <ele>493.79998779297</ele>
        <time>2020-02-23T13:40:32Z</time>
      </trkpt>
      <trkpt lat="46.22808" lon="6.28051">
        <ele>494</ele>
        <time>2020-02-23T13:40:33Z</time>
      </trkpt>
      <trkpt lat="46.22805" lon="6.28057">
        <ele>494.20001220703</ele>
        <time>2020-02-23T13:40:34Z</time>
      </trkpt>
      <trkpt lat="46.22802" lon="6.28062">
        <ele>494.20001220703</ele>
        <time>2020-02-23T13:40:35Z</time>
      </trkpt>
      <trkpt lat="46.22799" lon="6.28067">
        <ele>494.39999389648</ele>
        <time>2020-02-23T13:40:36Z</time>
      </trkpt>
      <trkpt lat="46.22797" lon="6.28072">
        <ele>494.39999389648</ele>
        <time>2020-02-23T13:40:37Z</time>
      </trkpt>
      <trkpt lat="46.22794" lon="6.28077">
        <ele>494.60000610352</ele>
        <time>2020-02-23T13:40:38Z</time>
      </trkpt>
      <trkpt lat="46.22792" lon="6.28083">
        <ele>495</ele>
        <time>2020-02-23T13:40:39Z</time>
      </trkpt>
      <trkpt lat="46.22789" lon="6.28088">
        <ele>495.20001220703</ele>
        <time>2020-02-23T13:40:40Z</time>
      </trkpt>
      <trkpt lat="46.22787" lon="6.28093">
        <ele>495.20001220703</ele>
        <time>2020-02-23T13:40:41Z</time>
      </trkpt>
      <trkpt lat="46.22785" lon="6.28099">
        <ele>495.39999389648</ele>
        <time>2020-02-23T13:40:42Z</time>
      </trkpt>
      <trkpt lat="46.22783" lon="6.28103">
        <ele>495.60000610352</ele>
        <time>2020-02-23T13:40:43Z</time>
      </trkpt>
      <trkpt lat="46.22782" lon="6.28107">
        <ele>495.60000610352</ele>
        <time>2020-02-23T13:40:44Z</time>
      </trkpt>
      <trkpt lat="46.2278" lon="6.28111">
        <ele>495.79998779297</ele>
        <time>2020-02-23T13:40:45Z</time>
      </trkpt>
      <trkpt lat="46.22779" lon="6.28116">
        <ele>495.79998779297</ele>
        <time>2020-02-23T13:40:46Z</time>
      </trkpt>
      <trkpt lat="46.22777" lon="6.28121">
        <ele>495.79998779297</ele>
        <time>2020-02-23T13:40:47Z</time>
      </trkpt>
      <trkpt lat="46.22775" lon="6.28126">
        <ele>496</ele>
        <time>2020-02-23T13:40:48Z</time>
      </trkpt>
      <trkpt lat="46.22772" lon="6.28136">
        <ele>496.39999389648</ele>
        <time>2020-02-23T13:40:50Z</time>
      </trkpt>
      <trkpt lat="46.22769" lon="6.28147">
        <ele>496.60000610352</ele>
        <time>2020-02-23T13:40:52Z</time>
      </trkpt>
      <trkpt lat="46.22765" lon="6.28158">
        <ele>496.79998779297</ele>
        <time>2020-02-23T13:40:54Z</time>
      </trkpt>
      <trkpt lat="46.22761" lon="6.28168">
        <ele>497</ele>
        <time>2020-02-23T13:40:56Z</time>
      </trkpt>
      <trkpt lat="46.2276" lon="6.28174">
        <ele>497</ele>
        <time>2020-02-23T13:40:57Z</time>
      </trkpt>
      <trkpt lat="46.22759" lon="6.28179">
        <ele>497</ele>
        <time>2020-02-23T13:40:58Z</time>
      </trkpt>
      <trkpt lat="46.22757" lon="6.28184">
        <ele>497</ele>
        <time>2020-02-23T13:40:59Z</time>
      </trkpt>
      <trkpt lat="46.22756" lon="6.28189">
        <ele>497.20001220703</ele>
        <time>2020-02-23T13:41:00Z</time>
      </trkpt>
      <trkpt lat="46.22755" lon="6.28194">
        <ele>497.20001220703</ele>
        <time>2020-02-23T13:41:01Z</time>
      </trkpt>
      <trkpt lat="46.22754" lon="6.282">
        <ele>497.20001220703</ele>
        <time>2020-02-23T13:41:02Z</time>
      </trkpt>
      <trkpt lat="46.22753" lon="6.28205">
        <ele>497.39999389648</ele>
        <time>2020-02-23T13:41:03Z</time>
      </trkpt>
      <trkpt lat="46.22752" lon="6.28211">
        <ele>497.39999389648</ele>
        <time>2020-02-23T13:41:04Z</time>
      </trkpt>
      <trkpt lat="46.2275" lon="6.28216">
        <ele>497.39999389648</ele>
        <time>2020-02-23T13:41:05Z</time>
      </trkpt>
      <trkpt lat="46.22749" lon="6.28222">
        <ele>497.39999389648</ele>
        <time>2020-02-23T13:41:06Z</time>
      </trkpt>
      <trkpt lat="46.22748" lon="6.28228">
        <ele>497.79998779297</ele>
        <time>2020-02-23T13:41:07Z</time>
      </trkpt>
      <trkpt lat="46.22746" lon="6.28234">
        <ele>498</ele>
        <time>2020-02-23T13:41:08Z</time>
      </trkpt>
      <trkpt lat="46.22745" lon="6.28239">
        <ele>498.20001220703</ele>
        <time>2020-02-23T13:41:09Z</time>
      </trkpt>
      <trkpt lat="46.22744" lon="6.28244">
        <ele>498.60000610352</ele>
        <time>2020-02-23T13:41:10Z</time>
      </trkpt>
      <trkpt lat="46.22742" lon="6.28248">
        <ele>498.60000610352</ele>
        <time>2020-02-23T13:41:11Z</time>
      </trkpt>
      <trkpt lat="46.22741" lon="6.28253">
        <ele>499</ele>
        <time>2020-02-23T13:41:12Z</time>
      </trkpt>
      <trkpt lat="46.2274" lon="6.28257">
        <ele>499</ele>
        <time>2020-02-23T13:41:13Z</time>
      </trkpt>
      <trkpt lat="46.22739" lon="6.28261">
        <ele>499</ele>
        <time>2020-02-23T13:41:14Z</time>
      </trkpt>
      <trkpt lat="46.22738" lon="6.28265">
        <ele>499.20001220703</ele>
        <time>2020-02-23T13:41:15Z</time>
      </trkpt>
      <trkpt lat="46.22738" lon="6.28269">
        <ele>499.20001220703</ele>
        <time>2020-02-23T13:41:16Z</time>
      </trkpt>
      <trkpt lat="46.22737" lon="6.28274">
        <ele>499.39999389648</ele>
        <time>2020-02-23T13:41:17Z</time>
      </trkpt>
      <trkpt lat="46.22737" lon="6.28278">
        <ele>499.60000610352</ele>
        <time>2020-02-23T13:41:18Z</time>
      </trkpt>
      <trkpt lat="46.22736" lon="6.28284">
        <ele>499.79998779297</ele>
        <time>2020-02-23T13:41:19Z</time>
      </trkpt>
      <trkpt lat="46.22735" lon="6.28295">
        <ele>500</ele>
        <time>2020-02-23T13:41:21Z</time>
      </trkpt>
      <trkpt lat="46.2273" lon="6.28324">
        <ele>500.20001220703</ele>
        <time>2020-02-23T13:41:26Z</time>
      </trkpt>
      <trkpt lat="46.22729" lon="6.28329">
        <ele>500.39999389648</ele>
        <time>2020-02-23T13:41:27Z</time>
      </trkpt>
      <trkpt lat="46.22727" lon="6.28335">
        <ele>500.39999389648</ele>
        <time>2020-02-23T13:41:28Z</time>
      </trkpt>
      <trkpt lat="46.22724" lon="6.28348">
        <ele>500.39999389648</ele>
        <time>2020-02-23T13:41:30Z</time>
      </trkpt>
      <trkpt lat="46.22722" lon="6.28355">
        <ele>500.60000610352</ele>
        <time>2020-02-23T13:41:31Z</time>
      </trkpt>
      <trkpt lat="46.22718" lon="6.28366">
        <ele>500.39999389648</ele>
        <time>2020-02-23T13:41:33Z</time>
      </trkpt>
      <trkpt lat="46.22716" lon="6.28371">
        <ele>500.60000610352</ele>
        <time>2020-02-23T13:41:34Z</time>
      </trkpt>
      <trkpt lat="46.22714" lon="6.28377">
        <ele>500.60000610352</ele>
        <time>2020-02-23T13:41:35Z</time>
      </trkpt>
      <trkpt lat="46.22712" lon="6.28382">
        <ele>500.79998779297</ele>
        <time>2020-02-23T13:41:36Z</time>
      </trkpt>
      <trkpt lat="46.2271" lon="6.28388">
        <ele>500.79998779297</ele>
        <time>2020-02-23T13:41:37Z</time>
      </trkpt>
      <trkpt lat="46.22709" lon="6.28393">
        <ele>500.79998779297</ele>
        <time>2020-02-23T13:41:38Z</time>
      </trkpt>
      <trkpt lat="46.22707" lon="6.28399">
        <ele>501</ele>
        <time>2020-02-23T13:41:39Z</time>
      </trkpt>
      <trkpt lat="46.22705" lon="6.28405">
        <ele>501</ele>
        <time>2020-02-23T13:41:40Z</time>
      </trkpt>
      <trkpt lat="46.22703" lon="6.28411">
        <ele>501.20001220703</ele>
        <time>2020-02-23T13:41:41Z</time>
      </trkpt>
      <trkpt lat="46.22701" lon="6.28416">
        <ele>501.20001220703</ele>
        <time>2020-02-23T13:41:42Z</time>
      </trkpt>
      <trkpt lat="46.22699" lon="6.28423">
        <ele>501.39999389648</ele>
        <time>2020-02-23T13:41:43Z</time>
      </trkpt>
      <trkpt lat="46.22697" lon="6.28428">
        <ele>501.60000610352</ele>
        <time>2020-02-23T13:41:44Z</time>
      </trkpt>
      <trkpt lat="46.22695" lon="6.28434">
        <ele>501.60000610352</ele>
        <time>2020-02-23T13:41:45Z</time>
      </trkpt>
      <trkpt lat="46.22686" lon="6.28458">
        <ele>502.39999389648</ele>
        <time>2020-02-23T13:41:49Z</time>
      </trkpt>
      <trkpt lat="46.22684" lon="6.28464">
        <ele>502.39999389648</ele>
        <time>2020-02-23T13:41:50Z</time>
      </trkpt>
      <trkpt lat="46.22682" lon="6.28469">
        <ele>502.39999389648</ele>
        <time>2020-02-23T13:41:51Z</time>
      </trkpt>
      <trkpt lat="46.2268" lon="6.28475">
        <ele>502.60000610352</ele>
        <time>2020-02-23T13:41:52Z</time>
      </trkpt>
      <trkpt lat="46.22678" lon="6.28481">
        <ele>502.60000610352</ele>
        <time>2020-02-23T13:41:53Z</time>
      </trkpt>
      <trkpt lat="46.22676" lon="6.28487">
        <ele>502.79998779297</ele>
        <time>2020-02-23T13:41:54Z</time>
      </trkpt>
      <trkpt lat="46.22673" lon="6.28493">
        <ele>502.79998779297</ele>
        <time>2020-02-23T13:41:55Z</time>
      </trkpt>
      <trkpt lat="46.2267" lon="6.28499">
        <ele>502.79998779297</ele>
        <time>2020-02-23T13:41:56Z</time>
      </trkpt>
      <trkpt lat="46.22666" lon="6.28512">
        <ele>503</ele>
        <time>2020-02-23T13:41:58Z</time>
      </trkpt>
      <trkpt lat="46.22664" lon="6.28518">
        <ele>503</ele>
        <time>2020-02-23T13:41:59Z</time>
      </trkpt>
      <trkpt lat="46.22663" lon="6.28523">
        <ele>503</ele>
        <time>2020-02-23T13:42:00Z</time>
      </trkpt>
      <trkpt lat="46.2266" lon="6.28528">
        <ele>503.20001220703</ele>
        <time>2020-02-23T13:42:01Z</time>
      </trkpt>
      <trkpt lat="46.22659" lon="6.28533">
        <ele>503.39999389648</ele>
        <time>2020-02-23T13:42:02Z</time>
      </trkpt>
      <trkpt lat="46.22657" lon="6.28539">
        <ele>503.39999389648</ele>
        <time>2020-02-23T13:42:03Z</time>
      </trkpt>
      <trkpt lat="46.22655" lon="6.28544">
        <ele>503.39999389648</ele>
        <time>2020-02-23T13:42:04Z</time>
      </trkpt>
      <trkpt lat="46.22653" lon="6.2855">
        <ele>503.39999389648</ele>
        <time>2020-02-23T13:42:05Z</time>
      </trkpt>
      <trkpt lat="46.22651" lon="6.28555">
        <ele>503.60000610352</ele>
        <time>2020-02-23T13:42:06Z</time>
      </trkpt>
      <trkpt lat="46.2265" lon="6.28561">
        <ele>504</ele>
        <time>2020-02-23T13:42:07Z</time>
      </trkpt>
      <trkpt lat="46.22648" lon="6.28566">
        <ele>504</ele>
        <time>2020-02-23T13:42:08Z</time>
      </trkpt>
      <trkpt lat="46.22647" lon="6.28571">
        <ele>504.20001220703</ele>
        <time>2020-02-23T13:42:09Z</time>
      </trkpt>
      <trkpt lat="46.22646" lon="6.28576">
        <ele>504.20001220703</ele>
        <time>2020-02-23T13:42:10Z</time>
      </trkpt>
      <trkpt lat="46.22644" lon="6.28582">
        <ele>504.39999389648</ele>
        <time>2020-02-23T13:42:11Z</time>
      </trkpt>
      <trkpt lat="46.22643" lon="6.28587">
        <ele>504.39999389648</ele>
        <time>2020-02-23T13:42:12Z</time>
      </trkpt>
      <trkpt lat="46.22642" lon="6.28592">
        <ele>504.39999389648</ele>
        <time>2020-02-23T13:42:13Z</time>
      </trkpt>
      <trkpt lat="46.22641" lon="6.28597">
        <ele>504.60000610352</ele>
        <time>2020-02-23T13:42:14Z</time>
      </trkpt>
      <trkpt lat="46.2264" lon="6.28602">
        <ele>504.60000610352</ele>
        <time>2020-02-23T13:42:15Z</time>
      </trkpt>
      <trkpt lat="46.22639" lon="6.28608">
        <ele>504.60000610352</ele>
        <time>2020-02-23T13:42:16Z</time>
      </trkpt>
      <trkpt lat="46.22639" lon="6.28614">
        <ele>504.60000610352</ele>
        <time>2020-02-23T13:42:17Z</time>
      </trkpt>
      <trkpt lat="46.22638" lon="6.28619">
        <ele>504.60000610352</ele>
        <time>2020-02-23T13:42:18Z</time>
      </trkpt>
      <trkpt lat="46.22637" lon="6.28625">
        <ele>504.79998779297</ele>
        <time>2020-02-23T13:42:19Z</time>
      </trkpt>
      <trkpt lat="46.22636" lon="6.28632">
        <ele>504.79998779297</ele>
        <time>2020-02-23T13:42:20Z</time>
      </trkpt>
      <trkpt lat="46.22636" lon="6.28644">
        <ele>505.39999389648</ele>
        <time>2020-02-23T13:42:22Z</time>
      </trkpt>
      <trkpt lat="46.22634" lon="6.28657">
        <ele>505.60000610352</ele>
        <time>2020-02-23T13:42:24Z</time>
      </trkpt>
      <trkpt lat="46.22633" lon="6.28663">
        <ele>505.60000610352</ele>
        <time>2020-02-23T13:42:25Z</time>
      </trkpt>
      <trkpt lat="46.22632" lon="6.2867">
        <ele>505.79998779297</ele>
        <time>2020-02-23T13:42:26Z</time>
      </trkpt>
      <trkpt lat="46.22629" lon="6.28683">
        <ele>505.79998779297</ele>
        <time>2020-02-23T13:42:28Z</time>
      </trkpt>
      <trkpt lat="46.22628" lon="6.28688">
        <ele>505.79998779297</ele>
        <time>2020-02-23T13:42:29Z</time>
      </trkpt>
      <trkpt lat="46.22627" lon="6.28693">
        <ele>506</ele>
        <time>2020-02-23T13:42:30Z</time>
      </trkpt>
      <trkpt lat="46.22626" lon="6.28698">
        <ele>506</ele>
        <time>2020-02-23T13:42:31Z</time>
      </trkpt>
      <trkpt lat="46.22625" lon="6.28703">
        <ele>506</ele>
        <time>2020-02-23T13:42:32Z</time>
      </trkpt>
      <trkpt lat="46.22624" lon="6.28708">
        <ele>506</ele>
        <time>2020-02-23T13:42:33Z</time>
      </trkpt>
      <trkpt lat="46.22623" lon="6.28714">
        <ele>506.20001220703</ele>
        <time>2020-02-23T13:42:34Z</time>
      </trkpt>
      <trkpt lat="46.2262" lon="6.28726">
        <ele>506.39999389648</ele>
        <time>2020-02-23T13:42:36Z</time>
      </trkpt>
      <trkpt lat="46.22617" lon="6.28738">
        <ele>506.79998779297</ele>
        <time>2020-02-23T13:42:38Z</time>
      </trkpt>
      <trkpt lat="46.22614" lon="6.28749">
        <ele>506.79998779297</ele>
        <time>2020-02-23T13:42:40Z</time>
      </trkpt>
      <trkpt lat="46.22612" lon="6.28755">
        <ele>507</ele>
        <time>2020-02-23T13:42:41Z</time>
      </trkpt>
      <trkpt lat="46.22607" lon="6.28765">
        <ele>507</ele>
        <time>2020-02-23T13:42:43Z</time>
      </trkpt>
      <trkpt lat="46.22604" lon="6.2877">
        <ele>507</ele>
        <time>2020-02-23T13:42:44Z</time>
      </trkpt>
      <trkpt lat="46.22601" lon="6.28775">
        <ele>507.20001220703</ele>
        <time>2020-02-23T13:42:45Z</time>
      </trkpt>
      <trkpt lat="46.22598" lon="6.28781">
        <ele>507</ele>
        <time>2020-02-23T13:42:46Z</time>
      </trkpt>
      <trkpt lat="46.22587" lon="6.28803">
        <ele>507.20001220703</ele>
        <time>2020-02-23T13:42:50Z</time>
      </trkpt>
      <trkpt lat="46.22584" lon="6.28809">
        <ele>507.20001220703</ele>
        <time>2020-02-23T13:42:51Z</time>
      </trkpt>
      <trkpt lat="46.22578" lon="6.2882">
        <ele>507.20001220703</ele>
        <time>2020-02-23T13:42:53Z</time>
      </trkpt>
      <trkpt lat="46.22571" lon="6.28831">
        <ele>507.39999389648</ele>
        <time>2020-02-23T13:42:55Z</time>
      </trkpt>
      <trkpt lat="46.22563" lon="6.28848">
        <ele>507.79998779297</ele>
        <time>2020-02-23T13:42:58Z</time>
      </trkpt>
      <trkpt lat="46.2256" lon="6.28853">
        <ele>508</ele>
        <time>2020-02-23T13:42:59Z</time>
      </trkpt>
      <trkpt lat="46.22557" lon="6.28858">
        <ele>508</ele>
        <time>2020-02-23T13:43:00Z</time>
      </trkpt>
      <trkpt lat="46.22555" lon="6.28862">
        <ele>508</ele>
        <time>2020-02-23T13:43:01Z</time>
      </trkpt>
      <trkpt lat="46.22553" lon="6.28866">
        <ele>508</ele>
        <time>2020-02-23T13:43:02Z</time>
      </trkpt>
      <trkpt lat="46.22551" lon="6.2887">
        <ele>508</ele>
        <time>2020-02-23T13:43:03Z</time>
      </trkpt>
      <trkpt lat="46.2255" lon="6.28875">
        <ele>508</ele>
        <time>2020-02-23T13:43:04Z</time>
      </trkpt>
      <trkpt lat="46.22548" lon="6.28879">
        <ele>508</ele>
        <time>2020-02-23T13:43:05Z</time>
      </trkpt>
      <trkpt lat="46.22546" lon="6.28884">
        <ele>508.20001220703</ele>
        <time>2020-02-23T13:43:06Z</time>
      </trkpt>
      <trkpt lat="46.22541" lon="6.28899">
        <ele>508.39999389648</ele>
        <time>2020-02-23T13:43:09Z</time>
      </trkpt>
      <trkpt lat="46.22539" lon="6.2891">
        <ele>508.60000610352</ele>
        <time>2020-02-23T13:43:11Z</time>
      </trkpt>
      <trkpt lat="46.22526" lon="6.28947">
        <ele>509</ele>
        <time>2020-02-23T13:43:18Z</time>
      </trkpt>
      <trkpt lat="46.22523" lon="6.28952">
        <ele>509</ele>
        <time>2020-02-23T13:43:19Z</time>
      </trkpt>
      <trkpt lat="46.22507" lon="6.28974">
        <ele>509.20001220703</ele>
        <time>2020-02-23T13:43:24Z</time>
      </trkpt>
      <trkpt lat="46.22504" lon="6.2898">
        <ele>509.39999389648</ele>
        <time>2020-02-23T13:43:25Z</time>
      </trkpt>
      <trkpt lat="46.22501" lon="6.28985">
        <ele>509.39999389648</ele>
        <time>2020-02-23T13:43:26Z</time>
      </trkpt>
      <trkpt lat="46.22498" lon="6.2899">
        <ele>509.39999389648</ele>
        <time>2020-02-23T13:43:27Z</time>
      </trkpt>
      <trkpt lat="46.22495" lon="6.28994">
        <ele>509.60000610352</ele>
        <time>2020-02-23T13:43:28Z</time>
      </trkpt>
      <trkpt lat="46.22493" lon="6.28999">
        <ele>509.60000610352</ele>
        <time>2020-02-23T13:43:29Z</time>
      </trkpt>
      <trkpt lat="46.22491" lon="6.29004">
        <ele>509.60000610352</ele>
        <time>2020-02-23T13:43:30Z</time>
      </trkpt>
      <trkpt lat="46.22489" lon="6.29008">
        <ele>509.39999389648</ele>
        <time>2020-02-23T13:43:31Z</time>
      </trkpt>
      <trkpt lat="46.22488" lon="6.29013">
        <ele>509.60000610352</ele>
        <time>2020-02-23T13:43:32Z</time>
      </trkpt>
      <trkpt lat="46.22486" lon="6.29017">
        <ele>509.79998779297</ele>
        <time>2020-02-23T13:43:33Z</time>
      </trkpt>
      <trkpt lat="46.22484" lon="6.2902">
        <ele>510</ele>
        <time>2020-02-23T13:43:34Z</time>
      </trkpt>
      <trkpt lat="46.22481" lon="6.29023">
        <ele>510.20001220703</ele>
        <time>2020-02-23T13:43:35Z</time>
      </trkpt>
      <trkpt lat="46.22475" lon="6.29031">
        <ele>510.60000610352</ele>
        <time>2020-02-23T13:43:37Z</time>
      </trkpt>
      <trkpt lat="46.22472" lon="6.29035">
        <ele>510.60000610352</ele>
        <time>2020-02-23T13:43:38Z</time>
      </trkpt>
      <trkpt lat="46.22469" lon="6.2904">
        <ele>510.79998779297</ele>
        <time>2020-02-23T13:43:39Z</time>
      </trkpt>
      <trkpt lat="46.22456" lon="6.29059">
        <ele>511</ele>
        <time>2020-02-23T13:43:43Z</time>
      </trkpt>
      <trkpt lat="46.22442" lon="6.29077">
        <ele>511</ele>
        <time>2020-02-23T13:43:47Z</time>
      </trkpt>
      <trkpt lat="46.22438" lon="6.29081">
        <ele>511</ele>
        <time>2020-02-23T13:43:48Z</time>
      </trkpt>
      <trkpt lat="46.22435" lon="6.29085">
        <ele>510.79998779297</ele>
        <time>2020-02-23T13:43:49Z</time>
      </trkpt>
      <trkpt lat="46.22431" lon="6.29089">
        <ele>511</ele>
        <time>2020-02-23T13:43:50Z</time>
      </trkpt>
      <trkpt lat="46.22428" lon="6.29092">
        <ele>511</ele>
        <time>2020-02-23T13:43:51Z</time>
      </trkpt>
      <trkpt lat="46.22425" lon="6.29095">
        <ele>511</ele>
        <time>2020-02-23T13:43:52Z</time>
      </trkpt>
      <trkpt lat="46.22421" lon="6.29099">
        <ele>511</ele>
        <time>2020-02-23T13:43:53Z</time>
      </trkpt>
      <trkpt lat="46.22418" lon="6.29102">
        <ele>511</ele>
        <time>2020-02-23T13:43:54Z</time>
      </trkpt>
      <trkpt lat="46.22415" lon="6.29106">
        <ele>510.79998779297</ele>
        <time>2020-02-23T13:43:55Z</time>
      </trkpt>
      <trkpt lat="46.22411" lon="6.29109">
        <ele>511</ele>
        <time>2020-02-23T13:43:56Z</time>
      </trkpt>
      <trkpt lat="46.22408" lon="6.29113">
        <ele>511</ele>
        <time>2020-02-23T13:43:57Z</time>
      </trkpt>
      <trkpt lat="46.22404" lon="6.29116">
        <ele>511.20001220703</ele>
        <time>2020-02-23T13:43:58Z</time>
      </trkpt>
      <trkpt lat="46.22401" lon="6.29119">
        <ele>511.20001220703</ele>
        <time>2020-02-23T13:43:59Z</time>
      </trkpt>
      <trkpt lat="46.22397" lon="6.29122">
        <ele>511.20001220703</ele>
        <time>2020-02-23T13:44:00Z</time>
      </trkpt>
      <trkpt lat="46.22394" lon="6.29125">
        <ele>511.39999389648</ele>
        <time>2020-02-23T13:44:01Z</time>
      </trkpt>
      <trkpt lat="46.22391" lon="6.29128">
        <ele>511.39999389648</ele>
        <time>2020-02-23T13:44:02Z</time>
      </trkpt>
      <trkpt lat="46.22388" lon="6.29131">
        <ele>511.60000610352</ele>
        <time>2020-02-23T13:44:03Z</time>
      </trkpt>
      <trkpt lat="46.22385" lon="6.29133">
        <ele>511.79998779297</ele>
        <time>2020-02-23T13:44:04Z</time>
      </trkpt>
      <trkpt lat="46.22382" lon="6.29136">
        <ele>511.79998779297</ele>
        <time>2020-02-23T13:44:05Z</time>
      </trkpt>
      <trkpt lat="46.2238" lon="6.29138">
        <ele>512</ele>
        <time>2020-02-23T13:44:06Z</time>
      </trkpt>
      <trkpt lat="46.22378" lon="6.29139">
        <ele>512</ele>
        <time>2020-02-23T13:44:07Z</time>
      </trkpt>
      <trkpt lat="46.22377" lon="6.29139">
        <ele>512.20001220703</ele>
        <time>2020-02-23T13:44:08Z</time>
      </trkpt>
      <trkpt lat="46.22375" lon="6.2914">
        <ele>512.20001220703</ele>
        <time>2020-02-23T13:44:09Z</time>
      </trkpt>
      <trkpt lat="46.22374" lon="6.2914">
        <ele>512.20001220703</ele>
        <time>2020-02-23T13:44:10Z</time>
      </trkpt>
      <trkpt lat="46.22372" lon="6.2914">
        <ele>512.40002441406</ele>
        <time>2020-02-23T13:44:11Z</time>
      </trkpt>
      <trkpt lat="46.22371" lon="6.2914">
        <ele>512.40002441406</ele>
        <time>2020-02-23T13:44:12Z</time>
      </trkpt>
      <trkpt lat="46.2237" lon="6.29141">
        <ele>512.40002441406</ele>
        <time>2020-02-23T13:44:13Z</time>
      </trkpt>
      <trkpt lat="46.22369" lon="6.29143">
        <ele>512.59997558594</ele>
        <time>2020-02-23T13:44:14Z</time>
      </trkpt>
      <trkpt lat="46.22368" lon="6.29145">
        <ele>512.79998779297</ele>
        <time>2020-02-23T13:44:15Z</time>
      </trkpt>
      <trkpt lat="46.22367" lon="6.29146">
        <ele>512.79998779297</ele>
        <time>2020-02-23T13:44:16Z</time>
      </trkpt>
      <trkpt lat="46.22367" lon="6.29149">
        <ele>512.79998779297</ele>
        <time>2020-02-23T13:44:17Z</time>
      </trkpt>
      <trkpt lat="46.22367" lon="6.29151">
        <ele>512.79998779297</ele>
        <time>2020-02-23T13:44:18Z</time>
      </trkpt>
      <trkpt lat="46.22366" lon="6.29153">
        <ele>512.79998779297</ele>
        <time>2020-02-23T13:44:19Z</time>
      </trkpt>
      <trkpt lat="46.22365" lon="6.29154">
        <ele>512.79998779297</ele>
        <time>2020-02-23T13:44:20Z</time>
      </trkpt>
      <trkpt lat="46.22365" lon="6.29154">
        <ele>512.79998779297</ele>
        <time>2020-02-23T13:44:21Z</time>
      </trkpt>
      <trkpt lat="46.22365" lon="6.29154">
        <ele>513</ele>
        <time>2020-02-23T13:44:24Z</time>
      </trkpt>
      <trkpt lat="46.22364" lon="6.29152">
        <ele>513</ele>
        <time>2020-02-23T13:44:37Z</time>
      </trkpt>
      <trkpt lat="46.22364" lon="6.29151">
        <ele>513.20001220703</ele>
        <time>2020-02-23T13:44:38Z</time>
      </trkpt>
      <trkpt lat="46.22365" lon="6.2915">
        <ele>513.20001220703</ele>
        <time>2020-02-23T13:44:39Z</time>
      </trkpt>
      <trkpt lat="46.22365" lon="6.2915">
        <ele>513</ele>
        <time>2020-02-23T13:44:40Z</time>
      </trkpt>
      <trkpt lat="46.22366" lon="6.2915">
        <ele>513</ele>
        <time>2020-02-23T13:44:41Z</time>
      </trkpt>
      <trkpt lat="46.22367" lon="6.29149">
        <ele>513</ele>
        <time>2020-02-23T13:44:42Z</time>
      </trkpt>
      <trkpt lat="46.22368" lon="6.29149">
        <ele>513</ele>
        <time>2020-02-23T13:44:43Z</time>
      </trkpt>
      <trkpt lat="46.22369" lon="6.29149">
        <ele>513</ele>
        <time>2020-02-23T13:44:44Z</time>
      </trkpt>
      <trkpt lat="46.22371" lon="6.29149">
        <ele>513</ele>
        <time>2020-02-23T13:44:46Z</time>
      </trkpt>
      <trkpt lat="46.22372" lon="6.29149">
        <ele>513.20001220703</ele>
        <time>2020-02-23T13:44:48Z</time>
      </trkpt>
      <trkpt lat="46.22375" lon="6.2915">
        <ele>513.20001220703</ele>
        <time>2020-02-23T13:44:50Z</time>
      </trkpt>
      <trkpt lat="46.22376" lon="6.2915">
        <ele>513</ele>
        <time>2020-02-23T13:44:51Z</time>
      </trkpt>
      <trkpt lat="46.22378" lon="6.29152">
        <ele>513</ele>
        <time>2020-02-23T13:44:52Z</time>
      </trkpt>
      <trkpt lat="46.22381" lon="6.29156">
        <ele>512.79998779297</ele>
        <time>2020-02-23T13:44:54Z</time>
      </trkpt>
      <trkpt lat="46.22382" lon="6.29158">
        <ele>512.79998779297</ele>
        <time>2020-02-23T13:44:55Z</time>
      </trkpt>
      <trkpt lat="46.22383" lon="6.29161">
        <ele>513</ele>
        <time>2020-02-23T13:44:56Z</time>
      </trkpt>
      <trkpt lat="46.22385" lon="6.29166">
        <ele>513</ele>
        <time>2020-02-23T13:44:58Z</time>
      </trkpt>
      <trkpt lat="46.22387" lon="6.2917">
        <ele>513</ele>
        <time>2020-02-23T13:44:59Z</time>
      </trkpt>
      <trkpt lat="46.2239" lon="6.29178">
        <ele>513.20001220703</ele>
        <time>2020-02-23T13:45:01Z</time>
      </trkpt>
      <trkpt lat="46.22391" lon="6.29181">
        <ele>513</ele>
        <time>2020-02-23T13:45:02Z</time>
      </trkpt>
      <trkpt lat="46.22393" lon="6.29184">
        <ele>513</ele>
        <time>2020-02-23T13:45:03Z</time>
      </trkpt>
      <trkpt lat="46.22394" lon="6.29188">
        <ele>513</ele>
        <time>2020-02-23T13:45:04Z</time>
      </trkpt>
      <trkpt lat="46.22396" lon="6.29191">
        <ele>513</ele>
        <time>2020-02-23T13:45:05Z</time>
      </trkpt>
      <trkpt lat="46.22397" lon="6.29194">
        <ele>513</ele>
        <time>2020-02-23T13:45:06Z</time>
      </trkpt>
      <trkpt lat="46.22398" lon="6.29196">
        <ele>513</ele>
        <time>2020-02-23T13:45:07Z</time>
      </trkpt>
      <trkpt lat="46.22399" lon="6.29199">
        <ele>513</ele>
        <time>2020-02-23T13:45:08Z</time>
      </trkpt>
      <trkpt lat="46.224" lon="6.29201">
        <ele>513</ele>
        <time>2020-02-23T13:45:09Z</time>
      </trkpt>
      <trkpt lat="46.22401" lon="6.29203">
        <ele>513.20001220703</ele>
        <time>2020-02-23T13:45:10Z</time>
      </trkpt>
      <trkpt lat="46.22402" lon="6.29205">
        <ele>513.20001220703</ele>
        <time>2020-02-23T13:45:11Z</time>
      </trkpt>
      <trkpt lat="46.22403" lon="6.29207">
        <ele>513</ele>
        <time>2020-02-23T13:45:12Z</time>
      </trkpt>
      <trkpt lat="46.22403" lon="6.29209">
        <ele>513</ele>
        <time>2020-02-23T13:45:13Z</time>
      </trkpt>
      <trkpt lat="46.22404" lon="6.2921">
        <ele>513</ele>
        <time>2020-02-23T13:45:14Z</time>
      </trkpt>
      <trkpt lat="46.22406" lon="6.29209">
        <ele>513.20001220703</ele>
        <time>2020-02-23T13:45:15Z</time>
      </trkpt>
      <trkpt lat="46.22406" lon="6.29203">
        <ele>513.40002441406</ele>
        <time>2020-02-23T13:45:17Z</time>
      </trkpt>
      <trkpt lat="46.22405" lon="6.292">
        <ele>513.20001220703</ele>
        <time>2020-02-23T13:45:18Z</time>
      </trkpt>
      <trkpt lat="46.22402" lon="6.29192">
        <ele>513.20001220703</ele>
        <time>2020-02-23T13:45:21Z</time>
      </trkpt>
      <trkpt lat="46.224" lon="6.2919">
        <ele>513.20001220703</ele>
        <time>2020-02-23T13:45:22Z</time>
      </trkpt>
      <trkpt lat="46.22399" lon="6.29186">
        <ele>513</ele>
        <time>2020-02-23T13:45:23Z</time>
      </trkpt>
      <trkpt lat="46.22396" lon="6.29179">
        <ele>513</ele>
        <time>2020-02-23T13:45:25Z</time>
      </trkpt>
      <trkpt lat="46.22395" lon="6.29175">
        <ele>513</ele>
        <time>2020-02-23T13:45:26Z</time>
      </trkpt>
      <trkpt lat="46.22392" lon="6.29168">
        <ele>512.79998779297</ele>
        <time>2020-02-23T13:45:28Z</time>
      </trkpt>
      <trkpt lat="46.22391" lon="6.29166">
        <ele>512.59997558594</ele>
        <time>2020-02-23T13:45:29Z</time>
      </trkpt>
      <trkpt lat="46.22391" lon="6.29165">
        <ele>512.59997558594</ele>
        <time>2020-02-23T13:45:30Z</time>
      </trkpt>
      <trkpt lat="46.22391" lon="6.29164">
        <ele>512.59997558594</ele>
        <time>2020-02-23T13:45:32Z</time>
      </trkpt>
      <trkpt lat="46.22391" lon="6.29164">
        <ele>512.79998779297</ele>
        <time>2020-02-23T13:45:33Z</time>
      </trkpt>
      <trkpt lat="46.22392" lon="6.29164">
        <ele>512.59997558594</ele>
        <time>2020-02-23T13:45:34Z</time>
      </trkpt>
      <trkpt lat="46.22391" lon="6.29164">
        <ele>512.79998779297</ele>
        <time>2020-02-23T13:45:38Z</time>
      </trkpt>
      <trkpt lat="46.22391" lon="6.29165">
        <ele>513.59997558594</ele>
        <time>2020-02-23T13:46:44Z</time>
      </trkpt>
      <trkpt lat="46.22391" lon="6.29165">
        <ele>513.59997558594</ele>
        <time>2020-02-23T13:48:31Z</time>
      </trkpt>
      <trkpt lat="46.22389" lon="6.29163">
        <ele>513.40002441406</ele>
        <time>2020-02-23T13:48:35Z</time>
      </trkpt>
      <trkpt lat="46.22389" lon="6.29162">
        <ele>513.59997558594</ele>
        <time>2020-02-23T13:48:36Z</time>
      </trkpt>
      <trkpt lat="46.22388" lon="6.29161">
        <ele>513.59997558594</ele>
        <time>2020-02-23T13:48:37Z</time>
      </trkpt>
      <trkpt lat="46.22387" lon="6.29161">
        <ele>513.59997558594</ele>
        <time>2020-02-23T13:48:38Z</time>
      </trkpt>
      <trkpt lat="46.22387" lon="6.29161">
        <ele>513.59997558594</ele>
        <time>2020-02-23T13:48:39Z</time>
      </trkpt>
      <trkpt lat="46.22384" lon="6.2916">
        <ele>513.40002441406</ele>
        <time>2020-02-23T13:48:42Z</time>
      </trkpt>
      <trkpt lat="46.22383" lon="6.2916">
        <ele>513.20001220703</ele>
        <time>2020-02-23T13:48:43Z</time>
      </trkpt>
      <trkpt lat="46.22382" lon="6.29158">
        <ele>513</ele>
        <time>2020-02-23T13:48:44Z</time>
      </trkpt>
      <trkpt lat="46.22381" lon="6.29156">
        <ele>513</ele>
        <time>2020-02-23T13:48:45Z</time>
      </trkpt>
      <trkpt lat="46.22378" lon="6.29149">
        <ele>513</ele>
        <time>2020-02-23T13:48:47Z</time>
      </trkpt>
      <trkpt lat="46.22375" lon="6.29142">
        <ele>512.79998779297</ele>
        <time>2020-02-23T13:48:49Z</time>
      </trkpt>
      <trkpt lat="46.22373" lon="6.2914">
        <ele>512.79998779297</ele>
        <time>2020-02-23T13:48:50Z</time>
      </trkpt>
      <trkpt lat="46.22372" lon="6.29139">
        <ele>512.79998779297</ele>
        <time>2020-02-23T13:48:51Z</time>
      </trkpt>
      <trkpt lat="46.2237" lon="6.29141">
        <ele>512.59997558594</ele>
        <time>2020-02-23T13:48:52Z</time>
      </trkpt>
      <trkpt lat="46.22369" lon="6.29143">
        <ele>512.59997558594</ele>
        <time>2020-02-23T13:48:53Z</time>
      </trkpt>
      <trkpt lat="46.22368" lon="6.29146">
        <ele>512.40002441406</ele>
        <time>2020-02-23T13:48:54Z</time>
      </trkpt>
      <trkpt lat="46.22366" lon="6.29148">
        <ele>512.40002441406</ele>
        <time>2020-02-23T13:48:55Z</time>
      </trkpt>
      <trkpt lat="46.22364" lon="6.2915">
        <ele>512.40002441406</ele>
        <time>2020-02-23T13:48:56Z</time>
      </trkpt>
      <trkpt lat="46.22362" lon="6.29153">
        <ele>512.40002441406</ele>
        <time>2020-02-23T13:48:57Z</time>
      </trkpt>
      <trkpt lat="46.22359" lon="6.29156">
        <ele>512.20001220703</ele>
        <time>2020-02-23T13:48:58Z</time>
      </trkpt>
      <trkpt lat="46.2235" lon="6.29169">
        <ele>512.20001220703</ele>
        <time>2020-02-23T13:49:02Z</time>
      </trkpt>
      <trkpt lat="46.22345" lon="6.29176">
        <ele>512.40002441406</ele>
        <time>2020-02-23T13:49:04Z</time>
      </trkpt>
      <trkpt lat="46.22342" lon="6.2918">
        <ele>512.40002441406</ele>
        <time>2020-02-23T13:49:05Z</time>
      </trkpt>
      <trkpt lat="46.22339" lon="6.29184">
        <ele>512.59997558594</ele>
        <time>2020-02-23T13:49:06Z</time>
      </trkpt>
      <trkpt lat="46.22321" lon="6.29208">
        <ele>512.79998779297</ele>
        <time>2020-02-23T13:49:12Z</time>
      </trkpt>
      <trkpt lat="46.22318" lon="6.29211">
        <ele>512.79998779297</ele>
        <time>2020-02-23T13:49:13Z</time>
      </trkpt>
      <trkpt lat="46.22316" lon="6.29215">
        <ele>512.79998779297</ele>
        <time>2020-02-23T13:49:14Z</time>
      </trkpt>
      <trkpt lat="46.22313" lon="6.29218">
        <ele>512.79998779297</ele>
        <time>2020-02-23T13:49:15Z</time>
      </trkpt>
      <trkpt lat="46.22311" lon="6.29221">
        <ele>513</ele>
        <time>2020-02-23T13:49:16Z</time>
      </trkpt>
      <trkpt lat="46.22309" lon="6.29224">
        <ele>512.79998779297</ele>
        <time>2020-02-23T13:49:17Z</time>
      </trkpt>
      <trkpt lat="46.22307" lon="6.29227">
        <ele>513</ele>
        <time>2020-02-23T13:49:18Z</time>
      </trkpt>
      <trkpt lat="46.22305" lon="6.2923">
        <ele>512.79998779297</ele>
        <time>2020-02-23T13:49:19Z</time>
      </trkpt>
      <trkpt lat="46.223" lon="6.29235">
        <ele>513</ele>
        <time>2020-02-23T13:49:21Z</time>
      </trkpt>
      <trkpt lat="46.22298" lon="6.29238">
        <ele>513.20001220703</ele>
        <time>2020-02-23T13:49:22Z</time>
      </trkpt>
      <trkpt lat="46.22277" lon="6.29264">
        <ele>513.59997558594</ele>
        <time>2020-02-23T13:49:30Z</time>
      </trkpt>
      <trkpt lat="46.22274" lon="6.29266">
        <ele>513.59997558594</ele>
        <time>2020-02-23T13:49:31Z</time>
      </trkpt>
      <trkpt lat="46.22271" lon="6.29266">
        <ele>513.59997558594</ele>
        <time>2020-02-23T13:49:32Z</time>
      </trkpt>
      <trkpt lat="46.22267" lon="6.29267">
        <ele>513.40002441406</ele>
        <time>2020-02-23T13:49:33Z</time>
      </trkpt>
      <trkpt lat="46.22259" lon="6.29268">
        <ele>513.59997558594</ele>
        <time>2020-02-23T13:49:35Z</time>
      </trkpt>
      <trkpt lat="46.22251" lon="6.2927">
        <ele>513.59997558594</ele>
        <time>2020-02-23T13:49:37Z</time>
      </trkpt>
      <trkpt lat="46.22247" lon="6.29272">
        <ele>513.59997558594</ele>
        <time>2020-02-23T13:49:38Z</time>
      </trkpt>
      <trkpt lat="46.22244" lon="6.29275">
        <ele>513.79998779297</ele>
        <time>2020-02-23T13:49:39Z</time>
      </trkpt>
      <trkpt lat="46.2224" lon="6.29279">
        <ele>513.79998779297</ele>
        <time>2020-02-23T13:49:40Z</time>
      </trkpt>
      <trkpt lat="46.22237" lon="6.29283">
        <ele>514</ele>
        <time>2020-02-23T13:49:41Z</time>
      </trkpt>
      <trkpt lat="46.22234" lon="6.29287">
        <ele>514</ele>
        <time>2020-02-23T13:49:42Z</time>
      </trkpt>
      <trkpt lat="46.22227" lon="6.29296">
        <ele>513.59997558594</ele>
        <time>2020-02-23T13:49:44Z</time>
      </trkpt>
      <trkpt lat="46.22224" lon="6.293">
        <ele>513.59997558594</ele>
        <time>2020-02-23T13:49:45Z</time>
      </trkpt>
      <trkpt lat="46.22221" lon="6.29304">
        <ele>513.59997558594</ele>
        <time>2020-02-23T13:49:46Z</time>
      </trkpt>
      <trkpt lat="46.22218" lon="6.29308">
        <ele>513.40002441406</ele>
        <time>2020-02-23T13:49:47Z</time>
      </trkpt>
      <trkpt lat="46.22216" lon="6.29312">
        <ele>513.40002441406</ele>
        <time>2020-02-23T13:49:48Z</time>
      </trkpt>
      <trkpt lat="46.22213" lon="6.29316">
        <ele>513.20001220703</ele>
        <time>2020-02-23T13:49:49Z</time>
      </trkpt>
      <trkpt lat="46.22211" lon="6.29319">
        <ele>513.20001220703</ele>
        <time>2020-02-23T13:49:50Z</time>
      </trkpt>
      <trkpt lat="46.22209" lon="6.29322">
        <ele>513</ele>
        <time>2020-02-23T13:49:51Z</time>
      </trkpt>
      <trkpt lat="46.22207" lon="6.29324">
        <ele>512.79998779297</ele>
        <time>2020-02-23T13:49:52Z</time>
      </trkpt>
      <trkpt lat="46.22206" lon="6.29325">
        <ele>512.59997558594</ele>
        <time>2020-02-23T13:49:53Z</time>
      </trkpt>
      <trkpt lat="46.22206" lon="6.29327">
        <ele>512.40002441406</ele>
        <time>2020-02-23T13:49:54Z</time>
      </trkpt>
      <trkpt lat="46.22205" lon="6.29329">
        <ele>511.79998779297</ele>
        <time>2020-02-23T13:49:55Z</time>
      </trkpt>
      <trkpt lat="46.22201" lon="6.29334">
        <ele>511.20001220703</ele>
        <time>2020-02-23T13:49:57Z</time>
      </trkpt>
      <trkpt lat="46.22199" lon="6.29338">
        <ele>511</ele>
        <time>2020-02-23T13:49:58Z</time>
      </trkpt>
      <trkpt lat="46.22197" lon="6.29342">
        <ele>511</ele>
        <time>2020-02-23T13:49:59Z</time>
      </trkpt>
      <trkpt lat="46.22194" lon="6.29347">
        <ele>511</ele>
        <time>2020-02-23T13:50:00Z</time>
      </trkpt>
      <trkpt lat="46.22191" lon="6.29352">
        <ele>510.79998779297</ele>
        <time>2020-02-23T13:50:01Z</time>
      </trkpt>
      <trkpt lat="46.22175" lon="6.29373">
        <ele>510.20001220703</ele>
        <time>2020-02-23T13:50:05Z</time>
      </trkpt>
      <trkpt lat="46.22171" lon="6.2938">
        <ele>510</ele>
        <time>2020-02-23T13:50:06Z</time>
      </trkpt>
      <trkpt lat="46.22163" lon="6.29395">
        <ele>509.60000610352</ele>
        <time>2020-02-23T13:50:08Z</time>
      </trkpt>
      <trkpt lat="46.22156" lon="6.2941">
        <ele>509</ele>
        <time>2020-02-23T13:50:10Z</time>
      </trkpt>
      <trkpt lat="46.22154" lon="6.29416">
        <ele>508.60000610352</ele>
        <time>2020-02-23T13:50:11Z</time>
      </trkpt>
      <trkpt lat="46.22151" lon="6.2942">
        <ele>508.39999389648</ele>
        <time>2020-02-23T13:50:12Z</time>
      </trkpt>
      <trkpt lat="46.2215" lon="6.29424">
        <ele>508.20001220703</ele>
        <time>2020-02-23T13:50:13Z</time>
      </trkpt>
      <trkpt lat="46.22148" lon="6.29428">
        <ele>507.79998779297</ele>
        <time>2020-02-23T13:50:14Z</time>
      </trkpt>
      <trkpt lat="46.22146" lon="6.29432">
        <ele>506.79998779297</ele>
        <time>2020-02-23T13:50:15Z</time>
      </trkpt>
      <trkpt lat="46.22144" lon="6.29436">
        <ele>506.20001220703</ele>
        <time>2020-02-23T13:50:16Z</time>
      </trkpt>
      <trkpt lat="46.22142" lon="6.2944">
        <ele>505.39999389648</ele>
        <time>2020-02-23T13:50:17Z</time>
      </trkpt>
      <trkpt lat="46.22137" lon="6.29451">
        <ele>504.60000610352</ele>
        <time>2020-02-23T13:50:19Z</time>
      </trkpt>
      <trkpt lat="46.22133" lon="6.29456">
        <ele>504.60000610352</ele>
        <time>2020-02-23T13:50:20Z</time>
      </trkpt>
      <trkpt lat="46.22123" lon="6.29472">
        <ele>504.20001220703</ele>
        <time>2020-02-23T13:50:23Z</time>
      </trkpt>
      <trkpt lat="46.2211" lon="6.29489">
        <ele>503.79998779297</ele>
        <time>2020-02-23T13:50:26Z</time>
      </trkpt>
      <trkpt lat="46.22101" lon="6.29499">
        <ele>503.39999389648</ele>
        <time>2020-02-23T13:50:28Z</time>
      </trkpt>
      <trkpt lat="46.22086" lon="6.29517">
        <ele>502.20001220703</ele>
        <time>2020-02-23T13:50:31Z</time>
      </trkpt>
      <trkpt lat="46.22081" lon="6.29524">
        <ele>501.79998779297</ele>
        <time>2020-02-23T13:50:32Z</time>
      </trkpt>
      <trkpt lat="46.22075" lon="6.2953">
        <ele>501.60000610352</ele>
        <time>2020-02-23T13:50:33Z</time>
      </trkpt>
      <trkpt lat="46.22069" lon="6.29538">
        <ele>501</ele>
        <time>2020-02-23T13:50:34Z</time>
      </trkpt>
      <trkpt lat="46.22063" lon="6.29545">
        <ele>500.79998779297</ele>
        <time>2020-02-23T13:50:35Z</time>
      </trkpt>
      <trkpt lat="46.22049" lon="6.29562">
        <ele>500.20001220703</ele>
        <time>2020-02-23T13:50:37Z</time>
      </trkpt>
      <trkpt lat="46.22032" lon="6.29577">
        <ele>499.60000610352</ele>
        <time>2020-02-23T13:50:39Z</time>
      </trkpt>
      <trkpt lat="46.22023" lon="6.29584">
        <ele>499</ele>
        <time>2020-02-23T13:50:40Z</time>
      </trkpt>
      <trkpt lat="46.22013" lon="6.29591">
        <ele>498.39999389648</ele>
        <time>2020-02-23T13:50:41Z</time>
      </trkpt>
      <trkpt lat="46.22003" lon="6.29599">
        <ele>497.60000610352</ele>
        <time>2020-02-23T13:50:42Z</time>
      </trkpt>
      <trkpt lat="46.21985" lon="6.29617">
        <ele>495.60000610352</ele>
        <time>2020-02-23T13:50:44Z</time>
      </trkpt>
      <trkpt lat="46.21976" lon="6.29627">
        <ele>495</ele>
        <time>2020-02-23T13:50:45Z</time>
      </trkpt>
      <trkpt lat="46.21968" lon="6.29639">
        <ele>493.79998779297</ele>
        <time>2020-02-23T13:50:46Z</time>
      </trkpt>
      <trkpt lat="46.21954" lon="6.29663">
        <ele>491.60000610352</ele>
        <time>2020-02-23T13:50:48Z</time>
      </trkpt>
      <trkpt lat="46.21949" lon="6.29672">
        <ele>491.60000610352</ele>
        <time>2020-02-23T13:50:49Z</time>
      </trkpt>
      <trkpt lat="46.21944" lon="6.29679">
        <ele>490.39999389648</ele>
        <time>2020-02-23T13:50:50Z</time>
      </trkpt>
      <trkpt lat="46.2194" lon="6.29685">
        <ele>488.79998779297</ele>
        <time>2020-02-23T13:50:51Z</time>
      </trkpt>
      <trkpt lat="46.21937" lon="6.2969">
        <ele>487.20001220703</ele>
        <time>2020-02-23T13:50:52Z</time>
      </trkpt>
      <trkpt lat="46.21935" lon="6.29694">
        <ele>486.20001220703</ele>
        <time>2020-02-23T13:50:53Z</time>
      </trkpt>
      <trkpt lat="46.21933" lon="6.29698">
        <ele>485.60000610352</ele>
        <time>2020-02-23T13:50:54Z</time>
      </trkpt>
      <trkpt lat="46.21932" lon="6.29701">
        <ele>485.60000610352</ele>
        <time>2020-02-23T13:50:55Z</time>
      </trkpt>
      <trkpt lat="46.2193" lon="6.29703">
        <ele>485.39999389648</ele>
        <time>2020-02-23T13:50:56Z</time>
      </trkpt>
      <trkpt lat="46.21929" lon="6.29705">
        <ele>485.39999389648</ele>
        <time>2020-02-23T13:50:57Z</time>
      </trkpt>
      <trkpt lat="46.21929" lon="6.29707">
        <ele>485.20001220703</ele>
        <time>2020-02-23T13:50:58Z</time>
      </trkpt>
      <trkpt lat="46.21929" lon="6.29709">
        <ele>485.39999389648</ele>
        <time>2020-02-23T13:50:59Z</time>
      </trkpt>
      <trkpt lat="46.2193" lon="6.29711">
        <ele>485.20001220703</ele>
        <time>2020-02-23T13:51:00Z</time>
      </trkpt>
      <trkpt lat="46.21931" lon="6.29712">
        <ele>485.20001220703</ele>
        <time>2020-02-23T13:51:01Z</time>
      </trkpt>
      <trkpt lat="46.21932" lon="6.29713">
        <ele>485.20001220703</ele>
        <time>2020-02-23T13:51:02Z</time>
      </trkpt>
      <trkpt lat="46.21932" lon="6.29712">
        <ele>485.39999389648</ele>
        <time>2020-02-23T13:51:03Z</time>
      </trkpt>
      <trkpt lat="46.21933" lon="6.29711">
        <ele>485.60000610352</ele>
        <time>2020-02-23T13:51:05Z</time>
      </trkpt>
      <trkpt lat="46.21933" lon="6.29711">
        <ele>486</ele>
        <time>2020-02-23T13:51:23Z</time>
      </trkpt>
      <trkpt lat="46.21933" lon="6.29711">
        <ele>485.79998779297</ele>
        <time>2020-02-23T13:51:44Z</time>
      </trkpt>
      <trkpt lat="46.21933" lon="6.29711">
        <ele>486</ele>
        <time>2020-02-23T13:52:13Z</time>
      </trkpt>
      <trkpt lat="46.21933" lon="6.29711">
        <ele>485.79998779297</ele>
        <time>2020-02-23T13:52:43Z</time>
      </trkpt>
      <trkpt lat="46.21934" lon="6.29713">
        <ele>485.79998779297</ele>
        <time>2020-02-23T13:53:07Z</time>
      </trkpt>
      <trkpt lat="46.21935" lon="6.29715">
        <ele>485.79998779297</ele>
        <time>2020-02-23T13:53:08Z</time>
      </trkpt>
      <trkpt lat="46.21937" lon="6.29718">
        <ele>486</ele>
        <time>2020-02-23T13:53:10Z</time>
      </trkpt>
      <trkpt lat="46.21941" lon="6.29721">
        <ele>486</ele>
        <time>2020-02-23T13:53:12Z</time>
      </trkpt>
      <trkpt lat="46.21942" lon="6.29723">
        <ele>486</ele>
        <time>2020-02-23T13:53:13Z</time>
      </trkpt>
      <trkpt lat="46.21944" lon="6.29724">
        <ele>486</ele>
        <time>2020-02-23T13:53:14Z</time>
      </trkpt>
      <trkpt lat="46.21945" lon="6.29727">
        <ele>486</ele>
        <time>2020-02-23T13:53:15Z</time>
      </trkpt>
      <trkpt lat="46.21947" lon="6.29729">
        <ele>486</ele>
        <time>2020-02-23T13:53:16Z</time>
      </trkpt>
      <trkpt lat="46.21948" lon="6.29731">
        <ele>486</ele>
        <time>2020-02-23T13:53:17Z</time>
      </trkpt>
      <trkpt lat="46.2195" lon="6.29732">
        <ele>486</ele>
        <time>2020-02-23T13:53:18Z</time>
      </trkpt>
      <trkpt lat="46.21951" lon="6.29734">
        <ele>485.79998779297</ele>
        <time>2020-02-23T13:53:19Z</time>
      </trkpt>
      <trkpt lat="46.21952" lon="6.29736">
        <ele>485.79998779297</ele>
        <time>2020-02-23T13:53:20Z</time>
      </trkpt>
      <trkpt lat="46.21954" lon="6.29739">
        <ele>486</ele>
        <time>2020-02-23T13:53:21Z</time>
      </trkpt>
      <trkpt lat="46.21956" lon="6.29741">
        <ele>486</ele>
        <time>2020-02-23T13:53:22Z</time>
      </trkpt>
      <trkpt lat="46.21958" lon="6.29744">
        <ele>486</ele>
        <time>2020-02-23T13:53:23Z</time>
      </trkpt>
      <trkpt lat="46.21963" lon="6.29751">
        <ele>486.20001220703</ele>
        <time>2020-02-23T13:53:25Z</time>
      </trkpt>
      <trkpt lat="46.21977" lon="6.29772">
        <ele>486</ele>
        <time>2020-02-23T13:53:30Z</time>
      </trkpt>
      <trkpt lat="46.21983" lon="6.29781">
        <ele>486.20001220703</ele>
        <time>2020-02-23T13:53:32Z</time>
      </trkpt>
      <trkpt lat="46.21986" lon="6.29785">
        <ele>486</ele>
        <time>2020-02-23T13:53:33Z</time>
      </trkpt>
      <trkpt lat="46.21993" lon="6.29792">
        <ele>486.20001220703</ele>
        <time>2020-02-23T13:53:35Z</time>
      </trkpt>
      <trkpt lat="46.21996" lon="6.29795">
        <ele>486.20001220703</ele>
        <time>2020-02-23T13:53:36Z</time>
      </trkpt>
      <trkpt lat="46.22" lon="6.29798">
        <ele>486.20001220703</ele>
        <time>2020-02-23T13:53:37Z</time>
      </trkpt>
      <trkpt lat="46.22004" lon="6.29801">
        <ele>486.20001220703</ele>
        <time>2020-02-23T13:53:38Z</time>
      </trkpt>
      <trkpt lat="46.22008" lon="6.29803">
        <ele>486.20001220703</ele>
        <time>2020-02-23T13:53:39Z</time>
      </trkpt>
      <trkpt lat="46.22012" lon="6.29804">
        <ele>486.20001220703</ele>
        <time>2020-02-23T13:53:40Z</time>
      </trkpt>
      <trkpt lat="46.22025" lon="6.2981">
        <ele>486.39999389648</ele>
        <time>2020-02-23T13:53:43Z</time>
      </trkpt>
      <trkpt lat="46.22029" lon="6.29811">
        <ele>486.20001220703</ele>
        <time>2020-02-23T13:53:44Z</time>
      </trkpt>
      <trkpt lat="46.22032" lon="6.29812">
        <ele>486.39999389648</ele>
        <time>2020-02-23T13:53:45Z</time>
      </trkpt>
      <trkpt lat="46.22036" lon="6.29813">
        <ele>486.39999389648</ele>
        <time>2020-02-23T13:53:46Z</time>
      </trkpt>
      <trkpt lat="46.22039" lon="6.29814">
        <ele>486.20001220703</ele>
        <time>2020-02-23T13:53:47Z</time>
      </trkpt>
      <trkpt lat="46.22042" lon="6.29815">
        <ele>486.20001220703</ele>
        <time>2020-02-23T13:53:48Z</time>
      </trkpt>
      <trkpt lat="46.22044" lon="6.29816">
        <ele>486.39999389648</ele>
        <time>2020-02-23T13:53:49Z</time>
      </trkpt>
      <trkpt lat="46.22047" lon="6.29817">
        <ele>486.60000610352</ele>
        <time>2020-02-23T13:53:50Z</time>
      </trkpt>
      <trkpt lat="46.22054" lon="6.2982">
        <ele>486.60000610352</ele>
        <time>2020-02-23T13:53:52Z</time>
      </trkpt>
      <trkpt lat="46.22065" lon="6.29824">
        <ele>486.60000610352</ele>
        <time>2020-02-23T13:53:55Z</time>
      </trkpt>
      <trkpt lat="46.22073" lon="6.29826">
        <ele>486.60000610352</ele>
        <time>2020-02-23T13:53:57Z</time>
      </trkpt>
      <trkpt lat="46.22077" lon="6.29828">
        <ele>486.60000610352</ele>
        <time>2020-02-23T13:53:58Z</time>
      </trkpt>
      <trkpt lat="46.22081" lon="6.29828">
        <ele>486.79998779297</ele>
        <time>2020-02-23T13:53:59Z</time>
      </trkpt>
      <trkpt lat="46.22085" lon="6.29829">
        <ele>487</ele>
        <time>2020-02-23T13:54:00Z</time>
      </trkpt>
      <trkpt lat="46.22089" lon="6.2983">
        <ele>487</ele>
        <time>2020-02-23T13:54:01Z</time>
      </trkpt>
      <trkpt lat="46.22093" lon="6.29832">
        <ele>487</ele>
        <time>2020-02-23T13:54:02Z</time>
      </trkpt>
      <trkpt lat="46.22097" lon="6.29834">
        <ele>487.20001220703</ele>
        <time>2020-02-23T13:54:03Z</time>
      </trkpt>
      <trkpt lat="46.22105" lon="6.29839">
        <ele>487.20001220703</ele>
        <time>2020-02-23T13:54:05Z</time>
      </trkpt>
      <trkpt lat="46.22112" lon="6.29845">
        <ele>487.39999389648</ele>
        <time>2020-02-23T13:54:07Z</time>
      </trkpt>
      <trkpt lat="46.22116" lon="6.29849">
        <ele>487.39999389648</ele>
        <time>2020-02-23T13:54:08Z</time>
      </trkpt>
      <trkpt lat="46.22119" lon="6.29853">
        <ele>487.60000610352</ele>
        <time>2020-02-23T13:54:09Z</time>
      </trkpt>
      <trkpt lat="46.22122" lon="6.29857">
        <ele>487.79998779297</ele>
        <time>2020-02-23T13:54:10Z</time>
      </trkpt>
      <trkpt lat="46.22126" lon="6.2986">
        <ele>487.79998779297</ele>
        <time>2020-02-23T13:54:11Z</time>
      </trkpt>
      <trkpt lat="46.22128" lon="6.29864">
        <ele>487.79998779297</ele>
        <time>2020-02-23T13:54:12Z</time>
      </trkpt>
      <trkpt lat="46.22131" lon="6.29868">
        <ele>487.79998779297</ele>
        <time>2020-02-23T13:54:13Z</time>
      </trkpt>
      <trkpt lat="46.22133" lon="6.29871">
        <ele>487.79998779297</ele>
        <time>2020-02-23T13:54:14Z</time>
      </trkpt>
      <trkpt lat="46.22135" lon="6.29874">
        <ele>488</ele>
        <time>2020-02-23T13:54:15Z</time>
      </trkpt>
      <trkpt lat="46.22137" lon="6.29877">
        <ele>487.79998779297</ele>
        <time>2020-02-23T13:54:16Z</time>
      </trkpt>
      <trkpt lat="46.2214" lon="6.29881">
        <ele>487.79998779297</ele>
        <time>2020-02-23T13:54:17Z</time>
      </trkpt>
      <trkpt lat="46.22143" lon="6.29883">
        <ele>488</ele>
        <time>2020-02-23T13:54:18Z</time>
      </trkpt>
      <trkpt lat="46.22147" lon="6.29886">
        <ele>488</ele>
        <time>2020-02-23T13:54:19Z</time>
      </trkpt>
      <trkpt lat="46.2215" lon="6.29889">
        <ele>488</ele>
        <time>2020-02-23T13:54:20Z</time>
      </trkpt>
      <trkpt lat="46.22159" lon="6.299">
        <ele>488.20001220703</ele>
        <time>2020-02-23T13:54:23Z</time>
      </trkpt>
      <trkpt lat="46.22162" lon="6.29903">
        <ele>488.20001220703</ele>
        <time>2020-02-23T13:54:24Z</time>
      </trkpt>
      <trkpt lat="46.22166" lon="6.29906">
        <ele>488.20001220703</ele>
        <time>2020-02-23T13:54:25Z</time>
      </trkpt>
      <trkpt lat="46.22169" lon="6.29908">
        <ele>488.39999389648</ele>
        <time>2020-02-23T13:54:26Z</time>
      </trkpt>
      <trkpt lat="46.22173" lon="6.29911">
        <ele>488.39999389648</ele>
        <time>2020-02-23T13:54:27Z</time>
      </trkpt>
      <trkpt lat="46.22176" lon="6.29914">
        <ele>488.39999389648</ele>
        <time>2020-02-23T13:54:28Z</time>
      </trkpt>
      <trkpt lat="46.22187" lon="6.29923">
        <ele>488.79998779297</ele>
        <time>2020-02-23T13:54:31Z</time>
      </trkpt>
      <trkpt lat="46.22191" lon="6.29926">
        <ele>489</ele>
        <time>2020-02-23T13:54:32Z</time>
      </trkpt>
      <trkpt lat="46.22198" lon="6.29931">
        <ele>489.20001220703</ele>
        <time>2020-02-23T13:54:34Z</time>
      </trkpt>
      <trkpt lat="46.22201" lon="6.29933">
        <ele>489.39999389648</ele>
        <time>2020-02-23T13:54:35Z</time>
      </trkpt>
      <trkpt lat="46.22205" lon="6.29936">
        <ele>489.39999389648</ele>
        <time>2020-02-23T13:54:36Z</time>
      </trkpt>
      <trkpt lat="46.22208" lon="6.29938">
        <ele>489.39999389648</ele>
        <time>2020-02-23T13:54:37Z</time>
      </trkpt>
      <trkpt lat="46.22211" lon="6.2994">
        <ele>489.60000610352</ele>
        <time>2020-02-23T13:54:38Z</time>
      </trkpt>
      <trkpt lat="46.22213" lon="6.29942">
        <ele>489.60000610352</ele>
        <time>2020-02-23T13:54:39Z</time>
      </trkpt>
      <trkpt lat="46.22216" lon="6.29944">
        <ele>489.39999389648</ele>
        <time>2020-02-23T13:54:40Z</time>
      </trkpt>
      <trkpt lat="46.22218" lon="6.29945">
        <ele>489.60000610352</ele>
        <time>2020-02-23T13:54:41Z</time>
      </trkpt>
      <trkpt lat="46.22221" lon="6.29947">
        <ele>489.60000610352</ele>
        <time>2020-02-23T13:54:42Z</time>
      </trkpt>
      <trkpt lat="46.22224" lon="6.29948">
        <ele>489.79998779297</ele>
        <time>2020-02-23T13:54:43Z</time>
      </trkpt>
      <trkpt lat="46.22232" lon="6.29953">
        <ele>490</ele>
        <time>2020-02-23T13:54:46Z</time>
      </trkpt>
      <trkpt lat="46.22234" lon="6.29955">
        <ele>490.20001220703</ele>
        <time>2020-02-23T13:54:47Z</time>
      </trkpt>
      <trkpt lat="46.22237" lon="6.29957">
        <ele>490.39999389648</ele>
        <time>2020-02-23T13:54:48Z</time>
      </trkpt>
      <trkpt lat="46.22239" lon="6.29958">
        <ele>490.39999389648</ele>
        <time>2020-02-23T13:54:49Z</time>
      </trkpt>
      <trkpt lat="46.22241" lon="6.2996">
        <ele>490.39999389648</ele>
        <time>2020-02-23T13:54:50Z</time>
      </trkpt>
      <trkpt lat="46.22244" lon="6.29962">
        <ele>490.60000610352</ele>
        <time>2020-02-23T13:54:51Z</time>
      </trkpt>
      <trkpt lat="46.22247" lon="6.29964">
        <ele>490.60000610352</ele>
        <time>2020-02-23T13:54:52Z</time>
      </trkpt>
      <trkpt lat="46.2225" lon="6.29967">
        <ele>490.60000610352</ele>
        <time>2020-02-23T13:54:53Z</time>
      </trkpt>
      <trkpt lat="46.22253" lon="6.29969">
        <ele>490.60000610352</ele>
        <time>2020-02-23T13:54:54Z</time>
      </trkpt>
      <trkpt lat="46.22256" lon="6.29971">
        <ele>490.60000610352</ele>
        <time>2020-02-23T13:54:55Z</time>
      </trkpt>
      <trkpt lat="46.22259" lon="6.29973">
        <ele>490.60000610352</ele>
        <time>2020-02-23T13:54:56Z</time>
      </trkpt>
      <trkpt lat="46.22262" lon="6.29976">
        <ele>490.79998779297</ele>
        <time>2020-02-23T13:54:57Z</time>
      </trkpt>
      <trkpt lat="46.22265" lon="6.29978">
        <ele>490.79998779297</ele>
        <time>2020-02-23T13:54:58Z</time>
      </trkpt>
      <trkpt lat="46.22276" lon="6.29985">
        <ele>491.39999389648</ele>
        <time>2020-02-23T13:55:01Z</time>
      </trkpt>
      <trkpt lat="46.22279" lon="6.29987">
        <ele>491.60000610352</ele>
        <time>2020-02-23T13:55:02Z</time>
      </trkpt>
      <trkpt lat="46.22282" lon="6.2999">
        <ele>491.60000610352</ele>
        <time>2020-02-23T13:55:03Z</time>
      </trkpt>
      <trkpt lat="46.22285" lon="6.29993">
        <ele>491.79998779297</ele>
        <time>2020-02-23T13:55:04Z</time>
      </trkpt>
      <trkpt lat="46.22288" lon="6.29996">
        <ele>491.79998779297</ele>
        <time>2020-02-23T13:55:05Z</time>
      </trkpt>
      <trkpt lat="46.22291" lon="6.29999">
        <ele>492</ele>
        <time>2020-02-23T13:55:06Z</time>
      </trkpt>
      <trkpt lat="46.22294" lon="6.30001">
        <ele>492.20001220703</ele>
        <time>2020-02-23T13:55:07Z</time>
      </trkpt>
      <trkpt lat="46.22296" lon="6.30003">
        <ele>492</ele>
        <time>2020-02-23T13:55:08Z</time>
      </trkpt>
      <trkpt lat="46.22299" lon="6.30005">
        <ele>492</ele>
        <time>2020-02-23T13:55:09Z</time>
      </trkpt>
      <trkpt lat="46.22301" lon="6.30007">
        <ele>492.39999389648</ele>
        <time>2020-02-23T13:55:10Z</time>
      </trkpt>
      <trkpt lat="46.22303" lon="6.30008">
        <ele>492.60000610352</ele>
        <time>2020-02-23T13:55:11Z</time>
      </trkpt>
      <trkpt lat="46.22305" lon="6.3001">
        <ele>492.60000610352</ele>
        <time>2020-02-23T13:55:12Z</time>
      </trkpt>
      <trkpt lat="46.22307" lon="6.30011">
        <ele>492.79998779297</ele>
        <time>2020-02-23T13:55:13Z</time>
      </trkpt>
      <trkpt lat="46.22308" lon="6.30012">
        <ele>492.79998779297</ele>
        <time>2020-02-23T13:55:14Z</time>
      </trkpt>
      <trkpt lat="46.2231" lon="6.30013">
        <ele>493</ele>
        <time>2020-02-23T13:55:15Z</time>
      </trkpt>
      <trkpt lat="46.22312" lon="6.30014">
        <ele>493</ele>
        <time>2020-02-23T13:55:16Z</time>
      </trkpt>
      <trkpt lat="46.22313" lon="6.30015">
        <ele>493.20001220703</ele>
        <time>2020-02-23T13:55:17Z</time>
      </trkpt>
      <trkpt lat="46.22313" lon="6.30016">
        <ele>493.20001220703</ele>
        <time>2020-02-23T13:55:18Z</time>
      </trkpt>
      <trkpt lat="46.22314" lon="6.30017">
        <ele>493.20001220703</ele>
        <time>2020-02-23T13:55:19Z</time>
      </trkpt>
      <trkpt lat="46.22316" lon="6.30018">
        <ele>493.39999389648</ele>
        <time>2020-02-23T13:55:20Z</time>
      </trkpt>
      <trkpt lat="46.22319" lon="6.30021">
        <ele>493.79998779297</ele>
        <time>2020-02-23T13:55:22Z</time>
      </trkpt>
      <trkpt lat="46.22321" lon="6.30022">
        <ele>493.79998779297</ele>
        <time>2020-02-23T13:55:23Z</time>
      </trkpt>
      <trkpt lat="46.22323" lon="6.30024">
        <ele>494</ele>
        <time>2020-02-23T13:55:24Z</time>
      </trkpt>
      <trkpt lat="46.22328" lon="6.30028">
        <ele>493.79998779297</ele>
        <time>2020-02-23T13:55:26Z</time>
      </trkpt>
      <trkpt lat="46.22331" lon="6.30031">
        <ele>494</ele>
        <time>2020-02-23T13:55:27Z</time>
      </trkpt>
      <trkpt lat="46.22333" lon="6.30034">
        <ele>494</ele>
        <time>2020-02-23T13:55:28Z</time>
      </trkpt>
      <trkpt lat="46.22336" lon="6.30037">
        <ele>494.20001220703</ele>
        <time>2020-02-23T13:55:29Z</time>
      </trkpt>
      <trkpt lat="46.22341" lon="6.30044">
        <ele>494</ele>
        <time>2020-02-23T13:55:31Z</time>
      </trkpt>
      <trkpt lat="46.22344" lon="6.30046">
        <ele>494.20001220703</ele>
        <time>2020-02-23T13:55:32Z</time>
      </trkpt>
      <trkpt lat="46.22346" lon="6.30049">
        <ele>494.20001220703</ele>
        <time>2020-02-23T13:55:33Z</time>
      </trkpt>
      <trkpt lat="46.22349" lon="6.30052">
        <ele>494.39999389648</ele>
        <time>2020-02-23T13:55:34Z</time>
      </trkpt>
      <trkpt lat="46.22351" lon="6.30055">
        <ele>494.20001220703</ele>
        <time>2020-02-23T13:55:35Z</time>
      </trkpt>
      <trkpt lat="46.22354" lon="6.30058">
        <ele>494.39999389648</ele>
        <time>2020-02-23T13:55:36Z</time>
      </trkpt>
      <trkpt lat="46.22356" lon="6.30062">
        <ele>494.60000610352</ele>
        <time>2020-02-23T13:55:37Z</time>
      </trkpt>
      <trkpt lat="46.22359" lon="6.30065">
        <ele>494.79998779297</ele>
        <time>2020-02-23T13:55:38Z</time>
      </trkpt>
      <trkpt lat="46.22362" lon="6.30068">
        <ele>494.60000610352</ele>
        <time>2020-02-23T13:55:39Z</time>
      </trkpt>
      <trkpt lat="46.22364" lon="6.30071">
        <ele>494.60000610352</ele>
        <time>2020-02-23T13:55:40Z</time>
      </trkpt>
      <trkpt lat="46.22367" lon="6.30075">
        <ele>495</ele>
        <time>2020-02-23T13:55:41Z</time>
      </trkpt>
      <trkpt lat="46.2237" lon="6.30078">
        <ele>495</ele>
        <time>2020-02-23T13:55:42Z</time>
      </trkpt>
      <trkpt lat="46.22373" lon="6.30081">
        <ele>495.39999389648</ele>
        <time>2020-02-23T13:55:43Z</time>
      </trkpt>
      <trkpt lat="46.22377" lon="6.30085">
        <ele>495.39999389648</ele>
        <time>2020-02-23T13:55:44Z</time>
      </trkpt>
      <trkpt lat="46.2238" lon="6.30088">
        <ele>495.60000610352</ele>
        <time>2020-02-23T13:55:45Z</time>
      </trkpt>
      <trkpt lat="46.22384" lon="6.30091">
        <ele>495.79998779297</ele>
        <time>2020-02-23T13:55:46Z</time>
      </trkpt>
      <trkpt lat="46.2239" lon="6.30097">
        <ele>496</ele>
        <time>2020-02-23T13:55:48Z</time>
      </trkpt>
      <trkpt lat="46.22393" lon="6.30099">
        <ele>496</ele>
        <time>2020-02-23T13:55:49Z</time>
      </trkpt>
      <trkpt lat="46.22395" lon="6.30102">
        <ele>496.20001220703</ele>
        <time>2020-02-23T13:55:50Z</time>
      </trkpt>
      <trkpt lat="46.22398" lon="6.30104">
        <ele>496.39999389648</ele>
        <time>2020-02-23T13:55:51Z</time>
      </trkpt>
      <trkpt lat="46.22401" lon="6.30106">
        <ele>496.39999389648</ele>
        <time>2020-02-23T13:55:52Z</time>
      </trkpt>
      <trkpt lat="46.22404" lon="6.30108">
        <ele>496.60000610352</ele>
        <time>2020-02-23T13:55:53Z</time>
      </trkpt>
      <trkpt lat="46.2241" lon="6.30113">
        <ele>497</ele>
        <time>2020-02-23T13:55:55Z</time>
      </trkpt>
      <trkpt lat="46.22413" lon="6.30115">
        <ele>497.20001220703</ele>
        <time>2020-02-23T13:55:56Z</time>
      </trkpt>
      <trkpt lat="46.22416" lon="6.30117">
        <ele>497.20001220703</ele>
        <time>2020-02-23T13:55:57Z</time>
      </trkpt>
      <trkpt lat="46.22419" lon="6.3012">
        <ele>497.60000610352</ele>
        <time>2020-02-23T13:55:58Z</time>
      </trkpt>
      <trkpt lat="46.22422" lon="6.30123">
        <ele>497.39999389648</ele>
        <time>2020-02-23T13:55:59Z</time>
      </trkpt>
      <trkpt lat="46.22425" lon="6.30126">
        <ele>497.60000610352</ele>
        <time>2020-02-23T13:56:00Z</time>
      </trkpt>
      <trkpt lat="46.22428" lon="6.30128">
        <ele>497.79998779297</ele>
        <time>2020-02-23T13:56:01Z</time>
      </trkpt>
      <trkpt lat="46.22431" lon="6.3013">
        <ele>497.60000610352</ele>
        <time>2020-02-23T13:56:02Z</time>
      </trkpt>
      <trkpt lat="46.22434" lon="6.30132">
        <ele>497.79998779297</ele>
        <time>2020-02-23T13:56:03Z</time>
      </trkpt>
      <trkpt lat="46.22436" lon="6.30134">
        <ele>497.79998779297</ele>
        <time>2020-02-23T13:56:04Z</time>
      </trkpt>
      <trkpt lat="46.22439" lon="6.30136">
        <ele>497.79998779297</ele>
        <time>2020-02-23T13:56:05Z</time>
      </trkpt>
      <trkpt lat="46.22441" lon="6.30137">
        <ele>498.20001220703</ele>
        <time>2020-02-23T13:56:06Z</time>
      </trkpt>
      <trkpt lat="46.22444" lon="6.30139">
        <ele>498.39999389648</ele>
        <time>2020-02-23T13:56:07Z</time>
      </trkpt>
      <trkpt lat="46.22446" lon="6.3014">
        <ele>498.39999389648</ele>
        <time>2020-02-23T13:56:08Z</time>
      </trkpt>
      <trkpt lat="46.22449" lon="6.30142">
        <ele>498.60000610352</ele>
        <time>2020-02-23T13:56:09Z</time>
      </trkpt>
      <trkpt lat="46.22451" lon="6.30143">
        <ele>498.79998779297</ele>
        <time>2020-02-23T13:56:10Z</time>
      </trkpt>
      <trkpt lat="46.22453" lon="6.30145">
        <ele>498.79998779297</ele>
        <time>2020-02-23T13:56:11Z</time>
      </trkpt>
      <trkpt lat="46.22456" lon="6.30146">
        <ele>498.79998779297</ele>
        <time>2020-02-23T13:56:12Z</time>
      </trkpt>
      <trkpt lat="46.22465" lon="6.30151">
        <ele>499.60000610352</ele>
        <time>2020-02-23T13:56:15Z</time>
      </trkpt>
      <trkpt lat="46.22475" lon="6.30154">
        <ele>499.79998779297</ele>
        <time>2020-02-23T13:56:18Z</time>
      </trkpt>
      <trkpt lat="46.22478" lon="6.30155">
        <ele>499.79998779297</ele>
        <time>2020-02-23T13:56:19Z</time>
      </trkpt>
      <trkpt lat="46.22481" lon="6.30157">
        <ele>500</ele>
        <time>2020-02-23T13:56:20Z</time>
      </trkpt>
      <trkpt lat="46.22483" lon="6.30159">
        <ele>500</ele>
        <time>2020-02-23T13:56:21Z</time>
      </trkpt>
      <trkpt lat="46.22486" lon="6.30161">
        <ele>500</ele>
        <time>2020-02-23T13:56:22Z</time>
      </trkpt>
      <trkpt lat="46.22487" lon="6.30164">
        <ele>500.20001220703</ele>
        <time>2020-02-23T13:56:23Z</time>
      </trkpt>
      <trkpt lat="46.22488" lon="6.30167">
        <ele>500</ele>
        <time>2020-02-23T13:56:24Z</time>
      </trkpt>
      <trkpt lat="46.22488" lon="6.30171">
        <ele>500</ele>
        <time>2020-02-23T13:56:25Z</time>
      </trkpt>
      <trkpt lat="46.22487" lon="6.30175">
        <ele>500.20001220703</ele>
        <time>2020-02-23T13:56:26Z</time>
      </trkpt>
      <trkpt lat="46.22484" lon="6.30185">
        <ele>500.39999389648</ele>
        <time>2020-02-23T13:56:28Z</time>
      </trkpt>
      <trkpt lat="46.22481" lon="6.30193">
        <ele>500.39999389648</ele>
        <time>2020-02-23T13:56:30Z</time>
      </trkpt>
      <trkpt lat="46.2248" lon="6.30196">
        <ele>500.39999389648</ele>
        <time>2020-02-23T13:56:31Z</time>
      </trkpt>
      <trkpt lat="46.22478" lon="6.302">
        <ele>500.39999389648</ele>
        <time>2020-02-23T13:56:32Z</time>
      </trkpt>
      <trkpt lat="46.22477" lon="6.30203">
        <ele>500.60000610352</ele>
        <time>2020-02-23T13:56:33Z</time>
      </trkpt>
      <trkpt lat="46.22477" lon="6.30206">
        <ele>500.60000610352</ele>
        <time>2020-02-23T13:56:34Z</time>
      </trkpt>
      <trkpt lat="46.22476" lon="6.30208">
        <ele>500.60000610352</ele>
        <time>2020-02-23T13:56:35Z</time>
      </trkpt>
      <trkpt lat="46.22476" lon="6.3021">
        <ele>500.60000610352</ele>
        <time>2020-02-23T13:56:36Z</time>
      </trkpt>
      <trkpt lat="46.22475" lon="6.30213">
        <ele>500.60000610352</ele>
        <time>2020-02-23T13:56:37Z</time>
      </trkpt>
      <trkpt lat="46.22475" lon="6.30215">
        <ele>500.79998779297</ele>
        <time>2020-02-23T13:56:38Z</time>
      </trkpt>
      <trkpt lat="46.22475" lon="6.30218">
        <ele>500.79998779297</ele>
        <time>2020-02-23T13:56:39Z</time>
      </trkpt>
      <trkpt lat="46.22475" lon="6.30231">
        <ele>501</ele>
        <time>2020-02-23T13:56:43Z</time>
      </trkpt>
      <trkpt lat="46.22475" lon="6.30235">
        <ele>501</ele>
        <time>2020-02-23T13:56:44Z</time>
      </trkpt>
      <trkpt lat="46.22475" lon="6.30239">
        <ele>501</ele>
        <time>2020-02-23T13:56:45Z</time>
      </trkpt>
      <trkpt lat="46.22475" lon="6.30243">
        <ele>501</ele>
        <time>2020-02-23T13:56:46Z</time>
      </trkpt>
      <trkpt lat="46.22476" lon="6.3026">
        <ele>501.20001220703</ele>
        <time>2020-02-23T13:56:50Z</time>
      </trkpt>
      <trkpt lat="46.22476" lon="6.30264">
        <ele>501.20001220703</ele>
        <time>2020-02-23T13:56:51Z</time>
      </trkpt>
      <trkpt lat="46.22476" lon="6.30267">
        <ele>501.20001220703</ele>
        <time>2020-02-23T13:56:52Z</time>
      </trkpt>
      <trkpt lat="46.22476" lon="6.3027">
        <ele>501.20001220703</ele>
        <time>2020-02-23T13:56:53Z</time>
      </trkpt>
      <trkpt lat="46.22476" lon="6.30272">
        <ele>501.39999389648</ele>
        <time>2020-02-23T13:56:54Z</time>
      </trkpt>
      <trkpt lat="46.22475" lon="6.30275">
        <ele>501.20001220703</ele>
        <time>2020-02-23T13:56:55Z</time>
      </trkpt>
      <trkpt lat="46.22474" lon="6.30277">
        <ele>501.20001220703</ele>
        <time>2020-02-23T13:56:56Z</time>
      </trkpt>
      <trkpt lat="46.22473" lon="6.30279">
        <ele>501.20001220703</ele>
        <time>2020-02-23T13:56:57Z</time>
      </trkpt>
      <trkpt lat="46.22472" lon="6.30279">
        <ele>501.20001220703</ele>
        <time>2020-02-23T13:56:58Z</time>
      </trkpt>
      <trkpt lat="46.22471" lon="6.3028">
        <ele>501.20001220703</ele>
        <time>2020-02-23T13:56:59Z</time>
      </trkpt>
      <trkpt lat="46.22471" lon="6.3028">
        <ele>501.20001220703</ele>
        <time>2020-02-23T13:57:00Z</time>
      </trkpt>
      <trkpt lat="46.2247" lon="6.30282">
        <ele>501.79998779297</ele>
        <time>2020-02-23T13:57:07Z</time>
      </trkpt>
      <trkpt lat="46.22469" lon="6.30283">
        <ele>501.79998779297</ele>
        <time>2020-02-23T13:57:08Z</time>
      </trkpt>
      <trkpt lat="46.22468" lon="6.30286">
        <ele>501.79998779297</ele>
        <time>2020-02-23T13:57:09Z</time>
      </trkpt>
      <trkpt lat="46.22466" lon="6.30289">
        <ele>501.60000610352</ele>
        <time>2020-02-23T13:57:10Z</time>
      </trkpt>
      <trkpt lat="46.22462" lon="6.30294">
        <ele>502</ele>
        <time>2020-02-23T13:57:12Z</time>
      </trkpt>
      <trkpt lat="46.22457" lon="6.303">
        <ele>501.79998779297</ele>
        <time>2020-02-23T13:57:14Z</time>
      </trkpt>
      <trkpt lat="46.22452" lon="6.30307">
        <ele>501.79998779297</ele>
        <time>2020-02-23T13:57:16Z</time>
      </trkpt>
      <trkpt lat="46.22439" lon="6.30324">
        <ele>501.79998779297</ele>
        <time>2020-02-23T13:57:21Z</time>
      </trkpt>
      <trkpt lat="46.22436" lon="6.30327">
        <ele>502</ele>
        <time>2020-02-23T13:57:22Z</time>
      </trkpt>
      <trkpt lat="46.22434" lon="6.3033">
        <ele>501.79998779297</ele>
        <time>2020-02-23T13:57:23Z</time>
      </trkpt>
      <trkpt lat="46.22432" lon="6.30333">
        <ele>502</ele>
        <time>2020-02-23T13:57:24Z</time>
      </trkpt>
      <trkpt lat="46.2243" lon="6.30336">
        <ele>501.79998779297</ele>
        <time>2020-02-23T13:57:25Z</time>
      </trkpt>
      <trkpt lat="46.22428" lon="6.30338">
        <ele>502</ele>
        <time>2020-02-23T13:57:26Z</time>
      </trkpt>
      <trkpt lat="46.22426" lon="6.30341">
        <ele>502</ele>
        <time>2020-02-23T13:57:27Z</time>
      </trkpt>
      <trkpt lat="46.22424" lon="6.30344">
        <ele>502</ele>
        <time>2020-02-23T13:57:28Z</time>
      </trkpt>
      <trkpt lat="46.22422" lon="6.30346">
        <ele>502.20001220703</ele>
        <time>2020-02-23T13:57:29Z</time>
      </trkpt>
      <trkpt lat="46.22421" lon="6.30349">
        <ele>502.39999389648</ele>
        <time>2020-02-23T13:57:30Z</time>
      </trkpt>
      <trkpt lat="46.22419" lon="6.30352">
        <ele>502.39999389648</ele>
        <time>2020-02-23T13:57:31Z</time>
      </trkpt>
      <trkpt lat="46.22418" lon="6.30355">
        <ele>502.60000610352</ele>
        <time>2020-02-23T13:57:32Z</time>
      </trkpt>
      <trkpt lat="46.22416" lon="6.30357">
        <ele>502.60000610352</ele>
        <time>2020-02-23T13:57:33Z</time>
      </trkpt>
      <trkpt lat="46.22415" lon="6.30361">
        <ele>502.79998779297</ele>
        <time>2020-02-23T13:57:34Z</time>
      </trkpt>
      <trkpt lat="46.22414" lon="6.30364">
        <ele>503.20001220703</ele>
        <time>2020-02-23T13:57:35Z</time>
      </trkpt>
      <trkpt lat="46.22414" lon="6.30367">
        <ele>503.39999389648</ele>
        <time>2020-02-23T13:57:36Z</time>
      </trkpt>
      <trkpt lat="46.22414" lon="6.3037">
        <ele>503.60000610352</ele>
        <time>2020-02-23T13:57:37Z</time>
      </trkpt>
      <trkpt lat="46.22414" lon="6.30374">
        <ele>503.79998779297</ele>
        <time>2020-02-23T13:57:38Z</time>
      </trkpt>
      <trkpt lat="46.22416" lon="6.30388">
        <ele>504.20001220703</ele>
        <time>2020-02-23T13:57:41Z</time>
      </trkpt>
      <trkpt lat="46.22418" lon="6.30413">
        <ele>504.60000610352</ele>
        <time>2020-02-23T13:57:46Z</time>
      </trkpt>
      <trkpt lat="46.22419" lon="6.30417">
        <ele>504.60000610352</ele>
        <time>2020-02-23T13:57:47Z</time>
      </trkpt>
      <trkpt lat="46.2242" lon="6.30422">
        <ele>504.60000610352</ele>
        <time>2020-02-23T13:57:48Z</time>
      </trkpt>
      <trkpt lat="46.22421" lon="6.30426">
        <ele>504.60000610352</ele>
        <time>2020-02-23T13:57:49Z</time>
      </trkpt>
      <trkpt lat="46.22421" lon="6.30431">
        <ele>504.60000610352</ele>
        <time>2020-02-23T13:57:50Z</time>
      </trkpt>
      <trkpt lat="46.22422" lon="6.30435">
        <ele>504.79998779297</ele>
        <time>2020-02-23T13:57:51Z</time>
      </trkpt>
      <trkpt lat="46.22423" lon="6.30444">
        <ele>504.79998779297</ele>
        <time>2020-02-23T13:57:53Z</time>
      </trkpt>
      <trkpt lat="46.22424" lon="6.30458">
        <ele>504.79998779297</ele>
        <time>2020-02-23T13:57:56Z</time>
      </trkpt>
      <trkpt lat="46.22425" lon="6.30462">
        <ele>504.79998779297</ele>
        <time>2020-02-23T13:57:57Z</time>
      </trkpt>
      <trkpt lat="46.22425" lon="6.30467">
        <ele>504.79998779297</ele>
        <time>2020-02-23T13:57:58Z</time>
      </trkpt>
      <trkpt lat="46.22426" lon="6.30472">
        <ele>504.79998779297</ele>
        <time>2020-02-23T13:57:59Z</time>
      </trkpt>
      <trkpt lat="46.22428" lon="6.30491">
        <ele>505</ele>
        <time>2020-02-23T13:58:03Z</time>
      </trkpt>
      <trkpt lat="46.22428" lon="6.30495">
        <ele>505.20001220703</ele>
        <time>2020-02-23T13:58:04Z</time>
      </trkpt>
      <trkpt lat="46.22429" lon="6.30499">
        <ele>505.39999389648</ele>
        <time>2020-02-23T13:58:05Z</time>
      </trkpt>
      <trkpt lat="46.22429" lon="6.30503">
        <ele>505.39999389648</ele>
        <time>2020-02-23T13:58:06Z</time>
      </trkpt>
      <trkpt lat="46.22429" lon="6.30507">
        <ele>505.60000610352</ele>
        <time>2020-02-23T13:58:07Z</time>
      </trkpt>
      <trkpt lat="46.2243" lon="6.3051">
        <ele>505.60000610352</ele>
        <time>2020-02-23T13:58:08Z</time>
      </trkpt>
      <trkpt lat="46.22431" lon="6.30514">
        <ele>505.60000610352</ele>
        <time>2020-02-23T13:58:09Z</time>
      </trkpt>
      <trkpt lat="46.22432" lon="6.30518">
        <ele>505.60000610352</ele>
        <time>2020-02-23T13:58:10Z</time>
      </trkpt>
      <trkpt lat="46.22433" lon="6.30521">
        <ele>506</ele>
        <time>2020-02-23T13:58:11Z</time>
      </trkpt>
      <trkpt lat="46.22434" lon="6.30524">
        <ele>506</ele>
        <time>2020-02-23T13:58:12Z</time>
      </trkpt>
      <trkpt lat="46.22436" lon="6.30528">
        <ele>506.39999389648</ele>
        <time>2020-02-23T13:58:13Z</time>
      </trkpt>
      <trkpt lat="46.22437" lon="6.30531">
        <ele>506.79998779297</ele>
        <time>2020-02-23T13:58:14Z</time>
      </trkpt>
      <trkpt lat="46.22439" lon="6.30533">
        <ele>507</ele>
        <time>2020-02-23T13:58:15Z</time>
      </trkpt>
      <trkpt lat="46.2244" lon="6.30536">
        <ele>507.39999389648</ele>
        <time>2020-02-23T13:58:16Z</time>
      </trkpt>
      <trkpt lat="46.22442" lon="6.30539">
        <ele>507.60000610352</ele>
        <time>2020-02-23T13:58:17Z</time>
      </trkpt>
      <trkpt lat="46.22443" lon="6.30542">
        <ele>508</ele>
        <time>2020-02-23T13:58:18Z</time>
      </trkpt>
      <trkpt lat="46.22445" lon="6.30544">
        <ele>508.39999389648</ele>
        <time>2020-02-23T13:58:19Z</time>
      </trkpt>
      <trkpt lat="46.22446" lon="6.30547">
        <ele>508.79998779297</ele>
        <time>2020-02-23T13:58:20Z</time>
      </trkpt>
      <trkpt lat="46.22448" lon="6.30549">
        <ele>509.20001220703</ele>
        <time>2020-02-23T13:58:21Z</time>
      </trkpt>
      <trkpt lat="46.2245" lon="6.30552">
        <ele>509.60000610352</ele>
        <time>2020-02-23T13:58:22Z</time>
      </trkpt>
      <trkpt lat="46.22451" lon="6.30555">
        <ele>510</ele>
        <time>2020-02-23T13:58:23Z</time>
      </trkpt>
      <trkpt lat="46.22453" lon="6.30557">
        <ele>510.39999389648</ele>
        <time>2020-02-23T13:58:24Z</time>
      </trkpt>
      <trkpt lat="46.22454" lon="6.3056">
        <ele>510.79998779297</ele>
        <time>2020-02-23T13:58:25Z</time>
      </trkpt>
      <trkpt lat="46.22456" lon="6.30563">
        <ele>511.20001220703</ele>
        <time>2020-02-23T13:58:26Z</time>
      </trkpt>
      <trkpt lat="46.22457" lon="6.30566">
        <ele>511.60000610352</ele>
        <time>2020-02-23T13:58:27Z</time>
      </trkpt>
      <trkpt lat="46.22459" lon="6.30568">
        <ele>511.79998779297</ele>
        <time>2020-02-23T13:58:28Z</time>
      </trkpt>
      <trkpt lat="46.22461" lon="6.30571">
        <ele>512.20001220703</ele>
        <time>2020-02-23T13:58:29Z</time>
      </trkpt>
      <trkpt lat="46.22462" lon="6.30574">
        <ele>512.59997558594</ele>
        <time>2020-02-23T13:58:30Z</time>
      </trkpt>
      <trkpt lat="46.22464" lon="6.30577">
        <ele>512.79998779297</ele>
        <time>2020-02-23T13:58:31Z</time>
      </trkpt>
      <trkpt lat="46.22465" lon="6.30579">
        <ele>513.20001220703</ele>
        <time>2020-02-23T13:58:32Z</time>
      </trkpt>
      <trkpt lat="46.22467" lon="6.30582">
        <ele>513.59997558594</ele>
        <time>2020-02-23T13:58:33Z</time>
      </trkpt>
      <trkpt lat="46.22469" lon="6.30585">
        <ele>514.20001220703</ele>
        <time>2020-02-23T13:58:34Z</time>
      </trkpt>
      <trkpt lat="46.2247" lon="6.30587">
        <ele>514.20001220703</ele>
        <time>2020-02-23T13:58:35Z</time>
      </trkpt>
      <trkpt lat="46.22472" lon="6.3059">
        <ele>514.79998779297</ele>
        <time>2020-02-23T13:58:36Z</time>
      </trkpt>
      <trkpt lat="46.22474" lon="6.30592">
        <ele>515.40002441406</ele>
        <time>2020-02-23T13:58:37Z</time>
      </trkpt>
      <trkpt lat="46.22475" lon="6.30594">
        <ele>515.40002441406</ele>
        <time>2020-02-23T13:58:38Z</time>
      </trkpt>
      <trkpt lat="46.22477" lon="6.30596">
        <ele>516</ele>
        <time>2020-02-23T13:58:39Z</time>
      </trkpt>
      <trkpt lat="46.22479" lon="6.30598">
        <ele>516.20001220703</ele>
        <time>2020-02-23T13:58:40Z</time>
      </trkpt>
      <trkpt lat="46.22481" lon="6.30601">
        <ele>516.79998779297</ele>
        <time>2020-02-23T13:58:41Z</time>
      </trkpt>
      <trkpt lat="46.22482" lon="6.30604">
        <ele>517.20001220703</ele>
        <time>2020-02-23T13:58:42Z</time>
      </trkpt>
      <trkpt lat="46.22484" lon="6.30606">
        <ele>517.40002441406</ele>
        <time>2020-02-23T13:58:43Z</time>
      </trkpt>
      <trkpt lat="46.22485" lon="6.30609">
        <ele>517.59997558594</ele>
        <time>2020-02-23T13:58:44Z</time>
      </trkpt>
      <trkpt lat="46.22486" lon="6.30612">
        <ele>518</ele>
        <time>2020-02-23T13:58:45Z</time>
      </trkpt>
      <trkpt lat="46.22488" lon="6.30615">
        <ele>518.40002441406</ele>
        <time>2020-02-23T13:58:46Z</time>
      </trkpt>
      <trkpt lat="46.22489" lon="6.30618">
        <ele>518.79998779297</ele>
        <time>2020-02-23T13:58:47Z</time>
      </trkpt>
      <trkpt lat="46.22491" lon="6.30621">
        <ele>519</ele>
        <time>2020-02-23T13:58:48Z</time>
      </trkpt>
      <trkpt lat="46.22492" lon="6.30624">
        <ele>519.59997558594</ele>
        <time>2020-02-23T13:58:49Z</time>
      </trkpt>
      <trkpt lat="46.22493" lon="6.30626">
        <ele>519.79998779297</ele>
        <time>2020-02-23T13:58:50Z</time>
      </trkpt>
      <trkpt lat="46.22495" lon="6.30629">
        <ele>520.20001220703</ele>
        <time>2020-02-23T13:58:51Z</time>
      </trkpt>
      <trkpt lat="46.22496" lon="6.30632">
        <ele>520.59997558594</ele>
        <time>2020-02-23T13:58:52Z</time>
      </trkpt>
      <trkpt lat="46.22497" lon="6.30634">
        <ele>521</ele>
        <time>2020-02-23T13:58:53Z</time>
      </trkpt>
      <trkpt lat="46.22499" lon="6.30637">
        <ele>521.20001220703</ele>
        <time>2020-02-23T13:58:54Z</time>
      </trkpt>
      <trkpt lat="46.225" lon="6.30639">
        <ele>521.59997558594</ele>
        <time>2020-02-23T13:58:55Z</time>
      </trkpt>
      <trkpt lat="46.22502" lon="6.30642">
        <ele>521.79998779297</ele>
        <time>2020-02-23T13:58:56Z</time>
      </trkpt>
      <trkpt lat="46.22503" lon="6.30645">
        <ele>522.20001220703</ele>
        <time>2020-02-23T13:58:57Z</time>
      </trkpt>
      <trkpt lat="46.22504" lon="6.30648">
        <ele>522.40002441406</ele>
        <time>2020-02-23T13:58:58Z</time>
      </trkpt>
      <trkpt lat="46.22505" lon="6.3065">
        <ele>522.40002441406</ele>
        <time>2020-02-23T13:58:59Z</time>
      </trkpt>
      <trkpt lat="46.22506" lon="6.30653">
        <ele>522.59997558594</ele>
        <time>2020-02-23T13:59:00Z</time>
      </trkpt>
      <trkpt lat="46.22507" lon="6.30656">
        <ele>522.79998779297</ele>
        <time>2020-02-23T13:59:01Z</time>
      </trkpt>
      <trkpt lat="46.22508" lon="6.30659">
        <ele>523.40002441406</ele>
        <time>2020-02-23T13:59:02Z</time>
      </trkpt>
      <trkpt lat="46.22508" lon="6.30663">
        <ele>523.59997558594</ele>
        <time>2020-02-23T13:59:03Z</time>
      </trkpt>
      <trkpt lat="46.22509" lon="6.30666">
        <ele>523.79998779297</ele>
        <time>2020-02-23T13:59:04Z</time>
      </trkpt>
      <trkpt lat="46.2251" lon="6.30669">
        <ele>524.20001220703</ele>
        <time>2020-02-23T13:59:05Z</time>
      </trkpt>
      <trkpt lat="46.22511" lon="6.30672">
        <ele>524.40002441406</ele>
        <time>2020-02-23T13:59:06Z</time>
      </trkpt>
      <trkpt lat="46.22511" lon="6.30676">
        <ele>524.79998779297</ele>
        <time>2020-02-23T13:59:07Z</time>
      </trkpt>
      <trkpt lat="46.22512" lon="6.30679">
        <ele>525.20001220703</ele>
        <time>2020-02-23T13:59:08Z</time>
      </trkpt>
      <trkpt lat="46.22512" lon="6.30683">
        <ele>525.20001220703</ele>
        <time>2020-02-23T13:59:09Z</time>
      </trkpt>
      <trkpt lat="46.22513" lon="6.30686">
        <ele>525.40002441406</ele>
        <time>2020-02-23T13:59:10Z</time>
      </trkpt>
      <trkpt lat="46.22513" lon="6.3069">
        <ele>525.79998779297</ele>
        <time>2020-02-23T13:59:11Z</time>
      </trkpt>
      <trkpt lat="46.22512" lon="6.30693">
        <ele>526.20001220703</ele>
        <time>2020-02-23T13:59:12Z</time>
      </trkpt>
      <trkpt lat="46.22512" lon="6.30697">
        <ele>526.40002441406</ele>
        <time>2020-02-23T13:59:13Z</time>
      </trkpt>
      <trkpt lat="46.22511" lon="6.307">
        <ele>526.59997558594</ele>
        <time>2020-02-23T13:59:14Z</time>
      </trkpt>
      <trkpt lat="46.2251" lon="6.30704">
        <ele>526.59997558594</ele>
        <time>2020-02-23T13:59:15Z</time>
      </trkpt>
      <trkpt lat="46.2251" lon="6.30708">
        <ele>527.20001220703</ele>
        <time>2020-02-23T13:59:16Z</time>
      </trkpt>
      <trkpt lat="46.22509" lon="6.30711">
        <ele>527.59997558594</ele>
        <time>2020-02-23T13:59:17Z</time>
      </trkpt>
      <trkpt lat="46.22508" lon="6.30715">
        <ele>527.79998779297</ele>
        <time>2020-02-23T13:59:18Z</time>
      </trkpt>
      <trkpt lat="46.22507" lon="6.30719">
        <ele>528</ele>
        <time>2020-02-23T13:59:19Z</time>
      </trkpt>
      <trkpt lat="46.22506" lon="6.30722">
        <ele>528.40002441406</ele>
        <time>2020-02-23T13:59:20Z</time>
      </trkpt>
      <trkpt lat="46.22504" lon="6.30725">
        <ele>528.59997558594</ele>
        <time>2020-02-23T13:59:21Z</time>
      </trkpt>
      <trkpt lat="46.22503" lon="6.30728">
        <ele>529</ele>
        <time>2020-02-23T13:59:22Z</time>
      </trkpt>
      <trkpt lat="46.22502" lon="6.30731">
        <ele>529.20001220703</ele>
        <time>2020-02-23T13:59:23Z</time>
      </trkpt>
      <trkpt lat="46.22501" lon="6.30734">
        <ele>529.20001220703</ele>
        <time>2020-02-23T13:59:24Z</time>
      </trkpt>
      <trkpt lat="46.22499" lon="6.30737">
        <ele>529.40002441406</ele>
        <time>2020-02-23T13:59:25Z</time>
      </trkpt>
      <trkpt lat="46.22498" lon="6.30741">
        <ele>529.59997558594</ele>
        <time>2020-02-23T13:59:26Z</time>
      </trkpt>
      <trkpt lat="46.22497" lon="6.30744">
        <ele>529.59997558594</ele>
        <time>2020-02-23T13:59:27Z</time>
      </trkpt>
      <trkpt lat="46.22496" lon="6.30747">
        <ele>530</ele>
        <time>2020-02-23T13:59:28Z</time>
      </trkpt>
      <trkpt lat="46.22495" lon="6.30751">
        <ele>530.20001220703</ele>
        <time>2020-02-23T13:59:29Z</time>
      </trkpt>
      <trkpt lat="46.22494" lon="6.30754">
        <ele>530.40002441406</ele>
        <time>2020-02-23T13:59:30Z</time>
      </trkpt>
      <trkpt lat="46.22492" lon="6.30757">
        <ele>530.59997558594</ele>
        <time>2020-02-23T13:59:31Z</time>
      </trkpt>
      <trkpt lat="46.22491" lon="6.3076">
        <ele>530.79998779297</ele>
        <time>2020-02-23T13:59:32Z</time>
      </trkpt>
      <trkpt lat="46.2249" lon="6.30763">
        <ele>531</ele>
        <time>2020-02-23T13:59:33Z</time>
      </trkpt>
      <trkpt lat="46.22489" lon="6.30766">
        <ele>531.20001220703</ele>
        <time>2020-02-23T13:59:34Z</time>
      </trkpt>
      <trkpt lat="46.22488" lon="6.30769">
        <ele>531.40002441406</ele>
        <time>2020-02-23T13:59:35Z</time>
      </trkpt>
      <trkpt lat="46.22487" lon="6.30772">
        <ele>531.79998779297</ele>
        <time>2020-02-23T13:59:36Z</time>
      </trkpt>
      <trkpt lat="46.22486" lon="6.30775">
        <ele>532</ele>
        <time>2020-02-23T13:59:37Z</time>
      </trkpt>
      <trkpt lat="46.22485" lon="6.30778">
        <ele>532.20001220703</ele>
        <time>2020-02-23T13:59:38Z</time>
      </trkpt>
      <trkpt lat="46.22484" lon="6.30781">
        <ele>532.59997558594</ele>
        <time>2020-02-23T13:59:39Z</time>
      </trkpt>
      <trkpt lat="46.22483" lon="6.30784">
        <ele>532.79998779297</ele>
        <time>2020-02-23T13:59:40Z</time>
      </trkpt>
      <trkpt lat="46.22481" lon="6.30787">
        <ele>533</ele>
        <time>2020-02-23T13:59:41Z</time>
      </trkpt>
      <trkpt lat="46.2248" lon="6.3079">
        <ele>533.20001220703</ele>
        <time>2020-02-23T13:59:42Z</time>
      </trkpt>
      <trkpt lat="46.22479" lon="6.30793">
        <ele>533.40002441406</ele>
        <time>2020-02-23T13:59:43Z</time>
      </trkpt>
      <trkpt lat="46.22478" lon="6.30796">
        <ele>533.40002441406</ele>
        <time>2020-02-23T13:59:44Z</time>
      </trkpt>
      <trkpt lat="46.22477" lon="6.30799">
        <ele>533.59997558594</ele>
        <time>2020-02-23T13:59:45Z</time>
      </trkpt>
      <trkpt lat="46.22476" lon="6.30802">
        <ele>533.59997558594</ele>
        <time>2020-02-23T13:59:46Z</time>
      </trkpt>
      <trkpt lat="46.22475" lon="6.30805">
        <ele>533.79998779297</ele>
        <time>2020-02-23T13:59:47Z</time>
      </trkpt>
      <trkpt lat="46.22474" lon="6.30808">
        <ele>534</ele>
        <time>2020-02-23T13:59:48Z</time>
      </trkpt>
      <trkpt lat="46.22472" lon="6.30811">
        <ele>534</ele>
        <time>2020-02-23T13:59:49Z</time>
      </trkpt>
      <trkpt lat="46.22471" lon="6.30813">
        <ele>534.20001220703</ele>
        <time>2020-02-23T13:59:50Z</time>
      </trkpt>
      <trkpt lat="46.2247" lon="6.30816">
        <ele>534.40002441406</ele>
        <time>2020-02-23T13:59:51Z</time>
      </trkpt>
      <trkpt lat="46.22469" lon="6.30819">
        <ele>534.40002441406</ele>
        <time>2020-02-23T13:59:52Z</time>
      </trkpt>
      <trkpt lat="46.22468" lon="6.30821">
        <ele>534.59997558594</ele>
        <time>2020-02-23T13:59:53Z</time>
      </trkpt>
      <trkpt lat="46.22467" lon="6.30824">
        <ele>534.79998779297</ele>
        <time>2020-02-23T13:59:54Z</time>
      </trkpt>
      <trkpt lat="46.22466" lon="6.30826">
        <ele>535</ele>
        <time>2020-02-23T13:59:55Z</time>
      </trkpt>
      <trkpt lat="46.22465" lon="6.30828">
        <ele>535</ele>
        <time>2020-02-23T13:59:56Z</time>
      </trkpt>
      <trkpt lat="46.22464" lon="6.3083">
        <ele>535.20001220703</ele>
        <time>2020-02-23T13:59:57Z</time>
      </trkpt>
      <trkpt lat="46.22462" lon="6.30833">
        <ele>535.40002441406</ele>
        <time>2020-02-23T13:59:58Z</time>
      </trkpt>
      <trkpt lat="46.22461" lon="6.30835">
        <ele>535.59997558594</ele>
        <time>2020-02-23T13:59:59Z</time>
      </trkpt>
      <trkpt lat="46.22459" lon="6.30837">
        <ele>535.79998779297</ele>
        <time>2020-02-23T14:00:00Z</time>
      </trkpt>
      <trkpt lat="46.22457" lon="6.30837">
        <ele>536</ele>
        <time>2020-02-23T14:00:01Z</time>
      </trkpt>
      <trkpt lat="46.22456" lon="6.30837">
        <ele>536.40002441406</ele>
        <time>2020-02-23T14:00:02Z</time>
      </trkpt>
      <trkpt lat="46.22455" lon="6.30837">
        <ele>536.40002441406</ele>
        <time>2020-02-23T14:00:03Z</time>
      </trkpt>
      <trkpt lat="46.22455" lon="6.30837">
        <ele>537.20001220703</ele>
        <time>2020-02-23T14:00:06Z</time>
      </trkpt>
      <trkpt lat="46.22455" lon="6.30837">
        <ele>538.20001220703</ele>
        <time>2020-02-23T14:00:32Z</time>
      </trkpt>
      <trkpt lat="46.22455" lon="6.30837">
        <ele>538.20001220703</ele>
        <time>2020-02-23T14:00:50Z</time>
      </trkpt>
      <trkpt lat="46.22455" lon="6.30837">
        <ele>538.20001220703</ele>
        <time>2020-02-23T14:00:51Z</time>
      </trkpt>
      <trkpt lat="46.22455" lon="6.30837">
        <ele>538.20001220703</ele>
        <time>2020-02-23T14:00:52Z</time>
      </trkpt>
      <trkpt lat="46.22455" lon="6.30836">
        <ele>538.20001220703</ele>
        <time>2020-02-23T14:01:00Z</time>
      </trkpt>
      <trkpt lat="46.22453" lon="6.30836">
        <ele>538.20001220703</ele>
        <time>2020-02-23T14:01:01Z</time>
      </trkpt>
      <trkpt lat="46.22452" lon="6.30835">
        <ele>538.20001220703</ele>
        <time>2020-02-23T14:01:02Z</time>
      </trkpt>
      <trkpt lat="46.22446" lon="6.3083">
        <ele>538.40002441406</ele>
        <time>2020-02-23T14:01:04Z</time>
      </trkpt>
      <trkpt lat="46.22443" lon="6.30826">
        <ele>538.20001220703</ele>
        <time>2020-02-23T14:01:05Z</time>
      </trkpt>
      <trkpt lat="46.2244" lon="6.30823">
        <ele>538.40002441406</ele>
        <time>2020-02-23T14:01:06Z</time>
      </trkpt>
      <trkpt lat="46.22426" lon="6.3081">
        <ele>538</ele>
        <time>2020-02-23T14:01:10Z</time>
      </trkpt>
      <trkpt lat="46.22423" lon="6.30806">
        <ele>538</ele>
        <time>2020-02-23T14:01:11Z</time>
      </trkpt>
      <trkpt lat="46.22419" lon="6.30804">
        <ele>537.79998779297</ele>
        <time>2020-02-23T14:01:12Z</time>
      </trkpt>
      <trkpt lat="46.22416" lon="6.30801">
        <ele>537.40002441406</ele>
        <time>2020-02-23T14:01:13Z</time>
      </trkpt>
      <trkpt lat="46.22412" lon="6.30798">
        <ele>537.20001220703</ele>
        <time>2020-02-23T14:01:14Z</time>
      </trkpt>
      <trkpt lat="46.22409" lon="6.30795">
        <ele>536.79998779297</ele>
        <time>2020-02-23T14:01:15Z</time>
      </trkpt>
      <trkpt lat="46.22406" lon="6.30792">
        <ele>536.59997558594</ele>
        <time>2020-02-23T14:01:16Z</time>
      </trkpt>
      <trkpt lat="46.22402" lon="6.30789">
        <ele>536.20001220703</ele>
        <time>2020-02-23T14:01:17Z</time>
      </trkpt>
      <trkpt lat="46.22399" lon="6.30787">
        <ele>536.20001220703</ele>
        <time>2020-02-23T14:01:18Z</time>
      </trkpt>
      <trkpt lat="46.22395" lon="6.30784">
        <ele>536</ele>
        <time>2020-02-23T14:01:19Z</time>
      </trkpt>
      <trkpt lat="46.22389" lon="6.30779">
        <ele>535.79998779297</ele>
        <time>2020-02-23T14:01:21Z</time>
      </trkpt>
      <trkpt lat="46.22385" lon="6.30777">
        <ele>535.79998779297</ele>
        <time>2020-02-23T14:01:22Z</time>
      </trkpt>
      <trkpt lat="46.22382" lon="6.30774">
        <ele>535.59997558594</ele>
        <time>2020-02-23T14:01:23Z</time>
      </trkpt>
      <trkpt lat="46.22379" lon="6.30772">
        <ele>535.59997558594</ele>
        <time>2020-02-23T14:01:24Z</time>
      </trkpt>
      <trkpt lat="46.22375" lon="6.30769">
        <ele>535.59997558594</ele>
        <time>2020-02-23T14:01:25Z</time>
      </trkpt>
      <trkpt lat="46.22363" lon="6.30762">
        <ele>535.59997558594</ele>
        <time>2020-02-23T14:01:28Z</time>
      </trkpt>
      <trkpt lat="46.22358" lon="6.3076">
        <ele>535.59997558594</ele>
        <time>2020-02-23T14:01:29Z</time>
      </trkpt>
      <trkpt lat="46.22354" lon="6.30759">
        <ele>535.59997558594</ele>
        <time>2020-02-23T14:01:30Z</time>
      </trkpt>
      <trkpt lat="46.2235" lon="6.30759">
        <ele>535.59997558594</ele>
        <time>2020-02-23T14:01:31Z</time>
      </trkpt>
      <trkpt lat="46.22345" lon="6.30758">
        <ele>535.59997558594</ele>
        <time>2020-02-23T14:01:32Z</time>
      </trkpt>
      <trkpt lat="46.22341" lon="6.30758">
        <ele>535.59997558594</ele>
        <time>2020-02-23T14:01:33Z</time>
      </trkpt>
      <trkpt lat="46.22337" lon="6.30759">
        <ele>535.59997558594</ele>
        <time>2020-02-23T14:01:34Z</time>
      </trkpt>
      <trkpt lat="46.22333" lon="6.3076">
        <ele>535.59997558594</ele>
        <time>2020-02-23T14:01:35Z</time>
      </trkpt>
      <trkpt lat="46.2233" lon="6.30761">
        <ele>535.59997558594</ele>
        <time>2020-02-23T14:01:36Z</time>
      </trkpt>
      <trkpt lat="46.22326" lon="6.30762">
        <ele>535.59997558594</ele>
        <time>2020-02-23T14:01:37Z</time>
      </trkpt>
      <trkpt lat="46.22322" lon="6.30763">
        <ele>535.40002441406</ele>
        <time>2020-02-23T14:01:38Z</time>
      </trkpt>
      <trkpt lat="46.22318" lon="6.30765">
        <ele>535.59997558594</ele>
        <time>2020-02-23T14:01:39Z</time>
      </trkpt>
      <trkpt lat="46.22315" lon="6.30766">
        <ele>535.59997558594</ele>
        <time>2020-02-23T14:01:40Z</time>
      </trkpt>
      <trkpt lat="46.22311" lon="6.30768">
        <ele>535.59997558594</ele>
        <time>2020-02-23T14:01:41Z</time>
      </trkpt>
      <trkpt lat="46.22307" lon="6.30769">
        <ele>535.59997558594</ele>
        <time>2020-02-23T14:01:42Z</time>
      </trkpt>
      <trkpt lat="46.22287" lon="6.30779">
        <ele>535.40002441406</ele>
        <time>2020-02-23T14:01:47Z</time>
      </trkpt>
      <trkpt lat="46.22262" lon="6.30791">
        <ele>534.79998779297</ele>
        <time>2020-02-23T14:01:53Z</time>
      </trkpt>
      <trkpt lat="46.22258" lon="6.30792">
        <ele>534.59997558594</ele>
        <time>2020-02-23T14:01:54Z</time>
      </trkpt>
      <trkpt lat="46.22254" lon="6.30794">
        <ele>534.59997558594</ele>
        <time>2020-02-23T14:01:55Z</time>
      </trkpt>
      <trkpt lat="46.2225" lon="6.30796">
        <ele>534.59997558594</ele>
        <time>2020-02-23T14:01:56Z</time>
      </trkpt>
      <trkpt lat="46.22246" lon="6.30798">
        <ele>534.59997558594</ele>
        <time>2020-02-23T14:01:57Z</time>
      </trkpt>
      <trkpt lat="46.22242" lon="6.308">
        <ele>534.79998779297</ele>
        <time>2020-02-23T14:01:58Z</time>
      </trkpt>
      <trkpt lat="46.22217" lon="6.30812">
        <ele>534.40002441406</ele>
        <time>2020-02-23T14:02:04Z</time>
      </trkpt>
      <trkpt lat="46.22204" lon="6.30818">
        <ele>534.59997558594</ele>
        <time>2020-02-23T14:02:07Z</time>
      </trkpt>
      <trkpt lat="46.222" lon="6.3082">
        <ele>534.59997558594</ele>
        <time>2020-02-23T14:02:08Z</time>
      </trkpt>
      <trkpt lat="46.22191" lon="6.30824">
        <ele>534.79998779297</ele>
        <time>2020-02-23T14:02:10Z</time>
      </trkpt>
      <trkpt lat="46.22186" lon="6.30827">
        <ele>534.79998779297</ele>
        <time>2020-02-23T14:02:11Z</time>
      </trkpt>
      <trkpt lat="46.22182" lon="6.3083">
        <ele>535</ele>
        <time>2020-02-23T14:02:12Z</time>
      </trkpt>
      <trkpt lat="46.22178" lon="6.30833">
        <ele>535</ele>
        <time>2020-02-23T14:02:13Z</time>
      </trkpt>
      <trkpt lat="46.22173" lon="6.30836">
        <ele>535.20001220703</ele>
        <time>2020-02-23T14:02:14Z</time>
      </trkpt>
      <trkpt lat="46.22169" lon="6.30839">
        <ele>535.20001220703</ele>
        <time>2020-02-23T14:02:15Z</time>
      </trkpt>
      <trkpt lat="46.22164" lon="6.30843">
        <ele>535.20001220703</ele>
        <time>2020-02-23T14:02:16Z</time>
      </trkpt>
      <trkpt lat="46.2216" lon="6.30847">
        <ele>535.40002441406</ele>
        <time>2020-02-23T14:02:17Z</time>
      </trkpt>
      <trkpt lat="46.22156" lon="6.30852">
        <ele>535.59997558594</ele>
        <time>2020-02-23T14:02:18Z</time>
      </trkpt>
      <trkpt lat="46.22152" lon="6.30857">
        <ele>535.79998779297</ele>
        <time>2020-02-23T14:02:19Z</time>
      </trkpt>
      <trkpt lat="46.22149" lon="6.30863">
        <ele>536.20001220703</ele>
        <time>2020-02-23T14:02:20Z</time>
      </trkpt>
      <trkpt lat="46.22119" lon="6.30898">
        <ele>536.79998779297</ele>
        <time>2020-02-23T14:02:27Z</time>
      </trkpt>
      <trkpt lat="46.22113" lon="6.30902">
        <ele>537</ele>
        <time>2020-02-23T14:02:28Z</time>
      </trkpt>
      <trkpt lat="46.22107" lon="6.30904">
        <ele>536.79998779297</ele>
        <time>2020-02-23T14:02:29Z</time>
      </trkpt>
      <trkpt lat="46.221" lon="6.30906">
        <ele>536.79998779297</ele>
        <time>2020-02-23T14:02:30Z</time>
      </trkpt>
      <trkpt lat="46.22093" lon="6.30906">
        <ele>536.79998779297</ele>
        <time>2020-02-23T14:02:31Z</time>
      </trkpt>
      <trkpt lat="46.22087" lon="6.30905">
        <ele>536.79998779297</ele>
        <time>2020-02-23T14:02:32Z</time>
      </trkpt>
      <trkpt lat="46.22081" lon="6.30903">
        <ele>536.79998779297</ele>
        <time>2020-02-23T14:02:33Z</time>
      </trkpt>
      <trkpt lat="46.2207" lon="6.30899">
        <ele>536.40002441406</ele>
        <time>2020-02-23T14:02:35Z</time>
      </trkpt>
      <trkpt lat="46.22066" lon="6.30897">
        <ele>535.79998779297</ele>
        <time>2020-02-23T14:02:36Z</time>
      </trkpt>
      <trkpt lat="46.22062" lon="6.30896">
        <ele>535.20001220703</ele>
        <time>2020-02-23T14:02:37Z</time>
      </trkpt>
      <trkpt lat="46.22058" lon="6.30894">
        <ele>534.59997558594</ele>
        <time>2020-02-23T14:02:38Z</time>
      </trkpt>
      <trkpt lat="46.22054" lon="6.30893">
        <ele>534</ele>
        <time>2020-02-23T14:02:39Z</time>
      </trkpt>
      <trkpt lat="46.2205" lon="6.30892">
        <ele>534</ele>
        <time>2020-02-23T14:02:40Z</time>
      </trkpt>
      <trkpt lat="46.22047" lon="6.30892">
        <ele>534</ele>
        <time>2020-02-23T14:02:41Z</time>
      </trkpt>
      <trkpt lat="46.22043" lon="6.30891">
        <ele>534</ele>
        <time>2020-02-23T14:02:42Z</time>
      </trkpt>
      <trkpt lat="46.22039" lon="6.3089">
        <ele>533.79998779297</ele>
        <time>2020-02-23T14:02:43Z</time>
      </trkpt>
      <trkpt lat="46.22036" lon="6.30889">
        <ele>533.79998779297</ele>
        <time>2020-02-23T14:02:44Z</time>
      </trkpt>
      <trkpt lat="46.22032" lon="6.30888">
        <ele>533.59997558594</ele>
        <time>2020-02-23T14:02:45Z</time>
      </trkpt>
      <trkpt lat="46.22029" lon="6.30888">
        <ele>533.59997558594</ele>
        <time>2020-02-23T14:02:46Z</time>
      </trkpt>
      <trkpt lat="46.22026" lon="6.30887">
        <ele>533.79998779297</ele>
        <time>2020-02-23T14:02:47Z</time>
      </trkpt>
      <trkpt lat="46.22022" lon="6.30886">
        <ele>533.79998779297</ele>
        <time>2020-02-23T14:02:48Z</time>
      </trkpt>
      <trkpt lat="46.22019" lon="6.30886">
        <ele>533.79998779297</ele>
        <time>2020-02-23T14:02:49Z</time>
      </trkpt>
      <trkpt lat="46.22016" lon="6.30884">
        <ele>533.79998779297</ele>
        <time>2020-02-23T14:02:50Z</time>
      </trkpt>
      <trkpt lat="46.22013" lon="6.30883">
        <ele>533.79998779297</ele>
        <time>2020-02-23T14:02:51Z</time>
      </trkpt>
      <trkpt lat="46.22009" lon="6.30881">
        <ele>533.79998779297</ele>
        <time>2020-02-23T14:02:52Z</time>
      </trkpt>
      <trkpt lat="46.22006" lon="6.30879">
        <ele>533.79998779297</ele>
        <time>2020-02-23T14:02:53Z</time>
      </trkpt>
      <trkpt lat="46.22003" lon="6.30876">
        <ele>534</ele>
        <time>2020-02-23T14:02:54Z</time>
      </trkpt>
      <trkpt lat="46.22001" lon="6.30873">
        <ele>534.20001220703</ele>
        <time>2020-02-23T14:02:55Z</time>
      </trkpt>
      <trkpt lat="46.21993" lon="6.30862">
        <ele>535.20001220703</ele>
        <time>2020-02-23T14:02:58Z</time>
      </trkpt>
      <trkpt lat="46.2199" lon="6.30858">
        <ele>535.40002441406</ele>
        <time>2020-02-23T14:02:59Z</time>
      </trkpt>
      <trkpt lat="46.21983" lon="6.30845">
        <ele>535.59997558594</ele>
        <time>2020-02-23T14:03:02Z</time>
      </trkpt>
      <trkpt lat="46.2198" lon="6.3084">
        <ele>535.59997558594</ele>
        <time>2020-02-23T14:03:03Z</time>
      </trkpt>
      <trkpt lat="46.21976" lon="6.30835">
        <ele>535.59997558594</ele>
        <time>2020-02-23T14:03:04Z</time>
      </trkpt>
      <trkpt lat="46.21963" lon="6.30813">
        <ele>535.59997558594</ele>
        <time>2020-02-23T14:03:08Z</time>
      </trkpt>
      <trkpt lat="46.2196" lon="6.30807">
        <ele>535.59997558594</ele>
        <time>2020-02-23T14:03:09Z</time>
      </trkpt>
      <trkpt lat="46.21956" lon="6.30801">
        <ele>535.59997558594</ele>
        <time>2020-02-23T14:03:10Z</time>
      </trkpt>
      <trkpt lat="46.21935" lon="6.30764">
        <ele>534.40002441406</ele>
        <time>2020-02-23T14:03:16Z</time>
      </trkpt>
      <trkpt lat="46.2192" lon="6.30739">
        <ele>532.40002441406</ele>
        <time>2020-02-23T14:03:20Z</time>
      </trkpt>
      <trkpt lat="46.21908" lon="6.30722">
        <ele>532</ele>
        <time>2020-02-23T14:03:23Z</time>
      </trkpt>
      <trkpt lat="46.21904" lon="6.30718">
        <ele>531.79998779297</ele>
        <time>2020-02-23T14:03:24Z</time>
      </trkpt>
      <trkpt lat="46.21899" lon="6.30713">
        <ele>531.59997558594</ele>
        <time>2020-02-23T14:03:25Z</time>
      </trkpt>
      <trkpt lat="46.21895" lon="6.30709">
        <ele>531.59997558594</ele>
        <time>2020-02-23T14:03:26Z</time>
      </trkpt>
      <trkpt lat="46.2189" lon="6.30706">
        <ele>531.40002441406</ele>
        <time>2020-02-23T14:03:27Z</time>
      </trkpt>
      <trkpt lat="46.21885" lon="6.30703">
        <ele>531.40002441406</ele>
        <time>2020-02-23T14:03:28Z</time>
      </trkpt>
      <trkpt lat="46.21881" lon="6.307">
        <ele>531.40002441406</ele>
        <time>2020-02-23T14:03:29Z</time>
      </trkpt>
      <trkpt lat="46.21877" lon="6.30697">
        <ele>531.40002441406</ele>
        <time>2020-02-23T14:03:30Z</time>
      </trkpt>
      <trkpt lat="46.21873" lon="6.30694">
        <ele>531.20001220703</ele>
        <time>2020-02-23T14:03:31Z</time>
      </trkpt>
      <trkpt lat="46.2187" lon="6.30692">
        <ele>531.20001220703</ele>
        <time>2020-02-23T14:03:32Z</time>
      </trkpt>
      <trkpt lat="46.21868" lon="6.3069">
        <ele>531.20001220703</ele>
        <time>2020-02-23T14:03:33Z</time>
      </trkpt>
      <trkpt lat="46.21867" lon="6.3069">
        <ele>531</ele>
        <time>2020-02-23T14:03:34Z</time>
      </trkpt>
      <trkpt lat="46.21867" lon="6.3069">
        <ele>531.20001220703</ele>
        <time>2020-02-23T14:03:35Z</time>
      </trkpt>
      <trkpt lat="46.21867" lon="6.3069">
        <ele>531.20001220703</ele>
        <time>2020-02-23T14:03:38Z</time>
      </trkpt>
      <trkpt lat="46.21867" lon="6.3069">
        <ele>532.59997558594</ele>
        <time>2020-02-23T14:03:50Z</time>
      </trkpt>
      <trkpt lat="46.21866" lon="6.30691">
        <ele>532.79998779297</ele>
        <time>2020-02-23T14:04:04Z</time>
      </trkpt>
      <trkpt lat="46.21865" lon="6.30692">
        <ele>532.79998779297</ele>
        <time>2020-02-23T14:04:05Z</time>
      </trkpt>
      <trkpt lat="46.21865" lon="6.30695">
        <ele>533</ele>
        <time>2020-02-23T14:04:06Z</time>
      </trkpt>
      <trkpt lat="46.21866" lon="6.30698">
        <ele>533</ele>
        <time>2020-02-23T14:04:07Z</time>
      </trkpt>
      <trkpt lat="46.21869" lon="6.307">
        <ele>533</ele>
        <time>2020-02-23T14:04:08Z</time>
      </trkpt>
      <trkpt lat="46.21872" lon="6.30702">
        <ele>533</ele>
        <time>2020-02-23T14:04:09Z</time>
      </trkpt>
      <trkpt lat="46.21893" lon="6.30714">
        <ele>532.79998779297</ele>
        <time>2020-02-23T14:04:14Z</time>
      </trkpt>
      <trkpt lat="46.21897" lon="6.30717">
        <ele>532.79998779297</ele>
        <time>2020-02-23T14:04:15Z</time>
      </trkpt>
      <trkpt lat="46.21905" lon="6.30725">
        <ele>532.79998779297</ele>
        <time>2020-02-23T14:04:17Z</time>
      </trkpt>
      <trkpt lat="46.21908" lon="6.30729">
        <ele>532.79998779297</ele>
        <time>2020-02-23T14:04:18Z</time>
      </trkpt>
      <trkpt lat="46.21911" lon="6.30733">
        <ele>532.59997558594</ele>
        <time>2020-02-23T14:04:19Z</time>
      </trkpt>
      <trkpt lat="46.21914" lon="6.30737">
        <ele>532.59997558594</ele>
        <time>2020-02-23T14:04:20Z</time>
      </trkpt>
      <trkpt lat="46.21917" lon="6.30741">
        <ele>532.59997558594</ele>
        <time>2020-02-23T14:04:21Z</time>
      </trkpt>
      <trkpt lat="46.2192" lon="6.30746">
        <ele>532.79998779297</ele>
        <time>2020-02-23T14:04:22Z</time>
      </trkpt>
      <trkpt lat="46.21923" lon="6.3075">
        <ele>532.79998779297</ele>
        <time>2020-02-23T14:04:23Z</time>
      </trkpt>
      <trkpt lat="46.21926" lon="6.30755">
        <ele>532.59997558594</ele>
        <time>2020-02-23T14:04:24Z</time>
      </trkpt>
      <trkpt lat="46.21928" lon="6.3076">
        <ele>532.79998779297</ele>
        <time>2020-02-23T14:04:25Z</time>
      </trkpt>
      <trkpt lat="46.21931" lon="6.30764">
        <ele>532.79998779297</ele>
        <time>2020-02-23T14:04:26Z</time>
      </trkpt>
      <trkpt lat="46.21934" lon="6.30769">
        <ele>532.79998779297</ele>
        <time>2020-02-23T14:04:27Z</time>
      </trkpt>
      <trkpt lat="46.21937" lon="6.30774">
        <ele>532.79998779297</ele>
        <time>2020-02-23T14:04:28Z</time>
      </trkpt>
      <trkpt lat="46.2194" lon="6.30779">
        <ele>533</ele>
        <time>2020-02-23T14:04:29Z</time>
      </trkpt>
      <trkpt lat="46.21943" lon="6.30784">
        <ele>533.20001220703</ele>
        <time>2020-02-23T14:04:30Z</time>
      </trkpt>
      <trkpt lat="46.21946" lon="6.30789">
        <ele>533.20001220703</ele>
        <time>2020-02-23T14:04:31Z</time>
      </trkpt>
      <trkpt lat="46.21949" lon="6.30794">
        <ele>533.40002441406</ele>
        <time>2020-02-23T14:04:32Z</time>
      </trkpt>
      <trkpt lat="46.21952" lon="6.30799">
        <ele>533.59997558594</ele>
        <time>2020-02-23T14:04:33Z</time>
      </trkpt>
      <trkpt lat="46.21955" lon="6.30804">
        <ele>533.59997558594</ele>
        <time>2020-02-23T14:04:34Z</time>
      </trkpt>
      <trkpt lat="46.21958" lon="6.30809">
        <ele>533.79998779297</ele>
        <time>2020-02-23T14:04:35Z</time>
      </trkpt>
      <trkpt lat="46.21961" lon="6.30814">
        <ele>533.79998779297</ele>
        <time>2020-02-23T14:04:36Z</time>
      </trkpt>
      <trkpt lat="46.21964" lon="6.30819">
        <ele>534</ele>
        <time>2020-02-23T14:04:37Z</time>
      </trkpt>
      <trkpt lat="46.21967" lon="6.30824">
        <ele>534.20001220703</ele>
        <time>2020-02-23T14:04:38Z</time>
      </trkpt>
      <trkpt lat="46.2197" lon="6.30829">
        <ele>534.40002441406</ele>
        <time>2020-02-23T14:04:39Z</time>
      </trkpt>
      <trkpt lat="46.21973" lon="6.30834">
        <ele>534.40002441406</ele>
        <time>2020-02-23T14:04:40Z</time>
      </trkpt>
      <trkpt lat="46.21976" lon="6.30838">
        <ele>534.59997558594</ele>
        <time>2020-02-23T14:04:41Z</time>
      </trkpt>
      <trkpt lat="46.21978" lon="6.30843">
        <ele>534.59997558594</ele>
        <time>2020-02-23T14:04:42Z</time>
      </trkpt>
      <trkpt lat="46.21981" lon="6.30847">
        <ele>534.59997558594</ele>
        <time>2020-02-23T14:04:43Z</time>
      </trkpt>
      <trkpt lat="46.21983" lon="6.30851">
        <ele>534.79998779297</ele>
        <time>2020-02-23T14:04:44Z</time>
      </trkpt>
      <trkpt lat="46.21985" lon="6.30854">
        <ele>535</ele>
        <time>2020-02-23T14:04:45Z</time>
      </trkpt>
      <trkpt lat="46.21987" lon="6.30857">
        <ele>535.20001220703</ele>
        <time>2020-02-23T14:04:46Z</time>
      </trkpt>
      <trkpt lat="46.21989" lon="6.3086">
        <ele>535.40002441406</ele>
        <time>2020-02-23T14:04:47Z</time>
      </trkpt>
      <trkpt lat="46.21991" lon="6.30863">
        <ele>535.59997558594</ele>
        <time>2020-02-23T14:04:48Z</time>
      </trkpt>
      <trkpt lat="46.21993" lon="6.30866">
        <ele>535.79998779297</ele>
        <time>2020-02-23T14:04:49Z</time>
      </trkpt>
      <trkpt lat="46.21995" lon="6.30869">
        <ele>536</ele>
        <time>2020-02-23T14:04:50Z</time>
      </trkpt>
      <trkpt lat="46.21997" lon="6.30872">
        <ele>536.20001220703</ele>
        <time>2020-02-23T14:04:51Z</time>
      </trkpt>
      <trkpt lat="46.22002" lon="6.30878">
        <ele>536.79998779297</ele>
        <time>2020-02-23T14:04:53Z</time>
      </trkpt>
      <trkpt lat="46.22012" lon="6.30887">
        <ele>537</ele>
        <time>2020-02-23T14:04:56Z</time>
      </trkpt>
      <trkpt lat="46.22016" lon="6.30889">
        <ele>537</ele>
        <time>2020-02-23T14:04:57Z</time>
      </trkpt>
      <trkpt lat="46.22021" lon="6.30891">
        <ele>536.79998779297</ele>
        <time>2020-02-23T14:04:58Z</time>
      </trkpt>
      <trkpt lat="46.22026" lon="6.30892">
        <ele>537</ele>
        <time>2020-02-23T14:04:59Z</time>
      </trkpt>
      <trkpt lat="46.22032" lon="6.30894">
        <ele>536.79998779297</ele>
        <time>2020-02-23T14:05:00Z</time>
      </trkpt>
      <trkpt lat="46.22045" lon="6.30896">
        <ele>536.79998779297</ele>
        <time>2020-02-23T14:05:02Z</time>
      </trkpt>
      <trkpt lat="46.22052" lon="6.30897">
        <ele>537</ele>
        <time>2020-02-23T14:05:03Z</time>
      </trkpt>
      <trkpt lat="46.22072" lon="6.30903">
        <ele>536.79998779297</ele>
        <time>2020-02-23T14:05:06Z</time>
      </trkpt>
      <trkpt lat="46.22078" lon="6.30905">
        <ele>536.79998779297</ele>
        <time>2020-02-23T14:05:07Z</time>
      </trkpt>
      <trkpt lat="46.22084" lon="6.30906">
        <ele>536.59997558594</ele>
        <time>2020-02-23T14:05:08Z</time>
      </trkpt>
      <trkpt lat="46.22089" lon="6.30908">
        <ele>536</ele>
        <time>2020-02-23T14:05:09Z</time>
      </trkpt>
      <trkpt lat="46.22094" lon="6.30909">
        <ele>535.59997558594</ele>
        <time>2020-02-23T14:05:10Z</time>
      </trkpt>
      <trkpt lat="46.22099" lon="6.30909">
        <ele>535.40002441406</ele>
        <time>2020-02-23T14:05:11Z</time>
      </trkpt>
      <trkpt lat="46.22103" lon="6.3091">
        <ele>535</ele>
        <time>2020-02-23T14:05:12Z</time>
      </trkpt>
      <trkpt lat="46.22107" lon="6.30911">
        <ele>535</ele>
        <time>2020-02-23T14:05:13Z</time>
      </trkpt>
      <trkpt lat="46.22111" lon="6.30912">
        <ele>535</ele>
        <time>2020-02-23T14:05:14Z</time>
      </trkpt>
      <trkpt lat="46.22115" lon="6.30913">
        <ele>535</ele>
        <time>2020-02-23T14:05:15Z</time>
      </trkpt>
      <trkpt lat="46.22118" lon="6.30915">
        <ele>534.79998779297</ele>
        <time>2020-02-23T14:05:16Z</time>
      </trkpt>
      <trkpt lat="46.22122" lon="6.30917">
        <ele>535</ele>
        <time>2020-02-23T14:05:17Z</time>
      </trkpt>
      <trkpt lat="46.22125" lon="6.30919">
        <ele>535</ele>
        <time>2020-02-23T14:05:18Z</time>
      </trkpt>
      <trkpt lat="46.22128" lon="6.30921">
        <ele>534.79998779297</ele>
        <time>2020-02-23T14:05:19Z</time>
      </trkpt>
      <trkpt lat="46.22136" lon="6.30923">
        <ele>535.20001220703</ele>
        <time>2020-02-23T14:05:21Z</time>
      </trkpt>
      <trkpt lat="46.2214" lon="6.30924">
        <ele>535.40002441406</ele>
        <time>2020-02-23T14:05:22Z</time>
      </trkpt>
      <trkpt lat="46.22144" lon="6.30925">
        <ele>535.40002441406</ele>
        <time>2020-02-23T14:05:23Z</time>
      </trkpt>
      <trkpt lat="46.22149" lon="6.30926">
        <ele>535.40002441406</ele>
        <time>2020-02-23T14:05:24Z</time>
      </trkpt>
      <trkpt lat="46.22184" lon="6.30934">
        <ele>535.59997558594</ele>
        <time>2020-02-23T14:05:31Z</time>
      </trkpt>
      <trkpt lat="46.22205" lon="6.3094">
        <ele>535.59997558594</ele>
        <time>2020-02-23T14:05:35Z</time>
      </trkpt>
      <trkpt lat="46.2221" lon="6.30942">
        <ele>535.59997558594</ele>
        <time>2020-02-23T14:05:36Z</time>
      </trkpt>
      <trkpt lat="46.22215" lon="6.30944">
        <ele>535.59997558594</ele>
        <time>2020-02-23T14:05:37Z</time>
      </trkpt>
      <trkpt lat="46.2222" lon="6.30946">
        <ele>535.59997558594</ele>
        <time>2020-02-23T14:05:38Z</time>
      </trkpt>
      <trkpt lat="46.2223" lon="6.3095">
        <ele>535.59997558594</ele>
        <time>2020-02-23T14:05:40Z</time>
      </trkpt>
      <trkpt lat="46.22264" lon="6.30966">
        <ele>536.20001220703</ele>
        <time>2020-02-23T14:05:46Z</time>
      </trkpt>
      <trkpt lat="46.22276" lon="6.30974">
        <ele>536</ele>
        <time>2020-02-23T14:05:48Z</time>
      </trkpt>
      <trkpt lat="46.22281" lon="6.30978">
        <ele>536.20001220703</ele>
        <time>2020-02-23T14:05:49Z</time>
      </trkpt>
      <trkpt lat="46.22286" lon="6.30982">
        <ele>536.20001220703</ele>
        <time>2020-02-23T14:05:50Z</time>
      </trkpt>
      <trkpt lat="46.22291" lon="6.30986">
        <ele>536.20001220703</ele>
        <time>2020-02-23T14:05:51Z</time>
      </trkpt>
      <trkpt lat="46.22295" lon="6.30989">
        <ele>536.40002441406</ele>
        <time>2020-02-23T14:05:52Z</time>
      </trkpt>
      <trkpt lat="46.223" lon="6.30993">
        <ele>536.20001220703</ele>
        <time>2020-02-23T14:05:53Z</time>
      </trkpt>
      <trkpt lat="46.22304" lon="6.30997">
        <ele>536.20001220703</ele>
        <time>2020-02-23T14:05:54Z</time>
      </trkpt>
      <trkpt lat="46.22308" lon="6.31">
        <ele>536.40002441406</ele>
        <time>2020-02-23T14:05:55Z</time>
      </trkpt>
      <trkpt lat="46.22312" lon="6.31004">
        <ele>536.40002441406</ele>
        <time>2020-02-23T14:05:56Z</time>
      </trkpt>
      <trkpt lat="46.22316" lon="6.31008">
        <ele>536.59997558594</ele>
        <time>2020-02-23T14:05:57Z</time>
      </trkpt>
      <trkpt lat="46.22319" lon="6.31011">
        <ele>536.59997558594</ele>
        <time>2020-02-23T14:05:58Z</time>
      </trkpt>
      <trkpt lat="46.22322" lon="6.31015">
        <ele>536.40002441406</ele>
        <time>2020-02-23T14:05:59Z</time>
      </trkpt>
      <trkpt lat="46.22326" lon="6.31018">
        <ele>536.59997558594</ele>
        <time>2020-02-23T14:06:00Z</time>
      </trkpt>
      <trkpt lat="46.22337" lon="6.31029">
        <ele>536.79998779297</ele>
        <time>2020-02-23T14:06:03Z</time>
      </trkpt>
      <trkpt lat="46.22341" lon="6.31032">
        <ele>536.79998779297</ele>
        <time>2020-02-23T14:06:04Z</time>
      </trkpt>
      <trkpt lat="46.22346" lon="6.31034">
        <ele>536.79998779297</ele>
        <time>2020-02-23T14:06:05Z</time>
      </trkpt>
      <trkpt lat="46.22351" lon="6.31036">
        <ele>536.79998779297</ele>
        <time>2020-02-23T14:06:06Z</time>
      </trkpt>
      <trkpt lat="46.22355" lon="6.31037">
        <ele>536.79998779297</ele>
        <time>2020-02-23T14:06:07Z</time>
      </trkpt>
      <trkpt lat="46.2236" lon="6.31037">
        <ele>536.79998779297</ele>
        <time>2020-02-23T14:06:08Z</time>
      </trkpt>
      <trkpt lat="46.22365" lon="6.31037">
        <ele>536.79998779297</ele>
        <time>2020-02-23T14:06:09Z</time>
      </trkpt>
      <trkpt lat="46.22369" lon="6.31037">
        <ele>536.79998779297</ele>
        <time>2020-02-23T14:06:10Z</time>
      </trkpt>
      <trkpt lat="46.22373" lon="6.31036">
        <ele>537</ele>
        <time>2020-02-23T14:06:11Z</time>
      </trkpt>
      <trkpt lat="46.22378" lon="6.31037">
        <ele>536.79998779297</ele>
        <time>2020-02-23T14:06:12Z</time>
      </trkpt>
      <trkpt lat="46.22382" lon="6.31037">
        <ele>536.79998779297</ele>
        <time>2020-02-23T14:06:13Z</time>
      </trkpt>
      <trkpt lat="46.22386" lon="6.31038">
        <ele>536.79998779297</ele>
        <time>2020-02-23T14:06:14Z</time>
      </trkpt>
      <trkpt lat="46.2239" lon="6.3104">
        <ele>537</ele>
        <time>2020-02-23T14:06:15Z</time>
      </trkpt>
      <trkpt lat="46.22395" lon="6.31042">
        <ele>537</ele>
        <time>2020-02-23T14:06:16Z</time>
      </trkpt>
      <trkpt lat="46.22399" lon="6.31045">
        <ele>537.20001220703</ele>
        <time>2020-02-23T14:06:17Z</time>
      </trkpt>
      <trkpt lat="46.22403" lon="6.31048">
        <ele>537.20001220703</ele>
        <time>2020-02-23T14:06:18Z</time>
      </trkpt>
      <trkpt lat="46.22408" lon="6.31051">
        <ele>537.20001220703</ele>
        <time>2020-02-23T14:06:19Z</time>
      </trkpt>
      <trkpt lat="46.22432" lon="6.31069">
        <ele>538</ele>
        <time>2020-02-23T14:06:24Z</time>
      </trkpt>
      <trkpt lat="46.22441" lon="6.31077">
        <ele>538</ele>
        <time>2020-02-23T14:06:26Z</time>
      </trkpt>
      <trkpt lat="46.22466" lon="6.31097">
        <ele>538.40002441406</ele>
        <time>2020-02-23T14:06:31Z</time>
      </trkpt>
      <trkpt lat="46.22471" lon="6.31101">
        <ele>538.20001220703</ele>
        <time>2020-02-23T14:06:32Z</time>
      </trkpt>
      <trkpt lat="46.22475" lon="6.31104">
        <ele>538.40002441406</ele>
        <time>2020-02-23T14:06:33Z</time>
      </trkpt>
      <trkpt lat="46.22479" lon="6.31108">
        <ele>538.40002441406</ele>
        <time>2020-02-23T14:06:34Z</time>
      </trkpt>
      <trkpt lat="46.22483" lon="6.31111">
        <ele>538.40002441406</ele>
        <time>2020-02-23T14:06:35Z</time>
      </trkpt>
      <trkpt lat="46.22487" lon="6.31114">
        <ele>538.40002441406</ele>
        <time>2020-02-23T14:06:36Z</time>
      </trkpt>
      <trkpt lat="46.2249" lon="6.31117">
        <ele>538.40002441406</ele>
        <time>2020-02-23T14:06:37Z</time>
      </trkpt>
      <trkpt lat="46.22494" lon="6.3112">
        <ele>538.40002441406</ele>
        <time>2020-02-23T14:06:38Z</time>
      </trkpt>
      <trkpt lat="46.22497" lon="6.31123">
        <ele>538.40002441406</ele>
        <time>2020-02-23T14:06:39Z</time>
      </trkpt>
      <trkpt lat="46.22501" lon="6.31127">
        <ele>538.40002441406</ele>
        <time>2020-02-23T14:06:40Z</time>
      </trkpt>
      <trkpt lat="46.22504" lon="6.3113">
        <ele>538.59997558594</ele>
        <time>2020-02-23T14:06:41Z</time>
      </trkpt>
      <trkpt lat="46.22538" lon="6.31154">
        <ele>539.59997558594</ele>
        <time>2020-02-23T14:06:49Z</time>
      </trkpt>
      <trkpt lat="46.22561" lon="6.31167">
        <ele>539.79998779297</ele>
        <time>2020-02-23T14:06:54Z</time>
      </trkpt>
      <trkpt lat="46.22566" lon="6.31169">
        <ele>539.79998779297</ele>
        <time>2020-02-23T14:06:55Z</time>
      </trkpt>
      <trkpt lat="46.22571" lon="6.31171">
        <ele>540</ele>
        <time>2020-02-23T14:06:56Z</time>
      </trkpt>
      <trkpt lat="46.22575" lon="6.31172">
        <ele>540</ele>
        <time>2020-02-23T14:06:57Z</time>
      </trkpt>
      <trkpt lat="46.2258" lon="6.31174">
        <ele>540.20001220703</ele>
        <time>2020-02-23T14:06:58Z</time>
      </trkpt>
      <trkpt lat="46.22584" lon="6.31175">
        <ele>540</ele>
        <time>2020-02-23T14:06:59Z</time>
      </trkpt>
      <trkpt lat="46.22589" lon="6.31177">
        <ele>540.40002441406</ele>
        <time>2020-02-23T14:07:00Z</time>
      </trkpt>
      <trkpt lat="46.22593" lon="6.31178">
        <ele>540.20001220703</ele>
        <time>2020-02-23T14:07:01Z</time>
      </trkpt>
      <trkpt lat="46.22597" lon="6.31179">
        <ele>540.40002441406</ele>
        <time>2020-02-23T14:07:02Z</time>
      </trkpt>
      <trkpt lat="46.226" lon="6.3118">
        <ele>540.59997558594</ele>
        <time>2020-02-23T14:07:03Z</time>
      </trkpt>
      <trkpt lat="46.22604" lon="6.31181">
        <ele>541</ele>
        <time>2020-02-23T14:07:04Z</time>
      </trkpt>
      <trkpt lat="46.22607" lon="6.31182">
        <ele>541</ele>
        <time>2020-02-23T14:07:05Z</time>
      </trkpt>
      <trkpt lat="46.2261" lon="6.31183">
        <ele>541.20001220703</ele>
        <time>2020-02-23T14:07:06Z</time>
      </trkpt>
      <trkpt lat="46.22613" lon="6.31185">
        <ele>541.40002441406</ele>
        <time>2020-02-23T14:07:07Z</time>
      </trkpt>
      <trkpt lat="46.22616" lon="6.31186">
        <ele>541.59997558594</ele>
        <time>2020-02-23T14:07:08Z</time>
      </trkpt>
      <trkpt lat="46.2262" lon="6.31186">
        <ele>541.79998779297</ele>
        <time>2020-02-23T14:07:09Z</time>
      </trkpt>
      <trkpt lat="46.22623" lon="6.31186">
        <ele>542</ele>
        <time>2020-02-23T14:07:10Z</time>
      </trkpt>
      <trkpt lat="46.22627" lon="6.31186">
        <ele>542</ele>
        <time>2020-02-23T14:07:11Z</time>
      </trkpt>
      <trkpt lat="46.2263" lon="6.31184">
        <ele>542.20001220703</ele>
        <time>2020-02-23T14:07:12Z</time>
      </trkpt>
      <trkpt lat="46.22634" lon="6.31182">
        <ele>542.59997558594</ele>
        <time>2020-02-23T14:07:13Z</time>
      </trkpt>
      <trkpt lat="46.22637" lon="6.3118">
        <ele>542.79998779297</ele>
        <time>2020-02-23T14:07:14Z</time>
      </trkpt>
      <trkpt lat="46.2264" lon="6.31177">
        <ele>543</ele>
        <time>2020-02-23T14:07:15Z</time>
      </trkpt>
      <trkpt lat="46.22643" lon="6.31174">
        <ele>543.20001220703</ele>
        <time>2020-02-23T14:07:16Z</time>
      </trkpt>
      <trkpt lat="46.22647" lon="6.31172">
        <ele>543.40002441406</ele>
        <time>2020-02-23T14:07:17Z</time>
      </trkpt>
      <trkpt lat="46.2265" lon="6.31169">
        <ele>543.79998779297</ele>
        <time>2020-02-23T14:07:18Z</time>
      </trkpt>
      <trkpt lat="46.22653" lon="6.31166">
        <ele>544.20001220703</ele>
        <time>2020-02-23T14:07:19Z</time>
      </trkpt>
      <trkpt lat="46.22656" lon="6.31163">
        <ele>544.59997558594</ele>
        <time>2020-02-23T14:07:20Z</time>
      </trkpt>
      <trkpt lat="46.2266" lon="6.3116">
        <ele>544.79998779297</ele>
        <time>2020-02-23T14:07:21Z</time>
      </trkpt>
      <trkpt lat="46.22663" lon="6.31158">
        <ele>545</ele>
        <time>2020-02-23T14:07:22Z</time>
      </trkpt>
      <trkpt lat="46.22667" lon="6.31158">
        <ele>545</ele>
        <time>2020-02-23T14:07:23Z</time>
      </trkpt>
      <trkpt lat="46.22671" lon="6.31159">
        <ele>545.20001220703</ele>
        <time>2020-02-23T14:07:24Z</time>
      </trkpt>
      <trkpt lat="46.22674" lon="6.31161">
        <ele>545.40002441406</ele>
        <time>2020-02-23T14:07:25Z</time>
      </trkpt>
      <trkpt lat="46.22676" lon="6.31163">
        <ele>545.59997558594</ele>
        <time>2020-02-23T14:07:26Z</time>
      </trkpt>
      <trkpt lat="46.22678" lon="6.31167">
        <ele>545.79998779297</ele>
        <time>2020-02-23T14:07:27Z</time>
      </trkpt>
      <trkpt lat="46.22679" lon="6.31171">
        <ele>545.79998779297</ele>
        <time>2020-02-23T14:07:28Z</time>
      </trkpt>
      <trkpt lat="46.2268" lon="6.31175">
        <ele>545.79998779297</ele>
        <time>2020-02-23T14:07:29Z</time>
      </trkpt>
      <trkpt lat="46.22681" lon="6.31179">
        <ele>546</ele>
        <time>2020-02-23T14:07:30Z</time>
      </trkpt>
      <trkpt lat="46.22681" lon="6.31184">
        <ele>546</ele>
        <time>2020-02-23T14:07:31Z</time>
      </trkpt>
      <trkpt lat="46.22681" lon="6.31189">
        <ele>546.20001220703</ele>
        <time>2020-02-23T14:07:32Z</time>
      </trkpt>
      <trkpt lat="46.22681" lon="6.31194">
        <ele>546.20001220703</ele>
        <time>2020-02-23T14:07:33Z</time>
      </trkpt>
      <trkpt lat="46.22681" lon="6.31204">
        <ele>546.59997558594</ele>
        <time>2020-02-23T14:07:35Z</time>
      </trkpt>
      <trkpt lat="46.22679" lon="6.31221">
        <ele>546.79998779297</ele>
        <time>2020-02-23T14:07:38Z</time>
      </trkpt>
      <trkpt lat="46.22678" lon="6.31226">
        <ele>546.79998779297</ele>
        <time>2020-02-23T14:07:39Z</time>
      </trkpt>
      <trkpt lat="46.22675" lon="6.31237">
        <ele>547</ele>
        <time>2020-02-23T14:07:41Z</time>
      </trkpt>
      <trkpt lat="46.22671" lon="6.31252">
        <ele>547.20001220703</ele>
        <time>2020-02-23T14:07:44Z</time>
      </trkpt>
      <trkpt lat="46.2267" lon="6.31257">
        <ele>547.20001220703</ele>
        <time>2020-02-23T14:07:45Z</time>
      </trkpt>
      <trkpt lat="46.22668" lon="6.31262">
        <ele>547.40002441406</ele>
        <time>2020-02-23T14:07:46Z</time>
      </trkpt>
      <trkpt lat="46.22667" lon="6.31267">
        <ele>547.40002441406</ele>
        <time>2020-02-23T14:07:47Z</time>
      </trkpt>
      <trkpt lat="46.22666" lon="6.31272">
        <ele>547.40002441406</ele>
        <time>2020-02-23T14:07:48Z</time>
      </trkpt>
      <trkpt lat="46.22664" lon="6.31278">
        <ele>547.59997558594</ele>
        <time>2020-02-23T14:07:49Z</time>
      </trkpt>
      <trkpt lat="46.22661" lon="6.31283">
        <ele>547.59997558594</ele>
        <time>2020-02-23T14:07:50Z</time>
      </trkpt>
      <trkpt lat="46.22659" lon="6.31287">
        <ele>547.59997558594</ele>
        <time>2020-02-23T14:07:51Z</time>
      </trkpt>
      <trkpt lat="46.22657" lon="6.3129">
        <ele>547.79998779297</ele>
        <time>2020-02-23T14:07:52Z</time>
      </trkpt>
      <trkpt lat="46.22654" lon="6.31294">
        <ele>547.79998779297</ele>
        <time>2020-02-23T14:07:53Z</time>
      </trkpt>
      <trkpt lat="46.22652" lon="6.31297">
        <ele>547.79998779297</ele>
        <time>2020-02-23T14:07:54Z</time>
      </trkpt>
      <trkpt lat="46.22649" lon="6.31301">
        <ele>547.79998779297</ele>
        <time>2020-02-23T14:07:55Z</time>
      </trkpt>
      <trkpt lat="46.22648" lon="6.31306">
        <ele>547.79998779297</ele>
        <time>2020-02-23T14:07:56Z</time>
      </trkpt>
      <trkpt lat="46.22647" lon="6.31311">
        <ele>547.79998779297</ele>
        <time>2020-02-23T14:07:57Z</time>
      </trkpt>
      <trkpt lat="46.22647" lon="6.31316">
        <ele>547.59997558594</ele>
        <time>2020-02-23T14:07:58Z</time>
      </trkpt>
      <trkpt lat="46.22647" lon="6.31322">
        <ele>547.59997558594</ele>
        <time>2020-02-23T14:07:59Z</time>
      </trkpt>
      <trkpt lat="46.22648" lon="6.31328">
        <ele>547.59997558594</ele>
        <time>2020-02-23T14:08:00Z</time>
      </trkpt>
      <trkpt lat="46.22649" lon="6.31334">
        <ele>547.79998779297</ele>
        <time>2020-02-23T14:08:01Z</time>
      </trkpt>
      <trkpt lat="46.22648" lon="6.31341">
        <ele>547.79998779297</ele>
        <time>2020-02-23T14:08:02Z</time>
      </trkpt>
      <trkpt lat="46.22648" lon="6.31347">
        <ele>547.59997558594</ele>
        <time>2020-02-23T14:08:03Z</time>
      </trkpt>
      <trkpt lat="46.22646" lon="6.31361">
        <ele>547.20001220703</ele>
        <time>2020-02-23T14:08:05Z</time>
      </trkpt>
      <trkpt lat="46.22641" lon="6.31399">
        <ele>547</ele>
        <time>2020-02-23T14:08:10Z</time>
      </trkpt>
      <trkpt lat="46.2264" lon="6.31406">
        <ele>546.79998779297</ele>
        <time>2020-02-23T14:08:11Z</time>
      </trkpt>
      <trkpt lat="46.22639" lon="6.31413">
        <ele>546.79998779297</ele>
        <time>2020-02-23T14:08:12Z</time>
      </trkpt>
      <trkpt lat="46.22638" lon="6.31419">
        <ele>546.20001220703</ele>
        <time>2020-02-23T14:08:13Z</time>
      </trkpt>
      <trkpt lat="46.22637" lon="6.31424">
        <ele>546</ele>
        <time>2020-02-23T14:08:14Z</time>
      </trkpt>
      <trkpt lat="46.22636" lon="6.31429">
        <ele>546</ele>
        <time>2020-02-23T14:08:15Z</time>
      </trkpt>
      <trkpt lat="46.22636" lon="6.31435">
        <ele>546</ele>
        <time>2020-02-23T14:08:16Z</time>
      </trkpt>
      <trkpt lat="46.22635" lon="6.3144">
        <ele>545.79998779297</ele>
        <time>2020-02-23T14:08:17Z</time>
      </trkpt>
      <trkpt lat="46.22635" lon="6.31445">
        <ele>545.79998779297</ele>
        <time>2020-02-23T14:08:18Z</time>
      </trkpt>
      <trkpt lat="46.22634" lon="6.31451">
        <ele>545.79998779297</ele>
        <time>2020-02-23T14:08:19Z</time>
      </trkpt>
      <trkpt lat="46.22633" lon="6.31455">
        <ele>545.79998779297</ele>
        <time>2020-02-23T14:08:20Z</time>
      </trkpt>
      <trkpt lat="46.22632" lon="6.3146">
        <ele>545.79998779297</ele>
        <time>2020-02-23T14:08:21Z</time>
      </trkpt>
      <trkpt lat="46.2263" lon="6.31464">
        <ele>545.79998779297</ele>
        <time>2020-02-23T14:08:22Z</time>
      </trkpt>
      <trkpt lat="46.22628" lon="6.31466">
        <ele>546</ele>
        <time>2020-02-23T14:08:23Z</time>
      </trkpt>
      <trkpt lat="46.22625" lon="6.31467">
        <ele>546.20001220703</ele>
        <time>2020-02-23T14:08:24Z</time>
      </trkpt>
      <trkpt lat="46.22622" lon="6.31467">
        <ele>546.20001220703</ele>
        <time>2020-02-23T14:08:25Z</time>
      </trkpt>
      <trkpt lat="46.22592" lon="6.31463">
        <ele>546.59997558594</ele>
        <time>2020-02-23T14:08:32Z</time>
      </trkpt>
      <trkpt lat="46.22568" lon="6.31459">
        <ele>546.59997558594</ele>
        <time>2020-02-23T14:08:37Z</time>
      </trkpt>
      <trkpt lat="46.22563" lon="6.31459">
        <ele>546.59997558594</ele>
        <time>2020-02-23T14:08:38Z</time>
      </trkpt>
      <trkpt lat="46.22559" lon="6.31459">
        <ele>546.59997558594</ele>
        <time>2020-02-23T14:08:39Z</time>
      </trkpt>
      <trkpt lat="46.22554" lon="6.31459">
        <ele>546.59997558594</ele>
        <time>2020-02-23T14:08:40Z</time>
      </trkpt>
      <trkpt lat="46.22549" lon="6.31459">
        <ele>546.40002441406</ele>
        <time>2020-02-23T14:08:41Z</time>
      </trkpt>
      <trkpt lat="46.22529" lon="6.31454">
        <ele>546.20001220703</ele>
        <time>2020-02-23T14:08:45Z</time>
      </trkpt>
      <trkpt lat="46.2249" lon="6.31448">
        <ele>546.40002441406</ele>
        <time>2020-02-23T14:08:52Z</time>
      </trkpt>
      <trkpt lat="46.22485" lon="6.31447">
        <ele>546.40002441406</ele>
        <time>2020-02-23T14:08:53Z</time>
      </trkpt>
      <trkpt lat="46.2248" lon="6.31447">
        <ele>546.40002441406</ele>
        <time>2020-02-23T14:08:54Z</time>
      </trkpt>
      <trkpt lat="46.22475" lon="6.31446">
        <ele>546.40002441406</ele>
        <time>2020-02-23T14:08:55Z</time>
      </trkpt>
      <trkpt lat="46.2247" lon="6.31446">
        <ele>546.40002441406</ele>
        <time>2020-02-23T14:08:56Z</time>
      </trkpt>
      <trkpt lat="46.22465" lon="6.31445">
        <ele>546.40002441406</ele>
        <time>2020-02-23T14:08:57Z</time>
      </trkpt>
      <trkpt lat="46.22461" lon="6.31445">
        <ele>546.20001220703</ele>
        <time>2020-02-23T14:08:58Z</time>
      </trkpt>
      <trkpt lat="46.22456" lon="6.31444">
        <ele>546.20001220703</ele>
        <time>2020-02-23T14:08:59Z</time>
      </trkpt>
      <trkpt lat="46.22452" lon="6.31444">
        <ele>546.40002441406</ele>
        <time>2020-02-23T14:09:00Z</time>
      </trkpt>
      <trkpt lat="46.22428" lon="6.31442">
        <ele>546.40002441406</ele>
        <time>2020-02-23T14:09:05Z</time>
      </trkpt>
      <trkpt lat="46.22424" lon="6.31442">
        <ele>546.40002441406</ele>
        <time>2020-02-23T14:09:06Z</time>
      </trkpt>
      <trkpt lat="46.22419" lon="6.31442">
        <ele>546.40002441406</ele>
        <time>2020-02-23T14:09:07Z</time>
      </trkpt>
      <trkpt lat="46.22414" lon="6.31442">
        <ele>546.20001220703</ele>
        <time>2020-02-23T14:09:08Z</time>
      </trkpt>
      <trkpt lat="46.22399" lon="6.31443">
        <ele>546.40002441406</ele>
        <time>2020-02-23T14:09:11Z</time>
      </trkpt>
      <trkpt lat="46.22377" lon="6.31445">
        <ele>546.40002441406</ele>
        <time>2020-02-23T14:09:15Z</time>
      </trkpt>
      <trkpt lat="46.22366" lon="6.31446">
        <ele>546.20001220703</ele>
        <time>2020-02-23T14:09:17Z</time>
      </trkpt>
      <trkpt lat="46.22361" lon="6.31447">
        <ele>546</ele>
        <time>2020-02-23T14:09:18Z</time>
      </trkpt>
      <trkpt lat="46.22356" lon="6.31447">
        <ele>546</ele>
        <time>2020-02-23T14:09:19Z</time>
      </trkpt>
      <trkpt lat="46.22351" lon="6.31447">
        <ele>546</ele>
        <time>2020-02-23T14:09:20Z</time>
      </trkpt>
      <trkpt lat="46.22345" lon="6.31447">
        <ele>545.79998779297</ele>
        <time>2020-02-23T14:09:21Z</time>
      </trkpt>
      <trkpt lat="46.2234" lon="6.31446">
        <ele>545.79998779297</ele>
        <time>2020-02-23T14:09:22Z</time>
      </trkpt>
      <trkpt lat="46.22336" lon="6.31445">
        <ele>545.59997558594</ele>
        <time>2020-02-23T14:09:23Z</time>
      </trkpt>
      <trkpt lat="46.22331" lon="6.31445">
        <ele>545.59997558594</ele>
        <time>2020-02-23T14:09:24Z</time>
      </trkpt>
      <trkpt lat="46.22326" lon="6.31444">
        <ele>545.40002441406</ele>
        <time>2020-02-23T14:09:25Z</time>
      </trkpt>
      <trkpt lat="46.22322" lon="6.31443">
        <ele>545.59997558594</ele>
        <time>2020-02-23T14:09:26Z</time>
      </trkpt>
      <trkpt lat="46.22317" lon="6.31442">
        <ele>545.59997558594</ele>
        <time>2020-02-23T14:09:27Z</time>
      </trkpt>
      <trkpt lat="46.22313" lon="6.31441">
        <ele>545.40002441406</ele>
        <time>2020-02-23T14:09:28Z</time>
      </trkpt>
      <trkpt lat="46.22309" lon="6.3144">
        <ele>545.20001220703</ele>
        <time>2020-02-23T14:09:29Z</time>
      </trkpt>
      <trkpt lat="46.22305" lon="6.31438">
        <ele>545.40002441406</ele>
        <time>2020-02-23T14:09:30Z</time>
      </trkpt>
      <trkpt lat="46.22301" lon="6.31437">
        <ele>545.40002441406</ele>
        <time>2020-02-23T14:09:31Z</time>
      </trkpt>
      <trkpt lat="46.22298" lon="6.31435">
        <ele>545.40002441406</ele>
        <time>2020-02-23T14:09:32Z</time>
      </trkpt>
      <trkpt lat="46.22294" lon="6.31433">
        <ele>545.40002441406</ele>
        <time>2020-02-23T14:09:33Z</time>
      </trkpt>
      <trkpt lat="46.2229" lon="6.31432">
        <ele>545.40002441406</ele>
        <time>2020-02-23T14:09:34Z</time>
      </trkpt>
      <trkpt lat="46.22287" lon="6.3143">
        <ele>545.20001220703</ele>
        <time>2020-02-23T14:09:35Z</time>
      </trkpt>
      <trkpt lat="46.22283" lon="6.31429">
        <ele>545.40002441406</ele>
        <time>2020-02-23T14:09:36Z</time>
      </trkpt>
      <trkpt lat="46.2228" lon="6.31427">
        <ele>545.40002441406</ele>
        <time>2020-02-23T14:09:37Z</time>
      </trkpt>
      <trkpt lat="46.22269" lon="6.31419">
        <ele>545.20001220703</ele>
        <time>2020-02-23T14:09:40Z</time>
      </trkpt>
      <trkpt lat="46.22256" lon="6.3141">
        <ele>545.20001220703</ele>
        <time>2020-02-23T14:09:43Z</time>
      </trkpt>
      <trkpt lat="46.22248" lon="6.31401">
        <ele>545.20001220703</ele>
        <time>2020-02-23T14:09:45Z</time>
      </trkpt>
      <trkpt lat="46.22244" lon="6.31396">
        <ele>545.20001220703</ele>
        <time>2020-02-23T14:09:46Z</time>
      </trkpt>
      <trkpt lat="46.22236" lon="6.31387">
        <ele>545</ele>
        <time>2020-02-23T14:09:48Z</time>
      </trkpt>
      <trkpt lat="46.22228" lon="6.31377">
        <ele>545</ele>
        <time>2020-02-23T14:09:50Z</time>
      </trkpt>
      <trkpt lat="46.2222" lon="6.31367">
        <ele>544.79998779297</ele>
        <time>2020-02-23T14:09:52Z</time>
      </trkpt>
      <trkpt lat="46.22208" lon="6.31353">
        <ele>543.59997558594</ele>
        <time>2020-02-23T14:09:55Z</time>
      </trkpt>
      <trkpt lat="46.222" lon="6.31343">
        <ele>543</ele>
        <time>2020-02-23T14:09:57Z</time>
      </trkpt>
      <trkpt lat="46.22196" lon="6.31338">
        <ele>542.59997558594</ele>
        <time>2020-02-23T14:09:58Z</time>
      </trkpt>
      <trkpt lat="46.22192" lon="6.31333">
        <ele>542</ele>
        <time>2020-02-23T14:09:59Z</time>
      </trkpt>
      <trkpt lat="46.22189" lon="6.31329">
        <ele>542</ele>
        <time>2020-02-23T14:10:00Z</time>
      </trkpt>
      <trkpt lat="46.22185" lon="6.31324">
        <ele>542</ele>
        <time>2020-02-23T14:10:01Z</time>
      </trkpt>
      <trkpt lat="46.22181" lon="6.3132">
        <ele>541.20001220703</ele>
        <time>2020-02-23T14:10:02Z</time>
      </trkpt>
      <trkpt lat="46.22178" lon="6.31316">
        <ele>540.79998779297</ele>
        <time>2020-02-23T14:10:03Z</time>
      </trkpt>
      <trkpt lat="46.22175" lon="6.31311">
        <ele>540.79998779297</ele>
        <time>2020-02-23T14:10:04Z</time>
      </trkpt>
      <trkpt lat="46.22172" lon="6.31307">
        <ele>540.59997558594</ele>
        <time>2020-02-23T14:10:05Z</time>
      </trkpt>
      <trkpt lat="46.22168" lon="6.31303">
        <ele>540.59997558594</ele>
        <time>2020-02-23T14:10:06Z</time>
      </trkpt>
      <trkpt lat="46.22145" lon="6.3127">
        <ele>540.40002441406</ele>
        <time>2020-02-23T14:10:13Z</time>
      </trkpt>
      <trkpt lat="46.22141" lon="6.31265">
        <ele>540.40002441406</ele>
        <time>2020-02-23T14:10:14Z</time>
      </trkpt>
      <trkpt lat="46.22138" lon="6.31261">
        <ele>540.59997558594</ele>
        <time>2020-02-23T14:10:15Z</time>
      </trkpt>
      <trkpt lat="46.22135" lon="6.31256">
        <ele>540.59997558594</ele>
        <time>2020-02-23T14:10:16Z</time>
      </trkpt>
      <trkpt lat="46.22125" lon="6.31244">
        <ele>540.59997558594</ele>
        <time>2020-02-23T14:10:19Z</time>
      </trkpt>
      <trkpt lat="46.22115" lon="6.3123">
        <ele>540.79998779297</ele>
        <time>2020-02-23T14:10:22Z</time>
      </trkpt>
      <trkpt lat="46.22111" lon="6.31225">
        <ele>540.79998779297</ele>
        <time>2020-02-23T14:10:23Z</time>
      </trkpt>
      <trkpt lat="46.22108" lon="6.31221">
        <ele>540.59997558594</ele>
        <time>2020-02-23T14:10:24Z</time>
      </trkpt>
      <trkpt lat="46.22105" lon="6.31216">
        <ele>540.79998779297</ele>
        <time>2020-02-23T14:10:25Z</time>
      </trkpt>
      <trkpt lat="46.22102" lon="6.31211">
        <ele>540.79998779297</ele>
        <time>2020-02-23T14:10:26Z</time>
      </trkpt>
      <trkpt lat="46.22099" lon="6.31206">
        <ele>540.79998779297</ele>
        <time>2020-02-23T14:10:27Z</time>
      </trkpt>
      <trkpt lat="46.22097" lon="6.31201">
        <ele>540.79998779297</ele>
        <time>2020-02-23T14:10:28Z</time>
      </trkpt>
      <trkpt lat="46.22095" lon="6.31195">
        <ele>540.79998779297</ele>
        <time>2020-02-23T14:10:29Z</time>
      </trkpt>
      <trkpt lat="46.22089" lon="6.31167">
        <ele>540.79998779297</ele>
        <time>2020-02-23T14:10:33Z</time>
      </trkpt>
      <trkpt lat="46.22088" lon="6.31159">
        <ele>540.79998779297</ele>
        <time>2020-02-23T14:10:34Z</time>
      </trkpt>
      <trkpt lat="46.22081" lon="6.31127">
        <ele>540.59997558594</ele>
        <time>2020-02-23T14:10:38Z</time>
      </trkpt>
      <trkpt lat="46.22079" lon="6.3112">
        <ele>540.59997558594</ele>
        <time>2020-02-23T14:10:39Z</time>
      </trkpt>
      <trkpt lat="46.22077" lon="6.31113">
        <ele>540.59997558594</ele>
        <time>2020-02-23T14:10:40Z</time>
      </trkpt>
      <trkpt lat="46.22075" lon="6.31107">
        <ele>540.40002441406</ele>
        <time>2020-02-23T14:10:41Z</time>
      </trkpt>
      <trkpt lat="46.22073" lon="6.311">
        <ele>540.20001220703</ele>
        <time>2020-02-23T14:10:42Z</time>
      </trkpt>
      <trkpt lat="46.22071" lon="6.31094">
        <ele>540.20001220703</ele>
        <time>2020-02-23T14:10:43Z</time>
      </trkpt>
      <trkpt lat="46.22069" lon="6.31087">
        <ele>540.20001220703</ele>
        <time>2020-02-23T14:10:44Z</time>
      </trkpt>
      <trkpt lat="46.22067" lon="6.31081">
        <ele>540</ele>
        <time>2020-02-23T14:10:45Z</time>
      </trkpt>
      <trkpt lat="46.22065" lon="6.31075">
        <ele>539.79998779297</ele>
        <time>2020-02-23T14:10:46Z</time>
      </trkpt>
      <trkpt lat="46.22062" lon="6.31069">
        <ele>539.79998779297</ele>
        <time>2020-02-23T14:10:47Z</time>
      </trkpt>
      <trkpt lat="46.2206" lon="6.31063">
        <ele>539.79998779297</ele>
        <time>2020-02-23T14:10:48Z</time>
      </trkpt>
      <trkpt lat="46.22053" lon="6.31044">
        <ele>539.40002441406</ele>
        <time>2020-02-23T14:10:51Z</time>
      </trkpt>
      <trkpt lat="46.22047" lon="6.31024">
        <ele>539.20001220703</ele>
        <time>2020-02-23T14:10:54Z</time>
      </trkpt>
      <trkpt lat="46.22039" lon="6.30996">
        <ele>538.79998779297</ele>
        <time>2020-02-23T14:10:58Z</time>
      </trkpt>
      <trkpt lat="46.22036" lon="6.30989">
        <ele>538.79998779297</ele>
        <time>2020-02-23T14:10:59Z</time>
      </trkpt>
      <trkpt lat="46.22033" lon="6.30983">
        <ele>538.79998779297</ele>
        <time>2020-02-23T14:11:00Z</time>
      </trkpt>
      <trkpt lat="46.22029" lon="6.30977">
        <ele>538.59997558594</ele>
        <time>2020-02-23T14:11:01Z</time>
      </trkpt>
      <trkpt lat="46.22026" lon="6.30972">
        <ele>538.79998779297</ele>
        <time>2020-02-23T14:11:02Z</time>
      </trkpt>
      <trkpt lat="46.22022" lon="6.30967">
        <ele>538.59997558594</ele>
        <time>2020-02-23T14:11:03Z</time>
      </trkpt>
      <trkpt lat="46.22019" lon="6.30962">
        <ele>538.59997558594</ele>
        <time>2020-02-23T14:11:04Z</time>
      </trkpt>
      <trkpt lat="46.22015" lon="6.30959">
        <ele>538.40002441406</ele>
        <time>2020-02-23T14:11:05Z</time>
      </trkpt>
      <trkpt lat="46.22012" lon="6.30955">
        <ele>538.20001220703</ele>
        <time>2020-02-23T14:11:06Z</time>
      </trkpt>
      <trkpt lat="46.22008" lon="6.30952">
        <ele>538</ele>
        <time>2020-02-23T14:11:07Z</time>
      </trkpt>
      <trkpt lat="46.22005" lon="6.30949">
        <ele>537.59997558594</ele>
        <time>2020-02-23T14:11:08Z</time>
      </trkpt>
      <trkpt lat="46.22002" lon="6.30946">
        <ele>537.59997558594</ele>
        <time>2020-02-23T14:11:09Z</time>
      </trkpt>
      <trkpt lat="46.21999" lon="6.30942">
        <ele>537.59997558594</ele>
        <time>2020-02-23T14:11:10Z</time>
      </trkpt>
      <trkpt lat="46.21986" lon="6.30929">
        <ele>537.59997558594</ele>
        <time>2020-02-23T14:11:14Z</time>
      </trkpt>
      <trkpt lat="46.21983" lon="6.30926">
        <ele>537.59997558594</ele>
        <time>2020-02-23T14:11:15Z</time>
      </trkpt>
      <trkpt lat="46.2198" lon="6.30923">
        <ele>537.59997558594</ele>
        <time>2020-02-23T14:11:16Z</time>
      </trkpt>
      <trkpt lat="46.21977" lon="6.30921">
        <ele>537.40002441406</ele>
        <time>2020-02-23T14:11:17Z</time>
      </trkpt>
      <trkpt lat="46.21973" lon="6.3092">
        <ele>537.59997558594</ele>
        <time>2020-02-23T14:11:18Z</time>
      </trkpt>
      <trkpt lat="46.2197" lon="6.30919">
        <ele>537.40002441406</ele>
        <time>2020-02-23T14:11:19Z</time>
      </trkpt>
      <trkpt lat="46.21966" lon="6.30919">
        <ele>537.40002441406</ele>
        <time>2020-02-23T14:11:20Z</time>
      </trkpt>
      <trkpt lat="46.21963" lon="6.3092">
        <ele>537.59997558594</ele>
        <time>2020-02-23T14:11:21Z</time>
      </trkpt>
      <trkpt lat="46.2196" lon="6.30922">
        <ele>537.40002441406</ele>
        <time>2020-02-23T14:11:22Z</time>
      </trkpt>
      <trkpt lat="46.21958" lon="6.30925">
        <ele>537.59997558594</ele>
        <time>2020-02-23T14:11:23Z</time>
      </trkpt>
      <trkpt lat="46.21956" lon="6.30928">
        <ele>537.59997558594</ele>
        <time>2020-02-23T14:11:24Z</time>
      </trkpt>
      <trkpt lat="46.21954" lon="6.3093">
        <ele>537.59997558594</ele>
        <time>2020-02-23T14:11:25Z</time>
      </trkpt>
      <trkpt lat="46.21954" lon="6.30931">
        <ele>537.79998779297</ele>
        <time>2020-02-23T14:11:26Z</time>
      </trkpt>
      <trkpt lat="46.21954" lon="6.30931">
        <ele>537.79998779297</ele>
        <time>2020-02-23T14:11:27Z</time>
      </trkpt>
      <trkpt lat="46.21953" lon="6.30931">
        <ele>537.79998779297</ele>
        <time>2020-02-23T14:11:28Z</time>
      </trkpt>
      <trkpt lat="46.21953" lon="6.30931">
        <ele>537.79998779297</ele>
        <time>2020-02-23T14:11:29Z</time>
      </trkpt>
      <trkpt lat="46.21952" lon="6.3093">
        <ele>538</ele>
        <time>2020-02-23T14:11:30Z</time>
      </trkpt>
      <trkpt lat="46.21951" lon="6.3093">
        <ele>538.40002441406</ele>
        <time>2020-02-23T14:11:31Z</time>
      </trkpt>
      <trkpt lat="46.21951" lon="6.3093">
        <ele>538.79998779297</ele>
        <time>2020-02-23T14:11:32Z</time>
      </trkpt>
      <trkpt lat="46.2195" lon="6.3093">
        <ele>539.59997558594</ele>
        <time>2020-02-23T14:11:33Z</time>
      </trkpt>
      <trkpt lat="46.21951" lon="6.30929">
        <ele>540.40002441406</ele>
        <time>2020-02-23T14:11:35Z</time>
      </trkpt>
      <trkpt lat="46.2195" lon="6.30929">
        <ele>541.40002441406</ele>
        <time>2020-02-23T14:11:42Z</time>
      </trkpt>
      <trkpt lat="46.2195" lon="6.30929">
        <ele>541.59997558594</ele>
        <time>2020-02-23T14:12:21Z</time>
      </trkpt>
      <trkpt lat="46.21949" lon="6.30929">
        <ele>541.40002441406</ele>
        <time>2020-02-23T14:15:08Z</time>
      </trkpt>
      <trkpt lat="46.21949" lon="6.30929">
        <ele>541.59997558594</ele>
        <time>2020-02-23T14:15:58Z</time>
      </trkpt>
      <trkpt lat="46.21949" lon="6.30929">
        <ele>541.40002441406</ele>
        <time>2020-02-23T14:16:02Z</time>
      </trkpt>
      <trkpt lat="46.21948" lon="6.30932">
        <ele>540.79998779297</ele>
        <time>2020-02-23T14:17:17Z</time>
      </trkpt>
      <trkpt lat="46.21947" lon="6.30932">
        <ele>540.79998779297</ele>
        <time>2020-02-23T14:17:18Z</time>
      </trkpt>
      <trkpt lat="46.21947" lon="6.30934">
        <ele>540.79998779297</ele>
        <time>2020-02-23T14:17:22Z</time>
      </trkpt>
      <trkpt lat="46.21948" lon="6.30935">
        <ele>540.79998779297</ele>
        <time>2020-02-23T14:17:23Z</time>
      </trkpt>
      <trkpt lat="46.21949" lon="6.30936">
        <ele>540.79998779297</ele>
        <time>2020-02-23T14:17:24Z</time>
      </trkpt>
      <trkpt lat="46.21949" lon="6.30937">
        <ele>541</ele>
        <time>2020-02-23T14:17:25Z</time>
      </trkpt>
      <trkpt lat="46.21949" lon="6.30938">
        <ele>541.40002441406</ele>
        <time>2020-02-23T14:17:26Z</time>
      </trkpt>
      <trkpt lat="46.2195" lon="6.30939">
        <ele>541.20001220703</ele>
        <time>2020-02-23T14:17:27Z</time>
      </trkpt>
      <trkpt lat="46.21949" lon="6.3094">
        <ele>541.40002441406</ele>
        <time>2020-02-23T14:17:28Z</time>
      </trkpt>
      <trkpt lat="46.21949" lon="6.30941">
        <ele>541.59997558594</ele>
        <time>2020-02-23T14:17:29Z</time>
      </trkpt>
      <trkpt lat="46.21947" lon="6.30942">
        <ele>541.59997558594</ele>
        <time>2020-02-23T14:17:31Z</time>
      </trkpt>
      <trkpt lat="46.21947" lon="6.30942">
        <ele>541.59997558594</ele>
        <time>2020-02-23T14:17:32Z</time>
      </trkpt>
      <trkpt lat="46.21947" lon="6.30942">
        <ele>541.59997558594</ele>
        <time>2020-02-23T14:17:36Z</time>
      </trkpt>
      <trkpt lat="46.21946" lon="6.30943">
        <ele>541.59997558594</ele>
        <time>2020-02-23T14:17:48Z</time>
      </trkpt>
      <trkpt lat="46.21945" lon="6.30944">
        <ele>541.59997558594</ele>
        <time>2020-02-23T14:17:49Z</time>
      </trkpt>
      <trkpt lat="46.21943" lon="6.30946">
        <ele>541.59997558594</ele>
        <time>2020-02-23T14:17:50Z</time>
      </trkpt>
      <trkpt lat="46.21941" lon="6.30951">
        <ele>541.59997558594</ele>
        <time>2020-02-23T14:17:52Z</time>
      </trkpt>
      <trkpt lat="46.2194" lon="6.30953">
        <ele>541.40002441406</ele>
        <time>2020-02-23T14:17:53Z</time>
      </trkpt>
      <trkpt lat="46.21939" lon="6.30955">
        <ele>541.40002441406</ele>
        <time>2020-02-23T14:17:54Z</time>
      </trkpt>
      <trkpt lat="46.21938" lon="6.30957">
        <ele>541.20001220703</ele>
        <time>2020-02-23T14:17:55Z</time>
      </trkpt>
      <trkpt lat="46.21937" lon="6.30958">
        <ele>541.40002441406</ele>
        <time>2020-02-23T14:17:56Z</time>
      </trkpt>
      <trkpt lat="46.21936" lon="6.3096">
        <ele>541.20001220703</ele>
        <time>2020-02-23T14:17:57Z</time>
      </trkpt>
      <trkpt lat="46.21936" lon="6.30962">
        <ele>541.40002441406</ele>
        <time>2020-02-23T14:17:58Z</time>
      </trkpt>
      <trkpt lat="46.21935" lon="6.30963">
        <ele>541.20001220703</ele>
        <time>2020-02-23T14:17:59Z</time>
      </trkpt>
      <trkpt lat="46.21935" lon="6.30965">
        <ele>541</ele>
        <time>2020-02-23T14:18:00Z</time>
      </trkpt>
      <trkpt lat="46.21934" lon="6.30967">
        <ele>541</ele>
        <time>2020-02-23T14:18:01Z</time>
      </trkpt>
      <trkpt lat="46.21933" lon="6.30968">
        <ele>541</ele>
        <time>2020-02-23T14:18:02Z</time>
      </trkpt>
      <trkpt lat="46.21932" lon="6.3097">
        <ele>541</ele>
        <time>2020-02-23T14:18:03Z</time>
      </trkpt>
      <trkpt lat="46.21931" lon="6.30972">
        <ele>541.20001220703</ele>
        <time>2020-02-23T14:18:04Z</time>
      </trkpt>
      <trkpt lat="46.21929" lon="6.30973">
        <ele>541.20001220703</ele>
        <time>2020-02-23T14:18:05Z</time>
      </trkpt>
      <trkpt lat="46.21927" lon="6.30975">
        <ele>541</ele>
        <time>2020-02-23T14:18:07Z</time>
      </trkpt>
      <trkpt lat="46.21924" lon="6.30979">
        <ele>541</ele>
        <time>2020-02-23T14:18:09Z</time>
      </trkpt>
      <trkpt lat="46.21922" lon="6.30981">
        <ele>541</ele>
        <time>2020-02-23T14:18:10Z</time>
      </trkpt>
      <trkpt lat="46.21918" lon="6.30986">
        <ele>541.20001220703</ele>
        <time>2020-02-23T14:18:12Z</time>
      </trkpt>
      <trkpt lat="46.21916" lon="6.30989">
        <ele>541.20001220703</ele>
        <time>2020-02-23T14:18:13Z</time>
      </trkpt>
      <trkpt lat="46.21914" lon="6.30992">
        <ele>541.20001220703</ele>
        <time>2020-02-23T14:18:14Z</time>
      </trkpt>
      <trkpt lat="46.21909" lon="6.30998">
        <ele>541.40002441406</ele>
        <time>2020-02-23T14:18:16Z</time>
      </trkpt>
      <trkpt lat="46.21908" lon="6.31001">
        <ele>541.40002441406</ele>
        <time>2020-02-23T14:18:17Z</time>
      </trkpt>
      <trkpt lat="46.21907" lon="6.31003">
        <ele>541.59997558594</ele>
        <time>2020-02-23T14:18:18Z</time>
      </trkpt>
      <trkpt lat="46.21906" lon="6.31005">
        <ele>541.59997558594</ele>
        <time>2020-02-23T14:18:19Z</time>
      </trkpt>
      <trkpt lat="46.21905" lon="6.31007">
        <ele>541.79998779297</ele>
        <time>2020-02-23T14:18:20Z</time>
      </trkpt>
      <trkpt lat="46.21904" lon="6.31009">
        <ele>541.79998779297</ele>
        <time>2020-02-23T14:18:21Z</time>
      </trkpt>
      <trkpt lat="46.21903" lon="6.3101">
        <ele>541.79998779297</ele>
        <time>2020-02-23T14:18:22Z</time>
      </trkpt>
      <trkpt lat="46.21903" lon="6.31011">
        <ele>542</ele>
        <time>2020-02-23T14:18:23Z</time>
      </trkpt>
      <trkpt lat="46.21899" lon="6.31019">
        <ele>543.59997558594</ele>
        <time>2020-02-23T14:18:34Z</time>
      </trkpt>
      <trkpt lat="46.21898" lon="6.3102">
        <ele>543.79998779297</ele>
        <time>2020-02-23T14:18:44Z</time>
      </trkpt>
      <trkpt lat="46.21897" lon="6.31021">
        <ele>543.79998779297</ele>
        <time>2020-02-23T14:18:55Z</time>
      </trkpt>
      <trkpt lat="46.21897" lon="6.31022">
        <ele>543.79998779297</ele>
        <time>2020-02-23T14:18:57Z</time>
      </trkpt>
      <trkpt lat="46.21895" lon="6.31022">
        <ele>543.40002441406</ele>
        <time>2020-02-23T14:19:04Z</time>
      </trkpt>
      <trkpt lat="46.21892" lon="6.31025">
        <ele>543.40002441406</ele>
        <time>2020-02-23T14:19:15Z</time>
      </trkpt>
      <trkpt lat="46.21892" lon="6.31025">
        <ele>543.40002441406</ele>
        <time>2020-02-23T14:19:16Z</time>
      </trkpt>
      <trkpt lat="46.21892" lon="6.31026">
        <ele>543.40002441406</ele>
        <time>2020-02-23T14:19:17Z</time>
      </trkpt>
      <trkpt lat="46.21892" lon="6.31027">
        <ele>543.40002441406</ele>
        <time>2020-02-23T14:19:18Z</time>
      </trkpt>
      <trkpt lat="46.21892" lon="6.31028">
        <ele>543.40002441406</ele>
        <time>2020-02-23T14:19:19Z</time>
      </trkpt>
      <trkpt lat="46.21892" lon="6.31029">
        <ele>543.40002441406</ele>
        <time>2020-02-23T14:19:20Z</time>
      </trkpt>
      <trkpt lat="46.21892" lon="6.3103">
        <ele>543.40002441406</ele>
        <time>2020-02-23T14:19:21Z</time>
      </trkpt>
      <trkpt lat="46.21892" lon="6.31032">
        <ele>543.59997558594</ele>
        <time>2020-02-23T14:19:22Z</time>
      </trkpt>
      <trkpt lat="46.21892" lon="6.31033">
        <ele>543.59997558594</ele>
        <time>2020-02-23T14:19:23Z</time>
      </trkpt>
      <trkpt lat="46.21892" lon="6.31034">
        <ele>543.79998779297</ele>
        <time>2020-02-23T14:19:24Z</time>
      </trkpt>
      <trkpt lat="46.21892" lon="6.31035">
        <ele>543.79998779297</ele>
        <time>2020-02-23T14:19:25Z</time>
      </trkpt>
      <trkpt lat="46.21892" lon="6.31036">
        <ele>543.59997558594</ele>
        <time>2020-02-23T14:19:26Z</time>
      </trkpt>
      <trkpt lat="46.21892" lon="6.31037">
        <ele>543.79998779297</ele>
        <time>2020-02-23T14:19:27Z</time>
      </trkpt>
      <trkpt lat="46.21892" lon="6.31037">
        <ele>543.79998779297</ele>
        <time>2020-02-23T14:19:28Z</time>
      </trkpt>
      <trkpt lat="46.2189" lon="6.31035">
        <ele>544.20001220703</ele>
        <time>2020-02-23T14:19:34Z</time>
      </trkpt>
      <trkpt lat="46.21891" lon="6.31036">
        <ele>544.20001220703</ele>
        <time>2020-02-23T14:19:48Z</time>
      </trkpt>
      <trkpt lat="46.21891" lon="6.31033">
        <ele>544.20001220703</ele>
        <time>2020-02-23T14:19:57Z</time>
      </trkpt>
      <trkpt lat="46.21891" lon="6.31031">
        <ele>544.40002441406</ele>
        <time>2020-02-23T14:20:00Z</time>
      </trkpt>
      <trkpt lat="46.21891" lon="6.31031">
        <ele>544.40002441406</ele>
        <time>2020-02-23T14:20:01Z</time>
      </trkpt>
      <trkpt lat="46.21891" lon="6.3103">
        <ele>544.20001220703</ele>
        <time>2020-02-23T14:20:02Z</time>
      </trkpt>
      <trkpt lat="46.21892" lon="6.31028">
        <ele>544.20001220703</ele>
        <time>2020-02-23T14:20:04Z</time>
      </trkpt>
      <trkpt lat="46.21892" lon="6.31027">
        <ele>544.20001220703</ele>
        <time>2020-02-23T14:20:05Z</time>
      </trkpt>
      <trkpt lat="46.21893" lon="6.31026">
        <ele>544</ele>
        <time>2020-02-23T14:20:06Z</time>
      </trkpt>
      <trkpt lat="46.21893" lon="6.31025">
        <ele>544</ele>
        <time>2020-02-23T14:20:07Z</time>
      </trkpt>
      <trkpt lat="46.21894" lon="6.31024">
        <ele>544</ele>
        <time>2020-02-23T14:20:08Z</time>
      </trkpt>
      <trkpt lat="46.21894" lon="6.31024">
        <ele>543.79998779297</ele>
        <time>2020-02-23T14:20:09Z</time>
      </trkpt>
      <trkpt lat="46.21894" lon="6.31023">
        <ele>543.79998779297</ele>
        <time>2020-02-23T14:20:10Z</time>
      </trkpt>
      <trkpt lat="46.21897" lon="6.31022">
        <ele>543.40002441406</ele>
        <time>2020-02-23T14:20:15Z</time>
      </trkpt>
      <trkpt lat="46.21897" lon="6.31022">
        <ele>543.40002441406</ele>
        <time>2020-02-23T14:20:27Z</time>
      </trkpt>
      <trkpt lat="46.21897" lon="6.31023">
        <ele>543.40002441406</ele>
        <time>2020-02-23T14:20:42Z</time>
      </trkpt>
      <trkpt lat="46.21898" lon="6.31022">
        <ele>543.40002441406</ele>
        <time>2020-02-23T14:20:43Z</time>
      </trkpt>
      <trkpt lat="46.21899" lon="6.31022">
        <ele>543.40002441406</ele>
        <time>2020-02-23T14:20:44Z</time>
      </trkpt>
      <trkpt lat="46.21899" lon="6.31022">
        <ele>543.59997558594</ele>
        <time>2020-02-23T14:20:46Z</time>
      </trkpt>
      <trkpt lat="46.21898" lon="6.31019">
        <ele>543.40002441406</ele>
        <time>2020-02-23T14:20:49Z</time>
      </trkpt>
      <trkpt lat="46.21898" lon="6.31017">
        <ele>543.40002441406</ele>
        <time>2020-02-23T14:20:50Z</time>
      </trkpt>
      <trkpt lat="46.21897" lon="6.31016">
        <ele>543.59997558594</ele>
        <time>2020-02-23T14:20:53Z</time>
      </trkpt>
      <trkpt lat="46.21897" lon="6.31013">
        <ele>543.59997558594</ele>
        <time>2020-02-23T14:20:57Z</time>
      </trkpt>
      <trkpt lat="46.21897" lon="6.31012">
        <ele>543.59997558594</ele>
        <time>2020-02-23T14:20:58Z</time>
      </trkpt>
      <trkpt lat="46.21898" lon="6.31011">
        <ele>543.40002441406</ele>
        <time>2020-02-23T14:20:59Z</time>
      </trkpt>
      <trkpt lat="46.21899" lon="6.3101">
        <ele>543.59997558594</ele>
        <time>2020-02-23T14:21:00Z</time>
      </trkpt>
      <trkpt lat="46.21899" lon="6.31009">
        <ele>543.40002441406</ele>
        <time>2020-02-23T14:21:01Z</time>
      </trkpt>
      <trkpt lat="46.21901" lon="6.31007">
        <ele>543.40002441406</ele>
        <time>2020-02-23T14:21:03Z</time>
      </trkpt>
      <trkpt lat="46.21904" lon="6.31003">
        <ele>543.20001220703</ele>
        <time>2020-02-23T14:21:06Z</time>
      </trkpt>
      <trkpt lat="46.21905" lon="6.31001">
        <ele>543.20001220703</ele>
        <time>2020-02-23T14:21:07Z</time>
      </trkpt>
      <trkpt lat="46.21906" lon="6.31">
        <ele>543</ele>
        <time>2020-02-23T14:21:08Z</time>
      </trkpt>
      <trkpt lat="46.21908" lon="6.30998">
        <ele>542.79998779297</ele>
        <time>2020-02-23T14:21:10Z</time>
      </trkpt>
      <trkpt lat="46.21909" lon="6.30997">
        <ele>542.79998779297</ele>
        <time>2020-02-23T14:21:11Z</time>
      </trkpt>
      <trkpt lat="46.2191" lon="6.30996">
        <ele>542.79998779297</ele>
        <time>2020-02-23T14:21:12Z</time>
      </trkpt>
      <trkpt lat="46.21911" lon="6.30994">
        <ele>542.40002441406</ele>
        <time>2020-02-23T14:21:13Z</time>
      </trkpt>
      <trkpt lat="46.21913" lon="6.30993">
        <ele>542.59997558594</ele>
        <time>2020-02-23T14:21:14Z</time>
      </trkpt>
      <trkpt lat="46.21914" lon="6.30992">
        <ele>542.59997558594</ele>
        <time>2020-02-23T14:21:15Z</time>
      </trkpt>
      <trkpt lat="46.21914" lon="6.30991">
        <ele>542.40002441406</ele>
        <time>2020-02-23T14:21:16Z</time>
      </trkpt>
      <trkpt lat="46.21915" lon="6.3099">
        <ele>542.59997558594</ele>
        <time>2020-02-23T14:21:17Z</time>
      </trkpt>
      <trkpt lat="46.21916" lon="6.30989">
        <ele>542.59997558594</ele>
        <time>2020-02-23T14:21:18Z</time>
      </trkpt>
      <trkpt lat="46.21917" lon="6.30988">
        <ele>542.59997558594</ele>
        <time>2020-02-23T14:21:19Z</time>
      </trkpt>
      <trkpt lat="46.21917" lon="6.30987">
        <ele>542.40002441406</ele>
        <time>2020-02-23T14:21:20Z</time>
      </trkpt>
      <trkpt lat="46.21918" lon="6.30986">
        <ele>542.40002441406</ele>
        <time>2020-02-23T14:21:21Z</time>
      </trkpt>
      <trkpt lat="46.2192" lon="6.30984">
        <ele>542.40002441406</ele>
        <time>2020-02-23T14:21:23Z</time>
      </trkpt>
      <trkpt lat="46.2192" lon="6.30982">
        <ele>542.40002441406</ele>
        <time>2020-02-23T14:21:24Z</time>
      </trkpt>
      <trkpt lat="46.21921" lon="6.30981">
        <ele>542.40002441406</ele>
        <time>2020-02-23T14:21:25Z</time>
      </trkpt>
      <trkpt lat="46.21922" lon="6.30979">
        <ele>542.20001220703</ele>
        <time>2020-02-23T14:21:26Z</time>
      </trkpt>
      <trkpt lat="46.21923" lon="6.30978">
        <ele>542.20001220703</ele>
        <time>2020-02-23T14:21:27Z</time>
      </trkpt>
      <trkpt lat="46.21924" lon="6.30977">
        <ele>542.20001220703</ele>
        <time>2020-02-23T14:21:28Z</time>
      </trkpt>
      <trkpt lat="46.21925" lon="6.30976">
        <ele>542</ele>
        <time>2020-02-23T14:21:29Z</time>
      </trkpt>
      <trkpt lat="46.21926" lon="6.30975">
        <ele>542</ele>
        <time>2020-02-23T14:21:30Z</time>
      </trkpt>
      <trkpt lat="46.21927" lon="6.30973">
        <ele>542</ele>
        <time>2020-02-23T14:21:31Z</time>
      </trkpt>
      <trkpt lat="46.21928" lon="6.30972">
        <ele>541.79998779297</ele>
        <time>2020-02-23T14:21:32Z</time>
      </trkpt>
      <trkpt lat="46.21928" lon="6.30971">
        <ele>541.79998779297</ele>
        <time>2020-02-23T14:21:33Z</time>
      </trkpt>
      <trkpt lat="46.2193" lon="6.3097">
        <ele>541.59997558594</ele>
        <time>2020-02-23T14:21:34Z</time>
      </trkpt>
      <trkpt lat="46.21931" lon="6.30967">
        <ele>541.59997558594</ele>
        <time>2020-02-23T14:21:36Z</time>
      </trkpt>
      <trkpt lat="46.21932" lon="6.30966">
        <ele>541.59997558594</ele>
        <time>2020-02-23T14:21:37Z</time>
      </trkpt>
      <trkpt lat="46.21933" lon="6.30964">
        <ele>541.40002441406</ele>
        <time>2020-02-23T14:21:38Z</time>
      </trkpt>
      <trkpt lat="46.21933" lon="6.30963">
        <ele>541.59997558594</ele>
        <time>2020-02-23T14:21:39Z</time>
      </trkpt>
      <trkpt lat="46.21934" lon="6.30962">
        <ele>541.59997558594</ele>
        <time>2020-02-23T14:21:40Z</time>
      </trkpt>
      <trkpt lat="46.21934" lon="6.3096">
        <ele>541.40002441406</ele>
        <time>2020-02-23T14:21:41Z</time>
      </trkpt>
      <trkpt lat="46.21935" lon="6.30959">
        <ele>541.40002441406</ele>
        <time>2020-02-23T14:21:42Z</time>
      </trkpt>
      <trkpt lat="46.21936" lon="6.30958">
        <ele>541.40002441406</ele>
        <time>2020-02-23T14:21:43Z</time>
      </trkpt>
      <trkpt lat="46.21937" lon="6.30955">
        <ele>541</ele>
        <time>2020-02-23T14:21:45Z</time>
      </trkpt>
      <trkpt lat="46.21939" lon="6.30953">
        <ele>541.20001220703</ele>
        <time>2020-02-23T14:21:47Z</time>
      </trkpt>
      <trkpt lat="46.2194" lon="6.30951">
        <ele>541</ele>
        <time>2020-02-23T14:21:48Z</time>
      </trkpt>
      <trkpt lat="46.21942" lon="6.30948">
        <ele>541</ele>
        <time>2020-02-23T14:21:50Z</time>
      </trkpt>
      <trkpt lat="46.21945" lon="6.30946">
        <ele>540.79998779297</ele>
        <time>2020-02-23T14:21:52Z</time>
      </trkpt>
      <trkpt lat="46.21946" lon="6.30945">
        <ele>541</ele>
        <time>2020-02-23T14:21:53Z</time>
      </trkpt>
      <trkpt lat="46.21947" lon="6.30945">
        <ele>540.79998779297</ele>
        <time>2020-02-23T14:21:54Z</time>
      </trkpt>
      <trkpt lat="46.21948" lon="6.30945">
        <ele>541</ele>
        <time>2020-02-23T14:21:55Z</time>
      </trkpt>
      <trkpt lat="46.21948" lon="6.30946">
        <ele>540.79998779297</ele>
        <time>2020-02-23T14:21:56Z</time>
      </trkpt>
      <trkpt lat="46.21948" lon="6.30947">
        <ele>540.79998779297</ele>
        <time>2020-02-23T14:21:57Z</time>
      </trkpt>
      <trkpt lat="46.21948" lon="6.30949">
        <ele>541</ele>
        <time>2020-02-23T14:21:58Z</time>
      </trkpt>
      <trkpt lat="46.21948" lon="6.30952">
        <ele>540.79998779297</ele>
        <time>2020-02-23T14:22:01Z</time>
      </trkpt>
      <trkpt lat="46.21948" lon="6.30953">
        <ele>541</ele>
        <time>2020-02-23T14:22:02Z</time>
      </trkpt>
      <trkpt lat="46.21948" lon="6.30954">
        <ele>541</ele>
        <time>2020-02-23T14:22:03Z</time>
      </trkpt>
      <trkpt lat="46.21948" lon="6.30954">
        <ele>541.20001220703</ele>
        <time>2020-02-23T14:22:04Z</time>
      </trkpt>
      <trkpt lat="46.21948" lon="6.30954">
        <ele>541.20001220703</ele>
        <time>2020-02-23T14:22:05Z</time>
      </trkpt>
      <trkpt lat="46.21949" lon="6.30954">
        <ele>541</ele>
        <time>2020-02-23T14:22:06Z</time>
      </trkpt>
      <trkpt lat="46.2195" lon="6.30952">
        <ele>541.20001220703</ele>
        <time>2020-02-23T14:22:08Z</time>
      </trkpt>
      <trkpt lat="46.21951" lon="6.3095">
        <ele>541.20001220703</ele>
        <time>2020-02-23T14:22:09Z</time>
      </trkpt>
      <trkpt lat="46.21952" lon="6.30949">
        <ele>541.20001220703</ele>
        <time>2020-02-23T14:22:10Z</time>
      </trkpt>
      <trkpt lat="46.21952" lon="6.30948">
        <ele>541.20001220703</ele>
        <time>2020-02-23T14:22:11Z</time>
      </trkpt>
      <trkpt lat="46.21952" lon="6.30946">
        <ele>541.20001220703</ele>
        <time>2020-02-23T14:22:12Z</time>
      </trkpt>
      <trkpt lat="46.21953" lon="6.30945">
        <ele>541.20001220703</ele>
        <time>2020-02-23T14:22:14Z</time>
      </trkpt>
      <trkpt lat="46.21952" lon="6.30945">
        <ele>541.20001220703</ele>
        <time>2020-02-23T14:22:16Z</time>
      </trkpt>
      <trkpt lat="46.21953" lon="6.30943">
        <ele>540.59997558594</ele>
        <time>2020-02-23T14:22:30Z</time>
      </trkpt>
      <trkpt lat="46.21952" lon="6.30942">
        <ele>540.79998779297</ele>
        <time>2020-02-23T14:22:31Z</time>
      </trkpt>
      <trkpt lat="46.21952" lon="6.3094">
        <ele>540.79998779297</ele>
        <time>2020-02-23T14:22:33Z</time>
      </trkpt>
      <trkpt lat="46.21953" lon="6.30939">
        <ele>540.59997558594</ele>
        <time>2020-02-23T14:22:35Z</time>
      </trkpt>
      <trkpt lat="46.21954" lon="6.30937">
        <ele>540.79998779297</ele>
        <time>2020-02-23T14:22:36Z</time>
      </trkpt>
      <trkpt lat="46.2196" lon="6.30927">
        <ele>540.59997558594</ele>
        <time>2020-02-23T14:22:40Z</time>
      </trkpt>
      <trkpt lat="46.21961" lon="6.30923">
        <ele>540.79998779297</ele>
        <time>2020-02-23T14:22:41Z</time>
      </trkpt>
      <trkpt lat="46.21961" lon="6.30919">
        <ele>540.79998779297</ele>
        <time>2020-02-23T14:22:42Z</time>
      </trkpt>
      <trkpt lat="46.2196" lon="6.30915">
        <ele>540.59997558594</ele>
        <time>2020-02-23T14:22:43Z</time>
      </trkpt>
      <trkpt lat="46.21958" lon="6.30913">
        <ele>540.59997558594</ele>
        <time>2020-02-23T14:22:44Z</time>
      </trkpt>
      <trkpt lat="46.21957" lon="6.30911">
        <ele>540.59997558594</ele>
        <time>2020-02-23T14:22:45Z</time>
      </trkpt>
      <trkpt lat="46.21957" lon="6.30911">
        <ele>540.40002441406</ele>
        <time>2020-02-23T14:22:46Z</time>
      </trkpt>
      <trkpt lat="46.21957" lon="6.30911">
        <ele>540.40002441406</ele>
        <time>2020-02-23T14:22:47Z</time>
      </trkpt>
      <trkpt lat="46.21956" lon="6.30909">
        <ele>539.20001220703</ele>
        <time>2020-02-23T14:22:52Z</time>
      </trkpt>
      <trkpt lat="46.21954" lon="6.30907">
        <ele>539</ele>
        <time>2020-02-23T14:22:54Z</time>
      </trkpt>
      <trkpt lat="46.21953" lon="6.30905">
        <ele>538.79998779297</ele>
        <time>2020-02-23T14:22:55Z</time>
      </trkpt>
      <trkpt lat="46.21949" lon="6.30901">
        <ele>538.79998779297</ele>
        <time>2020-02-23T14:22:57Z</time>
      </trkpt>
      <trkpt lat="46.21945" lon="6.30897">
        <ele>538.79998779297</ele>
        <time>2020-02-23T14:22:59Z</time>
      </trkpt>
      <trkpt lat="46.21941" lon="6.30893">
        <ele>538.79998779297</ele>
        <time>2020-02-23T14:23:01Z</time>
      </trkpt>
      <trkpt lat="46.21939" lon="6.30892">
        <ele>538.79998779297</ele>
        <time>2020-02-23T14:23:02Z</time>
      </trkpt>
      <trkpt lat="46.21936" lon="6.30892">
        <ele>538.40002441406</ele>
        <time>2020-02-23T14:23:03Z</time>
      </trkpt>
      <trkpt lat="46.21934" lon="6.30892">
        <ele>538.40002441406</ele>
        <time>2020-02-23T14:23:04Z</time>
      </trkpt>
      <trkpt lat="46.21931" lon="6.30894">
        <ele>538.59997558594</ele>
        <time>2020-02-23T14:23:05Z</time>
      </trkpt>
      <trkpt lat="46.21929" lon="6.30896">
        <ele>538.59997558594</ele>
        <time>2020-02-23T14:23:06Z</time>
      </trkpt>
      <trkpt lat="46.21927" lon="6.30899">
        <ele>538.40002441406</ele>
        <time>2020-02-23T14:23:07Z</time>
      </trkpt>
      <trkpt lat="46.21925" lon="6.30903">
        <ele>538.40002441406</ele>
        <time>2020-02-23T14:23:08Z</time>
      </trkpt>
      <trkpt lat="46.21924" lon="6.30907">
        <ele>538.59997558594</ele>
        <time>2020-02-23T14:23:09Z</time>
      </trkpt>
      <trkpt lat="46.21923" lon="6.30911">
        <ele>538.59997558594</ele>
        <time>2020-02-23T14:23:10Z</time>
      </trkpt>
      <trkpt lat="46.21923" lon="6.30915">
        <ele>538.59997558594</ele>
        <time>2020-02-23T14:23:11Z</time>
      </trkpt>
      <trkpt lat="46.21922" lon="6.30919">
        <ele>538.79998779297</ele>
        <time>2020-02-23T14:23:12Z</time>
      </trkpt>
      <trkpt lat="46.21921" lon="6.30923">
        <ele>538.79998779297</ele>
        <time>2020-02-23T14:23:13Z</time>
      </trkpt>
      <trkpt lat="46.2192" lon="6.30927">
        <ele>538.79998779297</ele>
        <time>2020-02-23T14:23:14Z</time>
      </trkpt>
      <trkpt lat="46.21919" lon="6.30931">
        <ele>539</ele>
        <time>2020-02-23T14:23:15Z</time>
      </trkpt>
      <trkpt lat="46.21918" lon="6.30935">
        <ele>539.40002441406</ele>
        <time>2020-02-23T14:23:16Z</time>
      </trkpt>
      <trkpt lat="46.21916" lon="6.30938">
        <ele>539.59997558594</ele>
        <time>2020-02-23T14:23:17Z</time>
      </trkpt>
      <trkpt lat="46.21915" lon="6.30942">
        <ele>539.79998779297</ele>
        <time>2020-02-23T14:23:18Z</time>
      </trkpt>
      <trkpt lat="46.21914" lon="6.30945">
        <ele>540</ele>
        <time>2020-02-23T14:23:19Z</time>
      </trkpt>
      <trkpt lat="46.21912" lon="6.30948">
        <ele>540.40002441406</ele>
        <time>2020-02-23T14:23:20Z</time>
      </trkpt>
      <trkpt lat="46.21911" lon="6.3095">
        <ele>540.79998779297</ele>
        <time>2020-02-23T14:23:21Z</time>
      </trkpt>
      <trkpt lat="46.21909" lon="6.30952">
        <ele>540.79998779297</ele>
        <time>2020-02-23T14:23:22Z</time>
      </trkpt>
      <trkpt lat="46.21908" lon="6.30954">
        <ele>540.79998779297</ele>
        <time>2020-02-23T14:23:23Z</time>
      </trkpt>
      <trkpt lat="46.21906" lon="6.30956">
        <ele>541.20001220703</ele>
        <time>2020-02-23T14:23:24Z</time>
      </trkpt>
      <trkpt lat="46.21905" lon="6.30957">
        <ele>541.40002441406</ele>
        <time>2020-02-23T14:23:25Z</time>
      </trkpt>
      <trkpt lat="46.21905" lon="6.30958">
        <ele>541.59997558594</ele>
        <time>2020-02-23T14:23:26Z</time>
      </trkpt>
      <trkpt lat="46.21905" lon="6.30958">
        <ele>542</ele>
        <time>2020-02-23T14:23:28Z</time>
      </trkpt>
      <trkpt lat="46.21905" lon="6.30958">
        <ele>544.59997558594</ele>
        <time>2020-02-23T14:23:40Z</time>
      </trkpt>
      <trkpt lat="46.21904" lon="6.30959">
        <ele>544.59997558594</ele>
        <time>2020-02-23T14:23:43Z</time>
      </trkpt>
      <trkpt lat="46.21903" lon="6.3096">
        <ele>544.59997558594</ele>
        <time>2020-02-23T14:23:44Z</time>
      </trkpt>
      <trkpt lat="46.21903" lon="6.3096">
        <ele>544.59997558594</ele>
        <time>2020-02-23T14:23:48Z</time>
      </trkpt>
      <trkpt lat="46.21901" lon="6.30962">
        <ele>544.59997558594</ele>
        <time>2020-02-23T14:23:50Z</time>
      </trkpt>
      <trkpt lat="46.219" lon="6.30964">
        <ele>544.59997558594</ele>
        <time>2020-02-23T14:23:51Z</time>
      </trkpt>
      <trkpt lat="46.21897" lon="6.30968">
        <ele>544.59997558594</ele>
        <time>2020-02-23T14:23:53Z</time>
      </trkpt>
      <trkpt lat="46.21896" lon="6.3097">
        <ele>544.59997558594</ele>
        <time>2020-02-23T14:23:54Z</time>
      </trkpt>
      <trkpt lat="46.21894" lon="6.30972">
        <ele>544.79998779297</ele>
        <time>2020-02-23T14:23:55Z</time>
      </trkpt>
      <trkpt lat="46.21892" lon="6.30974">
        <ele>544.79998779297</ele>
        <time>2020-02-23T14:23:56Z</time>
      </trkpt>
      <trkpt lat="46.21891" lon="6.30976">
        <ele>544.79998779297</ele>
        <time>2020-02-23T14:23:57Z</time>
      </trkpt>
      <trkpt lat="46.21889" lon="6.30978">
        <ele>544.79998779297</ele>
        <time>2020-02-23T14:23:58Z</time>
      </trkpt>
      <trkpt lat="46.21887" lon="6.3098">
        <ele>544.79998779297</ele>
        <time>2020-02-23T14:23:59Z</time>
      </trkpt>
      <trkpt lat="46.21886" lon="6.30982">
        <ele>545</ele>
        <time>2020-02-23T14:24:00Z</time>
      </trkpt>
      <trkpt lat="46.21884" lon="6.30984">
        <ele>545.20001220703</ele>
        <time>2020-02-23T14:24:01Z</time>
      </trkpt>
      <trkpt lat="46.21883" lon="6.30986">
        <ele>545.40002441406</ele>
        <time>2020-02-23T14:24:02Z</time>
      </trkpt>
      <trkpt lat="46.21881" lon="6.30988">
        <ele>545.40002441406</ele>
        <time>2020-02-23T14:24:03Z</time>
      </trkpt>
      <trkpt lat="46.2188" lon="6.30991">
        <ele>545.40002441406</ele>
        <time>2020-02-23T14:24:04Z</time>
      </trkpt>
      <trkpt lat="46.21879" lon="6.30993">
        <ele>545.59997558594</ele>
        <time>2020-02-23T14:24:05Z</time>
      </trkpt>
      <trkpt lat="46.21877" lon="6.30995">
        <ele>545.79998779297</ele>
        <time>2020-02-23T14:24:06Z</time>
      </trkpt>
      <trkpt lat="46.21876" lon="6.30998">
        <ele>546.20001220703</ele>
        <time>2020-02-23T14:24:07Z</time>
      </trkpt>
      <trkpt lat="46.21875" lon="6.31">
        <ele>546.59997558594</ele>
        <time>2020-02-23T14:24:08Z</time>
      </trkpt>
      <trkpt lat="46.21874" lon="6.31001">
        <ele>546.59997558594</ele>
        <time>2020-02-23T14:24:09Z</time>
      </trkpt>
      <trkpt lat="46.21873" lon="6.31003">
        <ele>547</ele>
        <time>2020-02-23T14:24:10Z</time>
      </trkpt>
      <trkpt lat="46.21872" lon="6.31005">
        <ele>547.20001220703</ele>
        <time>2020-02-23T14:24:11Z</time>
      </trkpt>
      <trkpt lat="46.2187" lon="6.31007">
        <ele>547.20001220703</ele>
        <time>2020-02-23T14:24:12Z</time>
      </trkpt>
      <trkpt lat="46.21869" lon="6.31009">
        <ele>547.59997558594</ele>
        <time>2020-02-23T14:24:13Z</time>
      </trkpt>
      <trkpt lat="46.21868" lon="6.31011">
        <ele>547.79998779297</ele>
        <time>2020-02-23T14:24:14Z</time>
      </trkpt>
      <trkpt lat="46.21867" lon="6.31013">
        <ele>548.20001220703</ele>
        <time>2020-02-23T14:24:15Z</time>
      </trkpt>
      <trkpt lat="46.21866" lon="6.31016">
        <ele>548.59997558594</ele>
        <time>2020-02-23T14:24:16Z</time>
      </trkpt>
      <trkpt lat="46.21865" lon="6.31018">
        <ele>548.59997558594</ele>
        <time>2020-02-23T14:24:17Z</time>
      </trkpt>
      <trkpt lat="46.21863" lon="6.3102">
        <ele>548.79998779297</ele>
        <time>2020-02-23T14:24:18Z</time>
      </trkpt>
      <trkpt lat="46.21862" lon="6.31022">
        <ele>549</ele>
        <time>2020-02-23T14:24:19Z</time>
      </trkpt>
      <trkpt lat="46.21861" lon="6.31024">
        <ele>549</ele>
        <time>2020-02-23T14:24:20Z</time>
      </trkpt>
      <trkpt lat="46.21861" lon="6.31027">
        <ele>549.20001220703</ele>
        <time>2020-02-23T14:24:21Z</time>
      </trkpt>
      <trkpt lat="46.2186" lon="6.31029">
        <ele>549.40002441406</ele>
        <time>2020-02-23T14:24:22Z</time>
      </trkpt>
      <trkpt lat="46.21858" lon="6.31032">
        <ele>549.79998779297</ele>
        <time>2020-02-23T14:24:23Z</time>
      </trkpt>
      <trkpt lat="46.21857" lon="6.31034">
        <ele>549.79998779297</ele>
        <time>2020-02-23T14:24:24Z</time>
      </trkpt>
      <trkpt lat="46.21857" lon="6.31037">
        <ele>550</ele>
        <time>2020-02-23T14:24:25Z</time>
      </trkpt>
      <trkpt lat="46.21857" lon="6.3104">
        <ele>550.20001220703</ele>
        <time>2020-02-23T14:24:26Z</time>
      </trkpt>
      <trkpt lat="46.21856" lon="6.31043">
        <ele>550.40002441406</ele>
        <time>2020-02-23T14:24:27Z</time>
      </trkpt>
      <trkpt lat="46.21856" lon="6.31046">
        <ele>550.59997558594</ele>
        <time>2020-02-23T14:24:28Z</time>
      </trkpt>
      <trkpt lat="46.21855" lon="6.31048">
        <ele>550.79998779297</ele>
        <time>2020-02-23T14:24:29Z</time>
      </trkpt>
      <trkpt lat="46.21855" lon="6.31051">
        <ele>551.20001220703</ele>
        <time>2020-02-23T14:24:30Z</time>
      </trkpt>
      <trkpt lat="46.21854" lon="6.31054">
        <ele>551.40002441406</ele>
        <time>2020-02-23T14:24:31Z</time>
      </trkpt>
      <trkpt lat="46.21854" lon="6.31056">
        <ele>551.79998779297</ele>
        <time>2020-02-23T14:24:32Z</time>
      </trkpt>
      <trkpt lat="46.21854" lon="6.31059">
        <ele>552.20001220703</ele>
        <time>2020-02-23T14:24:33Z</time>
      </trkpt>
      <trkpt lat="46.21853" lon="6.31061">
        <ele>552.20001220703</ele>
        <time>2020-02-23T14:24:34Z</time>
      </trkpt>
      <trkpt lat="46.21852" lon="6.31064">
        <ele>552.59997558594</ele>
        <time>2020-02-23T14:24:35Z</time>
      </trkpt>
      <trkpt lat="46.21851" lon="6.31067">
        <ele>552.59997558594</ele>
        <time>2020-02-23T14:24:36Z</time>
      </trkpt>
      <trkpt lat="46.2185" lon="6.3107">
        <ele>552.59997558594</ele>
        <time>2020-02-23T14:24:37Z</time>
      </trkpt>
      <trkpt lat="46.21849" lon="6.31072">
        <ele>552.79998779297</ele>
        <time>2020-02-23T14:24:38Z</time>
      </trkpt>
      <trkpt lat="46.21848" lon="6.31075">
        <ele>553</ele>
        <time>2020-02-23T14:24:39Z</time>
      </trkpt>
      <trkpt lat="46.21847" lon="6.31077">
        <ele>553.20001220703</ele>
        <time>2020-02-23T14:24:40Z</time>
      </trkpt>
      <trkpt lat="46.21846" lon="6.31079">
        <ele>553.59997558594</ele>
        <time>2020-02-23T14:24:41Z</time>
      </trkpt>
      <trkpt lat="46.21845" lon="6.31081">
        <ele>554</ele>
        <time>2020-02-23T14:24:42Z</time>
      </trkpt>
      <trkpt lat="46.21844" lon="6.31083">
        <ele>554.20001220703</ele>
        <time>2020-02-23T14:24:43Z</time>
      </trkpt>
      <trkpt lat="46.21843" lon="6.31086">
        <ele>554.20001220703</ele>
        <time>2020-02-23T14:24:44Z</time>
      </trkpt>
      <trkpt lat="46.21843" lon="6.31089">
        <ele>554.40002441406</ele>
        <time>2020-02-23T14:24:45Z</time>
      </trkpt>
      <trkpt lat="46.21842" lon="6.31092">
        <ele>554.40002441406</ele>
        <time>2020-02-23T14:24:46Z</time>
      </trkpt>
      <trkpt lat="46.21842" lon="6.31094">
        <ele>554.59997558594</ele>
        <time>2020-02-23T14:24:47Z</time>
      </trkpt>
      <trkpt lat="46.21841" lon="6.31097">
        <ele>554.59997558594</ele>
        <time>2020-02-23T14:24:48Z</time>
      </trkpt>
      <trkpt lat="46.21841" lon="6.31099">
        <ele>554.79998779297</ele>
        <time>2020-02-23T14:24:49Z</time>
      </trkpt>
      <trkpt lat="46.2184" lon="6.31102">
        <ele>554.79998779297</ele>
        <time>2020-02-23T14:24:50Z</time>
      </trkpt>
      <trkpt lat="46.21839" lon="6.31104">
        <ele>555.20001220703</ele>
        <time>2020-02-23T14:24:51Z</time>
      </trkpt>
      <trkpt lat="46.21838" lon="6.31106">
        <ele>555.59997558594</ele>
        <time>2020-02-23T14:24:52Z</time>
      </trkpt>
      <trkpt lat="46.21838" lon="6.31108">
        <ele>555.79998779297</ele>
        <time>2020-02-23T14:24:53Z</time>
      </trkpt>
      <trkpt lat="46.21837" lon="6.3111">
        <ele>556</ele>
        <time>2020-02-23T14:24:54Z</time>
      </trkpt>
      <trkpt lat="46.21836" lon="6.31113">
        <ele>556.20001220703</ele>
        <time>2020-02-23T14:24:55Z</time>
      </trkpt>
      <trkpt lat="46.21835" lon="6.31115">
        <ele>556.40002441406</ele>
        <time>2020-02-23T14:24:56Z</time>
      </trkpt>
      <trkpt lat="46.21834" lon="6.31117">
        <ele>556.59997558594</ele>
        <time>2020-02-23T14:24:57Z</time>
      </trkpt>
      <trkpt lat="46.21833" lon="6.31119">
        <ele>557</ele>
        <time>2020-02-23T14:24:58Z</time>
      </trkpt>
      <trkpt lat="46.21832" lon="6.31121">
        <ele>557</ele>
        <time>2020-02-23T14:24:59Z</time>
      </trkpt>
      <trkpt lat="46.2183" lon="6.31123">
        <ele>557.20001220703</ele>
        <time>2020-02-23T14:25:00Z</time>
      </trkpt>
      <trkpt lat="46.21829" lon="6.31125">
        <ele>557.40002441406</ele>
        <time>2020-02-23T14:25:01Z</time>
      </trkpt>
      <trkpt lat="46.21828" lon="6.31126">
        <ele>557.40002441406</ele>
        <time>2020-02-23T14:25:02Z</time>
      </trkpt>
      <trkpt lat="46.21826" lon="6.31128">
        <ele>557.79998779297</ele>
        <time>2020-02-23T14:25:03Z</time>
      </trkpt>
      <trkpt lat="46.21825" lon="6.31129">
        <ele>558.20001220703</ele>
        <time>2020-02-23T14:25:04Z</time>
      </trkpt>
      <trkpt lat="46.21823" lon="6.31131">
        <ele>558.20001220703</ele>
        <time>2020-02-23T14:25:05Z</time>
      </trkpt>
      <trkpt lat="46.21821" lon="6.31132">
        <ele>558.40002441406</ele>
        <time>2020-02-23T14:25:06Z</time>
      </trkpt>
      <trkpt lat="46.21819" lon="6.31133">
        <ele>558.40002441406</ele>
        <time>2020-02-23T14:25:07Z</time>
      </trkpt>
      <trkpt lat="46.21818" lon="6.31134">
        <ele>558.40002441406</ele>
        <time>2020-02-23T14:25:08Z</time>
      </trkpt>
      <trkpt lat="46.21816" lon="6.31135">
        <ele>558.59997558594</ele>
        <time>2020-02-23T14:25:09Z</time>
      </trkpt>
      <trkpt lat="46.21815" lon="6.31136">
        <ele>558.79998779297</ele>
        <time>2020-02-23T14:25:10Z</time>
      </trkpt>
      <trkpt lat="46.21814" lon="6.31137">
        <ele>558.79998779297</ele>
        <time>2020-02-23T14:25:11Z</time>
      </trkpt>
      <trkpt lat="46.21813" lon="6.31139">
        <ele>558.79998779297</ele>
        <time>2020-02-23T14:25:12Z</time>
      </trkpt>
      <trkpt lat="46.21812" lon="6.31141">
        <ele>559</ele>
        <time>2020-02-23T14:25:13Z</time>
      </trkpt>
      <trkpt lat="46.21812" lon="6.31143">
        <ele>559</ele>
        <time>2020-02-23T14:25:14Z</time>
      </trkpt>
      <trkpt lat="46.21811" lon="6.31146">
        <ele>559.20001220703</ele>
        <time>2020-02-23T14:25:15Z</time>
      </trkpt>
      <trkpt lat="46.2181" lon="6.31148">
        <ele>559.20001220703</ele>
        <time>2020-02-23T14:25:16Z</time>
      </trkpt>
      <trkpt lat="46.21809" lon="6.31151">
        <ele>559.40002441406</ele>
        <time>2020-02-23T14:25:17Z</time>
      </trkpt>
      <trkpt lat="46.21808" lon="6.31153">
        <ele>559.59997558594</ele>
        <time>2020-02-23T14:25:18Z</time>
      </trkpt>
      <trkpt lat="46.21808" lon="6.31155">
        <ele>559.79998779297</ele>
        <time>2020-02-23T14:25:19Z</time>
      </trkpt>
      <trkpt lat="46.21807" lon="6.31157">
        <ele>560</ele>
        <time>2020-02-23T14:25:20Z</time>
      </trkpt>
      <trkpt lat="46.21807" lon="6.3116">
        <ele>560.20001220703</ele>
        <time>2020-02-23T14:25:21Z</time>
      </trkpt>
      <trkpt lat="46.21806" lon="6.31162">
        <ele>560.20001220703</ele>
        <time>2020-02-23T14:25:22Z</time>
      </trkpt>
      <trkpt lat="46.21806" lon="6.31165">
        <ele>560.40002441406</ele>
        <time>2020-02-23T14:25:23Z</time>
      </trkpt>
      <trkpt lat="46.21806" lon="6.31167">
        <ele>560.59997558594</ele>
        <time>2020-02-23T14:25:24Z</time>
      </trkpt>
      <trkpt lat="46.21806" lon="6.3117">
        <ele>560.79998779297</ele>
        <time>2020-02-23T14:25:25Z</time>
      </trkpt>
      <trkpt lat="46.21806" lon="6.31172">
        <ele>560.79998779297</ele>
        <time>2020-02-23T14:25:26Z</time>
      </trkpt>
      <trkpt lat="46.21805" lon="6.31174">
        <ele>560.79998779297</ele>
        <time>2020-02-23T14:25:27Z</time>
      </trkpt>
      <trkpt lat="46.21805" lon="6.31176">
        <ele>561</ele>
        <time>2020-02-23T14:25:28Z</time>
      </trkpt>
      <trkpt lat="46.21805" lon="6.31179">
        <ele>561.20001220703</ele>
        <time>2020-02-23T14:25:29Z</time>
      </trkpt>
      <trkpt lat="46.21804" lon="6.31181">
        <ele>561.20001220703</ele>
        <time>2020-02-23T14:25:30Z</time>
      </trkpt>
      <trkpt lat="46.21804" lon="6.31183">
        <ele>561.20001220703</ele>
        <time>2020-02-23T14:25:31Z</time>
      </trkpt>
      <trkpt lat="46.21803" lon="6.31185">
        <ele>561.59997558594</ele>
        <time>2020-02-23T14:25:32Z</time>
      </trkpt>
      <trkpt lat="46.21802" lon="6.31188">
        <ele>561.59997558594</ele>
        <time>2020-02-23T14:25:33Z</time>
      </trkpt>
      <trkpt lat="46.21801" lon="6.31189">
        <ele>561.79998779297</ele>
        <time>2020-02-23T14:25:34Z</time>
      </trkpt>
      <trkpt lat="46.218" lon="6.31191">
        <ele>562</ele>
        <time>2020-02-23T14:25:35Z</time>
      </trkpt>
      <trkpt lat="46.218" lon="6.31193">
        <ele>562.40002441406</ele>
        <time>2020-02-23T14:25:36Z</time>
      </trkpt>
      <trkpt lat="46.21799" lon="6.31195">
        <ele>562.40002441406</ele>
        <time>2020-02-23T14:25:37Z</time>
      </trkpt>
      <trkpt lat="46.21798" lon="6.31196">
        <ele>562.79998779297</ele>
        <time>2020-02-23T14:25:38Z</time>
      </trkpt>
      <trkpt lat="46.21797" lon="6.31198">
        <ele>563.20001220703</ele>
        <time>2020-02-23T14:25:39Z</time>
      </trkpt>
      <trkpt lat="46.21797" lon="6.312">
        <ele>563.20001220703</ele>
        <time>2020-02-23T14:25:40Z</time>
      </trkpt>
      <trkpt lat="46.21796" lon="6.31202">
        <ele>563.59997558594</ele>
        <time>2020-02-23T14:25:41Z</time>
      </trkpt>
      <trkpt lat="46.21795" lon="6.31204">
        <ele>564</ele>
        <time>2020-02-23T14:25:42Z</time>
      </trkpt>
      <trkpt lat="46.21794" lon="6.31206">
        <ele>564</ele>
        <time>2020-02-23T14:25:43Z</time>
      </trkpt>
      <trkpt lat="46.21794" lon="6.31207">
        <ele>564.40002441406</ele>
        <time>2020-02-23T14:25:44Z</time>
      </trkpt>
      <trkpt lat="46.21793" lon="6.31209">
        <ele>564.79998779297</ele>
        <time>2020-02-23T14:25:45Z</time>
      </trkpt>
      <trkpt lat="46.21792" lon="6.3121">
        <ele>565</ele>
        <time>2020-02-23T14:25:46Z</time>
      </trkpt>
      <trkpt lat="46.21791" lon="6.31212">
        <ele>565.20001220703</ele>
        <time>2020-02-23T14:25:47Z</time>
      </trkpt>
      <trkpt lat="46.2179" lon="6.31214">
        <ele>565.40002441406</ele>
        <time>2020-02-23T14:25:48Z</time>
      </trkpt>
      <trkpt lat="46.2179" lon="6.31215">
        <ele>565.59997558594</ele>
        <time>2020-02-23T14:25:49Z</time>
      </trkpt>
      <trkpt lat="46.21788" lon="6.31217">
        <ele>566</ele>
        <time>2020-02-23T14:25:50Z</time>
      </trkpt>
      <trkpt lat="46.21787" lon="6.31218">
        <ele>566</ele>
        <time>2020-02-23T14:25:51Z</time>
      </trkpt>
      <trkpt lat="46.21786" lon="6.3122">
        <ele>566</ele>
        <time>2020-02-23T14:25:52Z</time>
      </trkpt>
      <trkpt lat="46.21785" lon="6.31222">
        <ele>566.20001220703</ele>
        <time>2020-02-23T14:25:53Z</time>
      </trkpt>
      <trkpt lat="46.21784" lon="6.31223">
        <ele>566.40002441406</ele>
        <time>2020-02-23T14:25:54Z</time>
      </trkpt>
      <trkpt lat="46.21783" lon="6.31223">
        <ele>566.59997558594</ele>
        <time>2020-02-23T14:25:55Z</time>
      </trkpt>
      <trkpt lat="46.21782" lon="6.31224">
        <ele>566.79998779297</ele>
        <time>2020-02-23T14:25:56Z</time>
      </trkpt>
      <trkpt lat="46.21781" lon="6.31225">
        <ele>567</ele>
        <time>2020-02-23T14:25:57Z</time>
      </trkpt>
      <trkpt lat="46.21781" lon="6.31226">
        <ele>567.20001220703</ele>
        <time>2020-02-23T14:25:58Z</time>
      </trkpt>
      <trkpt lat="46.2178" lon="6.31227">
        <ele>567.40002441406</ele>
        <time>2020-02-23T14:25:59Z</time>
      </trkpt>
      <trkpt lat="46.2178" lon="6.31229">
        <ele>567.40002441406</ele>
        <time>2020-02-23T14:26:00Z</time>
      </trkpt>
      <trkpt lat="46.21779" lon="6.3123">
        <ele>567.79998779297</ele>
        <time>2020-02-23T14:26:01Z</time>
      </trkpt>
      <trkpt lat="46.21778" lon="6.3123">
        <ele>568</ele>
        <time>2020-02-23T14:26:02Z</time>
      </trkpt>
      <trkpt lat="46.21777" lon="6.31231">
        <ele>568.40002441406</ele>
        <time>2020-02-23T14:26:03Z</time>
      </trkpt>
      <trkpt lat="46.21777" lon="6.31233">
        <ele>568.79998779297</ele>
        <time>2020-02-23T14:26:04Z</time>
      </trkpt>
      <trkpt lat="46.21776" lon="6.31234">
        <ele>568.79998779297</ele>
        <time>2020-02-23T14:26:05Z</time>
      </trkpt>
      <trkpt lat="46.21776" lon="6.31235">
        <ele>569.20001220703</ele>
        <time>2020-02-23T14:26:06Z</time>
      </trkpt>
      <trkpt lat="46.21775" lon="6.31236">
        <ele>569.20001220703</ele>
        <time>2020-02-23T14:26:07Z</time>
      </trkpt>
      <trkpt lat="46.21774" lon="6.31237">
        <ele>569.59997558594</ele>
        <time>2020-02-23T14:26:08Z</time>
      </trkpt>
      <trkpt lat="46.21774" lon="6.31238">
        <ele>569.79998779297</ele>
        <time>2020-02-23T14:26:09Z</time>
      </trkpt>
      <trkpt lat="46.21773" lon="6.31239">
        <ele>570</ele>
        <time>2020-02-23T14:26:10Z</time>
      </trkpt>
      <trkpt lat="46.21773" lon="6.3124">
        <ele>570.20001220703</ele>
        <time>2020-02-23T14:26:11Z</time>
      </trkpt>
      <trkpt lat="46.21772" lon="6.31241">
        <ele>570.40002441406</ele>
        <time>2020-02-23T14:26:12Z</time>
      </trkpt>
      <trkpt lat="46.21772" lon="6.31243">
        <ele>570.40002441406</ele>
        <time>2020-02-23T14:26:13Z</time>
      </trkpt>
      <trkpt lat="46.21771" lon="6.31244">
        <ele>570.40002441406</ele>
        <time>2020-02-23T14:26:14Z</time>
      </trkpt>
      <trkpt lat="46.2177" lon="6.31245">
        <ele>570.40002441406</ele>
        <time>2020-02-23T14:26:15Z</time>
      </trkpt>
      <trkpt lat="46.21769" lon="6.31246">
        <ele>570.40002441406</ele>
        <time>2020-02-23T14:26:16Z</time>
      </trkpt>
      <trkpt lat="46.21769" lon="6.31248">
        <ele>570.79998779297</ele>
        <time>2020-02-23T14:26:17Z</time>
      </trkpt>
      <trkpt lat="46.21768" lon="6.3125">
        <ele>571</ele>
        <time>2020-02-23T14:26:18Z</time>
      </trkpt>
      <trkpt lat="46.21768" lon="6.31251">
        <ele>571.20001220703</ele>
        <time>2020-02-23T14:26:19Z</time>
      </trkpt>
      <trkpt lat="46.21767" lon="6.31253">
        <ele>571.20001220703</ele>
        <time>2020-02-23T14:26:20Z</time>
      </trkpt>
      <trkpt lat="46.21766" lon="6.31254">
        <ele>571.59997558594</ele>
        <time>2020-02-23T14:26:21Z</time>
      </trkpt>
      <trkpt lat="46.21765" lon="6.31255">
        <ele>571.59997558594</ele>
        <time>2020-02-23T14:26:22Z</time>
      </trkpt>
      <trkpt lat="46.21764" lon="6.31256">
        <ele>572</ele>
        <time>2020-02-23T14:26:23Z</time>
      </trkpt>
      <trkpt lat="46.21763" lon="6.31258">
        <ele>572.20001220703</ele>
        <time>2020-02-23T14:26:24Z</time>
      </trkpt>
      <trkpt lat="46.21762" lon="6.31259">
        <ele>572.40002441406</ele>
        <time>2020-02-23T14:26:25Z</time>
      </trkpt>
      <trkpt lat="46.21761" lon="6.3126">
        <ele>572.79998779297</ele>
        <time>2020-02-23T14:26:26Z</time>
      </trkpt>
      <trkpt lat="46.2176" lon="6.31261">
        <ele>572.79998779297</ele>
        <time>2020-02-23T14:26:27Z</time>
      </trkpt>
      <trkpt lat="46.21758" lon="6.31263">
        <ele>573.20001220703</ele>
        <time>2020-02-23T14:26:28Z</time>
      </trkpt>
      <trkpt lat="46.21757" lon="6.31264">
        <ele>573.40002441406</ele>
        <time>2020-02-23T14:26:29Z</time>
      </trkpt>
      <trkpt lat="46.21757" lon="6.31265">
        <ele>573.40002441406</ele>
        <time>2020-02-23T14:26:30Z</time>
      </trkpt>
      <trkpt lat="46.21756" lon="6.31267">
        <ele>573.79998779297</ele>
        <time>2020-02-23T14:26:31Z</time>
      </trkpt>
      <trkpt lat="46.21755" lon="6.31268">
        <ele>574</ele>
        <time>2020-02-23T14:26:32Z</time>
      </trkpt>
      <trkpt lat="46.21754" lon="6.3127">
        <ele>574.20001220703</ele>
        <time>2020-02-23T14:26:33Z</time>
      </trkpt>
      <trkpt lat="46.21753" lon="6.31271">
        <ele>574.20001220703</ele>
        <time>2020-02-23T14:26:34Z</time>
      </trkpt>
      <trkpt lat="46.21752" lon="6.31272">
        <ele>574.40002441406</ele>
        <time>2020-02-23T14:26:35Z</time>
      </trkpt>
      <trkpt lat="46.21751" lon="6.31273">
        <ele>574.59997558594</ele>
        <time>2020-02-23T14:26:36Z</time>
      </trkpt>
      <trkpt lat="46.2175" lon="6.31274">
        <ele>574.59997558594</ele>
        <time>2020-02-23T14:26:37Z</time>
      </trkpt>
      <trkpt lat="46.21749" lon="6.31276">
        <ele>574.79998779297</ele>
        <time>2020-02-23T14:26:38Z</time>
      </trkpt>
      <trkpt lat="46.21749" lon="6.31277">
        <ele>575.20001220703</ele>
        <time>2020-02-23T14:26:39Z</time>
      </trkpt>
      <trkpt lat="46.21748" lon="6.31278">
        <ele>575.20001220703</ele>
        <time>2020-02-23T14:26:40Z</time>
      </trkpt>
      <trkpt lat="46.21747" lon="6.31279">
        <ele>575.40002441406</ele>
        <time>2020-02-23T14:26:41Z</time>
      </trkpt>
      <trkpt lat="46.21746" lon="6.3128">
        <ele>575.59997558594</ele>
        <time>2020-02-23T14:26:42Z</time>
      </trkpt>
      <trkpt lat="46.21745" lon="6.31281">
        <ele>575.59997558594</ele>
        <time>2020-02-23T14:26:43Z</time>
      </trkpt>
      <trkpt lat="46.21745" lon="6.31283">
        <ele>575.79998779297</ele>
        <time>2020-02-23T14:26:44Z</time>
      </trkpt>
      <trkpt lat="46.21744" lon="6.31284">
        <ele>576</ele>
        <time>2020-02-23T14:26:45Z</time>
      </trkpt>
      <trkpt lat="46.21743" lon="6.31286">
        <ele>576</ele>
        <time>2020-02-23T14:26:46Z</time>
      </trkpt>
      <trkpt lat="46.21742" lon="6.31287">
        <ele>576.40002441406</ele>
        <time>2020-02-23T14:26:47Z</time>
      </trkpt>
      <trkpt lat="46.21741" lon="6.31289">
        <ele>576.40002441406</ele>
        <time>2020-02-23T14:26:48Z</time>
      </trkpt>
      <trkpt lat="46.2174" lon="6.3129">
        <ele>576.59997558594</ele>
        <time>2020-02-23T14:26:49Z</time>
      </trkpt>
      <trkpt lat="46.21739" lon="6.31292">
        <ele>576.79998779297</ele>
        <time>2020-02-23T14:26:50Z</time>
      </trkpt>
      <trkpt lat="46.21738" lon="6.31294">
        <ele>577.20001220703</ele>
        <time>2020-02-23T14:26:51Z</time>
      </trkpt>
      <trkpt lat="46.21737" lon="6.31295">
        <ele>577.40002441406</ele>
        <time>2020-02-23T14:26:52Z</time>
      </trkpt>
      <trkpt lat="46.21736" lon="6.31296">
        <ele>577.59997558594</ele>
        <time>2020-02-23T14:26:53Z</time>
      </trkpt>
      <trkpt lat="46.21735" lon="6.31298">
        <ele>577.79998779297</ele>
        <time>2020-02-23T14:26:54Z</time>
      </trkpt>
      <trkpt lat="46.21734" lon="6.31299">
        <ele>578</ele>
        <time>2020-02-23T14:26:55Z</time>
      </trkpt>
      <trkpt lat="46.21733" lon="6.313">
        <ele>578.20001220703</ele>
        <time>2020-02-23T14:26:56Z</time>
      </trkpt>
      <trkpt lat="46.21732" lon="6.31301">
        <ele>578.40002441406</ele>
        <time>2020-02-23T14:26:57Z</time>
      </trkpt>
      <trkpt lat="46.21731" lon="6.31302">
        <ele>578.79998779297</ele>
        <time>2020-02-23T14:26:58Z</time>
      </trkpt>
      <trkpt lat="46.2173" lon="6.31303">
        <ele>578.79998779297</ele>
        <time>2020-02-23T14:26:59Z</time>
      </trkpt>
      <trkpt lat="46.21729" lon="6.31304">
        <ele>579</ele>
        <time>2020-02-23T14:27:00Z</time>
      </trkpt>
      <trkpt lat="46.21728" lon="6.31305">
        <ele>579.40002441406</ele>
        <time>2020-02-23T14:27:01Z</time>
      </trkpt>
      <trkpt lat="46.21727" lon="6.31305">
        <ele>579.59997558594</ele>
        <time>2020-02-23T14:27:02Z</time>
      </trkpt>
      <trkpt lat="46.21726" lon="6.31306">
        <ele>579.79998779297</ele>
        <time>2020-02-23T14:27:03Z</time>
      </trkpt>
      <trkpt lat="46.21725" lon="6.31306">
        <ele>579.79998779297</ele>
        <time>2020-02-23T14:27:04Z</time>
      </trkpt>
      <trkpt lat="46.21725" lon="6.31307">
        <ele>580.20001220703</ele>
        <time>2020-02-23T14:27:05Z</time>
      </trkpt>
      <trkpt lat="46.21724" lon="6.31307">
        <ele>580.40002441406</ele>
        <time>2020-02-23T14:27:06Z</time>
      </trkpt>
      <trkpt lat="46.21723" lon="6.31308">
        <ele>580.59997558594</ele>
        <time>2020-02-23T14:27:07Z</time>
      </trkpt>
      <trkpt lat="46.21722" lon="6.31308">
        <ele>580.59997558594</ele>
        <time>2020-02-23T14:27:08Z</time>
      </trkpt>
      <trkpt lat="46.21722" lon="6.31309">
        <ele>581</ele>
        <time>2020-02-23T14:27:09Z</time>
      </trkpt>
      <trkpt lat="46.21721" lon="6.3131">
        <ele>581.20001220703</ele>
        <time>2020-02-23T14:27:10Z</time>
      </trkpt>
      <trkpt lat="46.2172" lon="6.31311">
        <ele>581.59997558594</ele>
        <time>2020-02-23T14:27:11Z</time>
      </trkpt>
      <trkpt lat="46.21719" lon="6.31311">
        <ele>581.79998779297</ele>
        <time>2020-02-23T14:27:12Z</time>
      </trkpt>
      <trkpt lat="46.21718" lon="6.31312">
        <ele>581.79998779297</ele>
        <time>2020-02-23T14:27:13Z</time>
      </trkpt>
      <trkpt lat="46.21717" lon="6.31312">
        <ele>582</ele>
        <time>2020-02-23T14:27:14Z</time>
      </trkpt>
      <trkpt lat="46.21716" lon="6.31313">
        <ele>582.20001220703</ele>
        <time>2020-02-23T14:27:15Z</time>
      </trkpt>
      <trkpt lat="46.21715" lon="6.31313">
        <ele>582.20001220703</ele>
        <time>2020-02-23T14:27:16Z</time>
      </trkpt>
      <trkpt lat="46.21714" lon="6.31314">
        <ele>582.40002441406</ele>
        <time>2020-02-23T14:27:17Z</time>
      </trkpt>
      <trkpt lat="46.21713" lon="6.31314">
        <ele>582.59997558594</ele>
        <time>2020-02-23T14:27:18Z</time>
      </trkpt>
      <trkpt lat="46.21712" lon="6.31314">
        <ele>582.79998779297</ele>
        <time>2020-02-23T14:27:19Z</time>
      </trkpt>
      <trkpt lat="46.21711" lon="6.31315">
        <ele>582.79998779297</ele>
        <time>2020-02-23T14:27:20Z</time>
      </trkpt>
      <trkpt lat="46.2171" lon="6.31316">
        <ele>583.20001220703</ele>
        <time>2020-02-23T14:27:21Z</time>
      </trkpt>
      <trkpt lat="46.2171" lon="6.31316">
        <ele>583.20001220703</ele>
        <time>2020-02-23T14:27:22Z</time>
      </trkpt>
      <trkpt lat="46.21709" lon="6.31316">
        <ele>583.59997558594</ele>
        <time>2020-02-23T14:27:23Z</time>
      </trkpt>
      <trkpt lat="46.21708" lon="6.31317">
        <ele>583.79998779297</ele>
        <time>2020-02-23T14:27:24Z</time>
      </trkpt>
      <trkpt lat="46.21707" lon="6.31318">
        <ele>583.79998779297</ele>
        <time>2020-02-23T14:27:25Z</time>
      </trkpt>
      <trkpt lat="46.21706" lon="6.31318">
        <ele>584</ele>
        <time>2020-02-23T14:27:26Z</time>
      </trkpt>
      <trkpt lat="46.21705" lon="6.31319">
        <ele>584.40002441406</ele>
        <time>2020-02-23T14:27:27Z</time>
      </trkpt>
      <trkpt lat="46.21705" lon="6.31319">
        <ele>584.40002441406</ele>
        <time>2020-02-23T14:27:28Z</time>
      </trkpt>
      <trkpt lat="46.21704" lon="6.31319">
        <ele>584.40002441406</ele>
        <time>2020-02-23T14:27:29Z</time>
      </trkpt>
      <trkpt lat="46.21704" lon="6.31319">
        <ele>584.59997558594</ele>
        <time>2020-02-23T14:27:30Z</time>
      </trkpt>
      <trkpt lat="46.21703" lon="6.31319">
        <ele>585</ele>
        <time>2020-02-23T14:27:31Z</time>
      </trkpt>
      <trkpt lat="46.21702" lon="6.31319">
        <ele>585</ele>
        <time>2020-02-23T14:27:32Z</time>
      </trkpt>
      <trkpt lat="46.21699" lon="6.31319">
        <ele>586.79998779297</ele>
        <time>2020-02-23T14:27:42Z</time>
      </trkpt>
      <trkpt lat="46.21696" lon="6.31319">
        <ele>587</ele>
        <time>2020-02-23T14:27:51Z</time>
      </trkpt>
      <trkpt lat="46.21696" lon="6.31319">
        <ele>586.79998779297</ele>
        <time>2020-02-23T14:27:52Z</time>
      </trkpt>
      <trkpt lat="46.21696" lon="6.31319">
        <ele>586.79998779297</ele>
        <time>2020-02-23T14:27:53Z</time>
      </trkpt>
      <trkpt lat="46.21695" lon="6.3132">
        <ele>587</ele>
        <time>2020-02-23T14:27:54Z</time>
      </trkpt>
      <trkpt lat="46.21695" lon="6.31321">
        <ele>587.20001220703</ele>
        <time>2020-02-23T14:27:55Z</time>
      </trkpt>
      <trkpt lat="46.21694" lon="6.31321">
        <ele>587.20001220703</ele>
        <time>2020-02-23T14:27:56Z</time>
      </trkpt>
      <trkpt lat="46.21693" lon="6.31321">
        <ele>587</ele>
        <time>2020-02-23T14:27:57Z</time>
      </trkpt>
      <trkpt lat="46.21693" lon="6.31322">
        <ele>587.40002441406</ele>
        <time>2020-02-23T14:27:58Z</time>
      </trkpt>
      <trkpt lat="46.21692" lon="6.31322">
        <ele>587.40002441406</ele>
        <time>2020-02-23T14:27:59Z</time>
      </trkpt>
      <trkpt lat="46.21692" lon="6.31322">
        <ele>587.59997558594</ele>
        <time>2020-02-23T14:28:00Z</time>
      </trkpt>
      <trkpt lat="46.21693" lon="6.31323">
        <ele>587.79998779297</ele>
        <time>2020-02-23T14:28:03Z</time>
      </trkpt>
      <trkpt lat="46.21692" lon="6.31322">
        <ele>588.40002441406</ele>
        <time>2020-02-23T14:28:13Z</time>
      </trkpt>
      <trkpt lat="46.21692" lon="6.31322">
        <ele>588.40002441406</ele>
        <time>2020-02-23T14:28:16Z</time>
      </trkpt>
      <trkpt lat="46.2169" lon="6.31326">
        <ele>588.20001220703</ele>
        <time>2020-02-23T14:28:24Z</time>
      </trkpt>
      <trkpt lat="46.21689" lon="6.31327">
        <ele>588.20001220703</ele>
        <time>2020-02-23T14:28:25Z</time>
      </trkpt>
      <trkpt lat="46.21688" lon="6.31328">
        <ele>588.20001220703</ele>
        <time>2020-02-23T14:28:26Z</time>
      </trkpt>
      <trkpt lat="46.21687" lon="6.3133">
        <ele>588.40002441406</ele>
        <time>2020-02-23T14:28:27Z</time>
      </trkpt>
      <trkpt lat="46.21686" lon="6.31331">
        <ele>588.20001220703</ele>
        <time>2020-02-23T14:28:28Z</time>
      </trkpt>
      <trkpt lat="46.21685" lon="6.31332">
        <ele>588.20001220703</ele>
        <time>2020-02-23T14:28:29Z</time>
      </trkpt>
      <trkpt lat="46.21684" lon="6.31334">
        <ele>588.40002441406</ele>
        <time>2020-02-23T14:28:30Z</time>
      </trkpt>
      <trkpt lat="46.21683" lon="6.31335">
        <ele>588.20001220703</ele>
        <time>2020-02-23T14:28:31Z</time>
      </trkpt>
      <trkpt lat="46.21682" lon="6.31337">
        <ele>588.40002441406</ele>
        <time>2020-02-23T14:28:32Z</time>
      </trkpt>
      <trkpt lat="46.21681" lon="6.31337">
        <ele>588.40002441406</ele>
        <time>2020-02-23T14:28:33Z</time>
      </trkpt>
      <trkpt lat="46.2168" lon="6.31337">
        <ele>588.59997558594</ele>
        <time>2020-02-23T14:28:34Z</time>
      </trkpt>
      <trkpt lat="46.2168" lon="6.31337">
        <ele>588.79998779297</ele>
        <time>2020-02-23T14:28:35Z</time>
      </trkpt>
      <trkpt lat="46.21679" lon="6.31337">
        <ele>589</ele>
        <time>2020-02-23T14:28:36Z</time>
      </trkpt>
      <trkpt lat="46.21679" lon="6.31337">
        <ele>589.20001220703</ele>
        <time>2020-02-23T14:28:37Z</time>
      </trkpt>
      <trkpt lat="46.21678" lon="6.31337">
        <ele>590.79998779297</ele>
        <time>2020-02-23T14:28:48Z</time>
      </trkpt>
      <trkpt lat="46.21676" lon="6.31341">
        <ele>590.79998779297</ele>
        <time>2020-02-23T14:29:05Z</time>
      </trkpt>
      <trkpt lat="46.21675" lon="6.31342">
        <ele>591</ele>
        <time>2020-02-23T14:29:06Z</time>
      </trkpt>
      <trkpt lat="46.21675" lon="6.31343">
        <ele>591</ele>
        <time>2020-02-23T14:29:07Z</time>
      </trkpt>
      <trkpt lat="46.21675" lon="6.31344">
        <ele>591</ele>
        <time>2020-02-23T14:29:08Z</time>
      </trkpt>
      <trkpt lat="46.21675" lon="6.31344">
        <ele>590.79998779297</ele>
        <time>2020-02-23T14:29:09Z</time>
      </trkpt>
      <trkpt lat="46.21674" lon="6.31346">
        <ele>591.40002441406</ele>
        <time>2020-02-23T14:29:15Z</time>
      </trkpt>
      <trkpt lat="46.21673" lon="6.31347">
        <ele>592.40002441406</ele>
        <time>2020-02-23T14:29:28Z</time>
      </trkpt>
      <trkpt lat="46.21671" lon="6.31348">
        <ele>592.59997558594</ele>
        <time>2020-02-23T14:29:36Z</time>
      </trkpt>
      <trkpt lat="46.21671" lon="6.31349">
        <ele>592.59997558594</ele>
        <time>2020-02-23T14:29:40Z</time>
      </trkpt>
      <trkpt lat="46.2167" lon="6.3135">
        <ele>593</ele>
        <time>2020-02-23T14:29:51Z</time>
      </trkpt>
      <trkpt lat="46.21669" lon="6.31353">
        <ele>593</ele>
        <time>2020-02-23T14:29:56Z</time>
      </trkpt>
      <trkpt lat="46.21669" lon="6.31354">
        <ele>593.20001220703</ele>
        <time>2020-02-23T14:29:58Z</time>
      </trkpt>
      <trkpt lat="46.21668" lon="6.31354">
        <ele>593.20001220703</ele>
        <time>2020-02-23T14:29:59Z</time>
      </trkpt>
      <trkpt lat="46.21668" lon="6.31354">
        <ele>593.20001220703</ele>
        <time>2020-02-23T14:30:00Z</time>
      </trkpt>
      <trkpt lat="46.21666" lon="6.31352">
        <ele>594</ele>
        <time>2020-02-23T14:30:12Z</time>
      </trkpt>
      <trkpt lat="46.21665" lon="6.31357">
        <ele>594</ele>
        <time>2020-02-23T14:30:26Z</time>
      </trkpt>
      <trkpt lat="46.21664" lon="6.31358">
        <ele>594</ele>
        <time>2020-02-23T14:30:27Z</time>
      </trkpt>
      <trkpt lat="46.21664" lon="6.31358">
        <ele>594</ele>
        <time>2020-02-23T14:30:28Z</time>
      </trkpt>
      <trkpt lat="46.21664" lon="6.31359">
        <ele>594</ele>
        <time>2020-02-23T14:30:29Z</time>
      </trkpt>
      <trkpt lat="46.21663" lon="6.31361">
        <ele>594.59997558594</ele>
        <time>2020-02-23T14:30:34Z</time>
      </trkpt>
      <trkpt lat="46.21661" lon="6.31363">
        <ele>595.59997558594</ele>
        <time>2020-02-23T14:30:39Z</time>
      </trkpt>
      <trkpt lat="46.2166" lon="6.31365">
        <ele>596</ele>
        <time>2020-02-23T14:30:43Z</time>
      </trkpt>
      <trkpt lat="46.2166" lon="6.31366">
        <ele>596</ele>
        <time>2020-02-23T14:30:45Z</time>
      </trkpt>
      <trkpt lat="46.2166" lon="6.31369">
        <ele>596.59997558594</ele>
        <time>2020-02-23T14:30:49Z</time>
      </trkpt>
      <trkpt lat="46.21659" lon="6.31369">
        <ele>596.59997558594</ele>
        <time>2020-02-23T14:30:50Z</time>
      </trkpt>
      <trkpt lat="46.21658" lon="6.31373">
        <ele>597.20001220703</ele>
        <time>2020-02-23T14:31:00Z</time>
      </trkpt>
      <trkpt lat="46.21657" lon="6.31375">
        <ele>597.40002441406</ele>
        <time>2020-02-23T14:31:06Z</time>
      </trkpt>
      <trkpt lat="46.21657" lon="6.31375">
        <ele>597.40002441406</ele>
        <time>2020-02-23T14:31:07Z</time>
      </trkpt>
      <trkpt lat="46.21656" lon="6.31376">
        <ele>597.79998779297</ele>
        <time>2020-02-23T14:31:13Z</time>
      </trkpt>
      <trkpt lat="46.21656" lon="6.31377">
        <ele>598.20001220703</ele>
        <time>2020-02-23T14:31:18Z</time>
      </trkpt>
      <trkpt lat="46.21654" lon="6.31379">
        <ele>598.40002441406</ele>
        <time>2020-02-23T14:31:25Z</time>
      </trkpt>
      <trkpt lat="46.21654" lon="6.31379">
        <ele>598.59997558594</ele>
        <time>2020-02-23T14:31:26Z</time>
      </trkpt>
      <trkpt lat="46.21652" lon="6.31381">
        <ele>599</ele>
        <time>2020-02-23T14:31:35Z</time>
      </trkpt>
      <trkpt lat="46.21652" lon="6.31381">
        <ele>599</ele>
        <time>2020-02-23T14:31:36Z</time>
      </trkpt>
      <trkpt lat="46.21652" lon="6.31381">
        <ele>599.59997558594</ele>
        <time>2020-02-23T14:31:42Z</time>
      </trkpt>
      <trkpt lat="46.21652" lon="6.31379">
        <ele>599.79998779297</ele>
        <time>2020-02-23T14:31:47Z</time>
      </trkpt>
      <trkpt lat="46.21649" lon="6.3138">
        <ele>600.20001220703</ele>
        <time>2020-02-23T14:31:52Z</time>
      </trkpt>
      <trkpt lat="46.21649" lon="6.3138">
        <ele>600.40002441406</ele>
        <time>2020-02-23T14:31:53Z</time>
      </trkpt>
      <trkpt lat="46.21648" lon="6.31381">
        <ele>600.40002441406</ele>
        <time>2020-02-23T14:31:54Z</time>
      </trkpt>
      <trkpt lat="46.21649" lon="6.31382">
        <ele>600.59997558594</ele>
        <time>2020-02-23T14:31:58Z</time>
      </trkpt>
      <trkpt lat="46.21654" lon="6.31384">
        <ele>601.40002441406</ele>
        <time>2020-02-23T14:32:11Z</time>
      </trkpt>
      <trkpt lat="46.21652" lon="6.31383">
        <ele>601.20001220703</ele>
        <time>2020-02-23T14:32:18Z</time>
      </trkpt>
      <trkpt lat="46.21652" lon="6.31382">
        <ele>601.40002441406</ele>
        <time>2020-02-23T14:32:19Z</time>
      </trkpt>
      <trkpt lat="46.21651" lon="6.31381">
        <ele>601.40002441406</ele>
        <time>2020-02-23T14:32:20Z</time>
      </trkpt>
      <trkpt lat="46.21651" lon="6.3138">
        <ele>601.40002441406</ele>
        <time>2020-02-23T14:32:21Z</time>
      </trkpt>
      <trkpt lat="46.2165" lon="6.31379">
        <ele>601.40002441406</ele>
        <time>2020-02-23T14:32:22Z</time>
      </trkpt>
      <trkpt lat="46.2165" lon="6.31379">
        <ele>601.40002441406</ele>
        <time>2020-02-23T14:32:23Z</time>
      </trkpt>
      <trkpt lat="46.21648" lon="6.31377">
        <ele>601.40002441406</ele>
        <time>2020-02-23T14:32:38Z</time>
      </trkpt>
      <trkpt lat="46.21647" lon="6.31376">
        <ele>601.40002441406</ele>
        <time>2020-02-23T14:32:40Z</time>
      </trkpt>
      <trkpt lat="46.21646" lon="6.31375">
        <ele>601.40002441406</ele>
        <time>2020-02-23T14:32:41Z</time>
      </trkpt>
      <trkpt lat="46.21646" lon="6.31373">
        <ele>601.40002441406</ele>
        <time>2020-02-23T14:32:43Z</time>
      </trkpt>
      <trkpt lat="46.21645" lon="6.31373">
        <ele>601.40002441406</ele>
        <time>2020-02-23T14:32:44Z</time>
      </trkpt>
      <trkpt lat="46.21645" lon="6.31372">
        <ele>601.59997558594</ele>
        <time>2020-02-23T14:32:45Z</time>
      </trkpt>
      <trkpt lat="46.21644" lon="6.31372">
        <ele>601.59997558594</ele>
        <time>2020-02-23T14:32:46Z</time>
      </trkpt>
      <trkpt lat="46.21647" lon="6.3137">
        <ele>602.40002441406</ele>
        <time>2020-02-23T14:33:00Z</time>
      </trkpt>
      <trkpt lat="46.21647" lon="6.31367">
        <ele>602.40002441406</ele>
        <time>2020-02-23T14:33:12Z</time>
      </trkpt>
      <trkpt lat="46.21646" lon="6.31368">
        <ele>602.59997558594</ele>
        <time>2020-02-23T14:33:20Z</time>
      </trkpt>
      <trkpt lat="46.21645" lon="6.31367">
        <ele>602.79998779297</ele>
        <time>2020-02-23T14:33:22Z</time>
      </trkpt>
      <trkpt lat="46.21641" lon="6.31368">
        <ele>603.20001220703</ele>
        <time>2020-02-23T14:33:32Z</time>
      </trkpt>
      <trkpt lat="46.2164" lon="6.31367">
        <ele>603.40002441406</ele>
        <time>2020-02-23T14:33:41Z</time>
      </trkpt>
      <trkpt lat="46.21638" lon="6.31366">
        <ele>603.40002441406</ele>
        <time>2020-02-23T14:33:45Z</time>
      </trkpt>
      <trkpt lat="46.21637" lon="6.31365">
        <ele>603.59997558594</ele>
        <time>2020-02-23T14:33:46Z</time>
      </trkpt>
      <trkpt lat="46.21636" lon="6.31365">
        <ele>603.40002441406</ele>
        <time>2020-02-23T14:33:47Z</time>
      </trkpt>
      <trkpt lat="46.21635" lon="6.31365">
        <ele>603.59997558594</ele>
        <time>2020-02-23T14:33:48Z</time>
      </trkpt>
      <trkpt lat="46.21634" lon="6.31365">
        <ele>603.40002441406</ele>
        <time>2020-02-23T14:33:49Z</time>
      </trkpt>
      <trkpt lat="46.21633" lon="6.31365">
        <ele>603.59997558594</ele>
        <time>2020-02-23T14:33:50Z</time>
      </trkpt>
      <trkpt lat="46.21632" lon="6.31365">
        <ele>603.59997558594</ele>
        <time>2020-02-23T14:33:51Z</time>
      </trkpt>
      <trkpt lat="46.21631" lon="6.31365">
        <ele>603.59997558594</ele>
        <time>2020-02-23T14:33:52Z</time>
      </trkpt>
      <trkpt lat="46.2163" lon="6.31365">
        <ele>603.79998779297</ele>
        <time>2020-02-23T14:33:53Z</time>
      </trkpt>
      <trkpt lat="46.21628" lon="6.31365">
        <ele>603.79998779297</ele>
        <time>2020-02-23T14:33:54Z</time>
      </trkpt>
      <trkpt lat="46.21627" lon="6.31365">
        <ele>603.79998779297</ele>
        <time>2020-02-23T14:33:55Z</time>
      </trkpt>
      <trkpt lat="46.21626" lon="6.31365">
        <ele>604.20001220703</ele>
        <time>2020-02-23T14:33:56Z</time>
      </trkpt>
      <trkpt lat="46.21624" lon="6.31364">
        <ele>604.20001220703</ele>
        <time>2020-02-23T14:33:57Z</time>
      </trkpt>
      <trkpt lat="46.21623" lon="6.31364">
        <ele>604.59997558594</ele>
        <time>2020-02-23T14:33:58Z</time>
      </trkpt>
      <trkpt lat="46.21622" lon="6.31363">
        <ele>604.79998779297</ele>
        <time>2020-02-23T14:33:59Z</time>
      </trkpt>
      <trkpt lat="46.21621" lon="6.31363">
        <ele>604.79998779297</ele>
        <time>2020-02-23T14:34:00Z</time>
      </trkpt>
      <trkpt lat="46.2162" lon="6.31362">
        <ele>605.20001220703</ele>
        <time>2020-02-23T14:34:01Z</time>
      </trkpt>
      <trkpt lat="46.21619" lon="6.31361">
        <ele>605.79998779297</ele>
        <time>2020-02-23T14:34:02Z</time>
      </trkpt>
      <trkpt lat="46.21618" lon="6.31361">
        <ele>605.79998779297</ele>
        <time>2020-02-23T14:34:03Z</time>
      </trkpt>
      <trkpt lat="46.21616" lon="6.3136">
        <ele>606</ele>
        <time>2020-02-23T14:34:04Z</time>
      </trkpt>
      <trkpt lat="46.21616" lon="6.31359">
        <ele>606.40002441406</ele>
        <time>2020-02-23T14:34:05Z</time>
      </trkpt>
      <trkpt lat="46.21616" lon="6.31359">
        <ele>606.59997558594</ele>
        <time>2020-02-23T14:34:06Z</time>
      </trkpt>
      <trkpt lat="46.21615" lon="6.31359">
        <ele>607</ele>
        <time>2020-02-23T14:34:07Z</time>
      </trkpt>
      <trkpt lat="46.21615" lon="6.31358">
        <ele>607.59997558594</ele>
        <time>2020-02-23T14:34:10Z</time>
      </trkpt>
      <trkpt lat="46.21613" lon="6.31356">
        <ele>609</ele>
        <time>2020-02-23T14:34:27Z</time>
      </trkpt>
      <trkpt lat="46.21611" lon="6.31355">
        <ele>609</ele>
        <time>2020-02-23T14:34:39Z</time>
      </trkpt>
      <trkpt lat="46.21611" lon="6.31353">
        <ele>609.20001220703</ele>
        <time>2020-02-23T14:34:49Z</time>
      </trkpt>
      <trkpt lat="46.2161" lon="6.31351">
        <ele>609.20001220703</ele>
        <time>2020-02-23T14:34:54Z</time>
      </trkpt>
      <trkpt lat="46.21608" lon="6.31349">
        <ele>609.79998779297</ele>
        <time>2020-02-23T14:35:02Z</time>
      </trkpt>
      <trkpt lat="46.21608" lon="6.31349">
        <ele>610.40002441406</ele>
        <time>2020-02-23T14:35:06Z</time>
      </trkpt>
      <trkpt lat="46.21604" lon="6.31347">
        <ele>611.40002441406</ele>
        <time>2020-02-23T14:35:19Z</time>
      </trkpt>
      <trkpt lat="46.21603" lon="6.31347">
        <ele>611.40002441406</ele>
        <time>2020-02-23T14:35:20Z</time>
      </trkpt>
      <trkpt lat="46.21604" lon="6.31346">
        <ele>611.79998779297</ele>
        <time>2020-02-23T14:35:33Z</time>
      </trkpt>
      <trkpt lat="46.2161" lon="6.31338">
        <ele>611.79998779297</ele>
        <time>2020-02-23T14:35:47Z</time>
      </trkpt>
      <trkpt lat="46.2161" lon="6.31338">
        <ele>611.79998779297</ele>
        <time>2020-02-23T14:35:48Z</time>
      </trkpt>
      <trkpt lat="46.21607" lon="6.31335">
        <ele>611.59997558594</ele>
        <time>2020-02-23T14:35:55Z</time>
      </trkpt>
      <trkpt lat="46.21607" lon="6.31335">
        <ele>611.79998779297</ele>
        <time>2020-02-23T14:35:56Z</time>
      </trkpt>
      <trkpt lat="46.21606" lon="6.31334">
        <ele>611.79998779297</ele>
        <time>2020-02-23T14:35:57Z</time>
      </trkpt>
      <trkpt lat="46.21606" lon="6.31332">
        <ele>611.79998779297</ele>
        <time>2020-02-23T14:35:58Z</time>
      </trkpt>
      <trkpt lat="46.21605" lon="6.31331">
        <ele>611.79998779297</ele>
        <time>2020-02-23T14:35:59Z</time>
      </trkpt>
      <trkpt lat="46.21605" lon="6.3133">
        <ele>612</ele>
        <time>2020-02-23T14:36:00Z</time>
      </trkpt>
      <trkpt lat="46.21604" lon="6.31329">
        <ele>611.79998779297</ele>
        <time>2020-02-23T14:36:01Z</time>
      </trkpt>
      <trkpt lat="46.21604" lon="6.31329">
        <ele>611.79998779297</ele>
        <time>2020-02-23T14:36:02Z</time>
      </trkpt>
      <trkpt lat="46.21603" lon="6.31328">
        <ele>611.79998779297</ele>
        <time>2020-02-23T14:36:03Z</time>
      </trkpt>
      <trkpt lat="46.21601" lon="6.31327">
        <ele>612</ele>
        <time>2020-02-23T14:36:04Z</time>
      </trkpt>
      <trkpt lat="46.21601" lon="6.31327">
        <ele>612.20001220703</ele>
        <time>2020-02-23T14:36:05Z</time>
      </trkpt>
      <trkpt lat="46.216" lon="6.31325">
        <ele>612.59997558594</ele>
        <time>2020-02-23T14:36:06Z</time>
      </trkpt>
      <trkpt lat="46.216" lon="6.31324">
        <ele>613</ele>
        <time>2020-02-23T14:36:07Z</time>
      </trkpt>
      <trkpt lat="46.21599" lon="6.31323">
        <ele>613.20001220703</ele>
        <time>2020-02-23T14:36:08Z</time>
      </trkpt>
      <trkpt lat="46.21598" lon="6.31322">
        <ele>613.40002441406</ele>
        <time>2020-02-23T14:36:09Z</time>
      </trkpt>
      <trkpt lat="46.21598" lon="6.3132">
        <ele>613.59997558594</ele>
        <time>2020-02-23T14:36:10Z</time>
      </trkpt>
      <trkpt lat="46.21597" lon="6.31319">
        <ele>614</ele>
        <time>2020-02-23T14:36:11Z</time>
      </trkpt>
      <trkpt lat="46.21597" lon="6.31318">
        <ele>614.20001220703</ele>
        <time>2020-02-23T14:36:12Z</time>
      </trkpt>
      <trkpt lat="46.21596" lon="6.31316">
        <ele>614.40002441406</ele>
        <time>2020-02-23T14:36:13Z</time>
      </trkpt>
      <trkpt lat="46.21595" lon="6.31315">
        <ele>614.79998779297</ele>
        <time>2020-02-23T14:36:14Z</time>
      </trkpt>
      <trkpt lat="46.21594" lon="6.31314">
        <ele>615</ele>
        <time>2020-02-23T14:36:15Z</time>
      </trkpt>
      <trkpt lat="46.21594" lon="6.31313">
        <ele>615.40002441406</ele>
        <time>2020-02-23T14:36:16Z</time>
      </trkpt>
      <trkpt lat="46.21593" lon="6.31312">
        <ele>615.79998779297</ele>
        <time>2020-02-23T14:36:17Z</time>
      </trkpt>
      <trkpt lat="46.21593" lon="6.3131">
        <ele>615.79998779297</ele>
        <time>2020-02-23T14:36:18Z</time>
      </trkpt>
      <trkpt lat="46.21592" lon="6.31309">
        <ele>616.20001220703</ele>
        <time>2020-02-23T14:36:19Z</time>
      </trkpt>
      <trkpt lat="46.21591" lon="6.31308">
        <ele>616.40002441406</ele>
        <time>2020-02-23T14:36:20Z</time>
      </trkpt>
      <trkpt lat="46.21591" lon="6.31306">
        <ele>616.40002441406</ele>
        <time>2020-02-23T14:36:21Z</time>
      </trkpt>
      <trkpt lat="46.2159" lon="6.31305">
        <ele>616.59997558594</ele>
        <time>2020-02-23T14:36:22Z</time>
      </trkpt>
      <trkpt lat="46.21589" lon="6.31304">
        <ele>616.79998779297</ele>
        <time>2020-02-23T14:36:23Z</time>
      </trkpt>
      <trkpt lat="46.21589" lon="6.31302">
        <ele>617</ele>
        <time>2020-02-23T14:36:24Z</time>
      </trkpt>
      <trkpt lat="46.21588" lon="6.313">
        <ele>617.20001220703</ele>
        <time>2020-02-23T14:36:25Z</time>
      </trkpt>
      <trkpt lat="46.21587" lon="6.313">
        <ele>617.20001220703</ele>
        <time>2020-02-23T14:36:26Z</time>
      </trkpt>
      <trkpt lat="46.21587" lon="6.31299">
        <ele>617.59997558594</ele>
        <time>2020-02-23T14:36:27Z</time>
      </trkpt>
      <trkpt lat="46.21586" lon="6.31297">
        <ele>617.79998779297</ele>
        <time>2020-02-23T14:36:28Z</time>
      </trkpt>
      <trkpt lat="46.21585" lon="6.31296">
        <ele>618</ele>
        <time>2020-02-23T14:36:29Z</time>
      </trkpt>
      <trkpt lat="46.21584" lon="6.31294">
        <ele>618</ele>
        <time>2020-02-23T14:36:30Z</time>
      </trkpt>
      <trkpt lat="46.21583" lon="6.31293">
        <ele>618.40002441406</ele>
        <time>2020-02-23T14:36:31Z</time>
      </trkpt>
      <trkpt lat="46.21582" lon="6.31292">
        <ele>618.59997558594</ele>
        <time>2020-02-23T14:36:32Z</time>
      </trkpt>
      <trkpt lat="46.21582" lon="6.31291">
        <ele>618.79998779297</ele>
        <time>2020-02-23T14:36:33Z</time>
      </trkpt>
      <trkpt lat="46.21581" lon="6.3129">
        <ele>619.20001220703</ele>
        <time>2020-02-23T14:36:34Z</time>
      </trkpt>
      <trkpt lat="46.2158" lon="6.31288">
        <ele>619.59997558594</ele>
        <time>2020-02-23T14:36:35Z</time>
      </trkpt>
      <trkpt lat="46.21579" lon="6.31287">
        <ele>619.79998779297</ele>
        <time>2020-02-23T14:36:36Z</time>
      </trkpt>
      <trkpt lat="46.21578" lon="6.31286">
        <ele>620.40002441406</ele>
        <time>2020-02-23T14:36:37Z</time>
      </trkpt>
      <trkpt lat="46.21577" lon="6.31285">
        <ele>620.59997558594</ele>
        <time>2020-02-23T14:36:38Z</time>
      </trkpt>
      <trkpt lat="46.21576" lon="6.31284">
        <ele>620.59997558594</ele>
        <time>2020-02-23T14:36:39Z</time>
      </trkpt>
      <trkpt lat="46.21575" lon="6.31283">
        <ele>620.79998779297</ele>
        <time>2020-02-23T14:36:40Z</time>
      </trkpt>
      <trkpt lat="46.21574" lon="6.31282">
        <ele>621</ele>
        <time>2020-02-23T14:36:41Z</time>
      </trkpt>
      <trkpt lat="46.21573" lon="6.31281">
        <ele>621.20001220703</ele>
        <time>2020-02-23T14:36:42Z</time>
      </trkpt>
      <trkpt lat="46.21572" lon="6.3128">
        <ele>621.40002441406</ele>
        <time>2020-02-23T14:36:43Z</time>
      </trkpt>
      <trkpt lat="46.21571" lon="6.31279">
        <ele>621.59997558594</ele>
        <time>2020-02-23T14:36:44Z</time>
      </trkpt>
      <trkpt lat="46.2157" lon="6.31278">
        <ele>621.79998779297</ele>
        <time>2020-02-23T14:36:45Z</time>
      </trkpt>
      <trkpt lat="46.21569" lon="6.31277">
        <ele>621.59997558594</ele>
        <time>2020-02-23T14:36:46Z</time>
      </trkpt>
      <trkpt lat="46.21569" lon="6.31277">
        <ele>622</ele>
        <time>2020-02-23T14:36:47Z</time>
      </trkpt>
      <trkpt lat="46.21568" lon="6.31276">
        <ele>622.20001220703</ele>
        <time>2020-02-23T14:36:48Z</time>
      </trkpt>
      <trkpt lat="46.21567" lon="6.31275">
        <ele>622.20001220703</ele>
        <time>2020-02-23T14:36:49Z</time>
      </trkpt>
      <trkpt lat="46.21565" lon="6.31275">
        <ele>622.20001220703</ele>
        <time>2020-02-23T14:36:50Z</time>
      </trkpt>
      <trkpt lat="46.21565" lon="6.31274">
        <ele>622.20001220703</ele>
        <time>2020-02-23T14:36:51Z</time>
      </trkpt>
      <trkpt lat="46.21564" lon="6.31273">
        <ele>622.59997558594</ele>
        <time>2020-02-23T14:36:52Z</time>
      </trkpt>
      <trkpt lat="46.21563" lon="6.31272">
        <ele>622.59997558594</ele>
        <time>2020-02-23T14:36:53Z</time>
      </trkpt>
      <trkpt lat="46.21562" lon="6.31272">
        <ele>622.79998779297</ele>
        <time>2020-02-23T14:36:54Z</time>
      </trkpt>
      <trkpt lat="46.21561" lon="6.31271">
        <ele>623</ele>
        <time>2020-02-23T14:36:55Z</time>
      </trkpt>
      <trkpt lat="46.2156" lon="6.3127">
        <ele>623.40002441406</ele>
        <time>2020-02-23T14:36:56Z</time>
      </trkpt>
      <trkpt lat="46.21559" lon="6.3127">
        <ele>623.59997558594</ele>
        <time>2020-02-23T14:36:57Z</time>
      </trkpt>
      <trkpt lat="46.21558" lon="6.31269">
        <ele>623.79998779297</ele>
        <time>2020-02-23T14:36:58Z</time>
      </trkpt>
      <trkpt lat="46.21558" lon="6.31268">
        <ele>624</ele>
        <time>2020-02-23T14:36:59Z</time>
      </trkpt>
      <trkpt lat="46.21556" lon="6.31267">
        <ele>624.40002441406</ele>
        <time>2020-02-23T14:37:00Z</time>
      </trkpt>
      <trkpt lat="46.21555" lon="6.31266">
        <ele>624.40002441406</ele>
        <time>2020-02-23T14:37:01Z</time>
      </trkpt>
      <trkpt lat="46.21554" lon="6.31266">
        <ele>624.59997558594</ele>
        <time>2020-02-23T14:37:02Z</time>
      </trkpt>
      <trkpt lat="46.21553" lon="6.31266">
        <ele>624.79998779297</ele>
        <time>2020-02-23T14:37:03Z</time>
      </trkpt>
      <trkpt lat="46.21551" lon="6.31266">
        <ele>625</ele>
        <time>2020-02-23T14:37:04Z</time>
      </trkpt>
      <trkpt lat="46.2155" lon="6.31266">
        <ele>625.20001220703</ele>
        <time>2020-02-23T14:37:05Z</time>
      </trkpt>
      <trkpt lat="46.21549" lon="6.31265">
        <ele>625.40002441406</ele>
        <time>2020-02-23T14:37:06Z</time>
      </trkpt>
      <trkpt lat="46.21548" lon="6.31264">
        <ele>625.59997558594</ele>
        <time>2020-02-23T14:37:07Z</time>
      </trkpt>
      <trkpt lat="46.21547" lon="6.31264">
        <ele>626</ele>
        <time>2020-02-23T14:37:08Z</time>
      </trkpt>
      <trkpt lat="46.21546" lon="6.31263">
        <ele>626</ele>
        <time>2020-02-23T14:37:09Z</time>
      </trkpt>
      <trkpt lat="46.21545" lon="6.31263">
        <ele>626.20001220703</ele>
        <time>2020-02-23T14:37:10Z</time>
      </trkpt>
      <trkpt lat="46.21544" lon="6.31263">
        <ele>626.40002441406</ele>
        <time>2020-02-23T14:37:11Z</time>
      </trkpt>
      <trkpt lat="46.21543" lon="6.31262">
        <ele>626.59997558594</ele>
        <time>2020-02-23T14:37:12Z</time>
      </trkpt>
      <trkpt lat="46.2154" lon="6.31261">
        <ele>627</ele>
        <time>2020-02-23T14:37:13Z</time>
      </trkpt>
      <trkpt lat="46.21539" lon="6.3126">
        <ele>627</ele>
        <time>2020-02-23T14:37:14Z</time>
      </trkpt>
      <trkpt lat="46.21537" lon="6.3126">
        <ele>627</ele>
        <time>2020-02-23T14:37:15Z</time>
      </trkpt>
      <trkpt lat="46.21536" lon="6.3126">
        <ele>627.20001220703</ele>
        <time>2020-02-23T14:37:16Z</time>
      </trkpt>
      <trkpt lat="46.21534" lon="6.31259">
        <ele>627.59997558594</ele>
        <time>2020-02-23T14:37:17Z</time>
      </trkpt>
      <trkpt lat="46.21532" lon="6.31258">
        <ele>627.59997558594</ele>
        <time>2020-02-23T14:37:18Z</time>
      </trkpt>
      <trkpt lat="46.21531" lon="6.31258">
        <ele>627.79998779297</ele>
        <time>2020-02-23T14:37:19Z</time>
      </trkpt>
      <trkpt lat="46.2153" lon="6.31257">
        <ele>628</ele>
        <time>2020-02-23T14:37:20Z</time>
      </trkpt>
      <trkpt lat="46.21529" lon="6.31257">
        <ele>628.20001220703</ele>
        <time>2020-02-23T14:37:21Z</time>
      </trkpt>
      <trkpt lat="46.21528" lon="6.31256">
        <ele>628.59997558594</ele>
        <time>2020-02-23T14:37:22Z</time>
      </trkpt>
      <trkpt lat="46.21527" lon="6.31256">
        <ele>628.79998779297</ele>
        <time>2020-02-23T14:37:23Z</time>
      </trkpt>
      <trkpt lat="46.21526" lon="6.31255">
        <ele>629</ele>
        <time>2020-02-23T14:37:24Z</time>
      </trkpt>
      <trkpt lat="46.21525" lon="6.31255">
        <ele>629</ele>
        <time>2020-02-23T14:37:25Z</time>
      </trkpt>
      <trkpt lat="46.21523" lon="6.31255">
        <ele>629.40002441406</ele>
        <time>2020-02-23T14:37:26Z</time>
      </trkpt>
      <trkpt lat="46.21522" lon="6.31254">
        <ele>629.59997558594</ele>
        <time>2020-02-23T14:37:27Z</time>
      </trkpt>
      <trkpt lat="46.21521" lon="6.31254">
        <ele>629.59997558594</ele>
        <time>2020-02-23T14:37:28Z</time>
      </trkpt>
      <trkpt lat="46.2152" lon="6.31254">
        <ele>630</ele>
        <time>2020-02-23T14:37:29Z</time>
      </trkpt>
      <trkpt lat="46.21519" lon="6.31254">
        <ele>630.20001220703</ele>
        <time>2020-02-23T14:37:30Z</time>
      </trkpt>
      <trkpt lat="46.21518" lon="6.31253">
        <ele>630.20001220703</ele>
        <time>2020-02-23T14:37:31Z</time>
      </trkpt>
      <trkpt lat="46.21517" lon="6.31253">
        <ele>630.20001220703</ele>
        <time>2020-02-23T14:37:32Z</time>
      </trkpt>
      <trkpt lat="46.21517" lon="6.31252">
        <ele>630.20001220703</ele>
        <time>2020-02-23T14:37:33Z</time>
      </trkpt>
      <trkpt lat="46.21517" lon="6.31252">
        <ele>630.40002441406</ele>
        <time>2020-02-23T14:37:34Z</time>
      </trkpt>
      <trkpt lat="46.21517" lon="6.31251">
        <ele>630.40002441406</ele>
        <time>2020-02-23T14:37:38Z</time>
      </trkpt>
      <trkpt lat="46.21516" lon="6.31252">
        <ele>630.59997558594</ele>
        <time>2020-02-23T14:37:49Z</time>
      </trkpt>
      <trkpt lat="46.21516" lon="6.31249">
        <ele>630.79998779297</ele>
        <time>2020-02-23T14:37:53Z</time>
      </trkpt>
      <trkpt lat="46.21517" lon="6.31248">
        <ele>630.79998779297</ele>
        <time>2020-02-23T14:37:54Z</time>
      </trkpt>
      <trkpt lat="46.21518" lon="6.31246">
        <ele>630.79998779297</ele>
        <time>2020-02-23T14:37:56Z</time>
      </trkpt>
      <trkpt lat="46.21518" lon="6.31245">
        <ele>630.59997558594</ele>
        <time>2020-02-23T14:37:57Z</time>
      </trkpt>
      <trkpt lat="46.21518" lon="6.31244">
        <ele>630.79998779297</ele>
        <time>2020-02-23T14:37:58Z</time>
      </trkpt>
      <trkpt lat="46.21518" lon="6.31243">
        <ele>630.59997558594</ele>
        <time>2020-02-23T14:37:59Z</time>
      </trkpt>
      <trkpt lat="46.21518" lon="6.31242">
        <ele>630.79998779297</ele>
        <time>2020-02-23T14:38:00Z</time>
      </trkpt>
      <trkpt lat="46.21516" lon="6.31241">
        <ele>630.59997558594</ele>
        <time>2020-02-23T14:38:01Z</time>
      </trkpt>
      <trkpt lat="46.21515" lon="6.31241">
        <ele>630.40002441406</ele>
        <time>2020-02-23T14:38:02Z</time>
      </trkpt>
      <trkpt lat="46.21514" lon="6.3124">
        <ele>630.20001220703</ele>
        <time>2020-02-23T14:38:04Z</time>
      </trkpt>
      <trkpt lat="46.21513" lon="6.31239">
        <ele>630.20001220703</ele>
        <time>2020-02-23T14:38:05Z</time>
      </trkpt>
      <trkpt lat="46.21513" lon="6.31239">
        <ele>630.20001220703</ele>
        <time>2020-02-23T14:38:06Z</time>
      </trkpt>
      <trkpt lat="46.21512" lon="6.3124">
        <ele>630.20001220703</ele>
        <time>2020-02-23T14:38:07Z</time>
      </trkpt>
      <trkpt lat="46.21511" lon="6.3124">
        <ele>630</ele>
        <time>2020-02-23T14:38:08Z</time>
      </trkpt>
      <trkpt lat="46.2151" lon="6.31241">
        <ele>630</ele>
        <time>2020-02-23T14:38:09Z</time>
      </trkpt>
      <trkpt lat="46.2151" lon="6.31241">
        <ele>630</ele>
        <time>2020-02-23T14:38:10Z</time>
      </trkpt>
      <trkpt lat="46.21509" lon="6.31242">
        <ele>629.79998779297</ele>
        <time>2020-02-23T14:38:11Z</time>
      </trkpt>
      <trkpt lat="46.21508" lon="6.31242">
        <ele>630</ele>
        <time>2020-02-23T14:38:12Z</time>
      </trkpt>
      <trkpt lat="46.21507" lon="6.31243">
        <ele>629.79998779297</ele>
        <time>2020-02-23T14:38:14Z</time>
      </trkpt>
      <trkpt lat="46.21506" lon="6.31244">
        <ele>629.79998779297</ele>
        <time>2020-02-23T14:38:15Z</time>
      </trkpt>
      <trkpt lat="46.21505" lon="6.31244">
        <ele>630</ele>
        <time>2020-02-23T14:38:16Z</time>
      </trkpt>
      <trkpt lat="46.21504" lon="6.31243">
        <ele>629.79998779297</ele>
        <time>2020-02-23T14:38:17Z</time>
      </trkpt>
      <trkpt lat="46.21503" lon="6.31243">
        <ele>630</ele>
        <time>2020-02-23T14:38:18Z</time>
      </trkpt>
      <trkpt lat="46.21502" lon="6.31243">
        <ele>630.20001220703</ele>
        <time>2020-02-23T14:38:19Z</time>
      </trkpt>
      <trkpt lat="46.21502" lon="6.31243">
        <ele>630</ele>
        <time>2020-02-23T14:38:20Z</time>
      </trkpt>
      <trkpt lat="46.21501" lon="6.31242">
        <ele>630.20001220703</ele>
        <time>2020-02-23T14:38:21Z</time>
      </trkpt>
      <trkpt lat="46.215" lon="6.31241">
        <ele>630</ele>
        <time>2020-02-23T14:38:22Z</time>
      </trkpt>
      <trkpt lat="46.215" lon="6.31241">
        <ele>630.20001220703</ele>
        <time>2020-02-23T14:38:23Z</time>
      </trkpt>
      <trkpt lat="46.21498" lon="6.3124">
        <ele>630</ele>
        <time>2020-02-23T14:38:25Z</time>
      </trkpt>
      <trkpt lat="46.21498" lon="6.31239">
        <ele>630</ele>
        <time>2020-02-23T14:38:26Z</time>
      </trkpt>
      <trkpt lat="46.21497" lon="6.31239">
        <ele>630</ele>
        <time>2020-02-23T14:38:27Z</time>
      </trkpt>
      <trkpt lat="46.21496" lon="6.31239">
        <ele>630</ele>
        <time>2020-02-23T14:38:28Z</time>
      </trkpt>
      <trkpt lat="46.21496" lon="6.31239">
        <ele>630</ele>
        <time>2020-02-23T14:38:29Z</time>
      </trkpt>
      <trkpt lat="46.21495" lon="6.31238">
        <ele>630</ele>
        <time>2020-02-23T14:38:30Z</time>
      </trkpt>
      <trkpt lat="46.21495" lon="6.31238">
        <ele>630</ele>
        <time>2020-02-23T14:38:31Z</time>
      </trkpt>
      <trkpt lat="46.21493" lon="6.31237">
        <ele>630</ele>
        <time>2020-02-23T14:38:33Z</time>
      </trkpt>
      <trkpt lat="46.21493" lon="6.31236">
        <ele>629.79998779297</ele>
        <time>2020-02-23T14:38:34Z</time>
      </trkpt>
      <trkpt lat="46.21493" lon="6.31235">
        <ele>630</ele>
        <time>2020-02-23T14:38:35Z</time>
      </trkpt>
      <trkpt lat="46.21489" lon="6.31234">
        <ele>629.79998779297</ele>
        <time>2020-02-23T14:38:40Z</time>
      </trkpt>
      <trkpt lat="46.21484" lon="6.31232">
        <ele>629.59997558594</ele>
        <time>2020-02-23T14:38:43Z</time>
      </trkpt>
      <trkpt lat="46.21482" lon="6.31232">
        <ele>629.59997558594</ele>
        <time>2020-02-23T14:38:44Z</time>
      </trkpt>
      <trkpt lat="46.21479" lon="6.31231">
        <ele>629.59997558594</ele>
        <time>2020-02-23T14:38:45Z</time>
      </trkpt>
      <trkpt lat="46.21477" lon="6.31231">
        <ele>629.40002441406</ele>
        <time>2020-02-23T14:38:46Z</time>
      </trkpt>
      <trkpt lat="46.21475" lon="6.31231">
        <ele>629.40002441406</ele>
        <time>2020-02-23T14:38:47Z</time>
      </trkpt>
      <trkpt lat="46.21472" lon="6.31231">
        <ele>629.40002441406</ele>
        <time>2020-02-23T14:38:48Z</time>
      </trkpt>
      <trkpt lat="46.2147" lon="6.31231">
        <ele>629.40002441406</ele>
        <time>2020-02-23T14:38:49Z</time>
      </trkpt>
      <trkpt lat="46.21468" lon="6.31231">
        <ele>629</ele>
        <time>2020-02-23T14:38:50Z</time>
      </trkpt>
      <trkpt lat="46.21467" lon="6.31232">
        <ele>629</ele>
        <time>2020-02-23T14:38:51Z</time>
      </trkpt>
      <trkpt lat="46.21465" lon="6.31232">
        <ele>628.79998779297</ele>
        <time>2020-02-23T14:38:52Z</time>
      </trkpt>
      <trkpt lat="46.21463" lon="6.31232">
        <ele>628.79998779297</ele>
        <time>2020-02-23T14:38:53Z</time>
      </trkpt>
      <trkpt lat="46.2146" lon="6.31233">
        <ele>628.59997558594</ele>
        <time>2020-02-23T14:38:55Z</time>
      </trkpt>
      <trkpt lat="46.21458" lon="6.31233">
        <ele>628.40002441406</ele>
        <time>2020-02-23T14:38:56Z</time>
      </trkpt>
      <trkpt lat="46.21458" lon="6.31233">
        <ele>628.40002441406</ele>
        <time>2020-02-23T14:38:57Z</time>
      </trkpt>
      <trkpt lat="46.21457" lon="6.31233">
        <ele>628.40002441406</ele>
        <time>2020-02-23T14:38:58Z</time>
      </trkpt>
      <trkpt lat="46.21457" lon="6.31233">
        <ele>628.40002441406</ele>
        <time>2020-02-23T14:38:59Z</time>
      </trkpt>
      <trkpt lat="46.21457" lon="6.31232">
        <ele>628.20001220703</ele>
        <time>2020-02-23T14:39:01Z</time>
      </trkpt>
      <trkpt lat="46.21453" lon="6.31232">
        <ele>627.59997558594</ele>
        <time>2020-02-23T14:39:07Z</time>
      </trkpt>
      <trkpt lat="46.21452" lon="6.31232">
        <ele>627.79998779297</ele>
        <time>2020-02-23T14:39:08Z</time>
      </trkpt>
      <trkpt lat="46.21452" lon="6.31232">
        <ele>627.79998779297</ele>
        <time>2020-02-23T14:39:09Z</time>
      </trkpt>
      <trkpt lat="46.21451" lon="6.31232">
        <ele>627.59997558594</ele>
        <time>2020-02-23T14:39:10Z</time>
      </trkpt>
      <trkpt lat="46.21449" lon="6.31233">
        <ele>627.59997558594</ele>
        <time>2020-02-23T14:39:12Z</time>
      </trkpt>
      <trkpt lat="46.21448" lon="6.31233">
        <ele>627.79998779297</ele>
        <time>2020-02-23T14:39:13Z</time>
      </trkpt>
      <trkpt lat="46.21447" lon="6.31232">
        <ele>627.59997558594</ele>
        <time>2020-02-23T14:39:15Z</time>
      </trkpt>
      <trkpt lat="46.21446" lon="6.31231">
        <ele>627.79998779297</ele>
        <time>2020-02-23T14:39:16Z</time>
      </trkpt>
      <trkpt lat="46.21445" lon="6.3123">
        <ele>627.79998779297</ele>
        <time>2020-02-23T14:39:17Z</time>
      </trkpt>
      <trkpt lat="46.21444" lon="6.3123">
        <ele>627.79998779297</ele>
        <time>2020-02-23T14:39:18Z</time>
      </trkpt>
      <trkpt lat="46.21444" lon="6.31231">
        <ele>627.79998779297</ele>
        <time>2020-02-23T14:39:19Z</time>
      </trkpt>
      <trkpt lat="46.21443" lon="6.31231">
        <ele>627.59997558594</ele>
        <time>2020-02-23T14:39:20Z</time>
      </trkpt>
      <trkpt lat="46.21442" lon="6.31232">
        <ele>627.79998779297</ele>
        <time>2020-02-23T14:39:21Z</time>
      </trkpt>
      <trkpt lat="46.21441" lon="6.31231">
        <ele>627.79998779297</ele>
        <time>2020-02-23T14:39:22Z</time>
      </trkpt>
      <trkpt lat="46.2144" lon="6.31232">
        <ele>627.79998779297</ele>
        <time>2020-02-23T14:39:23Z</time>
      </trkpt>
      <trkpt lat="46.21439" lon="6.31233">
        <ele>627.79998779297</ele>
        <time>2020-02-23T14:39:24Z</time>
      </trkpt>
      <trkpt lat="46.21438" lon="6.31233">
        <ele>627.79998779297</ele>
        <time>2020-02-23T14:39:25Z</time>
      </trkpt>
      <trkpt lat="46.21436" lon="6.31235">
        <ele>627.79998779297</ele>
        <time>2020-02-23T14:39:26Z</time>
      </trkpt>
      <trkpt lat="46.21434" lon="6.31236">
        <ele>627.79998779297</ele>
        <time>2020-02-23T14:39:28Z</time>
      </trkpt>
      <trkpt lat="46.21433" lon="6.31236">
        <ele>627.79998779297</ele>
        <time>2020-02-23T14:39:29Z</time>
      </trkpt>
      <trkpt lat="46.21432" lon="6.31236">
        <ele>627.79998779297</ele>
        <time>2020-02-23T14:39:30Z</time>
      </trkpt>
      <trkpt lat="46.21432" lon="6.31236">
        <ele>628</ele>
        <time>2020-02-23T14:39:31Z</time>
      </trkpt>
      <trkpt lat="46.2143" lon="6.31236">
        <ele>627.79998779297</ele>
        <time>2020-02-23T14:39:32Z</time>
      </trkpt>
      <trkpt lat="46.21429" lon="6.31236">
        <ele>627.79998779297</ele>
        <time>2020-02-23T14:39:33Z</time>
      </trkpt>
      <trkpt lat="46.21428" lon="6.31236">
        <ele>627.79998779297</ele>
        <time>2020-02-23T14:39:34Z</time>
      </trkpt>
      <trkpt lat="46.21428" lon="6.31236">
        <ele>628</ele>
        <time>2020-02-23T14:39:35Z</time>
      </trkpt>
      <trkpt lat="46.21427" lon="6.31236">
        <ele>628.20001220703</ele>
        <time>2020-02-23T14:39:36Z</time>
      </trkpt>
      <trkpt lat="46.21425" lon="6.31236">
        <ele>628.40002441406</ele>
        <time>2020-02-23T14:39:42Z</time>
      </trkpt>
      <trkpt lat="46.2142" lon="6.31233">
        <ele>628.59997558594</ele>
        <time>2020-02-23T14:39:53Z</time>
      </trkpt>
      <trkpt lat="46.21419" lon="6.31233">
        <ele>628.59997558594</ele>
        <time>2020-02-23T14:39:55Z</time>
      </trkpt>
      <trkpt lat="46.21418" lon="6.31232">
        <ele>628.59997558594</ele>
        <time>2020-02-23T14:39:56Z</time>
      </trkpt>
      <trkpt lat="46.21417" lon="6.31231">
        <ele>628.59997558594</ele>
        <time>2020-02-23T14:39:59Z</time>
      </trkpt>
      <trkpt lat="46.21416" lon="6.3123">
        <ele>628.79998779297</ele>
        <time>2020-02-23T14:40:00Z</time>
      </trkpt>
      <trkpt lat="46.21413" lon="6.31231">
        <ele>629.20001220703</ele>
        <time>2020-02-23T14:40:08Z</time>
      </trkpt>
      <trkpt lat="46.2141" lon="6.31228">
        <ele>629.20001220703</ele>
        <time>2020-02-23T14:40:13Z</time>
      </trkpt>
      <trkpt lat="46.2141" lon="6.31227">
        <ele>629.40002441406</ele>
        <time>2020-02-23T14:40:14Z</time>
      </trkpt>
      <trkpt lat="46.21408" lon="6.31225">
        <ele>629.40002441406</ele>
        <time>2020-02-23T14:40:16Z</time>
      </trkpt>
      <trkpt lat="46.21408" lon="6.31225">
        <ele>629.40002441406</ele>
        <time>2020-02-23T14:40:17Z</time>
      </trkpt>
      <trkpt lat="46.21407" lon="6.31222">
        <ele>629.79998779297</ele>
        <time>2020-02-23T14:40:20Z</time>
      </trkpt>
      <trkpt lat="46.21406" lon="6.31221">
        <ele>630</ele>
        <time>2020-02-23T14:40:23Z</time>
      </trkpt>
      <trkpt lat="46.21405" lon="6.31215">
        <ele>630.59997558594</ele>
        <time>2020-02-23T14:40:29Z</time>
      </trkpt>
      <trkpt lat="46.21404" lon="6.31215">
        <ele>630.79998779297</ele>
        <time>2020-02-23T14:40:30Z</time>
      </trkpt>
      <trkpt lat="46.21404" lon="6.31214">
        <ele>630.79998779297</ele>
        <time>2020-02-23T14:40:31Z</time>
      </trkpt>
      <trkpt lat="46.21404" lon="6.31211">
        <ele>631</ele>
        <time>2020-02-23T14:40:34Z</time>
      </trkpt>
      <trkpt lat="46.21404" lon="6.3121">
        <ele>631</ele>
        <time>2020-02-23T14:40:35Z</time>
      </trkpt>
      <trkpt lat="46.21404" lon="6.31207">
        <ele>631</ele>
        <time>2020-02-23T14:40:36Z</time>
      </trkpt>
      <trkpt lat="46.21404" lon="6.31204">
        <ele>631</ele>
        <time>2020-02-23T14:40:37Z</time>
      </trkpt>
      <trkpt lat="46.21405" lon="6.31201">
        <ele>630.79998779297</ele>
        <time>2020-02-23T14:40:38Z</time>
      </trkpt>
      <trkpt lat="46.21405" lon="6.31196">
        <ele>631</ele>
        <time>2020-02-23T14:40:39Z</time>
      </trkpt>
      <trkpt lat="46.21404" lon="6.31192">
        <ele>631</ele>
        <time>2020-02-23T14:40:40Z</time>
      </trkpt>
      <trkpt lat="46.21404" lon="6.3119">
        <ele>630.79998779297</ele>
        <time>2020-02-23T14:40:41Z</time>
      </trkpt>
      <trkpt lat="46.21404" lon="6.31189">
        <ele>630.79998779297</ele>
        <time>2020-02-23T14:40:42Z</time>
      </trkpt>
      <trkpt lat="46.21404" lon="6.31187">
        <ele>630.79998779297</ele>
        <time>2020-02-23T14:40:43Z</time>
      </trkpt>
      <trkpt lat="46.21404" lon="6.31186">
        <ele>630.79998779297</ele>
        <time>2020-02-23T14:40:44Z</time>
      </trkpt>
      <trkpt lat="46.21404" lon="6.31184">
        <ele>630.59997558594</ele>
        <time>2020-02-23T14:40:45Z</time>
      </trkpt>
      <trkpt lat="46.21404" lon="6.31182">
        <ele>630.20001220703</ele>
        <time>2020-02-23T14:40:46Z</time>
      </trkpt>
      <trkpt lat="46.21405" lon="6.31179">
        <ele>630.20001220703</ele>
        <time>2020-02-23T14:40:48Z</time>
      </trkpt>
      <trkpt lat="46.21405" lon="6.31178">
        <ele>630</ele>
        <time>2020-02-23T14:40:49Z</time>
      </trkpt>
      <trkpt lat="46.21405" lon="6.31177">
        <ele>629.79998779297</ele>
        <time>2020-02-23T14:40:50Z</time>
      </trkpt>
      <trkpt lat="46.21405" lon="6.31176">
        <ele>629.79998779297</ele>
        <time>2020-02-23T14:40:52Z</time>
      </trkpt>
      <trkpt lat="46.21406" lon="6.31169">
        <ele>629.79998779297</ele>
        <time>2020-02-23T14:41:01Z</time>
      </trkpt>
      <trkpt lat="46.21409" lon="6.31164">
        <ele>629.59997558594</ele>
        <time>2020-02-23T14:41:03Z</time>
      </trkpt>
      <trkpt lat="46.21409" lon="6.31161">
        <ele>629.79998779297</ele>
        <time>2020-02-23T14:41:04Z</time>
      </trkpt>
      <trkpt lat="46.21409" lon="6.31158">
        <ele>629.59997558594</ele>
        <time>2020-02-23T14:41:05Z</time>
      </trkpt>
      <trkpt lat="46.2141" lon="6.31156">
        <ele>629.79998779297</ele>
        <time>2020-02-23T14:41:06Z</time>
      </trkpt>
      <trkpt lat="46.21412" lon="6.31152">
        <ele>629.59997558594</ele>
        <time>2020-02-23T14:41:07Z</time>
      </trkpt>
      <trkpt lat="46.21414" lon="6.31149">
        <ele>629.59997558594</ele>
        <time>2020-02-23T14:41:08Z</time>
      </trkpt>
      <trkpt lat="46.21416" lon="6.31142">
        <ele>629.40002441406</ele>
        <time>2020-02-23T14:41:10Z</time>
      </trkpt>
      <trkpt lat="46.21416" lon="6.31139">
        <ele>629.20001220703</ele>
        <time>2020-02-23T14:41:11Z</time>
      </trkpt>
      <trkpt lat="46.21416" lon="6.31137">
        <ele>629</ele>
        <time>2020-02-23T14:41:12Z</time>
      </trkpt>
      <trkpt lat="46.21416" lon="6.31135">
        <ele>628.79998779297</ele>
        <time>2020-02-23T14:41:13Z</time>
      </trkpt>
      <trkpt lat="46.21417" lon="6.31133">
        <ele>628.40002441406</ele>
        <time>2020-02-23T14:41:14Z</time>
      </trkpt>
      <trkpt lat="46.21417" lon="6.31131">
        <ele>628</ele>
        <time>2020-02-23T14:41:15Z</time>
      </trkpt>
      <trkpt lat="46.21417" lon="6.31128">
        <ele>627.59997558594</ele>
        <time>2020-02-23T14:41:16Z</time>
      </trkpt>
      <trkpt lat="46.21417" lon="6.31126">
        <ele>627.40002441406</ele>
        <time>2020-02-23T14:41:17Z</time>
      </trkpt>
      <trkpt lat="46.21417" lon="6.31124">
        <ele>627.40002441406</ele>
        <time>2020-02-23T14:41:18Z</time>
      </trkpt>
      <trkpt lat="46.21418" lon="6.31122">
        <ele>627.40002441406</ele>
        <time>2020-02-23T14:41:19Z</time>
      </trkpt>
      <trkpt lat="46.21418" lon="6.3112">
        <ele>627.40002441406</ele>
        <time>2020-02-23T14:41:20Z</time>
      </trkpt>
      <trkpt lat="46.21419" lon="6.31118">
        <ele>627.20001220703</ele>
        <time>2020-02-23T14:41:21Z</time>
      </trkpt>
      <trkpt lat="46.2142" lon="6.31116">
        <ele>627.20001220703</ele>
        <time>2020-02-23T14:41:23Z</time>
      </trkpt>
      <trkpt lat="46.2142" lon="6.31115">
        <ele>627.20001220703</ele>
        <time>2020-02-23T14:41:24Z</time>
      </trkpt>
      <trkpt lat="46.21421" lon="6.31108">
        <ele>627.20001220703</ele>
        <time>2020-02-23T14:41:29Z</time>
      </trkpt>
      <trkpt lat="46.21422" lon="6.31104">
        <ele>627.20001220703</ele>
        <time>2020-02-23T14:41:32Z</time>
      </trkpt>
      <trkpt lat="46.21423" lon="6.31102">
        <ele>627</ele>
        <time>2020-02-23T14:41:33Z</time>
      </trkpt>
      <trkpt lat="46.21423" lon="6.31101">
        <ele>627</ele>
        <time>2020-02-23T14:41:34Z</time>
      </trkpt>
      <trkpt lat="46.21423" lon="6.31099">
        <ele>627</ele>
        <time>2020-02-23T14:41:35Z</time>
      </trkpt>
      <trkpt lat="46.21423" lon="6.31097">
        <ele>627</ele>
        <time>2020-02-23T14:41:36Z</time>
      </trkpt>
      <trkpt lat="46.21421" lon="6.31093">
        <ele>626.79998779297</ele>
        <time>2020-02-23T14:41:38Z</time>
      </trkpt>
      <trkpt lat="46.2142" lon="6.31091">
        <ele>626.79998779297</ele>
        <time>2020-02-23T14:41:39Z</time>
      </trkpt>
      <trkpt lat="46.21419" lon="6.31087">
        <ele>626.79998779297</ele>
        <time>2020-02-23T14:41:41Z</time>
      </trkpt>
      <trkpt lat="46.21418" lon="6.31085">
        <ele>626.79998779297</ele>
        <time>2020-02-23T14:41:42Z</time>
      </trkpt>
      <trkpt lat="46.21418" lon="6.31084">
        <ele>626.79998779297</ele>
        <time>2020-02-23T14:41:43Z</time>
      </trkpt>
      <trkpt lat="46.21418" lon="6.31082">
        <ele>626.79998779297</ele>
        <time>2020-02-23T14:41:44Z</time>
      </trkpt>
      <trkpt lat="46.21418" lon="6.3108">
        <ele>626.79998779297</ele>
        <time>2020-02-23T14:41:45Z</time>
      </trkpt>
      <trkpt lat="46.21417" lon="6.31077">
        <ele>626.79998779297</ele>
        <time>2020-02-23T14:41:47Z</time>
      </trkpt>
      <trkpt lat="46.21416" lon="6.31075">
        <ele>626.59997558594</ele>
        <time>2020-02-23T14:41:48Z</time>
      </trkpt>
      <trkpt lat="46.21416" lon="6.31073">
        <ele>626.79998779297</ele>
        <time>2020-02-23T14:41:49Z</time>
      </trkpt>
      <trkpt lat="46.21415" lon="6.31071">
        <ele>626.59997558594</ele>
        <time>2020-02-23T14:41:50Z</time>
      </trkpt>
      <trkpt lat="46.21415" lon="6.31069">
        <ele>626.79998779297</ele>
        <time>2020-02-23T14:41:51Z</time>
      </trkpt>
      <trkpt lat="46.21414" lon="6.31067">
        <ele>626.59997558594</ele>
        <time>2020-02-23T14:41:52Z</time>
      </trkpt>
      <trkpt lat="46.21413" lon="6.31065">
        <ele>626.59997558594</ele>
        <time>2020-02-23T14:41:53Z</time>
      </trkpt>
      <trkpt lat="46.21413" lon="6.31063">
        <ele>626.59997558594</ele>
        <time>2020-02-23T14:41:54Z</time>
      </trkpt>
      <trkpt lat="46.21413" lon="6.31061">
        <ele>626.59997558594</ele>
        <time>2020-02-23T14:41:55Z</time>
      </trkpt>
      <trkpt lat="46.21412" lon="6.3106">
        <ele>626.59997558594</ele>
        <time>2020-02-23T14:41:56Z</time>
      </trkpt>
      <trkpt lat="46.21412" lon="6.31058">
        <ele>626.59997558594</ele>
        <time>2020-02-23T14:41:57Z</time>
      </trkpt>
      <trkpt lat="46.21412" lon="6.31057">
        <ele>626.79998779297</ele>
        <time>2020-02-23T14:41:58Z</time>
      </trkpt>
      <trkpt lat="46.21411" lon="6.31055">
        <ele>626.59997558594</ele>
        <time>2020-02-23T14:41:59Z</time>
      </trkpt>
      <trkpt lat="46.21411" lon="6.31052">
        <ele>626.79998779297</ele>
        <time>2020-02-23T14:42:00Z</time>
      </trkpt>
      <trkpt lat="46.2141" lon="6.3105">
        <ele>626.59997558594</ele>
        <time>2020-02-23T14:42:01Z</time>
      </trkpt>
      <trkpt lat="46.2141" lon="6.31047">
        <ele>626.59997558594</ele>
        <time>2020-02-23T14:42:02Z</time>
      </trkpt>
      <trkpt lat="46.21409" lon="6.31044">
        <ele>626.59997558594</ele>
        <time>2020-02-23T14:42:03Z</time>
      </trkpt>
      <trkpt lat="46.21408" lon="6.31041">
        <ele>626.59997558594</ele>
        <time>2020-02-23T14:42:04Z</time>
      </trkpt>
      <trkpt lat="46.21408" lon="6.31038">
        <ele>626.59997558594</ele>
        <time>2020-02-23T14:42:05Z</time>
      </trkpt>
      <trkpt lat="46.21407" lon="6.31035">
        <ele>626.40002441406</ele>
        <time>2020-02-23T14:42:06Z</time>
      </trkpt>
      <trkpt lat="46.21406" lon="6.31032">
        <ele>626.59997558594</ele>
        <time>2020-02-23T14:42:07Z</time>
      </trkpt>
      <trkpt lat="46.21405" lon="6.31029">
        <ele>626.59997558594</ele>
        <time>2020-02-23T14:42:08Z</time>
      </trkpt>
      <trkpt lat="46.21405" lon="6.31027">
        <ele>626.59997558594</ele>
        <time>2020-02-23T14:42:09Z</time>
      </trkpt>
      <trkpt lat="46.21404" lon="6.31025">
        <ele>626.59997558594</ele>
        <time>2020-02-23T14:42:10Z</time>
      </trkpt>
      <trkpt lat="46.21403" lon="6.31023">
        <ele>626.59997558594</ele>
        <time>2020-02-23T14:42:11Z</time>
      </trkpt>
      <trkpt lat="46.21402" lon="6.31022">
        <ele>626.59997558594</ele>
        <time>2020-02-23T14:42:12Z</time>
      </trkpt>
      <trkpt lat="46.21402" lon="6.3102">
        <ele>626.20001220703</ele>
        <time>2020-02-23T14:42:13Z</time>
      </trkpt>
      <trkpt lat="46.214" lon="6.31015">
        <ele>626.20001220703</ele>
        <time>2020-02-23T14:42:15Z</time>
      </trkpt>
      <trkpt lat="46.214" lon="6.31013">
        <ele>626</ele>
        <time>2020-02-23T14:42:16Z</time>
      </trkpt>
      <trkpt lat="46.21399" lon="6.31011">
        <ele>626</ele>
        <time>2020-02-23T14:42:17Z</time>
      </trkpt>
      <trkpt lat="46.21398" lon="6.31009">
        <ele>626</ele>
        <time>2020-02-23T14:42:18Z</time>
      </trkpt>
      <trkpt lat="46.21397" lon="6.31008">
        <ele>626</ele>
        <time>2020-02-23T14:42:19Z</time>
      </trkpt>
      <trkpt lat="46.21396" lon="6.31006">
        <ele>626</ele>
        <time>2020-02-23T14:42:20Z</time>
      </trkpt>
      <trkpt lat="46.21395" lon="6.31005">
        <ele>626.20001220703</ele>
        <time>2020-02-23T14:42:21Z</time>
      </trkpt>
      <trkpt lat="46.21394" lon="6.31004">
        <ele>626</ele>
        <time>2020-02-23T14:42:22Z</time>
      </trkpt>
      <trkpt lat="46.21392" lon="6.31003">
        <ele>626</ele>
        <time>2020-02-23T14:42:23Z</time>
      </trkpt>
      <trkpt lat="46.21391" lon="6.31002">
        <ele>626</ele>
        <time>2020-02-23T14:42:24Z</time>
      </trkpt>
      <trkpt lat="46.2139" lon="6.31001">
        <ele>626.20001220703</ele>
        <time>2020-02-23T14:42:25Z</time>
      </trkpt>
      <trkpt lat="46.21388" lon="6.31">
        <ele>626.20001220703</ele>
        <time>2020-02-23T14:42:26Z</time>
      </trkpt>
      <trkpt lat="46.21387" lon="6.30998">
        <ele>626</ele>
        <time>2020-02-23T14:42:27Z</time>
      </trkpt>
      <trkpt lat="46.21386" lon="6.30997">
        <ele>626</ele>
        <time>2020-02-23T14:42:28Z</time>
      </trkpt>
      <trkpt lat="46.21385" lon="6.30996">
        <ele>626.20001220703</ele>
        <time>2020-02-23T14:42:29Z</time>
      </trkpt>
      <trkpt lat="46.21384" lon="6.30995">
        <ele>626</ele>
        <time>2020-02-23T14:42:30Z</time>
      </trkpt>
      <trkpt lat="46.21382" lon="6.30994">
        <ele>626.20001220703</ele>
        <time>2020-02-23T14:42:31Z</time>
      </trkpt>
      <trkpt lat="46.21379" lon="6.30991">
        <ele>626.20001220703</ele>
        <time>2020-02-23T14:42:33Z</time>
      </trkpt>
      <trkpt lat="46.21377" lon="6.3099">
        <ele>626</ele>
        <time>2020-02-23T14:42:34Z</time>
      </trkpt>
      <trkpt lat="46.21375" lon="6.30989">
        <ele>626</ele>
        <time>2020-02-23T14:42:35Z</time>
      </trkpt>
      <trkpt lat="46.21374" lon="6.30989">
        <ele>626</ele>
        <time>2020-02-23T14:42:36Z</time>
      </trkpt>
      <trkpt lat="46.21371" lon="6.30987">
        <ele>625.79998779297</ele>
        <time>2020-02-23T14:42:37Z</time>
      </trkpt>
      <trkpt lat="46.21369" lon="6.30986">
        <ele>626</ele>
        <time>2020-02-23T14:42:38Z</time>
      </trkpt>
      <trkpt lat="46.21367" lon="6.30985">
        <ele>626</ele>
        <time>2020-02-23T14:42:39Z</time>
      </trkpt>
      <trkpt lat="46.21365" lon="6.30984">
        <ele>626</ele>
        <time>2020-02-23T14:42:40Z</time>
      </trkpt>
      <trkpt lat="46.21364" lon="6.30983">
        <ele>625.79998779297</ele>
        <time>2020-02-23T14:42:41Z</time>
      </trkpt>
      <trkpt lat="46.21364" lon="6.30982">
        <ele>625.79998779297</ele>
        <time>2020-02-23T14:42:42Z</time>
      </trkpt>
      <trkpt lat="46.21363" lon="6.30982">
        <ele>626</ele>
        <time>2020-02-23T14:42:43Z</time>
      </trkpt>
      <trkpt lat="46.21362" lon="6.30981">
        <ele>625.79998779297</ele>
        <time>2020-02-23T14:42:44Z</time>
      </trkpt>
      <trkpt lat="46.21362" lon="6.30979">
        <ele>625.79998779297</ele>
        <time>2020-02-23T14:42:45Z</time>
      </trkpt>
      <trkpt lat="46.2136" lon="6.30977">
        <ele>625.79998779297</ele>
        <time>2020-02-23T14:42:46Z</time>
      </trkpt>
      <trkpt lat="46.21359" lon="6.30975">
        <ele>626</ele>
        <time>2020-02-23T14:42:47Z</time>
      </trkpt>
      <trkpt lat="46.21356" lon="6.3097">
        <ele>626.20001220703</ele>
        <time>2020-02-23T14:42:50Z</time>
      </trkpt>
      <trkpt lat="46.21354" lon="6.30969">
        <ele>626</ele>
        <time>2020-02-23T14:42:51Z</time>
      </trkpt>
      <trkpt lat="46.21352" lon="6.30968">
        <ele>626.20001220703</ele>
        <time>2020-02-23T14:42:52Z</time>
      </trkpt>
      <trkpt lat="46.21349" lon="6.30966">
        <ele>626.40002441406</ele>
        <time>2020-02-23T14:42:54Z</time>
      </trkpt>
      <trkpt lat="46.21348" lon="6.30966">
        <ele>626.40002441406</ele>
        <time>2020-02-23T14:42:55Z</time>
      </trkpt>
      <trkpt lat="46.21346" lon="6.30965">
        <ele>626.40002441406</ele>
        <time>2020-02-23T14:42:56Z</time>
      </trkpt>
      <trkpt lat="46.21345" lon="6.30964">
        <ele>626.20001220703</ele>
        <time>2020-02-23T14:42:57Z</time>
      </trkpt>
      <trkpt lat="46.21343" lon="6.30963">
        <ele>626.40002441406</ele>
        <time>2020-02-23T14:42:58Z</time>
      </trkpt>
      <trkpt lat="46.21341" lon="6.30962">
        <ele>626.40002441406</ele>
        <time>2020-02-23T14:42:59Z</time>
      </trkpt>
      <trkpt lat="46.21339" lon="6.30961">
        <ele>626.59997558594</ele>
        <time>2020-02-23T14:43:00Z</time>
      </trkpt>
      <trkpt lat="46.21337" lon="6.3096">
        <ele>626.40002441406</ele>
        <time>2020-02-23T14:43:01Z</time>
      </trkpt>
      <trkpt lat="46.21335" lon="6.30959">
        <ele>626.59997558594</ele>
        <time>2020-02-23T14:43:02Z</time>
      </trkpt>
      <trkpt lat="46.21334" lon="6.30958">
        <ele>626.40002441406</ele>
        <time>2020-02-23T14:43:03Z</time>
      </trkpt>
      <trkpt lat="46.21332" lon="6.30958">
        <ele>626.40002441406</ele>
        <time>2020-02-23T14:43:04Z</time>
      </trkpt>
      <trkpt lat="46.2133" lon="6.30956">
        <ele>626.59997558594</ele>
        <time>2020-02-23T14:43:05Z</time>
      </trkpt>
      <trkpt lat="46.21326" lon="6.30951">
        <ele>626.79998779297</ele>
        <time>2020-02-23T14:43:08Z</time>
      </trkpt>
      <trkpt lat="46.21325" lon="6.3095">
        <ele>627</ele>
        <time>2020-02-23T14:43:09Z</time>
      </trkpt>
      <trkpt lat="46.21324" lon="6.30949">
        <ele>627.20001220703</ele>
        <time>2020-02-23T14:43:10Z</time>
      </trkpt>
      <trkpt lat="46.21323" lon="6.30947">
        <ele>627.40002441406</ele>
        <time>2020-02-23T14:43:11Z</time>
      </trkpt>
      <trkpt lat="46.21322" lon="6.30946">
        <ele>627.40002441406</ele>
        <time>2020-02-23T14:43:12Z</time>
      </trkpt>
      <trkpt lat="46.2132" lon="6.30944">
        <ele>627.20001220703</ele>
        <time>2020-02-23T14:43:13Z</time>
      </trkpt>
      <trkpt lat="46.21317" lon="6.30941">
        <ele>627.59997558594</ele>
        <time>2020-02-23T14:43:15Z</time>
      </trkpt>
      <trkpt lat="46.21315" lon="6.30938">
        <ele>627.59997558594</ele>
        <time>2020-02-23T14:43:17Z</time>
      </trkpt>
      <trkpt lat="46.21313" lon="6.30937">
        <ele>627.59997558594</ele>
        <time>2020-02-23T14:43:18Z</time>
      </trkpt>
      <trkpt lat="46.21311" lon="6.30936">
        <ele>627.59997558594</ele>
        <time>2020-02-23T14:43:19Z</time>
      </trkpt>
      <trkpt lat="46.21309" lon="6.30934">
        <ele>627.79998779297</ele>
        <time>2020-02-23T14:43:21Z</time>
      </trkpt>
      <trkpt lat="46.21308" lon="6.30932">
        <ele>627.59997558594</ele>
        <time>2020-02-23T14:43:22Z</time>
      </trkpt>
      <trkpt lat="46.21307" lon="6.30929">
        <ele>627.59997558594</ele>
        <time>2020-02-23T14:43:23Z</time>
      </trkpt>
      <trkpt lat="46.21307" lon="6.30927">
        <ele>627.59997558594</ele>
        <time>2020-02-23T14:43:24Z</time>
      </trkpt>
      <trkpt lat="46.21306" lon="6.30925">
        <ele>627.79998779297</ele>
        <time>2020-02-23T14:43:25Z</time>
      </trkpt>
      <trkpt lat="46.21306" lon="6.30922">
        <ele>627.79998779297</ele>
        <time>2020-02-23T14:43:26Z</time>
      </trkpt>
      <trkpt lat="46.21306" lon="6.3092">
        <ele>627.79998779297</ele>
        <time>2020-02-23T14:43:27Z</time>
      </trkpt>
      <trkpt lat="46.21307" lon="6.30917">
        <ele>627.59997558594</ele>
        <time>2020-02-23T14:43:28Z</time>
      </trkpt>
      <trkpt lat="46.21308" lon="6.30913">
        <ele>627.79998779297</ele>
        <time>2020-02-23T14:43:29Z</time>
      </trkpt>
      <trkpt lat="46.21309" lon="6.3091">
        <ele>627.59997558594</ele>
        <time>2020-02-23T14:43:30Z</time>
      </trkpt>
      <trkpt lat="46.21309" lon="6.30906">
        <ele>627.59997558594</ele>
        <time>2020-02-23T14:43:31Z</time>
      </trkpt>
      <trkpt lat="46.2131" lon="6.30898">
        <ele>627.40002441406</ele>
        <time>2020-02-23T14:43:33Z</time>
      </trkpt>
      <trkpt lat="46.2131" lon="6.30894">
        <ele>627.20001220703</ele>
        <time>2020-02-23T14:43:34Z</time>
      </trkpt>
      <trkpt lat="46.21308" lon="6.3089">
        <ele>627</ele>
        <time>2020-02-23T14:43:35Z</time>
      </trkpt>
      <trkpt lat="46.21307" lon="6.30887">
        <ele>626.79998779297</ele>
        <time>2020-02-23T14:43:36Z</time>
      </trkpt>
      <trkpt lat="46.21305" lon="6.30885">
        <ele>626.79998779297</ele>
        <time>2020-02-23T14:43:37Z</time>
      </trkpt>
      <trkpt lat="46.21303" lon="6.30883">
        <ele>626.59997558594</ele>
        <time>2020-02-23T14:43:38Z</time>
      </trkpt>
      <trkpt lat="46.21299" lon="6.30883">
        <ele>625.79998779297</ele>
        <time>2020-02-23T14:43:39Z</time>
      </trkpt>
      <trkpt lat="46.21296" lon="6.30882">
        <ele>625.59997558594</ele>
        <time>2020-02-23T14:43:40Z</time>
      </trkpt>
      <trkpt lat="46.21294" lon="6.30882">
        <ele>625.20001220703</ele>
        <time>2020-02-23T14:43:41Z</time>
      </trkpt>
      <trkpt lat="46.21291" lon="6.30881">
        <ele>625.20001220703</ele>
        <time>2020-02-23T14:43:42Z</time>
      </trkpt>
      <trkpt lat="46.21289" lon="6.3088">
        <ele>624.79998779297</ele>
        <time>2020-02-23T14:43:43Z</time>
      </trkpt>
      <trkpt lat="46.21288" lon="6.30879">
        <ele>624.59997558594</ele>
        <time>2020-02-23T14:43:44Z</time>
      </trkpt>
      <trkpt lat="46.21281" lon="6.30873">
        <ele>624</ele>
        <time>2020-02-23T14:43:53Z</time>
      </trkpt>
      <trkpt lat="46.2128" lon="6.30871">
        <ele>624</ele>
        <time>2020-02-23T14:43:54Z</time>
      </trkpt>
      <trkpt lat="46.21279" lon="6.3087">
        <ele>623.79998779297</ele>
        <time>2020-02-23T14:43:55Z</time>
      </trkpt>
      <trkpt lat="46.21279" lon="6.30869">
        <ele>623.79998779297</ele>
        <time>2020-02-23T14:43:56Z</time>
      </trkpt>
      <trkpt lat="46.21278" lon="6.30869">
        <ele>624</ele>
        <time>2020-02-23T14:43:57Z</time>
      </trkpt>
      <trkpt lat="46.21277" lon="6.30869">
        <ele>623.79998779297</ele>
        <time>2020-02-23T14:43:58Z</time>
      </trkpt>
      <trkpt lat="46.21276" lon="6.30868">
        <ele>624</ele>
        <time>2020-02-23T14:43:59Z</time>
      </trkpt>
      <trkpt lat="46.21275" lon="6.30867">
        <ele>624.20001220703</ele>
        <time>2020-02-23T14:44:00Z</time>
      </trkpt>
      <trkpt lat="46.21275" lon="6.30866">
        <ele>624.20001220703</ele>
        <time>2020-02-23T14:44:01Z</time>
      </trkpt>
      <trkpt lat="46.21272" lon="6.30864">
        <ele>624.40002441406</ele>
        <time>2020-02-23T14:44:04Z</time>
      </trkpt>
      <trkpt lat="46.21271" lon="6.30863">
        <ele>624.40002441406</ele>
        <time>2020-02-23T14:44:05Z</time>
      </trkpt>
      <trkpt lat="46.21269" lon="6.30861">
        <ele>624.40002441406</ele>
        <time>2020-02-23T14:44:06Z</time>
      </trkpt>
      <trkpt lat="46.21268" lon="6.3086">
        <ele>624.40002441406</ele>
        <time>2020-02-23T14:44:07Z</time>
      </trkpt>
      <trkpt lat="46.21267" lon="6.30859">
        <ele>624.20001220703</ele>
        <time>2020-02-23T14:44:08Z</time>
      </trkpt>
      <trkpt lat="46.21266" lon="6.30857">
        <ele>624.20001220703</ele>
        <time>2020-02-23T14:44:09Z</time>
      </trkpt>
      <trkpt lat="46.21265" lon="6.30856">
        <ele>624.40002441406</ele>
        <time>2020-02-23T14:44:10Z</time>
      </trkpt>
      <trkpt lat="46.21264" lon="6.30855">
        <ele>624.20001220703</ele>
        <time>2020-02-23T14:44:11Z</time>
      </trkpt>
      <trkpt lat="46.21263" lon="6.30854">
        <ele>624</ele>
        <time>2020-02-23T14:44:12Z</time>
      </trkpt>
      <trkpt lat="46.21262" lon="6.30852">
        <ele>624.20001220703</ele>
        <time>2020-02-23T14:44:13Z</time>
      </trkpt>
      <trkpt lat="46.21261" lon="6.3085">
        <ele>624</ele>
        <time>2020-02-23T14:44:14Z</time>
      </trkpt>
      <trkpt lat="46.2126" lon="6.30849">
        <ele>623.79998779297</ele>
        <time>2020-02-23T14:44:15Z</time>
      </trkpt>
      <trkpt lat="46.21258" lon="6.30847">
        <ele>623.40002441406</ele>
        <time>2020-02-23T14:44:17Z</time>
      </trkpt>
      <trkpt lat="46.21257" lon="6.30845">
        <ele>623.40002441406</ele>
        <time>2020-02-23T14:44:18Z</time>
      </trkpt>
      <trkpt lat="46.21257" lon="6.30844">
        <ele>623.40002441406</ele>
        <time>2020-02-23T14:44:19Z</time>
      </trkpt>
      <trkpt lat="46.21257" lon="6.30841">
        <ele>623.20001220703</ele>
        <time>2020-02-23T14:44:20Z</time>
      </trkpt>
      <trkpt lat="46.21257" lon="6.30839">
        <ele>623.40002441406</ele>
        <time>2020-02-23T14:44:21Z</time>
      </trkpt>
      <trkpt lat="46.21257" lon="6.30837">
        <ele>623.20001220703</ele>
        <time>2020-02-23T14:44:22Z</time>
      </trkpt>
      <trkpt lat="46.21258" lon="6.30831">
        <ele>623.20001220703</ele>
        <time>2020-02-23T14:44:25Z</time>
      </trkpt>
      <trkpt lat="46.21258" lon="6.30829">
        <ele>623.20001220703</ele>
        <time>2020-02-23T14:44:26Z</time>
      </trkpt>
      <trkpt lat="46.21258" lon="6.30827">
        <ele>623</ele>
        <time>2020-02-23T14:44:27Z</time>
      </trkpt>
      <trkpt lat="46.21257" lon="6.30825">
        <ele>623.20001220703</ele>
        <time>2020-02-23T14:44:28Z</time>
      </trkpt>
      <trkpt lat="46.21257" lon="6.30823">
        <ele>623</ele>
        <time>2020-02-23T14:44:29Z</time>
      </trkpt>
      <trkpt lat="46.21257" lon="6.30822">
        <ele>623</ele>
        <time>2020-02-23T14:44:30Z</time>
      </trkpt>
      <trkpt lat="46.21258" lon="6.30821">
        <ele>622.79998779297</ele>
        <time>2020-02-23T14:44:31Z</time>
      </trkpt>
      <trkpt lat="46.21257" lon="6.30821">
        <ele>622.79998779297</ele>
        <time>2020-02-23T14:44:32Z</time>
      </trkpt>
      <trkpt lat="46.21257" lon="6.30819">
        <ele>622.59997558594</ele>
        <time>2020-02-23T14:44:34Z</time>
      </trkpt>
      <trkpt lat="46.21257" lon="6.30818">
        <ele>622.79998779297</ele>
        <time>2020-02-23T14:44:35Z</time>
      </trkpt>
      <trkpt lat="46.21257" lon="6.30818">
        <ele>622.79998779297</ele>
        <time>2020-02-23T14:44:36Z</time>
      </trkpt>
      <trkpt lat="46.21256" lon="6.30817">
        <ele>622.59997558594</ele>
        <time>2020-02-23T14:44:37Z</time>
      </trkpt>
      <trkpt lat="46.21255" lon="6.30816">
        <ele>622.59997558594</ele>
        <time>2020-02-23T14:44:38Z</time>
      </trkpt>
      <trkpt lat="46.21255" lon="6.30816">
        <ele>622.59997558594</ele>
        <time>2020-02-23T14:44:39Z</time>
      </trkpt>
      <trkpt lat="46.21251" lon="6.30813">
        <ele>622.40002441406</ele>
        <time>2020-02-23T14:44:45Z</time>
      </trkpt>
      <trkpt lat="46.2125" lon="6.30811">
        <ele>622.20001220703</ele>
        <time>2020-02-23T14:44:48Z</time>
      </trkpt>
      <trkpt lat="46.21249" lon="6.30811">
        <ele>622.20001220703</ele>
        <time>2020-02-23T14:44:49Z</time>
      </trkpt>
      <trkpt lat="46.21249" lon="6.30811">
        <ele>622.20001220703</ele>
        <time>2020-02-23T14:44:51Z</time>
      </trkpt>
      <trkpt lat="46.21247" lon="6.30809">
        <ele>622.20001220703</ele>
        <time>2020-02-23T14:44:54Z</time>
      </trkpt>
      <trkpt lat="46.21246" lon="6.30807">
        <ele>622.40002441406</ele>
        <time>2020-02-23T14:44:56Z</time>
      </trkpt>
      <trkpt lat="46.21245" lon="6.30806">
        <ele>622.20001220703</ele>
        <time>2020-02-23T14:44:57Z</time>
      </trkpt>
      <trkpt lat="46.21245" lon="6.30806">
        <ele>622.20001220703</ele>
        <time>2020-02-23T14:44:58Z</time>
      </trkpt>
      <trkpt lat="46.21244" lon="6.30805">
        <ele>622.20001220703</ele>
        <time>2020-02-23T14:44:59Z</time>
      </trkpt>
      <trkpt lat="46.21243" lon="6.30804">
        <ele>622.20001220703</ele>
        <time>2020-02-23T14:45:00Z</time>
      </trkpt>
      <trkpt lat="46.21239" lon="6.30802">
        <ele>622.20001220703</ele>
        <time>2020-02-23T14:45:08Z</time>
      </trkpt>
      <trkpt lat="46.21239" lon="6.30798">
        <ele>622.40002441406</ele>
        <time>2020-02-23T14:45:21Z</time>
      </trkpt>
      <trkpt lat="46.21238" lon="6.30795">
        <ele>622.20001220703</ele>
        <time>2020-02-23T14:45:24Z</time>
      </trkpt>
      <trkpt lat="46.21237" lon="6.30793">
        <ele>622.20001220703</ele>
        <time>2020-02-23T14:45:25Z</time>
      </trkpt>
      <trkpt lat="46.21237" lon="6.30792">
        <ele>622.20001220703</ele>
        <time>2020-02-23T14:45:26Z</time>
      </trkpt>
      <trkpt lat="46.21236" lon="6.3079">
        <ele>622.20001220703</ele>
        <time>2020-02-23T14:45:27Z</time>
      </trkpt>
      <trkpt lat="46.21236" lon="6.30789">
        <ele>622.20001220703</ele>
        <time>2020-02-23T14:45:28Z</time>
      </trkpt>
      <trkpt lat="46.21235" lon="6.30787">
        <ele>622.20001220703</ele>
        <time>2020-02-23T14:45:29Z</time>
      </trkpt>
      <trkpt lat="46.21234" lon="6.30785">
        <ele>622.20001220703</ele>
        <time>2020-02-23T14:45:30Z</time>
      </trkpt>
      <trkpt lat="46.21233" lon="6.30782">
        <ele>622</ele>
        <time>2020-02-23T14:45:31Z</time>
      </trkpt>
      <trkpt lat="46.21232" lon="6.30781">
        <ele>622.20001220703</ele>
        <time>2020-02-23T14:45:32Z</time>
      </trkpt>
      <trkpt lat="46.21231" lon="6.30779">
        <ele>622.20001220703</ele>
        <time>2020-02-23T14:45:33Z</time>
      </trkpt>
      <trkpt lat="46.2123" lon="6.30778">
        <ele>622.20001220703</ele>
        <time>2020-02-23T14:45:34Z</time>
      </trkpt>
      <trkpt lat="46.21229" lon="6.30777">
        <ele>622</ele>
        <time>2020-02-23T14:45:35Z</time>
      </trkpt>
      <trkpt lat="46.21226" lon="6.30774">
        <ele>622</ele>
        <time>2020-02-23T14:45:37Z</time>
      </trkpt>
      <trkpt lat="46.21224" lon="6.30773">
        <ele>621.79998779297</ele>
        <time>2020-02-23T14:45:38Z</time>
      </trkpt>
      <trkpt lat="46.2122" lon="6.30771">
        <ele>621.59997558594</ele>
        <time>2020-02-23T14:45:40Z</time>
      </trkpt>
      <trkpt lat="46.21219" lon="6.3077">
        <ele>621.79998779297</ele>
        <time>2020-02-23T14:45:41Z</time>
      </trkpt>
      <trkpt lat="46.21215" lon="6.30768">
        <ele>621.59997558594</ele>
        <time>2020-02-23T14:45:43Z</time>
      </trkpt>
      <trkpt lat="46.21213" lon="6.30767">
        <ele>621.59997558594</ele>
        <time>2020-02-23T14:45:44Z</time>
      </trkpt>
      <trkpt lat="46.21212" lon="6.30765">
        <ele>621.59997558594</ele>
        <time>2020-02-23T14:45:45Z</time>
      </trkpt>
      <trkpt lat="46.21211" lon="6.30764">
        <ele>621.59997558594</ele>
        <time>2020-02-23T14:45:46Z</time>
      </trkpt>
      <trkpt lat="46.21209" lon="6.30762">
        <ele>621.59997558594</ele>
        <time>2020-02-23T14:45:47Z</time>
      </trkpt>
      <trkpt lat="46.21207" lon="6.3076">
        <ele>621.59997558594</ele>
        <time>2020-02-23T14:45:48Z</time>
      </trkpt>
      <trkpt lat="46.21206" lon="6.30758">
        <ele>621.59997558594</ele>
        <time>2020-02-23T14:45:49Z</time>
      </trkpt>
      <trkpt lat="46.21204" lon="6.30757">
        <ele>621.59997558594</ele>
        <time>2020-02-23T14:45:50Z</time>
      </trkpt>
      <trkpt lat="46.21203" lon="6.30755">
        <ele>621.59997558594</ele>
        <time>2020-02-23T14:45:51Z</time>
      </trkpt>
      <trkpt lat="46.21201" lon="6.30754">
        <ele>621.59997558594</ele>
        <time>2020-02-23T14:45:52Z</time>
      </trkpt>
      <trkpt lat="46.212" lon="6.30753">
        <ele>621.59997558594</ele>
        <time>2020-02-23T14:45:53Z</time>
      </trkpt>
      <trkpt lat="46.21199" lon="6.30751">
        <ele>621.59997558594</ele>
        <time>2020-02-23T14:45:54Z</time>
      </trkpt>
      <trkpt lat="46.21198" lon="6.3075">
        <ele>621.59997558594</ele>
        <time>2020-02-23T14:45:55Z</time>
      </trkpt>
      <trkpt lat="46.21197" lon="6.30749">
        <ele>621.59997558594</ele>
        <time>2020-02-23T14:45:56Z</time>
      </trkpt>
      <trkpt lat="46.21195" lon="6.30748">
        <ele>621.59997558594</ele>
        <time>2020-02-23T14:45:57Z</time>
      </trkpt>
      <trkpt lat="46.21191" lon="6.30746">
        <ele>621.40002441406</ele>
        <time>2020-02-23T14:45:59Z</time>
      </trkpt>
      <trkpt lat="46.2119" lon="6.30745">
        <ele>621.40002441406</ele>
        <time>2020-02-23T14:46:00Z</time>
      </trkpt>
      <trkpt lat="46.21189" lon="6.30744">
        <ele>621.40002441406</ele>
        <time>2020-02-23T14:46:01Z</time>
      </trkpt>
      <trkpt lat="46.21188" lon="6.30744">
        <ele>621.40002441406</ele>
        <time>2020-02-23T14:46:02Z</time>
      </trkpt>
      <trkpt lat="46.21186" lon="6.30743">
        <ele>621.20001220703</ele>
        <time>2020-02-23T14:46:03Z</time>
      </trkpt>
      <trkpt lat="46.21185" lon="6.30742">
        <ele>621.20001220703</ele>
        <time>2020-02-23T14:46:04Z</time>
      </trkpt>
      <trkpt lat="46.21183" lon="6.30741">
        <ele>621.20001220703</ele>
        <time>2020-02-23T14:46:05Z</time>
      </trkpt>
      <trkpt lat="46.21182" lon="6.30741">
        <ele>621.20001220703</ele>
        <time>2020-02-23T14:46:06Z</time>
      </trkpt>
      <trkpt lat="46.21181" lon="6.3074">
        <ele>621</ele>
        <time>2020-02-23T14:46:07Z</time>
      </trkpt>
      <trkpt lat="46.21179" lon="6.3074">
        <ele>621</ele>
        <time>2020-02-23T14:46:08Z</time>
      </trkpt>
      <trkpt lat="46.21178" lon="6.30739">
        <ele>621</ele>
        <time>2020-02-23T14:46:09Z</time>
      </trkpt>
      <trkpt lat="46.21177" lon="6.30737">
        <ele>621</ele>
        <time>2020-02-23T14:46:10Z</time>
      </trkpt>
      <trkpt lat="46.21176" lon="6.30735">
        <ele>621</ele>
        <time>2020-02-23T14:46:11Z</time>
      </trkpt>
      <trkpt lat="46.21174" lon="6.30733">
        <ele>621.20001220703</ele>
        <time>2020-02-23T14:46:12Z</time>
      </trkpt>
      <trkpt lat="46.21171" lon="6.30731">
        <ele>621</ele>
        <time>2020-02-23T14:46:13Z</time>
      </trkpt>
      <trkpt lat="46.21167" lon="6.30728">
        <ele>621.20001220703</ele>
        <time>2020-02-23T14:46:15Z</time>
      </trkpt>
      <trkpt lat="46.21166" lon="6.30726">
        <ele>621</ele>
        <time>2020-02-23T14:46:16Z</time>
      </trkpt>
      <trkpt lat="46.21166" lon="6.30725">
        <ele>621.20001220703</ele>
        <time>2020-02-23T14:46:17Z</time>
      </trkpt>
      <trkpt lat="46.21165" lon="6.30723">
        <ele>621.20001220703</ele>
        <time>2020-02-23T14:46:18Z</time>
      </trkpt>
      <trkpt lat="46.21163" lon="6.30719">
        <ele>621.20001220703</ele>
        <time>2020-02-23T14:46:20Z</time>
      </trkpt>
      <trkpt lat="46.21162" lon="6.30717">
        <ele>621.20001220703</ele>
        <time>2020-02-23T14:46:21Z</time>
      </trkpt>
      <trkpt lat="46.21161" lon="6.30715">
        <ele>621.20001220703</ele>
        <time>2020-02-23T14:46:22Z</time>
      </trkpt>
      <trkpt lat="46.21159" lon="6.30711">
        <ele>621.40002441406</ele>
        <time>2020-02-23T14:46:23Z</time>
      </trkpt>
      <trkpt lat="46.21158" lon="6.30707">
        <ele>621.40002441406</ele>
        <time>2020-02-23T14:46:24Z</time>
      </trkpt>
      <trkpt lat="46.21157" lon="6.30703">
        <ele>621.40002441406</ele>
        <time>2020-02-23T14:46:25Z</time>
      </trkpt>
      <trkpt lat="46.21155" lon="6.30697">
        <ele>621.20001220703</ele>
        <time>2020-02-23T14:46:27Z</time>
      </trkpt>
      <trkpt lat="46.21154" lon="6.30695">
        <ele>621.20001220703</ele>
        <time>2020-02-23T14:46:28Z</time>
      </trkpt>
      <trkpt lat="46.21154" lon="6.30694">
        <ele>621.20001220703</ele>
        <time>2020-02-23T14:46:29Z</time>
      </trkpt>
      <trkpt lat="46.21151" lon="6.30686">
        <ele>620.40002441406</ele>
        <time>2020-02-23T14:46:41Z</time>
      </trkpt>
      <trkpt lat="46.21151" lon="6.30685">
        <ele>620.40002441406</ele>
        <time>2020-02-23T14:46:42Z</time>
      </trkpt>
      <trkpt lat="46.21151" lon="6.30684">
        <ele>620.40002441406</ele>
        <time>2020-02-23T14:46:43Z</time>
      </trkpt>
      <trkpt lat="46.2115" lon="6.30683">
        <ele>620.40002441406</ele>
        <time>2020-02-23T14:46:44Z</time>
      </trkpt>
      <trkpt lat="46.2115" lon="6.30681">
        <ele>620.40002441406</ele>
        <time>2020-02-23T14:46:45Z</time>
      </trkpt>
      <trkpt lat="46.21149" lon="6.30678">
        <ele>620.20001220703</ele>
        <time>2020-02-23T14:46:46Z</time>
      </trkpt>
      <trkpt lat="46.21149" lon="6.30676">
        <ele>620.20001220703</ele>
        <time>2020-02-23T14:46:47Z</time>
      </trkpt>
      <trkpt lat="46.21149" lon="6.30674">
        <ele>620</ele>
        <time>2020-02-23T14:46:48Z</time>
      </trkpt>
      <trkpt lat="46.21148" lon="6.30672">
        <ele>620.20001220703</ele>
        <time>2020-02-23T14:46:49Z</time>
      </trkpt>
      <trkpt lat="46.21148" lon="6.3067">
        <ele>620</ele>
        <time>2020-02-23T14:46:50Z</time>
      </trkpt>
      <trkpt lat="46.21148" lon="6.30668">
        <ele>619.79998779297</ele>
        <time>2020-02-23T14:46:51Z</time>
      </trkpt>
      <trkpt lat="46.21148" lon="6.30665">
        <ele>619.40002441406</ele>
        <time>2020-02-23T14:46:52Z</time>
      </trkpt>
      <trkpt lat="46.21148" lon="6.30663">
        <ele>619.20001220703</ele>
        <time>2020-02-23T14:46:53Z</time>
      </trkpt>
      <trkpt lat="46.21148" lon="6.30661">
        <ele>619</ele>
        <time>2020-02-23T14:46:54Z</time>
      </trkpt>
      <trkpt lat="46.21148" lon="6.30659">
        <ele>618.79998779297</ele>
        <time>2020-02-23T14:46:55Z</time>
      </trkpt>
      <trkpt lat="46.21147" lon="6.30656">
        <ele>618.59997558594</ele>
        <time>2020-02-23T14:46:56Z</time>
      </trkpt>
      <trkpt lat="46.21147" lon="6.30654">
        <ele>618.40002441406</ele>
        <time>2020-02-23T14:46:57Z</time>
      </trkpt>
      <trkpt lat="46.21147" lon="6.30653">
        <ele>618.20001220703</ele>
        <time>2020-02-23T14:46:58Z</time>
      </trkpt>
      <trkpt lat="46.21148" lon="6.30652">
        <ele>618.20001220703</ele>
        <time>2020-02-23T14:46:59Z</time>
      </trkpt>
      <trkpt lat="46.21148" lon="6.3065">
        <ele>618.20001220703</ele>
        <time>2020-02-23T14:47:00Z</time>
      </trkpt>
      <trkpt lat="46.21149" lon="6.30649">
        <ele>618.20001220703</ele>
        <time>2020-02-23T14:47:01Z</time>
      </trkpt>
      <trkpt lat="46.2115" lon="6.30648">
        <ele>618</ele>
        <time>2020-02-23T14:47:02Z</time>
      </trkpt>
      <trkpt lat="46.21151" lon="6.30647">
        <ele>618</ele>
        <time>2020-02-23T14:47:03Z</time>
      </trkpt>
      <trkpt lat="46.21152" lon="6.30645">
        <ele>618</ele>
        <time>2020-02-23T14:47:04Z</time>
      </trkpt>
      <trkpt lat="46.21154" lon="6.30643">
        <ele>617.79998779297</ele>
        <time>2020-02-23T14:47:05Z</time>
      </trkpt>
      <trkpt lat="46.21155" lon="6.30641">
        <ele>618</ele>
        <time>2020-02-23T14:47:06Z</time>
      </trkpt>
      <trkpt lat="46.21156" lon="6.30639">
        <ele>617.79998779297</ele>
        <time>2020-02-23T14:47:07Z</time>
      </trkpt>
      <trkpt lat="46.21156" lon="6.30637">
        <ele>617.79998779297</ele>
        <time>2020-02-23T14:47:08Z</time>
      </trkpt>
      <trkpt lat="46.21156" lon="6.30634">
        <ele>617.59997558594</ele>
        <time>2020-02-23T14:47:09Z</time>
      </trkpt>
      <trkpt lat="46.21156" lon="6.30631">
        <ele>617.20001220703</ele>
        <time>2020-02-23T14:47:10Z</time>
      </trkpt>
      <trkpt lat="46.21156" lon="6.30628">
        <ele>617</ele>
        <time>2020-02-23T14:47:11Z</time>
      </trkpt>
      <trkpt lat="46.21156" lon="6.30626">
        <ele>616.59997558594</ele>
        <time>2020-02-23T14:47:12Z</time>
      </trkpt>
      <trkpt lat="46.21157" lon="6.30623">
        <ele>616.20001220703</ele>
        <time>2020-02-23T14:47:13Z</time>
      </trkpt>
      <trkpt lat="46.21157" lon="6.30621">
        <ele>616</ele>
        <time>2020-02-23T14:47:14Z</time>
      </trkpt>
      <trkpt lat="46.21157" lon="6.30618">
        <ele>615.79998779297</ele>
        <time>2020-02-23T14:47:15Z</time>
      </trkpt>
      <trkpt lat="46.21156" lon="6.30616">
        <ele>615.40002441406</ele>
        <time>2020-02-23T14:47:16Z</time>
      </trkpt>
      <trkpt lat="46.21156" lon="6.30611">
        <ele>614.40002441406</ele>
        <time>2020-02-23T14:47:18Z</time>
      </trkpt>
      <trkpt lat="46.21156" lon="6.30608">
        <ele>614.20001220703</ele>
        <time>2020-02-23T14:47:19Z</time>
      </trkpt>
      <trkpt lat="46.21155" lon="6.30606">
        <ele>613.79998779297</ele>
        <time>2020-02-23T14:47:20Z</time>
      </trkpt>
      <trkpt lat="46.21155" lon="6.30604">
        <ele>613.79998779297</ele>
        <time>2020-02-23T14:47:21Z</time>
      </trkpt>
      <trkpt lat="46.21155" lon="6.30601">
        <ele>613.59997558594</ele>
        <time>2020-02-23T14:47:22Z</time>
      </trkpt>
      <trkpt lat="46.21154" lon="6.30599">
        <ele>613</ele>
        <time>2020-02-23T14:47:23Z</time>
      </trkpt>
      <trkpt lat="46.21154" lon="6.30598">
        <ele>613</ele>
        <time>2020-02-23T14:47:24Z</time>
      </trkpt>
      <trkpt lat="46.21154" lon="6.30597">
        <ele>612.40002441406</ele>
        <time>2020-02-23T14:47:26Z</time>
      </trkpt>
      <trkpt lat="46.21154" lon="6.30592">
        <ele>611.20001220703</ele>
        <time>2020-02-23T14:47:30Z</time>
      </trkpt>
      <trkpt lat="46.21154" lon="6.3059">
        <ele>610.59997558594</ele>
        <time>2020-02-23T14:47:31Z</time>
      </trkpt>
      <trkpt lat="46.21153" lon="6.30588">
        <ele>610.40002441406</ele>
        <time>2020-02-23T14:47:32Z</time>
      </trkpt>
      <trkpt lat="46.21153" lon="6.30586">
        <ele>610.20001220703</ele>
        <time>2020-02-23T14:47:33Z</time>
      </trkpt>
      <trkpt lat="46.21153" lon="6.30584">
        <ele>610.20001220703</ele>
        <time>2020-02-23T14:47:34Z</time>
      </trkpt>
      <trkpt lat="46.21152" lon="6.3058">
        <ele>610</ele>
        <time>2020-02-23T14:47:35Z</time>
      </trkpt>
      <trkpt lat="46.21152" lon="6.30574">
        <ele>609.79998779297</ele>
        <time>2020-02-23T14:47:37Z</time>
      </trkpt>
      <trkpt lat="46.21153" lon="6.30571">
        <ele>609.79998779297</ele>
        <time>2020-02-23T14:47:38Z</time>
      </trkpt>
      <trkpt lat="46.21152" lon="6.30568">
        <ele>609.59997558594</ele>
        <time>2020-02-23T14:47:39Z</time>
      </trkpt>
      <trkpt lat="46.21151" lon="6.30565">
        <ele>609.40002441406</ele>
        <time>2020-02-23T14:47:40Z</time>
      </trkpt>
      <trkpt lat="46.2115" lon="6.30563">
        <ele>609</ele>
        <time>2020-02-23T14:47:41Z</time>
      </trkpt>
      <trkpt lat="46.21149" lon="6.30561">
        <ele>608.79998779297</ele>
        <time>2020-02-23T14:47:42Z</time>
      </trkpt>
      <trkpt lat="46.21148" lon="6.30559">
        <ele>608.40002441406</ele>
        <time>2020-02-23T14:47:43Z</time>
      </trkpt>
      <trkpt lat="46.21147" lon="6.30557">
        <ele>608.20001220703</ele>
        <time>2020-02-23T14:47:44Z</time>
      </trkpt>
      <trkpt lat="46.21146" lon="6.30555">
        <ele>607.79998779297</ele>
        <time>2020-02-23T14:47:45Z</time>
      </trkpt>
      <trkpt lat="46.21145" lon="6.30553">
        <ele>607.40002441406</ele>
        <time>2020-02-23T14:47:46Z</time>
      </trkpt>
      <trkpt lat="46.21144" lon="6.30552">
        <ele>607.20001220703</ele>
        <time>2020-02-23T14:47:47Z</time>
      </trkpt>
      <trkpt lat="46.21143" lon="6.30551">
        <ele>607.20001220703</ele>
        <time>2020-02-23T14:47:48Z</time>
      </trkpt>
      <trkpt lat="46.21143" lon="6.30549">
        <ele>606.79998779297</ele>
        <time>2020-02-23T14:47:49Z</time>
      </trkpt>
      <trkpt lat="46.21141" lon="6.30548">
        <ele>606.59997558594</ele>
        <time>2020-02-23T14:47:50Z</time>
      </trkpt>
      <trkpt lat="46.21141" lon="6.30547">
        <ele>606.40002441406</ele>
        <time>2020-02-23T14:47:51Z</time>
      </trkpt>
      <trkpt lat="46.2114" lon="6.30545">
        <ele>606.20001220703</ele>
        <time>2020-02-23T14:47:52Z</time>
      </trkpt>
      <trkpt lat="46.2114" lon="6.30543">
        <ele>605.59997558594</ele>
        <time>2020-02-23T14:47:53Z</time>
      </trkpt>
      <trkpt lat="46.21139" lon="6.30541">
        <ele>605.40002441406</ele>
        <time>2020-02-23T14:47:54Z</time>
      </trkpt>
      <trkpt lat="46.21139" lon="6.30537">
        <ele>604.79998779297</ele>
        <time>2020-02-23T14:47:56Z</time>
      </trkpt>
      <trkpt lat="46.21138" lon="6.30535">
        <ele>604.40002441406</ele>
        <time>2020-02-23T14:47:57Z</time>
      </trkpt>
      <trkpt lat="46.21138" lon="6.30533">
        <ele>604.20001220703</ele>
        <time>2020-02-23T14:47:58Z</time>
      </trkpt>
      <trkpt lat="46.21138" lon="6.30531">
        <ele>604</ele>
        <time>2020-02-23T14:47:59Z</time>
      </trkpt>
      <trkpt lat="46.21137" lon="6.30524">
        <ele>603.59997558594</ele>
        <time>2020-02-23T14:48:01Z</time>
      </trkpt>
      <trkpt lat="46.21136" lon="6.30521">
        <ele>603.20001220703</ele>
        <time>2020-02-23T14:48:02Z</time>
      </trkpt>
      <trkpt lat="46.21136" lon="6.30515">
        <ele>602.79998779297</ele>
        <time>2020-02-23T14:48:04Z</time>
      </trkpt>
      <trkpt lat="46.21135" lon="6.30511">
        <ele>602.59997558594</ele>
        <time>2020-02-23T14:48:05Z</time>
      </trkpt>
      <trkpt lat="46.21135" lon="6.30508">
        <ele>602.40002441406</ele>
        <time>2020-02-23T14:48:06Z</time>
      </trkpt>
      <trkpt lat="46.21135" lon="6.30505">
        <ele>602.40002441406</ele>
        <time>2020-02-23T14:48:07Z</time>
      </trkpt>
      <trkpt lat="46.21134" lon="6.30502">
        <ele>602</ele>
        <time>2020-02-23T14:48:08Z</time>
      </trkpt>
      <trkpt lat="46.21134" lon="6.305">
        <ele>601.79998779297</ele>
        <time>2020-02-23T14:48:09Z</time>
      </trkpt>
      <trkpt lat="46.21134" lon="6.30498">
        <ele>601.40002441406</ele>
        <time>2020-02-23T14:48:10Z</time>
      </trkpt>
      <trkpt lat="46.21133" lon="6.30496">
        <ele>601.20001220703</ele>
        <time>2020-02-23T14:48:11Z</time>
      </trkpt>
      <trkpt lat="46.21133" lon="6.30493">
        <ele>601</ele>
        <time>2020-02-23T14:48:12Z</time>
      </trkpt>
      <trkpt lat="46.21132" lon="6.30488">
        <ele>600.40002441406</ele>
        <time>2020-02-23T14:48:14Z</time>
      </trkpt>
      <trkpt lat="46.21132" lon="6.30485">
        <ele>600.20001220703</ele>
        <time>2020-02-23T14:48:15Z</time>
      </trkpt>
      <trkpt lat="46.21132" lon="6.30482">
        <ele>600</ele>
        <time>2020-02-23T14:48:16Z</time>
      </trkpt>
      <trkpt lat="46.21131" lon="6.30479">
        <ele>599.79998779297</ele>
        <time>2020-02-23T14:48:17Z</time>
      </trkpt>
      <trkpt lat="46.21131" lon="6.30476">
        <ele>599.79998779297</ele>
        <time>2020-02-23T14:48:18Z</time>
      </trkpt>
      <trkpt lat="46.2113" lon="6.30473">
        <ele>600</ele>
        <time>2020-02-23T14:48:19Z</time>
      </trkpt>
      <trkpt lat="46.21129" lon="6.3047">
        <ele>599.79998779297</ele>
        <time>2020-02-23T14:48:20Z</time>
      </trkpt>
      <trkpt lat="46.21122" lon="6.3046">
        <ele>599.79998779297</ele>
        <time>2020-02-23T14:48:24Z</time>
      </trkpt>
      <trkpt lat="46.21121" lon="6.30457">
        <ele>599.79998779297</ele>
        <time>2020-02-23T14:48:25Z</time>
      </trkpt>
      <trkpt lat="46.21119" lon="6.30454">
        <ele>599.79998779297</ele>
        <time>2020-02-23T14:48:26Z</time>
      </trkpt>
      <trkpt lat="46.21117" lon="6.30451">
        <ele>599.59997558594</ele>
        <time>2020-02-23T14:48:27Z</time>
      </trkpt>
      <trkpt lat="46.21116" lon="6.30449">
        <ele>599.79998779297</ele>
        <time>2020-02-23T14:48:28Z</time>
      </trkpt>
      <trkpt lat="46.21114" lon="6.30446">
        <ele>599.79998779297</ele>
        <time>2020-02-23T14:48:29Z</time>
      </trkpt>
      <trkpt lat="46.21113" lon="6.30444">
        <ele>600</ele>
        <time>2020-02-23T14:48:30Z</time>
      </trkpt>
      <trkpt lat="46.21111" lon="6.30442">
        <ele>599.79998779297</ele>
        <time>2020-02-23T14:48:31Z</time>
      </trkpt>
      <trkpt lat="46.2111" lon="6.3044">
        <ele>599.79998779297</ele>
        <time>2020-02-23T14:48:32Z</time>
      </trkpt>
      <trkpt lat="46.21109" lon="6.30437">
        <ele>600</ele>
        <time>2020-02-23T14:48:33Z</time>
      </trkpt>
      <trkpt lat="46.21107" lon="6.30434">
        <ele>600</ele>
        <time>2020-02-23T14:48:34Z</time>
      </trkpt>
      <trkpt lat="46.21102" lon="6.30425">
        <ele>600.20001220703</ele>
        <time>2020-02-23T14:48:37Z</time>
      </trkpt>
      <trkpt lat="46.211" lon="6.30423">
        <ele>600.20001220703</ele>
        <time>2020-02-23T14:48:38Z</time>
      </trkpt>
      <trkpt lat="46.21099" lon="6.30421">
        <ele>600.40002441406</ele>
        <time>2020-02-23T14:48:39Z</time>
      </trkpt>
      <trkpt lat="46.21097" lon="6.30419">
        <ele>600.40002441406</ele>
        <time>2020-02-23T14:48:40Z</time>
      </trkpt>
      <trkpt lat="46.21096" lon="6.30418">
        <ele>600.40002441406</ele>
        <time>2020-02-23T14:48:41Z</time>
      </trkpt>
      <trkpt lat="46.21094" lon="6.30416">
        <ele>600.40002441406</ele>
        <time>2020-02-23T14:48:42Z</time>
      </trkpt>
      <trkpt lat="46.21093" lon="6.30413">
        <ele>600.59997558594</ele>
        <time>2020-02-23T14:48:43Z</time>
      </trkpt>
      <trkpt lat="46.21089" lon="6.30409">
        <ele>600.40002441406</ele>
        <time>2020-02-23T14:48:45Z</time>
      </trkpt>
      <trkpt lat="46.21087" lon="6.30406">
        <ele>600.59997558594</ele>
        <time>2020-02-23T14:48:46Z</time>
      </trkpt>
      <trkpt lat="46.21085" lon="6.30404">
        <ele>600.59997558594</ele>
        <time>2020-02-23T14:48:47Z</time>
      </trkpt>
      <trkpt lat="46.21083" lon="6.30403">
        <ele>600.59997558594</ele>
        <time>2020-02-23T14:48:48Z</time>
      </trkpt>
      <trkpt lat="46.21081" lon="6.304">
        <ele>600.79998779297</ele>
        <time>2020-02-23T14:48:49Z</time>
      </trkpt>
      <trkpt lat="46.21078" lon="6.30398">
        <ele>600.59997558594</ele>
        <time>2020-02-23T14:48:50Z</time>
      </trkpt>
      <trkpt lat="46.21076" lon="6.30396">
        <ele>600.59997558594</ele>
        <time>2020-02-23T14:48:51Z</time>
      </trkpt>
      <trkpt lat="46.21074" lon="6.30393">
        <ele>600.59997558594</ele>
        <time>2020-02-23T14:48:52Z</time>
      </trkpt>
      <trkpt lat="46.21072" lon="6.30391">
        <ele>600.79998779297</ele>
        <time>2020-02-23T14:48:53Z</time>
      </trkpt>
      <trkpt lat="46.21069" lon="6.30388">
        <ele>600.79998779297</ele>
        <time>2020-02-23T14:48:54Z</time>
      </trkpt>
      <trkpt lat="46.21067" lon="6.30386">
        <ele>600.79998779297</ele>
        <time>2020-02-23T14:48:55Z</time>
      </trkpt>
      <trkpt lat="46.21064" lon="6.30383">
        <ele>600.79998779297</ele>
        <time>2020-02-23T14:48:56Z</time>
      </trkpt>
      <trkpt lat="46.21062" lon="6.3038">
        <ele>601</ele>
        <time>2020-02-23T14:48:57Z</time>
      </trkpt>
      <trkpt lat="46.21057" lon="6.30375">
        <ele>601</ele>
        <time>2020-02-23T14:48:59Z</time>
      </trkpt>
      <trkpt lat="46.21055" lon="6.30372">
        <ele>601</ele>
        <time>2020-02-23T14:49:00Z</time>
      </trkpt>
      <trkpt lat="46.21053" lon="6.3037">
        <ele>601.20001220703</ele>
        <time>2020-02-23T14:49:01Z</time>
      </trkpt>
      <trkpt lat="46.21047" lon="6.30363">
        <ele>601.20001220703</ele>
        <time>2020-02-23T14:49:04Z</time>
      </trkpt>
      <trkpt lat="46.21045" lon="6.30361">
        <ele>601.20001220703</ele>
        <time>2020-02-23T14:49:05Z</time>
      </trkpt>
      <trkpt lat="46.21044" lon="6.3036">
        <ele>601.40002441406</ele>
        <time>2020-02-23T14:49:06Z</time>
      </trkpt>
      <trkpt lat="46.21042" lon="6.30357">
        <ele>601.40002441406</ele>
        <time>2020-02-23T14:49:07Z</time>
      </trkpt>
      <trkpt lat="46.2104" lon="6.30354">
        <ele>601.40002441406</ele>
        <time>2020-02-23T14:49:08Z</time>
      </trkpt>
      <trkpt lat="46.21038" lon="6.30351">
        <ele>601.40002441406</ele>
        <time>2020-02-23T14:49:09Z</time>
      </trkpt>
      <trkpt lat="46.21036" lon="6.30348">
        <ele>601.40002441406</ele>
        <time>2020-02-23T14:49:10Z</time>
      </trkpt>
      <trkpt lat="46.21031" lon="6.30343">
        <ele>601.79998779297</ele>
        <time>2020-02-23T14:49:12Z</time>
      </trkpt>
      <trkpt lat="46.21029" lon="6.30341">
        <ele>601.59997558594</ele>
        <time>2020-02-23T14:49:13Z</time>
      </trkpt>
      <trkpt lat="46.21027" lon="6.3034">
        <ele>601.79998779297</ele>
        <time>2020-02-23T14:49:14Z</time>
      </trkpt>
      <trkpt lat="46.21026" lon="6.30338">
        <ele>601.79998779297</ele>
        <time>2020-02-23T14:49:15Z</time>
      </trkpt>
      <trkpt lat="46.21022" lon="6.30333">
        <ele>601.79998779297</ele>
        <time>2020-02-23T14:49:17Z</time>
      </trkpt>
      <trkpt lat="46.21019" lon="6.3033">
        <ele>601.79998779297</ele>
        <time>2020-02-23T14:49:18Z</time>
      </trkpt>
      <trkpt lat="46.21013" lon="6.30322">
        <ele>601.79998779297</ele>
        <time>2020-02-23T14:49:21Z</time>
      </trkpt>
      <trkpt lat="46.21011" lon="6.30319">
        <ele>602</ele>
        <time>2020-02-23T14:49:22Z</time>
      </trkpt>
      <trkpt lat="46.21002" lon="6.30308">
        <ele>602</ele>
        <time>2020-02-23T14:49:26Z</time>
      </trkpt>
      <trkpt lat="46.21" lon="6.30306">
        <ele>602</ele>
        <time>2020-02-23T14:49:27Z</time>
      </trkpt>
      <trkpt lat="46.20999" lon="6.30304">
        <ele>602</ele>
        <time>2020-02-23T14:49:28Z</time>
      </trkpt>
      <trkpt lat="46.20998" lon="6.30303">
        <ele>602</ele>
        <time>2020-02-23T14:49:29Z</time>
      </trkpt>
      <trkpt lat="46.20996" lon="6.30301">
        <ele>602</ele>
        <time>2020-02-23T14:49:30Z</time>
      </trkpt>
      <trkpt lat="46.20994" lon="6.30299">
        <ele>602.20001220703</ele>
        <time>2020-02-23T14:49:31Z</time>
      </trkpt>
      <trkpt lat="46.20993" lon="6.30297">
        <ele>602</ele>
        <time>2020-02-23T14:49:32Z</time>
      </trkpt>
      <trkpt lat="46.20991" lon="6.30295">
        <ele>602.20001220703</ele>
        <time>2020-02-23T14:49:33Z</time>
      </trkpt>
      <trkpt lat="46.20985" lon="6.30286">
        <ele>602.20001220703</ele>
        <time>2020-02-23T14:49:36Z</time>
      </trkpt>
      <trkpt lat="46.20981" lon="6.30282">
        <ele>602.40002441406</ele>
        <time>2020-02-23T14:49:38Z</time>
      </trkpt>
      <trkpt lat="46.2098" lon="6.3028">
        <ele>602.59997558594</ele>
        <time>2020-02-23T14:49:39Z</time>
      </trkpt>
      <trkpt lat="46.20979" lon="6.30278">
        <ele>602.79998779297</ele>
        <time>2020-02-23T14:49:40Z</time>
      </trkpt>
      <trkpt lat="46.20977" lon="6.30277">
        <ele>602.59997558594</ele>
        <time>2020-02-23T14:49:41Z</time>
      </trkpt>
      <trkpt lat="46.20975" lon="6.30275">
        <ele>603</ele>
        <time>2020-02-23T14:49:42Z</time>
      </trkpt>
      <trkpt lat="46.20973" lon="6.30272">
        <ele>603</ele>
        <time>2020-02-23T14:49:43Z</time>
      </trkpt>
      <trkpt lat="46.20971" lon="6.3027">
        <ele>603.20001220703</ele>
        <time>2020-02-23T14:49:44Z</time>
      </trkpt>
      <trkpt lat="46.20969" lon="6.30267">
        <ele>603.20001220703</ele>
        <time>2020-02-23T14:49:45Z</time>
      </trkpt>
      <trkpt lat="46.20963" lon="6.30262">
        <ele>603.40002441406</ele>
        <time>2020-02-23T14:49:47Z</time>
      </trkpt>
      <trkpt lat="46.20961" lon="6.30259">
        <ele>603.40002441406</ele>
        <time>2020-02-23T14:49:48Z</time>
      </trkpt>
      <trkpt lat="46.20959" lon="6.30257">
        <ele>603.40002441406</ele>
        <time>2020-02-23T14:49:49Z</time>
      </trkpt>
      <trkpt lat="46.20957" lon="6.30254">
        <ele>603.59997558594</ele>
        <time>2020-02-23T14:49:50Z</time>
      </trkpt>
      <trkpt lat="46.20955" lon="6.30251">
        <ele>603.59997558594</ele>
        <time>2020-02-23T14:49:51Z</time>
      </trkpt>
      <trkpt lat="46.20952" lon="6.30249">
        <ele>603.59997558594</ele>
        <time>2020-02-23T14:49:52Z</time>
      </trkpt>
      <trkpt lat="46.20949" lon="6.30246">
        <ele>603.40002441406</ele>
        <time>2020-02-23T14:49:53Z</time>
      </trkpt>
      <trkpt lat="46.20946" lon="6.30243">
        <ele>603.59997558594</ele>
        <time>2020-02-23T14:49:54Z</time>
      </trkpt>
      <trkpt lat="46.2094" lon="6.30237">
        <ele>603.59997558594</ele>
        <time>2020-02-23T14:49:56Z</time>
      </trkpt>
      <trkpt lat="46.20937" lon="6.30233">
        <ele>603.59997558594</ele>
        <time>2020-02-23T14:49:57Z</time>
      </trkpt>
      <trkpt lat="46.20934" lon="6.3023">
        <ele>603.40002441406</ele>
        <time>2020-02-23T14:49:58Z</time>
      </trkpt>
      <trkpt lat="46.20932" lon="6.30226">
        <ele>603.40002441406</ele>
        <time>2020-02-23T14:49:59Z</time>
      </trkpt>
      <trkpt lat="46.2093" lon="6.30222">
        <ele>603.40002441406</ele>
        <time>2020-02-23T14:50:00Z</time>
      </trkpt>
      <trkpt lat="46.20927" lon="6.30218">
        <ele>603.20001220703</ele>
        <time>2020-02-23T14:50:01Z</time>
      </trkpt>
      <trkpt lat="46.20924" lon="6.30213">
        <ele>602.79998779297</ele>
        <time>2020-02-23T14:50:02Z</time>
      </trkpt>
      <trkpt lat="46.2092" lon="6.30209">
        <ele>602.40002441406</ele>
        <time>2020-02-23T14:50:03Z</time>
      </trkpt>
      <trkpt lat="46.20917" lon="6.30204">
        <ele>602.20001220703</ele>
        <time>2020-02-23T14:50:04Z</time>
      </trkpt>
      <trkpt lat="46.20913" lon="6.30199">
        <ele>602</ele>
        <time>2020-02-23T14:50:05Z</time>
      </trkpt>
      <trkpt lat="46.2091" lon="6.30195">
        <ele>601.79998779297</ele>
        <time>2020-02-23T14:50:06Z</time>
      </trkpt>
      <trkpt lat="46.20907" lon="6.30191">
        <ele>601.20001220703</ele>
        <time>2020-02-23T14:50:07Z</time>
      </trkpt>
      <trkpt lat="46.20904" lon="6.30187">
        <ele>600.79998779297</ele>
        <time>2020-02-23T14:50:08Z</time>
      </trkpt>
      <trkpt lat="46.20901" lon="6.30184">
        <ele>600.20001220703</ele>
        <time>2020-02-23T14:50:09Z</time>
      </trkpt>
      <trkpt lat="46.20898" lon="6.30183">
        <ele>599.40002441406</ele>
        <time>2020-02-23T14:50:10Z</time>
      </trkpt>
      <trkpt lat="46.20896" lon="6.30181">
        <ele>599</ele>
        <time>2020-02-23T14:50:11Z</time>
      </trkpt>
      <trkpt lat="46.20894" lon="6.30179">
        <ele>598.59997558594</ele>
        <time>2020-02-23T14:50:12Z</time>
      </trkpt>
      <trkpt lat="46.20892" lon="6.30178">
        <ele>598.59997558594</ele>
        <time>2020-02-23T14:50:13Z</time>
      </trkpt>
      <trkpt lat="46.2089" lon="6.30175">
        <ele>598.40002441406</ele>
        <time>2020-02-23T14:50:14Z</time>
      </trkpt>
      <trkpt lat="46.20888" lon="6.30173">
        <ele>598.40002441406</ele>
        <time>2020-02-23T14:50:15Z</time>
      </trkpt>
      <trkpt lat="46.20885" lon="6.3017">
        <ele>598.40002441406</ele>
        <time>2020-02-23T14:50:16Z</time>
      </trkpt>
      <trkpt lat="46.20881" lon="6.30168">
        <ele>598.20001220703</ele>
        <time>2020-02-23T14:50:17Z</time>
      </trkpt>
      <trkpt lat="46.20872" lon="6.3016">
        <ele>598.20001220703</ele>
        <time>2020-02-23T14:50:20Z</time>
      </trkpt>
      <trkpt lat="46.20869" lon="6.30158">
        <ele>598.20001220703</ele>
        <time>2020-02-23T14:50:21Z</time>
      </trkpt>
      <trkpt lat="46.20867" lon="6.30156">
        <ele>598</ele>
        <time>2020-02-23T14:50:22Z</time>
      </trkpt>
      <trkpt lat="46.20864" lon="6.30154">
        <ele>598</ele>
        <time>2020-02-23T14:50:23Z</time>
      </trkpt>
      <trkpt lat="46.20862" lon="6.30153">
        <ele>598.20001220703</ele>
        <time>2020-02-23T14:50:24Z</time>
      </trkpt>
      <trkpt lat="46.20859" lon="6.30151">
        <ele>598.20001220703</ele>
        <time>2020-02-23T14:50:25Z</time>
      </trkpt>
      <trkpt lat="46.20857" lon="6.3015">
        <ele>598.20001220703</ele>
        <time>2020-02-23T14:50:26Z</time>
      </trkpt>
      <trkpt lat="46.20846" lon="6.30145">
        <ele>598.59997558594</ele>
        <time>2020-02-23T14:50:30Z</time>
      </trkpt>
      <trkpt lat="46.20843" lon="6.30144">
        <ele>598.40002441406</ele>
        <time>2020-02-23T14:50:31Z</time>
      </trkpt>
      <trkpt lat="46.20841" lon="6.30143">
        <ele>598.59997558594</ele>
        <time>2020-02-23T14:50:32Z</time>
      </trkpt>
      <trkpt lat="46.20839" lon="6.30142">
        <ele>598.40002441406</ele>
        <time>2020-02-23T14:50:33Z</time>
      </trkpt>
      <trkpt lat="46.2083" lon="6.30138">
        <ele>598.59997558594</ele>
        <time>2020-02-23T14:50:36Z</time>
      </trkpt>
      <trkpt lat="46.20827" lon="6.30136">
        <ele>598.59997558594</ele>
        <time>2020-02-23T14:50:37Z</time>
      </trkpt>
      <trkpt lat="46.20806" lon="6.30124">
        <ele>598.59997558594</ele>
        <time>2020-02-23T14:50:43Z</time>
      </trkpt>
      <trkpt lat="46.20803" lon="6.30122">
        <ele>598.59997558594</ele>
        <time>2020-02-23T14:50:44Z</time>
      </trkpt>
      <trkpt lat="46.20799" lon="6.30119">
        <ele>598.59997558594</ele>
        <time>2020-02-23T14:50:45Z</time>
      </trkpt>
      <trkpt lat="46.20795" lon="6.30117">
        <ele>598.59997558594</ele>
        <time>2020-02-23T14:50:46Z</time>
      </trkpt>
      <trkpt lat="46.20792" lon="6.30115">
        <ele>598.59997558594</ele>
        <time>2020-02-23T14:50:47Z</time>
      </trkpt>
      <trkpt lat="46.20789" lon="6.30112">
        <ele>598.59997558594</ele>
        <time>2020-02-23T14:50:48Z</time>
      </trkpt>
      <trkpt lat="46.20786" lon="6.30109">
        <ele>598.59997558594</ele>
        <time>2020-02-23T14:50:49Z</time>
      </trkpt>
      <trkpt lat="46.20782" lon="6.30106">
        <ele>598.59997558594</ele>
        <time>2020-02-23T14:50:50Z</time>
      </trkpt>
      <trkpt lat="46.20779" lon="6.30103">
        <ele>598.59997558594</ele>
        <time>2020-02-23T14:50:51Z</time>
      </trkpt>
      <trkpt lat="46.20776" lon="6.301">
        <ele>598.59997558594</ele>
        <time>2020-02-23T14:50:52Z</time>
      </trkpt>
      <trkpt lat="46.20773" lon="6.30097">
        <ele>598.59997558594</ele>
        <time>2020-02-23T14:50:53Z</time>
      </trkpt>
      <trkpt lat="46.2077" lon="6.30094">
        <ele>598.59997558594</ele>
        <time>2020-02-23T14:50:54Z</time>
      </trkpt>
      <trkpt lat="46.20767" lon="6.30091">
        <ele>598.59997558594</ele>
        <time>2020-02-23T14:50:55Z</time>
      </trkpt>
      <trkpt lat="46.20764" lon="6.30088">
        <ele>598.79998779297</ele>
        <time>2020-02-23T14:50:56Z</time>
      </trkpt>
      <trkpt lat="46.20761" lon="6.30085">
        <ele>599</ele>
        <time>2020-02-23T14:50:57Z</time>
      </trkpt>
      <trkpt lat="46.20759" lon="6.30082">
        <ele>599.20001220703</ele>
        <time>2020-02-23T14:50:58Z</time>
      </trkpt>
      <trkpt lat="46.20756" lon="6.30079">
        <ele>599.20001220703</ele>
        <time>2020-02-23T14:50:59Z</time>
      </trkpt>
      <trkpt lat="46.20754" lon="6.30076">
        <ele>599.40002441406</ele>
        <time>2020-02-23T14:51:00Z</time>
      </trkpt>
      <trkpt lat="46.20752" lon="6.30072">
        <ele>599.40002441406</ele>
        <time>2020-02-23T14:51:01Z</time>
      </trkpt>
      <trkpt lat="46.20749" lon="6.30068">
        <ele>599.59997558594</ele>
        <time>2020-02-23T14:51:02Z</time>
      </trkpt>
      <trkpt lat="46.20747" lon="6.30065">
        <ele>599.79998779297</ele>
        <time>2020-02-23T14:51:03Z</time>
      </trkpt>
      <trkpt lat="46.20744" lon="6.30062">
        <ele>599.79998779297</ele>
        <time>2020-02-23T14:51:04Z</time>
      </trkpt>
      <trkpt lat="46.20742" lon="6.30058">
        <ele>600</ele>
        <time>2020-02-23T14:51:05Z</time>
      </trkpt>
      <trkpt lat="46.2074" lon="6.30055">
        <ele>600.20001220703</ele>
        <time>2020-02-23T14:51:06Z</time>
      </trkpt>
      <trkpt lat="46.20737" lon="6.30052">
        <ele>600.40002441406</ele>
        <time>2020-02-23T14:51:07Z</time>
      </trkpt>
      <trkpt lat="46.20735" lon="6.30049">
        <ele>600.59997558594</ele>
        <time>2020-02-23T14:51:08Z</time>
      </trkpt>
      <trkpt lat="46.20729" lon="6.30044">
        <ele>600.79998779297</ele>
        <time>2020-02-23T14:51:10Z</time>
      </trkpt>
      <trkpt lat="46.20726" lon="6.30041">
        <ele>600.79998779297</ele>
        <time>2020-02-23T14:51:11Z</time>
      </trkpt>
      <trkpt lat="46.20723" lon="6.30039">
        <ele>601</ele>
        <time>2020-02-23T14:51:12Z</time>
      </trkpt>
      <trkpt lat="46.2072" lon="6.30037">
        <ele>601.20001220703</ele>
        <time>2020-02-23T14:51:13Z</time>
      </trkpt>
      <trkpt lat="46.20717" lon="6.30036">
        <ele>601.20001220703</ele>
        <time>2020-02-23T14:51:14Z</time>
      </trkpt>
      <trkpt lat="46.20714" lon="6.30034">
        <ele>601.20001220703</ele>
        <time>2020-02-23T14:51:15Z</time>
      </trkpt>
      <trkpt lat="46.20711" lon="6.30033">
        <ele>601.40002441406</ele>
        <time>2020-02-23T14:51:16Z</time>
      </trkpt>
      <trkpt lat="46.20708" lon="6.30031">
        <ele>601.59997558594</ele>
        <time>2020-02-23T14:51:17Z</time>
      </trkpt>
      <trkpt lat="46.20704" lon="6.3003">
        <ele>601.59997558594</ele>
        <time>2020-02-23T14:51:18Z</time>
      </trkpt>
      <trkpt lat="46.20701" lon="6.30029">
        <ele>601.79998779297</ele>
        <time>2020-02-23T14:51:19Z</time>
      </trkpt>
      <trkpt lat="46.20699" lon="6.30028">
        <ele>602</ele>
        <time>2020-02-23T14:51:20Z</time>
      </trkpt>
      <trkpt lat="46.20696" lon="6.30027">
        <ele>602.20001220703</ele>
        <time>2020-02-23T14:51:21Z</time>
      </trkpt>
      <trkpt lat="46.20694" lon="6.30028">
        <ele>602.40002441406</ele>
        <time>2020-02-23T14:51:22Z</time>
      </trkpt>
      <trkpt lat="46.20692" lon="6.30029">
        <ele>602.40002441406</ele>
        <time>2020-02-23T14:51:23Z</time>
      </trkpt>
      <trkpt lat="46.20691" lon="6.3003">
        <ele>602.59997558594</ele>
        <time>2020-02-23T14:51:24Z</time>
      </trkpt>
      <trkpt lat="46.20691" lon="6.30032">
        <ele>602.79998779297</ele>
        <time>2020-02-23T14:51:25Z</time>
      </trkpt>
      <trkpt lat="46.20691" lon="6.30034">
        <ele>602.79998779297</ele>
        <time>2020-02-23T14:51:26Z</time>
      </trkpt>
      <trkpt lat="46.20692" lon="6.30035">
        <ele>602.79998779297</ele>
        <time>2020-02-23T14:51:27Z</time>
      </trkpt>
      <trkpt lat="46.20694" lon="6.30034">
        <ele>602.79998779297</ele>
        <time>2020-02-23T14:51:28Z</time>
      </trkpt>
      <trkpt lat="46.20695" lon="6.30032">
        <ele>603</ele>
        <time>2020-02-23T14:51:29Z</time>
      </trkpt>
      <trkpt lat="46.20695" lon="6.30028">
        <ele>603.20001220703</ele>
        <time>2020-02-23T14:51:30Z</time>
      </trkpt>
      <trkpt lat="46.20694" lon="6.30025">
        <ele>603.20001220703</ele>
        <time>2020-02-23T14:51:31Z</time>
      </trkpt>
      <trkpt lat="46.20691" lon="6.30022">
        <ele>603.40002441406</ele>
        <time>2020-02-23T14:51:32Z</time>
      </trkpt>
      <trkpt lat="46.20688" lon="6.3002">
        <ele>603.40002441406</ele>
        <time>2020-02-23T14:51:33Z</time>
      </trkpt>
      <trkpt lat="46.20686" lon="6.30018">
        <ele>603.40002441406</ele>
        <time>2020-02-23T14:51:34Z</time>
      </trkpt>
      <trkpt lat="46.2067" lon="6.30009">
        <ele>603.40002441406</ele>
        <time>2020-02-23T14:51:39Z</time>
      </trkpt>
      <trkpt lat="46.20657" lon="6.30001">
        <ele>602.79998779297</ele>
        <time>2020-02-23T14:51:43Z</time>
      </trkpt>
      <trkpt lat="46.20647" lon="6.29997">
        <ele>602.40002441406</ele>
        <time>2020-02-23T14:51:46Z</time>
      </trkpt>
      <trkpt lat="46.20644" lon="6.29996">
        <ele>602.40002441406</ele>
        <time>2020-02-23T14:51:47Z</time>
      </trkpt>
      <trkpt lat="46.20641" lon="6.29994">
        <ele>602.20001220703</ele>
        <time>2020-02-23T14:51:48Z</time>
      </trkpt>
      <trkpt lat="46.20638" lon="6.29992">
        <ele>602</ele>
        <time>2020-02-23T14:51:49Z</time>
      </trkpt>
      <trkpt lat="46.20635" lon="6.29991">
        <ele>602</ele>
        <time>2020-02-23T14:51:50Z</time>
      </trkpt>
      <trkpt lat="46.20632" lon="6.29989">
        <ele>601.79998779297</ele>
        <time>2020-02-23T14:51:51Z</time>
      </trkpt>
      <trkpt lat="46.20629" lon="6.29988">
        <ele>601.59997558594</ele>
        <time>2020-02-23T14:51:52Z</time>
      </trkpt>
      <trkpt lat="46.20626" lon="6.29987">
        <ele>601.59997558594</ele>
        <time>2020-02-23T14:51:53Z</time>
      </trkpt>
      <trkpt lat="46.20617" lon="6.29983">
        <ele>601.40002441406</ele>
        <time>2020-02-23T14:51:56Z</time>
      </trkpt>
      <trkpt lat="46.2061" lon="6.2998">
        <ele>601.20001220703</ele>
        <time>2020-02-23T14:51:58Z</time>
      </trkpt>
      <trkpt lat="46.20602" lon="6.29977">
        <ele>600.79998779297</ele>
        <time>2020-02-23T14:52:00Z</time>
      </trkpt>
      <trkpt lat="46.20597" lon="6.29974">
        <ele>600.79998779297</ele>
        <time>2020-02-23T14:52:01Z</time>
      </trkpt>
      <trkpt lat="46.20592" lon="6.29972">
        <ele>600.59997558594</ele>
        <time>2020-02-23T14:52:02Z</time>
      </trkpt>
      <trkpt lat="46.2058" lon="6.29968">
        <ele>600.20001220703</ele>
        <time>2020-02-23T14:52:04Z</time>
      </trkpt>
      <trkpt lat="46.20574" lon="6.29966">
        <ele>600.20001220703</ele>
        <time>2020-02-23T14:52:05Z</time>
      </trkpt>
      <trkpt lat="46.20561" lon="6.29962">
        <ele>599.79998779297</ele>
        <time>2020-02-23T14:52:07Z</time>
      </trkpt>
      <trkpt lat="46.20554" lon="6.29959">
        <ele>599.20001220703</ele>
        <time>2020-02-23T14:52:08Z</time>
      </trkpt>
      <trkpt lat="46.2054" lon="6.29954">
        <ele>598.20001220703</ele>
        <time>2020-02-23T14:52:10Z</time>
      </trkpt>
      <trkpt lat="46.20534" lon="6.29951">
        <ele>597.40002441406</ele>
        <time>2020-02-23T14:52:11Z</time>
      </trkpt>
      <trkpt lat="46.20528" lon="6.29949">
        <ele>597</ele>
        <time>2020-02-23T14:52:12Z</time>
      </trkpt>
      <trkpt lat="46.20522" lon="6.29946">
        <ele>596.20001220703</ele>
        <time>2020-02-23T14:52:13Z</time>
      </trkpt>
      <trkpt lat="46.20517" lon="6.29943">
        <ele>595.59997558594</ele>
        <time>2020-02-23T14:52:14Z</time>
      </trkpt>
      <trkpt lat="46.20511" lon="6.29941">
        <ele>595.20001220703</ele>
        <time>2020-02-23T14:52:15Z</time>
      </trkpt>
      <trkpt lat="46.20505" lon="6.2994">
        <ele>594.59997558594</ele>
        <time>2020-02-23T14:52:16Z</time>
      </trkpt>
      <trkpt lat="46.20498" lon="6.2994">
        <ele>594.59997558594</ele>
        <time>2020-02-23T14:52:17Z</time>
      </trkpt>
      <trkpt lat="46.20479" lon="6.2994">
        <ele>592.59997558594</ele>
        <time>2020-02-23T14:52:20Z</time>
      </trkpt>
      <trkpt lat="46.20473" lon="6.29939">
        <ele>591.59997558594</ele>
        <time>2020-02-23T14:52:21Z</time>
      </trkpt>
      <trkpt lat="46.20467" lon="6.29937">
        <ele>591</ele>
        <time>2020-02-23T14:52:22Z</time>
      </trkpt>
      <trkpt lat="46.20462" lon="6.29932">
        <ele>590.59997558594</ele>
        <time>2020-02-23T14:52:23Z</time>
      </trkpt>
      <trkpt lat="46.20459" lon="6.29926">
        <ele>590</ele>
        <time>2020-02-23T14:52:24Z</time>
      </trkpt>
      <trkpt lat="46.20457" lon="6.2992">
        <ele>589.20001220703</ele>
        <time>2020-02-23T14:52:25Z</time>
      </trkpt>
      <trkpt lat="46.20456" lon="6.29912">
        <ele>587.79998779297</ele>
        <time>2020-02-23T14:52:26Z</time>
      </trkpt>
      <trkpt lat="46.20455" lon="6.29904">
        <ele>586.79998779297</ele>
        <time>2020-02-23T14:52:27Z</time>
      </trkpt>
      <trkpt lat="46.20454" lon="6.29895">
        <ele>586.20001220703</ele>
        <time>2020-02-23T14:52:28Z</time>
      </trkpt>
      <trkpt lat="46.20451" lon="6.29884">
        <ele>585.79998779297</ele>
        <time>2020-02-23T14:52:29Z</time>
      </trkpt>
      <trkpt lat="46.20447" lon="6.29876">
        <ele>585.40002441406</ele>
        <time>2020-02-23T14:52:30Z</time>
      </trkpt>
      <trkpt lat="46.20444" lon="6.29869">
        <ele>584.79998779297</ele>
        <time>2020-02-23T14:52:31Z</time>
      </trkpt>
      <trkpt lat="46.2044" lon="6.29864">
        <ele>584.79998779297</ele>
        <time>2020-02-23T14:52:32Z</time>
      </trkpt>
      <trkpt lat="46.20437" lon="6.2986">
        <ele>584.20001220703</ele>
        <time>2020-02-23T14:52:33Z</time>
      </trkpt>
      <trkpt lat="46.20433" lon="6.29856">
        <ele>584.20001220703</ele>
        <time>2020-02-23T14:52:34Z</time>
      </trkpt>
      <trkpt lat="46.20429" lon="6.29853">
        <ele>583.79998779297</ele>
        <time>2020-02-23T14:52:35Z</time>
      </trkpt>
      <trkpt lat="46.20424" lon="6.2985">
        <ele>582.79998779297</ele>
        <time>2020-02-23T14:52:36Z</time>
      </trkpt>
      <trkpt lat="46.20417" lon="6.29848">
        <ele>581.79998779297</ele>
        <time>2020-02-23T14:52:37Z</time>
      </trkpt>
      <trkpt lat="46.20405" lon="6.29843">
        <ele>580.20001220703</ele>
        <time>2020-02-23T14:52:39Z</time>
      </trkpt>
      <trkpt lat="46.20398" lon="6.29839">
        <ele>579.79998779297</ele>
        <time>2020-02-23T14:52:40Z</time>
      </trkpt>
      <trkpt lat="46.20392" lon="6.29834">
        <ele>579.40002441406</ele>
        <time>2020-02-23T14:52:41Z</time>
      </trkpt>
      <trkpt lat="46.20385" lon="6.29828">
        <ele>579.40002441406</ele>
        <time>2020-02-23T14:52:42Z</time>
      </trkpt>
      <trkpt lat="46.20378" lon="6.29821">
        <ele>579.20001220703</ele>
        <time>2020-02-23T14:52:43Z</time>
      </trkpt>
      <trkpt lat="46.20372" lon="6.29815">
        <ele>579.20001220703</ele>
        <time>2020-02-23T14:52:44Z</time>
      </trkpt>
      <trkpt lat="46.20367" lon="6.2981">
        <ele>578.59997558594</ele>
        <time>2020-02-23T14:52:45Z</time>
      </trkpt>
      <trkpt lat="46.20363" lon="6.29806">
        <ele>577.40002441406</ele>
        <time>2020-02-23T14:52:46Z</time>
      </trkpt>
      <trkpt lat="46.20359" lon="6.29803">
        <ele>576.20001220703</ele>
        <time>2020-02-23T14:52:47Z</time>
      </trkpt>
      <trkpt lat="46.20356" lon="6.29801">
        <ele>575</ele>
        <time>2020-02-23T14:52:48Z</time>
      </trkpt>
      <trkpt lat="46.20353" lon="6.298">
        <ele>574.59997558594</ele>
        <time>2020-02-23T14:52:49Z</time>
      </trkpt>
      <trkpt lat="46.2035" lon="6.298">
        <ele>573.59997558594</ele>
        <time>2020-02-23T14:52:50Z</time>
      </trkpt>
      <trkpt lat="46.20348" lon="6.29799">
        <ele>572.20001220703</ele>
        <time>2020-02-23T14:52:51Z</time>
      </trkpt>
      <trkpt lat="46.20347" lon="6.29798">
        <ele>571.59997558594</ele>
        <time>2020-02-23T14:52:52Z</time>
      </trkpt>
      <trkpt lat="46.20346" lon="6.29795">
        <ele>571</ele>
        <time>2020-02-23T14:52:53Z</time>
      </trkpt>
      <trkpt lat="46.20346" lon="6.29793">
        <ele>570.59997558594</ele>
        <time>2020-02-23T14:52:54Z</time>
      </trkpt>
      <trkpt lat="46.20345" lon="6.29784">
        <ele>570.20001220703</ele>
        <time>2020-02-23T14:52:56Z</time>
      </trkpt>
      <trkpt lat="46.20345" lon="6.29778">
        <ele>570</ele>
        <time>2020-02-23T14:52:57Z</time>
      </trkpt>
      <trkpt lat="46.20345" lon="6.29763">
        <ele>569.79998779297</ele>
        <time>2020-02-23T14:52:59Z</time>
      </trkpt>
      <trkpt lat="46.20344" lon="6.29755">
        <ele>570</ele>
        <time>2020-02-23T14:53:00Z</time>
      </trkpt>
      <trkpt lat="46.20342" lon="6.29747">
        <ele>569.79998779297</ele>
        <time>2020-02-23T14:53:01Z</time>
      </trkpt>
      <trkpt lat="46.2034" lon="6.2974">
        <ele>569.59997558594</ele>
        <time>2020-02-23T14:53:02Z</time>
      </trkpt>
      <trkpt lat="46.20338" lon="6.29735">
        <ele>569.79998779297</ele>
        <time>2020-02-23T14:53:03Z</time>
      </trkpt>
      <trkpt lat="46.20335" lon="6.2973">
        <ele>569.59997558594</ele>
        <time>2020-02-23T14:53:04Z</time>
      </trkpt>
      <trkpt lat="46.20333" lon="6.29727">
        <ele>569.40002441406</ele>
        <time>2020-02-23T14:53:05Z</time>
      </trkpt>
      <trkpt lat="46.20331" lon="6.29724">
        <ele>569.40002441406</ele>
        <time>2020-02-23T14:53:06Z</time>
      </trkpt>
      <trkpt lat="46.2033" lon="6.29721">
        <ele>568.79998779297</ele>
        <time>2020-02-23T14:53:07Z</time>
      </trkpt>
      <trkpt lat="46.20329" lon="6.2972">
        <ele>568.20001220703</ele>
        <time>2020-02-23T14:53:08Z</time>
      </trkpt>
      <trkpt lat="46.20328" lon="6.29719">
        <ele>567.59997558594</ele>
        <time>2020-02-23T14:53:09Z</time>
      </trkpt>
      <trkpt lat="46.20328" lon="6.29719">
        <ele>564.40002441406</ele>
        <time>2020-02-23T14:53:13Z</time>
      </trkpt>
      <trkpt lat="46.20328" lon="6.29719">
        <ele>564.20001220703</ele>
        <time>2020-02-23T14:53:14Z</time>
      </trkpt>
      <trkpt lat="46.20327" lon="6.29718">
        <ele>563.40002441406</ele>
        <time>2020-02-23T14:53:19Z</time>
      </trkpt>
      <trkpt lat="46.20327" lon="6.29717">
        <ele>563.40002441406</ele>
        <time>2020-02-23T14:53:20Z</time>
      </trkpt>
      <trkpt lat="46.20326" lon="6.29716">
        <ele>563.40002441406</ele>
        <time>2020-02-23T14:53:21Z</time>
      </trkpt>
      <trkpt lat="46.20325" lon="6.29715">
        <ele>563.40002441406</ele>
        <time>2020-02-23T14:53:22Z</time>
      </trkpt>
      <trkpt lat="46.20323" lon="6.29713">
        <ele>563.40002441406</ele>
        <time>2020-02-23T14:53:23Z</time>
      </trkpt>
      <trkpt lat="46.20319" lon="6.29712">
        <ele>563.20001220703</ele>
        <time>2020-02-23T14:53:25Z</time>
      </trkpt>
      <trkpt lat="46.20316" lon="6.29713">
        <ele>563.20001220703</ele>
        <time>2020-02-23T14:53:26Z</time>
      </trkpt>
      <trkpt lat="46.20314" lon="6.29713">
        <ele>563.40002441406</ele>
        <time>2020-02-23T14:53:27Z</time>
      </trkpt>
      <trkpt lat="46.20309" lon="6.29714">
        <ele>563.40002441406</ele>
        <time>2020-02-23T14:53:29Z</time>
      </trkpt>
      <trkpt lat="46.20306" lon="6.29714">
        <ele>563.40002441406</ele>
        <time>2020-02-23T14:53:30Z</time>
      </trkpt>
      <trkpt lat="46.20303" lon="6.29714">
        <ele>563.40002441406</ele>
        <time>2020-02-23T14:53:31Z</time>
      </trkpt>
      <trkpt lat="46.203" lon="6.29714">
        <ele>563.40002441406</ele>
        <time>2020-02-23T14:53:32Z</time>
      </trkpt>
      <trkpt lat="46.20297" lon="6.29714">
        <ele>563.40002441406</ele>
        <time>2020-02-23T14:53:33Z</time>
      </trkpt>
      <trkpt lat="46.20294" lon="6.29714">
        <ele>563.40002441406</ele>
        <time>2020-02-23T14:53:34Z</time>
      </trkpt>
      <trkpt lat="46.20292" lon="6.29713">
        <ele>563.40002441406</ele>
        <time>2020-02-23T14:53:35Z</time>
      </trkpt>
      <trkpt lat="46.20289" lon="6.29713">
        <ele>563.59997558594</ele>
        <time>2020-02-23T14:53:36Z</time>
      </trkpt>
      <trkpt lat="46.20286" lon="6.29713">
        <ele>563.79998779297</ele>
        <time>2020-02-23T14:53:37Z</time>
      </trkpt>
      <trkpt lat="46.20283" lon="6.29713">
        <ele>564.20001220703</ele>
        <time>2020-02-23T14:53:38Z</time>
      </trkpt>
      <trkpt lat="46.20281" lon="6.29713">
        <ele>564.40002441406</ele>
        <time>2020-02-23T14:53:39Z</time>
      </trkpt>
      <trkpt lat="46.20278" lon="6.29713">
        <ele>564.79998779297</ele>
        <time>2020-02-23T14:53:40Z</time>
      </trkpt>
      <trkpt lat="46.20275" lon="6.29713">
        <ele>565</ele>
        <time>2020-02-23T14:53:41Z</time>
      </trkpt>
      <trkpt lat="46.20272" lon="6.29713">
        <ele>565.20001220703</ele>
        <time>2020-02-23T14:53:42Z</time>
      </trkpt>
      <trkpt lat="46.2027" lon="6.29713">
        <ele>565.59997558594</ele>
        <time>2020-02-23T14:53:43Z</time>
      </trkpt>
      <trkpt lat="46.20267" lon="6.29713">
        <ele>565.79998779297</ele>
        <time>2020-02-23T14:53:44Z</time>
      </trkpt>
      <trkpt lat="46.20264" lon="6.29713">
        <ele>566</ele>
        <time>2020-02-23T14:53:45Z</time>
      </trkpt>
      <trkpt lat="46.20261" lon="6.29713">
        <ele>566.40002441406</ele>
        <time>2020-02-23T14:53:46Z</time>
      </trkpt>
      <trkpt lat="46.20258" lon="6.29713">
        <ele>566.79998779297</ele>
        <time>2020-02-23T14:53:47Z</time>
      </trkpt>
      <trkpt lat="46.20255" lon="6.29713">
        <ele>567</ele>
        <time>2020-02-23T14:53:48Z</time>
      </trkpt>
      <trkpt lat="46.20253" lon="6.29714">
        <ele>567.40002441406</ele>
        <time>2020-02-23T14:53:49Z</time>
      </trkpt>
      <trkpt lat="46.2025" lon="6.29715">
        <ele>567.79998779297</ele>
        <time>2020-02-23T14:53:50Z</time>
      </trkpt>
      <trkpt lat="46.20247" lon="6.29716">
        <ele>568.20001220703</ele>
        <time>2020-02-23T14:53:51Z</time>
      </trkpt>
      <trkpt lat="46.20245" lon="6.29717">
        <ele>568.40002441406</ele>
        <time>2020-02-23T14:53:52Z</time>
      </trkpt>
      <trkpt lat="46.20243" lon="6.29718">
        <ele>568.79998779297</ele>
        <time>2020-02-23T14:53:53Z</time>
      </trkpt>
      <trkpt lat="46.2024" lon="6.2972">
        <ele>568.79998779297</ele>
        <time>2020-02-23T14:53:54Z</time>
      </trkpt>
      <trkpt lat="46.20238" lon="6.29721">
        <ele>568.79998779297</ele>
        <time>2020-02-23T14:53:55Z</time>
      </trkpt>
      <trkpt lat="46.20236" lon="6.29722">
        <ele>569.20001220703</ele>
        <time>2020-02-23T14:53:56Z</time>
      </trkpt>
      <trkpt lat="46.20233" lon="6.29724">
        <ele>569.59997558594</ele>
        <time>2020-02-23T14:53:57Z</time>
      </trkpt>
      <trkpt lat="46.20231" lon="6.29725">
        <ele>570.20001220703</ele>
        <time>2020-02-23T14:53:58Z</time>
      </trkpt>
      <trkpt lat="46.20229" lon="6.29727">
        <ele>570.40002441406</ele>
        <time>2020-02-23T14:53:59Z</time>
      </trkpt>
      <trkpt lat="46.20227" lon="6.29728">
        <ele>570.79998779297</ele>
        <time>2020-02-23T14:54:00Z</time>
      </trkpt>
      <trkpt lat="46.20225" lon="6.29729">
        <ele>571</ele>
        <time>2020-02-23T14:54:01Z</time>
      </trkpt>
      <trkpt lat="46.20223" lon="6.2973">
        <ele>571.40002441406</ele>
        <time>2020-02-23T14:54:02Z</time>
      </trkpt>
      <trkpt lat="46.20221" lon="6.2973">
        <ele>571.79998779297</ele>
        <time>2020-02-23T14:54:03Z</time>
      </trkpt>
      <trkpt lat="46.20218" lon="6.2973">
        <ele>572</ele>
        <time>2020-02-23T14:54:04Z</time>
      </trkpt>
      <trkpt lat="46.20215" lon="6.2973">
        <ele>572.40002441406</ele>
        <time>2020-02-23T14:54:05Z</time>
      </trkpt>
      <trkpt lat="46.20213" lon="6.29729">
        <ele>572.59997558594</ele>
        <time>2020-02-23T14:54:06Z</time>
      </trkpt>
      <trkpt lat="46.20211" lon="6.29728">
        <ele>573</ele>
        <time>2020-02-23T14:54:07Z</time>
      </trkpt>
      <trkpt lat="46.20209" lon="6.29727">
        <ele>573.20001220703</ele>
        <time>2020-02-23T14:54:08Z</time>
      </trkpt>
      <trkpt lat="46.20206" lon="6.29726">
        <ele>573.79998779297</ele>
        <time>2020-02-23T14:54:09Z</time>
      </trkpt>
      <trkpt lat="46.20204" lon="6.29725">
        <ele>573.79998779297</ele>
        <time>2020-02-23T14:54:10Z</time>
      </trkpt>
      <trkpt lat="46.20202" lon="6.29724">
        <ele>574.20001220703</ele>
        <time>2020-02-23T14:54:11Z</time>
      </trkpt>
      <trkpt lat="46.20199" lon="6.29724">
        <ele>574.20001220703</ele>
        <time>2020-02-23T14:54:12Z</time>
      </trkpt>
      <trkpt lat="46.20196" lon="6.29723">
        <ele>574.40002441406</ele>
        <time>2020-02-23T14:54:13Z</time>
      </trkpt>
      <trkpt lat="46.20194" lon="6.29722">
        <ele>574.59997558594</ele>
        <time>2020-02-23T14:54:14Z</time>
      </trkpt>
      <trkpt lat="46.20192" lon="6.29721">
        <ele>574.79998779297</ele>
        <time>2020-02-23T14:54:15Z</time>
      </trkpt>
      <trkpt lat="46.20189" lon="6.2972">
        <ele>575.20001220703</ele>
        <time>2020-02-23T14:54:16Z</time>
      </trkpt>
      <trkpt lat="46.20187" lon="6.29719">
        <ele>575.20001220703</ele>
        <time>2020-02-23T14:54:17Z</time>
      </trkpt>
      <trkpt lat="46.20185" lon="6.29718">
        <ele>575.40002441406</ele>
        <time>2020-02-23T14:54:18Z</time>
      </trkpt>
      <trkpt lat="46.20182" lon="6.29716">
        <ele>575.40002441406</ele>
        <time>2020-02-23T14:54:19Z</time>
      </trkpt>
      <trkpt lat="46.2018" lon="6.29715">
        <ele>575.79998779297</ele>
        <time>2020-02-23T14:54:20Z</time>
      </trkpt>
      <trkpt lat="46.20178" lon="6.29714">
        <ele>575.79998779297</ele>
        <time>2020-02-23T14:54:21Z</time>
      </trkpt>
      <trkpt lat="46.20176" lon="6.29713">
        <ele>576</ele>
        <time>2020-02-23T14:54:22Z</time>
      </trkpt>
      <trkpt lat="46.20173" lon="6.29712">
        <ele>576.40002441406</ele>
        <time>2020-02-23T14:54:23Z</time>
      </trkpt>
      <trkpt lat="46.20171" lon="6.29711">
        <ele>576.59997558594</ele>
        <time>2020-02-23T14:54:24Z</time>
      </trkpt>
      <trkpt lat="46.20168" lon="6.29711">
        <ele>577</ele>
        <time>2020-02-23T14:54:25Z</time>
      </trkpt>
      <trkpt lat="46.20166" lon="6.2971">
        <ele>577.20001220703</ele>
        <time>2020-02-23T14:54:26Z</time>
      </trkpt>
      <trkpt lat="46.20163" lon="6.2971">
        <ele>577.40002441406</ele>
        <time>2020-02-23T14:54:27Z</time>
      </trkpt>
      <trkpt lat="46.20161" lon="6.29709">
        <ele>577.59997558594</ele>
        <time>2020-02-23T14:54:28Z</time>
      </trkpt>
      <trkpt lat="46.20159" lon="6.29708">
        <ele>577.79998779297</ele>
        <time>2020-02-23T14:54:29Z</time>
      </trkpt>
      <trkpt lat="46.20156" lon="6.29708">
        <ele>578.20001220703</ele>
        <time>2020-02-23T14:54:30Z</time>
      </trkpt>
      <trkpt lat="46.20154" lon="6.29708">
        <ele>578.40002441406</ele>
        <time>2020-02-23T14:54:31Z</time>
      </trkpt>
      <trkpt lat="46.20152" lon="6.29707">
        <ele>578.59997558594</ele>
        <time>2020-02-23T14:54:32Z</time>
      </trkpt>
      <trkpt lat="46.20149" lon="6.29707">
        <ele>578.79998779297</ele>
        <time>2020-02-23T14:54:33Z</time>
      </trkpt>
      <trkpt lat="46.20147" lon="6.29706">
        <ele>579</ele>
        <time>2020-02-23T14:54:34Z</time>
      </trkpt>
      <trkpt lat="46.20144" lon="6.29706">
        <ele>579.20001220703</ele>
        <time>2020-02-23T14:54:35Z</time>
      </trkpt>
      <trkpt lat="46.20141" lon="6.29705">
        <ele>579.20001220703</ele>
        <time>2020-02-23T14:54:36Z</time>
      </trkpt>
      <trkpt lat="46.20139" lon="6.29704">
        <ele>579.59997558594</ele>
        <time>2020-02-23T14:54:37Z</time>
      </trkpt>
      <trkpt lat="46.20136" lon="6.29704">
        <ele>580</ele>
        <time>2020-02-23T14:54:38Z</time>
      </trkpt>
      <trkpt lat="46.20134" lon="6.29704">
        <ele>580.20001220703</ele>
        <time>2020-02-23T14:54:39Z</time>
      </trkpt>
      <trkpt lat="46.20131" lon="6.29703">
        <ele>580.40002441406</ele>
        <time>2020-02-23T14:54:40Z</time>
      </trkpt>
      <trkpt lat="46.20128" lon="6.29703">
        <ele>580.59997558594</ele>
        <time>2020-02-23T14:54:41Z</time>
      </trkpt>
      <trkpt lat="46.20126" lon="6.29703">
        <ele>580.59997558594</ele>
        <time>2020-02-23T14:54:42Z</time>
      </trkpt>
      <trkpt lat="46.20124" lon="6.29702">
        <ele>580.59997558594</ele>
        <time>2020-02-23T14:54:43Z</time>
      </trkpt>
      <trkpt lat="46.20121" lon="6.29702">
        <ele>580.79998779297</ele>
        <time>2020-02-23T14:54:44Z</time>
      </trkpt>
      <trkpt lat="46.20119" lon="6.29702">
        <ele>580.79998779297</ele>
        <time>2020-02-23T14:54:45Z</time>
      </trkpt>
      <trkpt lat="46.20116" lon="6.29701">
        <ele>581</ele>
        <time>2020-02-23T14:54:46Z</time>
      </trkpt>
      <trkpt lat="46.20114" lon="6.29701">
        <ele>581</ele>
        <time>2020-02-23T14:54:47Z</time>
      </trkpt>
      <trkpt lat="46.20111" lon="6.29701">
        <ele>581.20001220703</ele>
        <time>2020-02-23T14:54:48Z</time>
      </trkpt>
      <trkpt lat="46.20109" lon="6.297">
        <ele>581.40002441406</ele>
        <time>2020-02-23T14:54:49Z</time>
      </trkpt>
      <trkpt lat="46.20106" lon="6.297">
        <ele>581.40002441406</ele>
        <time>2020-02-23T14:54:50Z</time>
      </trkpt>
      <trkpt lat="46.20104" lon="6.29699">
        <ele>581.40002441406</ele>
        <time>2020-02-23T14:54:51Z</time>
      </trkpt>
      <trkpt lat="46.20099" lon="6.29698">
        <ele>581.59997558594</ele>
        <time>2020-02-23T14:54:53Z</time>
      </trkpt>
      <trkpt lat="46.20091" lon="6.29697">
        <ele>582.20001220703</ele>
        <time>2020-02-23T14:54:56Z</time>
      </trkpt>
      <trkpt lat="46.20088" lon="6.29696">
        <ele>582.20001220703</ele>
        <time>2020-02-23T14:54:57Z</time>
      </trkpt>
      <trkpt lat="46.20083" lon="6.29694">
        <ele>582.40002441406</ele>
        <time>2020-02-23T14:54:59Z</time>
      </trkpt>
      <trkpt lat="46.20078" lon="6.29693">
        <ele>582.59997558594</ele>
        <time>2020-02-23T14:55:01Z</time>
      </trkpt>
      <trkpt lat="46.20075" lon="6.29692">
        <ele>582.59997558594</ele>
        <time>2020-02-23T14:55:02Z</time>
      </trkpt>
      <trkpt lat="46.20072" lon="6.29691">
        <ele>582.79998779297</ele>
        <time>2020-02-23T14:55:03Z</time>
      </trkpt>
      <trkpt lat="46.20069" lon="6.29691">
        <ele>582.79998779297</ele>
        <time>2020-02-23T14:55:04Z</time>
      </trkpt>
      <trkpt lat="46.20066" lon="6.2969">
        <ele>583</ele>
        <time>2020-02-23T14:55:05Z</time>
      </trkpt>
      <trkpt lat="46.20063" lon="6.2969">
        <ele>583.20001220703</ele>
        <time>2020-02-23T14:55:06Z</time>
      </trkpt>
      <trkpt lat="46.2006" lon="6.29689">
        <ele>583.40002441406</ele>
        <time>2020-02-23T14:55:07Z</time>
      </trkpt>
      <trkpt lat="46.20058" lon="6.29689">
        <ele>583.40002441406</ele>
        <time>2020-02-23T14:55:08Z</time>
      </trkpt>
      <trkpt lat="46.20055" lon="6.29688">
        <ele>583.40002441406</ele>
        <time>2020-02-23T14:55:09Z</time>
      </trkpt>
      <trkpt lat="46.20052" lon="6.29688">
        <ele>583.59997558594</ele>
        <time>2020-02-23T14:55:10Z</time>
      </trkpt>
      <trkpt lat="46.20049" lon="6.29687">
        <ele>583.79998779297</ele>
        <time>2020-02-23T14:55:11Z</time>
      </trkpt>
      <trkpt lat="46.20045" lon="6.29687">
        <ele>584.20001220703</ele>
        <time>2020-02-23T14:55:12Z</time>
      </trkpt>
      <trkpt lat="46.20042" lon="6.29686">
        <ele>584.20001220703</ele>
        <time>2020-02-23T14:55:13Z</time>
      </trkpt>
      <trkpt lat="46.20039" lon="6.29685">
        <ele>584.40002441406</ele>
        <time>2020-02-23T14:55:14Z</time>
      </trkpt>
      <trkpt lat="46.20037" lon="6.29684">
        <ele>584.40002441406</ele>
        <time>2020-02-23T14:55:15Z</time>
      </trkpt>
      <trkpt lat="46.20034" lon="6.29683">
        <ele>584.59997558594</ele>
        <time>2020-02-23T14:55:16Z</time>
      </trkpt>
      <trkpt lat="46.20031" lon="6.29682">
        <ele>584.59997558594</ele>
        <time>2020-02-23T14:55:17Z</time>
      </trkpt>
      <trkpt lat="46.20028" lon="6.29681">
        <ele>584.59997558594</ele>
        <time>2020-02-23T14:55:18Z</time>
      </trkpt>
      <trkpt lat="46.20026" lon="6.29681">
        <ele>585</ele>
        <time>2020-02-23T14:55:19Z</time>
      </trkpt>
      <trkpt lat="46.20023" lon="6.2968">
        <ele>585</ele>
        <time>2020-02-23T14:55:20Z</time>
      </trkpt>
      <trkpt lat="46.2002" lon="6.2968">
        <ele>585.20001220703</ele>
        <time>2020-02-23T14:55:21Z</time>
      </trkpt>
      <trkpt lat="46.20018" lon="6.29679">
        <ele>585.20001220703</ele>
        <time>2020-02-23T14:55:22Z</time>
      </trkpt>
      <trkpt lat="46.20015" lon="6.29679">
        <ele>585.20001220703</ele>
        <time>2020-02-23T14:55:23Z</time>
      </trkpt>
      <trkpt lat="46.20012" lon="6.29678">
        <ele>585.40002441406</ele>
        <time>2020-02-23T14:55:24Z</time>
      </trkpt>
      <trkpt lat="46.20009" lon="6.29678">
        <ele>585.79998779297</ele>
        <time>2020-02-23T14:55:25Z</time>
      </trkpt>
      <trkpt lat="46.20006" lon="6.29678">
        <ele>585.79998779297</ele>
        <time>2020-02-23T14:55:26Z</time>
      </trkpt>
      <trkpt lat="46.20003" lon="6.29678">
        <ele>586</ele>
        <time>2020-02-23T14:55:27Z</time>
      </trkpt>
      <trkpt lat="46.2" lon="6.29677">
        <ele>586.20001220703</ele>
        <time>2020-02-23T14:55:28Z</time>
      </trkpt>
      <trkpt lat="46.19997" lon="6.29677">
        <ele>586.20001220703</ele>
        <time>2020-02-23T14:55:29Z</time>
      </trkpt>
      <trkpt lat="46.19995" lon="6.29677">
        <ele>586.59997558594</ele>
        <time>2020-02-23T14:55:30Z</time>
      </trkpt>
      <trkpt lat="46.19992" lon="6.29677">
        <ele>586.59997558594</ele>
        <time>2020-02-23T14:55:31Z</time>
      </trkpt>
      <trkpt lat="46.19989" lon="6.29677">
        <ele>586.59997558594</ele>
        <time>2020-02-23T14:55:32Z</time>
      </trkpt>
      <trkpt lat="46.19986" lon="6.29677">
        <ele>586.59997558594</ele>
        <time>2020-02-23T14:55:33Z</time>
      </trkpt>
      <trkpt lat="46.19983" lon="6.29677">
        <ele>586.59997558594</ele>
        <time>2020-02-23T14:55:34Z</time>
      </trkpt>
      <trkpt lat="46.1998" lon="6.29678">
        <ele>587</ele>
        <time>2020-02-23T14:55:35Z</time>
      </trkpt>
      <trkpt lat="46.19977" lon="6.29678">
        <ele>587.20001220703</ele>
        <time>2020-02-23T14:55:36Z</time>
      </trkpt>
      <trkpt lat="46.19975" lon="6.29679">
        <ele>587.20001220703</ele>
        <time>2020-02-23T14:55:37Z</time>
      </trkpt>
      <trkpt lat="46.19969" lon="6.29681">
        <ele>587.40002441406</ele>
        <time>2020-02-23T14:55:39Z</time>
      </trkpt>
      <trkpt lat="46.19966" lon="6.29681">
        <ele>587.40002441406</ele>
        <time>2020-02-23T14:55:40Z</time>
      </trkpt>
      <trkpt lat="46.19963" lon="6.29682">
        <ele>587.59997558594</ele>
        <time>2020-02-23T14:55:41Z</time>
      </trkpt>
      <trkpt lat="46.1996" lon="6.29683">
        <ele>587.59997558594</ele>
        <time>2020-02-23T14:55:42Z</time>
      </trkpt>
      <trkpt lat="46.19957" lon="6.29683">
        <ele>587.79998779297</ele>
        <time>2020-02-23T14:55:43Z</time>
      </trkpt>
      <trkpt lat="46.19954" lon="6.29684">
        <ele>588</ele>
        <time>2020-02-23T14:55:44Z</time>
      </trkpt>
      <trkpt lat="46.19951" lon="6.29685">
        <ele>588</ele>
        <time>2020-02-23T14:55:45Z</time>
      </trkpt>
      <trkpt lat="46.19948" lon="6.29685">
        <ele>588.20001220703</ele>
        <time>2020-02-23T14:55:46Z</time>
      </trkpt>
      <trkpt lat="46.19946" lon="6.29686">
        <ele>588.20001220703</ele>
        <time>2020-02-23T14:55:47Z</time>
      </trkpt>
      <trkpt lat="46.19944" lon="6.29686">
        <ele>588.40002441406</ele>
        <time>2020-02-23T14:55:48Z</time>
      </trkpt>
      <trkpt lat="46.19941" lon="6.29686">
        <ele>588.40002441406</ele>
        <time>2020-02-23T14:55:49Z</time>
      </trkpt>
      <trkpt lat="46.19939" lon="6.29686">
        <ele>588.59997558594</ele>
        <time>2020-02-23T14:55:50Z</time>
      </trkpt>
      <trkpt lat="46.19937" lon="6.29686">
        <ele>588.79998779297</ele>
        <time>2020-02-23T14:55:51Z</time>
      </trkpt>
      <trkpt lat="46.19935" lon="6.29686">
        <ele>589</ele>
        <time>2020-02-23T14:55:52Z</time>
      </trkpt>
      <trkpt lat="46.1993" lon="6.29687">
        <ele>589</ele>
        <time>2020-02-23T14:55:54Z</time>
      </trkpt>
      <trkpt lat="46.1991" lon="6.2969">
        <ele>589.59997558594</ele>
        <time>2020-02-23T14:56:01Z</time>
      </trkpt>
      <trkpt lat="46.19907" lon="6.2969">
        <ele>589.59997558594</ele>
        <time>2020-02-23T14:56:02Z</time>
      </trkpt>
      <trkpt lat="46.19899" lon="6.2969">
        <ele>589.79998779297</ele>
        <time>2020-02-23T14:56:05Z</time>
      </trkpt>
      <trkpt lat="46.19896" lon="6.2969">
        <ele>590</ele>
        <time>2020-02-23T14:56:06Z</time>
      </trkpt>
      <trkpt lat="46.19893" lon="6.2969">
        <ele>590</ele>
        <time>2020-02-23T14:56:07Z</time>
      </trkpt>
      <trkpt lat="46.19891" lon="6.29691">
        <ele>590.20001220703</ele>
        <time>2020-02-23T14:56:08Z</time>
      </trkpt>
      <trkpt lat="46.19889" lon="6.29691">
        <ele>590.20001220703</ele>
        <time>2020-02-23T14:56:09Z</time>
      </trkpt>
      <trkpt lat="46.19887" lon="6.29692">
        <ele>590.20001220703</ele>
        <time>2020-02-23T14:56:10Z</time>
      </trkpt>
      <trkpt lat="46.19884" lon="6.29693">
        <ele>590.20001220703</ele>
        <time>2020-02-23T14:56:11Z</time>
      </trkpt>
      <trkpt lat="46.19882" lon="6.29694">
        <ele>590.40002441406</ele>
        <time>2020-02-23T14:56:12Z</time>
      </trkpt>
      <trkpt lat="46.19879" lon="6.29695">
        <ele>590.20001220703</ele>
        <time>2020-02-23T14:56:13Z</time>
      </trkpt>
      <trkpt lat="46.19877" lon="6.29695">
        <ele>590.59997558594</ele>
        <time>2020-02-23T14:56:14Z</time>
      </trkpt>
      <trkpt lat="46.19874" lon="6.29695">
        <ele>590.79998779297</ele>
        <time>2020-02-23T14:56:15Z</time>
      </trkpt>
      <trkpt lat="46.19871" lon="6.29695">
        <ele>591</ele>
        <time>2020-02-23T14:56:16Z</time>
      </trkpt>
      <trkpt lat="46.19868" lon="6.29695">
        <ele>591.40002441406</ele>
        <time>2020-02-23T14:56:17Z</time>
      </trkpt>
      <trkpt lat="46.19862" lon="6.29695">
        <ele>591.79998779297</ele>
        <time>2020-02-23T14:56:19Z</time>
      </trkpt>
      <trkpt lat="46.19857" lon="6.29696">
        <ele>592.20001220703</ele>
        <time>2020-02-23T14:56:21Z</time>
      </trkpt>
      <trkpt lat="46.19854" lon="6.29696">
        <ele>592.20001220703</ele>
        <time>2020-02-23T14:56:22Z</time>
      </trkpt>
      <trkpt lat="46.19851" lon="6.29696">
        <ele>592.40002441406</ele>
        <time>2020-02-23T14:56:23Z</time>
      </trkpt>
      <trkpt lat="46.19848" lon="6.29696">
        <ele>592.40002441406</ele>
        <time>2020-02-23T14:56:24Z</time>
      </trkpt>
      <trkpt lat="46.19845" lon="6.29696">
        <ele>592.59997558594</ele>
        <time>2020-02-23T14:56:25Z</time>
      </trkpt>
      <trkpt lat="46.19842" lon="6.29697">
        <ele>592.59997558594</ele>
        <time>2020-02-23T14:56:26Z</time>
      </trkpt>
      <trkpt lat="46.19839" lon="6.29697">
        <ele>592.59997558594</ele>
        <time>2020-02-23T14:56:27Z</time>
      </trkpt>
      <trkpt lat="46.19836" lon="6.29697">
        <ele>592.79998779297</ele>
        <time>2020-02-23T14:56:28Z</time>
      </trkpt>
      <trkpt lat="46.19833" lon="6.29698">
        <ele>592.79998779297</ele>
        <time>2020-02-23T14:56:29Z</time>
      </trkpt>
      <trkpt lat="46.19831" lon="6.29698">
        <ele>593</ele>
        <time>2020-02-23T14:56:30Z</time>
      </trkpt>
      <trkpt lat="46.19828" lon="6.29698">
        <ele>592.79998779297</ele>
        <time>2020-02-23T14:56:31Z</time>
      </trkpt>
      <trkpt lat="46.19826" lon="6.29698">
        <ele>593</ele>
        <time>2020-02-23T14:56:32Z</time>
      </trkpt>
      <trkpt lat="46.1982" lon="6.29698">
        <ele>593.20001220703</ele>
        <time>2020-02-23T14:56:34Z</time>
      </trkpt>
      <trkpt lat="46.19817" lon="6.29698">
        <ele>593.40002441406</ele>
        <time>2020-02-23T14:56:35Z</time>
      </trkpt>
      <trkpt lat="46.19815" lon="6.29699">
        <ele>593.40002441406</ele>
        <time>2020-02-23T14:56:36Z</time>
      </trkpt>
      <trkpt lat="46.19812" lon="6.29699">
        <ele>593.59997558594</ele>
        <time>2020-02-23T14:56:37Z</time>
      </trkpt>
      <trkpt lat="46.19809" lon="6.297">
        <ele>593.59997558594</ele>
        <time>2020-02-23T14:56:38Z</time>
      </trkpt>
      <trkpt lat="46.19806" lon="6.297">
        <ele>593.79998779297</ele>
        <time>2020-02-23T14:56:39Z</time>
      </trkpt>
      <trkpt lat="46.19803" lon="6.297">
        <ele>593.79998779297</ele>
        <time>2020-02-23T14:56:40Z</time>
      </trkpt>
      <trkpt lat="46.198" lon="6.297">
        <ele>594</ele>
        <time>2020-02-23T14:56:41Z</time>
      </trkpt>
      <trkpt lat="46.19797" lon="6.297">
        <ele>594.20001220703</ele>
        <time>2020-02-23T14:56:42Z</time>
      </trkpt>
      <trkpt lat="46.19794" lon="6.29701">
        <ele>594.20001220703</ele>
        <time>2020-02-23T14:56:43Z</time>
      </trkpt>
      <trkpt lat="46.1979" lon="6.29701">
        <ele>594.59997558594</ele>
        <time>2020-02-23T14:56:44Z</time>
      </trkpt>
      <trkpt lat="46.19787" lon="6.29701">
        <ele>594.79998779297</ele>
        <time>2020-02-23T14:56:45Z</time>
      </trkpt>
      <trkpt lat="46.1978" lon="6.297">
        <ele>594.79998779297</ele>
        <time>2020-02-23T14:56:47Z</time>
      </trkpt>
      <trkpt lat="46.19776" lon="6.29699">
        <ele>595</ele>
        <time>2020-02-23T14:56:48Z</time>
      </trkpt>
      <trkpt lat="46.19773" lon="6.29698">
        <ele>595</ele>
        <time>2020-02-23T14:56:49Z</time>
      </trkpt>
      <trkpt lat="46.1977" lon="6.29698">
        <ele>595</ele>
        <time>2020-02-23T14:56:50Z</time>
      </trkpt>
      <trkpt lat="46.19768" lon="6.29697">
        <ele>595.20001220703</ele>
        <time>2020-02-23T14:56:51Z</time>
      </trkpt>
      <trkpt lat="46.19765" lon="6.29697">
        <ele>595.40002441406</ele>
        <time>2020-02-23T14:56:52Z</time>
      </trkpt>
      <trkpt lat="46.19763" lon="6.29697">
        <ele>595.40002441406</ele>
        <time>2020-02-23T14:56:53Z</time>
      </trkpt>
      <trkpt lat="46.19761" lon="6.29696">
        <ele>595.40002441406</ele>
        <time>2020-02-23T14:56:54Z</time>
      </trkpt>
      <trkpt lat="46.19759" lon="6.29696">
        <ele>595.40002441406</ele>
        <time>2020-02-23T14:56:55Z</time>
      </trkpt>
      <trkpt lat="46.19749" lon="6.29696">
        <ele>595.40002441406</ele>
        <time>2020-02-23T14:56:59Z</time>
      </trkpt>
      <trkpt lat="46.19746" lon="6.29696">
        <ele>595.59997558594</ele>
        <time>2020-02-23T14:57:00Z</time>
      </trkpt>
      <trkpt lat="46.19743" lon="6.29697">
        <ele>595.40002441406</ele>
        <time>2020-02-23T14:57:01Z</time>
      </trkpt>
      <trkpt lat="46.19737" lon="6.29699">
        <ele>595.40002441406</ele>
        <time>2020-02-23T14:57:03Z</time>
      </trkpt>
      <trkpt lat="46.19723" lon="6.29704">
        <ele>595.40002441406</ele>
        <time>2020-02-23T14:57:07Z</time>
      </trkpt>
      <trkpt lat="46.19719" lon="6.29706">
        <ele>595.20001220703</ele>
        <time>2020-02-23T14:57:08Z</time>
      </trkpt>
      <trkpt lat="46.19706" lon="6.29713">
        <ele>595.40002441406</ele>
        <time>2020-02-23T14:57:11Z</time>
      </trkpt>
      <trkpt lat="46.19701" lon="6.29715">
        <ele>595.20001220703</ele>
        <time>2020-02-23T14:57:12Z</time>
      </trkpt>
      <trkpt lat="46.19697" lon="6.29716">
        <ele>595</ele>
        <time>2020-02-23T14:57:13Z</time>
      </trkpt>
      <trkpt lat="46.19693" lon="6.29716">
        <ele>594.79998779297</ele>
        <time>2020-02-23T14:57:14Z</time>
      </trkpt>
      <trkpt lat="46.1969" lon="6.29717">
        <ele>594.59997558594</ele>
        <time>2020-02-23T14:57:15Z</time>
      </trkpt>
      <trkpt lat="46.19687" lon="6.29717">
        <ele>594.40002441406</ele>
        <time>2020-02-23T14:57:16Z</time>
      </trkpt>
      <trkpt lat="46.19684" lon="6.29718">
        <ele>594</ele>
        <time>2020-02-23T14:57:17Z</time>
      </trkpt>
      <trkpt lat="46.19682" lon="6.29719">
        <ele>593.59997558594</ele>
        <time>2020-02-23T14:57:18Z</time>
      </trkpt>
      <trkpt lat="46.1968" lon="6.29719">
        <ele>593.40002441406</ele>
        <time>2020-02-23T14:57:19Z</time>
      </trkpt>
      <trkpt lat="46.1968" lon="6.29719">
        <ele>593</ele>
        <time>2020-02-23T14:57:20Z</time>
      </trkpt>
      <trkpt lat="46.1968" lon="6.29719">
        <ele>592.59997558594</ele>
        <time>2020-02-23T14:57:21Z</time>
      </trkpt>
      <trkpt lat="46.19681" lon="6.29719">
        <ele>591.40002441406</ele>
        <time>2020-02-23T14:57:25Z</time>
      </trkpt>
      <trkpt lat="46.19679" lon="6.29721">
        <ele>591</ele>
        <time>2020-02-23T14:57:27Z</time>
      </trkpt>
      <trkpt lat="46.19678" lon="6.29723">
        <ele>590.79998779297</ele>
        <time>2020-02-23T14:57:28Z</time>
      </trkpt>
      <trkpt lat="46.19678" lon="6.29726">
        <ele>590.79998779297</ele>
        <time>2020-02-23T14:57:29Z</time>
      </trkpt>
      <trkpt lat="46.19678" lon="6.29729">
        <ele>590.79998779297</ele>
        <time>2020-02-23T14:57:30Z</time>
      </trkpt>
      <trkpt lat="46.19679" lon="6.29732">
        <ele>590.79998779297</ele>
        <time>2020-02-23T14:57:31Z</time>
      </trkpt>
      <trkpt lat="46.1968" lon="6.29735">
        <ele>590.79998779297</ele>
        <time>2020-02-23T14:57:32Z</time>
      </trkpt>
      <trkpt lat="46.19682" lon="6.29742">
        <ele>590.79998779297</ele>
        <time>2020-02-23T14:57:34Z</time>
      </trkpt>
      <trkpt lat="46.19682" lon="6.29746">
        <ele>590.79998779297</ele>
        <time>2020-02-23T14:57:35Z</time>
      </trkpt>
      <trkpt lat="46.19682" lon="6.2975">
        <ele>590.79998779297</ele>
        <time>2020-02-23T14:57:36Z</time>
      </trkpt>
      <trkpt lat="46.19683" lon="6.29754">
        <ele>590.79998779297</ele>
        <time>2020-02-23T14:57:37Z</time>
      </trkpt>
      <trkpt lat="46.19683" lon="6.29758">
        <ele>590.79998779297</ele>
        <time>2020-02-23T14:57:38Z</time>
      </trkpt>
      <trkpt lat="46.19683" lon="6.29762">
        <ele>591</ele>
        <time>2020-02-23T14:57:39Z</time>
      </trkpt>
      <trkpt lat="46.19685" lon="6.29771">
        <ele>591</ele>
        <time>2020-02-23T14:57:41Z</time>
      </trkpt>
      <trkpt lat="46.19687" lon="6.29775">
        <ele>591.20001220703</ele>
        <time>2020-02-23T14:57:42Z</time>
      </trkpt>
      <trkpt lat="46.19689" lon="6.29778">
        <ele>591.40002441406</ele>
        <time>2020-02-23T14:57:43Z</time>
      </trkpt>
      <trkpt lat="46.19691" lon="6.29781">
        <ele>591.59997558594</ele>
        <time>2020-02-23T14:57:44Z</time>
      </trkpt>
      <trkpt lat="46.19693" lon="6.29784">
        <ele>591.59997558594</ele>
        <time>2020-02-23T14:57:45Z</time>
      </trkpt>
      <trkpt lat="46.19695" lon="6.29787">
        <ele>591.59997558594</ele>
        <time>2020-02-23T14:57:46Z</time>
      </trkpt>
      <trkpt lat="46.19697" lon="6.2979">
        <ele>591.79998779297</ele>
        <time>2020-02-23T14:57:47Z</time>
      </trkpt>
      <trkpt lat="46.19699" lon="6.29794">
        <ele>592</ele>
        <time>2020-02-23T14:57:48Z</time>
      </trkpt>
      <trkpt lat="46.197" lon="6.29798">
        <ele>592</ele>
        <time>2020-02-23T14:57:49Z</time>
      </trkpt>
      <trkpt lat="46.19702" lon="6.29801">
        <ele>592.20001220703</ele>
        <time>2020-02-23T14:57:50Z</time>
      </trkpt>
      <trkpt lat="46.19703" lon="6.29804">
        <ele>592.20001220703</ele>
        <time>2020-02-23T14:57:51Z</time>
      </trkpt>
      <trkpt lat="46.19704" lon="6.29808">
        <ele>592.40002441406</ele>
        <time>2020-02-23T14:57:52Z</time>
      </trkpt>
      <trkpt lat="46.19705" lon="6.29812">
        <ele>592.59997558594</ele>
        <time>2020-02-23T14:57:53Z</time>
      </trkpt>
      <trkpt lat="46.19705" lon="6.29816">
        <ele>592.79998779297</ele>
        <time>2020-02-23T14:57:54Z</time>
      </trkpt>
      <trkpt lat="46.19705" lon="6.2982">
        <ele>593.20001220703</ele>
        <time>2020-02-23T14:57:55Z</time>
      </trkpt>
      <trkpt lat="46.19706" lon="6.29823">
        <ele>593.40002441406</ele>
        <time>2020-02-23T14:57:56Z</time>
      </trkpt>
      <trkpt lat="46.19707" lon="6.29827">
        <ele>593.59997558594</ele>
        <time>2020-02-23T14:57:57Z</time>
      </trkpt>
      <trkpt lat="46.19709" lon="6.2983">
        <ele>593.59997558594</ele>
        <time>2020-02-23T14:57:58Z</time>
      </trkpt>
      <trkpt lat="46.1971" lon="6.29834">
        <ele>593.59997558594</ele>
        <time>2020-02-23T14:57:59Z</time>
      </trkpt>
      <trkpt lat="46.19711" lon="6.29837">
        <ele>594</ele>
        <time>2020-02-23T14:58:00Z</time>
      </trkpt>
      <trkpt lat="46.19712" lon="6.29841">
        <ele>594.40002441406</ele>
        <time>2020-02-23T14:58:01Z</time>
      </trkpt>
      <trkpt lat="46.19714" lon="6.29844">
        <ele>594.59997558594</ele>
        <time>2020-02-23T14:58:02Z</time>
      </trkpt>
      <trkpt lat="46.19715" lon="6.29847">
        <ele>594.59997558594</ele>
        <time>2020-02-23T14:58:03Z</time>
      </trkpt>
      <trkpt lat="46.19716" lon="6.29849">
        <ele>594.59997558594</ele>
        <time>2020-02-23T14:58:04Z</time>
      </trkpt>
      <trkpt lat="46.19718" lon="6.29852">
        <ele>595</ele>
        <time>2020-02-23T14:58:05Z</time>
      </trkpt>
      <trkpt lat="46.1972" lon="6.29855">
        <ele>595.40002441406</ele>
        <time>2020-02-23T14:58:06Z</time>
      </trkpt>
      <trkpt lat="46.19721" lon="6.29858">
        <ele>595.59997558594</ele>
        <time>2020-02-23T14:58:07Z</time>
      </trkpt>
      <trkpt lat="46.19723" lon="6.29861">
        <ele>595.79998779297</ele>
        <time>2020-02-23T14:58:08Z</time>
      </trkpt>
      <trkpt lat="46.19725" lon="6.29864">
        <ele>596.20001220703</ele>
        <time>2020-02-23T14:58:09Z</time>
      </trkpt>
      <trkpt lat="46.19726" lon="6.29867">
        <ele>596.40002441406</ele>
        <time>2020-02-23T14:58:10Z</time>
      </trkpt>
      <trkpt lat="46.19728" lon="6.29869">
        <ele>596.59997558594</ele>
        <time>2020-02-23T14:58:11Z</time>
      </trkpt>
      <trkpt lat="46.1973" lon="6.29872">
        <ele>596.59997558594</ele>
        <time>2020-02-23T14:58:12Z</time>
      </trkpt>
      <trkpt lat="46.19731" lon="6.29874">
        <ele>596.79998779297</ele>
        <time>2020-02-23T14:58:13Z</time>
      </trkpt>
      <trkpt lat="46.19733" lon="6.29877">
        <ele>597</ele>
        <time>2020-02-23T14:58:14Z</time>
      </trkpt>
      <trkpt lat="46.19736" lon="6.29879">
        <ele>597.20001220703</ele>
        <time>2020-02-23T14:58:15Z</time>
      </trkpt>
      <trkpt lat="46.19738" lon="6.29881">
        <ele>597.79998779297</ele>
        <time>2020-02-23T14:58:16Z</time>
      </trkpt>
      <trkpt lat="46.1974" lon="6.29883">
        <ele>598</ele>
        <time>2020-02-23T14:58:17Z</time>
      </trkpt>
      <trkpt lat="46.19742" lon="6.29885">
        <ele>598.20001220703</ele>
        <time>2020-02-23T14:58:18Z</time>
      </trkpt>
      <trkpt lat="46.19745" lon="6.29887">
        <ele>598.59997558594</ele>
        <time>2020-02-23T14:58:19Z</time>
      </trkpt>
      <trkpt lat="46.19747" lon="6.29889">
        <ele>598.79998779297</ele>
        <time>2020-02-23T14:58:20Z</time>
      </trkpt>
      <trkpt lat="46.19749" lon="6.2989">
        <ele>599.20001220703</ele>
        <time>2020-02-23T14:58:21Z</time>
      </trkpt>
      <trkpt lat="46.19751" lon="6.29892">
        <ele>599.59997558594</ele>
        <time>2020-02-23T14:58:22Z</time>
      </trkpt>
      <trkpt lat="46.19754" lon="6.29893">
        <ele>599.59997558594</ele>
        <time>2020-02-23T14:58:23Z</time>
      </trkpt>
      <trkpt lat="46.19756" lon="6.29894">
        <ele>599.79998779297</ele>
        <time>2020-02-23T14:58:24Z</time>
      </trkpt>
      <trkpt lat="46.19758" lon="6.29895">
        <ele>600.20001220703</ele>
        <time>2020-02-23T14:58:25Z</time>
      </trkpt>
      <trkpt lat="46.1976" lon="6.29896">
        <ele>600.40002441406</ele>
        <time>2020-02-23T14:58:26Z</time>
      </trkpt>
      <trkpt lat="46.19763" lon="6.29897">
        <ele>600.59997558594</ele>
        <time>2020-02-23T14:58:27Z</time>
      </trkpt>
      <trkpt lat="46.19765" lon="6.29898">
        <ele>601</ele>
        <time>2020-02-23T14:58:28Z</time>
      </trkpt>
      <trkpt lat="46.19767" lon="6.29899">
        <ele>601.20001220703</ele>
        <time>2020-02-23T14:58:29Z</time>
      </trkpt>
      <trkpt lat="46.19769" lon="6.299">
        <ele>601.40002441406</ele>
        <time>2020-02-23T14:58:30Z</time>
      </trkpt>
      <trkpt lat="46.19771" lon="6.29901">
        <ele>601.79998779297</ele>
        <time>2020-02-23T14:58:31Z</time>
      </trkpt>
      <trkpt lat="46.19773" lon="6.29902">
        <ele>602</ele>
        <time>2020-02-23T14:58:32Z</time>
      </trkpt>
      <trkpt lat="46.19775" lon="6.29903">
        <ele>602.40002441406</ele>
        <time>2020-02-23T14:58:33Z</time>
      </trkpt>
      <trkpt lat="46.19776" lon="6.29904">
        <ele>602.59997558594</ele>
        <time>2020-02-23T14:58:34Z</time>
      </trkpt>
      <trkpt lat="46.19778" lon="6.29905">
        <ele>603</ele>
        <time>2020-02-23T14:58:35Z</time>
      </trkpt>
      <trkpt lat="46.1978" lon="6.29906">
        <ele>603.20001220703</ele>
        <time>2020-02-23T14:58:36Z</time>
      </trkpt>
      <trkpt lat="46.19783" lon="6.29906">
        <ele>603.40002441406</ele>
        <time>2020-02-23T14:58:37Z</time>
      </trkpt>
      <trkpt lat="46.19785" lon="6.29907">
        <ele>604</ele>
        <time>2020-02-23T14:58:38Z</time>
      </trkpt>
      <trkpt lat="46.19787" lon="6.29908">
        <ele>604.20001220703</ele>
        <time>2020-02-23T14:58:39Z</time>
      </trkpt>
      <trkpt lat="46.19789" lon="6.29909">
        <ele>604.40002441406</ele>
        <time>2020-02-23T14:58:40Z</time>
      </trkpt>
      <trkpt lat="46.19791" lon="6.2991">
        <ele>604.40002441406</ele>
        <time>2020-02-23T14:58:41Z</time>
      </trkpt>
      <trkpt lat="46.19793" lon="6.29911">
        <ele>604.79998779297</ele>
        <time>2020-02-23T14:58:42Z</time>
      </trkpt>
      <trkpt lat="46.19795" lon="6.29912">
        <ele>605</ele>
        <time>2020-02-23T14:58:43Z</time>
      </trkpt>
      <trkpt lat="46.19797" lon="6.29913">
        <ele>605.20001220703</ele>
        <time>2020-02-23T14:58:44Z</time>
      </trkpt>
      <trkpt lat="46.19799" lon="6.29914">
        <ele>605.40002441406</ele>
        <time>2020-02-23T14:58:45Z</time>
      </trkpt>
      <trkpt lat="46.19801" lon="6.29915">
        <ele>605.59997558594</ele>
        <time>2020-02-23T14:58:46Z</time>
      </trkpt>
      <trkpt lat="46.19804" lon="6.29916">
        <ele>605.79998779297</ele>
        <time>2020-02-23T14:58:47Z</time>
      </trkpt>
      <trkpt lat="46.19806" lon="6.29916">
        <ele>605.79998779297</ele>
        <time>2020-02-23T14:58:48Z</time>
      </trkpt>
      <trkpt lat="46.19807" lon="6.29917">
        <ele>605.79998779297</ele>
        <time>2020-02-23T14:58:49Z</time>
      </trkpt>
      <trkpt lat="46.19809" lon="6.29918">
        <ele>606</ele>
        <time>2020-02-23T14:58:50Z</time>
      </trkpt>
      <trkpt lat="46.19811" lon="6.29919">
        <ele>606.40002441406</ele>
        <time>2020-02-23T14:58:51Z</time>
      </trkpt>
      <trkpt lat="46.19813" lon="6.2992">
        <ele>606.59997558594</ele>
        <time>2020-02-23T14:58:52Z</time>
      </trkpt>
      <trkpt lat="46.19815" lon="6.29921">
        <ele>606.79998779297</ele>
        <time>2020-02-23T14:58:53Z</time>
      </trkpt>
      <trkpt lat="46.19817" lon="6.29923">
        <ele>607</ele>
        <time>2020-02-23T14:58:54Z</time>
      </trkpt>
      <trkpt lat="46.19819" lon="6.29924">
        <ele>607.20001220703</ele>
        <time>2020-02-23T14:58:55Z</time>
      </trkpt>
      <trkpt lat="46.19821" lon="6.29925">
        <ele>607.40002441406</ele>
        <time>2020-02-23T14:58:56Z</time>
      </trkpt>
      <trkpt lat="46.19823" lon="6.29926">
        <ele>607.59997558594</ele>
        <time>2020-02-23T14:58:57Z</time>
      </trkpt>
      <trkpt lat="46.19825" lon="6.29927">
        <ele>607.79998779297</ele>
        <time>2020-02-23T14:58:58Z</time>
      </trkpt>
      <trkpt lat="46.19827" lon="6.29928">
        <ele>608.20001220703</ele>
        <time>2020-02-23T14:58:59Z</time>
      </trkpt>
      <trkpt lat="46.19829" lon="6.2993">
        <ele>608.40002441406</ele>
        <time>2020-02-23T14:59:00Z</time>
      </trkpt>
      <trkpt lat="46.19831" lon="6.29931">
        <ele>608.79998779297</ele>
        <time>2020-02-23T14:59:01Z</time>
      </trkpt>
      <trkpt lat="46.19833" lon="6.29932">
        <ele>608.79998779297</ele>
        <time>2020-02-23T14:59:02Z</time>
      </trkpt>
      <trkpt lat="46.19835" lon="6.29933">
        <ele>609.20001220703</ele>
        <time>2020-02-23T14:59:03Z</time>
      </trkpt>
      <trkpt lat="46.19838" lon="6.29934">
        <ele>609.40002441406</ele>
        <time>2020-02-23T14:59:04Z</time>
      </trkpt>
      <trkpt lat="46.1984" lon="6.29935">
        <ele>609.59997558594</ele>
        <time>2020-02-23T14:59:05Z</time>
      </trkpt>
      <trkpt lat="46.19842" lon="6.29937">
        <ele>609.79998779297</ele>
        <time>2020-02-23T14:59:06Z</time>
      </trkpt>
      <trkpt lat="46.19844" lon="6.29938">
        <ele>610</ele>
        <time>2020-02-23T14:59:07Z</time>
      </trkpt>
      <trkpt lat="46.19845" lon="6.2994">
        <ele>610.40002441406</ele>
        <time>2020-02-23T14:59:08Z</time>
      </trkpt>
      <trkpt lat="46.19847" lon="6.29941">
        <ele>610.59997558594</ele>
        <time>2020-02-23T14:59:09Z</time>
      </trkpt>
      <trkpt lat="46.19849" lon="6.29942">
        <ele>611</ele>
        <time>2020-02-23T14:59:10Z</time>
      </trkpt>
      <trkpt lat="46.1985" lon="6.29943">
        <ele>611.20001220703</ele>
        <time>2020-02-23T14:59:11Z</time>
      </trkpt>
      <trkpt lat="46.19852" lon="6.29945">
        <ele>611.20001220703</ele>
        <time>2020-02-23T14:59:12Z</time>
      </trkpt>
      <trkpt lat="46.19854" lon="6.29946">
        <ele>611.40002441406</ele>
        <time>2020-02-23T14:59:13Z</time>
      </trkpt>
      <trkpt lat="46.19856" lon="6.29947">
        <ele>611.59997558594</ele>
        <time>2020-02-23T14:59:14Z</time>
      </trkpt>
      <trkpt lat="46.19858" lon="6.29948">
        <ele>611.59997558594</ele>
        <time>2020-02-23T14:59:15Z</time>
      </trkpt>
      <trkpt lat="46.1986" lon="6.29949">
        <ele>611.79998779297</ele>
        <time>2020-02-23T14:59:16Z</time>
      </trkpt>
      <trkpt lat="46.19862" lon="6.29951">
        <ele>612</ele>
        <time>2020-02-23T14:59:17Z</time>
      </trkpt>
      <trkpt lat="46.19864" lon="6.29952">
        <ele>612.40002441406</ele>
        <time>2020-02-23T14:59:18Z</time>
      </trkpt>
      <trkpt lat="46.19866" lon="6.29953">
        <ele>612.40002441406</ele>
        <time>2020-02-23T14:59:19Z</time>
      </trkpt>
      <trkpt lat="46.19867" lon="6.29954">
        <ele>612.59997558594</ele>
        <time>2020-02-23T14:59:20Z</time>
      </trkpt>
      <trkpt lat="46.19869" lon="6.29955">
        <ele>613</ele>
        <time>2020-02-23T14:59:21Z</time>
      </trkpt>
      <trkpt lat="46.19871" lon="6.29957">
        <ele>613.20001220703</ele>
        <time>2020-02-23T14:59:22Z</time>
      </trkpt>
      <trkpt lat="46.19873" lon="6.29958">
        <ele>613.40002441406</ele>
        <time>2020-02-23T14:59:23Z</time>
      </trkpt>
      <trkpt lat="46.19875" lon="6.29959">
        <ele>613.79998779297</ele>
        <time>2020-02-23T14:59:24Z</time>
      </trkpt>
      <trkpt lat="46.19877" lon="6.29961">
        <ele>614</ele>
        <time>2020-02-23T14:59:25Z</time>
      </trkpt>
      <trkpt lat="46.19879" lon="6.29962">
        <ele>614.20001220703</ele>
        <time>2020-02-23T14:59:26Z</time>
      </trkpt>
      <trkpt lat="46.19881" lon="6.29964">
        <ele>614.59997558594</ele>
        <time>2020-02-23T14:59:27Z</time>
      </trkpt>
      <trkpt lat="46.19883" lon="6.29965">
        <ele>614.79998779297</ele>
        <time>2020-02-23T14:59:28Z</time>
      </trkpt>
      <trkpt lat="46.19885" lon="6.29966">
        <ele>615.20001220703</ele>
        <time>2020-02-23T14:59:29Z</time>
      </trkpt>
      <trkpt lat="46.19887" lon="6.29968">
        <ele>615.40002441406</ele>
        <time>2020-02-23T14:59:30Z</time>
      </trkpt>
      <trkpt lat="46.19889" lon="6.29969">
        <ele>615.79998779297</ele>
        <time>2020-02-23T14:59:31Z</time>
      </trkpt>
      <trkpt lat="46.19891" lon="6.29971">
        <ele>616</ele>
        <time>2020-02-23T14:59:32Z</time>
      </trkpt>
      <trkpt lat="46.19892" lon="6.29972">
        <ele>616.20001220703</ele>
        <time>2020-02-23T14:59:33Z</time>
      </trkpt>
      <trkpt lat="46.19894" lon="6.29973">
        <ele>616.59997558594</ele>
        <time>2020-02-23T14:59:34Z</time>
      </trkpt>
      <trkpt lat="46.19896" lon="6.29975">
        <ele>616.79998779297</ele>
        <time>2020-02-23T14:59:35Z</time>
      </trkpt>
      <trkpt lat="46.19898" lon="6.29976">
        <ele>617.20001220703</ele>
        <time>2020-02-23T14:59:36Z</time>
      </trkpt>
      <trkpt lat="46.19899" lon="6.29978">
        <ele>617.20001220703</ele>
        <time>2020-02-23T14:59:37Z</time>
      </trkpt>
      <trkpt lat="46.19901" lon="6.2998">
        <ele>617.59997558594</ele>
        <time>2020-02-23T14:59:38Z</time>
      </trkpt>
      <trkpt lat="46.19902" lon="6.29982">
        <ele>617.79998779297</ele>
        <time>2020-02-23T14:59:39Z</time>
      </trkpt>
      <trkpt lat="46.19904" lon="6.29984">
        <ele>618.20001220703</ele>
        <time>2020-02-23T14:59:40Z</time>
      </trkpt>
      <trkpt lat="46.19905" lon="6.29986">
        <ele>618.40002441406</ele>
        <time>2020-02-23T14:59:41Z</time>
      </trkpt>
      <trkpt lat="46.19906" lon="6.29988">
        <ele>618.79998779297</ele>
        <time>2020-02-23T14:59:42Z</time>
      </trkpt>
      <trkpt lat="46.19907" lon="6.29991">
        <ele>618.79998779297</ele>
        <time>2020-02-23T14:59:43Z</time>
      </trkpt>
      <trkpt lat="46.19907" lon="6.29993">
        <ele>619.20001220703</ele>
        <time>2020-02-23T14:59:44Z</time>
      </trkpt>
      <trkpt lat="46.19908" lon="6.29996">
        <ele>619.59997558594</ele>
        <time>2020-02-23T14:59:45Z</time>
      </trkpt>
      <trkpt lat="46.19908" lon="6.29998">
        <ele>620.20001220703</ele>
        <time>2020-02-23T14:59:46Z</time>
      </trkpt>
      <trkpt lat="46.19908" lon="6.30001">
        <ele>620.40002441406</ele>
        <time>2020-02-23T14:59:47Z</time>
      </trkpt>
      <trkpt lat="46.19907" lon="6.30003">
        <ele>620.59997558594</ele>
        <time>2020-02-23T14:59:48Z</time>
      </trkpt>
      <trkpt lat="46.19907" lon="6.30006">
        <ele>621</ele>
        <time>2020-02-23T14:59:49Z</time>
      </trkpt>
      <trkpt lat="46.19907" lon="6.30008">
        <ele>621.20001220703</ele>
        <time>2020-02-23T14:59:50Z</time>
      </trkpt>
      <trkpt lat="46.19906" lon="6.30011">
        <ele>621.40002441406</ele>
        <time>2020-02-23T14:59:51Z</time>
      </trkpt>
      <trkpt lat="46.19904" lon="6.30013">
        <ele>621.59997558594</ele>
        <time>2020-02-23T14:59:52Z</time>
      </trkpt>
      <trkpt lat="46.19903" lon="6.30016">
        <ele>621.79998779297</ele>
        <time>2020-02-23T14:59:53Z</time>
      </trkpt>
      <trkpt lat="46.19901" lon="6.30018">
        <ele>622.20001220703</ele>
        <time>2020-02-23T14:59:54Z</time>
      </trkpt>
      <trkpt lat="46.199" lon="6.30019">
        <ele>622.40002441406</ele>
        <time>2020-02-23T14:59:55Z</time>
      </trkpt>
      <trkpt lat="46.19898" lon="6.3002">
        <ele>622.59997558594</ele>
        <time>2020-02-23T14:59:56Z</time>
      </trkpt>
      <trkpt lat="46.19896" lon="6.30022">
        <ele>622.79998779297</ele>
        <time>2020-02-23T14:59:57Z</time>
      </trkpt>
      <trkpt lat="46.19895" lon="6.30023">
        <ele>623</ele>
        <time>2020-02-23T14:59:58Z</time>
      </trkpt>
      <trkpt lat="46.19893" lon="6.30025">
        <ele>623.40002441406</ele>
        <time>2020-02-23T14:59:59Z</time>
      </trkpt>
      <trkpt lat="46.19892" lon="6.30027">
        <ele>623.79998779297</ele>
        <time>2020-02-23T15:00:00Z</time>
      </trkpt>
      <trkpt lat="46.1989" lon="6.30028">
        <ele>623.79998779297</ele>
        <time>2020-02-23T15:00:01Z</time>
      </trkpt>
      <trkpt lat="46.19889" lon="6.3003">
        <ele>624</ele>
        <time>2020-02-23T15:00:02Z</time>
      </trkpt>
      <trkpt lat="46.19887" lon="6.30032">
        <ele>624.20001220703</ele>
        <time>2020-02-23T15:00:03Z</time>
      </trkpt>
      <trkpt lat="46.19886" lon="6.30034">
        <ele>624.59997558594</ele>
        <time>2020-02-23T15:00:04Z</time>
      </trkpt>
      <trkpt lat="46.19885" lon="6.30035">
        <ele>625</ele>
        <time>2020-02-23T15:00:05Z</time>
      </trkpt>
      <trkpt lat="46.19883" lon="6.30037">
        <ele>625.20001220703</ele>
        <time>2020-02-23T15:00:06Z</time>
      </trkpt>
      <trkpt lat="46.19882" lon="6.30038">
        <ele>625.59997558594</ele>
        <time>2020-02-23T15:00:07Z</time>
      </trkpt>
      <trkpt lat="46.1988" lon="6.3004">
        <ele>625.59997558594</ele>
        <time>2020-02-23T15:00:08Z</time>
      </trkpt>
      <trkpt lat="46.19879" lon="6.30041">
        <ele>626</ele>
        <time>2020-02-23T15:00:09Z</time>
      </trkpt>
      <trkpt lat="46.19878" lon="6.30043">
        <ele>626.20001220703</ele>
        <time>2020-02-23T15:00:10Z</time>
      </trkpt>
      <trkpt lat="46.19877" lon="6.30045">
        <ele>626.40002441406</ele>
        <time>2020-02-23T15:00:11Z</time>
      </trkpt>
      <trkpt lat="46.19875" lon="6.30046">
        <ele>626.79998779297</ele>
        <time>2020-02-23T15:00:12Z</time>
      </trkpt>
      <trkpt lat="46.19874" lon="6.30048">
        <ele>626.79998779297</ele>
        <time>2020-02-23T15:00:13Z</time>
      </trkpt>
      <trkpt lat="46.19873" lon="6.3005">
        <ele>627</ele>
        <time>2020-02-23T15:00:14Z</time>
      </trkpt>
      <trkpt lat="46.19871" lon="6.30051">
        <ele>627.20001220703</ele>
        <time>2020-02-23T15:00:15Z</time>
      </trkpt>
      <trkpt lat="46.1987" lon="6.30052">
        <ele>627.40002441406</ele>
        <time>2020-02-23T15:00:16Z</time>
      </trkpt>
      <trkpt lat="46.19869" lon="6.30054">
        <ele>627.59997558594</ele>
        <time>2020-02-23T15:00:17Z</time>
      </trkpt>
      <trkpt lat="46.19867" lon="6.30056">
        <ele>627.79998779297</ele>
        <time>2020-02-23T15:00:18Z</time>
      </trkpt>
      <trkpt lat="46.19866" lon="6.30057">
        <ele>627.79998779297</ele>
        <time>2020-02-23T15:00:19Z</time>
      </trkpt>
      <trkpt lat="46.19865" lon="6.30059">
        <ele>628</ele>
        <time>2020-02-23T15:00:21Z</time>
      </trkpt>
      <trkpt lat="46.19863" lon="6.30061">
        <ele>628.20001220703</ele>
        <time>2020-02-23T15:00:22Z</time>
      </trkpt>
      <trkpt lat="46.19862" lon="6.30063">
        <ele>628.40002441406</ele>
        <time>2020-02-23T15:00:23Z</time>
      </trkpt>
      <trkpt lat="46.19861" lon="6.30065">
        <ele>628.79998779297</ele>
        <time>2020-02-23T15:00:24Z</time>
      </trkpt>
      <trkpt lat="46.19859" lon="6.30066">
        <ele>628.79998779297</ele>
        <time>2020-02-23T15:00:25Z</time>
      </trkpt>
      <trkpt lat="46.19858" lon="6.30068">
        <ele>629.40002441406</ele>
        <time>2020-02-23T15:00:26Z</time>
      </trkpt>
      <trkpt lat="46.19857" lon="6.30069">
        <ele>629.40002441406</ele>
        <time>2020-02-23T15:00:27Z</time>
      </trkpt>
      <trkpt lat="46.19856" lon="6.30071">
        <ele>629.40002441406</ele>
        <time>2020-02-23T15:00:28Z</time>
      </trkpt>
      <trkpt lat="46.19855" lon="6.30073">
        <ele>629.79998779297</ele>
        <time>2020-02-23T15:00:29Z</time>
      </trkpt>
      <trkpt lat="46.19853" lon="6.30075">
        <ele>630.20001220703</ele>
        <time>2020-02-23T15:00:30Z</time>
      </trkpt>
      <trkpt lat="46.19851" lon="6.30076">
        <ele>630.20001220703</ele>
        <time>2020-02-23T15:00:31Z</time>
      </trkpt>
      <trkpt lat="46.1985" lon="6.30078">
        <ele>630.40002441406</ele>
        <time>2020-02-23T15:00:32Z</time>
      </trkpt>
      <trkpt lat="46.19849" lon="6.30079">
        <ele>630.59997558594</ele>
        <time>2020-02-23T15:00:33Z</time>
      </trkpt>
      <trkpt lat="46.19848" lon="6.30081">
        <ele>630.79998779297</ele>
        <time>2020-02-23T15:00:34Z</time>
      </trkpt>
      <trkpt lat="46.19847" lon="6.30083">
        <ele>630.79998779297</ele>
        <time>2020-02-23T15:00:35Z</time>
      </trkpt>
      <trkpt lat="46.19846" lon="6.30085">
        <ele>631.20001220703</ele>
        <time>2020-02-23T15:00:36Z</time>
      </trkpt>
      <trkpt lat="46.19844" lon="6.30086">
        <ele>631.20001220703</ele>
        <time>2020-02-23T15:00:37Z</time>
      </trkpt>
      <trkpt lat="46.19843" lon="6.30088">
        <ele>631.59997558594</ele>
        <time>2020-02-23T15:00:38Z</time>
      </trkpt>
      <trkpt lat="46.19842" lon="6.30089">
        <ele>631.79998779297</ele>
        <time>2020-02-23T15:00:39Z</time>
      </trkpt>
      <trkpt lat="46.19841" lon="6.30091">
        <ele>631.79998779297</ele>
        <time>2020-02-23T15:00:40Z</time>
      </trkpt>
      <trkpt lat="46.1984" lon="6.30092">
        <ele>632.20001220703</ele>
        <time>2020-02-23T15:00:41Z</time>
      </trkpt>
      <trkpt lat="46.19838" lon="6.30094">
        <ele>632.20001220703</ele>
        <time>2020-02-23T15:00:42Z</time>
      </trkpt>
      <trkpt lat="46.19837" lon="6.30095">
        <ele>632.40002441406</ele>
        <time>2020-02-23T15:00:43Z</time>
      </trkpt>
      <trkpt lat="46.19836" lon="6.30097">
        <ele>632.79998779297</ele>
        <time>2020-02-23T15:00:44Z</time>
      </trkpt>
      <trkpt lat="46.19835" lon="6.30098">
        <ele>633</ele>
        <time>2020-02-23T15:00:45Z</time>
      </trkpt>
      <trkpt lat="46.19834" lon="6.301">
        <ele>633.20001220703</ele>
        <time>2020-02-23T15:00:46Z</time>
      </trkpt>
      <trkpt lat="46.19833" lon="6.30102">
        <ele>633.20001220703</ele>
        <time>2020-02-23T15:00:47Z</time>
      </trkpt>
      <trkpt lat="46.19832" lon="6.30103">
        <ele>633.59997558594</ele>
        <time>2020-02-23T15:00:48Z</time>
      </trkpt>
      <trkpt lat="46.1983" lon="6.30105">
        <ele>633.59997558594</ele>
        <time>2020-02-23T15:00:49Z</time>
      </trkpt>
      <trkpt lat="46.19829" lon="6.30107">
        <ele>634</ele>
        <time>2020-02-23T15:00:50Z</time>
      </trkpt>
      <trkpt lat="46.19828" lon="6.30109">
        <ele>634</ele>
        <time>2020-02-23T15:00:51Z</time>
      </trkpt>
      <trkpt lat="46.19827" lon="6.30111">
        <ele>634</ele>
        <time>2020-02-23T15:00:52Z</time>
      </trkpt>
      <trkpt lat="46.19826" lon="6.30113">
        <ele>634.20001220703</ele>
        <time>2020-02-23T15:00:53Z</time>
      </trkpt>
      <trkpt lat="46.19825" lon="6.30115">
        <ele>634.40002441406</ele>
        <time>2020-02-23T15:00:54Z</time>
      </trkpt>
      <trkpt lat="46.19823" lon="6.30117">
        <ele>634.40002441406</ele>
        <time>2020-02-23T15:00:55Z</time>
      </trkpt>
      <trkpt lat="46.19822" lon="6.30118">
        <ele>634.79998779297</ele>
        <time>2020-02-23T15:00:56Z</time>
      </trkpt>
      <trkpt lat="46.19821" lon="6.3012">
        <ele>635</ele>
        <time>2020-02-23T15:00:57Z</time>
      </trkpt>
      <trkpt lat="46.19819" lon="6.30121">
        <ele>635.20001220703</ele>
        <time>2020-02-23T15:00:58Z</time>
      </trkpt>
      <trkpt lat="46.19818" lon="6.30123">
        <ele>635.20001220703</ele>
        <time>2020-02-23T15:00:59Z</time>
      </trkpt>
      <trkpt lat="46.19817" lon="6.30125">
        <ele>635.40002441406</ele>
        <time>2020-02-23T15:01:00Z</time>
      </trkpt>
      <trkpt lat="46.19816" lon="6.30127">
        <ele>635.59997558594</ele>
        <time>2020-02-23T15:01:01Z</time>
      </trkpt>
      <trkpt lat="46.19814" lon="6.30129">
        <ele>635.79998779297</ele>
        <time>2020-02-23T15:01:02Z</time>
      </trkpt>
      <trkpt lat="46.19813" lon="6.30131">
        <ele>636</ele>
        <time>2020-02-23T15:01:03Z</time>
      </trkpt>
      <trkpt lat="46.19812" lon="6.30133">
        <ele>636</ele>
        <time>2020-02-23T15:01:04Z</time>
      </trkpt>
      <trkpt lat="46.19811" lon="6.30135">
        <ele>636.40002441406</ele>
        <time>2020-02-23T15:01:05Z</time>
      </trkpt>
      <trkpt lat="46.1981" lon="6.30136">
        <ele>636.40002441406</ele>
        <time>2020-02-23T15:01:06Z</time>
      </trkpt>
      <trkpt lat="46.19808" lon="6.30138">
        <ele>636.40002441406</ele>
        <time>2020-02-23T15:01:07Z</time>
      </trkpt>
      <trkpt lat="46.19807" lon="6.3014">
        <ele>636.79998779297</ele>
        <time>2020-02-23T15:01:08Z</time>
      </trkpt>
      <trkpt lat="46.19806" lon="6.30142">
        <ele>637</ele>
        <time>2020-02-23T15:01:09Z</time>
      </trkpt>
      <trkpt lat="46.19805" lon="6.30144">
        <ele>637.20001220703</ele>
        <time>2020-02-23T15:01:10Z</time>
      </trkpt>
      <trkpt lat="46.19804" lon="6.30146">
        <ele>637.20001220703</ele>
        <time>2020-02-23T15:01:11Z</time>
      </trkpt>
      <trkpt lat="46.19803" lon="6.30148">
        <ele>637.40002441406</ele>
        <time>2020-02-23T15:01:12Z</time>
      </trkpt>
      <trkpt lat="46.19802" lon="6.3015">
        <ele>637.59997558594</ele>
        <time>2020-02-23T15:01:13Z</time>
      </trkpt>
      <trkpt lat="46.198" lon="6.30152">
        <ele>637.79998779297</ele>
        <time>2020-02-23T15:01:14Z</time>
      </trkpt>
      <trkpt lat="46.19799" lon="6.30154">
        <ele>638</ele>
        <time>2020-02-23T15:01:15Z</time>
      </trkpt>
      <trkpt lat="46.19798" lon="6.30156">
        <ele>638</ele>
        <time>2020-02-23T15:01:16Z</time>
      </trkpt>
      <trkpt lat="46.19797" lon="6.30157">
        <ele>638.20001220703</ele>
        <time>2020-02-23T15:01:17Z</time>
      </trkpt>
      <trkpt lat="46.19796" lon="6.30159">
        <ele>638.40002441406</ele>
        <time>2020-02-23T15:01:18Z</time>
      </trkpt>
      <trkpt lat="46.19795" lon="6.30161">
        <ele>638.40002441406</ele>
        <time>2020-02-23T15:01:19Z</time>
      </trkpt>
      <trkpt lat="46.19793" lon="6.30163">
        <ele>638.59997558594</ele>
        <time>2020-02-23T15:01:20Z</time>
      </trkpt>
      <trkpt lat="46.19793" lon="6.30165">
        <ele>639</ele>
        <time>2020-02-23T15:01:21Z</time>
      </trkpt>
      <trkpt lat="46.19792" lon="6.30166">
        <ele>639.40002441406</ele>
        <time>2020-02-23T15:01:22Z</time>
      </trkpt>
      <trkpt lat="46.19791" lon="6.30168">
        <ele>639.59997558594</ele>
        <time>2020-02-23T15:01:23Z</time>
      </trkpt>
      <trkpt lat="46.1979" lon="6.30171">
        <ele>639.79998779297</ele>
        <time>2020-02-23T15:01:24Z</time>
      </trkpt>
      <trkpt lat="46.19789" lon="6.30173">
        <ele>640</ele>
        <time>2020-02-23T15:01:25Z</time>
      </trkpt>
      <trkpt lat="46.19788" lon="6.30175">
        <ele>640.40002441406</ele>
        <time>2020-02-23T15:01:26Z</time>
      </trkpt>
      <trkpt lat="46.19787" lon="6.30178">
        <ele>640.40002441406</ele>
        <time>2020-02-23T15:01:27Z</time>
      </trkpt>
      <trkpt lat="46.19786" lon="6.3018">
        <ele>640.59997558594</ele>
        <time>2020-02-23T15:01:28Z</time>
      </trkpt>
      <trkpt lat="46.19786" lon="6.30182">
        <ele>640.79998779297</ele>
        <time>2020-02-23T15:01:29Z</time>
      </trkpt>
      <trkpt lat="46.19785" lon="6.30183">
        <ele>640.79998779297</ele>
        <time>2020-02-23T15:01:30Z</time>
      </trkpt>
      <trkpt lat="46.19784" lon="6.30185">
        <ele>641</ele>
        <time>2020-02-23T15:01:31Z</time>
      </trkpt>
      <trkpt lat="46.19783" lon="6.30188">
        <ele>641.20001220703</ele>
        <time>2020-02-23T15:01:32Z</time>
      </trkpt>
      <trkpt lat="46.19782" lon="6.3019">
        <ele>641.59997558594</ele>
        <time>2020-02-23T15:01:33Z</time>
      </trkpt>
      <trkpt lat="46.19781" lon="6.30192">
        <ele>641.79998779297</ele>
        <time>2020-02-23T15:01:34Z</time>
      </trkpt>
      <trkpt lat="46.19781" lon="6.30195">
        <ele>642</ele>
        <time>2020-02-23T15:01:35Z</time>
      </trkpt>
      <trkpt lat="46.1978" lon="6.30197">
        <ele>642.20001220703</ele>
        <time>2020-02-23T15:01:36Z</time>
      </trkpt>
      <trkpt lat="46.19779" lon="6.30199">
        <ele>642.40002441406</ele>
        <time>2020-02-23T15:01:37Z</time>
      </trkpt>
      <trkpt lat="46.19778" lon="6.30201">
        <ele>642.79998779297</ele>
        <time>2020-02-23T15:01:38Z</time>
      </trkpt>
      <trkpt lat="46.19777" lon="6.30204">
        <ele>643</ele>
        <time>2020-02-23T15:01:39Z</time>
      </trkpt>
      <trkpt lat="46.19777" lon="6.30206">
        <ele>643</ele>
        <time>2020-02-23T15:01:40Z</time>
      </trkpt>
      <trkpt lat="46.19776" lon="6.30208">
        <ele>643</ele>
        <time>2020-02-23T15:01:41Z</time>
      </trkpt>
      <trkpt lat="46.19775" lon="6.3021">
        <ele>643.20001220703</ele>
        <time>2020-02-23T15:01:42Z</time>
      </trkpt>
      <trkpt lat="46.19774" lon="6.30212">
        <ele>643.40002441406</ele>
        <time>2020-02-23T15:01:43Z</time>
      </trkpt>
      <trkpt lat="46.19773" lon="6.30214">
        <ele>643.59997558594</ele>
        <time>2020-02-23T15:01:44Z</time>
      </trkpt>
      <trkpt lat="46.19772" lon="6.30216">
        <ele>643.79998779297</ele>
        <time>2020-02-23T15:01:45Z</time>
      </trkpt>
      <trkpt lat="46.19772" lon="6.30218">
        <ele>644</ele>
        <time>2020-02-23T15:01:46Z</time>
      </trkpt>
      <trkpt lat="46.19771" lon="6.3022">
        <ele>644.20001220703</ele>
        <time>2020-02-23T15:01:47Z</time>
      </trkpt>
      <trkpt lat="46.1977" lon="6.30223">
        <ele>644.20001220703</ele>
        <time>2020-02-23T15:01:48Z</time>
      </trkpt>
      <trkpt lat="46.19769" lon="6.30225">
        <ele>644.40002441406</ele>
        <time>2020-02-23T15:01:49Z</time>
      </trkpt>
      <trkpt lat="46.19768" lon="6.30227">
        <ele>644.59997558594</ele>
        <time>2020-02-23T15:01:50Z</time>
      </trkpt>
      <trkpt lat="46.19767" lon="6.3023">
        <ele>644.79998779297</ele>
        <time>2020-02-23T15:01:51Z</time>
      </trkpt>
      <trkpt lat="46.19766" lon="6.30232">
        <ele>645</ele>
        <time>2020-02-23T15:01:52Z</time>
      </trkpt>
      <trkpt lat="46.19764" lon="6.30234">
        <ele>645.20001220703</ele>
        <time>2020-02-23T15:01:53Z</time>
      </trkpt>
      <trkpt lat="46.19763" lon="6.30237">
        <ele>645.40002441406</ele>
        <time>2020-02-23T15:01:54Z</time>
      </trkpt>
      <trkpt lat="46.19762" lon="6.30239">
        <ele>645.79998779297</ele>
        <time>2020-02-23T15:01:55Z</time>
      </trkpt>
      <trkpt lat="46.1976" lon="6.30242">
        <ele>645.79998779297</ele>
        <time>2020-02-23T15:01:56Z</time>
      </trkpt>
      <trkpt lat="46.19759" lon="6.30244">
        <ele>646</ele>
        <time>2020-02-23T15:01:57Z</time>
      </trkpt>
      <trkpt lat="46.19758" lon="6.30247">
        <ele>646.20001220703</ele>
        <time>2020-02-23T15:01:58Z</time>
      </trkpt>
      <trkpt lat="46.19757" lon="6.30249">
        <ele>646.40002441406</ele>
        <time>2020-02-23T15:01:59Z</time>
      </trkpt>
      <trkpt lat="46.19757" lon="6.30252">
        <ele>646.59997558594</ele>
        <time>2020-02-23T15:02:00Z</time>
      </trkpt>
      <trkpt lat="46.19756" lon="6.30254">
        <ele>646.59997558594</ele>
        <time>2020-02-23T15:02:01Z</time>
      </trkpt>
      <trkpt lat="46.19755" lon="6.30256">
        <ele>646.79998779297</ele>
        <time>2020-02-23T15:02:02Z</time>
      </trkpt>
      <trkpt lat="46.19754" lon="6.30258">
        <ele>647</ele>
        <time>2020-02-23T15:02:03Z</time>
      </trkpt>
      <trkpt lat="46.19753" lon="6.30261">
        <ele>647.20001220703</ele>
        <time>2020-02-23T15:02:04Z</time>
      </trkpt>
      <trkpt lat="46.19753" lon="6.30263">
        <ele>647.20001220703</ele>
        <time>2020-02-23T15:02:05Z</time>
      </trkpt>
      <trkpt lat="46.19752" lon="6.30266">
        <ele>647.59997558594</ele>
        <time>2020-02-23T15:02:06Z</time>
      </trkpt>
      <trkpt lat="46.19751" lon="6.30269">
        <ele>647.79998779297</ele>
        <time>2020-02-23T15:02:07Z</time>
      </trkpt>
      <trkpt lat="46.1975" lon="6.30271">
        <ele>648</ele>
        <time>2020-02-23T15:02:08Z</time>
      </trkpt>
      <trkpt lat="46.1975" lon="6.30274">
        <ele>648.20001220703</ele>
        <time>2020-02-23T15:02:09Z</time>
      </trkpt>
      <trkpt lat="46.19749" lon="6.30276">
        <ele>648.59997558594</ele>
        <time>2020-02-23T15:02:10Z</time>
      </trkpt>
      <trkpt lat="46.19748" lon="6.30278">
        <ele>648.79998779297</ele>
        <time>2020-02-23T15:02:11Z</time>
      </trkpt>
      <trkpt lat="46.19747" lon="6.30281">
        <ele>648.79998779297</ele>
        <time>2020-02-23T15:02:12Z</time>
      </trkpt>
      <trkpt lat="46.19746" lon="6.30283">
        <ele>649.20001220703</ele>
        <time>2020-02-23T15:02:13Z</time>
      </trkpt>
      <trkpt lat="46.19745" lon="6.30285">
        <ele>649.20001220703</ele>
        <time>2020-02-23T15:02:14Z</time>
      </trkpt>
      <trkpt lat="46.19744" lon="6.30287">
        <ele>649.59997558594</ele>
        <time>2020-02-23T15:02:15Z</time>
      </trkpt>
      <trkpt lat="46.19744" lon="6.30289">
        <ele>649.79998779297</ele>
        <time>2020-02-23T15:02:16Z</time>
      </trkpt>
      <trkpt lat="46.19743" lon="6.30292">
        <ele>650</ele>
        <time>2020-02-23T15:02:17Z</time>
      </trkpt>
      <trkpt lat="46.19742" lon="6.30294">
        <ele>650.20001220703</ele>
        <time>2020-02-23T15:02:18Z</time>
      </trkpt>
      <trkpt lat="46.19741" lon="6.30296">
        <ele>650.40002441406</ele>
        <time>2020-02-23T15:02:19Z</time>
      </trkpt>
      <trkpt lat="46.19741" lon="6.30298">
        <ele>650.40002441406</ele>
        <time>2020-02-23T15:02:20Z</time>
      </trkpt>
      <trkpt lat="46.1974" lon="6.303">
        <ele>650.59997558594</ele>
        <time>2020-02-23T15:02:21Z</time>
      </trkpt>
      <trkpt lat="46.19739" lon="6.30303">
        <ele>651</ele>
        <time>2020-02-23T15:02:22Z</time>
      </trkpt>
      <trkpt lat="46.19738" lon="6.30305">
        <ele>651.20001220703</ele>
        <time>2020-02-23T15:02:23Z</time>
      </trkpt>
      <trkpt lat="46.19737" lon="6.30307">
        <ele>651.20001220703</ele>
        <time>2020-02-23T15:02:24Z</time>
      </trkpt>
      <trkpt lat="46.19736" lon="6.3031">
        <ele>651.20001220703</ele>
        <time>2020-02-23T15:02:25Z</time>
      </trkpt>
      <trkpt lat="46.19735" lon="6.30312">
        <ele>651.59997558594</ele>
        <time>2020-02-23T15:02:26Z</time>
      </trkpt>
      <trkpt lat="46.19734" lon="6.30314">
        <ele>651.79998779297</ele>
        <time>2020-02-23T15:02:27Z</time>
      </trkpt>
      <trkpt lat="46.19733" lon="6.30316">
        <ele>652.20001220703</ele>
        <time>2020-02-23T15:02:28Z</time>
      </trkpt>
      <trkpt lat="46.19732" lon="6.30318">
        <ele>652.20001220703</ele>
        <time>2020-02-23T15:02:29Z</time>
      </trkpt>
      <trkpt lat="46.19732" lon="6.30321">
        <ele>652.20001220703</ele>
        <time>2020-02-23T15:02:30Z</time>
      </trkpt>
      <trkpt lat="46.19731" lon="6.30323">
        <ele>652.40002441406</ele>
        <time>2020-02-23T15:02:31Z</time>
      </trkpt>
      <trkpt lat="46.1973" lon="6.30325">
        <ele>652.79998779297</ele>
        <time>2020-02-23T15:02:32Z</time>
      </trkpt>
      <trkpt lat="46.19729" lon="6.30327">
        <ele>653</ele>
        <time>2020-02-23T15:02:33Z</time>
      </trkpt>
      <trkpt lat="46.19728" lon="6.30329">
        <ele>653</ele>
        <time>2020-02-23T15:02:34Z</time>
      </trkpt>
      <trkpt lat="46.19728" lon="6.30332">
        <ele>653.20001220703</ele>
        <time>2020-02-23T15:02:35Z</time>
      </trkpt>
      <trkpt lat="46.19727" lon="6.30334">
        <ele>653.59997558594</ele>
        <time>2020-02-23T15:02:36Z</time>
      </trkpt>
      <trkpt lat="46.19726" lon="6.30336">
        <ele>653.59997558594</ele>
        <time>2020-02-23T15:02:37Z</time>
      </trkpt>
      <trkpt lat="46.19725" lon="6.30338">
        <ele>654</ele>
        <time>2020-02-23T15:02:38Z</time>
      </trkpt>
      <trkpt lat="46.19724" lon="6.3034">
        <ele>654.40002441406</ele>
        <time>2020-02-23T15:02:39Z</time>
      </trkpt>
      <trkpt lat="46.19723" lon="6.30342">
        <ele>654.59997558594</ele>
        <time>2020-02-23T15:02:40Z</time>
      </trkpt>
      <trkpt lat="46.19722" lon="6.30344">
        <ele>654.79998779297</ele>
        <time>2020-02-23T15:02:41Z</time>
      </trkpt>
      <trkpt lat="46.19722" lon="6.30347">
        <ele>654.79998779297</ele>
        <time>2020-02-23T15:02:42Z</time>
      </trkpt>
      <trkpt lat="46.19721" lon="6.30349">
        <ele>655</ele>
        <time>2020-02-23T15:02:43Z</time>
      </trkpt>
      <trkpt lat="46.1972" lon="6.30352">
        <ele>655.20001220703</ele>
        <time>2020-02-23T15:02:44Z</time>
      </trkpt>
      <trkpt lat="46.19719" lon="6.30354">
        <ele>655.40002441406</ele>
        <time>2020-02-23T15:02:45Z</time>
      </trkpt>
      <trkpt lat="46.19717" lon="6.30356">
        <ele>655.40002441406</ele>
        <time>2020-02-23T15:02:46Z</time>
      </trkpt>
      <trkpt lat="46.19716" lon="6.30358">
        <ele>655.79998779297</ele>
        <time>2020-02-23T15:02:47Z</time>
      </trkpt>
      <trkpt lat="46.19715" lon="6.30359">
        <ele>656</ele>
        <time>2020-02-23T15:02:48Z</time>
      </trkpt>
      <trkpt lat="46.19713" lon="6.30361">
        <ele>656.20001220703</ele>
        <time>2020-02-23T15:02:49Z</time>
      </trkpt>
      <trkpt lat="46.19712" lon="6.30363">
        <ele>656.40002441406</ele>
        <time>2020-02-23T15:02:50Z</time>
      </trkpt>
      <trkpt lat="46.19711" lon="6.30365">
        <ele>656.40002441406</ele>
        <time>2020-02-23T15:02:51Z</time>
      </trkpt>
      <trkpt lat="46.1971" lon="6.30367">
        <ele>656.59997558594</ele>
        <time>2020-02-23T15:02:52Z</time>
      </trkpt>
      <trkpt lat="46.19709" lon="6.30369">
        <ele>657</ele>
        <time>2020-02-23T15:02:53Z</time>
      </trkpt>
      <trkpt lat="46.19707" lon="6.3037">
        <ele>657</ele>
        <time>2020-02-23T15:02:54Z</time>
      </trkpt>
      <trkpt lat="46.19706" lon="6.30372">
        <ele>657</ele>
        <time>2020-02-23T15:02:55Z</time>
      </trkpt>
      <trkpt lat="46.19704" lon="6.30373">
        <ele>657.20001220703</ele>
        <time>2020-02-23T15:02:56Z</time>
      </trkpt>
      <trkpt lat="46.19703" lon="6.30374">
        <ele>657.40002441406</ele>
        <time>2020-02-23T15:02:57Z</time>
      </trkpt>
      <trkpt lat="46.19701" lon="6.30375">
        <ele>657.59997558594</ele>
        <time>2020-02-23T15:02:58Z</time>
      </trkpt>
      <trkpt lat="46.197" lon="6.30376">
        <ele>657.79998779297</ele>
        <time>2020-02-23T15:02:59Z</time>
      </trkpt>
      <trkpt lat="46.19698" lon="6.30378">
        <ele>658.20001220703</ele>
        <time>2020-02-23T15:03:00Z</time>
      </trkpt>
      <trkpt lat="46.19697" lon="6.30379">
        <ele>658.20001220703</ele>
        <time>2020-02-23T15:03:01Z</time>
      </trkpt>
      <trkpt lat="46.19695" lon="6.3038">
        <ele>658.59997558594</ele>
        <time>2020-02-23T15:03:02Z</time>
      </trkpt>
      <trkpt lat="46.19693" lon="6.30381">
        <ele>658.79998779297</ele>
        <time>2020-02-23T15:03:03Z</time>
      </trkpt>
      <trkpt lat="46.19692" lon="6.30382">
        <ele>659</ele>
        <time>2020-02-23T15:03:04Z</time>
      </trkpt>
      <trkpt lat="46.1969" lon="6.30384">
        <ele>659.40002441406</ele>
        <time>2020-02-23T15:03:05Z</time>
      </trkpt>
      <trkpt lat="46.19688" lon="6.30385">
        <ele>659.59997558594</ele>
        <time>2020-02-23T15:03:06Z</time>
      </trkpt>
      <trkpt lat="46.19687" lon="6.30386">
        <ele>659.79998779297</ele>
        <time>2020-02-23T15:03:07Z</time>
      </trkpt>
      <trkpt lat="46.19685" lon="6.30387">
        <ele>659.79998779297</ele>
        <time>2020-02-23T15:03:08Z</time>
      </trkpt>
      <trkpt lat="46.19683" lon="6.30388">
        <ele>660.20001220703</ele>
        <time>2020-02-23T15:03:09Z</time>
      </trkpt>
      <trkpt lat="46.19682" lon="6.30389">
        <ele>660.40002441406</ele>
        <time>2020-02-23T15:03:10Z</time>
      </trkpt>
      <trkpt lat="46.1968" lon="6.30391">
        <ele>660.59997558594</ele>
        <time>2020-02-23T15:03:11Z</time>
      </trkpt>
      <trkpt lat="46.19679" lon="6.30392">
        <ele>660.59997558594</ele>
        <time>2020-02-23T15:03:12Z</time>
      </trkpt>
      <trkpt lat="46.19678" lon="6.30394">
        <ele>661</ele>
        <time>2020-02-23T15:03:13Z</time>
      </trkpt>
      <trkpt lat="46.19677" lon="6.30396">
        <ele>661.20001220703</ele>
        <time>2020-02-23T15:03:14Z</time>
      </trkpt>
      <trkpt lat="46.19675" lon="6.30398">
        <ele>661.40002441406</ele>
        <time>2020-02-23T15:03:15Z</time>
      </trkpt>
      <trkpt lat="46.19674" lon="6.304">
        <ele>661.79998779297</ele>
        <time>2020-02-23T15:03:16Z</time>
      </trkpt>
      <trkpt lat="46.19672" lon="6.30402">
        <ele>661.79998779297</ele>
        <time>2020-02-23T15:03:17Z</time>
      </trkpt>
      <trkpt lat="46.19671" lon="6.30404">
        <ele>661.79998779297</ele>
        <time>2020-02-23T15:03:18Z</time>
      </trkpt>
      <trkpt lat="46.1967" lon="6.30405">
        <ele>662.20001220703</ele>
        <time>2020-02-23T15:03:19Z</time>
      </trkpt>
      <trkpt lat="46.19669" lon="6.30407">
        <ele>662.20001220703</ele>
        <time>2020-02-23T15:03:20Z</time>
      </trkpt>
      <trkpt lat="46.19668" lon="6.30409">
        <ele>662.59997558594</ele>
        <time>2020-02-23T15:03:21Z</time>
      </trkpt>
      <trkpt lat="46.19667" lon="6.30412">
        <ele>662.59997558594</ele>
        <time>2020-02-23T15:03:22Z</time>
      </trkpt>
      <trkpt lat="46.19666" lon="6.30414">
        <ele>662.79998779297</ele>
        <time>2020-02-23T15:03:23Z</time>
      </trkpt>
      <trkpt lat="46.19665" lon="6.30416">
        <ele>663</ele>
        <time>2020-02-23T15:03:24Z</time>
      </trkpt>
      <trkpt lat="46.19664" lon="6.30419">
        <ele>663.20001220703</ele>
        <time>2020-02-23T15:03:25Z</time>
      </trkpt>
      <trkpt lat="46.19663" lon="6.30421">
        <ele>663.40002441406</ele>
        <time>2020-02-23T15:03:26Z</time>
      </trkpt>
      <trkpt lat="46.19663" lon="6.30424">
        <ele>663.59997558594</ele>
        <time>2020-02-23T15:03:27Z</time>
      </trkpt>
      <trkpt lat="46.19662" lon="6.30427">
        <ele>664</ele>
        <time>2020-02-23T15:03:28Z</time>
      </trkpt>
      <trkpt lat="46.19662" lon="6.3043">
        <ele>664.20001220703</ele>
        <time>2020-02-23T15:03:29Z</time>
      </trkpt>
      <trkpt lat="46.19662" lon="6.30433">
        <ele>664.20001220703</ele>
        <time>2020-02-23T15:03:30Z</time>
      </trkpt>
      <trkpt lat="46.19663" lon="6.30435">
        <ele>664.59997558594</ele>
        <time>2020-02-23T15:03:31Z</time>
      </trkpt>
      <trkpt lat="46.19663" lon="6.30436">
        <ele>664.79998779297</ele>
        <time>2020-02-23T15:03:32Z</time>
      </trkpt>
      <trkpt lat="46.19663" lon="6.30436">
        <ele>665.40002441406</ele>
        <time>2020-02-23T15:03:35Z</time>
      </trkpt>
      <trkpt lat="46.19663" lon="6.30437">
        <ele>666.20001220703</ele>
        <time>2020-02-23T15:04:00Z</time>
      </trkpt>
      <trkpt lat="46.19663" lon="6.30438">
        <ele>666.59997558594</ele>
        <time>2020-02-23T15:04:08Z</time>
      </trkpt>
      <trkpt lat="46.19664" lon="6.30439">
        <ele>666.59997558594</ele>
        <time>2020-02-23T15:04:09Z</time>
      </trkpt>
      <trkpt lat="46.19666" lon="6.30443">
        <ele>666.59997558594</ele>
        <time>2020-02-23T15:04:11Z</time>
      </trkpt>
      <trkpt lat="46.19667" lon="6.30445">
        <ele>666.59997558594</ele>
        <time>2020-02-23T15:04:12Z</time>
      </trkpt>
      <trkpt lat="46.19668" lon="6.30447">
        <ele>666.59997558594</ele>
        <time>2020-02-23T15:04:13Z</time>
      </trkpt>
      <trkpt lat="46.19671" lon="6.30454">
        <ele>666.59997558594</ele>
        <time>2020-02-23T15:04:16Z</time>
      </trkpt>
      <trkpt lat="46.19674" lon="6.30459">
        <ele>666.59997558594</ele>
        <time>2020-02-23T15:04:18Z</time>
      </trkpt>
      <trkpt lat="46.19675" lon="6.30462">
        <ele>666.59997558594</ele>
        <time>2020-02-23T15:04:19Z</time>
      </trkpt>
      <trkpt lat="46.19677" lon="6.30464">
        <ele>666.79998779297</ele>
        <time>2020-02-23T15:04:20Z</time>
      </trkpt>
      <trkpt lat="46.19679" lon="6.30466">
        <ele>667</ele>
        <time>2020-02-23T15:04:21Z</time>
      </trkpt>
      <trkpt lat="46.19681" lon="6.30467">
        <ele>667.20001220703</ele>
        <time>2020-02-23T15:04:22Z</time>
      </trkpt>
      <trkpt lat="46.19683" lon="6.30469">
        <ele>667.20001220703</ele>
        <time>2020-02-23T15:04:23Z</time>
      </trkpt>
      <trkpt lat="46.19685" lon="6.3047">
        <ele>667.20001220703</ele>
        <time>2020-02-23T15:04:24Z</time>
      </trkpt>
      <trkpt lat="46.19687" lon="6.30471">
        <ele>667.40002441406</ele>
        <time>2020-02-23T15:04:25Z</time>
      </trkpt>
      <trkpt lat="46.19689" lon="6.30471">
        <ele>667.40002441406</ele>
        <time>2020-02-23T15:04:26Z</time>
      </trkpt>
      <trkpt lat="46.19691" lon="6.30471">
        <ele>667.59997558594</ele>
        <time>2020-02-23T15:04:27Z</time>
      </trkpt>
      <trkpt lat="46.19693" lon="6.30471">
        <ele>667.79998779297</ele>
        <time>2020-02-23T15:04:28Z</time>
      </trkpt>
      <trkpt lat="46.19695" lon="6.30471">
        <ele>668</ele>
        <time>2020-02-23T15:04:29Z</time>
      </trkpt>
      <trkpt lat="46.19697" lon="6.30471">
        <ele>668</ele>
        <time>2020-02-23T15:04:30Z</time>
      </trkpt>
      <trkpt lat="46.197" lon="6.30471">
        <ele>668.20001220703</ele>
        <time>2020-02-23T15:04:31Z</time>
      </trkpt>
      <trkpt lat="46.19701" lon="6.30472">
        <ele>668.20001220703</ele>
        <time>2020-02-23T15:04:32Z</time>
      </trkpt>
      <trkpt lat="46.19703" lon="6.30472">
        <ele>668.40002441406</ele>
        <time>2020-02-23T15:04:33Z</time>
      </trkpt>
      <trkpt lat="46.19706" lon="6.30472">
        <ele>668.79998779297</ele>
        <time>2020-02-23T15:04:34Z</time>
      </trkpt>
      <trkpt lat="46.19708" lon="6.30472">
        <ele>668.79998779297</ele>
        <time>2020-02-23T15:04:35Z</time>
      </trkpt>
      <trkpt lat="46.1971" lon="6.30472">
        <ele>669</ele>
        <time>2020-02-23T15:04:36Z</time>
      </trkpt>
      <trkpt lat="46.19712" lon="6.30472">
        <ele>669.20001220703</ele>
        <time>2020-02-23T15:04:37Z</time>
      </trkpt>
      <trkpt lat="46.19714" lon="6.30471">
        <ele>669.40002441406</ele>
        <time>2020-02-23T15:04:38Z</time>
      </trkpt>
      <trkpt lat="46.19716" lon="6.30471">
        <ele>669.79998779297</ele>
        <time>2020-02-23T15:04:39Z</time>
      </trkpt>
      <trkpt lat="46.19718" lon="6.3047">
        <ele>669.79998779297</ele>
        <time>2020-02-23T15:04:40Z</time>
      </trkpt>
      <trkpt lat="46.1972" lon="6.30469">
        <ele>670.20001220703</ele>
        <time>2020-02-23T15:04:41Z</time>
      </trkpt>
      <trkpt lat="46.19722" lon="6.30469">
        <ele>670.20001220703</ele>
        <time>2020-02-23T15:04:42Z</time>
      </trkpt>
      <trkpt lat="46.19723" lon="6.30468">
        <ele>670.59997558594</ele>
        <time>2020-02-23T15:04:43Z</time>
      </trkpt>
      <trkpt lat="46.19726" lon="6.30467">
        <ele>670.79998779297</ele>
        <time>2020-02-23T15:04:44Z</time>
      </trkpt>
      <trkpt lat="46.19728" lon="6.30467">
        <ele>671</ele>
        <time>2020-02-23T15:04:45Z</time>
      </trkpt>
      <trkpt lat="46.1973" lon="6.30466">
        <ele>671</ele>
        <time>2020-02-23T15:04:46Z</time>
      </trkpt>
      <trkpt lat="46.19732" lon="6.30465">
        <ele>671.20001220703</ele>
        <time>2020-02-23T15:04:47Z</time>
      </trkpt>
      <trkpt lat="46.19733" lon="6.30464">
        <ele>671.59997558594</ele>
        <time>2020-02-23T15:04:48Z</time>
      </trkpt>
      <trkpt lat="46.19735" lon="6.30463">
        <ele>671.79998779297</ele>
        <time>2020-02-23T15:04:49Z</time>
      </trkpt>
      <trkpt lat="46.19737" lon="6.30463">
        <ele>672</ele>
        <time>2020-02-23T15:04:50Z</time>
      </trkpt>
      <trkpt lat="46.1974" lon="6.30462">
        <ele>672</ele>
        <time>2020-02-23T15:04:51Z</time>
      </trkpt>
      <trkpt lat="46.19742" lon="6.30462">
        <ele>672.40002441406</ele>
        <time>2020-02-23T15:04:52Z</time>
      </trkpt>
      <trkpt lat="46.19744" lon="6.30462">
        <ele>672.59997558594</ele>
        <time>2020-02-23T15:04:53Z</time>
      </trkpt>
      <trkpt lat="46.19746" lon="6.30461">
        <ele>672.59997558594</ele>
        <time>2020-02-23T15:04:54Z</time>
      </trkpt>
      <trkpt lat="46.19748" lon="6.30461">
        <ele>672.79998779297</ele>
        <time>2020-02-23T15:04:55Z</time>
      </trkpt>
      <trkpt lat="46.19749" lon="6.3046">
        <ele>672.79998779297</ele>
        <time>2020-02-23T15:04:56Z</time>
      </trkpt>
      <trkpt lat="46.19751" lon="6.3046">
        <ele>673</ele>
        <time>2020-02-23T15:04:57Z</time>
      </trkpt>
      <trkpt lat="46.19753" lon="6.3046">
        <ele>673.20001220703</ele>
        <time>2020-02-23T15:04:58Z</time>
      </trkpt>
      <trkpt lat="46.19755" lon="6.30459">
        <ele>673.20001220703</ele>
        <time>2020-02-23T15:04:59Z</time>
      </trkpt>
      <trkpt lat="46.19757" lon="6.30458">
        <ele>673.40002441406</ele>
        <time>2020-02-23T15:05:00Z</time>
      </trkpt>
      <trkpt lat="46.19759" lon="6.30458">
        <ele>673.40002441406</ele>
        <time>2020-02-23T15:05:01Z</time>
      </trkpt>
      <trkpt lat="46.19761" lon="6.30457">
        <ele>673.79998779297</ele>
        <time>2020-02-23T15:05:02Z</time>
      </trkpt>
      <trkpt lat="46.19762" lon="6.30456">
        <ele>674</ele>
        <time>2020-02-23T15:05:03Z</time>
      </trkpt>
      <trkpt lat="46.19764" lon="6.30456">
        <ele>674.20001220703</ele>
        <time>2020-02-23T15:05:04Z</time>
      </trkpt>
      <trkpt lat="46.19766" lon="6.30456">
        <ele>674.20001220703</ele>
        <time>2020-02-23T15:05:05Z</time>
      </trkpt>
      <trkpt lat="46.19768" lon="6.30455">
        <ele>674.20001220703</ele>
        <time>2020-02-23T15:05:06Z</time>
      </trkpt>
      <trkpt lat="46.1977" lon="6.30455">
        <ele>674.40002441406</ele>
        <time>2020-02-23T15:05:07Z</time>
      </trkpt>
      <trkpt lat="46.19772" lon="6.30454">
        <ele>674.59997558594</ele>
        <time>2020-02-23T15:05:08Z</time>
      </trkpt>
      <trkpt lat="46.19774" lon="6.30454">
        <ele>675</ele>
        <time>2020-02-23T15:05:09Z</time>
      </trkpt>
      <trkpt lat="46.19776" lon="6.30453">
        <ele>674.79998779297</ele>
        <time>2020-02-23T15:05:10Z</time>
      </trkpt>
      <trkpt lat="46.19777" lon="6.30452">
        <ele>675</ele>
        <time>2020-02-23T15:05:11Z</time>
      </trkpt>
      <trkpt lat="46.19779" lon="6.30451">
        <ele>675.20001220703</ele>
        <time>2020-02-23T15:05:12Z</time>
      </trkpt>
      <trkpt lat="46.19781" lon="6.3045">
        <ele>675.40002441406</ele>
        <time>2020-02-23T15:05:13Z</time>
      </trkpt>
      <trkpt lat="46.19783" lon="6.30449">
        <ele>675.40002441406</ele>
        <time>2020-02-23T15:05:14Z</time>
      </trkpt>
      <trkpt lat="46.19785" lon="6.30449">
        <ele>675.40002441406</ele>
        <time>2020-02-23T15:05:15Z</time>
      </trkpt>
      <trkpt lat="46.19787" lon="6.30448">
        <ele>675.59997558594</ele>
        <time>2020-02-23T15:05:16Z</time>
      </trkpt>
      <trkpt lat="46.19789" lon="6.30448">
        <ele>675.59997558594</ele>
        <time>2020-02-23T15:05:17Z</time>
      </trkpt>
      <trkpt lat="46.19791" lon="6.30446">
        <ele>675.59997558594</ele>
        <time>2020-02-23T15:05:18Z</time>
      </trkpt>
      <trkpt lat="46.19793" lon="6.30445">
        <ele>676</ele>
        <time>2020-02-23T15:05:19Z</time>
      </trkpt>
      <trkpt lat="46.19795" lon="6.30444">
        <ele>676</ele>
        <time>2020-02-23T15:05:20Z</time>
      </trkpt>
      <trkpt lat="46.19797" lon="6.30443">
        <ele>676</ele>
        <time>2020-02-23T15:05:21Z</time>
      </trkpt>
      <trkpt lat="46.19799" lon="6.30442">
        <ele>676.20001220703</ele>
        <time>2020-02-23T15:05:22Z</time>
      </trkpt>
      <trkpt lat="46.198" lon="6.30441">
        <ele>676.59997558594</ele>
        <time>2020-02-23T15:05:23Z</time>
      </trkpt>
      <trkpt lat="46.19802" lon="6.3044">
        <ele>676.40002441406</ele>
        <time>2020-02-23T15:05:24Z</time>
      </trkpt>
      <trkpt lat="46.19804" lon="6.30439">
        <ele>676.59997558594</ele>
        <time>2020-02-23T15:05:25Z</time>
      </trkpt>
      <trkpt lat="46.19806" lon="6.30438">
        <ele>676.59997558594</ele>
        <time>2020-02-23T15:05:26Z</time>
      </trkpt>
      <trkpt lat="46.19808" lon="6.30437">
        <ele>676.79998779297</ele>
        <time>2020-02-23T15:05:27Z</time>
      </trkpt>
      <trkpt lat="46.1981" lon="6.30436">
        <ele>677</ele>
        <time>2020-02-23T15:05:28Z</time>
      </trkpt>
      <trkpt lat="46.19812" lon="6.30435">
        <ele>677.20001220703</ele>
        <time>2020-02-23T15:05:29Z</time>
      </trkpt>
      <trkpt lat="46.19815" lon="6.30433">
        <ele>677.20001220703</ele>
        <time>2020-02-23T15:05:30Z</time>
      </trkpt>
      <trkpt lat="46.19817" lon="6.30432">
        <ele>677.59997558594</ele>
        <time>2020-02-23T15:05:31Z</time>
      </trkpt>
      <trkpt lat="46.19818" lon="6.30429">
        <ele>677.59997558594</ele>
        <time>2020-02-23T15:05:32Z</time>
      </trkpt>
      <trkpt lat="46.1982" lon="6.30427">
        <ele>677.79998779297</ele>
        <time>2020-02-23T15:05:33Z</time>
      </trkpt>
      <trkpt lat="46.19822" lon="6.30425">
        <ele>678</ele>
        <time>2020-02-23T15:05:34Z</time>
      </trkpt>
      <trkpt lat="46.19824" lon="6.30424">
        <ele>678.20001220703</ele>
        <time>2020-02-23T15:05:35Z</time>
      </trkpt>
      <trkpt lat="46.19826" lon="6.30422">
        <ele>678.20001220703</ele>
        <time>2020-02-23T15:05:36Z</time>
      </trkpt>
      <trkpt lat="46.19829" lon="6.30421">
        <ele>678.20001220703</ele>
        <time>2020-02-23T15:05:37Z</time>
      </trkpt>
      <trkpt lat="46.19831" lon="6.30419">
        <ele>678.40002441406</ele>
        <time>2020-02-23T15:05:38Z</time>
      </trkpt>
      <trkpt lat="46.19833" lon="6.30418">
        <ele>678.59997558594</ele>
        <time>2020-02-23T15:05:39Z</time>
      </trkpt>
      <trkpt lat="46.19835" lon="6.30417">
        <ele>678.79998779297</ele>
        <time>2020-02-23T15:05:40Z</time>
      </trkpt>
      <trkpt lat="46.19837" lon="6.30416">
        <ele>678.79998779297</ele>
        <time>2020-02-23T15:05:41Z</time>
      </trkpt>
      <trkpt lat="46.19839" lon="6.30414">
        <ele>679</ele>
        <time>2020-02-23T15:05:42Z</time>
      </trkpt>
      <trkpt lat="46.19841" lon="6.30413">
        <ele>679</ele>
        <time>2020-02-23T15:05:43Z</time>
      </trkpt>
      <trkpt lat="46.19846" lon="6.30412">
        <ele>679</ele>
        <time>2020-02-23T15:05:45Z</time>
      </trkpt>
      <trkpt lat="46.19848" lon="6.30411">
        <ele>679</ele>
        <time>2020-02-23T15:05:46Z</time>
      </trkpt>
      <trkpt lat="46.1985" lon="6.3041">
        <ele>679.59997558594</ele>
        <time>2020-02-23T15:05:47Z</time>
      </trkpt>
      <trkpt lat="46.19852" lon="6.3041">
        <ele>679.59997558594</ele>
        <time>2020-02-23T15:05:48Z</time>
      </trkpt>
      <trkpt lat="46.19854" lon="6.30409">
        <ele>679.79998779297</ele>
        <time>2020-02-23T15:05:49Z</time>
      </trkpt>
      <trkpt lat="46.19856" lon="6.30409">
        <ele>679.79998779297</ele>
        <time>2020-02-23T15:05:50Z</time>
      </trkpt>
      <trkpt lat="46.19858" lon="6.30408">
        <ele>679.79998779297</ele>
        <time>2020-02-23T15:05:51Z</time>
      </trkpt>
      <trkpt lat="46.1986" lon="6.30408">
        <ele>679.79998779297</ele>
        <time>2020-02-23T15:05:52Z</time>
      </trkpt>
      <trkpt lat="46.19862" lon="6.30407">
        <ele>679.79998779297</ele>
        <time>2020-02-23T15:05:53Z</time>
      </trkpt>
      <trkpt lat="46.19863" lon="6.30406">
        <ele>680</ele>
        <time>2020-02-23T15:05:54Z</time>
      </trkpt>
      <trkpt lat="46.19865" lon="6.30406">
        <ele>680</ele>
        <time>2020-02-23T15:05:55Z</time>
      </trkpt>
      <trkpt lat="46.19867" lon="6.30405">
        <ele>680.20001220703</ele>
        <time>2020-02-23T15:05:56Z</time>
      </trkpt>
      <trkpt lat="46.19869" lon="6.30405">
        <ele>680.40002441406</ele>
        <time>2020-02-23T15:05:57Z</time>
      </trkpt>
      <trkpt lat="46.19871" lon="6.30405">
        <ele>680.59997558594</ele>
        <time>2020-02-23T15:05:58Z</time>
      </trkpt>
      <trkpt lat="46.19873" lon="6.30405">
        <ele>680.79998779297</ele>
        <time>2020-02-23T15:05:59Z</time>
      </trkpt>
      <trkpt lat="46.19875" lon="6.30405">
        <ele>681</ele>
        <time>2020-02-23T15:06:00Z</time>
      </trkpt>
      <trkpt lat="46.19877" lon="6.30405">
        <ele>681</ele>
        <time>2020-02-23T15:06:01Z</time>
      </trkpt>
      <trkpt lat="46.19878" lon="6.30405">
        <ele>681.20001220703</ele>
        <time>2020-02-23T15:06:02Z</time>
      </trkpt>
      <trkpt lat="46.1988" lon="6.30406">
        <ele>681.40002441406</ele>
        <time>2020-02-23T15:06:03Z</time>
      </trkpt>
      <trkpt lat="46.19882" lon="6.30406">
        <ele>681.40002441406</ele>
        <time>2020-02-23T15:06:04Z</time>
      </trkpt>
      <trkpt lat="46.19884" lon="6.30406">
        <ele>681.59997558594</ele>
        <time>2020-02-23T15:06:05Z</time>
      </trkpt>
      <trkpt lat="46.19887" lon="6.30406">
        <ele>681.79998779297</ele>
        <time>2020-02-23T15:06:06Z</time>
      </trkpt>
      <trkpt lat="46.19889" lon="6.30407">
        <ele>682.20001220703</ele>
        <time>2020-02-23T15:06:07Z</time>
      </trkpt>
      <trkpt lat="46.19891" lon="6.30408">
        <ele>682.20001220703</ele>
        <time>2020-02-23T15:06:08Z</time>
      </trkpt>
      <trkpt lat="46.19893" lon="6.30408">
        <ele>682.20001220703</ele>
        <time>2020-02-23T15:06:09Z</time>
      </trkpt>
      <trkpt lat="46.19895" lon="6.30409">
        <ele>682.59997558594</ele>
        <time>2020-02-23T15:06:10Z</time>
      </trkpt>
      <trkpt lat="46.19896" lon="6.30409">
        <ele>682.79998779297</ele>
        <time>2020-02-23T15:06:11Z</time>
      </trkpt>
      <trkpt lat="46.19898" lon="6.3041">
        <ele>682.79998779297</ele>
        <time>2020-02-23T15:06:12Z</time>
      </trkpt>
      <trkpt lat="46.19899" lon="6.3041">
        <ele>683.20001220703</ele>
        <time>2020-02-23T15:06:13Z</time>
      </trkpt>
      <trkpt lat="46.19901" lon="6.30411">
        <ele>683.40002441406</ele>
        <time>2020-02-23T15:06:14Z</time>
      </trkpt>
      <trkpt lat="46.19903" lon="6.30412">
        <ele>683.40002441406</ele>
        <time>2020-02-23T15:06:15Z</time>
      </trkpt>
      <trkpt lat="46.19905" lon="6.30413">
        <ele>683.59997558594</ele>
        <time>2020-02-23T15:06:16Z</time>
      </trkpt>
      <trkpt lat="46.19906" lon="6.30413">
        <ele>683.79998779297</ele>
        <time>2020-02-23T15:06:17Z</time>
      </trkpt>
      <trkpt lat="46.19908" lon="6.30414">
        <ele>684.20001220703</ele>
        <time>2020-02-23T15:06:18Z</time>
      </trkpt>
      <trkpt lat="46.1991" lon="6.30415">
        <ele>684.40002441406</ele>
        <time>2020-02-23T15:06:19Z</time>
      </trkpt>
      <trkpt lat="46.19912" lon="6.30416">
        <ele>684.59997558594</ele>
        <time>2020-02-23T15:06:20Z</time>
      </trkpt>
      <trkpt lat="46.19914" lon="6.30417">
        <ele>684.79998779297</ele>
        <time>2020-02-23T15:06:21Z</time>
      </trkpt>
      <trkpt lat="46.19915" lon="6.30419">
        <ele>685</ele>
        <time>2020-02-23T15:06:22Z</time>
      </trkpt>
      <trkpt lat="46.19917" lon="6.3042">
        <ele>685.20001220703</ele>
        <time>2020-02-23T15:06:23Z</time>
      </trkpt>
      <trkpt lat="46.19919" lon="6.30421">
        <ele>685.40002441406</ele>
        <time>2020-02-23T15:06:24Z</time>
      </trkpt>
      <trkpt lat="46.19921" lon="6.30422">
        <ele>685.59997558594</ele>
        <time>2020-02-23T15:06:25Z</time>
      </trkpt>
      <trkpt lat="46.19922" lon="6.30423">
        <ele>685.79998779297</ele>
        <time>2020-02-23T15:06:26Z</time>
      </trkpt>
      <trkpt lat="46.19924" lon="6.30424">
        <ele>686</ele>
        <time>2020-02-23T15:06:27Z</time>
      </trkpt>
      <trkpt lat="46.19926" lon="6.30425">
        <ele>686.20001220703</ele>
        <time>2020-02-23T15:06:28Z</time>
      </trkpt>
      <trkpt lat="46.19928" lon="6.30427">
        <ele>686.40002441406</ele>
        <time>2020-02-23T15:06:29Z</time>
      </trkpt>
      <trkpt lat="46.1993" lon="6.30428">
        <ele>686.59997558594</ele>
        <time>2020-02-23T15:06:30Z</time>
      </trkpt>
      <trkpt lat="46.19931" lon="6.30429">
        <ele>686.59997558594</ele>
        <time>2020-02-23T15:06:31Z</time>
      </trkpt>
      <trkpt lat="46.19933" lon="6.30431">
        <ele>686.79998779297</ele>
        <time>2020-02-23T15:06:32Z</time>
      </trkpt>
      <trkpt lat="46.19935" lon="6.30432">
        <ele>686.79998779297</ele>
        <time>2020-02-23T15:06:33Z</time>
      </trkpt>
      <trkpt lat="46.19936" lon="6.30433">
        <ele>687.20001220703</ele>
        <time>2020-02-23T15:06:34Z</time>
      </trkpt>
      <trkpt lat="46.19938" lon="6.30434">
        <ele>687.20001220703</ele>
        <time>2020-02-23T15:06:35Z</time>
      </trkpt>
      <trkpt lat="46.19939" lon="6.30435">
        <ele>687.40002441406</ele>
        <time>2020-02-23T15:06:36Z</time>
      </trkpt>
      <trkpt lat="46.19941" lon="6.30436">
        <ele>687.59997558594</ele>
        <time>2020-02-23T15:06:37Z</time>
      </trkpt>
      <trkpt lat="46.19942" lon="6.30437">
        <ele>687.79998779297</ele>
        <time>2020-02-23T15:06:38Z</time>
      </trkpt>
      <trkpt lat="46.19944" lon="6.30438">
        <ele>688</ele>
        <time>2020-02-23T15:06:39Z</time>
      </trkpt>
      <trkpt lat="46.19946" lon="6.3044">
        <ele>688.20001220703</ele>
        <time>2020-02-23T15:06:40Z</time>
      </trkpt>
      <trkpt lat="46.19947" lon="6.30441">
        <ele>688.40002441406</ele>
        <time>2020-02-23T15:06:41Z</time>
      </trkpt>
      <trkpt lat="46.19949" lon="6.30442">
        <ele>688.59997558594</ele>
        <time>2020-02-23T15:06:42Z</time>
      </trkpt>
      <trkpt lat="46.19951" lon="6.30443">
        <ele>688.79998779297</ele>
        <time>2020-02-23T15:06:43Z</time>
      </trkpt>
      <trkpt lat="46.19953" lon="6.30444">
        <ele>689</ele>
        <time>2020-02-23T15:06:44Z</time>
      </trkpt>
      <trkpt lat="46.19954" lon="6.30445">
        <ele>689</ele>
        <time>2020-02-23T15:06:45Z</time>
      </trkpt>
      <trkpt lat="46.19956" lon="6.30446">
        <ele>689.20001220703</ele>
        <time>2020-02-23T15:06:46Z</time>
      </trkpt>
      <trkpt lat="46.19958" lon="6.30448">
        <ele>689.40002441406</ele>
        <time>2020-02-23T15:06:47Z</time>
      </trkpt>
      <trkpt lat="46.19959" lon="6.30448">
        <ele>689.59997558594</ele>
        <time>2020-02-23T15:06:48Z</time>
      </trkpt>
      <trkpt lat="46.19961" lon="6.3045">
        <ele>689.79998779297</ele>
        <time>2020-02-23T15:06:49Z</time>
      </trkpt>
      <trkpt lat="46.19962" lon="6.30451">
        <ele>690</ele>
        <time>2020-02-23T15:06:50Z</time>
      </trkpt>
      <trkpt lat="46.19964" lon="6.30453">
        <ele>690.20001220703</ele>
        <time>2020-02-23T15:06:51Z</time>
      </trkpt>
      <trkpt lat="46.19966" lon="6.30454">
        <ele>690.40002441406</ele>
        <time>2020-02-23T15:06:52Z</time>
      </trkpt>
      <trkpt lat="46.19967" lon="6.30456">
        <ele>690.40002441406</ele>
        <time>2020-02-23T15:06:53Z</time>
      </trkpt>
      <trkpt lat="46.19969" lon="6.30457">
        <ele>690.59997558594</ele>
        <time>2020-02-23T15:06:54Z</time>
      </trkpt>
      <trkpt lat="46.19971" lon="6.30459">
        <ele>690.79998779297</ele>
        <time>2020-02-23T15:06:55Z</time>
      </trkpt>
      <trkpt lat="46.19972" lon="6.3046">
        <ele>691</ele>
        <time>2020-02-23T15:06:56Z</time>
      </trkpt>
      <trkpt lat="46.19974" lon="6.30462">
        <ele>691.20001220703</ele>
        <time>2020-02-23T15:06:57Z</time>
      </trkpt>
      <trkpt lat="46.19975" lon="6.30463">
        <ele>691.20001220703</ele>
        <time>2020-02-23T15:06:58Z</time>
      </trkpt>
      <trkpt lat="46.19977" lon="6.30465">
        <ele>691.40002441406</ele>
        <time>2020-02-23T15:06:59Z</time>
      </trkpt>
      <trkpt lat="46.19978" lon="6.30466">
        <ele>691.59997558594</ele>
        <time>2020-02-23T15:07:00Z</time>
      </trkpt>
      <trkpt lat="46.1998" lon="6.30468">
        <ele>691.79998779297</ele>
        <time>2020-02-23T15:07:01Z</time>
      </trkpt>
      <trkpt lat="46.19981" lon="6.30469">
        <ele>691.79998779297</ele>
        <time>2020-02-23T15:07:02Z</time>
      </trkpt>
      <trkpt lat="46.19983" lon="6.3047">
        <ele>692</ele>
        <time>2020-02-23T15:07:03Z</time>
      </trkpt>
      <trkpt lat="46.19985" lon="6.30472">
        <ele>692.20001220703</ele>
        <time>2020-02-23T15:07:04Z</time>
      </trkpt>
      <trkpt lat="46.19986" lon="6.30473">
        <ele>692.20001220703</ele>
        <time>2020-02-23T15:07:05Z</time>
      </trkpt>
      <trkpt lat="46.19988" lon="6.30474">
        <ele>692.59997558594</ele>
        <time>2020-02-23T15:07:06Z</time>
      </trkpt>
      <trkpt lat="46.1999" lon="6.30475">
        <ele>692.79998779297</ele>
        <time>2020-02-23T15:07:07Z</time>
      </trkpt>
      <trkpt lat="46.19991" lon="6.30476">
        <ele>692.79998779297</ele>
        <time>2020-02-23T15:07:08Z</time>
      </trkpt>
      <trkpt lat="46.19993" lon="6.30477">
        <ele>693</ele>
        <time>2020-02-23T15:07:09Z</time>
      </trkpt>
      <trkpt lat="46.19995" lon="6.30479">
        <ele>693.40002441406</ele>
        <time>2020-02-23T15:07:10Z</time>
      </trkpt>
      <trkpt lat="46.19996" lon="6.3048">
        <ele>693.40002441406</ele>
        <time>2020-02-23T15:07:11Z</time>
      </trkpt>
      <trkpt lat="46.19998" lon="6.30481">
        <ele>693.59997558594</ele>
        <time>2020-02-23T15:07:12Z</time>
      </trkpt>
      <trkpt lat="46.2" lon="6.30482">
        <ele>693.79998779297</ele>
        <time>2020-02-23T15:07:13Z</time>
      </trkpt>
      <trkpt lat="46.20001" lon="6.30483">
        <ele>694</ele>
        <time>2020-02-23T15:07:14Z</time>
      </trkpt>
      <trkpt lat="46.20003" lon="6.30484">
        <ele>694.20001220703</ele>
        <time>2020-02-23T15:07:15Z</time>
      </trkpt>
      <trkpt lat="46.20004" lon="6.30484">
        <ele>694.40002441406</ele>
        <time>2020-02-23T15:07:16Z</time>
      </trkpt>
      <trkpt lat="46.20006" lon="6.30485">
        <ele>694.40002441406</ele>
        <time>2020-02-23T15:07:17Z</time>
      </trkpt>
      <trkpt lat="46.20008" lon="6.30486">
        <ele>694.79998779297</ele>
        <time>2020-02-23T15:07:18Z</time>
      </trkpt>
      <trkpt lat="46.20009" lon="6.30488">
        <ele>695</ele>
        <time>2020-02-23T15:07:19Z</time>
      </trkpt>
      <trkpt lat="46.20011" lon="6.30489">
        <ele>695</ele>
        <time>2020-02-23T15:07:20Z</time>
      </trkpt>
      <trkpt lat="46.20012" lon="6.30489">
        <ele>695.40002441406</ele>
        <time>2020-02-23T15:07:21Z</time>
      </trkpt>
      <trkpt lat="46.20014" lon="6.3049">
        <ele>695.40002441406</ele>
        <time>2020-02-23T15:07:22Z</time>
      </trkpt>
      <trkpt lat="46.20016" lon="6.30491">
        <ele>695.40002441406</ele>
        <time>2020-02-23T15:07:23Z</time>
      </trkpt>
      <trkpt lat="46.20017" lon="6.30493">
        <ele>695.79998779297</ele>
        <time>2020-02-23T15:07:24Z</time>
      </trkpt>
      <trkpt lat="46.20019" lon="6.30494">
        <ele>695.79998779297</ele>
        <time>2020-02-23T15:07:25Z</time>
      </trkpt>
      <trkpt lat="46.20021" lon="6.30496">
        <ele>695.79998779297</ele>
        <time>2020-02-23T15:07:26Z</time>
      </trkpt>
      <trkpt lat="46.20022" lon="6.30497">
        <ele>696.20001220703</ele>
        <time>2020-02-23T15:07:27Z</time>
      </trkpt>
      <trkpt lat="46.20024" lon="6.30499">
        <ele>696.20001220703</ele>
        <time>2020-02-23T15:07:28Z</time>
      </trkpt>
      <trkpt lat="46.20026" lon="6.305">
        <ele>696.59997558594</ele>
        <time>2020-02-23T15:07:29Z</time>
      </trkpt>
      <trkpt lat="46.20028" lon="6.30502">
        <ele>696.59997558594</ele>
        <time>2020-02-23T15:07:30Z</time>
      </trkpt>
      <trkpt lat="46.2003" lon="6.30503">
        <ele>696.79998779297</ele>
        <time>2020-02-23T15:07:31Z</time>
      </trkpt>
      <trkpt lat="46.20031" lon="6.30504">
        <ele>697</ele>
        <time>2020-02-23T15:07:32Z</time>
      </trkpt>
      <trkpt lat="46.20033" lon="6.30506">
        <ele>697</ele>
        <time>2020-02-23T15:07:33Z</time>
      </trkpt>
      <trkpt lat="46.20035" lon="6.30507">
        <ele>697.20001220703</ele>
        <time>2020-02-23T15:07:34Z</time>
      </trkpt>
      <trkpt lat="46.20036" lon="6.30509">
        <ele>697.40002441406</ele>
        <time>2020-02-23T15:07:35Z</time>
      </trkpt>
      <trkpt lat="46.20038" lon="6.3051">
        <ele>697.59997558594</ele>
        <time>2020-02-23T15:07:36Z</time>
      </trkpt>
      <trkpt lat="46.2004" lon="6.30511">
        <ele>697.59997558594</ele>
        <time>2020-02-23T15:07:37Z</time>
      </trkpt>
      <trkpt lat="46.20041" lon="6.30513">
        <ele>697.79998779297</ele>
        <time>2020-02-23T15:07:38Z</time>
      </trkpt>
      <trkpt lat="46.20043" lon="6.30514">
        <ele>698</ele>
        <time>2020-02-23T15:07:39Z</time>
      </trkpt>
      <trkpt lat="46.20045" lon="6.30516">
        <ele>698.20001220703</ele>
        <time>2020-02-23T15:07:40Z</time>
      </trkpt>
      <trkpt lat="46.20046" lon="6.30517">
        <ele>698.20001220703</ele>
        <time>2020-02-23T15:07:41Z</time>
      </trkpt>
      <trkpt lat="46.20048" lon="6.30518">
        <ele>698.40002441406</ele>
        <time>2020-02-23T15:07:42Z</time>
      </trkpt>
      <trkpt lat="46.20049" lon="6.30519">
        <ele>698.59997558594</ele>
        <time>2020-02-23T15:07:43Z</time>
      </trkpt>
      <trkpt lat="46.20051" lon="6.30521">
        <ele>698.59997558594</ele>
        <time>2020-02-23T15:07:44Z</time>
      </trkpt>
      <trkpt lat="46.20053" lon="6.30522">
        <ele>698.79998779297</ele>
        <time>2020-02-23T15:07:45Z</time>
      </trkpt>
      <trkpt lat="46.20054" lon="6.30524">
        <ele>699</ele>
        <time>2020-02-23T15:07:46Z</time>
      </trkpt>
      <trkpt lat="46.20056" lon="6.30525">
        <ele>699</ele>
        <time>2020-02-23T15:07:47Z</time>
      </trkpt>
      <trkpt lat="46.20057" lon="6.30526">
        <ele>699</ele>
        <time>2020-02-23T15:07:48Z</time>
      </trkpt>
      <trkpt lat="46.20059" lon="6.30528">
        <ele>699.20001220703</ele>
        <time>2020-02-23T15:07:49Z</time>
      </trkpt>
      <trkpt lat="46.20061" lon="6.3053">
        <ele>699.40002441406</ele>
        <time>2020-02-23T15:07:50Z</time>
      </trkpt>
      <trkpt lat="46.20063" lon="6.30531">
        <ele>699.59997558594</ele>
        <time>2020-02-23T15:07:51Z</time>
      </trkpt>
      <trkpt lat="46.20064" lon="6.30532">
        <ele>699.79998779297</ele>
        <time>2020-02-23T15:07:52Z</time>
      </trkpt>
      <trkpt lat="46.20066" lon="6.30533">
        <ele>700</ele>
        <time>2020-02-23T15:07:53Z</time>
      </trkpt>
      <trkpt lat="46.20068" lon="6.30535">
        <ele>700.40002441406</ele>
        <time>2020-02-23T15:07:54Z</time>
      </trkpt>
      <trkpt lat="46.20069" lon="6.30536">
        <ele>700.59997558594</ele>
        <time>2020-02-23T15:07:55Z</time>
      </trkpt>
      <trkpt lat="46.20071" lon="6.30538">
        <ele>700.79998779297</ele>
        <time>2020-02-23T15:07:56Z</time>
      </trkpt>
      <trkpt lat="46.20073" lon="6.30539">
        <ele>701</ele>
        <time>2020-02-23T15:07:57Z</time>
      </trkpt>
      <trkpt lat="46.20074" lon="6.3054">
        <ele>701.20001220703</ele>
        <time>2020-02-23T15:07:58Z</time>
      </trkpt>
      <trkpt lat="46.20076" lon="6.30542">
        <ele>701.20001220703</ele>
        <time>2020-02-23T15:07:59Z</time>
      </trkpt>
      <trkpt lat="46.20078" lon="6.30543">
        <ele>701.40002441406</ele>
        <time>2020-02-23T15:08:00Z</time>
      </trkpt>
      <trkpt lat="46.20079" lon="6.30544">
        <ele>701.59997558594</ele>
        <time>2020-02-23T15:08:01Z</time>
      </trkpt>
      <trkpt lat="46.20081" lon="6.30545">
        <ele>702</ele>
        <time>2020-02-23T15:08:02Z</time>
      </trkpt>
      <trkpt lat="46.20083" lon="6.30547">
        <ele>702.20001220703</ele>
        <time>2020-02-23T15:08:03Z</time>
      </trkpt>
      <trkpt lat="46.20085" lon="6.30548">
        <ele>702.40002441406</ele>
        <time>2020-02-23T15:08:04Z</time>
      </trkpt>
      <trkpt lat="46.20086" lon="6.3055">
        <ele>702.59997558594</ele>
        <time>2020-02-23T15:08:05Z</time>
      </trkpt>
      <trkpt lat="46.20088" lon="6.30551">
        <ele>702.59997558594</ele>
        <time>2020-02-23T15:08:06Z</time>
      </trkpt>
      <trkpt lat="46.20089" lon="6.30553">
        <ele>702.59997558594</ele>
        <time>2020-02-23T15:08:07Z</time>
      </trkpt>
      <trkpt lat="46.20091" lon="6.30555">
        <ele>702.79998779297</ele>
        <time>2020-02-23T15:08:08Z</time>
      </trkpt>
      <trkpt lat="46.20093" lon="6.30556">
        <ele>703.20001220703</ele>
        <time>2020-02-23T15:08:09Z</time>
      </trkpt>
      <trkpt lat="46.20094" lon="6.30558">
        <ele>703.20001220703</ele>
        <time>2020-02-23T15:08:10Z</time>
      </trkpt>
      <trkpt lat="46.20096" lon="6.30559">
        <ele>703.20001220703</ele>
        <time>2020-02-23T15:08:11Z</time>
      </trkpt>
      <trkpt lat="46.20098" lon="6.3056">
        <ele>703.40002441406</ele>
        <time>2020-02-23T15:08:12Z</time>
      </trkpt>
      <trkpt lat="46.20099" lon="6.30561">
        <ele>703.59997558594</ele>
        <time>2020-02-23T15:08:13Z</time>
      </trkpt>
      <trkpt lat="46.20101" lon="6.30563">
        <ele>703.79998779297</ele>
        <time>2020-02-23T15:08:14Z</time>
      </trkpt>
      <trkpt lat="46.20102" lon="6.30564">
        <ele>704</ele>
        <time>2020-02-23T15:08:15Z</time>
      </trkpt>
      <trkpt lat="46.20104" lon="6.30565">
        <ele>704</ele>
        <time>2020-02-23T15:08:16Z</time>
      </trkpt>
      <trkpt lat="46.20105" lon="6.30566">
        <ele>704</ele>
        <time>2020-02-23T15:08:17Z</time>
      </trkpt>
      <trkpt lat="46.20107" lon="6.30567">
        <ele>704.20001220703</ele>
        <time>2020-02-23T15:08:18Z</time>
      </trkpt>
      <trkpt lat="46.20109" lon="6.30568">
        <ele>704.59997558594</ele>
        <time>2020-02-23T15:08:19Z</time>
      </trkpt>
      <trkpt lat="46.2011" lon="6.3057">
        <ele>704.59997558594</ele>
        <time>2020-02-23T15:08:20Z</time>
      </trkpt>
      <trkpt lat="46.20111" lon="6.30571">
        <ele>705</ele>
        <time>2020-02-23T15:08:21Z</time>
      </trkpt>
      <trkpt lat="46.20113" lon="6.30573">
        <ele>705.20001220703</ele>
        <time>2020-02-23T15:08:22Z</time>
      </trkpt>
      <trkpt lat="46.20115" lon="6.30574">
        <ele>705.40002441406</ele>
        <time>2020-02-23T15:08:23Z</time>
      </trkpt>
      <trkpt lat="46.20116" lon="6.30576">
        <ele>705.40002441406</ele>
        <time>2020-02-23T15:08:24Z</time>
      </trkpt>
      <trkpt lat="46.20118" lon="6.30577">
        <ele>705.59997558594</ele>
        <time>2020-02-23T15:08:25Z</time>
      </trkpt>
      <trkpt lat="46.20119" lon="6.30578">
        <ele>705.79998779297</ele>
        <time>2020-02-23T15:08:26Z</time>
      </trkpt>
      <trkpt lat="46.20121" lon="6.30579">
        <ele>705.79998779297</ele>
        <time>2020-02-23T15:08:27Z</time>
      </trkpt>
      <trkpt lat="46.20122" lon="6.3058">
        <ele>706</ele>
        <time>2020-02-23T15:08:28Z</time>
      </trkpt>
      <trkpt lat="46.20124" lon="6.30581">
        <ele>706.20001220703</ele>
        <time>2020-02-23T15:08:29Z</time>
      </trkpt>
      <trkpt lat="46.20125" lon="6.30582">
        <ele>706.40002441406</ele>
        <time>2020-02-23T15:08:30Z</time>
      </trkpt>
      <trkpt lat="46.20127" lon="6.30583">
        <ele>706.59997558594</ele>
        <time>2020-02-23T15:08:31Z</time>
      </trkpt>
      <trkpt lat="46.20129" lon="6.30585">
        <ele>706.79998779297</ele>
        <time>2020-02-23T15:08:32Z</time>
      </trkpt>
      <trkpt lat="46.2013" lon="6.30586">
        <ele>707</ele>
        <time>2020-02-23T15:08:33Z</time>
      </trkpt>
      <trkpt lat="46.20131" lon="6.30588">
        <ele>707.20001220703</ele>
        <time>2020-02-23T15:08:34Z</time>
      </trkpt>
      <trkpt lat="46.20133" lon="6.30589">
        <ele>707.40002441406</ele>
        <time>2020-02-23T15:08:35Z</time>
      </trkpt>
      <trkpt lat="46.20134" lon="6.3059">
        <ele>707.40002441406</ele>
        <time>2020-02-23T15:08:36Z</time>
      </trkpt>
      <trkpt lat="46.20136" lon="6.30592">
        <ele>707.59997558594</ele>
        <time>2020-02-23T15:08:37Z</time>
      </trkpt>
      <trkpt lat="46.20137" lon="6.30594">
        <ele>707.79998779297</ele>
        <time>2020-02-23T15:08:38Z</time>
      </trkpt>
      <trkpt lat="46.20139" lon="6.30596">
        <ele>707.79998779297</ele>
        <time>2020-02-23T15:08:39Z</time>
      </trkpt>
      <trkpt lat="46.2014" lon="6.30598">
        <ele>708</ele>
        <time>2020-02-23T15:08:40Z</time>
      </trkpt>
      <trkpt lat="46.20141" lon="6.306">
        <ele>708.20001220703</ele>
        <time>2020-02-23T15:08:41Z</time>
      </trkpt>
      <trkpt lat="46.20142" lon="6.30602">
        <ele>708.40002441406</ele>
        <time>2020-02-23T15:08:42Z</time>
      </trkpt>
      <trkpt lat="46.20143" lon="6.30605">
        <ele>708.59997558594</ele>
        <time>2020-02-23T15:08:43Z</time>
      </trkpt>
      <trkpt lat="46.20144" lon="6.30607">
        <ele>708.79998779297</ele>
        <time>2020-02-23T15:08:44Z</time>
      </trkpt>
      <trkpt lat="46.20144" lon="6.30609">
        <ele>709</ele>
        <time>2020-02-23T15:08:45Z</time>
      </trkpt>
      <trkpt lat="46.20145" lon="6.30612">
        <ele>709</ele>
        <time>2020-02-23T15:08:46Z</time>
      </trkpt>
      <trkpt lat="46.20146" lon="6.30614">
        <ele>709.20001220703</ele>
        <time>2020-02-23T15:08:47Z</time>
      </trkpt>
      <trkpt lat="46.20146" lon="6.30616">
        <ele>709.40002441406</ele>
        <time>2020-02-23T15:08:48Z</time>
      </trkpt>
      <trkpt lat="46.20147" lon="6.30619">
        <ele>709.40002441406</ele>
        <time>2020-02-23T15:08:49Z</time>
      </trkpt>
      <trkpt lat="46.20147" lon="6.30621">
        <ele>709.59997558594</ele>
        <time>2020-02-23T15:08:50Z</time>
      </trkpt>
      <trkpt lat="46.20148" lon="6.30623">
        <ele>709.79998779297</ele>
        <time>2020-02-23T15:08:51Z</time>
      </trkpt>
      <trkpt lat="46.20148" lon="6.30625">
        <ele>710</ele>
        <time>2020-02-23T15:08:52Z</time>
      </trkpt>
      <trkpt lat="46.20149" lon="6.30627">
        <ele>710.40002441406</ele>
        <time>2020-02-23T15:08:53Z</time>
      </trkpt>
      <trkpt lat="46.2015" lon="6.30629">
        <ele>710.40002441406</ele>
        <time>2020-02-23T15:08:54Z</time>
      </trkpt>
      <trkpt lat="46.20151" lon="6.30631">
        <ele>710.59997558594</ele>
        <time>2020-02-23T15:08:55Z</time>
      </trkpt>
      <trkpt lat="46.20152" lon="6.30633">
        <ele>710.59997558594</ele>
        <time>2020-02-23T15:08:56Z</time>
      </trkpt>
      <trkpt lat="46.20153" lon="6.30634">
        <ele>711</ele>
        <time>2020-02-23T15:08:57Z</time>
      </trkpt>
      <trkpt lat="46.20154" lon="6.30636">
        <ele>711.20001220703</ele>
        <time>2020-02-23T15:08:58Z</time>
      </trkpt>
      <trkpt lat="46.20155" lon="6.30638">
        <ele>711.40002441406</ele>
        <time>2020-02-23T15:08:59Z</time>
      </trkpt>
      <trkpt lat="46.20156" lon="6.3064">
        <ele>711.40002441406</ele>
        <time>2020-02-23T15:09:00Z</time>
      </trkpt>
      <trkpt lat="46.20157" lon="6.30642">
        <ele>711.79998779297</ele>
        <time>2020-02-23T15:09:01Z</time>
      </trkpt>
      <trkpt lat="46.20158" lon="6.30644">
        <ele>712</ele>
        <time>2020-02-23T15:09:02Z</time>
      </trkpt>
      <trkpt lat="46.2016" lon="6.30646">
        <ele>712.20001220703</ele>
        <time>2020-02-23T15:09:03Z</time>
      </trkpt>
      <trkpt lat="46.20161" lon="6.30647">
        <ele>712.40002441406</ele>
        <time>2020-02-23T15:09:04Z</time>
      </trkpt>
      <trkpt lat="46.20162" lon="6.30649">
        <ele>712.59997558594</ele>
        <time>2020-02-23T15:09:05Z</time>
      </trkpt>
      <trkpt lat="46.20163" lon="6.30651">
        <ele>713</ele>
        <time>2020-02-23T15:09:06Z</time>
      </trkpt>
      <trkpt lat="46.20164" lon="6.30652">
        <ele>713.20001220703</ele>
        <time>2020-02-23T15:09:07Z</time>
      </trkpt>
      <trkpt lat="46.20165" lon="6.30654">
        <ele>713.40002441406</ele>
        <time>2020-02-23T15:09:08Z</time>
      </trkpt>
      <trkpt lat="46.20166" lon="6.30655">
        <ele>713.59997558594</ele>
        <time>2020-02-23T15:09:09Z</time>
      </trkpt>
      <trkpt lat="46.20167" lon="6.30655">
        <ele>714</ele>
        <time>2020-02-23T15:09:11Z</time>
      </trkpt>
      <trkpt lat="46.20167" lon="6.30655">
        <ele>714</ele>
        <time>2020-02-23T15:09:12Z</time>
      </trkpt>
      <trkpt lat="46.20168" lon="6.30655">
        <ele>716</ele>
        <time>2020-02-23T15:09:28Z</time>
      </trkpt>
      <trkpt lat="46.20168" lon="6.30655">
        <ele>715.79998779297</ele>
        <time>2020-02-23T15:10:08Z</time>
      </trkpt>
      <trkpt lat="46.20168" lon="6.30655">
        <ele>716</ele>
        <time>2020-02-23T15:10:15Z</time>
      </trkpt>
      <trkpt lat="46.20169" lon="6.30656">
        <ele>715.79998779297</ele>
        <time>2020-02-23T15:10:16Z</time>
      </trkpt>
      <trkpt lat="46.2017" lon="6.30657">
        <ele>715.79998779297</ele>
        <time>2020-02-23T15:10:17Z</time>
      </trkpt>
      <trkpt lat="46.20172" lon="6.30658">
        <ele>716</ele>
        <time>2020-02-23T15:10:18Z</time>
      </trkpt>
      <trkpt lat="46.20175" lon="6.3066">
        <ele>715.79998779297</ele>
        <time>2020-02-23T15:10:20Z</time>
      </trkpt>
      <trkpt lat="46.20176" lon="6.30662">
        <ele>715.79998779297</ele>
        <time>2020-02-23T15:10:21Z</time>
      </trkpt>
      <trkpt lat="46.20178" lon="6.30664">
        <ele>716</ele>
        <time>2020-02-23T15:10:22Z</time>
      </trkpt>
      <trkpt lat="46.20179" lon="6.30665">
        <ele>716.20001220703</ele>
        <time>2020-02-23T15:10:23Z</time>
      </trkpt>
      <trkpt lat="46.20181" lon="6.30666">
        <ele>716</ele>
        <time>2020-02-23T15:10:24Z</time>
      </trkpt>
      <trkpt lat="46.20183" lon="6.30668">
        <ele>716.20001220703</ele>
        <time>2020-02-23T15:10:25Z</time>
      </trkpt>
      <trkpt lat="46.20184" lon="6.30669">
        <ele>716.20001220703</ele>
        <time>2020-02-23T15:10:26Z</time>
      </trkpt>
      <trkpt lat="46.20186" lon="6.3067">
        <ele>716.40002441406</ele>
        <time>2020-02-23T15:10:27Z</time>
      </trkpt>
      <trkpt lat="46.20187" lon="6.30671">
        <ele>716.59997558594</ele>
        <time>2020-02-23T15:10:28Z</time>
      </trkpt>
      <trkpt lat="46.20189" lon="6.30672">
        <ele>716.79998779297</ele>
        <time>2020-02-23T15:10:29Z</time>
      </trkpt>
      <trkpt lat="46.20191" lon="6.30674">
        <ele>717</ele>
        <time>2020-02-23T15:10:30Z</time>
      </trkpt>
      <trkpt lat="46.20192" lon="6.30675">
        <ele>717.20001220703</ele>
        <time>2020-02-23T15:10:31Z</time>
      </trkpt>
      <trkpt lat="46.20194" lon="6.30676">
        <ele>717.20001220703</ele>
        <time>2020-02-23T15:10:32Z</time>
      </trkpt>
      <trkpt lat="46.20195" lon="6.30677">
        <ele>717.59997558594</ele>
        <time>2020-02-23T15:10:33Z</time>
      </trkpt>
      <trkpt lat="46.20197" lon="6.30678">
        <ele>717.59997558594</ele>
        <time>2020-02-23T15:10:34Z</time>
      </trkpt>
      <trkpt lat="46.20198" lon="6.3068">
        <ele>718</ele>
        <time>2020-02-23T15:10:35Z</time>
      </trkpt>
      <trkpt lat="46.202" lon="6.30681">
        <ele>718.20001220703</ele>
        <time>2020-02-23T15:10:36Z</time>
      </trkpt>
      <trkpt lat="46.20201" lon="6.30682">
        <ele>718.20001220703</ele>
        <time>2020-02-23T15:10:37Z</time>
      </trkpt>
      <trkpt lat="46.20203" lon="6.30684">
        <ele>718.20001220703</ele>
        <time>2020-02-23T15:10:38Z</time>
      </trkpt>
      <trkpt lat="46.20205" lon="6.30685">
        <ele>718.40002441406</ele>
        <time>2020-02-23T15:10:39Z</time>
      </trkpt>
      <trkpt lat="46.20206" lon="6.30686">
        <ele>718.59997558594</ele>
        <time>2020-02-23T15:10:40Z</time>
      </trkpt>
      <trkpt lat="46.20208" lon="6.30687">
        <ele>718.79998779297</ele>
        <time>2020-02-23T15:10:41Z</time>
      </trkpt>
      <trkpt lat="46.20209" lon="6.30689">
        <ele>719</ele>
        <time>2020-02-23T15:10:42Z</time>
      </trkpt>
      <trkpt lat="46.20211" lon="6.3069">
        <ele>719.20001220703</ele>
        <time>2020-02-23T15:10:43Z</time>
      </trkpt>
      <trkpt lat="46.20212" lon="6.30691">
        <ele>719.59997558594</ele>
        <time>2020-02-23T15:10:44Z</time>
      </trkpt>
      <trkpt lat="46.20214" lon="6.30692">
        <ele>719.79998779297</ele>
        <time>2020-02-23T15:10:45Z</time>
      </trkpt>
      <trkpt lat="46.20215" lon="6.30693">
        <ele>719.79998779297</ele>
        <time>2020-02-23T15:10:46Z</time>
      </trkpt>
      <trkpt lat="46.20216" lon="6.30694">
        <ele>720.20001220703</ele>
        <time>2020-02-23T15:10:47Z</time>
      </trkpt>
      <trkpt lat="46.20218" lon="6.30695">
        <ele>720.20001220703</ele>
        <time>2020-02-23T15:10:48Z</time>
      </trkpt>
      <trkpt lat="46.20219" lon="6.30696">
        <ele>720.40002441406</ele>
        <time>2020-02-23T15:10:49Z</time>
      </trkpt>
      <trkpt lat="46.20221" lon="6.30697">
        <ele>720.79998779297</ele>
        <time>2020-02-23T15:10:50Z</time>
      </trkpt>
      <trkpt lat="46.20222" lon="6.30698">
        <ele>721</ele>
        <time>2020-02-23T15:10:51Z</time>
      </trkpt>
      <trkpt lat="46.20223" lon="6.30699">
        <ele>721.20001220703</ele>
        <time>2020-02-23T15:10:52Z</time>
      </trkpt>
      <trkpt lat="46.20225" lon="6.30701">
        <ele>721.20001220703</ele>
        <time>2020-02-23T15:10:53Z</time>
      </trkpt>
      <trkpt lat="46.20226" lon="6.30702">
        <ele>721.59997558594</ele>
        <time>2020-02-23T15:10:54Z</time>
      </trkpt>
      <trkpt lat="46.20227" lon="6.30703">
        <ele>721.79998779297</ele>
        <time>2020-02-23T15:10:55Z</time>
      </trkpt>
      <trkpt lat="46.20229" lon="6.30704">
        <ele>722</ele>
        <time>2020-02-23T15:10:56Z</time>
      </trkpt>
      <trkpt lat="46.20231" lon="6.30706">
        <ele>722</ele>
        <time>2020-02-23T15:10:57Z</time>
      </trkpt>
      <trkpt lat="46.20232" lon="6.30707">
        <ele>722.20001220703</ele>
        <time>2020-02-23T15:10:58Z</time>
      </trkpt>
      <trkpt lat="46.20233" lon="6.30708">
        <ele>722.20001220703</ele>
        <time>2020-02-23T15:10:59Z</time>
      </trkpt>
      <trkpt lat="46.20235" lon="6.30709">
        <ele>722.40002441406</ele>
        <time>2020-02-23T15:11:00Z</time>
      </trkpt>
      <trkpt lat="46.20236" lon="6.30711">
        <ele>722.59997558594</ele>
        <time>2020-02-23T15:11:01Z</time>
      </trkpt>
      <trkpt lat="46.20238" lon="6.30712">
        <ele>722.59997558594</ele>
        <time>2020-02-23T15:11:02Z</time>
      </trkpt>
      <trkpt lat="46.20239" lon="6.30713">
        <ele>722.79998779297</ele>
        <time>2020-02-23T15:11:03Z</time>
      </trkpt>
      <trkpt lat="46.20241" lon="6.30714">
        <ele>723</ele>
        <time>2020-02-23T15:11:04Z</time>
      </trkpt>
      <trkpt lat="46.20242" lon="6.30715">
        <ele>723.20001220703</ele>
        <time>2020-02-23T15:11:05Z</time>
      </trkpt>
      <trkpt lat="46.20244" lon="6.30716">
        <ele>723.40002441406</ele>
        <time>2020-02-23T15:11:06Z</time>
      </trkpt>
      <trkpt lat="46.20245" lon="6.30718">
        <ele>723.59997558594</ele>
        <time>2020-02-23T15:11:07Z</time>
      </trkpt>
      <trkpt lat="46.20246" lon="6.30718">
        <ele>723.59997558594</ele>
        <time>2020-02-23T15:11:08Z</time>
      </trkpt>
      <trkpt lat="46.20248" lon="6.30719">
        <ele>724</ele>
        <time>2020-02-23T15:11:09Z</time>
      </trkpt>
      <trkpt lat="46.20249" lon="6.3072">
        <ele>724.20001220703</ele>
        <time>2020-02-23T15:11:10Z</time>
      </trkpt>
      <trkpt lat="46.2025" lon="6.30721">
        <ele>724.40002441406</ele>
        <time>2020-02-23T15:11:11Z</time>
      </trkpt>
      <trkpt lat="46.20252" lon="6.30721">
        <ele>724.59997558594</ele>
        <time>2020-02-23T15:11:12Z</time>
      </trkpt>
      <trkpt lat="46.20253" lon="6.30723">
        <ele>724.79998779297</ele>
        <time>2020-02-23T15:11:13Z</time>
      </trkpt>
      <trkpt lat="46.20254" lon="6.30724">
        <ele>725</ele>
        <time>2020-02-23T15:11:14Z</time>
      </trkpt>
      <trkpt lat="46.20256" lon="6.30725">
        <ele>725</ele>
        <time>2020-02-23T15:11:15Z</time>
      </trkpt>
      <trkpt lat="46.20257" lon="6.30726">
        <ele>725.20001220703</ele>
        <time>2020-02-23T15:11:16Z</time>
      </trkpt>
      <trkpt lat="46.20259" lon="6.30728">
        <ele>725.59997558594</ele>
        <time>2020-02-23T15:11:17Z</time>
      </trkpt>
      <trkpt lat="46.2026" lon="6.30729">
        <ele>725.79998779297</ele>
        <time>2020-02-23T15:11:18Z</time>
      </trkpt>
      <trkpt lat="46.20261" lon="6.3073">
        <ele>726</ele>
        <time>2020-02-23T15:11:19Z</time>
      </trkpt>
      <trkpt lat="46.20263" lon="6.30731">
        <ele>726.20001220703</ele>
        <time>2020-02-23T15:11:20Z</time>
      </trkpt>
      <trkpt lat="46.20264" lon="6.30733">
        <ele>726.40002441406</ele>
        <time>2020-02-23T15:11:21Z</time>
      </trkpt>
      <trkpt lat="46.20266" lon="6.30734">
        <ele>726.59997558594</ele>
        <time>2020-02-23T15:11:22Z</time>
      </trkpt>
      <trkpt lat="46.20267" lon="6.30735">
        <ele>727</ele>
        <time>2020-02-23T15:11:23Z</time>
      </trkpt>
      <trkpt lat="46.20268" lon="6.30736">
        <ele>727</ele>
        <time>2020-02-23T15:11:24Z</time>
      </trkpt>
      <trkpt lat="46.2027" lon="6.30737">
        <ele>727.40002441406</ele>
        <time>2020-02-23T15:11:25Z</time>
      </trkpt>
      <trkpt lat="46.20271" lon="6.30738">
        <ele>727.59997558594</ele>
        <time>2020-02-23T15:11:26Z</time>
      </trkpt>
      <trkpt lat="46.20272" lon="6.30739">
        <ele>727.59997558594</ele>
        <time>2020-02-23T15:11:27Z</time>
      </trkpt>
      <trkpt lat="46.20274" lon="6.3074">
        <ele>728</ele>
        <time>2020-02-23T15:11:28Z</time>
      </trkpt>
      <trkpt lat="46.20275" lon="6.30741">
        <ele>728.20001220703</ele>
        <time>2020-02-23T15:11:29Z</time>
      </trkpt>
      <trkpt lat="46.20277" lon="6.30743">
        <ele>728.40002441406</ele>
        <time>2020-02-23T15:11:30Z</time>
      </trkpt>
      <trkpt lat="46.20278" lon="6.30744">
        <ele>728.59997558594</ele>
        <time>2020-02-23T15:11:31Z</time>
      </trkpt>
      <trkpt lat="46.20279" lon="6.30745">
        <ele>728.79998779297</ele>
        <time>2020-02-23T15:11:32Z</time>
      </trkpt>
      <trkpt lat="46.20281" lon="6.30746">
        <ele>729</ele>
        <time>2020-02-23T15:11:33Z</time>
      </trkpt>
      <trkpt lat="46.20282" lon="6.30747">
        <ele>729.20001220703</ele>
        <time>2020-02-23T15:11:34Z</time>
      </trkpt>
      <trkpt lat="46.20284" lon="6.30748">
        <ele>729.20001220703</ele>
        <time>2020-02-23T15:11:35Z</time>
      </trkpt>
      <trkpt lat="46.20285" lon="6.30749">
        <ele>729.59997558594</ele>
        <time>2020-02-23T15:11:36Z</time>
      </trkpt>
      <trkpt lat="46.20287" lon="6.3075">
        <ele>729.59997558594</ele>
        <time>2020-02-23T15:11:37Z</time>
      </trkpt>
      <trkpt lat="46.20288" lon="6.30751">
        <ele>729.79998779297</ele>
        <time>2020-02-23T15:11:38Z</time>
      </trkpt>
      <trkpt lat="46.2029" lon="6.30752">
        <ele>730</ele>
        <time>2020-02-23T15:11:39Z</time>
      </trkpt>
      <trkpt lat="46.20292" lon="6.30753">
        <ele>730</ele>
        <time>2020-02-23T15:11:40Z</time>
      </trkpt>
      <trkpt lat="46.20293" lon="6.30755">
        <ele>730.40002441406</ele>
        <time>2020-02-23T15:11:41Z</time>
      </trkpt>
      <trkpt lat="46.20294" lon="6.30756">
        <ele>730.59997558594</ele>
        <time>2020-02-23T15:11:42Z</time>
      </trkpt>
      <trkpt lat="46.20296" lon="6.30757">
        <ele>730.59997558594</ele>
        <time>2020-02-23T15:11:43Z</time>
      </trkpt>
      <trkpt lat="46.20298" lon="6.30759">
        <ele>730.79998779297</ele>
        <time>2020-02-23T15:11:44Z</time>
      </trkpt>
      <trkpt lat="46.20299" lon="6.3076">
        <ele>731</ele>
        <time>2020-02-23T15:11:45Z</time>
      </trkpt>
      <trkpt lat="46.203" lon="6.30762">
        <ele>731</ele>
        <time>2020-02-23T15:11:46Z</time>
      </trkpt>
      <trkpt lat="46.20301" lon="6.30764">
        <ele>731.40002441406</ele>
        <time>2020-02-23T15:11:47Z</time>
      </trkpt>
      <trkpt lat="46.20302" lon="6.30765">
        <ele>731.40002441406</ele>
        <time>2020-02-23T15:11:48Z</time>
      </trkpt>
      <trkpt lat="46.20304" lon="6.30767">
        <ele>731.79998779297</ele>
        <time>2020-02-23T15:11:49Z</time>
      </trkpt>
      <trkpt lat="46.20305" lon="6.30769">
        <ele>732</ele>
        <time>2020-02-23T15:11:50Z</time>
      </trkpt>
      <trkpt lat="46.20305" lon="6.30771">
        <ele>732</ele>
        <time>2020-02-23T15:11:51Z</time>
      </trkpt>
      <trkpt lat="46.20306" lon="6.30773">
        <ele>732.20001220703</ele>
        <time>2020-02-23T15:11:52Z</time>
      </trkpt>
      <trkpt lat="46.20307" lon="6.30775">
        <ele>732.40002441406</ele>
        <time>2020-02-23T15:11:53Z</time>
      </trkpt>
      <trkpt lat="46.20307" lon="6.30777">
        <ele>732.40002441406</ele>
        <time>2020-02-23T15:11:54Z</time>
      </trkpt>
      <trkpt lat="46.20307" lon="6.30779">
        <ele>732.79998779297</ele>
        <time>2020-02-23T15:11:55Z</time>
      </trkpt>
      <trkpt lat="46.20308" lon="6.3078">
        <ele>733</ele>
        <time>2020-02-23T15:11:56Z</time>
      </trkpt>
      <trkpt lat="46.20308" lon="6.30782">
        <ele>733.20001220703</ele>
        <time>2020-02-23T15:11:57Z</time>
      </trkpt>
      <trkpt lat="46.20308" lon="6.30784">
        <ele>733.59997558594</ele>
        <time>2020-02-23T15:11:58Z</time>
      </trkpt>
      <trkpt lat="46.20308" lon="6.30786">
        <ele>733.59997558594</ele>
        <time>2020-02-23T15:11:59Z</time>
      </trkpt>
      <trkpt lat="46.20308" lon="6.30788">
        <ele>734</ele>
        <time>2020-02-23T15:12:00Z</time>
      </trkpt>
      <trkpt lat="46.20308" lon="6.3079">
        <ele>734.20001220703</ele>
        <time>2020-02-23T15:12:01Z</time>
      </trkpt>
      <trkpt lat="46.20308" lon="6.30791">
        <ele>734.40002441406</ele>
        <time>2020-02-23T15:12:02Z</time>
      </trkpt>
      <trkpt lat="46.20307" lon="6.30793">
        <ele>734.79998779297</ele>
        <time>2020-02-23T15:12:03Z</time>
      </trkpt>
      <trkpt lat="46.20306" lon="6.30795">
        <ele>735</ele>
        <time>2020-02-23T15:12:04Z</time>
      </trkpt>
      <trkpt lat="46.20306" lon="6.30797">
        <ele>735</ele>
        <time>2020-02-23T15:12:05Z</time>
      </trkpt>
      <trkpt lat="46.20305" lon="6.30799">
        <ele>735.40002441406</ele>
        <time>2020-02-23T15:12:06Z</time>
      </trkpt>
      <trkpt lat="46.20305" lon="6.30801">
        <ele>735.59997558594</ele>
        <time>2020-02-23T15:12:07Z</time>
      </trkpt>
      <trkpt lat="46.20304" lon="6.30803">
        <ele>736</ele>
        <time>2020-02-23T15:12:08Z</time>
      </trkpt>
      <trkpt lat="46.20303" lon="6.30805">
        <ele>736.20001220703</ele>
        <time>2020-02-23T15:12:09Z</time>
      </trkpt>
      <trkpt lat="46.20302" lon="6.30806">
        <ele>736.40002441406</ele>
        <time>2020-02-23T15:12:10Z</time>
      </trkpt>
      <trkpt lat="46.20301" lon="6.30808">
        <ele>736.59997558594</ele>
        <time>2020-02-23T15:12:11Z</time>
      </trkpt>
      <trkpt lat="46.203" lon="6.30809">
        <ele>736.79998779297</ele>
        <time>2020-02-23T15:12:12Z</time>
      </trkpt>
      <trkpt lat="46.20299" lon="6.30811">
        <ele>737.20001220703</ele>
        <time>2020-02-23T15:12:13Z</time>
      </trkpt>
      <trkpt lat="46.20299" lon="6.30812">
        <ele>737.40002441406</ele>
        <time>2020-02-23T15:12:14Z</time>
      </trkpt>
      <trkpt lat="46.20298" lon="6.30814">
        <ele>737.59997558594</ele>
        <time>2020-02-23T15:12:15Z</time>
      </trkpt>
      <trkpt lat="46.20297" lon="6.30816">
        <ele>737.59997558594</ele>
        <time>2020-02-23T15:12:16Z</time>
      </trkpt>
      <trkpt lat="46.20296" lon="6.30817">
        <ele>737.79998779297</ele>
        <time>2020-02-23T15:12:17Z</time>
      </trkpt>
      <trkpt lat="46.20295" lon="6.30819">
        <ele>738.20001220703</ele>
        <time>2020-02-23T15:12:18Z</time>
      </trkpt>
      <trkpt lat="46.20295" lon="6.30821">
        <ele>738.40002441406</ele>
        <time>2020-02-23T15:12:19Z</time>
      </trkpt>
      <trkpt lat="46.20294" lon="6.30822">
        <ele>738.59997558594</ele>
        <time>2020-02-23T15:12:20Z</time>
      </trkpt>
      <trkpt lat="46.20293" lon="6.30823">
        <ele>738.79998779297</ele>
        <time>2020-02-23T15:12:21Z</time>
      </trkpt>
      <trkpt lat="46.20292" lon="6.30825">
        <ele>739</ele>
        <time>2020-02-23T15:12:22Z</time>
      </trkpt>
      <trkpt lat="46.20291" lon="6.30827">
        <ele>739.20001220703</ele>
        <time>2020-02-23T15:12:23Z</time>
      </trkpt>
      <trkpt lat="46.2029" lon="6.30828">
        <ele>739.40002441406</ele>
        <time>2020-02-23T15:12:24Z</time>
      </trkpt>
      <trkpt lat="46.20289" lon="6.30829">
        <ele>739.59997558594</ele>
        <time>2020-02-23T15:12:25Z</time>
      </trkpt>
      <trkpt lat="46.20288" lon="6.30831">
        <ele>739.79998779297</ele>
        <time>2020-02-23T15:12:26Z</time>
      </trkpt>
      <trkpt lat="46.20288" lon="6.30833">
        <ele>740</ele>
        <time>2020-02-23T15:12:27Z</time>
      </trkpt>
      <trkpt lat="46.20287" lon="6.30834">
        <ele>740</ele>
        <time>2020-02-23T15:12:28Z</time>
      </trkpt>
      <trkpt lat="46.20286" lon="6.30835">
        <ele>740.20001220703</ele>
        <time>2020-02-23T15:12:29Z</time>
      </trkpt>
      <trkpt lat="46.20285" lon="6.30837">
        <ele>740.20001220703</ele>
        <time>2020-02-23T15:12:30Z</time>
      </trkpt>
      <trkpt lat="46.20284" lon="6.30839">
        <ele>740.40002441406</ele>
        <time>2020-02-23T15:12:31Z</time>
      </trkpt>
      <trkpt lat="46.20283" lon="6.3084">
        <ele>740.59997558594</ele>
        <time>2020-02-23T15:12:32Z</time>
      </trkpt>
      <trkpt lat="46.20282" lon="6.30841">
        <ele>740.59997558594</ele>
        <time>2020-02-23T15:12:33Z</time>
      </trkpt>
      <trkpt lat="46.20281" lon="6.30843">
        <ele>741</ele>
        <time>2020-02-23T15:12:34Z</time>
      </trkpt>
      <trkpt lat="46.2028" lon="6.30844">
        <ele>741.20001220703</ele>
        <time>2020-02-23T15:12:35Z</time>
      </trkpt>
      <trkpt lat="46.20279" lon="6.30846">
        <ele>741.40002441406</ele>
        <time>2020-02-23T15:12:36Z</time>
      </trkpt>
      <trkpt lat="46.20279" lon="6.30847">
        <ele>741.40002441406</ele>
        <time>2020-02-23T15:12:37Z</time>
      </trkpt>
      <trkpt lat="46.20278" lon="6.30849">
        <ele>741.59997558594</ele>
        <time>2020-02-23T15:12:38Z</time>
      </trkpt>
      <trkpt lat="46.20277" lon="6.3085">
        <ele>741.79998779297</ele>
        <time>2020-02-23T15:12:39Z</time>
      </trkpt>
      <trkpt lat="46.20276" lon="6.30852">
        <ele>741.79998779297</ele>
        <time>2020-02-23T15:12:40Z</time>
      </trkpt>
      <trkpt lat="46.20275" lon="6.30853">
        <ele>742</ele>
        <time>2020-02-23T15:12:41Z</time>
      </trkpt>
      <trkpt lat="46.20274" lon="6.30855">
        <ele>742</ele>
        <time>2020-02-23T15:12:42Z</time>
      </trkpt>
      <trkpt lat="46.20273" lon="6.30856">
        <ele>742.20001220703</ele>
        <time>2020-02-23T15:12:43Z</time>
      </trkpt>
      <trkpt lat="46.20272" lon="6.30858">
        <ele>742.20001220703</ele>
        <time>2020-02-23T15:12:44Z</time>
      </trkpt>
      <trkpt lat="46.20271" lon="6.30859">
        <ele>742.40002441406</ele>
        <time>2020-02-23T15:12:45Z</time>
      </trkpt>
      <trkpt lat="46.2027" lon="6.30861">
        <ele>742.59997558594</ele>
        <time>2020-02-23T15:12:46Z</time>
      </trkpt>
      <trkpt lat="46.2027" lon="6.30863">
        <ele>742.79998779297</ele>
        <time>2020-02-23T15:12:47Z</time>
      </trkpt>
      <trkpt lat="46.20269" lon="6.30864">
        <ele>743</ele>
        <time>2020-02-23T15:12:48Z</time>
      </trkpt>
      <trkpt lat="46.20268" lon="6.30866">
        <ele>743</ele>
        <time>2020-02-23T15:12:49Z</time>
      </trkpt>
      <trkpt lat="46.20267" lon="6.30868">
        <ele>743.20001220703</ele>
        <time>2020-02-23T15:12:50Z</time>
      </trkpt>
      <trkpt lat="46.20266" lon="6.30869">
        <ele>743.20001220703</ele>
        <time>2020-02-23T15:12:51Z</time>
      </trkpt>
      <trkpt lat="46.20266" lon="6.30871">
        <ele>743.40002441406</ele>
        <time>2020-02-23T15:12:52Z</time>
      </trkpt>
      <trkpt lat="46.20265" lon="6.30872">
        <ele>743.59997558594</ele>
        <time>2020-02-23T15:12:53Z</time>
      </trkpt>
      <trkpt lat="46.20264" lon="6.30874">
        <ele>743.79998779297</ele>
        <time>2020-02-23T15:12:54Z</time>
      </trkpt>
      <trkpt lat="46.20263" lon="6.30876">
        <ele>744</ele>
        <time>2020-02-23T15:12:55Z</time>
      </trkpt>
      <trkpt lat="46.20262" lon="6.30877">
        <ele>744.20001220703</ele>
        <time>2020-02-23T15:12:56Z</time>
      </trkpt>
      <trkpt lat="46.20261" lon="6.30878">
        <ele>744.40002441406</ele>
        <time>2020-02-23T15:12:57Z</time>
      </trkpt>
      <trkpt lat="46.2026" lon="6.30879">
        <ele>744.40002441406</ele>
        <time>2020-02-23T15:12:58Z</time>
      </trkpt>
      <trkpt lat="46.20259" lon="6.30881">
        <ele>744.59997558594</ele>
        <time>2020-02-23T15:12:59Z</time>
      </trkpt>
      <trkpt lat="46.20257" lon="6.30882">
        <ele>744.79998779297</ele>
        <time>2020-02-23T15:13:00Z</time>
      </trkpt>
      <trkpt lat="46.20257" lon="6.30884">
        <ele>745</ele>
        <time>2020-02-23T15:13:01Z</time>
      </trkpt>
      <trkpt lat="46.20256" lon="6.30885">
        <ele>745</ele>
        <time>2020-02-23T15:13:02Z</time>
      </trkpt>
      <trkpt lat="46.20255" lon="6.30887">
        <ele>745.40002441406</ele>
        <time>2020-02-23T15:13:03Z</time>
      </trkpt>
      <trkpt lat="46.20254" lon="6.30889">
        <ele>745.40002441406</ele>
        <time>2020-02-23T15:13:04Z</time>
      </trkpt>
      <trkpt lat="46.20253" lon="6.3089">
        <ele>745.40002441406</ele>
        <time>2020-02-23T15:13:05Z</time>
      </trkpt>
      <trkpt lat="46.20252" lon="6.30892">
        <ele>745.59997558594</ele>
        <time>2020-02-23T15:13:06Z</time>
      </trkpt>
      <trkpt lat="46.20251" lon="6.30893">
        <ele>745.79998779297</ele>
        <time>2020-02-23T15:13:07Z</time>
      </trkpt>
      <trkpt lat="46.2025" lon="6.30895">
        <ele>745.79998779297</ele>
        <time>2020-02-23T15:13:08Z</time>
      </trkpt>
      <trkpt lat="46.20249" lon="6.30896">
        <ele>746</ele>
        <time>2020-02-23T15:13:09Z</time>
      </trkpt>
      <trkpt lat="46.20248" lon="6.30898">
        <ele>746.20001220703</ele>
        <time>2020-02-23T15:13:10Z</time>
      </trkpt>
      <trkpt lat="46.20247" lon="6.309">
        <ele>746.40002441406</ele>
        <time>2020-02-23T15:13:11Z</time>
      </trkpt>
      <trkpt lat="46.20247" lon="6.30901">
        <ele>746.59997558594</ele>
        <time>2020-02-23T15:13:12Z</time>
      </trkpt>
      <trkpt lat="46.20246" lon="6.30903">
        <ele>746.59997558594</ele>
        <time>2020-02-23T15:13:13Z</time>
      </trkpt>
      <trkpt lat="46.20245" lon="6.30905">
        <ele>746.79998779297</ele>
        <time>2020-02-23T15:13:14Z</time>
      </trkpt>
      <trkpt lat="46.20244" lon="6.30906">
        <ele>747</ele>
        <time>2020-02-23T15:13:15Z</time>
      </trkpt>
      <trkpt lat="46.20243" lon="6.30908">
        <ele>747.20001220703</ele>
        <time>2020-02-23T15:13:16Z</time>
      </trkpt>
      <trkpt lat="46.20242" lon="6.30909">
        <ele>747.20001220703</ele>
        <time>2020-02-23T15:13:17Z</time>
      </trkpt>
      <trkpt lat="46.20241" lon="6.30911">
        <ele>747.59997558594</ele>
        <time>2020-02-23T15:13:18Z</time>
      </trkpt>
      <trkpt lat="46.2024" lon="6.30912">
        <ele>747.79998779297</ele>
        <time>2020-02-23T15:13:19Z</time>
      </trkpt>
      <trkpt lat="46.2024" lon="6.30914">
        <ele>748</ele>
        <time>2020-02-23T15:13:20Z</time>
      </trkpt>
      <trkpt lat="46.20239" lon="6.30916">
        <ele>748.20001220703</ele>
        <time>2020-02-23T15:13:21Z</time>
      </trkpt>
      <trkpt lat="46.20238" lon="6.30917">
        <ele>748.40002441406</ele>
        <time>2020-02-23T15:13:22Z</time>
      </trkpt>
      <trkpt lat="46.20237" lon="6.30919">
        <ele>748.40002441406</ele>
        <time>2020-02-23T15:13:23Z</time>
      </trkpt>
      <trkpt lat="46.20236" lon="6.3092">
        <ele>748.59997558594</ele>
        <time>2020-02-23T15:13:24Z</time>
      </trkpt>
      <trkpt lat="46.20235" lon="6.30922">
        <ele>748.79998779297</ele>
        <time>2020-02-23T15:13:25Z</time>
      </trkpt>
      <trkpt lat="46.20234" lon="6.30923">
        <ele>749</ele>
        <time>2020-02-23T15:13:26Z</time>
      </trkpt>
      <trkpt lat="46.20233" lon="6.30925">
        <ele>749</ele>
        <time>2020-02-23T15:13:27Z</time>
      </trkpt>
      <trkpt lat="46.20232" lon="6.30926">
        <ele>749.20001220703</ele>
        <time>2020-02-23T15:13:28Z</time>
      </trkpt>
      <trkpt lat="46.20232" lon="6.30928">
        <ele>749.20001220703</ele>
        <time>2020-02-23T15:13:29Z</time>
      </trkpt>
      <trkpt lat="46.20231" lon="6.30929">
        <ele>749.20001220703</ele>
        <time>2020-02-23T15:13:30Z</time>
      </trkpt>
      <trkpt lat="46.2023" lon="6.30931">
        <ele>749.59997558594</ele>
        <time>2020-02-23T15:13:31Z</time>
      </trkpt>
      <trkpt lat="46.20229" lon="6.30932">
        <ele>749.59997558594</ele>
        <time>2020-02-23T15:13:32Z</time>
      </trkpt>
      <trkpt lat="46.20228" lon="6.30933">
        <ele>749.79998779297</ele>
        <time>2020-02-23T15:13:33Z</time>
      </trkpt>
      <trkpt lat="46.20227" lon="6.30934">
        <ele>750.20001220703</ele>
        <time>2020-02-23T15:13:35Z</time>
      </trkpt>
      <trkpt lat="46.20227" lon="6.30934">
        <ele>750.40002441406</ele>
        <time>2020-02-23T15:13:36Z</time>
      </trkpt>
      <trkpt lat="46.20227" lon="6.30934">
        <ele>751.59997558594</ele>
        <time>2020-02-23T15:13:53Z</time>
      </trkpt>
      <trkpt lat="46.20227" lon="6.30935">
        <ele>751.59997558594</ele>
        <time>2020-02-23T15:14:20Z</time>
      </trkpt>
      <trkpt lat="46.20227" lon="6.30936">
        <ele>751.59997558594</ele>
        <time>2020-02-23T15:14:21Z</time>
      </trkpt>
      <trkpt lat="46.20226" lon="6.30937">
        <ele>751.59997558594</ele>
        <time>2020-02-23T15:14:22Z</time>
      </trkpt>
      <trkpt lat="46.20225" lon="6.30939">
        <ele>751.59997558594</ele>
        <time>2020-02-23T15:14:23Z</time>
      </trkpt>
      <trkpt lat="46.20221" lon="6.30946">
        <ele>751.79998779297</ele>
        <time>2020-02-23T15:14:27Z</time>
      </trkpt>
      <trkpt lat="46.2022" lon="6.30948">
        <ele>751.59997558594</ele>
        <time>2020-02-23T15:14:28Z</time>
      </trkpt>
      <trkpt lat="46.20219" lon="6.3095">
        <ele>751.79998779297</ele>
        <time>2020-02-23T15:14:29Z</time>
      </trkpt>
      <trkpt lat="46.20218" lon="6.30951">
        <ele>751.79998779297</ele>
        <time>2020-02-23T15:14:30Z</time>
      </trkpt>
      <trkpt lat="46.20217" lon="6.30953">
        <ele>751.79998779297</ele>
        <time>2020-02-23T15:14:31Z</time>
      </trkpt>
      <trkpt lat="46.20216" lon="6.30955">
        <ele>751.79998779297</ele>
        <time>2020-02-23T15:14:32Z</time>
      </trkpt>
      <trkpt lat="46.20214" lon="6.30957">
        <ele>751.79998779297</ele>
        <time>2020-02-23T15:14:33Z</time>
      </trkpt>
      <trkpt lat="46.20213" lon="6.30958">
        <ele>752.20001220703</ele>
        <time>2020-02-23T15:14:34Z</time>
      </trkpt>
      <trkpt lat="46.20212" lon="6.3096">
        <ele>752</ele>
        <time>2020-02-23T15:14:35Z</time>
      </trkpt>
      <trkpt lat="46.20211" lon="6.30961">
        <ele>752.20001220703</ele>
        <time>2020-02-23T15:14:36Z</time>
      </trkpt>
      <trkpt lat="46.2021" lon="6.30963">
        <ele>752.40002441406</ele>
        <time>2020-02-23T15:14:37Z</time>
      </trkpt>
      <trkpt lat="46.20209" lon="6.30965">
        <ele>752.79998779297</ele>
        <time>2020-02-23T15:14:38Z</time>
      </trkpt>
      <trkpt lat="46.20208" lon="6.30967">
        <ele>752.79998779297</ele>
        <time>2020-02-23T15:14:39Z</time>
      </trkpt>
      <trkpt lat="46.20207" lon="6.30969">
        <ele>753</ele>
        <time>2020-02-23T15:14:40Z</time>
      </trkpt>
      <trkpt lat="46.20206" lon="6.3097">
        <ele>753.40002441406</ele>
        <time>2020-02-23T15:14:41Z</time>
      </trkpt>
      <trkpt lat="46.20204" lon="6.30971">
        <ele>753.40002441406</ele>
        <time>2020-02-23T15:14:42Z</time>
      </trkpt>
      <trkpt lat="46.20203" lon="6.30973">
        <ele>753.40002441406</ele>
        <time>2020-02-23T15:14:43Z</time>
      </trkpt>
      <trkpt lat="46.20202" lon="6.30974">
        <ele>753.79998779297</ele>
        <time>2020-02-23T15:14:44Z</time>
      </trkpt>
      <trkpt lat="46.20201" lon="6.30975">
        <ele>753.79998779297</ele>
        <time>2020-02-23T15:14:45Z</time>
      </trkpt>
      <trkpt lat="46.202" lon="6.30977">
        <ele>754.20001220703</ele>
        <time>2020-02-23T15:14:46Z</time>
      </trkpt>
      <trkpt lat="46.20199" lon="6.30979">
        <ele>754.40002441406</ele>
        <time>2020-02-23T15:14:47Z</time>
      </trkpt>
      <trkpt lat="46.20198" lon="6.3098">
        <ele>754.40002441406</ele>
        <time>2020-02-23T15:14:48Z</time>
      </trkpt>
      <trkpt lat="46.20196" lon="6.30981">
        <ele>754.59997558594</ele>
        <time>2020-02-23T15:14:49Z</time>
      </trkpt>
      <trkpt lat="46.20195" lon="6.30982">
        <ele>754.79998779297</ele>
        <time>2020-02-23T15:14:50Z</time>
      </trkpt>
      <trkpt lat="46.20194" lon="6.30983">
        <ele>755</ele>
        <time>2020-02-23T15:14:51Z</time>
      </trkpt>
      <trkpt lat="46.20193" lon="6.30985">
        <ele>755.20001220703</ele>
        <time>2020-02-23T15:14:52Z</time>
      </trkpt>
      <trkpt lat="46.20192" lon="6.30986">
        <ele>755.20001220703</ele>
        <time>2020-02-23T15:14:53Z</time>
      </trkpt>
      <trkpt lat="46.20191" lon="6.30987">
        <ele>755.59997558594</ele>
        <time>2020-02-23T15:14:54Z</time>
      </trkpt>
      <trkpt lat="46.2019" lon="6.30988">
        <ele>755.59997558594</ele>
        <time>2020-02-23T15:14:55Z</time>
      </trkpt>
      <trkpt lat="46.20189" lon="6.30989">
        <ele>755.79998779297</ele>
        <time>2020-02-23T15:14:56Z</time>
      </trkpt>
      <trkpt lat="46.20188" lon="6.3099">
        <ele>756.20001220703</ele>
        <time>2020-02-23T15:14:57Z</time>
      </trkpt>
      <trkpt lat="46.20187" lon="6.3099">
        <ele>756.20001220703</ele>
        <time>2020-02-23T15:14:58Z</time>
      </trkpt>
      <trkpt lat="46.20185" lon="6.30991">
        <ele>756.40002441406</ele>
        <time>2020-02-23T15:14:59Z</time>
      </trkpt>
      <trkpt lat="46.20184" lon="6.30993">
        <ele>756.79998779297</ele>
        <time>2020-02-23T15:15:00Z</time>
      </trkpt>
      <trkpt lat="46.20183" lon="6.30994">
        <ele>756.79998779297</ele>
        <time>2020-02-23T15:15:01Z</time>
      </trkpt>
      <trkpt lat="46.20182" lon="6.30995">
        <ele>757.20001220703</ele>
        <time>2020-02-23T15:15:02Z</time>
      </trkpt>
      <trkpt lat="46.20181" lon="6.30996">
        <ele>757.20001220703</ele>
        <time>2020-02-23T15:15:03Z</time>
      </trkpt>
      <trkpt lat="46.2018" lon="6.30997">
        <ele>757.40002441406</ele>
        <time>2020-02-23T15:15:04Z</time>
      </trkpt>
      <trkpt lat="46.20179" lon="6.30998">
        <ele>757.59997558594</ele>
        <time>2020-02-23T15:15:05Z</time>
      </trkpt>
      <trkpt lat="46.20177" lon="6.30999">
        <ele>757.79998779297</ele>
        <time>2020-02-23T15:15:06Z</time>
      </trkpt>
      <trkpt lat="46.20176" lon="6.31001">
        <ele>757.79998779297</ele>
        <time>2020-02-23T15:15:07Z</time>
      </trkpt>
      <trkpt lat="46.20175" lon="6.31002">
        <ele>757.79998779297</ele>
        <time>2020-02-23T15:15:08Z</time>
      </trkpt>
      <trkpt lat="46.20174" lon="6.31004">
        <ele>758</ele>
        <time>2020-02-23T15:15:09Z</time>
      </trkpt>
      <trkpt lat="46.20173" lon="6.31005">
        <ele>758.20001220703</ele>
        <time>2020-02-23T15:15:10Z</time>
      </trkpt>
      <trkpt lat="46.20173" lon="6.31007">
        <ele>758.59997558594</ele>
        <time>2020-02-23T15:15:11Z</time>
      </trkpt>
      <trkpt lat="46.20172" lon="6.31008">
        <ele>758.59997558594</ele>
        <time>2020-02-23T15:15:12Z</time>
      </trkpt>
      <trkpt lat="46.20171" lon="6.3101">
        <ele>758.79998779297</ele>
        <time>2020-02-23T15:15:13Z</time>
      </trkpt>
      <trkpt lat="46.2017" lon="6.31011">
        <ele>759</ele>
        <time>2020-02-23T15:15:14Z</time>
      </trkpt>
      <trkpt lat="46.20169" lon="6.31013">
        <ele>759.20001220703</ele>
        <time>2020-02-23T15:15:15Z</time>
      </trkpt>
      <trkpt lat="46.20168" lon="6.31014">
        <ele>759.40002441406</ele>
        <time>2020-02-23T15:15:16Z</time>
      </trkpt>
      <trkpt lat="46.20167" lon="6.31016">
        <ele>759.79998779297</ele>
        <time>2020-02-23T15:15:17Z</time>
      </trkpt>
      <trkpt lat="46.20166" lon="6.31018">
        <ele>760</ele>
        <time>2020-02-23T15:15:18Z</time>
      </trkpt>
      <trkpt lat="46.20166" lon="6.3102">
        <ele>760.40002441406</ele>
        <time>2020-02-23T15:15:19Z</time>
      </trkpt>
      <trkpt lat="46.20165" lon="6.31021">
        <ele>760.40002441406</ele>
        <time>2020-02-23T15:15:20Z</time>
      </trkpt>
      <trkpt lat="46.20164" lon="6.31023">
        <ele>760.79998779297</ele>
        <time>2020-02-23T15:15:21Z</time>
      </trkpt>
      <trkpt lat="46.20164" lon="6.31025">
        <ele>760.79998779297</ele>
        <time>2020-02-23T15:15:22Z</time>
      </trkpt>
      <trkpt lat="46.20163" lon="6.31026">
        <ele>761</ele>
        <time>2020-02-23T15:15:23Z</time>
      </trkpt>
      <trkpt lat="46.20162" lon="6.31028">
        <ele>761.20001220703</ele>
        <time>2020-02-23T15:15:24Z</time>
      </trkpt>
      <trkpt lat="46.20162" lon="6.3103">
        <ele>761.20001220703</ele>
        <time>2020-02-23T15:15:25Z</time>
      </trkpt>
      <trkpt lat="46.20161" lon="6.31031">
        <ele>761.59997558594</ele>
        <time>2020-02-23T15:15:26Z</time>
      </trkpt>
      <trkpt lat="46.20161" lon="6.31034">
        <ele>761.59997558594</ele>
        <time>2020-02-23T15:15:27Z</time>
      </trkpt>
      <trkpt lat="46.2016" lon="6.31036">
        <ele>762</ele>
        <time>2020-02-23T15:15:28Z</time>
      </trkpt>
      <trkpt lat="46.20159" lon="6.31038">
        <ele>762.20001220703</ele>
        <time>2020-02-23T15:15:29Z</time>
      </trkpt>
      <trkpt lat="46.20159" lon="6.3104">
        <ele>762.20001220703</ele>
        <time>2020-02-23T15:15:30Z</time>
      </trkpt>
      <trkpt lat="46.20158" lon="6.31041">
        <ele>762.20001220703</ele>
        <time>2020-02-23T15:15:31Z</time>
      </trkpt>
      <trkpt lat="46.20158" lon="6.31043">
        <ele>762.40002441406</ele>
        <time>2020-02-23T15:15:32Z</time>
      </trkpt>
      <trkpt lat="46.20157" lon="6.31045">
        <ele>762.59997558594</ele>
        <time>2020-02-23T15:15:33Z</time>
      </trkpt>
      <trkpt lat="46.20156" lon="6.31047">
        <ele>762.79998779297</ele>
        <time>2020-02-23T15:15:34Z</time>
      </trkpt>
      <trkpt lat="46.20156" lon="6.31049">
        <ele>763</ele>
        <time>2020-02-23T15:15:35Z</time>
      </trkpt>
      <trkpt lat="46.20155" lon="6.31051">
        <ele>763.20001220703</ele>
        <time>2020-02-23T15:15:36Z</time>
      </trkpt>
      <trkpt lat="46.20155" lon="6.31053">
        <ele>763.20001220703</ele>
        <time>2020-02-23T15:15:37Z</time>
      </trkpt>
      <trkpt lat="46.20155" lon="6.31055">
        <ele>763.40002441406</ele>
        <time>2020-02-23T15:15:38Z</time>
      </trkpt>
      <trkpt lat="46.20154" lon="6.31057">
        <ele>763.59997558594</ele>
        <time>2020-02-23T15:15:39Z</time>
      </trkpt>
      <trkpt lat="46.20154" lon="6.31059">
        <ele>763.59997558594</ele>
        <time>2020-02-23T15:15:40Z</time>
      </trkpt>
      <trkpt lat="46.20154" lon="6.31061">
        <ele>763.79998779297</ele>
        <time>2020-02-23T15:15:41Z</time>
      </trkpt>
      <trkpt lat="46.20153" lon="6.31063">
        <ele>764</ele>
        <time>2020-02-23T15:15:42Z</time>
      </trkpt>
      <trkpt lat="46.20153" lon="6.31065">
        <ele>764.20001220703</ele>
        <time>2020-02-23T15:15:43Z</time>
      </trkpt>
      <trkpt lat="46.20153" lon="6.31067">
        <ele>764.40002441406</ele>
        <time>2020-02-23T15:15:44Z</time>
      </trkpt>
      <trkpt lat="46.20152" lon="6.31069">
        <ele>764.40002441406</ele>
        <time>2020-02-23T15:15:45Z</time>
      </trkpt>
      <trkpt lat="46.20152" lon="6.31071">
        <ele>764.59997558594</ele>
        <time>2020-02-23T15:15:46Z</time>
      </trkpt>
      <trkpt lat="46.20151" lon="6.31073">
        <ele>765</ele>
        <time>2020-02-23T15:15:47Z</time>
      </trkpt>
      <trkpt lat="46.20151" lon="6.31075">
        <ele>764.79998779297</ele>
        <time>2020-02-23T15:15:48Z</time>
      </trkpt>
      <trkpt lat="46.2015" lon="6.31077">
        <ele>765</ele>
        <time>2020-02-23T15:15:49Z</time>
      </trkpt>
      <trkpt lat="46.2015" lon="6.31079">
        <ele>765.20001220703</ele>
        <time>2020-02-23T15:15:50Z</time>
      </trkpt>
      <trkpt lat="46.2015" lon="6.31081">
        <ele>765.20001220703</ele>
        <time>2020-02-23T15:15:51Z</time>
      </trkpt>
      <trkpt lat="46.20149" lon="6.31083">
        <ele>765.40002441406</ele>
        <time>2020-02-23T15:15:52Z</time>
      </trkpt>
      <trkpt lat="46.20149" lon="6.31085">
        <ele>765.59997558594</ele>
        <time>2020-02-23T15:15:53Z</time>
      </trkpt>
      <trkpt lat="46.20149" lon="6.31087">
        <ele>765.79998779297</ele>
        <time>2020-02-23T15:15:54Z</time>
      </trkpt>
      <trkpt lat="46.20148" lon="6.31088">
        <ele>765.79998779297</ele>
        <time>2020-02-23T15:15:55Z</time>
      </trkpt>
      <trkpt lat="46.20147" lon="6.3109">
        <ele>766</ele>
        <time>2020-02-23T15:15:56Z</time>
      </trkpt>
      <trkpt lat="46.20147" lon="6.31092">
        <ele>766.20001220703</ele>
        <time>2020-02-23T15:15:57Z</time>
      </trkpt>
      <trkpt lat="46.20147" lon="6.31094">
        <ele>766.20001220703</ele>
        <time>2020-02-23T15:15:58Z</time>
      </trkpt>
      <trkpt lat="46.20146" lon="6.31096">
        <ele>766.40002441406</ele>
        <time>2020-02-23T15:15:59Z</time>
      </trkpt>
      <trkpt lat="46.20146" lon="6.31098">
        <ele>766.59997558594</ele>
        <time>2020-02-23T15:16:00Z</time>
      </trkpt>
      <trkpt lat="46.20146" lon="6.311">
        <ele>766.79998779297</ele>
        <time>2020-02-23T15:16:01Z</time>
      </trkpt>
      <trkpt lat="46.20146" lon="6.31102">
        <ele>766.79998779297</ele>
        <time>2020-02-23T15:16:02Z</time>
      </trkpt>
      <trkpt lat="46.20146" lon="6.31105">
        <ele>767</ele>
        <time>2020-02-23T15:16:03Z</time>
      </trkpt>
      <trkpt lat="46.20146" lon="6.31107">
        <ele>767.20001220703</ele>
        <time>2020-02-23T15:16:04Z</time>
      </trkpt>
      <trkpt lat="46.20147" lon="6.31109">
        <ele>767.40002441406</ele>
        <time>2020-02-23T15:16:05Z</time>
      </trkpt>
      <trkpt lat="46.20146" lon="6.31112">
        <ele>767.59997558594</ele>
        <time>2020-02-23T15:16:06Z</time>
      </trkpt>
      <trkpt lat="46.20146" lon="6.31114">
        <ele>767.79998779297</ele>
        <time>2020-02-23T15:16:07Z</time>
      </trkpt>
      <trkpt lat="46.20146" lon="6.31116">
        <ele>767.79998779297</ele>
        <time>2020-02-23T15:16:08Z</time>
      </trkpt>
      <trkpt lat="46.20146" lon="6.31118">
        <ele>768</ele>
        <time>2020-02-23T15:16:09Z</time>
      </trkpt>
      <trkpt lat="46.20146" lon="6.31121">
        <ele>768.20001220703</ele>
        <time>2020-02-23T15:16:10Z</time>
      </trkpt>
      <trkpt lat="46.20146" lon="6.31123">
        <ele>768.59997558594</ele>
        <time>2020-02-23T15:16:11Z</time>
      </trkpt>
      <trkpt lat="46.20146" lon="6.31126">
        <ele>768.79998779297</ele>
        <time>2020-02-23T15:16:12Z</time>
      </trkpt>
      <trkpt lat="46.20146" lon="6.31128">
        <ele>768.79998779297</ele>
        <time>2020-02-23T15:16:13Z</time>
      </trkpt>
      <trkpt lat="46.20146" lon="6.3113">
        <ele>768.79998779297</ele>
        <time>2020-02-23T15:16:14Z</time>
      </trkpt>
      <trkpt lat="46.20147" lon="6.31133">
        <ele>769</ele>
        <time>2020-02-23T15:16:15Z</time>
      </trkpt>
      <trkpt lat="46.20147" lon="6.31135">
        <ele>769.40002441406</ele>
        <time>2020-02-23T15:16:16Z</time>
      </trkpt>
      <trkpt lat="46.20147" lon="6.31138">
        <ele>769.40002441406</ele>
        <time>2020-02-23T15:16:17Z</time>
      </trkpt>
      <trkpt lat="46.20147" lon="6.3114">
        <ele>769.40002441406</ele>
        <time>2020-02-23T15:16:18Z</time>
      </trkpt>
      <trkpt lat="46.20147" lon="6.31142">
        <ele>769.40002441406</ele>
        <time>2020-02-23T15:16:19Z</time>
      </trkpt>
      <trkpt lat="46.20147" lon="6.31145">
        <ele>769.79998779297</ele>
        <time>2020-02-23T15:16:20Z</time>
      </trkpt>
      <trkpt lat="46.20147" lon="6.31147">
        <ele>769.79998779297</ele>
        <time>2020-02-23T15:16:21Z</time>
      </trkpt>
      <trkpt lat="46.20147" lon="6.31149">
        <ele>770</ele>
        <time>2020-02-23T15:16:22Z</time>
      </trkpt>
      <trkpt lat="46.20147" lon="6.31151">
        <ele>770.20001220703</ele>
        <time>2020-02-23T15:16:23Z</time>
      </trkpt>
      <trkpt lat="46.20147" lon="6.31154">
        <ele>770.20001220703</ele>
        <time>2020-02-23T15:16:24Z</time>
      </trkpt>
      <trkpt lat="46.20147" lon="6.31156">
        <ele>770.40002441406</ele>
        <time>2020-02-23T15:16:25Z</time>
      </trkpt>
      <trkpt lat="46.20147" lon="6.31158">
        <ele>770.40002441406</ele>
        <time>2020-02-23T15:16:26Z</time>
      </trkpt>
      <trkpt lat="46.20147" lon="6.3116">
        <ele>770.79998779297</ele>
        <time>2020-02-23T15:16:27Z</time>
      </trkpt>
      <trkpt lat="46.20147" lon="6.31163">
        <ele>771</ele>
        <time>2020-02-23T15:16:28Z</time>
      </trkpt>
      <trkpt lat="46.20147" lon="6.31165">
        <ele>770.79998779297</ele>
        <time>2020-02-23T15:16:29Z</time>
      </trkpt>
      <trkpt lat="46.20147" lon="6.31167">
        <ele>771</ele>
        <time>2020-02-23T15:16:30Z</time>
      </trkpt>
      <trkpt lat="46.20147" lon="6.3117">
        <ele>771.20001220703</ele>
        <time>2020-02-23T15:16:31Z</time>
      </trkpt>
      <trkpt lat="46.20147" lon="6.31172">
        <ele>771.20001220703</ele>
        <time>2020-02-23T15:16:32Z</time>
      </trkpt>
      <trkpt lat="46.20147" lon="6.31174">
        <ele>771.40002441406</ele>
        <time>2020-02-23T15:16:33Z</time>
      </trkpt>
      <trkpt lat="46.20147" lon="6.31177">
        <ele>771.40002441406</ele>
        <time>2020-02-23T15:16:34Z</time>
      </trkpt>
      <trkpt lat="46.20147" lon="6.31179">
        <ele>771.40002441406</ele>
        <time>2020-02-23T15:16:35Z</time>
      </trkpt>
      <trkpt lat="46.20147" lon="6.31181">
        <ele>771.79998779297</ele>
        <time>2020-02-23T15:16:36Z</time>
      </trkpt>
      <trkpt lat="46.20147" lon="6.31183">
        <ele>771.79998779297</ele>
        <time>2020-02-23T15:16:37Z</time>
      </trkpt>
      <trkpt lat="46.20147" lon="6.31186">
        <ele>772</ele>
        <time>2020-02-23T15:16:38Z</time>
      </trkpt>
      <trkpt lat="46.20147" lon="6.31188">
        <ele>772.20001220703</ele>
        <time>2020-02-23T15:16:39Z</time>
      </trkpt>
      <trkpt lat="46.20147" lon="6.31191">
        <ele>772.20001220703</ele>
        <time>2020-02-23T15:16:40Z</time>
      </trkpt>
      <trkpt lat="46.20147" lon="6.31193">
        <ele>772.59997558594</ele>
        <time>2020-02-23T15:16:41Z</time>
      </trkpt>
      <trkpt lat="46.20147" lon="6.31195">
        <ele>772.59997558594</ele>
        <time>2020-02-23T15:16:42Z</time>
      </trkpt>
      <trkpt lat="46.20147" lon="6.31198">
        <ele>772.59997558594</ele>
        <time>2020-02-23T15:16:43Z</time>
      </trkpt>
      <trkpt lat="46.20147" lon="6.312">
        <ele>772.59997558594</ele>
        <time>2020-02-23T15:16:44Z</time>
      </trkpt>
      <trkpt lat="46.20147" lon="6.31202">
        <ele>773</ele>
        <time>2020-02-23T15:16:45Z</time>
      </trkpt>
      <trkpt lat="46.20147" lon="6.31204">
        <ele>773</ele>
        <time>2020-02-23T15:16:46Z</time>
      </trkpt>
      <trkpt lat="46.20148" lon="6.31206">
        <ele>773</ele>
        <time>2020-02-23T15:16:47Z</time>
      </trkpt>
      <trkpt lat="46.20148" lon="6.31209">
        <ele>773.20001220703</ele>
        <time>2020-02-23T15:16:48Z</time>
      </trkpt>
      <trkpt lat="46.20148" lon="6.31211">
        <ele>773.40002441406</ele>
        <time>2020-02-23T15:16:49Z</time>
      </trkpt>
      <trkpt lat="46.20148" lon="6.31213">
        <ele>773.40002441406</ele>
        <time>2020-02-23T15:16:50Z</time>
      </trkpt>
      <trkpt lat="46.20148" lon="6.31216">
        <ele>773.40002441406</ele>
        <time>2020-02-23T15:16:51Z</time>
      </trkpt>
      <trkpt lat="46.20149" lon="6.31218">
        <ele>773.59997558594</ele>
        <time>2020-02-23T15:16:52Z</time>
      </trkpt>
      <trkpt lat="46.20149" lon="6.3122">
        <ele>773.79998779297</ele>
        <time>2020-02-23T15:16:53Z</time>
      </trkpt>
      <trkpt lat="46.20149" lon="6.31222">
        <ele>774</ele>
        <time>2020-02-23T15:16:54Z</time>
      </trkpt>
      <trkpt lat="46.2015" lon="6.31225">
        <ele>774</ele>
        <time>2020-02-23T15:16:55Z</time>
      </trkpt>
      <trkpt lat="46.2015" lon="6.31227">
        <ele>774</ele>
        <time>2020-02-23T15:16:56Z</time>
      </trkpt>
      <trkpt lat="46.2015" lon="6.31229">
        <ele>774.20001220703</ele>
        <time>2020-02-23T15:16:57Z</time>
      </trkpt>
      <trkpt lat="46.20151" lon="6.31231">
        <ele>774.59997558594</ele>
        <time>2020-02-23T15:16:58Z</time>
      </trkpt>
      <trkpt lat="46.20151" lon="6.31233">
        <ele>774.79998779297</ele>
        <time>2020-02-23T15:16:59Z</time>
      </trkpt>
      <trkpt lat="46.20151" lon="6.31235">
        <ele>774.79998779297</ele>
        <time>2020-02-23T15:17:00Z</time>
      </trkpt>
      <trkpt lat="46.20152" lon="6.31237">
        <ele>775</ele>
        <time>2020-02-23T15:17:01Z</time>
      </trkpt>
      <trkpt lat="46.20153" lon="6.31239">
        <ele>775</ele>
        <time>2020-02-23T15:17:02Z</time>
      </trkpt>
      <trkpt lat="46.20153" lon="6.31241">
        <ele>775</ele>
        <time>2020-02-23T15:17:03Z</time>
      </trkpt>
      <trkpt lat="46.20154" lon="6.31243">
        <ele>775.20001220703</ele>
        <time>2020-02-23T15:17:04Z</time>
      </trkpt>
      <trkpt lat="46.20154" lon="6.31245">
        <ele>775.40002441406</ele>
        <time>2020-02-23T15:17:05Z</time>
      </trkpt>
      <trkpt lat="46.20155" lon="6.31247">
        <ele>775.59997558594</ele>
        <time>2020-02-23T15:17:06Z</time>
      </trkpt>
      <trkpt lat="46.20155" lon="6.31249">
        <ele>775.59997558594</ele>
        <time>2020-02-23T15:17:07Z</time>
      </trkpt>
      <trkpt lat="46.20156" lon="6.31251">
        <ele>775.59997558594</ele>
        <time>2020-02-23T15:17:08Z</time>
      </trkpt>
      <trkpt lat="46.20156" lon="6.31253">
        <ele>775.79998779297</ele>
        <time>2020-02-23T15:17:09Z</time>
      </trkpt>
      <trkpt lat="46.20157" lon="6.31255">
        <ele>776</ele>
        <time>2020-02-23T15:17:10Z</time>
      </trkpt>
      <trkpt lat="46.20157" lon="6.31257">
        <ele>776.20001220703</ele>
        <time>2020-02-23T15:17:11Z</time>
      </trkpt>
      <trkpt lat="46.20157" lon="6.31259">
        <ele>776.20001220703</ele>
        <time>2020-02-23T15:17:12Z</time>
      </trkpt>
      <trkpt lat="46.20157" lon="6.31261">
        <ele>776.40002441406</ele>
        <time>2020-02-23T15:17:13Z</time>
      </trkpt>
      <trkpt lat="46.20157" lon="6.31263">
        <ele>776.59997558594</ele>
        <time>2020-02-23T15:17:14Z</time>
      </trkpt>
      <trkpt lat="46.20158" lon="6.31265">
        <ele>777</ele>
        <time>2020-02-23T15:17:15Z</time>
      </trkpt>
      <trkpt lat="46.20158" lon="6.31267">
        <ele>777.20001220703</ele>
        <time>2020-02-23T15:17:16Z</time>
      </trkpt>
      <trkpt lat="46.20158" lon="6.31269">
        <ele>777.40002441406</ele>
        <time>2020-02-23T15:17:17Z</time>
      </trkpt>
      <trkpt lat="46.20158" lon="6.31271">
        <ele>777.40002441406</ele>
        <time>2020-02-23T15:17:18Z</time>
      </trkpt>
      <trkpt lat="46.20159" lon="6.31273">
        <ele>777.79998779297</ele>
        <time>2020-02-23T15:17:19Z</time>
      </trkpt>
      <trkpt lat="46.20159" lon="6.31275">
        <ele>778</ele>
        <time>2020-02-23T15:17:20Z</time>
      </trkpt>
      <trkpt lat="46.20159" lon="6.31277">
        <ele>778.20001220703</ele>
        <time>2020-02-23T15:17:21Z</time>
      </trkpt>
      <trkpt lat="46.2016" lon="6.3128">
        <ele>778.20001220703</ele>
        <time>2020-02-23T15:17:22Z</time>
      </trkpt>
      <trkpt lat="46.2016" lon="6.31282">
        <ele>778.20001220703</ele>
        <time>2020-02-23T15:17:23Z</time>
      </trkpt>
      <trkpt lat="46.2016" lon="6.31284">
        <ele>778.40002441406</ele>
        <time>2020-02-23T15:17:24Z</time>
      </trkpt>
      <trkpt lat="46.20161" lon="6.31286">
        <ele>778.59997558594</ele>
        <time>2020-02-23T15:17:25Z</time>
      </trkpt>
      <trkpt lat="46.20161" lon="6.31288">
        <ele>778.79998779297</ele>
        <time>2020-02-23T15:17:26Z</time>
      </trkpt>
      <trkpt lat="46.20161" lon="6.3129">
        <ele>779</ele>
        <time>2020-02-23T15:17:27Z</time>
      </trkpt>
      <trkpt lat="46.20161" lon="6.31292">
        <ele>779.40002441406</ele>
        <time>2020-02-23T15:17:28Z</time>
      </trkpt>
      <trkpt lat="46.20161" lon="6.31294">
        <ele>779.59997558594</ele>
        <time>2020-02-23T15:17:29Z</time>
      </trkpt>
      <trkpt lat="46.20162" lon="6.31296">
        <ele>779.79998779297</ele>
        <time>2020-02-23T15:17:30Z</time>
      </trkpt>
      <trkpt lat="46.20162" lon="6.31298">
        <ele>779.79998779297</ele>
        <time>2020-02-23T15:17:31Z</time>
      </trkpt>
      <trkpt lat="46.20163" lon="6.313">
        <ele>779.79998779297</ele>
        <time>2020-02-23T15:17:32Z</time>
      </trkpt>
      <trkpt lat="46.20163" lon="6.31303">
        <ele>780</ele>
        <time>2020-02-23T15:17:33Z</time>
      </trkpt>
      <trkpt lat="46.20163" lon="6.31305">
        <ele>780</ele>
        <time>2020-02-23T15:17:34Z</time>
      </trkpt>
      <trkpt lat="46.20163" lon="6.31307">
        <ele>780.40002441406</ele>
        <time>2020-02-23T15:17:35Z</time>
      </trkpt>
      <trkpt lat="46.20163" lon="6.31309">
        <ele>780.40002441406</ele>
        <time>2020-02-23T15:17:36Z</time>
      </trkpt>
      <trkpt lat="46.20163" lon="6.31311">
        <ele>780.79998779297</ele>
        <time>2020-02-23T15:17:37Z</time>
      </trkpt>
      <trkpt lat="46.20164" lon="6.31314">
        <ele>781</ele>
        <time>2020-02-23T15:17:38Z</time>
      </trkpt>
      <trkpt lat="46.20164" lon="6.31316">
        <ele>781.20001220703</ele>
        <time>2020-02-23T15:17:39Z</time>
      </trkpt>
      <trkpt lat="46.20165" lon="6.31318">
        <ele>781.20001220703</ele>
        <time>2020-02-23T15:17:40Z</time>
      </trkpt>
      <trkpt lat="46.20165" lon="6.3132">
        <ele>781.40002441406</ele>
        <time>2020-02-23T15:17:41Z</time>
      </trkpt>
      <trkpt lat="46.20166" lon="6.31322">
        <ele>781.59997558594</ele>
        <time>2020-02-23T15:17:42Z</time>
      </trkpt>
      <trkpt lat="46.20166" lon="6.31324">
        <ele>781.79998779297</ele>
        <time>2020-02-23T15:17:43Z</time>
      </trkpt>
      <trkpt lat="46.20166" lon="6.31326">
        <ele>782</ele>
        <time>2020-02-23T15:17:44Z</time>
      </trkpt>
      <trkpt lat="46.20167" lon="6.31328">
        <ele>782.40002441406</ele>
        <time>2020-02-23T15:17:45Z</time>
      </trkpt>
      <trkpt lat="46.20167" lon="6.3133">
        <ele>782.59997558594</ele>
        <time>2020-02-23T15:17:46Z</time>
      </trkpt>
      <trkpt lat="46.20168" lon="6.31332">
        <ele>782.59997558594</ele>
        <time>2020-02-23T15:17:47Z</time>
      </trkpt>
      <trkpt lat="46.20169" lon="6.31334">
        <ele>783</ele>
        <time>2020-02-23T15:17:48Z</time>
      </trkpt>
      <trkpt lat="46.20171" lon="6.31335">
        <ele>783.40002441406</ele>
        <time>2020-02-23T15:17:49Z</time>
      </trkpt>
      <trkpt lat="46.20172" lon="6.31336">
        <ele>783.40002441406</ele>
        <time>2020-02-23T15:17:50Z</time>
      </trkpt>
      <trkpt lat="46.20173" lon="6.31337">
        <ele>783.59997558594</ele>
        <time>2020-02-23T15:17:51Z</time>
      </trkpt>
      <trkpt lat="46.20175" lon="6.31338">
        <ele>783.79998779297</ele>
        <time>2020-02-23T15:17:52Z</time>
      </trkpt>
      <trkpt lat="46.20176" lon="6.31338">
        <ele>784.20001220703</ele>
        <time>2020-02-23T15:17:53Z</time>
      </trkpt>
      <trkpt lat="46.20178" lon="6.31339">
        <ele>784.20001220703</ele>
        <time>2020-02-23T15:17:54Z</time>
      </trkpt>
      <trkpt lat="46.20179" lon="6.3134">
        <ele>784.20001220703</ele>
        <time>2020-02-23T15:17:55Z</time>
      </trkpt>
      <trkpt lat="46.2018" lon="6.3134">
        <ele>784.59997558594</ele>
        <time>2020-02-23T15:17:56Z</time>
      </trkpt>
      <trkpt lat="46.20182" lon="6.3134">
        <ele>784.79998779297</ele>
        <time>2020-02-23T15:17:57Z</time>
      </trkpt>
      <trkpt lat="46.20183" lon="6.3134">
        <ele>784.79998779297</ele>
        <time>2020-02-23T15:17:58Z</time>
      </trkpt>
      <trkpt lat="46.20184" lon="6.3134">
        <ele>785.20001220703</ele>
        <time>2020-02-23T15:17:59Z</time>
      </trkpt>
      <trkpt lat="46.20186" lon="6.31339">
        <ele>785.40002441406</ele>
        <time>2020-02-23T15:18:00Z</time>
      </trkpt>
      <trkpt lat="46.20187" lon="6.31338">
        <ele>785.59997558594</ele>
        <time>2020-02-23T15:18:01Z</time>
      </trkpt>
      <trkpt lat="46.20188" lon="6.31338">
        <ele>785.79998779297</ele>
        <time>2020-02-23T15:18:02Z</time>
      </trkpt>
      <trkpt lat="46.2019" lon="6.31337">
        <ele>786</ele>
        <time>2020-02-23T15:18:03Z</time>
      </trkpt>
      <trkpt lat="46.20191" lon="6.31336">
        <ele>786.40002441406</ele>
        <time>2020-02-23T15:18:04Z</time>
      </trkpt>
      <trkpt lat="46.20192" lon="6.31335">
        <ele>786.59997558594</ele>
        <time>2020-02-23T15:18:05Z</time>
      </trkpt>
      <trkpt lat="46.20193" lon="6.31334">
        <ele>787</ele>
        <time>2020-02-23T15:18:06Z</time>
      </trkpt>
      <trkpt lat="46.20195" lon="6.31334">
        <ele>787.20001220703</ele>
        <time>2020-02-23T15:18:07Z</time>
      </trkpt>
      <trkpt lat="46.20196" lon="6.31333">
        <ele>787.20001220703</ele>
        <time>2020-02-23T15:18:08Z</time>
      </trkpt>
      <trkpt lat="46.20197" lon="6.31332">
        <ele>787.40002441406</ele>
        <time>2020-02-23T15:18:09Z</time>
      </trkpt>
      <trkpt lat="46.20198" lon="6.31332">
        <ele>787.79998779297</ele>
        <time>2020-02-23T15:18:10Z</time>
      </trkpt>
      <trkpt lat="46.202" lon="6.31331">
        <ele>788.20001220703</ele>
        <time>2020-02-23T15:18:11Z</time>
      </trkpt>
      <trkpt lat="46.20201" lon="6.3133">
        <ele>788.20001220703</ele>
        <time>2020-02-23T15:18:12Z</time>
      </trkpt>
      <trkpt lat="46.20203" lon="6.31329">
        <ele>788.40002441406</ele>
        <time>2020-02-23T15:18:13Z</time>
      </trkpt>
      <trkpt lat="46.20204" lon="6.31328">
        <ele>788.59997558594</ele>
        <time>2020-02-23T15:18:14Z</time>
      </trkpt>
      <trkpt lat="46.20206" lon="6.31327">
        <ele>788.79998779297</ele>
        <time>2020-02-23T15:18:15Z</time>
      </trkpt>
      <trkpt lat="46.20207" lon="6.31327">
        <ele>788.79998779297</ele>
        <time>2020-02-23T15:18:16Z</time>
      </trkpt>
      <trkpt lat="46.20208" lon="6.31326">
        <ele>789</ele>
        <time>2020-02-23T15:18:17Z</time>
      </trkpt>
      <trkpt lat="46.20209" lon="6.31325">
        <ele>789.20001220703</ele>
        <time>2020-02-23T15:18:18Z</time>
      </trkpt>
      <trkpt lat="46.20211" lon="6.31324">
        <ele>789.40002441406</ele>
        <time>2020-02-23T15:18:19Z</time>
      </trkpt>
      <trkpt lat="46.20212" lon="6.31323">
        <ele>789.40002441406</ele>
        <time>2020-02-23T15:18:20Z</time>
      </trkpt>
      <trkpt lat="46.20213" lon="6.31322">
        <ele>789.40002441406</ele>
        <time>2020-02-23T15:18:21Z</time>
      </trkpt>
      <trkpt lat="46.20215" lon="6.31321">
        <ele>789.59997558594</ele>
        <time>2020-02-23T15:18:22Z</time>
      </trkpt>
      <trkpt lat="46.20216" lon="6.3132">
        <ele>789.79998779297</ele>
        <time>2020-02-23T15:18:23Z</time>
      </trkpt>
      <trkpt lat="46.20217" lon="6.3132">
        <ele>790</ele>
        <time>2020-02-23T15:18:24Z</time>
      </trkpt>
      <trkpt lat="46.20219" lon="6.31319">
        <ele>790.20001220703</ele>
        <time>2020-02-23T15:18:25Z</time>
      </trkpt>
      <trkpt lat="46.2022" lon="6.31318">
        <ele>790.40002441406</ele>
        <time>2020-02-23T15:18:26Z</time>
      </trkpt>
      <trkpt lat="46.20221" lon="6.31317">
        <ele>790.40002441406</ele>
        <time>2020-02-23T15:18:27Z</time>
      </trkpt>
      <trkpt lat="46.20223" lon="6.31316">
        <ele>790.79998779297</ele>
        <time>2020-02-23T15:18:28Z</time>
      </trkpt>
      <trkpt lat="46.20224" lon="6.31315">
        <ele>790.79998779297</ele>
        <time>2020-02-23T15:18:29Z</time>
      </trkpt>
      <trkpt lat="46.20225" lon="6.31314">
        <ele>791</ele>
        <time>2020-02-23T15:18:30Z</time>
      </trkpt>
      <trkpt lat="46.20227" lon="6.31313">
        <ele>791.20001220703</ele>
        <time>2020-02-23T15:18:31Z</time>
      </trkpt>
      <trkpt lat="46.20228" lon="6.31312">
        <ele>791.40002441406</ele>
        <time>2020-02-23T15:18:32Z</time>
      </trkpt>
      <trkpt lat="46.2023" lon="6.31311">
        <ele>791.59997558594</ele>
        <time>2020-02-23T15:18:33Z</time>
      </trkpt>
      <trkpt lat="46.20231" lon="6.3131">
        <ele>791.59997558594</ele>
        <time>2020-02-23T15:18:34Z</time>
      </trkpt>
      <trkpt lat="46.20233" lon="6.3131">
        <ele>791.79998779297</ele>
        <time>2020-02-23T15:18:35Z</time>
      </trkpt>
      <trkpt lat="46.20234" lon="6.31309">
        <ele>791.79998779297</ele>
        <time>2020-02-23T15:18:36Z</time>
      </trkpt>
      <trkpt lat="46.20235" lon="6.31308">
        <ele>791.79998779297</ele>
        <time>2020-02-23T15:18:37Z</time>
      </trkpt>
      <trkpt lat="46.20237" lon="6.31307">
        <ele>792</ele>
        <time>2020-02-23T15:18:38Z</time>
      </trkpt>
      <trkpt lat="46.20238" lon="6.31306">
        <ele>792</ele>
        <time>2020-02-23T15:18:39Z</time>
      </trkpt>
      <trkpt lat="46.2024" lon="6.31305">
        <ele>792.20001220703</ele>
        <time>2020-02-23T15:18:40Z</time>
      </trkpt>
      <trkpt lat="46.20241" lon="6.31304">
        <ele>792.40002441406</ele>
        <time>2020-02-23T15:18:41Z</time>
      </trkpt>
      <trkpt lat="46.20242" lon="6.31304">
        <ele>792.40002441406</ele>
        <time>2020-02-23T15:18:42Z</time>
      </trkpt>
      <trkpt lat="46.20244" lon="6.31303">
        <ele>792.59997558594</ele>
        <time>2020-02-23T15:18:43Z</time>
      </trkpt>
      <trkpt lat="46.20246" lon="6.31302">
        <ele>792.59997558594</ele>
        <time>2020-02-23T15:18:44Z</time>
      </trkpt>
      <trkpt lat="46.20247" lon="6.31302">
        <ele>792.40002441406</ele>
        <time>2020-02-23T15:18:45Z</time>
      </trkpt>
      <trkpt lat="46.20248" lon="6.31301">
        <ele>792.79998779297</ele>
        <time>2020-02-23T15:18:46Z</time>
      </trkpt>
      <trkpt lat="46.2025" lon="6.313">
        <ele>792.79998779297</ele>
        <time>2020-02-23T15:18:47Z</time>
      </trkpt>
      <trkpt lat="46.20251" lon="6.31299">
        <ele>793</ele>
        <time>2020-02-23T15:18:48Z</time>
      </trkpt>
      <trkpt lat="46.20253" lon="6.31298">
        <ele>793.20001220703</ele>
        <time>2020-02-23T15:18:49Z</time>
      </trkpt>
      <trkpt lat="46.20254" lon="6.31297">
        <ele>793.20001220703</ele>
        <time>2020-02-23T15:18:50Z</time>
      </trkpt>
      <trkpt lat="46.20256" lon="6.31296">
        <ele>793.40002441406</ele>
        <time>2020-02-23T15:18:51Z</time>
      </trkpt>
      <trkpt lat="46.20257" lon="6.31296">
        <ele>793.40002441406</ele>
        <time>2020-02-23T15:18:52Z</time>
      </trkpt>
      <trkpt lat="46.20258" lon="6.31295">
        <ele>793.79998779297</ele>
        <time>2020-02-23T15:18:53Z</time>
      </trkpt>
      <trkpt lat="46.2026" lon="6.31294">
        <ele>793.79998779297</ele>
        <time>2020-02-23T15:18:54Z</time>
      </trkpt>
      <trkpt lat="46.20261" lon="6.31293">
        <ele>794</ele>
        <time>2020-02-23T15:18:55Z</time>
      </trkpt>
      <trkpt lat="46.20263" lon="6.31293">
        <ele>794</ele>
        <time>2020-02-23T15:18:56Z</time>
      </trkpt>
      <trkpt lat="46.20264" lon="6.31292">
        <ele>794</ele>
        <time>2020-02-23T15:18:57Z</time>
      </trkpt>
      <trkpt lat="46.20265" lon="6.31291">
        <ele>794.20001220703</ele>
        <time>2020-02-23T15:18:58Z</time>
      </trkpt>
      <trkpt lat="46.20267" lon="6.3129">
        <ele>794.20001220703</ele>
        <time>2020-02-23T15:18:59Z</time>
      </trkpt>
      <trkpt lat="46.20269" lon="6.3129">
        <ele>794.40002441406</ele>
        <time>2020-02-23T15:19:00Z</time>
      </trkpt>
      <trkpt lat="46.2027" lon="6.3129">
        <ele>794.40002441406</ele>
        <time>2020-02-23T15:19:01Z</time>
      </trkpt>
      <trkpt lat="46.20272" lon="6.3129">
        <ele>794.59997558594</ele>
        <time>2020-02-23T15:19:02Z</time>
      </trkpt>
      <trkpt lat="46.20273" lon="6.3129">
        <ele>794.79998779297</ele>
        <time>2020-02-23T15:19:03Z</time>
      </trkpt>
      <trkpt lat="46.20275" lon="6.31289">
        <ele>795</ele>
        <time>2020-02-23T15:19:04Z</time>
      </trkpt>
      <trkpt lat="46.20276" lon="6.31289">
        <ele>795</ele>
        <time>2020-02-23T15:19:05Z</time>
      </trkpt>
      <trkpt lat="46.20277" lon="6.31288">
        <ele>795.20001220703</ele>
        <time>2020-02-23T15:19:06Z</time>
      </trkpt>
      <trkpt lat="46.20279" lon="6.31287">
        <ele>795.20001220703</ele>
        <time>2020-02-23T15:19:07Z</time>
      </trkpt>
      <trkpt lat="46.2028" lon="6.31286">
        <ele>795.40002441406</ele>
        <time>2020-02-23T15:19:08Z</time>
      </trkpt>
      <trkpt lat="46.20282" lon="6.31285">
        <ele>795.40002441406</ele>
        <time>2020-02-23T15:19:09Z</time>
      </trkpt>
      <trkpt lat="46.20283" lon="6.31284">
        <ele>795.59997558594</ele>
        <time>2020-02-23T15:19:10Z</time>
      </trkpt>
      <trkpt lat="46.20284" lon="6.31283">
        <ele>795.79998779297</ele>
        <time>2020-02-23T15:19:11Z</time>
      </trkpt>
      <trkpt lat="46.20285" lon="6.31282">
        <ele>795.79998779297</ele>
        <time>2020-02-23T15:19:12Z</time>
      </trkpt>
      <trkpt lat="46.20286" lon="6.31282">
        <ele>795.79998779297</ele>
        <time>2020-02-23T15:19:13Z</time>
      </trkpt>
      <trkpt lat="46.20288" lon="6.31281">
        <ele>795.79998779297</ele>
        <time>2020-02-23T15:19:14Z</time>
      </trkpt>
      <trkpt lat="46.20289" lon="6.3128">
        <ele>796.20001220703</ele>
        <time>2020-02-23T15:19:15Z</time>
      </trkpt>
      <trkpt lat="46.2029" lon="6.31278">
        <ele>796.40002441406</ele>
        <time>2020-02-23T15:19:16Z</time>
      </trkpt>
      <trkpt lat="46.20291" lon="6.31277">
        <ele>796.59997558594</ele>
        <time>2020-02-23T15:19:17Z</time>
      </trkpt>
      <trkpt lat="46.20292" lon="6.31276">
        <ele>796.79998779297</ele>
        <time>2020-02-23T15:19:18Z</time>
      </trkpt>
      <trkpt lat="46.20294" lon="6.31275">
        <ele>797.20001220703</ele>
        <time>2020-02-23T15:19:19Z</time>
      </trkpt>
      <trkpt lat="46.20295" lon="6.31274">
        <ele>797</ele>
        <time>2020-02-23T15:19:20Z</time>
      </trkpt>
      <trkpt lat="46.20296" lon="6.31273">
        <ele>797.40002441406</ele>
        <time>2020-02-23T15:19:21Z</time>
      </trkpt>
      <trkpt lat="46.20298" lon="6.31272">
        <ele>797.40002441406</ele>
        <time>2020-02-23T15:19:22Z</time>
      </trkpt>
      <trkpt lat="46.20299" lon="6.31271">
        <ele>797.59997558594</ele>
        <time>2020-02-23T15:19:23Z</time>
      </trkpt>
      <trkpt lat="46.203" lon="6.31269">
        <ele>797.79998779297</ele>
        <time>2020-02-23T15:19:24Z</time>
      </trkpt>
      <trkpt lat="46.20301" lon="6.31268">
        <ele>797.79998779297</ele>
        <time>2020-02-23T15:19:25Z</time>
      </trkpt>
      <trkpt lat="46.20302" lon="6.31266">
        <ele>797.79998779297</ele>
        <time>2020-02-23T15:19:26Z</time>
      </trkpt>
      <trkpt lat="46.20303" lon="6.31265">
        <ele>798.20001220703</ele>
        <time>2020-02-23T15:19:27Z</time>
      </trkpt>
      <trkpt lat="46.20305" lon="6.31264">
        <ele>798.20001220703</ele>
        <time>2020-02-23T15:19:28Z</time>
      </trkpt>
      <trkpt lat="46.20306" lon="6.31263">
        <ele>798.40002441406</ele>
        <time>2020-02-23T15:19:29Z</time>
      </trkpt>
      <trkpt lat="46.20307" lon="6.31262">
        <ele>798.40002441406</ele>
        <time>2020-02-23T15:19:30Z</time>
      </trkpt>
      <trkpt lat="46.20309" lon="6.31261">
        <ele>798.59997558594</ele>
        <time>2020-02-23T15:19:31Z</time>
      </trkpt>
      <trkpt lat="46.20311" lon="6.31261">
        <ele>798.79998779297</ele>
        <time>2020-02-23T15:19:32Z</time>
      </trkpt>
      <trkpt lat="46.20312" lon="6.31262">
        <ele>798.79998779297</ele>
        <time>2020-02-23T15:19:33Z</time>
      </trkpt>
      <trkpt lat="46.20314" lon="6.31263">
        <ele>798.79998779297</ele>
        <time>2020-02-23T15:19:34Z</time>
      </trkpt>
      <trkpt lat="46.20315" lon="6.31264">
        <ele>799</ele>
        <time>2020-02-23T15:19:35Z</time>
      </trkpt>
      <trkpt lat="46.20316" lon="6.31265">
        <ele>799.20001220703</ele>
        <time>2020-02-23T15:19:36Z</time>
      </trkpt>
      <trkpt lat="46.20317" lon="6.31267">
        <ele>799.40002441406</ele>
        <time>2020-02-23T15:19:37Z</time>
      </trkpt>
      <trkpt lat="46.20318" lon="6.31269">
        <ele>799.59997558594</ele>
        <time>2020-02-23T15:19:38Z</time>
      </trkpt>
      <trkpt lat="46.20317" lon="6.31271">
        <ele>799.79998779297</ele>
        <time>2020-02-23T15:19:39Z</time>
      </trkpt>
      <trkpt lat="46.20317" lon="6.31273">
        <ele>799.79998779297</ele>
        <time>2020-02-23T15:19:40Z</time>
      </trkpt>
      <trkpt lat="46.20315" lon="6.31274">
        <ele>800</ele>
        <time>2020-02-23T15:19:41Z</time>
      </trkpt>
      <trkpt lat="46.20314" lon="6.31275">
        <ele>800.20001220703</ele>
        <time>2020-02-23T15:19:42Z</time>
      </trkpt>
      <trkpt lat="46.20313" lon="6.31277">
        <ele>800.20001220703</ele>
        <time>2020-02-23T15:19:43Z</time>
      </trkpt>
      <trkpt lat="46.20312" lon="6.31279">
        <ele>800.40002441406</ele>
        <time>2020-02-23T15:19:44Z</time>
      </trkpt>
      <trkpt lat="46.20311" lon="6.3128">
        <ele>800.59997558594</ele>
        <time>2020-02-23T15:19:45Z</time>
      </trkpt>
      <trkpt lat="46.2031" lon="6.31281">
        <ele>800.59997558594</ele>
        <time>2020-02-23T15:19:46Z</time>
      </trkpt>
      <trkpt lat="46.20309" lon="6.31283">
        <ele>800.79998779297</ele>
        <time>2020-02-23T15:19:47Z</time>
      </trkpt>
      <trkpt lat="46.20308" lon="6.31284">
        <ele>801</ele>
        <time>2020-02-23T15:19:48Z</time>
      </trkpt>
      <trkpt lat="46.20307" lon="6.31286">
        <ele>801.20001220703</ele>
        <time>2020-02-23T15:19:49Z</time>
      </trkpt>
      <trkpt lat="46.20306" lon="6.31288">
        <ele>801.20001220703</ele>
        <time>2020-02-23T15:19:50Z</time>
      </trkpt>
      <trkpt lat="46.20305" lon="6.3129">
        <ele>801.40002441406</ele>
        <time>2020-02-23T15:19:51Z</time>
      </trkpt>
      <trkpt lat="46.20305" lon="6.31291">
        <ele>801.59997558594</ele>
        <time>2020-02-23T15:19:52Z</time>
      </trkpt>
      <trkpt lat="46.20304" lon="6.31292">
        <ele>801.79998779297</ele>
        <time>2020-02-23T15:19:53Z</time>
      </trkpt>
      <trkpt lat="46.20303" lon="6.31294">
        <ele>802</ele>
        <time>2020-02-23T15:19:54Z</time>
      </trkpt>
      <trkpt lat="46.20302" lon="6.31295">
        <ele>802.20001220703</ele>
        <time>2020-02-23T15:19:55Z</time>
      </trkpt>
      <trkpt lat="46.20301" lon="6.31297">
        <ele>802.40002441406</ele>
        <time>2020-02-23T15:19:56Z</time>
      </trkpt>
      <trkpt lat="46.203" lon="6.31299">
        <ele>802.59997558594</ele>
        <time>2020-02-23T15:19:57Z</time>
      </trkpt>
      <trkpt lat="46.203" lon="6.313">
        <ele>802.59997558594</ele>
        <time>2020-02-23T15:19:58Z</time>
      </trkpt>
      <trkpt lat="46.20299" lon="6.31302">
        <ele>802.59997558594</ele>
        <time>2020-02-23T15:19:59Z</time>
      </trkpt>
      <trkpt lat="46.20299" lon="6.31304">
        <ele>803</ele>
        <time>2020-02-23T15:20:00Z</time>
      </trkpt>
      <trkpt lat="46.20298" lon="6.31306">
        <ele>803.20001220703</ele>
        <time>2020-02-23T15:20:01Z</time>
      </trkpt>
      <trkpt lat="46.20298" lon="6.31308">
        <ele>803.20001220703</ele>
        <time>2020-02-23T15:20:02Z</time>
      </trkpt>
      <trkpt lat="46.20297" lon="6.3131">
        <ele>803.59997558594</ele>
        <time>2020-02-23T15:20:03Z</time>
      </trkpt>
      <trkpt lat="46.20297" lon="6.31312">
        <ele>803.59997558594</ele>
        <time>2020-02-23T15:20:04Z</time>
      </trkpt>
      <trkpt lat="46.20297" lon="6.31314">
        <ele>803.79998779297</ele>
        <time>2020-02-23T15:20:05Z</time>
      </trkpt>
      <trkpt lat="46.20296" lon="6.31316">
        <ele>804</ele>
        <time>2020-02-23T15:20:06Z</time>
      </trkpt>
      <trkpt lat="46.20296" lon="6.31318">
        <ele>804.20001220703</ele>
        <time>2020-02-23T15:20:07Z</time>
      </trkpt>
      <trkpt lat="46.20296" lon="6.3132">
        <ele>804.40002441406</ele>
        <time>2020-02-23T15:20:08Z</time>
      </trkpt>
      <trkpt lat="46.20295" lon="6.31322">
        <ele>804.59997558594</ele>
        <time>2020-02-23T15:20:09Z</time>
      </trkpt>
      <trkpt lat="46.20295" lon="6.31324">
        <ele>804.79998779297</ele>
        <time>2020-02-23T15:20:10Z</time>
      </trkpt>
      <trkpt lat="46.20294" lon="6.31326">
        <ele>805</ele>
        <time>2020-02-23T15:20:11Z</time>
      </trkpt>
      <trkpt lat="46.20294" lon="6.31328">
        <ele>805.20001220703</ele>
        <time>2020-02-23T15:20:12Z</time>
      </trkpt>
      <trkpt lat="46.20293" lon="6.31329">
        <ele>805.20001220703</ele>
        <time>2020-02-23T15:20:13Z</time>
      </trkpt>
      <trkpt lat="46.20293" lon="6.31331">
        <ele>805.40002441406</ele>
        <time>2020-02-23T15:20:14Z</time>
      </trkpt>
      <trkpt lat="46.20292" lon="6.31333">
        <ele>805.79998779297</ele>
        <time>2020-02-23T15:20:15Z</time>
      </trkpt>
      <trkpt lat="46.20291" lon="6.31335">
        <ele>806</ele>
        <time>2020-02-23T15:20:16Z</time>
      </trkpt>
      <trkpt lat="46.20291" lon="6.31337">
        <ele>806</ele>
        <time>2020-02-23T15:20:17Z</time>
      </trkpt>
      <trkpt lat="46.2029" lon="6.31339">
        <ele>806.20001220703</ele>
        <time>2020-02-23T15:20:18Z</time>
      </trkpt>
      <trkpt lat="46.20289" lon="6.31341">
        <ele>806.40002441406</ele>
        <time>2020-02-23T15:20:19Z</time>
      </trkpt>
      <trkpt lat="46.20289" lon="6.31343">
        <ele>806.40002441406</ele>
        <time>2020-02-23T15:20:20Z</time>
      </trkpt>
      <trkpt lat="46.20288" lon="6.31345">
        <ele>806.59997558594</ele>
        <time>2020-02-23T15:20:21Z</time>
      </trkpt>
      <trkpt lat="46.20286" lon="6.31346">
        <ele>806.59997558594</ele>
        <time>2020-02-23T15:20:22Z</time>
      </trkpt>
      <trkpt lat="46.20285" lon="6.31346">
        <ele>806.79998779297</ele>
        <time>2020-02-23T15:20:23Z</time>
      </trkpt>
      <trkpt lat="46.20283" lon="6.31347">
        <ele>807</ele>
        <time>2020-02-23T15:20:24Z</time>
      </trkpt>
      <trkpt lat="46.20281" lon="6.31348">
        <ele>807</ele>
        <time>2020-02-23T15:20:25Z</time>
      </trkpt>
      <trkpt lat="46.2028" lon="6.31349">
        <ele>807.40002441406</ele>
        <time>2020-02-23T15:20:26Z</time>
      </trkpt>
      <trkpt lat="46.20278" lon="6.3135">
        <ele>807.40002441406</ele>
        <time>2020-02-23T15:20:27Z</time>
      </trkpt>
      <trkpt lat="46.20277" lon="6.3135">
        <ele>807.59997558594</ele>
        <time>2020-02-23T15:20:28Z</time>
      </trkpt>
      <trkpt lat="46.20275" lon="6.31351">
        <ele>807.79998779297</ele>
        <time>2020-02-23T15:20:29Z</time>
      </trkpt>
      <trkpt lat="46.20273" lon="6.31351">
        <ele>807.79998779297</ele>
        <time>2020-02-23T15:20:30Z</time>
      </trkpt>
      <trkpt lat="46.20272" lon="6.31352">
        <ele>808.20001220703</ele>
        <time>2020-02-23T15:20:31Z</time>
      </trkpt>
      <trkpt lat="46.2027" lon="6.31353">
        <ele>808.40002441406</ele>
        <time>2020-02-23T15:20:32Z</time>
      </trkpt>
      <trkpt lat="46.20269" lon="6.31353">
        <ele>808.40002441406</ele>
        <time>2020-02-23T15:20:33Z</time>
      </trkpt>
      <trkpt lat="46.20267" lon="6.31354">
        <ele>808.79998779297</ele>
        <time>2020-02-23T15:20:34Z</time>
      </trkpt>
      <trkpt lat="46.20265" lon="6.31355">
        <ele>808.79998779297</ele>
        <time>2020-02-23T15:20:35Z</time>
      </trkpt>
      <trkpt lat="46.20264" lon="6.31356">
        <ele>809</ele>
        <time>2020-02-23T15:20:36Z</time>
      </trkpt>
      <trkpt lat="46.20263" lon="6.31358">
        <ele>809.20001220703</ele>
        <time>2020-02-23T15:20:37Z</time>
      </trkpt>
      <trkpt lat="46.20262" lon="6.3136">
        <ele>809.20001220703</ele>
        <time>2020-02-23T15:20:38Z</time>
      </trkpt>
      <trkpt lat="46.20261" lon="6.31362">
        <ele>809.40002441406</ele>
        <time>2020-02-23T15:20:39Z</time>
      </trkpt>
      <trkpt lat="46.2026" lon="6.31363">
        <ele>809.59997558594</ele>
        <time>2020-02-23T15:20:40Z</time>
      </trkpt>
      <trkpt lat="46.2026" lon="6.31365">
        <ele>810</ele>
        <time>2020-02-23T15:20:44Z</time>
      </trkpt>
      <trkpt lat="46.2026" lon="6.31365">
        <ele>811.40002441406</ele>
        <time>2020-02-23T15:20:55Z</time>
      </trkpt>
      <trkpt lat="46.20259" lon="6.31366">
        <ele>811.20001220703</ele>
        <time>2020-02-23T15:20:57Z</time>
      </trkpt>
      <trkpt lat="46.20259" lon="6.31367">
        <ele>811.20001220703</ele>
        <time>2020-02-23T15:20:58Z</time>
      </trkpt>
      <trkpt lat="46.20259" lon="6.31369">
        <ele>811.40002441406</ele>
        <time>2020-02-23T15:20:59Z</time>
      </trkpt>
      <trkpt lat="46.20259" lon="6.31371">
        <ele>811.20001220703</ele>
        <time>2020-02-23T15:21:01Z</time>
      </trkpt>
      <trkpt lat="46.2026" lon="6.31372">
        <ele>811.40002441406</ele>
        <time>2020-02-23T15:21:02Z</time>
      </trkpt>
      <trkpt lat="46.2026" lon="6.31373">
        <ele>811.40002441406</ele>
        <time>2020-02-23T15:21:03Z</time>
      </trkpt>
      <trkpt lat="46.2026" lon="6.31375">
        <ele>811.40002441406</ele>
        <time>2020-02-23T15:21:07Z</time>
      </trkpt>
      <trkpt lat="46.20261" lon="6.31375">
        <ele>811.40002441406</ele>
        <time>2020-02-23T15:21:09Z</time>
      </trkpt>
      <trkpt lat="46.20261" lon="6.31375">
        <ele>811</ele>
        <time>2020-02-23T15:21:26Z</time>
      </trkpt>
      <trkpt lat="46.20261" lon="6.31375">
        <ele>811.20001220703</ele>
        <time>2020-02-23T15:23:11Z</time>
      </trkpt>
      <trkpt lat="46.20261" lon="6.31375">
        <ele>811.20001220703</ele>
        <time>2020-02-23T15:23:17Z</time>
      </trkpt>
      <trkpt lat="46.20261" lon="6.31374">
        <ele>811.40002441406</ele>
        <time>2020-02-23T15:23:18Z</time>
      </trkpt>
      <trkpt lat="46.20261" lon="6.31373">
        <ele>811.20001220703</ele>
        <time>2020-02-23T15:23:19Z</time>
      </trkpt>
      <trkpt lat="46.20261" lon="6.31372">
        <ele>811.40002441406</ele>
        <time>2020-02-23T15:23:20Z</time>
      </trkpt>
      <trkpt lat="46.2026" lon="6.31371">
        <ele>811.40002441406</ele>
        <time>2020-02-23T15:23:21Z</time>
      </trkpt>
      <trkpt lat="46.2026" lon="6.3137">
        <ele>811.20001220703</ele>
        <time>2020-02-23T15:23:22Z</time>
      </trkpt>
      <trkpt lat="46.20259" lon="6.31369">
        <ele>811.40002441406</ele>
        <time>2020-02-23T15:23:23Z</time>
      </trkpt>
      <trkpt lat="46.20258" lon="6.31368">
        <ele>811.40002441406</ele>
        <time>2020-02-23T15:23:24Z</time>
      </trkpt>
      <trkpt lat="46.20258" lon="6.31367">
        <ele>811.40002441406</ele>
        <time>2020-02-23T15:23:25Z</time>
      </trkpt>
      <trkpt lat="46.20257" lon="6.31366">
        <ele>811.20001220703</ele>
        <time>2020-02-23T15:23:26Z</time>
      </trkpt>
      <trkpt lat="46.20256" lon="6.31365">
        <ele>811.40002441406</ele>
        <time>2020-02-23T15:23:27Z</time>
      </trkpt>
      <trkpt lat="46.20255" lon="6.31365">
        <ele>811.40002441406</ele>
        <time>2020-02-23T15:23:28Z</time>
      </trkpt>
      <trkpt lat="46.20254" lon="6.31365">
        <ele>811.40002441406</ele>
        <time>2020-02-23T15:23:29Z</time>
      </trkpt>
      <trkpt lat="46.20253" lon="6.31364">
        <ele>811.20001220703</ele>
        <time>2020-02-23T15:23:30Z</time>
      </trkpt>
      <trkpt lat="46.20252" lon="6.31364">
        <ele>811.40002441406</ele>
        <time>2020-02-23T15:23:31Z</time>
      </trkpt>
      <trkpt lat="46.20251" lon="6.31365">
        <ele>811.20001220703</ele>
        <time>2020-02-23T15:23:32Z</time>
      </trkpt>
      <trkpt lat="46.2025" lon="6.31365">
        <ele>811.20001220703</ele>
        <time>2020-02-23T15:23:33Z</time>
      </trkpt>
      <trkpt lat="46.20249" lon="6.31366">
        <ele>811.20001220703</ele>
        <time>2020-02-23T15:23:34Z</time>
      </trkpt>
      <trkpt lat="46.20249" lon="6.31368">
        <ele>811</ele>
        <time>2020-02-23T15:23:35Z</time>
      </trkpt>
      <trkpt lat="46.20247" lon="6.3137">
        <ele>810.40002441406</ele>
        <time>2020-02-23T15:23:37Z</time>
      </trkpt>
      <trkpt lat="46.20247" lon="6.31371">
        <ele>810.40002441406</ele>
        <time>2020-02-23T15:23:38Z</time>
      </trkpt>
      <trkpt lat="46.20246" lon="6.31372">
        <ele>810.40002441406</ele>
        <time>2020-02-23T15:23:39Z</time>
      </trkpt>
      <trkpt lat="46.20245" lon="6.31373">
        <ele>810</ele>
        <time>2020-02-23T15:23:40Z</time>
      </trkpt>
      <trkpt lat="46.20245" lon="6.31374">
        <ele>810</ele>
        <time>2020-02-23T15:23:41Z</time>
      </trkpt>
      <trkpt lat="46.20245" lon="6.31376">
        <ele>809.79998779297</ele>
        <time>2020-02-23T15:23:42Z</time>
      </trkpt>
      <trkpt lat="46.20245" lon="6.31377">
        <ele>809.40002441406</ele>
        <time>2020-02-23T15:23:43Z</time>
      </trkpt>
      <trkpt lat="46.20245" lon="6.31379">
        <ele>809</ele>
        <time>2020-02-23T15:23:49Z</time>
      </trkpt>
      <trkpt lat="46.20244" lon="6.3138">
        <ele>809.40002441406</ele>
        <time>2020-02-23T15:24:04Z</time>
      </trkpt>
      <trkpt lat="46.20244" lon="6.3138">
        <ele>809.40002441406</ele>
        <time>2020-02-23T15:24:17Z</time>
      </trkpt>
      <trkpt lat="46.20243" lon="6.3138">
        <ele>809.59997558594</ele>
        <time>2020-02-23T15:24:33Z</time>
      </trkpt>
      <trkpt lat="46.20244" lon="6.3138">
        <ele>809.59997558594</ele>
        <time>2020-02-23T15:24:47Z</time>
      </trkpt>
      <trkpt lat="46.20244" lon="6.3138">
        <ele>809.59997558594</ele>
        <time>2020-02-23T15:25:07Z</time>
      </trkpt>
      <trkpt lat="46.20244" lon="6.31381">
        <ele>809.59997558594</ele>
        <time>2020-02-23T15:25:33Z</time>
      </trkpt>
      <trkpt lat="46.20244" lon="6.31381">
        <ele>809.59997558594</ele>
        <time>2020-02-23T15:26:09Z</time>
      </trkpt>
      <trkpt lat="46.20244" lon="6.3138">
        <ele>809.59997558594</ele>
        <time>2020-02-23T15:26:44Z</time>
      </trkpt>
      <trkpt lat="46.20244" lon="6.3138">
        <ele>809.40002441406</ele>
        <time>2020-02-23T15:27:51Z</time>
      </trkpt>
      <trkpt lat="46.20244" lon="6.3138">
        <ele>809.40002441406</ele>
        <time>2020-02-23T15:28:28Z</time>
      </trkpt>
      <trkpt lat="46.20244" lon="6.3138">
        <ele>809.20001220703</ele>
        <time>2020-02-23T15:29:19Z</time>
      </trkpt>
      <trkpt lat="46.20244" lon="6.31379">
        <ele>809.59997558594</ele>
        <time>2020-02-23T15:30:02Z</time>
      </trkpt>
      <trkpt lat="46.20244" lon="6.31379">
        <ele>809.40002441406</ele>
        <time>2020-02-23T15:30:39Z</time>
      </trkpt>
      <trkpt lat="46.20244" lon="6.31379">
        <ele>809.40002441406</ele>
        <time>2020-02-23T15:31:08Z</time>
      </trkpt>
      <trkpt lat="46.20244" lon="6.31379">
        <ele>809.40002441406</ele>
        <time>2020-02-23T15:31:44Z</time>
      </trkpt>
      <trkpt lat="46.20244" lon="6.31379">
        <ele>809.20001220703</ele>
        <time>2020-02-23T15:32:26Z</time>
      </trkpt>
      <trkpt lat="46.20244" lon="6.31378">
        <ele>809</ele>
        <time>2020-02-23T15:32:58Z</time>
      </trkpt>
      <trkpt lat="46.20244" lon="6.31378">
        <ele>809</ele>
        <time>2020-02-23T15:33:09Z</time>
      </trkpt>
      <trkpt lat="46.20244" lon="6.31378">
        <ele>809</ele>
        <time>2020-02-23T15:33:15Z</time>
      </trkpt>
      <trkpt lat="46.20243" lon="6.31377">
        <ele>809</ele>
        <time>2020-02-23T15:33:33Z</time>
      </trkpt>
      <trkpt lat="46.20243" lon="6.31377">
        <ele>808.79998779297</ele>
        <time>2020-02-23T15:34:04Z</time>
      </trkpt>
      <trkpt lat="46.20243" lon="6.31376">
        <ele>808.59997558594</ele>
        <time>2020-02-23T15:34:34Z</time>
      </trkpt>
      <trkpt lat="46.20243" lon="6.31377">
        <ele>808.59997558594</ele>
        <time>2020-02-23T15:34:57Z</time>
      </trkpt>
      <trkpt lat="46.20243" lon="6.31377">
        <ele>809</ele>
        <time>2020-02-23T15:35:24Z</time>
      </trkpt>
      <trkpt lat="46.20243" lon="6.31377">
        <ele>808.79998779297</ele>
        <time>2020-02-23T15:35:37Z</time>
      </trkpt>
      <trkpt lat="46.20243" lon="6.31376">
        <ele>809</ele>
        <time>2020-02-23T15:35:56Z</time>
      </trkpt>
      <trkpt lat="46.20243" lon="6.31375">
        <ele>809</ele>
        <time>2020-02-23T15:36:16Z</time>
      </trkpt>
      <trkpt lat="46.20243" lon="6.31372">
        <ele>809</ele>
        <time>2020-02-23T15:36:23Z</time>
      </trkpt>
      <trkpt lat="46.20243" lon="6.31371">
        <ele>808.79998779297</ele>
        <time>2020-02-23T15:36:27Z</time>
      </trkpt>
      <trkpt lat="46.20243" lon="6.31369">
        <ele>809</ele>
        <time>2020-02-23T15:36:45Z</time>
      </trkpt>
      <trkpt lat="46.20243" lon="6.31368">
        <ele>808.79998779297</ele>
        <time>2020-02-23T15:37:00Z</time>
      </trkpt>
      <trkpt lat="46.20243" lon="6.31368">
        <ele>808.79998779297</ele>
        <time>2020-02-23T15:37:11Z</time>
      </trkpt>
      <trkpt lat="46.20243" lon="6.31368">
        <ele>808.79998779297</ele>
        <time>2020-02-23T15:37:37Z</time>
      </trkpt>
      <trkpt lat="46.20243" lon="6.31368">
        <ele>808.79998779297</ele>
        <time>2020-02-23T15:37:40Z</time>
      </trkpt>
      <trkpt lat="46.20243" lon="6.31368">
        <ele>808.79998779297</ele>
        <time>2020-02-23T15:37:45Z</time>
      </trkpt>
      <trkpt lat="46.20243" lon="6.31368">
        <ele>808.79998779297</ele>
        <time>2020-02-23T15:37:46Z</time>
      </trkpt>
      <trkpt lat="46.20243" lon="6.31368">
        <ele>808.79998779297</ele>
        <time>2020-02-23T15:37:47Z</time>
      </trkpt>
      <trkpt lat="46.20243" lon="6.31368">
        <ele>809</ele>
        <time>2020-02-23T15:37:48Z</time>
      </trkpt>
      <trkpt lat="46.20243" lon="6.31368">
        <ele>808.79998779297</ele>
        <time>2020-02-23T15:37:49Z</time>
      </trkpt>
      <trkpt lat="46.20242" lon="6.31367">
        <ele>808.79998779297</ele>
        <time>2020-02-23T15:37:51Z</time>
      </trkpt>
      <trkpt lat="46.20243" lon="6.31366">
        <ele>808.59997558594</ele>
        <time>2020-02-23T15:38:14Z</time>
      </trkpt>
      <trkpt lat="46.20242" lon="6.31366">
        <ele>808.59997558594</ele>
        <time>2020-02-23T15:38:20Z</time>
      </trkpt>
      <trkpt lat="46.20242" lon="6.31366">
        <ele>808.59997558594</ele>
        <time>2020-02-23T15:38:29Z</time>
      </trkpt>
      <trkpt lat="46.20243" lon="6.31365">
        <ele>808.40002441406</ele>
        <time>2020-02-23T15:38:38Z</time>
      </trkpt>
      <trkpt lat="46.20243" lon="6.31364">
        <ele>808.40002441406</ele>
        <time>2020-02-23T15:38:39Z</time>
      </trkpt>
      <trkpt lat="46.20244" lon="6.31363">
        <ele>808.40002441406</ele>
        <time>2020-02-23T15:38:40Z</time>
      </trkpt>
      <trkpt lat="46.20244" lon="6.3136">
        <ele>808.59997558594</ele>
        <time>2020-02-23T15:38:42Z</time>
      </trkpt>
      <trkpt lat="46.20245" lon="6.31359">
        <ele>808.59997558594</ele>
        <time>2020-02-23T15:38:43Z</time>
      </trkpt>
      <trkpt lat="46.20246" lon="6.31357">
        <ele>808.59997558594</ele>
        <time>2020-02-23T15:38:44Z</time>
      </trkpt>
      <trkpt lat="46.20248" lon="6.31357">
        <ele>808.59997558594</ele>
        <time>2020-02-23T15:38:45Z</time>
      </trkpt>
      <trkpt lat="46.20249" lon="6.31357">
        <ele>808.59997558594</ele>
        <time>2020-02-23T15:38:46Z</time>
      </trkpt>
      <trkpt lat="46.20251" lon="6.31358">
        <ele>808.40002441406</ele>
        <time>2020-02-23T15:38:47Z</time>
      </trkpt>
      <trkpt lat="46.20253" lon="6.31359">
        <ele>808.59997558594</ele>
        <time>2020-02-23T15:38:48Z</time>
      </trkpt>
      <trkpt lat="46.20254" lon="6.31361">
        <ele>808.40002441406</ele>
        <time>2020-02-23T15:38:49Z</time>
      </trkpt>
      <trkpt lat="46.20256" lon="6.31362">
        <ele>808.59997558594</ele>
        <time>2020-02-23T15:38:50Z</time>
      </trkpt>
      <trkpt lat="46.20258" lon="6.31362">
        <ele>808.59997558594</ele>
        <time>2020-02-23T15:38:51Z</time>
      </trkpt>
      <trkpt lat="46.20259" lon="6.31362">
        <ele>808.59997558594</ele>
        <time>2020-02-23T15:38:52Z</time>
      </trkpt>
      <trkpt lat="46.20261" lon="6.31362">
        <ele>808.79998779297</ele>
        <time>2020-02-23T15:38:53Z</time>
      </trkpt>
      <trkpt lat="46.20262" lon="6.3136">
        <ele>808.59997558594</ele>
        <time>2020-02-23T15:38:54Z</time>
      </trkpt>
      <trkpt lat="46.20263" lon="6.31358">
        <ele>809</ele>
        <time>2020-02-23T15:38:55Z</time>
      </trkpt>
      <trkpt lat="46.20265" lon="6.31355">
        <ele>809.40002441406</ele>
        <time>2020-02-23T15:38:56Z</time>
      </trkpt>
      <trkpt lat="46.20268" lon="6.31353">
        <ele>809.59997558594</ele>
        <time>2020-02-23T15:38:57Z</time>
      </trkpt>
      <trkpt lat="46.20275" lon="6.31347">
        <ele>809.79998779297</ele>
        <time>2020-02-23T15:38:59Z</time>
      </trkpt>
      <trkpt lat="46.2028" lon="6.31344">
        <ele>809.79998779297</ele>
        <time>2020-02-23T15:39:00Z</time>
      </trkpt>
      <trkpt lat="46.20284" lon="6.3134">
        <ele>809.79998779297</ele>
        <time>2020-02-23T15:39:01Z</time>
      </trkpt>
      <trkpt lat="46.20287" lon="6.31336">
        <ele>809.79998779297</ele>
        <time>2020-02-23T15:39:02Z</time>
      </trkpt>
      <trkpt lat="46.2029" lon="6.3133">
        <ele>809.79998779297</ele>
        <time>2020-02-23T15:39:03Z</time>
      </trkpt>
      <trkpt lat="46.20292" lon="6.31324">
        <ele>809.79998779297</ele>
        <time>2020-02-23T15:39:04Z</time>
      </trkpt>
      <trkpt lat="46.20297" lon="6.31308">
        <ele>809.79998779297</ele>
        <time>2020-02-23T15:39:06Z</time>
      </trkpt>
      <trkpt lat="46.20303" lon="6.31292">
        <ele>809.79998779297</ele>
        <time>2020-02-23T15:39:08Z</time>
      </trkpt>
      <trkpt lat="46.20307" lon="6.31285">
        <ele>809.20001220703</ele>
        <time>2020-02-23T15:39:09Z</time>
      </trkpt>
      <trkpt lat="46.20311" lon="6.31279">
        <ele>808.40002441406</ele>
        <time>2020-02-23T15:39:10Z</time>
      </trkpt>
      <trkpt lat="46.20314" lon="6.31274">
        <ele>807.79998779297</ele>
        <time>2020-02-23T15:39:11Z</time>
      </trkpt>
      <trkpt lat="46.20316" lon="6.31269">
        <ele>807.59997558594</ele>
        <time>2020-02-23T15:39:12Z</time>
      </trkpt>
      <trkpt lat="46.20316" lon="6.31263">
        <ele>806.79998779297</ele>
        <time>2020-02-23T15:39:13Z</time>
      </trkpt>
      <trkpt lat="46.20314" lon="6.31259">
        <ele>805.79998779297</ele>
        <time>2020-02-23T15:39:14Z</time>
      </trkpt>
      <trkpt lat="46.20311" lon="6.31257">
        <ele>805</ele>
        <time>2020-02-23T15:39:15Z</time>
      </trkpt>
      <trkpt lat="46.20306" lon="6.31258">
        <ele>804.20001220703</ele>
        <time>2020-02-23T15:39:16Z</time>
      </trkpt>
      <trkpt lat="46.20302" lon="6.3126">
        <ele>803.20001220703</ele>
        <time>2020-02-23T15:39:17Z</time>
      </trkpt>
      <trkpt lat="46.20298" lon="6.31265">
        <ele>802.20001220703</ele>
        <time>2020-02-23T15:39:18Z</time>
      </trkpt>
      <trkpt lat="46.20294" lon="6.31269">
        <ele>801.79998779297</ele>
        <time>2020-02-23T15:39:19Z</time>
      </trkpt>
      <trkpt lat="46.2029" lon="6.31273">
        <ele>801.40002441406</ele>
        <time>2020-02-23T15:39:20Z</time>
      </trkpt>
      <trkpt lat="46.20286" lon="6.31276">
        <ele>801</ele>
        <time>2020-02-23T15:39:21Z</time>
      </trkpt>
      <trkpt lat="46.20283" lon="6.31279">
        <ele>800.40002441406</ele>
        <time>2020-02-23T15:39:22Z</time>
      </trkpt>
      <trkpt lat="46.20279" lon="6.31282">
        <ele>799.79998779297</ele>
        <time>2020-02-23T15:39:23Z</time>
      </trkpt>
      <trkpt lat="46.20275" lon="6.31283">
        <ele>799.20001220703</ele>
        <time>2020-02-23T15:39:24Z</time>
      </trkpt>
      <trkpt lat="46.2027" lon="6.31285">
        <ele>798.59997558594</ele>
        <time>2020-02-23T15:39:25Z</time>
      </trkpt>
      <trkpt lat="46.20264" lon="6.31286">
        <ele>798.20001220703</ele>
        <time>2020-02-23T15:39:26Z</time>
      </trkpt>
      <trkpt lat="46.20258" lon="6.31289">
        <ele>797.79998779297</ele>
        <time>2020-02-23T15:39:27Z</time>
      </trkpt>
      <trkpt lat="46.20241" lon="6.31297">
        <ele>797.20001220703</ele>
        <time>2020-02-23T15:39:30Z</time>
      </trkpt>
      <trkpt lat="46.20219" lon="6.31312">
        <ele>795.59997558594</ele>
        <time>2020-02-23T15:39:34Z</time>
      </trkpt>
      <trkpt lat="46.20208" lon="6.3132">
        <ele>793.79998779297</ele>
        <time>2020-02-23T15:39:36Z</time>
      </trkpt>
      <trkpt lat="46.20196" lon="6.31328">
        <ele>792.79998779297</ele>
        <time>2020-02-23T15:39:38Z</time>
      </trkpt>
      <trkpt lat="46.20192" lon="6.31332">
        <ele>792.40002441406</ele>
        <time>2020-02-23T15:39:39Z</time>
      </trkpt>
      <trkpt lat="46.20188" lon="6.31336">
        <ele>792</ele>
        <time>2020-02-23T15:39:40Z</time>
      </trkpt>
      <trkpt lat="46.20184" lon="6.31338">
        <ele>791.59997558594</ele>
        <time>2020-02-23T15:39:41Z</time>
      </trkpt>
      <trkpt lat="46.20181" lon="6.31339">
        <ele>791.40002441406</ele>
        <time>2020-02-23T15:39:42Z</time>
      </trkpt>
      <trkpt lat="46.20178" lon="6.3134">
        <ele>790.59997558594</ele>
        <time>2020-02-23T15:39:43Z</time>
      </trkpt>
      <trkpt lat="46.20175" lon="6.31338">
        <ele>790.20001220703</ele>
        <time>2020-02-23T15:39:44Z</time>
      </trkpt>
      <trkpt lat="46.20173" lon="6.31335">
        <ele>789.59997558594</ele>
        <time>2020-02-23T15:39:45Z</time>
      </trkpt>
      <trkpt lat="46.20171" lon="6.31329">
        <ele>789</ele>
        <time>2020-02-23T15:39:46Z</time>
      </trkpt>
      <trkpt lat="46.20169" lon="6.31322">
        <ele>788.59997558594</ele>
        <time>2020-02-23T15:39:47Z</time>
      </trkpt>
      <trkpt lat="46.20167" lon="6.31313">
        <ele>788.40002441406</ele>
        <time>2020-02-23T15:39:48Z</time>
      </trkpt>
      <trkpt lat="46.20165" lon="6.31303">
        <ele>788.40002441406</ele>
        <time>2020-02-23T15:39:49Z</time>
      </trkpt>
      <trkpt lat="46.20163" lon="6.31291">
        <ele>788</ele>
        <time>2020-02-23T15:39:50Z</time>
      </trkpt>
      <trkpt lat="46.20161" lon="6.31278">
        <ele>787.40002441406</ele>
        <time>2020-02-23T15:39:51Z</time>
      </trkpt>
      <trkpt lat="46.20157" lon="6.31251">
        <ele>787</ele>
        <time>2020-02-23T15:39:53Z</time>
      </trkpt>
      <trkpt lat="46.20154" lon="6.31238">
        <ele>786.40002441406</ele>
        <time>2020-02-23T15:39:54Z</time>
      </trkpt>
      <trkpt lat="46.20152" lon="6.31227">
        <ele>786</ele>
        <time>2020-02-23T15:39:55Z</time>
      </trkpt>
      <trkpt lat="46.2015" lon="6.31216">
        <ele>785</ele>
        <time>2020-02-23T15:39:56Z</time>
      </trkpt>
      <trkpt lat="46.20149" lon="6.31205">
        <ele>783.59997558594</ele>
        <time>2020-02-23T15:39:57Z</time>
      </trkpt>
      <trkpt lat="46.20148" lon="6.31195">
        <ele>782.20001220703</ele>
        <time>2020-02-23T15:39:58Z</time>
      </trkpt>
      <trkpt lat="46.20148" lon="6.31184">
        <ele>780.59997558594</ele>
        <time>2020-02-23T15:39:59Z</time>
      </trkpt>
      <trkpt lat="46.20148" lon="6.31173">
        <ele>778.59997558594</ele>
        <time>2020-02-23T15:40:00Z</time>
      </trkpt>
      <trkpt lat="46.20148" lon="6.31164">
        <ele>777</ele>
        <time>2020-02-23T15:40:01Z</time>
      </trkpt>
      <trkpt lat="46.20148" lon="6.31154">
        <ele>775.20001220703</ele>
        <time>2020-02-23T15:40:02Z</time>
      </trkpt>
      <trkpt lat="46.20148" lon="6.31144">
        <ele>774.20001220703</ele>
        <time>2020-02-23T15:40:03Z</time>
      </trkpt>
      <trkpt lat="46.20148" lon="6.31135">
        <ele>773.79998779297</ele>
        <time>2020-02-23T15:40:04Z</time>
      </trkpt>
      <trkpt lat="46.20147" lon="6.31127">
        <ele>773.20001220703</ele>
        <time>2020-02-23T15:40:05Z</time>
      </trkpt>
      <trkpt lat="46.20147" lon="6.31119">
        <ele>772.79998779297</ele>
        <time>2020-02-23T15:40:06Z</time>
      </trkpt>
      <trkpt lat="46.20147" lon="6.3111">
        <ele>772.40002441406</ele>
        <time>2020-02-23T15:40:07Z</time>
      </trkpt>
      <trkpt lat="46.20147" lon="6.31102">
        <ele>771.79998779297</ele>
        <time>2020-02-23T15:40:08Z</time>
      </trkpt>
      <trkpt lat="46.20149" lon="6.31092">
        <ele>771.20001220703</ele>
        <time>2020-02-23T15:40:09Z</time>
      </trkpt>
      <trkpt lat="46.20153" lon="6.31072">
        <ele>770.59997558594</ele>
        <time>2020-02-23T15:40:11Z</time>
      </trkpt>
      <trkpt lat="46.20156" lon="6.31052">
        <ele>769.79998779297</ele>
        <time>2020-02-23T15:40:13Z</time>
      </trkpt>
      <trkpt lat="46.20159" lon="6.31043">
        <ele>769.40002441406</ele>
        <time>2020-02-23T15:40:14Z</time>
      </trkpt>
      <trkpt lat="46.20161" lon="6.31035">
        <ele>769</ele>
        <time>2020-02-23T15:40:15Z</time>
      </trkpt>
      <trkpt lat="46.20164" lon="6.31027">
        <ele>769</ele>
        <time>2020-02-23T15:40:16Z</time>
      </trkpt>
      <trkpt lat="46.20167" lon="6.3102">
        <ele>768.59997558594</ele>
        <time>2020-02-23T15:40:17Z</time>
      </trkpt>
      <trkpt lat="46.2017" lon="6.31013">
        <ele>767.79998779297</ele>
        <time>2020-02-23T15:40:18Z</time>
      </trkpt>
      <trkpt lat="46.20178" lon="6.31">
        <ele>766</ele>
        <time>2020-02-23T15:40:20Z</time>
      </trkpt>
      <trkpt lat="46.20182" lon="6.30994">
        <ele>765.20001220703</ele>
        <time>2020-02-23T15:40:21Z</time>
      </trkpt>
      <trkpt lat="46.20187" lon="6.30989">
        <ele>764.40002441406</ele>
        <time>2020-02-23T15:40:22Z</time>
      </trkpt>
      <trkpt lat="46.20191" lon="6.30983">
        <ele>763.59997558594</ele>
        <time>2020-02-23T15:40:23Z</time>
      </trkpt>
      <trkpt lat="46.20196" lon="6.30978">
        <ele>763</ele>
        <time>2020-02-23T15:40:24Z</time>
      </trkpt>
      <trkpt lat="46.20202" lon="6.30973">
        <ele>762.59997558594</ele>
        <time>2020-02-23T15:40:25Z</time>
      </trkpt>
      <trkpt lat="46.20207" lon="6.30967">
        <ele>762.20001220703</ele>
        <time>2020-02-23T15:40:26Z</time>
      </trkpt>
      <trkpt lat="46.20213" lon="6.3096">
        <ele>761.20001220703</ele>
        <time>2020-02-23T15:40:27Z</time>
      </trkpt>
      <trkpt lat="46.20219" lon="6.30952">
        <ele>760.20001220703</ele>
        <time>2020-02-23T15:40:28Z</time>
      </trkpt>
      <trkpt lat="46.2023" lon="6.30933">
        <ele>758.79998779297</ele>
        <time>2020-02-23T15:40:30Z</time>
      </trkpt>
      <trkpt lat="46.20236" lon="6.30923">
        <ele>757.79998779297</ele>
        <time>2020-02-23T15:40:31Z</time>
      </trkpt>
      <trkpt lat="46.20242" lon="6.30912">
        <ele>756.59997558594</ele>
        <time>2020-02-23T15:40:32Z</time>
      </trkpt>
      <trkpt lat="46.20254" lon="6.30891">
        <ele>755</ele>
        <time>2020-02-23T15:40:34Z</time>
      </trkpt>
      <trkpt lat="46.2026" lon="6.30882">
        <ele>753.40002441406</ele>
        <time>2020-02-23T15:40:35Z</time>
      </trkpt>
      <trkpt lat="46.20266" lon="6.30872">
        <ele>752.20001220703</ele>
        <time>2020-02-23T15:40:36Z</time>
      </trkpt>
      <trkpt lat="46.20271" lon="6.30863">
        <ele>750.79998779297</ele>
        <time>2020-02-23T15:40:37Z</time>
      </trkpt>
      <trkpt lat="46.20277" lon="6.30853">
        <ele>749.79998779297</ele>
        <time>2020-02-23T15:40:38Z</time>
      </trkpt>
      <trkpt lat="46.20282" lon="6.30843">
        <ele>748.79998779297</ele>
        <time>2020-02-23T15:40:39Z</time>
      </trkpt>
      <trkpt lat="46.20288" lon="6.30834">
        <ele>748.79998779297</ele>
        <time>2020-02-23T15:40:40Z</time>
      </trkpt>
      <trkpt lat="46.20293" lon="6.30825">
        <ele>747.59997558594</ele>
        <time>2020-02-23T15:40:41Z</time>
      </trkpt>
      <trkpt lat="46.20298" lon="6.30817">
        <ele>746.40002441406</ele>
        <time>2020-02-23T15:40:42Z</time>
      </trkpt>
      <trkpt lat="46.20302" lon="6.30809">
        <ele>745.40002441406</ele>
        <time>2020-02-23T15:40:43Z</time>
      </trkpt>
      <trkpt lat="46.20306" lon="6.30801">
        <ele>744.59997558594</ele>
        <time>2020-02-23T15:40:44Z</time>
      </trkpt>
      <trkpt lat="46.2031" lon="6.30792">
        <ele>743.79998779297</ele>
        <time>2020-02-23T15:40:45Z</time>
      </trkpt>
      <trkpt lat="46.20311" lon="6.30783">
        <ele>742.79998779297</ele>
        <time>2020-02-23T15:40:46Z</time>
      </trkpt>
      <trkpt lat="46.20311" lon="6.30774">
        <ele>742</ele>
        <time>2020-02-23T15:40:47Z</time>
      </trkpt>
      <trkpt lat="46.20308" lon="6.30765">
        <ele>741</ele>
        <time>2020-02-23T15:40:48Z</time>
      </trkpt>
      <trkpt lat="46.20303" lon="6.30757">
        <ele>740</ele>
        <time>2020-02-23T15:40:49Z</time>
      </trkpt>
      <trkpt lat="46.20296" lon="6.3075">
        <ele>739.20001220703</ele>
        <time>2020-02-23T15:40:50Z</time>
      </trkpt>
      <trkpt lat="46.20289" lon="6.30743">
        <ele>738.59997558594</ele>
        <time>2020-02-23T15:40:51Z</time>
      </trkpt>
      <trkpt lat="46.2028" lon="6.30736">
        <ele>738.20001220703</ele>
        <time>2020-02-23T15:40:52Z</time>
      </trkpt>
      <trkpt lat="46.20272" lon="6.30728">
        <ele>737.79998779297</ele>
        <time>2020-02-23T15:40:53Z</time>
      </trkpt>
      <trkpt lat="46.20263" lon="6.3072">
        <ele>737</ele>
        <time>2020-02-23T15:40:54Z</time>
      </trkpt>
      <trkpt lat="46.20254" lon="6.30712">
        <ele>736.20001220703</ele>
        <time>2020-02-23T15:40:55Z</time>
      </trkpt>
      <trkpt lat="46.20244" lon="6.30704">
        <ele>735.40002441406</ele>
        <time>2020-02-23T15:40:56Z</time>
      </trkpt>
      <trkpt lat="46.20223" lon="6.30688">
        <ele>732.59997558594</ele>
        <time>2020-02-23T15:40:58Z</time>
      </trkpt>
      <trkpt lat="46.20213" lon="6.3068">
        <ele>731</ele>
        <time>2020-02-23T15:40:59Z</time>
      </trkpt>
      <trkpt lat="46.20203" lon="6.30672">
        <ele>729.40002441406</ele>
        <time>2020-02-23T15:41:00Z</time>
      </trkpt>
      <trkpt lat="46.20195" lon="6.30664">
        <ele>727.59997558594</ele>
        <time>2020-02-23T15:41:01Z</time>
      </trkpt>
      <trkpt lat="46.20187" lon="6.30658">
        <ele>726</ele>
        <time>2020-02-23T15:41:02Z</time>
      </trkpt>
      <trkpt lat="46.20179" lon="6.30652">
        <ele>724.20001220703</ele>
        <time>2020-02-23T15:41:03Z</time>
      </trkpt>
      <trkpt lat="46.20173" lon="6.30647">
        <ele>722.40002441406</ele>
        <time>2020-02-23T15:41:04Z</time>
      </trkpt>
      <trkpt lat="46.20167" lon="6.30642">
        <ele>722.40002441406</ele>
        <time>2020-02-23T15:41:05Z</time>
      </trkpt>
      <trkpt lat="46.20163" lon="6.30638">
        <ele>720.59997558594</ele>
        <time>2020-02-23T15:41:06Z</time>
      </trkpt>
      <trkpt lat="46.20159" lon="6.30632">
        <ele>719.20001220703</ele>
        <time>2020-02-23T15:41:07Z</time>
      </trkpt>
      <trkpt lat="46.20155" lon="6.30625">
        <ele>717.79998779297</ele>
        <time>2020-02-23T15:41:08Z</time>
      </trkpt>
      <trkpt lat="46.20152" lon="6.30617">
        <ele>716.20001220703</ele>
        <time>2020-02-23T15:41:09Z</time>
      </trkpt>
      <trkpt lat="46.20149" lon="6.30608">
        <ele>715.59997558594</ele>
        <time>2020-02-23T15:41:10Z</time>
      </trkpt>
      <trkpt lat="46.20146" lon="6.30601">
        <ele>715.20001220703</ele>
        <time>2020-02-23T15:41:11Z</time>
      </trkpt>
      <trkpt lat="46.20142" lon="6.30593">
        <ele>714.59997558594</ele>
        <time>2020-02-23T15:41:12Z</time>
      </trkpt>
      <trkpt lat="46.20137" lon="6.30587">
        <ele>714.20001220703</ele>
        <time>2020-02-23T15:41:13Z</time>
      </trkpt>
      <trkpt lat="46.20131" lon="6.30581">
        <ele>714.20001220703</ele>
        <time>2020-02-23T15:41:14Z</time>
      </trkpt>
      <trkpt lat="46.20125" lon="6.30575">
        <ele>714</ele>
        <time>2020-02-23T15:41:15Z</time>
      </trkpt>
      <trkpt lat="46.20118" lon="6.30569">
        <ele>713.40002441406</ele>
        <time>2020-02-23T15:41:16Z</time>
      </trkpt>
      <trkpt lat="46.20111" lon="6.30563">
        <ele>712</ele>
        <time>2020-02-23T15:41:17Z</time>
      </trkpt>
      <trkpt lat="46.20103" lon="6.30557">
        <ele>711</ele>
        <time>2020-02-23T15:41:18Z</time>
      </trkpt>
      <trkpt lat="46.20095" lon="6.3055">
        <ele>710</ele>
        <time>2020-02-23T15:41:19Z</time>
      </trkpt>
      <trkpt lat="46.20087" lon="6.30544">
        <ele>709.40002441406</ele>
        <time>2020-02-23T15:41:20Z</time>
      </trkpt>
      <trkpt lat="46.2007" lon="6.30531">
        <ele>707.59997558594</ele>
        <time>2020-02-23T15:41:22Z</time>
      </trkpt>
      <trkpt lat="46.20062" lon="6.30524">
        <ele>706.79998779297</ele>
        <time>2020-02-23T15:41:23Z</time>
      </trkpt>
      <trkpt lat="46.20053" lon="6.30517">
        <ele>706</ele>
        <time>2020-02-23T15:41:24Z</time>
      </trkpt>
      <trkpt lat="46.20045" lon="6.3051">
        <ele>705</ele>
        <time>2020-02-23T15:41:25Z</time>
      </trkpt>
      <trkpt lat="46.20038" lon="6.30505">
        <ele>704</ele>
        <time>2020-02-23T15:41:26Z</time>
      </trkpt>
      <trkpt lat="46.20033" lon="6.305">
        <ele>702.79998779297</ele>
        <time>2020-02-23T15:41:27Z</time>
      </trkpt>
      <trkpt lat="46.20028" lon="6.30496">
        <ele>701.79998779297</ele>
        <time>2020-02-23T15:41:28Z</time>
      </trkpt>
      <trkpt lat="46.20023" lon="6.30492">
        <ele>701.79998779297</ele>
        <time>2020-02-23T15:41:29Z</time>
      </trkpt>
      <trkpt lat="46.20006" lon="6.30479">
        <ele>698.59997558594</ele>
        <time>2020-02-23T15:41:32Z</time>
      </trkpt>
      <trkpt lat="46.19999" lon="6.30474">
        <ele>697.79998779297</ele>
        <time>2020-02-23T15:41:33Z</time>
      </trkpt>
      <trkpt lat="46.19992" lon="6.3047">
        <ele>697.20001220703</ele>
        <time>2020-02-23T15:41:34Z</time>
      </trkpt>
      <trkpt lat="46.19977" lon="6.30459">
        <ele>696.79998779297</ele>
        <time>2020-02-23T15:41:36Z</time>
      </trkpt>
      <trkpt lat="46.19969" lon="6.30453">
        <ele>696.59997558594</ele>
        <time>2020-02-23T15:41:37Z</time>
      </trkpt>
      <trkpt lat="46.19961" lon="6.30447">
        <ele>696.40002441406</ele>
        <time>2020-02-23T15:41:38Z</time>
      </trkpt>
      <trkpt lat="46.19953" lon="6.3044">
        <ele>696</ele>
        <time>2020-02-23T15:41:39Z</time>
      </trkpt>
      <trkpt lat="46.19937" lon="6.30427">
        <ele>695.20001220703</ele>
        <time>2020-02-23T15:41:41Z</time>
      </trkpt>
      <trkpt lat="46.19929" lon="6.30422">
        <ele>694.20001220703</ele>
        <time>2020-02-23T15:41:42Z</time>
      </trkpt>
      <trkpt lat="46.19923" lon="6.30418">
        <ele>693</ele>
        <time>2020-02-23T15:41:43Z</time>
      </trkpt>
      <trkpt lat="46.19916" lon="6.30414">
        <ele>691.79998779297</ele>
        <time>2020-02-23T15:41:44Z</time>
      </trkpt>
      <trkpt lat="46.19901" lon="6.30406">
        <ele>689.79998779297</ele>
        <time>2020-02-23T15:41:46Z</time>
      </trkpt>
      <trkpt lat="46.19893" lon="6.30403">
        <ele>689</ele>
        <time>2020-02-23T15:41:47Z</time>
      </trkpt>
      <trkpt lat="46.19884" lon="6.304">
        <ele>687.79998779297</ele>
        <time>2020-02-23T15:41:48Z</time>
      </trkpt>
      <trkpt lat="46.19875" lon="6.30399">
        <ele>687.20001220703</ele>
        <time>2020-02-23T15:41:49Z</time>
      </trkpt>
      <trkpt lat="46.19865" lon="6.304">
        <ele>686.79998779297</ele>
        <time>2020-02-23T15:41:50Z</time>
      </trkpt>
      <trkpt lat="46.19856" lon="6.30402">
        <ele>686.79998779297</ele>
        <time>2020-02-23T15:41:51Z</time>
      </trkpt>
      <trkpt lat="46.19846" lon="6.30405">
        <ele>686.40002441406</ele>
        <time>2020-02-23T15:41:52Z</time>
      </trkpt>
      <trkpt lat="46.19837" lon="6.3041">
        <ele>686.20001220703</ele>
        <time>2020-02-23T15:41:53Z</time>
      </trkpt>
      <trkpt lat="46.19828" lon="6.30415">
        <ele>685.40002441406</ele>
        <time>2020-02-23T15:41:54Z</time>
      </trkpt>
      <trkpt lat="46.19819" lon="6.30422">
        <ele>684.79998779297</ele>
        <time>2020-02-23T15:41:55Z</time>
      </trkpt>
      <trkpt lat="46.19811" lon="6.30428">
        <ele>684</ele>
        <time>2020-02-23T15:41:56Z</time>
      </trkpt>
      <trkpt lat="46.19803" lon="6.30435">
        <ele>682.40002441406</ele>
        <time>2020-02-23T15:41:57Z</time>
      </trkpt>
      <trkpt lat="46.19795" lon="6.3044">
        <ele>681.20001220703</ele>
        <time>2020-02-23T15:41:58Z</time>
      </trkpt>
      <trkpt lat="46.19787" lon="6.30445">
        <ele>679.59997558594</ele>
        <time>2020-02-23T15:41:59Z</time>
      </trkpt>
      <trkpt lat="46.1978" lon="6.30448">
        <ele>678.20001220703</ele>
        <time>2020-02-23T15:42:00Z</time>
      </trkpt>
      <trkpt lat="46.19771" lon="6.30451">
        <ele>677</ele>
        <time>2020-02-23T15:42:01Z</time>
      </trkpt>
      <trkpt lat="46.19764" lon="6.30453">
        <ele>676.20001220703</ele>
        <time>2020-02-23T15:42:02Z</time>
      </trkpt>
      <trkpt lat="46.19756" lon="6.30456">
        <ele>675.79998779297</ele>
        <time>2020-02-23T15:42:03Z</time>
      </trkpt>
      <trkpt lat="46.19749" lon="6.30458">
        <ele>675.40002441406</ele>
        <time>2020-02-23T15:42:04Z</time>
      </trkpt>
      <trkpt lat="46.19742" lon="6.3046">
        <ele>675.20001220703</ele>
        <time>2020-02-23T15:42:05Z</time>
      </trkpt>
      <trkpt lat="46.19726" lon="6.30465">
        <ele>675</ele>
        <time>2020-02-23T15:42:07Z</time>
      </trkpt>
      <trkpt lat="46.19719" lon="6.30466">
        <ele>674.79998779297</ele>
        <time>2020-02-23T15:42:08Z</time>
      </trkpt>
      <trkpt lat="46.19711" lon="6.30467">
        <ele>674.40002441406</ele>
        <time>2020-02-23T15:42:09Z</time>
      </trkpt>
      <trkpt lat="46.19704" lon="6.30468">
        <ele>674</ele>
        <time>2020-02-23T15:42:10Z</time>
      </trkpt>
      <trkpt lat="46.19697" lon="6.30469">
        <ele>673.79998779297</ele>
        <time>2020-02-23T15:42:11Z</time>
      </trkpt>
      <trkpt lat="46.19691" lon="6.30468">
        <ele>673.40002441406</ele>
        <time>2020-02-23T15:42:12Z</time>
      </trkpt>
      <trkpt lat="46.19686" lon="6.30467">
        <ele>673.40002441406</ele>
        <time>2020-02-23T15:42:13Z</time>
      </trkpt>
      <trkpt lat="46.19681" lon="6.30464">
        <ele>672.59997558594</ele>
        <time>2020-02-23T15:42:14Z</time>
      </trkpt>
      <trkpt lat="46.19676" lon="6.30459">
        <ele>672</ele>
        <time>2020-02-23T15:42:15Z</time>
      </trkpt>
      <trkpt lat="46.19672" lon="6.30452">
        <ele>672</ele>
        <time>2020-02-23T15:42:16Z</time>
      </trkpt>
      <trkpt lat="46.19668" lon="6.30443">
        <ele>671.40002441406</ele>
        <time>2020-02-23T15:42:17Z</time>
      </trkpt>
      <trkpt lat="46.19666" lon="6.30435">
        <ele>670.79998779297</ele>
        <time>2020-02-23T15:42:18Z</time>
      </trkpt>
      <trkpt lat="46.19666" lon="6.30427">
        <ele>670.20001220703</ele>
        <time>2020-02-23T15:42:19Z</time>
      </trkpt>
      <trkpt lat="46.19667" lon="6.30419">
        <ele>669.40002441406</ele>
        <time>2020-02-23T15:42:20Z</time>
      </trkpt>
      <trkpt lat="46.19671" lon="6.30411">
        <ele>669</ele>
        <time>2020-02-23T15:42:21Z</time>
      </trkpt>
      <trkpt lat="46.19676" lon="6.30404">
        <ele>668.40002441406</ele>
        <time>2020-02-23T15:42:22Z</time>
      </trkpt>
      <trkpt lat="46.19682" lon="6.30398">
        <ele>667.79998779297</ele>
        <time>2020-02-23T15:42:23Z</time>
      </trkpt>
      <trkpt lat="46.19689" lon="6.30392">
        <ele>667</ele>
        <time>2020-02-23T15:42:24Z</time>
      </trkpt>
      <trkpt lat="46.19697" lon="6.30385">
        <ele>666.20001220703</ele>
        <time>2020-02-23T15:42:25Z</time>
      </trkpt>
      <trkpt lat="46.19705" lon="6.30377">
        <ele>665.40002441406</ele>
        <time>2020-02-23T15:42:26Z</time>
      </trkpt>
      <trkpt lat="46.19711" lon="6.30368">
        <ele>664.79998779297</ele>
        <time>2020-02-23T15:42:27Z</time>
      </trkpt>
      <trkpt lat="46.19717" lon="6.30358">
        <ele>663.79998779297</ele>
        <time>2020-02-23T15:42:28Z</time>
      </trkpt>
      <trkpt lat="46.19722" lon="6.30348">
        <ele>663.20001220703</ele>
        <time>2020-02-23T15:42:29Z</time>
      </trkpt>
      <trkpt lat="46.19726" lon="6.30338">
        <ele>662.59997558594</ele>
        <time>2020-02-23T15:42:30Z</time>
      </trkpt>
      <trkpt lat="46.19729" lon="6.3033">
        <ele>661.79998779297</ele>
        <time>2020-02-23T15:42:31Z</time>
      </trkpt>
      <trkpt lat="46.19737" lon="6.30311">
        <ele>660.20001220703</ele>
        <time>2020-02-23T15:42:33Z</time>
      </trkpt>
      <trkpt lat="46.19742" lon="6.30301">
        <ele>659.20001220703</ele>
        <time>2020-02-23T15:42:34Z</time>
      </trkpt>
      <trkpt lat="46.19746" lon="6.3029">
        <ele>657.79998779297</ele>
        <time>2020-02-23T15:42:35Z</time>
      </trkpt>
      <trkpt lat="46.19751" lon="6.30278">
        <ele>656.79998779297</ele>
        <time>2020-02-23T15:42:36Z</time>
      </trkpt>
      <trkpt lat="46.19755" lon="6.30266">
        <ele>656.20001220703</ele>
        <time>2020-02-23T15:42:37Z</time>
      </trkpt>
      <trkpt lat="46.19759" lon="6.30254">
        <ele>655.40002441406</ele>
        <time>2020-02-23T15:42:38Z</time>
      </trkpt>
      <trkpt lat="46.19764" lon="6.30243">
        <ele>654.59997558594</ele>
        <time>2020-02-23T15:42:39Z</time>
      </trkpt>
      <trkpt lat="46.19768" lon="6.30232">
        <ele>654.59997558594</ele>
        <time>2020-02-23T15:42:40Z</time>
      </trkpt>
      <trkpt lat="46.19772" lon="6.30221">
        <ele>654.20001220703</ele>
        <time>2020-02-23T15:42:41Z</time>
      </trkpt>
      <trkpt lat="46.19781" lon="6.30198">
        <ele>652.40002441406</ele>
        <time>2020-02-23T15:42:43Z</time>
      </trkpt>
      <trkpt lat="46.19785" lon="6.30188">
        <ele>651.59997558594</ele>
        <time>2020-02-23T15:42:44Z</time>
      </trkpt>
      <trkpt lat="46.19789" lon="6.30177">
        <ele>650.40002441406</ele>
        <time>2020-02-23T15:42:45Z</time>
      </trkpt>
      <trkpt lat="46.19793" lon="6.30168">
        <ele>649.40002441406</ele>
        <time>2020-02-23T15:42:46Z</time>
      </trkpt>
      <trkpt lat="46.19797" lon="6.30158">
        <ele>648</ele>
        <time>2020-02-23T15:42:47Z</time>
      </trkpt>
      <trkpt lat="46.19808" lon="6.30141">
        <ele>646.20001220703</ele>
        <time>2020-02-23T15:42:49Z</time>
      </trkpt>
      <trkpt lat="46.19815" lon="6.30131">
        <ele>645.20001220703</ele>
        <time>2020-02-23T15:42:50Z</time>
      </trkpt>
      <trkpt lat="46.19821" lon="6.30122">
        <ele>644.20001220703</ele>
        <time>2020-02-23T15:42:51Z</time>
      </trkpt>
      <trkpt lat="46.19828" lon="6.30112">
        <ele>643</ele>
        <time>2020-02-23T15:42:52Z</time>
      </trkpt>
      <trkpt lat="46.19835" lon="6.30102">
        <ele>642</ele>
        <time>2020-02-23T15:42:53Z</time>
      </trkpt>
      <trkpt lat="46.19842" lon="6.30093">
        <ele>641.40002441406</ele>
        <time>2020-02-23T15:42:54Z</time>
      </trkpt>
      <trkpt lat="46.19848" lon="6.30084">
        <ele>640.20001220703</ele>
        <time>2020-02-23T15:42:55Z</time>
      </trkpt>
      <trkpt lat="46.19855" lon="6.30076">
        <ele>639.79998779297</ele>
        <time>2020-02-23T15:42:56Z</time>
      </trkpt>
      <trkpt lat="46.19869" lon="6.30058">
        <ele>638.20001220703</ele>
        <time>2020-02-23T15:42:58Z</time>
      </trkpt>
      <trkpt lat="46.19875" lon="6.30049">
        <ele>637</ele>
        <time>2020-02-23T15:42:59Z</time>
      </trkpt>
      <trkpt lat="46.19882" lon="6.30042">
        <ele>636</ele>
        <time>2020-02-23T15:43:00Z</time>
      </trkpt>
      <trkpt lat="46.19888" lon="6.30035">
        <ele>635</ele>
        <time>2020-02-23T15:43:01Z</time>
      </trkpt>
      <trkpt lat="46.19894" lon="6.30028">
        <ele>634</ele>
        <time>2020-02-23T15:43:02Z</time>
      </trkpt>
      <trkpt lat="46.199" lon="6.30021">
        <ele>632.79998779297</ele>
        <time>2020-02-23T15:43:03Z</time>
      </trkpt>
      <trkpt lat="46.19905" lon="6.30015">
        <ele>632</ele>
        <time>2020-02-23T15:43:04Z</time>
      </trkpt>
      <trkpt lat="46.19908" lon="6.30008">
        <ele>632</ele>
        <time>2020-02-23T15:43:05Z</time>
      </trkpt>
      <trkpt lat="46.1991" lon="6.30001">
        <ele>630.79998779297</ele>
        <time>2020-02-23T15:43:06Z</time>
      </trkpt>
      <trkpt lat="46.1991" lon="6.29996">
        <ele>630</ele>
        <time>2020-02-23T15:43:07Z</time>
      </trkpt>
      <trkpt lat="46.1991" lon="6.29991">
        <ele>629</ele>
        <time>2020-02-23T15:43:08Z</time>
      </trkpt>
      <trkpt lat="46.19909" lon="6.29984">
        <ele>628</ele>
        <time>2020-02-23T15:43:09Z</time>
      </trkpt>
      <trkpt lat="46.19906" lon="6.29978">
        <ele>627.40002441406</ele>
        <time>2020-02-23T15:43:10Z</time>
      </trkpt>
      <trkpt lat="46.19901" lon="6.29972">
        <ele>626.59997558594</ele>
        <time>2020-02-23T15:43:11Z</time>
      </trkpt>
      <trkpt lat="46.19895" lon="6.29967">
        <ele>625.79998779297</ele>
        <time>2020-02-23T15:43:12Z</time>
      </trkpt>
      <trkpt lat="46.19888" lon="6.29961">
        <ele>625.40002441406</ele>
        <time>2020-02-23T15:43:13Z</time>
      </trkpt>
      <trkpt lat="46.1988" lon="6.29956">
        <ele>625</ele>
        <time>2020-02-23T15:43:14Z</time>
      </trkpt>
      <trkpt lat="46.19872" lon="6.29951">
        <ele>624.40002441406</ele>
        <time>2020-02-23T15:43:15Z</time>
      </trkpt>
      <trkpt lat="46.19863" lon="6.29945">
        <ele>624</ele>
        <time>2020-02-23T15:43:16Z</time>
      </trkpt>
      <trkpt lat="46.19855" lon="6.2994">
        <ele>623.59997558594</ele>
        <time>2020-02-23T15:43:17Z</time>
      </trkpt>
      <trkpt lat="46.19847" lon="6.29934">
        <ele>623</ele>
        <time>2020-02-23T15:43:18Z</time>
      </trkpt>
      <trkpt lat="46.1984" lon="6.29929">
        <ele>622.40002441406</ele>
        <time>2020-02-23T15:43:19Z</time>
      </trkpt>
      <trkpt lat="46.19832" lon="6.29924">
        <ele>621.40002441406</ele>
        <time>2020-02-23T15:43:20Z</time>
      </trkpt>
      <trkpt lat="46.19823" lon="6.2992">
        <ele>620.20001220703</ele>
        <time>2020-02-23T15:43:21Z</time>
      </trkpt>
      <trkpt lat="46.19814" lon="6.29915">
        <ele>618.79998779297</ele>
        <time>2020-02-23T15:43:22Z</time>
      </trkpt>
      <trkpt lat="46.19795" lon="6.29907">
        <ele>615.40002441406</ele>
        <time>2020-02-23T15:43:24Z</time>
      </trkpt>
      <trkpt lat="46.19787" lon="6.29903">
        <ele>614.20001220703</ele>
        <time>2020-02-23T15:43:25Z</time>
      </trkpt>
      <trkpt lat="46.19779" lon="6.29899">
        <ele>613</ele>
        <time>2020-02-23T15:43:26Z</time>
      </trkpt>
      <trkpt lat="46.19772" lon="6.29896">
        <ele>612.20001220703</ele>
        <time>2020-02-23T15:43:27Z</time>
      </trkpt>
      <trkpt lat="46.19765" lon="6.29893">
        <ele>611</ele>
        <time>2020-02-23T15:43:28Z</time>
      </trkpt>
      <trkpt lat="46.19759" lon="6.2989">
        <ele>611</ele>
        <time>2020-02-23T15:43:29Z</time>
      </trkpt>
      <trkpt lat="46.19752" lon="6.29888">
        <ele>610.40002441406</ele>
        <time>2020-02-23T15:43:30Z</time>
      </trkpt>
      <trkpt lat="46.19746" lon="6.29884">
        <ele>609.20001220703</ele>
        <time>2020-02-23T15:43:31Z</time>
      </trkpt>
      <trkpt lat="46.19741" lon="6.2988">
        <ele>608</ele>
        <time>2020-02-23T15:43:32Z</time>
      </trkpt>
      <trkpt lat="46.19736" lon="6.29873">
        <ele>607</ele>
        <time>2020-02-23T15:43:33Z</time>
      </trkpt>
      <trkpt lat="46.19727" lon="6.29858">
        <ele>604.59997558594</ele>
        <time>2020-02-23T15:43:35Z</time>
      </trkpt>
      <trkpt lat="46.19722" lon="6.2985">
        <ele>603.79998779297</ele>
        <time>2020-02-23T15:43:36Z</time>
      </trkpt>
      <trkpt lat="46.19718" lon="6.29843">
        <ele>603.20001220703</ele>
        <time>2020-02-23T15:43:37Z</time>
      </trkpt>
      <trkpt lat="46.19715" lon="6.29836">
        <ele>602.59997558594</ele>
        <time>2020-02-23T15:43:38Z</time>
      </trkpt>
      <trkpt lat="46.19711" lon="6.29827">
        <ele>602</ele>
        <time>2020-02-23T15:43:39Z</time>
      </trkpt>
      <trkpt lat="46.19705" lon="6.2981">
        <ele>600.79998779297</ele>
        <time>2020-02-23T15:43:41Z</time>
      </trkpt>
      <trkpt lat="46.19702" lon="6.29802">
        <ele>600.20001220703</ele>
        <time>2020-02-23T15:43:42Z</time>
      </trkpt>
      <trkpt lat="46.197" lon="6.29794">
        <ele>599.59997558594</ele>
        <time>2020-02-23T15:43:43Z</time>
      </trkpt>
      <trkpt lat="46.19697" lon="6.29787">
        <ele>598.79998779297</ele>
        <time>2020-02-23T15:43:44Z</time>
      </trkpt>
      <trkpt lat="46.19693" lon="6.2978">
        <ele>598.20001220703</ele>
        <time>2020-02-23T15:43:45Z</time>
      </trkpt>
      <trkpt lat="46.19689" lon="6.29773">
        <ele>597.40002441406</ele>
        <time>2020-02-23T15:43:46Z</time>
      </trkpt>
      <trkpt lat="46.19686" lon="6.29764">
        <ele>597</ele>
        <time>2020-02-23T15:43:47Z</time>
      </trkpt>
      <trkpt lat="46.19685" lon="6.29755">
        <ele>596.20001220703</ele>
        <time>2020-02-23T15:43:48Z</time>
      </trkpt>
      <trkpt lat="46.19685" lon="6.29747">
        <ele>595.40002441406</ele>
        <time>2020-02-23T15:43:49Z</time>
      </trkpt>
      <trkpt lat="46.19685" lon="6.29741">
        <ele>595</ele>
        <time>2020-02-23T15:43:50Z</time>
      </trkpt>
      <trkpt lat="46.19686" lon="6.29736">
        <ele>595</ele>
        <time>2020-02-23T15:43:51Z</time>
      </trkpt>
      <trkpt lat="46.19688" lon="6.29732">
        <ele>594.40002441406</ele>
        <time>2020-02-23T15:43:52Z</time>
      </trkpt>
      <trkpt lat="46.1969" lon="6.29729">
        <ele>593.79998779297</ele>
        <time>2020-02-23T15:43:53Z</time>
      </trkpt>
      <trkpt lat="46.19692" lon="6.29727">
        <ele>593.79998779297</ele>
        <time>2020-02-23T15:43:54Z</time>
      </trkpt>
      <trkpt lat="46.19694" lon="6.29725">
        <ele>593.20001220703</ele>
        <time>2020-02-23T15:43:55Z</time>
      </trkpt>
      <trkpt lat="46.19695" lon="6.29724">
        <ele>593</ele>
        <time>2020-02-23T15:43:56Z</time>
      </trkpt>
      <trkpt lat="46.19697" lon="6.29723">
        <ele>592.59997558594</ele>
        <time>2020-02-23T15:43:57Z</time>
      </trkpt>
      <trkpt lat="46.19699" lon="6.29722">
        <ele>592.59997558594</ele>
        <time>2020-02-23T15:43:58Z</time>
      </trkpt>
      <trkpt lat="46.197" lon="6.2972">
        <ele>592.40002441406</ele>
        <time>2020-02-23T15:43:59Z</time>
      </trkpt>
      <trkpt lat="46.19702" lon="6.29719">
        <ele>592.40002441406</ele>
        <time>2020-02-23T15:44:00Z</time>
      </trkpt>
      <trkpt lat="46.19704" lon="6.29717">
        <ele>592.40002441406</ele>
        <time>2020-02-23T15:44:01Z</time>
      </trkpt>
      <trkpt lat="46.19705" lon="6.29716">
        <ele>592.40002441406</ele>
        <time>2020-02-23T15:44:02Z</time>
      </trkpt>
      <trkpt lat="46.19707" lon="6.29715">
        <ele>592.40002441406</ele>
        <time>2020-02-23T15:44:03Z</time>
      </trkpt>
      <trkpt lat="46.19709" lon="6.29715">
        <ele>592.40002441406</ele>
        <time>2020-02-23T15:44:04Z</time>
      </trkpt>
      <trkpt lat="46.19711" lon="6.29713">
        <ele>592.40002441406</ele>
        <time>2020-02-23T15:44:05Z</time>
      </trkpt>
      <trkpt lat="46.19712" lon="6.29712">
        <ele>592.59997558594</ele>
        <time>2020-02-23T15:44:06Z</time>
      </trkpt>
      <trkpt lat="46.19713" lon="6.29711">
        <ele>592.59997558594</ele>
        <time>2020-02-23T15:44:07Z</time>
      </trkpt>
      <trkpt lat="46.19715" lon="6.2971">
        <ele>592.59997558594</ele>
        <time>2020-02-23T15:44:08Z</time>
      </trkpt>
      <trkpt lat="46.19716" lon="6.29709">
        <ele>592.79998779297</ele>
        <time>2020-02-23T15:44:09Z</time>
      </trkpt>
      <trkpt lat="46.19717" lon="6.29708">
        <ele>593</ele>
        <time>2020-02-23T15:44:10Z</time>
      </trkpt>
      <trkpt lat="46.19719" lon="6.29707">
        <ele>593</ele>
        <time>2020-02-23T15:44:11Z</time>
      </trkpt>
      <trkpt lat="46.1972" lon="6.29706">
        <ele>593.40002441406</ele>
        <time>2020-02-23T15:44:12Z</time>
      </trkpt>
      <trkpt lat="46.19722" lon="6.29705">
        <ele>593.59997558594</ele>
        <time>2020-02-23T15:44:13Z</time>
      </trkpt>
      <trkpt lat="46.19724" lon="6.29705">
        <ele>593.79998779297</ele>
        <time>2020-02-23T15:44:14Z</time>
      </trkpt>
      <trkpt lat="46.19726" lon="6.29704">
        <ele>593.79998779297</ele>
        <time>2020-02-23T15:44:15Z</time>
      </trkpt>
      <trkpt lat="46.19728" lon="6.29703">
        <ele>594</ele>
        <time>2020-02-23T15:44:16Z</time>
      </trkpt>
      <trkpt lat="46.1973" lon="6.29703">
        <ele>594.20001220703</ele>
        <time>2020-02-23T15:44:17Z</time>
      </trkpt>
      <trkpt lat="46.19732" lon="6.29702">
        <ele>594.20001220703</ele>
        <time>2020-02-23T15:44:18Z</time>
      </trkpt>
      <trkpt lat="46.19734" lon="6.29702">
        <ele>594.20001220703</ele>
        <time>2020-02-23T15:44:19Z</time>
      </trkpt>
      <trkpt lat="46.19736" lon="6.29701">
        <ele>594.40002441406</ele>
        <time>2020-02-23T15:44:20Z</time>
      </trkpt>
      <trkpt lat="46.19738" lon="6.29701">
        <ele>594.40002441406</ele>
        <time>2020-02-23T15:44:21Z</time>
      </trkpt>
      <trkpt lat="46.1974" lon="6.29701">
        <ele>594.59997558594</ele>
        <time>2020-02-23T15:44:22Z</time>
      </trkpt>
      <trkpt lat="46.19742" lon="6.297">
        <ele>594.59997558594</ele>
        <time>2020-02-23T15:44:23Z</time>
      </trkpt>
      <trkpt lat="46.19743" lon="6.29699">
        <ele>594.79998779297</ele>
        <time>2020-02-23T15:44:24Z</time>
      </trkpt>
      <trkpt lat="46.19746" lon="6.29699">
        <ele>594.79998779297</ele>
        <time>2020-02-23T15:44:25Z</time>
      </trkpt>
      <trkpt lat="46.19748" lon="6.29699">
        <ele>595</ele>
        <time>2020-02-23T15:44:26Z</time>
      </trkpt>
      <trkpt lat="46.1975" lon="6.29698">
        <ele>595</ele>
        <time>2020-02-23T15:44:27Z</time>
      </trkpt>
      <trkpt lat="46.19751" lon="6.29698">
        <ele>595.20001220703</ele>
        <time>2020-02-23T15:44:28Z</time>
      </trkpt>
      <trkpt lat="46.19753" lon="6.29697">
        <ele>595.40002441406</ele>
        <time>2020-02-23T15:44:29Z</time>
      </trkpt>
      <trkpt lat="46.19758" lon="6.29696">
        <ele>595.79998779297</ele>
        <time>2020-02-23T15:44:31Z</time>
      </trkpt>
      <trkpt lat="46.1976" lon="6.29697">
        <ele>596</ele>
        <time>2020-02-23T15:44:32Z</time>
      </trkpt>
      <trkpt lat="46.19762" lon="6.29698">
        <ele>596.20001220703</ele>
        <time>2020-02-23T15:44:33Z</time>
      </trkpt>
      <trkpt lat="46.19763" lon="6.29698">
        <ele>596.20001220703</ele>
        <time>2020-02-23T15:44:34Z</time>
      </trkpt>
      <trkpt lat="46.19772" lon="6.29702">
        <ele>596.40002441406</ele>
        <time>2020-02-23T15:44:39Z</time>
      </trkpt>
      <trkpt lat="46.19779" lon="6.29703">
        <ele>596.40002441406</ele>
        <time>2020-02-23T15:44:42Z</time>
      </trkpt>
      <trkpt lat="46.19786" lon="6.29703">
        <ele>596.59997558594</ele>
        <time>2020-02-23T15:44:44Z</time>
      </trkpt>
      <trkpt lat="46.19802" lon="6.29702">
        <ele>596.40002441406</ele>
        <time>2020-02-23T15:44:48Z</time>
      </trkpt>
      <trkpt lat="46.19807" lon="6.29701">
        <ele>596.40002441406</ele>
        <time>2020-02-23T15:44:49Z</time>
      </trkpt>
      <trkpt lat="46.19821" lon="6.297">
        <ele>596.40002441406</ele>
        <time>2020-02-23T15:44:52Z</time>
      </trkpt>
      <trkpt lat="46.19826" lon="6.297">
        <ele>596.40002441406</ele>
        <time>2020-02-23T15:44:53Z</time>
      </trkpt>
      <trkpt lat="46.19832" lon="6.297">
        <ele>596.20001220703</ele>
        <time>2020-02-23T15:44:54Z</time>
      </trkpt>
      <trkpt lat="46.1985" lon="6.29698">
        <ele>595.79998779297</ele>
        <time>2020-02-23T15:44:57Z</time>
      </trkpt>
      <trkpt lat="46.1987" lon="6.29696">
        <ele>594.79998779297</ele>
        <time>2020-02-23T15:45:00Z</time>
      </trkpt>
      <trkpt lat="46.19883" lon="6.29696">
        <ele>594.20001220703</ele>
        <time>2020-02-23T15:45:02Z</time>
      </trkpt>
      <trkpt lat="46.19889" lon="6.29695">
        <ele>594</ele>
        <time>2020-02-23T15:45:03Z</time>
      </trkpt>
      <trkpt lat="46.19894" lon="6.29694">
        <ele>593.40002441406</ele>
        <time>2020-02-23T15:45:04Z</time>
      </trkpt>
      <trkpt lat="46.199" lon="6.29693">
        <ele>593.40002441406</ele>
        <time>2020-02-23T15:45:05Z</time>
      </trkpt>
      <trkpt lat="46.19906" lon="6.29693">
        <ele>593.40002441406</ele>
        <time>2020-02-23T15:45:06Z</time>
      </trkpt>
      <trkpt lat="46.19918" lon="6.29693">
        <ele>592.59997558594</ele>
        <time>2020-02-23T15:45:08Z</time>
      </trkpt>
      <trkpt lat="46.1993" lon="6.29693">
        <ele>592</ele>
        <time>2020-02-23T15:45:10Z</time>
      </trkpt>
      <trkpt lat="46.19936" lon="6.29691">
        <ele>591.59997558594</ele>
        <time>2020-02-23T15:45:11Z</time>
      </trkpt>
      <trkpt lat="46.19942" lon="6.2969">
        <ele>591.40002441406</ele>
        <time>2020-02-23T15:45:12Z</time>
      </trkpt>
      <trkpt lat="46.19955" lon="6.29688">
        <ele>591.20001220703</ele>
        <time>2020-02-23T15:45:14Z</time>
      </trkpt>
      <trkpt lat="46.19961" lon="6.29686">
        <ele>591</ele>
        <time>2020-02-23T15:45:15Z</time>
      </trkpt>
      <trkpt lat="46.19988" lon="6.29682">
        <ele>589.59997558594</ele>
        <time>2020-02-23T15:45:19Z</time>
      </trkpt>
      <trkpt lat="46.20003" lon="6.29682">
        <ele>588.59997558594</ele>
        <time>2020-02-23T15:45:21Z</time>
      </trkpt>
      <trkpt lat="46.20017" lon="6.29683">
        <ele>587.79998779297</ele>
        <time>2020-02-23T15:45:23Z</time>
      </trkpt>
      <trkpt lat="46.20024" lon="6.29684">
        <ele>587.40002441406</ele>
        <time>2020-02-23T15:45:24Z</time>
      </trkpt>
      <trkpt lat="46.2004" lon="6.29687">
        <ele>587</ele>
        <time>2020-02-23T15:45:26Z</time>
      </trkpt>
      <trkpt lat="46.20048" lon="6.29689">
        <ele>586.59997558594</ele>
        <time>2020-02-23T15:45:27Z</time>
      </trkpt>
      <trkpt lat="46.20064" lon="6.29692">
        <ele>586.20001220703</ele>
        <time>2020-02-23T15:45:29Z</time>
      </trkpt>
      <trkpt lat="46.20104" lon="6.29701">
        <ele>585</ele>
        <time>2020-02-23T15:45:34Z</time>
      </trkpt>
      <trkpt lat="46.20112" lon="6.29703">
        <ele>584.79998779297</ele>
        <time>2020-02-23T15:45:35Z</time>
      </trkpt>
      <trkpt lat="46.20139" lon="6.29707">
        <ele>583.59997558594</ele>
        <time>2020-02-23T15:45:38Z</time>
      </trkpt>
      <trkpt lat="46.20165" lon="6.29712">
        <ele>582.20001220703</ele>
        <time>2020-02-23T15:45:41Z</time>
      </trkpt>
      <trkpt lat="46.20174" lon="6.29715">
        <ele>582</ele>
        <time>2020-02-23T15:45:42Z</time>
      </trkpt>
      <trkpt lat="46.20184" lon="6.29718">
        <ele>581.20001220703</ele>
        <time>2020-02-23T15:45:43Z</time>
      </trkpt>
      <trkpt lat="46.20193" lon="6.29722">
        <ele>580.79998779297</ele>
        <time>2020-02-23T15:45:44Z</time>
      </trkpt>
      <trkpt lat="46.20202" lon="6.29726">
        <ele>580.59997558594</ele>
        <time>2020-02-23T15:45:45Z</time>
      </trkpt>
      <trkpt lat="46.2021" lon="6.29728">
        <ele>580.20001220703</ele>
        <time>2020-02-23T15:45:46Z</time>
      </trkpt>
      <trkpt lat="46.20218" lon="6.2973">
        <ele>579.40002441406</ele>
        <time>2020-02-23T15:45:47Z</time>
      </trkpt>
      <trkpt lat="46.20226" lon="6.29729">
        <ele>578.79998779297</ele>
        <time>2020-02-23T15:45:48Z</time>
      </trkpt>
      <trkpt lat="46.20235" lon="6.29725">
        <ele>578.20001220703</ele>
        <time>2020-02-23T15:45:49Z</time>
      </trkpt>
      <trkpt lat="46.20242" lon="6.29721">
        <ele>577.59997558594</ele>
        <time>2020-02-23T15:45:50Z</time>
      </trkpt>
      <trkpt lat="46.20249" lon="6.29718">
        <ele>576.59997558594</ele>
        <time>2020-02-23T15:45:51Z</time>
      </trkpt>
      <trkpt lat="46.20256" lon="6.29715">
        <ele>575.40002441406</ele>
        <time>2020-02-23T15:45:52Z</time>
      </trkpt>
      <trkpt lat="46.20264" lon="6.29714">
        <ele>574.59997558594</ele>
        <time>2020-02-23T15:45:53Z</time>
      </trkpt>
      <trkpt lat="46.20281" lon="6.29713">
        <ele>573.59997558594</ele>
        <time>2020-02-23T15:45:55Z</time>
      </trkpt>
      <trkpt lat="46.20299" lon="6.29715">
        <ele>572.59997558594</ele>
        <time>2020-02-23T15:45:57Z</time>
      </trkpt>
      <trkpt lat="46.20308" lon="6.29715">
        <ele>571.59997558594</ele>
        <time>2020-02-23T15:45:58Z</time>
      </trkpt>
      <trkpt lat="46.20327" lon="6.29715">
        <ele>570.20001220703</ele>
        <time>2020-02-23T15:46:00Z</time>
      </trkpt>
      <trkpt lat="46.20337" lon="6.29715">
        <ele>569.59997558594</ele>
        <time>2020-02-23T15:46:01Z</time>
      </trkpt>
      <trkpt lat="46.20347" lon="6.29715">
        <ele>568.79998779297</ele>
        <time>2020-02-23T15:46:02Z</time>
      </trkpt>
      <trkpt lat="46.20358" lon="6.29717">
        <ele>567.59997558594</ele>
        <time>2020-02-23T15:46:03Z</time>
      </trkpt>
      <trkpt lat="46.2038" lon="6.29719">
        <ele>565.40002441406</ele>
        <time>2020-02-23T15:46:05Z</time>
      </trkpt>
      <trkpt lat="46.20392" lon="6.2972">
        <ele>564.59997558594</ele>
        <time>2020-02-23T15:46:06Z</time>
      </trkpt>
      <trkpt lat="46.20403" lon="6.29722">
        <ele>563.59997558594</ele>
        <time>2020-02-23T15:46:07Z</time>
      </trkpt>
      <trkpt lat="46.20413" lon="6.29723">
        <ele>562.79998779297</ele>
        <time>2020-02-23T15:46:08Z</time>
      </trkpt>
      <trkpt lat="46.20423" lon="6.29725">
        <ele>562</ele>
        <time>2020-02-23T15:46:09Z</time>
      </trkpt>
      <trkpt lat="46.20431" lon="6.29726">
        <ele>560.79998779297</ele>
        <time>2020-02-23T15:46:10Z</time>
      </trkpt>
      <trkpt lat="46.2044" lon="6.29726">
        <ele>559.40002441406</ele>
        <time>2020-02-23T15:46:11Z</time>
      </trkpt>
      <trkpt lat="46.20449" lon="6.29726">
        <ele>558.20001220703</ele>
        <time>2020-02-23T15:46:12Z</time>
      </trkpt>
      <trkpt lat="46.20459" lon="6.29726">
        <ele>557.20001220703</ele>
        <time>2020-02-23T15:46:13Z</time>
      </trkpt>
      <trkpt lat="46.20469" lon="6.29725">
        <ele>556.20001220703</ele>
        <time>2020-02-23T15:46:14Z</time>
      </trkpt>
      <trkpt lat="46.20491" lon="6.29722">
        <ele>554.40002441406</ele>
        <time>2020-02-23T15:46:16Z</time>
      </trkpt>
      <trkpt lat="46.20511" lon="6.29718">
        <ele>553.59997558594</ele>
        <time>2020-02-23T15:46:18Z</time>
      </trkpt>
      <trkpt lat="46.20521" lon="6.29716">
        <ele>553.20001220703</ele>
        <time>2020-02-23T15:46:19Z</time>
      </trkpt>
      <trkpt lat="46.20531" lon="6.29714">
        <ele>553.20001220703</ele>
        <time>2020-02-23T15:46:20Z</time>
      </trkpt>
      <trkpt lat="46.20541" lon="6.29713">
        <ele>552.59997558594</ele>
        <time>2020-02-23T15:46:21Z</time>
      </trkpt>
      <trkpt lat="46.20552" lon="6.29713">
        <ele>551.79998779297</ele>
        <time>2020-02-23T15:46:22Z</time>
      </trkpt>
      <trkpt lat="46.20563" lon="6.29713">
        <ele>550.59997558594</ele>
        <time>2020-02-23T15:46:23Z</time>
      </trkpt>
      <trkpt lat="46.20575" lon="6.29714">
        <ele>549.40002441406</ele>
        <time>2020-02-23T15:46:24Z</time>
      </trkpt>
      <trkpt lat="46.20598" lon="6.29715">
        <ele>547.59997558594</ele>
        <time>2020-02-23T15:46:26Z</time>
      </trkpt>
      <trkpt lat="46.2061" lon="6.29717">
        <ele>546.59997558594</ele>
        <time>2020-02-23T15:46:27Z</time>
      </trkpt>
      <trkpt lat="46.20635" lon="6.29719">
        <ele>545</ele>
        <time>2020-02-23T15:46:29Z</time>
      </trkpt>
      <trkpt lat="46.20661" lon="6.2972">
        <ele>542.59997558594</ele>
        <time>2020-02-23T15:46:31Z</time>
      </trkpt>
      <trkpt lat="46.20674" lon="6.29721">
        <ele>541.79998779297</ele>
        <time>2020-02-23T15:46:32Z</time>
      </trkpt>
      <trkpt lat="46.20687" lon="6.29722">
        <ele>540.79998779297</ele>
        <time>2020-02-23T15:46:33Z</time>
      </trkpt>
      <trkpt lat="46.20699" lon="6.29722">
        <ele>540.20001220703</ele>
        <time>2020-02-23T15:46:34Z</time>
      </trkpt>
      <trkpt lat="46.20711" lon="6.29723">
        <ele>539</ele>
        <time>2020-02-23T15:46:35Z</time>
      </trkpt>
      <trkpt lat="46.20723" lon="6.29724">
        <ele>537.59997558594</ele>
        <time>2020-02-23T15:46:36Z</time>
      </trkpt>
      <trkpt lat="46.20735" lon="6.29725">
        <ele>536.59997558594</ele>
        <time>2020-02-23T15:46:37Z</time>
      </trkpt>
      <trkpt lat="46.20746" lon="6.29725">
        <ele>535.59997558594</ele>
        <time>2020-02-23T15:46:38Z</time>
      </trkpt>
      <trkpt lat="46.20757" lon="6.29726">
        <ele>534.79998779297</ele>
        <time>2020-02-23T15:46:39Z</time>
      </trkpt>
      <trkpt lat="46.20768" lon="6.29726">
        <ele>534</ele>
        <time>2020-02-23T15:46:40Z</time>
      </trkpt>
      <trkpt lat="46.20778" lon="6.29727">
        <ele>533.20001220703</ele>
        <time>2020-02-23T15:46:41Z</time>
      </trkpt>
      <trkpt lat="46.20789" lon="6.29728">
        <ele>532.79998779297</ele>
        <time>2020-02-23T15:46:42Z</time>
      </trkpt>
      <trkpt lat="46.20799" lon="6.29728">
        <ele>532.59997558594</ele>
        <time>2020-02-23T15:46:43Z</time>
      </trkpt>
      <trkpt lat="46.20809" lon="6.2973">
        <ele>532.59997558594</ele>
        <time>2020-02-23T15:46:44Z</time>
      </trkpt>
      <trkpt lat="46.20818" lon="6.29731">
        <ele>532.40002441406</ele>
        <time>2020-02-23T15:46:45Z</time>
      </trkpt>
      <trkpt lat="46.20827" lon="6.29732">
        <ele>532.40002441406</ele>
        <time>2020-02-23T15:46:46Z</time>
      </trkpt>
      <trkpt lat="46.20836" lon="6.29734">
        <ele>532.40002441406</ele>
        <time>2020-02-23T15:46:47Z</time>
      </trkpt>
      <trkpt lat="46.20844" lon="6.29737">
        <ele>532.40002441406</ele>
        <time>2020-02-23T15:46:48Z</time>
      </trkpt>
      <trkpt lat="46.20852" lon="6.29739">
        <ele>532</ele>
        <time>2020-02-23T15:46:49Z</time>
      </trkpt>
      <trkpt lat="46.20859" lon="6.29743">
        <ele>531.59997558594</ele>
        <time>2020-02-23T15:46:50Z</time>
      </trkpt>
      <trkpt lat="46.20866" lon="6.29746">
        <ele>531.40002441406</ele>
        <time>2020-02-23T15:46:51Z</time>
      </trkpt>
      <trkpt lat="46.20873" lon="6.29749">
        <ele>531.40002441406</ele>
        <time>2020-02-23T15:46:52Z</time>
      </trkpt>
      <trkpt lat="46.2088" lon="6.29752">
        <ele>531.40002441406</ele>
        <time>2020-02-23T15:46:53Z</time>
      </trkpt>
      <trkpt lat="46.20886" lon="6.29754">
        <ele>531.40002441406</ele>
        <time>2020-02-23T15:46:54Z</time>
      </trkpt>
      <trkpt lat="46.20892" lon="6.29757">
        <ele>531.40002441406</ele>
        <time>2020-02-23T15:46:55Z</time>
      </trkpt>
      <trkpt lat="46.20898" lon="6.29759">
        <ele>531.20001220703</ele>
        <time>2020-02-23T15:46:56Z</time>
      </trkpt>
      <trkpt lat="46.20903" lon="6.29762">
        <ele>531.20001220703</ele>
        <time>2020-02-23T15:46:57Z</time>
      </trkpt>
      <trkpt lat="46.20909" lon="6.29765">
        <ele>531.20001220703</ele>
        <time>2020-02-23T15:46:58Z</time>
      </trkpt>
      <trkpt lat="46.20914" lon="6.29768">
        <ele>531.20001220703</ele>
        <time>2020-02-23T15:46:59Z</time>
      </trkpt>
      <trkpt lat="46.20918" lon="6.29771">
        <ele>531.40002441406</ele>
        <time>2020-02-23T15:47:00Z</time>
      </trkpt>
      <trkpt lat="46.20923" lon="6.29776">
        <ele>531.79998779297</ele>
        <time>2020-02-23T15:47:01Z</time>
      </trkpt>
      <trkpt lat="46.20927" lon="6.2978">
        <ele>531.79998779297</ele>
        <time>2020-02-23T15:47:02Z</time>
      </trkpt>
      <trkpt lat="46.20931" lon="6.29784">
        <ele>532</ele>
        <time>2020-02-23T15:47:03Z</time>
      </trkpt>
      <trkpt lat="46.20935" lon="6.29789">
        <ele>532.20001220703</ele>
        <time>2020-02-23T15:47:04Z</time>
      </trkpt>
      <trkpt lat="46.20938" lon="6.29793">
        <ele>532.40002441406</ele>
        <time>2020-02-23T15:47:05Z</time>
      </trkpt>
      <trkpt lat="46.20942" lon="6.29798">
        <ele>532.59997558594</ele>
        <time>2020-02-23T15:47:06Z</time>
      </trkpt>
      <trkpt lat="46.20945" lon="6.29802">
        <ele>532.59997558594</ele>
        <time>2020-02-23T15:47:07Z</time>
      </trkpt>
      <trkpt lat="46.20948" lon="6.29806">
        <ele>532.79998779297</ele>
        <time>2020-02-23T15:47:08Z</time>
      </trkpt>
      <trkpt lat="46.20951" lon="6.29809">
        <ele>532.79998779297</ele>
        <time>2020-02-23T15:47:09Z</time>
      </trkpt>
      <trkpt lat="46.20953" lon="6.29812">
        <ele>532.79998779297</ele>
        <time>2020-02-23T15:47:10Z</time>
      </trkpt>
      <trkpt lat="46.20955" lon="6.29813">
        <ele>532.79998779297</ele>
        <time>2020-02-23T15:47:11Z</time>
      </trkpt>
      <trkpt lat="46.20956" lon="6.29814">
        <ele>533.20001220703</ele>
        <time>2020-02-23T15:47:12Z</time>
      </trkpt>
      <trkpt lat="46.20958" lon="6.29815">
        <ele>533.40002441406</ele>
        <time>2020-02-23T15:47:13Z</time>
      </trkpt>
      <trkpt lat="46.2096" lon="6.29817">
        <ele>533.40002441406</ele>
        <time>2020-02-23T15:47:14Z</time>
      </trkpt>
      <trkpt lat="46.20971" lon="6.29824">
        <ele>533.79998779297</ele>
        <time>2020-02-23T15:47:18Z</time>
      </trkpt>
      <trkpt lat="46.20987" lon="6.29835">
        <ele>533.79998779297</ele>
        <time>2020-02-23T15:47:22Z</time>
      </trkpt>
      <trkpt lat="46.21001" lon="6.29848">
        <ele>533.79998779297</ele>
        <time>2020-02-23T15:47:25Z</time>
      </trkpt>
      <trkpt lat="46.21011" lon="6.29858">
        <ele>534</ele>
        <time>2020-02-23T15:47:27Z</time>
      </trkpt>
      <trkpt lat="46.21025" lon="6.29876">
        <ele>533.79998779297</ele>
        <time>2020-02-23T15:47:30Z</time>
      </trkpt>
      <trkpt lat="46.21029" lon="6.29881">
        <ele>533.79998779297</ele>
        <time>2020-02-23T15:47:31Z</time>
      </trkpt>
      <trkpt lat="46.21034" lon="6.29887">
        <ele>534</ele>
        <time>2020-02-23T15:47:32Z</time>
      </trkpt>
      <trkpt lat="46.21038" lon="6.29892">
        <ele>534</ele>
        <time>2020-02-23T15:47:33Z</time>
      </trkpt>
      <trkpt lat="46.21041" lon="6.29897">
        <ele>533.79998779297</ele>
        <time>2020-02-23T15:47:34Z</time>
      </trkpt>
      <trkpt lat="46.21045" lon="6.29902">
        <ele>533.59997558594</ele>
        <time>2020-02-23T15:47:35Z</time>
      </trkpt>
      <trkpt lat="46.21049" lon="6.29907">
        <ele>533.59997558594</ele>
        <time>2020-02-23T15:47:36Z</time>
      </trkpt>
      <trkpt lat="46.21052" lon="6.29912">
        <ele>533.59997558594</ele>
        <time>2020-02-23T15:47:37Z</time>
      </trkpt>
      <trkpt lat="46.21056" lon="6.29917">
        <ele>533.40002441406</ele>
        <time>2020-02-23T15:47:38Z</time>
      </trkpt>
      <trkpt lat="46.2106" lon="6.29922">
        <ele>533.40002441406</ele>
        <time>2020-02-23T15:47:39Z</time>
      </trkpt>
      <trkpt lat="46.21087" lon="6.29957">
        <ele>533</ele>
        <time>2020-02-23T15:47:46Z</time>
      </trkpt>
      <trkpt lat="46.2112" lon="6.2999">
        <ele>533.20001220703</ele>
        <time>2020-02-23T15:47:53Z</time>
      </trkpt>
      <trkpt lat="46.21124" lon="6.29994">
        <ele>533.20001220703</ele>
        <time>2020-02-23T15:47:54Z</time>
      </trkpt>
      <trkpt lat="46.21129" lon="6.29999">
        <ele>533</ele>
        <time>2020-02-23T15:47:55Z</time>
      </trkpt>
      <trkpt lat="46.21133" lon="6.30003">
        <ele>533.20001220703</ele>
        <time>2020-02-23T15:47:56Z</time>
      </trkpt>
      <trkpt lat="46.21137" lon="6.30007">
        <ele>533.20001220703</ele>
        <time>2020-02-23T15:47:57Z</time>
      </trkpt>
      <trkpt lat="46.21141" lon="6.30011">
        <ele>533.20001220703</ele>
        <time>2020-02-23T15:47:58Z</time>
      </trkpt>
      <trkpt lat="46.21145" lon="6.30014">
        <ele>533.20001220703</ele>
        <time>2020-02-23T15:47:59Z</time>
      </trkpt>
      <trkpt lat="46.21149" lon="6.30018">
        <ele>533.20001220703</ele>
        <time>2020-02-23T15:48:00Z</time>
      </trkpt>
      <trkpt lat="46.21152" lon="6.30021">
        <ele>533.20001220703</ele>
        <time>2020-02-23T15:48:01Z</time>
      </trkpt>
      <trkpt lat="46.21156" lon="6.30023">
        <ele>533.20001220703</ele>
        <time>2020-02-23T15:48:02Z</time>
      </trkpt>
      <trkpt lat="46.21173" lon="6.30032">
        <ele>533.79998779297</ele>
        <time>2020-02-23T15:48:06Z</time>
      </trkpt>
      <trkpt lat="46.21177" lon="6.30034">
        <ele>533.79998779297</ele>
        <time>2020-02-23T15:48:07Z</time>
      </trkpt>
      <trkpt lat="46.21181" lon="6.30035">
        <ele>534</ele>
        <time>2020-02-23T15:48:08Z</time>
      </trkpt>
      <trkpt lat="46.21184" lon="6.30037">
        <ele>534</ele>
        <time>2020-02-23T15:48:09Z</time>
      </trkpt>
      <trkpt lat="46.21188" lon="6.30038">
        <ele>534</ele>
        <time>2020-02-23T15:48:10Z</time>
      </trkpt>
      <trkpt lat="46.21191" lon="6.3004">
        <ele>534.20001220703</ele>
        <time>2020-02-23T15:48:11Z</time>
      </trkpt>
      <trkpt lat="46.21194" lon="6.30041">
        <ele>534.20001220703</ele>
        <time>2020-02-23T15:48:12Z</time>
      </trkpt>
      <trkpt lat="46.21196" lon="6.30043">
        <ele>534.20001220703</ele>
        <time>2020-02-23T15:48:13Z</time>
      </trkpt>
      <trkpt lat="46.21197" lon="6.30043">
        <ele>534.20001220703</ele>
        <time>2020-02-23T15:48:14Z</time>
      </trkpt>
      <trkpt lat="46.21197" lon="6.30043">
        <ele>534.40002441406</ele>
        <time>2020-02-23T15:48:16Z</time>
      </trkpt>
      <trkpt lat="46.21196" lon="6.30043">
        <ele>536</ele>
        <time>2020-02-23T15:48:33Z</time>
      </trkpt>
      <trkpt lat="46.21197" lon="6.30045">
        <ele>536</ele>
        <time>2020-02-23T15:48:44Z</time>
      </trkpt>
      <trkpt lat="46.21199" lon="6.30048">
        <ele>536</ele>
        <time>2020-02-23T15:48:46Z</time>
      </trkpt>
      <trkpt lat="46.212" lon="6.3005">
        <ele>536</ele>
        <time>2020-02-23T15:48:47Z</time>
      </trkpt>
      <trkpt lat="46.21204" lon="6.30062">
        <ele>536</ele>
        <time>2020-02-23T15:48:51Z</time>
      </trkpt>
      <trkpt lat="46.21205" lon="6.30065">
        <ele>535.79998779297</ele>
        <time>2020-02-23T15:48:52Z</time>
      </trkpt>
      <trkpt lat="46.21206" lon="6.30067">
        <ele>535.79998779297</ele>
        <time>2020-02-23T15:48:53Z</time>
      </trkpt>
      <trkpt lat="46.21206" lon="6.3007">
        <ele>536</ele>
        <time>2020-02-23T15:48:54Z</time>
      </trkpt>
      <trkpt lat="46.21207" lon="6.30073">
        <ele>535.79998779297</ele>
        <time>2020-02-23T15:48:55Z</time>
      </trkpt>
      <trkpt lat="46.2121" lon="6.30079">
        <ele>535.59997558594</ele>
        <time>2020-02-23T15:48:57Z</time>
      </trkpt>
      <trkpt lat="46.21216" lon="6.30091">
        <ele>535.79998779297</ele>
        <time>2020-02-23T15:49:00Z</time>
      </trkpt>
      <trkpt lat="46.21221" lon="6.301">
        <ele>535.79998779297</ele>
        <time>2020-02-23T15:49:02Z</time>
      </trkpt>
      <trkpt lat="46.21247" lon="6.30142">
        <ele>535.40002441406</ele>
        <time>2020-02-23T15:49:10Z</time>
      </trkpt>
      <trkpt lat="46.21258" lon="6.30159">
        <ele>535.40002441406</ele>
        <time>2020-02-23T15:49:13Z</time>
      </trkpt>
      <trkpt lat="46.21261" lon="6.30165">
        <ele>535.40002441406</ele>
        <time>2020-02-23T15:49:14Z</time>
      </trkpt>
      <trkpt lat="46.21265" lon="6.3017">
        <ele>535.40002441406</ele>
        <time>2020-02-23T15:49:15Z</time>
      </trkpt>
      <trkpt lat="46.21268" lon="6.30176">
        <ele>535.40002441406</ele>
        <time>2020-02-23T15:49:16Z</time>
      </trkpt>
      <trkpt lat="46.21271" lon="6.30181">
        <ele>535.40002441406</ele>
        <time>2020-02-23T15:49:17Z</time>
      </trkpt>
      <trkpt lat="46.21274" lon="6.30186">
        <ele>535.40002441406</ele>
        <time>2020-02-23T15:49:18Z</time>
      </trkpt>
      <trkpt lat="46.21277" lon="6.30192">
        <ele>535.40002441406</ele>
        <time>2020-02-23T15:49:19Z</time>
      </trkpt>
      <trkpt lat="46.21286" lon="6.30208">
        <ele>535.79998779297</ele>
        <time>2020-02-23T15:49:22Z</time>
      </trkpt>
      <trkpt lat="46.21289" lon="6.30213">
        <ele>535.79998779297</ele>
        <time>2020-02-23T15:49:23Z</time>
      </trkpt>
      <trkpt lat="46.21292" lon="6.30219">
        <ele>536</ele>
        <time>2020-02-23T15:49:24Z</time>
      </trkpt>
      <trkpt lat="46.21295" lon="6.30224">
        <ele>536</ele>
        <time>2020-02-23T15:49:25Z</time>
      </trkpt>
      <trkpt lat="46.21298" lon="6.30229">
        <ele>536</ele>
        <time>2020-02-23T15:49:26Z</time>
      </trkpt>
      <trkpt lat="46.21311" lon="6.3025">
        <ele>536.20001220703</ele>
        <time>2020-02-23T15:49:30Z</time>
      </trkpt>
      <trkpt lat="46.21314" lon="6.30254">
        <ele>536.20001220703</ele>
        <time>2020-02-23T15:49:31Z</time>
      </trkpt>
      <trkpt lat="46.21317" lon="6.30258">
        <ele>536.40002441406</ele>
        <time>2020-02-23T15:49:32Z</time>
      </trkpt>
      <trkpt lat="46.2132" lon="6.30262">
        <ele>536.59997558594</ele>
        <time>2020-02-23T15:49:33Z</time>
      </trkpt>
      <trkpt lat="46.21324" lon="6.30266">
        <ele>536.59997558594</ele>
        <time>2020-02-23T15:49:34Z</time>
      </trkpt>
      <trkpt lat="46.21327" lon="6.3027">
        <ele>536.59997558594</ele>
        <time>2020-02-23T15:49:35Z</time>
      </trkpt>
      <trkpt lat="46.21331" lon="6.30275">
        <ele>536.79998779297</ele>
        <time>2020-02-23T15:49:36Z</time>
      </trkpt>
      <trkpt lat="46.21335" lon="6.30279">
        <ele>537</ele>
        <time>2020-02-23T15:49:37Z</time>
      </trkpt>
      <trkpt lat="46.21338" lon="6.30283">
        <ele>537</ele>
        <time>2020-02-23T15:49:38Z</time>
      </trkpt>
      <trkpt lat="46.21346" lon="6.3029">
        <ele>537.20001220703</ele>
        <time>2020-02-23T15:49:40Z</time>
      </trkpt>
      <trkpt lat="46.21351" lon="6.30294">
        <ele>537.59997558594</ele>
        <time>2020-02-23T15:49:41Z</time>
      </trkpt>
      <trkpt lat="46.21354" lon="6.30297">
        <ele>537.79998779297</ele>
        <time>2020-02-23T15:49:42Z</time>
      </trkpt>
      <trkpt lat="46.21358" lon="6.303">
        <ele>538</ele>
        <time>2020-02-23T15:49:43Z</time>
      </trkpt>
      <trkpt lat="46.21362" lon="6.30303">
        <ele>538</ele>
        <time>2020-02-23T15:49:44Z</time>
      </trkpt>
      <trkpt lat="46.21366" lon="6.30305">
        <ele>538</ele>
        <time>2020-02-23T15:49:45Z</time>
      </trkpt>
      <trkpt lat="46.21369" lon="6.30307">
        <ele>538.20001220703</ele>
        <time>2020-02-23T15:49:46Z</time>
      </trkpt>
      <trkpt lat="46.21373" lon="6.30309">
        <ele>538</ele>
        <time>2020-02-23T15:49:47Z</time>
      </trkpt>
      <trkpt lat="46.21396" lon="6.30326">
        <ele>538.40002441406</ele>
        <time>2020-02-23T15:49:53Z</time>
      </trkpt>
      <trkpt lat="46.21425" lon="6.30343">
        <ele>538.79998779297</ele>
        <time>2020-02-23T15:49:59Z</time>
      </trkpt>
      <trkpt lat="46.21431" lon="6.30343">
        <ele>538.59997558594</ele>
        <time>2020-02-23T15:50:00Z</time>
      </trkpt>
      <trkpt lat="46.21437" lon="6.30343">
        <ele>538.79998779297</ele>
        <time>2020-02-23T15:50:01Z</time>
      </trkpt>
      <trkpt lat="46.21443" lon="6.30341">
        <ele>538.79998779297</ele>
        <time>2020-02-23T15:50:02Z</time>
      </trkpt>
      <trkpt lat="46.21449" lon="6.30338">
        <ele>538.79998779297</ele>
        <time>2020-02-23T15:50:03Z</time>
      </trkpt>
      <trkpt lat="46.21468" lon="6.30329">
        <ele>538.79998779297</ele>
        <time>2020-02-23T15:50:06Z</time>
      </trkpt>
      <trkpt lat="46.21475" lon="6.30328">
        <ele>538.59997558594</ele>
        <time>2020-02-23T15:50:07Z</time>
      </trkpt>
      <trkpt lat="46.21482" lon="6.30329">
        <ele>538.59997558594</ele>
        <time>2020-02-23T15:50:08Z</time>
      </trkpt>
      <trkpt lat="46.2149" lon="6.30331">
        <ele>538.59997558594</ele>
        <time>2020-02-23T15:50:09Z</time>
      </trkpt>
      <trkpt lat="46.21496" lon="6.30336">
        <ele>538.20001220703</ele>
        <time>2020-02-23T15:50:10Z</time>
      </trkpt>
      <trkpt lat="46.21502" lon="6.30344">
        <ele>537.79998779297</ele>
        <time>2020-02-23T15:50:11Z</time>
      </trkpt>
      <trkpt lat="46.21518" lon="6.30368">
        <ele>536.59997558594</ele>
        <time>2020-02-23T15:50:14Z</time>
      </trkpt>
      <trkpt lat="46.21524" lon="6.30376">
        <ele>536.20001220703</ele>
        <time>2020-02-23T15:50:15Z</time>
      </trkpt>
      <trkpt lat="46.21529" lon="6.30384">
        <ele>535.79998779297</ele>
        <time>2020-02-23T15:50:16Z</time>
      </trkpt>
      <trkpt lat="46.21534" lon="6.30391">
        <ele>535.40002441406</ele>
        <time>2020-02-23T15:50:17Z</time>
      </trkpt>
      <trkpt lat="46.2154" lon="6.30399">
        <ele>535.20001220703</ele>
        <time>2020-02-23T15:50:18Z</time>
      </trkpt>
      <trkpt lat="46.21545" lon="6.30407">
        <ele>535</ele>
        <time>2020-02-23T15:50:19Z</time>
      </trkpt>
      <trkpt lat="46.21551" lon="6.30414">
        <ele>534.79998779297</ele>
        <time>2020-02-23T15:50:20Z</time>
      </trkpt>
      <trkpt lat="46.21556" lon="6.30422">
        <ele>534.40002441406</ele>
        <time>2020-02-23T15:50:21Z</time>
      </trkpt>
      <trkpt lat="46.21561" lon="6.30429">
        <ele>534.20001220703</ele>
        <time>2020-02-23T15:50:22Z</time>
      </trkpt>
      <trkpt lat="46.21567" lon="6.30436">
        <ele>534.20001220703</ele>
        <time>2020-02-23T15:50:23Z</time>
      </trkpt>
      <trkpt lat="46.21572" lon="6.30443">
        <ele>534</ele>
        <time>2020-02-23T15:50:24Z</time>
      </trkpt>
      <trkpt lat="46.21578" lon="6.3045">
        <ele>533.79998779297</ele>
        <time>2020-02-23T15:50:25Z</time>
      </trkpt>
      <trkpt lat="46.21583" lon="6.30458">
        <ele>533.40002441406</ele>
        <time>2020-02-23T15:50:26Z</time>
      </trkpt>
      <trkpt lat="46.21588" lon="6.30465">
        <ele>533.40002441406</ele>
        <time>2020-02-23T15:50:27Z</time>
      </trkpt>
      <trkpt lat="46.21593" lon="6.30472">
        <ele>533.40002441406</ele>
        <time>2020-02-23T15:50:28Z</time>
      </trkpt>
      <trkpt lat="46.21599" lon="6.30479">
        <ele>533.20001220703</ele>
        <time>2020-02-23T15:50:29Z</time>
      </trkpt>
      <trkpt lat="46.21604" lon="6.30485">
        <ele>533.20001220703</ele>
        <time>2020-02-23T15:50:30Z</time>
      </trkpt>
      <trkpt lat="46.21609" lon="6.30492">
        <ele>532.59997558594</ele>
        <time>2020-02-23T15:50:31Z</time>
      </trkpt>
      <trkpt lat="46.21614" lon="6.30499">
        <ele>532.40002441406</ele>
        <time>2020-02-23T15:50:32Z</time>
      </trkpt>
      <trkpt lat="46.21619" lon="6.30505">
        <ele>532.20001220703</ele>
        <time>2020-02-23T15:50:33Z</time>
      </trkpt>
      <trkpt lat="46.21624" lon="6.30511">
        <ele>532</ele>
        <time>2020-02-23T15:50:34Z</time>
      </trkpt>
      <trkpt lat="46.21629" lon="6.30517">
        <ele>531.79998779297</ele>
        <time>2020-02-23T15:50:35Z</time>
      </trkpt>
      <trkpt lat="46.21634" lon="6.30524">
        <ele>531.59997558594</ele>
        <time>2020-02-23T15:50:36Z</time>
      </trkpt>
      <trkpt lat="46.21639" lon="6.3053">
        <ele>531.59997558594</ele>
        <time>2020-02-23T15:50:37Z</time>
      </trkpt>
      <trkpt lat="46.21644" lon="6.30536">
        <ele>531.40002441406</ele>
        <time>2020-02-23T15:50:38Z</time>
      </trkpt>
      <trkpt lat="46.21648" lon="6.30542">
        <ele>531.40002441406</ele>
        <time>2020-02-23T15:50:39Z</time>
      </trkpt>
      <trkpt lat="46.21653" lon="6.30548">
        <ele>531.40002441406</ele>
        <time>2020-02-23T15:50:40Z</time>
      </trkpt>
      <trkpt lat="46.21657" lon="6.30554">
        <ele>531.20001220703</ele>
        <time>2020-02-23T15:50:41Z</time>
      </trkpt>
      <trkpt lat="46.21662" lon="6.3056">
        <ele>531.20001220703</ele>
        <time>2020-02-23T15:50:42Z</time>
      </trkpt>
      <trkpt lat="46.21666" lon="6.30566">
        <ele>531.20001220703</ele>
        <time>2020-02-23T15:50:43Z</time>
      </trkpt>
      <trkpt lat="46.2167" lon="6.30571">
        <ele>531.20001220703</ele>
        <time>2020-02-23T15:50:44Z</time>
      </trkpt>
      <trkpt lat="46.21674" lon="6.30577">
        <ele>531.20001220703</ele>
        <time>2020-02-23T15:50:45Z</time>
      </trkpt>
      <trkpt lat="46.21678" lon="6.30583">
        <ele>531.20001220703</ele>
        <time>2020-02-23T15:50:46Z</time>
      </trkpt>
      <trkpt lat="46.21682" lon="6.30588">
        <ele>531</ele>
        <time>2020-02-23T15:50:47Z</time>
      </trkpt>
      <trkpt lat="46.21686" lon="6.30593">
        <ele>531</ele>
        <time>2020-02-23T15:50:48Z</time>
      </trkpt>
      <trkpt lat="46.2169" lon="6.30599">
        <ele>531.20001220703</ele>
        <time>2020-02-23T15:50:49Z</time>
      </trkpt>
      <trkpt lat="46.21694" lon="6.30604">
        <ele>531.20001220703</ele>
        <time>2020-02-23T15:50:50Z</time>
      </trkpt>
      <trkpt lat="46.21697" lon="6.30609">
        <ele>531.20001220703</ele>
        <time>2020-02-23T15:50:51Z</time>
      </trkpt>
      <trkpt lat="46.21701" lon="6.30614">
        <ele>531.20001220703</ele>
        <time>2020-02-23T15:50:52Z</time>
      </trkpt>
      <trkpt lat="46.21704" lon="6.30619">
        <ele>531.20001220703</ele>
        <time>2020-02-23T15:50:53Z</time>
      </trkpt>
      <trkpt lat="46.21708" lon="6.30624">
        <ele>531.40002441406</ele>
        <time>2020-02-23T15:50:54Z</time>
      </trkpt>
      <trkpt lat="46.2175" lon="6.30674">
        <ele>531.40002441406</ele>
        <time>2020-02-23T15:51:04Z</time>
      </trkpt>
      <trkpt lat="46.21778" lon="6.30707">
        <ele>531.79998779297</ele>
        <time>2020-02-23T15:51:10Z</time>
      </trkpt>
      <trkpt lat="46.21783" lon="6.30713">
        <ele>531.59997558594</ele>
        <time>2020-02-23T15:51:11Z</time>
      </trkpt>
      <trkpt lat="46.21788" lon="6.30718">
        <ele>531.59997558594</ele>
        <time>2020-02-23T15:51:12Z</time>
      </trkpt>
      <trkpt lat="46.21792" lon="6.30723">
        <ele>531.59997558594</ele>
        <time>2020-02-23T15:51:13Z</time>
      </trkpt>
      <trkpt lat="46.21797" lon="6.30729">
        <ele>531.59997558594</ele>
        <time>2020-02-23T15:51:14Z</time>
      </trkpt>
      <trkpt lat="46.21801" lon="6.30733">
        <ele>531.59997558594</ele>
        <time>2020-02-23T15:51:15Z</time>
      </trkpt>
      <trkpt lat="46.21805" lon="6.30738">
        <ele>531.79998779297</ele>
        <time>2020-02-23T15:51:16Z</time>
      </trkpt>
      <trkpt lat="46.21809" lon="6.30742">
        <ele>531.79998779297</ele>
        <time>2020-02-23T15:51:17Z</time>
      </trkpt>
      <trkpt lat="46.21813" lon="6.30746">
        <ele>531.79998779297</ele>
        <time>2020-02-23T15:51:18Z</time>
      </trkpt>
      <trkpt lat="46.21816" lon="6.30749">
        <ele>532</ele>
        <time>2020-02-23T15:51:19Z</time>
      </trkpt>
      <trkpt lat="46.2182" lon="6.30753">
        <ele>532.20001220703</ele>
        <time>2020-02-23T15:51:20Z</time>
      </trkpt>
      <trkpt lat="46.21823" lon="6.30755">
        <ele>532.40002441406</ele>
        <time>2020-02-23T15:51:21Z</time>
      </trkpt>
      <trkpt lat="46.21827" lon="6.30758">
        <ele>532.59997558594</ele>
        <time>2020-02-23T15:51:22Z</time>
      </trkpt>
      <trkpt lat="46.2183" lon="6.30761">
        <ele>533</ele>
        <time>2020-02-23T15:51:23Z</time>
      </trkpt>
      <trkpt lat="46.21833" lon="6.30765">
        <ele>533.20001220703</ele>
        <time>2020-02-23T15:51:24Z</time>
      </trkpt>
      <trkpt lat="46.21835" lon="6.30769">
        <ele>533.20001220703</ele>
        <time>2020-02-23T15:51:25Z</time>
      </trkpt>
      <trkpt lat="46.21837" lon="6.30774">
        <ele>533.59997558594</ele>
        <time>2020-02-23T15:51:26Z</time>
      </trkpt>
      <trkpt lat="46.2184" lon="6.30777">
        <ele>533.59997558594</ele>
        <time>2020-02-23T15:51:27Z</time>
      </trkpt>
      <trkpt lat="46.21853" lon="6.30792">
        <ele>534.20001220703</ele>
        <time>2020-02-23T15:51:31Z</time>
      </trkpt>
      <trkpt lat="46.21856" lon="6.30796">
        <ele>534.40002441406</ele>
        <time>2020-02-23T15:51:32Z</time>
      </trkpt>
      <trkpt lat="46.21859" lon="6.30799">
        <ele>534.40002441406</ele>
        <time>2020-02-23T15:51:33Z</time>
      </trkpt>
      <trkpt lat="46.21863" lon="6.30803">
        <ele>534.59997558594</ele>
        <time>2020-02-23T15:51:34Z</time>
      </trkpt>
      <trkpt lat="46.21869" lon="6.30811">
        <ele>534.59997558594</ele>
        <time>2020-02-23T15:51:36Z</time>
      </trkpt>
      <trkpt lat="46.21873" lon="6.30815">
        <ele>534.79998779297</ele>
        <time>2020-02-23T15:51:37Z</time>
      </trkpt>
      <trkpt lat="46.21876" lon="6.30819">
        <ele>534.79998779297</ele>
        <time>2020-02-23T15:51:38Z</time>
      </trkpt>
      <trkpt lat="46.21879" lon="6.30823">
        <ele>535</ele>
        <time>2020-02-23T15:51:39Z</time>
      </trkpt>
      <trkpt lat="46.21882" lon="6.30827">
        <ele>535.20001220703</ele>
        <time>2020-02-23T15:51:40Z</time>
      </trkpt>
      <trkpt lat="46.21886" lon="6.30831">
        <ele>535.40002441406</ele>
        <time>2020-02-23T15:51:41Z</time>
      </trkpt>
      <trkpt lat="46.21894" lon="6.3084">
        <ele>535.40002441406</ele>
        <time>2020-02-23T15:51:43Z</time>
      </trkpt>
      <trkpt lat="46.21897" lon="6.30845">
        <ele>535.59997558594</ele>
        <time>2020-02-23T15:51:44Z</time>
      </trkpt>
      <trkpt lat="46.21905" lon="6.30854">
        <ele>535.79998779297</ele>
        <time>2020-02-23T15:51:46Z</time>
      </trkpt>
      <trkpt lat="46.21909" lon="6.30858">
        <ele>535.79998779297</ele>
        <time>2020-02-23T15:51:47Z</time>
      </trkpt>
      <trkpt lat="46.21912" lon="6.30863">
        <ele>536</ele>
        <time>2020-02-23T15:51:48Z</time>
      </trkpt>
      <trkpt lat="46.21916" lon="6.30867">
        <ele>536.20001220703</ele>
        <time>2020-02-23T15:51:49Z</time>
      </trkpt>
      <trkpt lat="46.2192" lon="6.30871">
        <ele>536.40002441406</ele>
        <time>2020-02-23T15:51:50Z</time>
      </trkpt>
      <trkpt lat="46.21924" lon="6.30875">
        <ele>536.20001220703</ele>
        <time>2020-02-23T15:51:51Z</time>
      </trkpt>
      <trkpt lat="46.21927" lon="6.30879">
        <ele>536.40002441406</ele>
        <time>2020-02-23T15:51:52Z</time>
      </trkpt>
      <trkpt lat="46.21931" lon="6.30883">
        <ele>536.40002441406</ele>
        <time>2020-02-23T15:51:53Z</time>
      </trkpt>
      <trkpt lat="46.21934" lon="6.30887">
        <ele>536.59997558594</ele>
        <time>2020-02-23T15:51:54Z</time>
      </trkpt>
      <trkpt lat="46.21937" lon="6.30891">
        <ele>536.79998779297</ele>
        <time>2020-02-23T15:51:55Z</time>
      </trkpt>
      <trkpt lat="46.21965" lon="6.30919">
        <ele>537</ele>
        <time>2020-02-23T15:52:02Z</time>
      </trkpt>
      <trkpt lat="46.21994" lon="6.30949">
        <ele>537.40002441406</ele>
        <time>2020-02-23T15:52:08Z</time>
      </trkpt>
      <trkpt lat="46.21999" lon="6.30954">
        <ele>537.20001220703</ele>
        <time>2020-02-23T15:52:09Z</time>
      </trkpt>
      <trkpt lat="46.22004" lon="6.30958">
        <ele>537.40002441406</ele>
        <time>2020-02-23T15:52:10Z</time>
      </trkpt>
      <trkpt lat="46.22008" lon="6.30963">
        <ele>537.20001220703</ele>
        <time>2020-02-23T15:52:11Z</time>
      </trkpt>
      <trkpt lat="46.22013" lon="6.30967">
        <ele>537.40002441406</ele>
        <time>2020-02-23T15:52:12Z</time>
      </trkpt>
      <trkpt lat="46.22017" lon="6.30972">
        <ele>537.40002441406</ele>
        <time>2020-02-23T15:52:13Z</time>
      </trkpt>
      <trkpt lat="46.22022" lon="6.30977">
        <ele>537.40002441406</ele>
        <time>2020-02-23T15:52:14Z</time>
      </trkpt>
      <trkpt lat="46.22026" lon="6.30982">
        <ele>537.40002441406</ele>
        <time>2020-02-23T15:52:15Z</time>
      </trkpt>
      <trkpt lat="46.22029" lon="6.30987">
        <ele>537.40002441406</ele>
        <time>2020-02-23T15:52:16Z</time>
      </trkpt>
      <trkpt lat="46.22032" lon="6.30993">
        <ele>537.40002441406</ele>
        <time>2020-02-23T15:52:17Z</time>
      </trkpt>
      <trkpt lat="46.22035" lon="6.30999">
        <ele>537.40002441406</ele>
        <time>2020-02-23T15:52:18Z</time>
      </trkpt>
      <trkpt lat="46.22038" lon="6.31005">
        <ele>537.40002441406</ele>
        <time>2020-02-23T15:52:19Z</time>
      </trkpt>
      <trkpt lat="46.2204" lon="6.31011">
        <ele>537.40002441406</ele>
        <time>2020-02-23T15:52:20Z</time>
      </trkpt>
      <trkpt lat="46.22042" lon="6.31017">
        <ele>537.20001220703</ele>
        <time>2020-02-23T15:52:21Z</time>
      </trkpt>
      <trkpt lat="46.22044" lon="6.31023">
        <ele>537.40002441406</ele>
        <time>2020-02-23T15:52:22Z</time>
      </trkpt>
      <trkpt lat="46.22045" lon="6.31028">
        <ele>537.40002441406</ele>
        <time>2020-02-23T15:52:23Z</time>
      </trkpt>
      <trkpt lat="46.22047" lon="6.31034">
        <ele>537.40002441406</ele>
        <time>2020-02-23T15:52:24Z</time>
      </trkpt>
      <trkpt lat="46.22049" lon="6.31039">
        <ele>537.40002441406</ele>
        <time>2020-02-23T15:52:25Z</time>
      </trkpt>
      <trkpt lat="46.2205" lon="6.31044">
        <ele>537.40002441406</ele>
        <time>2020-02-23T15:52:26Z</time>
      </trkpt>
      <trkpt lat="46.22052" lon="6.31049">
        <ele>537.59997558594</ele>
        <time>2020-02-23T15:52:27Z</time>
      </trkpt>
      <trkpt lat="46.22054" lon="6.31055">
        <ele>537.59997558594</ele>
        <time>2020-02-23T15:52:28Z</time>
      </trkpt>
      <trkpt lat="46.22056" lon="6.3106">
        <ele>537.59997558594</ele>
        <time>2020-02-23T15:52:29Z</time>
      </trkpt>
      <trkpt lat="46.22058" lon="6.31066">
        <ele>538</ele>
        <time>2020-02-23T15:52:30Z</time>
      </trkpt>
      <trkpt lat="46.2206" lon="6.31072">
        <ele>538.20001220703</ele>
        <time>2020-02-23T15:52:31Z</time>
      </trkpt>
      <trkpt lat="46.22074" lon="6.31111">
        <ele>538.79998779297</ele>
        <time>2020-02-23T15:52:37Z</time>
      </trkpt>
      <trkpt lat="46.22079" lon="6.31124">
        <ele>538.79998779297</ele>
        <time>2020-02-23T15:52:39Z</time>
      </trkpt>
      <trkpt lat="46.22081" lon="6.31131">
        <ele>538.79998779297</ele>
        <time>2020-02-23T15:52:40Z</time>
      </trkpt>
      <trkpt lat="46.22082" lon="6.31138">
        <ele>538.79998779297</ele>
        <time>2020-02-23T15:52:41Z</time>
      </trkpt>
      <trkpt lat="46.22085" lon="6.31152">
        <ele>539</ele>
        <time>2020-02-23T15:52:43Z</time>
      </trkpt>
      <trkpt lat="46.22087" lon="6.3116">
        <ele>539</ele>
        <time>2020-02-23T15:52:44Z</time>
      </trkpt>
      <trkpt lat="46.22088" lon="6.31166">
        <ele>538.79998779297</ele>
        <time>2020-02-23T15:52:45Z</time>
      </trkpt>
      <trkpt lat="46.22089" lon="6.31173">
        <ele>539</ele>
        <time>2020-02-23T15:52:46Z</time>
      </trkpt>
      <trkpt lat="46.2209" lon="6.3118">
        <ele>539</ele>
        <time>2020-02-23T15:52:47Z</time>
      </trkpt>
      <trkpt lat="46.22092" lon="6.31186">
        <ele>538.79998779297</ele>
        <time>2020-02-23T15:52:48Z</time>
      </trkpt>
      <trkpt lat="46.22093" lon="6.31192">
        <ele>539</ele>
        <time>2020-02-23T15:52:49Z</time>
      </trkpt>
      <trkpt lat="46.22094" lon="6.31197">
        <ele>539</ele>
        <time>2020-02-23T15:52:50Z</time>
      </trkpt>
      <trkpt lat="46.22096" lon="6.31203">
        <ele>539</ele>
        <time>2020-02-23T15:52:51Z</time>
      </trkpt>
      <trkpt lat="46.22098" lon="6.31208">
        <ele>539</ele>
        <time>2020-02-23T15:52:52Z</time>
      </trkpt>
      <trkpt lat="46.221" lon="6.31213">
        <ele>539</ele>
        <time>2020-02-23T15:52:53Z</time>
      </trkpt>
      <trkpt lat="46.22103" lon="6.31218">
        <ele>539</ele>
        <time>2020-02-23T15:52:54Z</time>
      </trkpt>
      <trkpt lat="46.22106" lon="6.31224">
        <ele>539.20001220703</ele>
        <time>2020-02-23T15:52:55Z</time>
      </trkpt>
      <trkpt lat="46.22132" lon="6.31261">
        <ele>540.20001220703</ele>
        <time>2020-02-23T15:53:02Z</time>
      </trkpt>
      <trkpt lat="46.2214" lon="6.31272">
        <ele>540.40002441406</ele>
        <time>2020-02-23T15:53:04Z</time>
      </trkpt>
      <trkpt lat="46.22144" lon="6.31277">
        <ele>540.20001220703</ele>
        <time>2020-02-23T15:53:05Z</time>
      </trkpt>
      <trkpt lat="46.22147" lon="6.31282">
        <ele>540.40002441406</ele>
        <time>2020-02-23T15:53:06Z</time>
      </trkpt>
      <trkpt lat="46.22151" lon="6.31287">
        <ele>540.40002441406</ele>
        <time>2020-02-23T15:53:07Z</time>
      </trkpt>
      <trkpt lat="46.22154" lon="6.31292">
        <ele>540.40002441406</ele>
        <time>2020-02-23T15:53:08Z</time>
      </trkpt>
      <trkpt lat="46.22157" lon="6.31296">
        <ele>540.40002441406</ele>
        <time>2020-02-23T15:53:09Z</time>
      </trkpt>
      <trkpt lat="46.2216" lon="6.313">
        <ele>540.40002441406</ele>
        <time>2020-02-23T15:53:10Z</time>
      </trkpt>
      <trkpt lat="46.22163" lon="6.31303">
        <ele>540.20001220703</ele>
        <time>2020-02-23T15:53:11Z</time>
      </trkpt>
      <trkpt lat="46.22166" lon="6.31307">
        <ele>540.20001220703</ele>
        <time>2020-02-23T15:53:12Z</time>
      </trkpt>
      <trkpt lat="46.22182" lon="6.31327">
        <ele>540.40002441406</ele>
        <time>2020-02-23T15:53:17Z</time>
      </trkpt>
      <trkpt lat="46.22202" lon="6.31353">
        <ele>540.59997558594</ele>
        <time>2020-02-23T15:53:23Z</time>
      </trkpt>
      <trkpt lat="46.22205" lon="6.31357">
        <ele>540.59997558594</ele>
        <time>2020-02-23T15:53:24Z</time>
      </trkpt>
      <trkpt lat="46.22209" lon="6.31361">
        <ele>540.59997558594</ele>
        <time>2020-02-23T15:53:25Z</time>
      </trkpt>
      <trkpt lat="46.22212" lon="6.31365">
        <ele>540.59997558594</ele>
        <time>2020-02-23T15:53:26Z</time>
      </trkpt>
      <trkpt lat="46.22215" lon="6.31369">
        <ele>540.59997558594</ele>
        <time>2020-02-23T15:53:27Z</time>
      </trkpt>
      <trkpt lat="46.22218" lon="6.31373">
        <ele>540.79998779297</ele>
        <time>2020-02-23T15:53:28Z</time>
      </trkpt>
      <trkpt lat="46.22221" lon="6.31377">
        <ele>540.79998779297</ele>
        <time>2020-02-23T15:53:29Z</time>
      </trkpt>
      <trkpt lat="46.22224" lon="6.3138">
        <ele>540.79998779297</ele>
        <time>2020-02-23T15:53:30Z</time>
      </trkpt>
      <trkpt lat="46.22227" lon="6.31384">
        <ele>541</ele>
        <time>2020-02-23T15:53:31Z</time>
      </trkpt>
      <trkpt lat="46.2223" lon="6.31387">
        <ele>540.79998779297</ele>
        <time>2020-02-23T15:53:32Z</time>
      </trkpt>
      <trkpt lat="46.22233" lon="6.31391">
        <ele>541</ele>
        <time>2020-02-23T15:53:33Z</time>
      </trkpt>
      <trkpt lat="46.22235" lon="6.31395">
        <ele>541</ele>
        <time>2020-02-23T15:53:34Z</time>
      </trkpt>
      <trkpt lat="46.22238" lon="6.31398">
        <ele>541.20001220703</ele>
        <time>2020-02-23T15:53:35Z</time>
      </trkpt>
      <trkpt lat="46.22241" lon="6.31401">
        <ele>541.40002441406</ele>
        <time>2020-02-23T15:53:36Z</time>
      </trkpt>
      <trkpt lat="46.22244" lon="6.31405">
        <ele>541.79998779297</ele>
        <time>2020-02-23T15:53:37Z</time>
      </trkpt>
      <trkpt lat="46.22247" lon="6.31408">
        <ele>541.79998779297</ele>
        <time>2020-02-23T15:53:38Z</time>
      </trkpt>
      <trkpt lat="46.2225" lon="6.31411">
        <ele>542</ele>
        <time>2020-02-23T15:53:39Z</time>
      </trkpt>
      <trkpt lat="46.22253" lon="6.31414">
        <ele>542.20001220703</ele>
        <time>2020-02-23T15:53:40Z</time>
      </trkpt>
      <trkpt lat="46.22257" lon="6.31417">
        <ele>542.40002441406</ele>
        <time>2020-02-23T15:53:41Z</time>
      </trkpt>
      <trkpt lat="46.2226" lon="6.3142">
        <ele>542.59997558594</ele>
        <time>2020-02-23T15:53:42Z</time>
      </trkpt>
      <trkpt lat="46.22264" lon="6.31423">
        <ele>542.59997558594</ele>
        <time>2020-02-23T15:53:43Z</time>
      </trkpt>
      <trkpt lat="46.22288" lon="6.3144">
        <ele>543.59997558594</ele>
        <time>2020-02-23T15:53:49Z</time>
      </trkpt>
      <trkpt lat="46.22293" lon="6.31442">
        <ele>543.79998779297</ele>
        <time>2020-02-23T15:53:50Z</time>
      </trkpt>
      <trkpt lat="46.22297" lon="6.31445">
        <ele>543.79998779297</ele>
        <time>2020-02-23T15:53:51Z</time>
      </trkpt>
      <trkpt lat="46.22301" lon="6.31446">
        <ele>543.79998779297</ele>
        <time>2020-02-23T15:53:52Z</time>
      </trkpt>
      <trkpt lat="46.22305" lon="6.31448">
        <ele>543.79998779297</ele>
        <time>2020-02-23T15:53:53Z</time>
      </trkpt>
      <trkpt lat="46.22309" lon="6.3145">
        <ele>544</ele>
        <time>2020-02-23T15:53:54Z</time>
      </trkpt>
      <trkpt lat="46.22317" lon="6.31451">
        <ele>544</ele>
        <time>2020-02-23T15:53:56Z</time>
      </trkpt>
      <trkpt lat="46.22351" lon="6.31456">
        <ele>543.79998779297</ele>
        <time>2020-02-23T15:54:03Z</time>
      </trkpt>
      <trkpt lat="46.22356" lon="6.31456">
        <ele>544</ele>
        <time>2020-02-23T15:54:04Z</time>
      </trkpt>
      <trkpt lat="46.2236" lon="6.31456">
        <ele>544</ele>
        <time>2020-02-23T15:54:05Z</time>
      </trkpt>
      <trkpt lat="46.22365" lon="6.31456">
        <ele>544</ele>
        <time>2020-02-23T15:54:06Z</time>
      </trkpt>
      <trkpt lat="46.22369" lon="6.31456">
        <ele>544</ele>
        <time>2020-02-23T15:54:07Z</time>
      </trkpt>
      <trkpt lat="46.22373" lon="6.31455">
        <ele>544.20001220703</ele>
        <time>2020-02-23T15:54:08Z</time>
      </trkpt>
      <trkpt lat="46.22377" lon="6.31455">
        <ele>544.20001220703</ele>
        <time>2020-02-23T15:54:09Z</time>
      </trkpt>
      <trkpt lat="46.22381" lon="6.31455">
        <ele>544.20001220703</ele>
        <time>2020-02-23T15:54:10Z</time>
      </trkpt>
      <trkpt lat="46.22397" lon="6.31453">
        <ele>544.20001220703</ele>
        <time>2020-02-23T15:54:14Z</time>
      </trkpt>
      <trkpt lat="46.22406" lon="6.31452">
        <ele>544.40002441406</ele>
        <time>2020-02-23T15:54:16Z</time>
      </trkpt>
      <trkpt lat="46.22411" lon="6.31452">
        <ele>544.40002441406</ele>
        <time>2020-02-23T15:54:17Z</time>
      </trkpt>
      <trkpt lat="46.22415" lon="6.31452">
        <ele>544.40002441406</ele>
        <time>2020-02-23T15:54:18Z</time>
      </trkpt>
      <trkpt lat="46.2242" lon="6.31452">
        <ele>544.59997558594</ele>
        <time>2020-02-23T15:54:19Z</time>
      </trkpt>
      <trkpt lat="46.22446" lon="6.31453">
        <ele>545.20001220703</ele>
        <time>2020-02-23T15:54:24Z</time>
      </trkpt>
      <trkpt lat="46.22452" lon="6.31454">
        <ele>545</ele>
        <time>2020-02-23T15:54:25Z</time>
      </trkpt>
      <trkpt lat="46.22457" lon="6.31454">
        <ele>545</ele>
        <time>2020-02-23T15:54:26Z</time>
      </trkpt>
      <trkpt lat="46.22462" lon="6.31454">
        <ele>545.20001220703</ele>
        <time>2020-02-23T15:54:27Z</time>
      </trkpt>
      <trkpt lat="46.22467" lon="6.31455">
        <ele>545.20001220703</ele>
        <time>2020-02-23T15:54:28Z</time>
      </trkpt>
      <trkpt lat="46.22471" lon="6.31455">
        <ele>545.20001220703</ele>
        <time>2020-02-23T15:54:29Z</time>
      </trkpt>
      <trkpt lat="46.22476" lon="6.31456">
        <ele>545.20001220703</ele>
        <time>2020-02-23T15:54:30Z</time>
      </trkpt>
      <trkpt lat="46.2249" lon="6.31457">
        <ele>545.40002441406</ele>
        <time>2020-02-23T15:54:33Z</time>
      </trkpt>
      <trkpt lat="46.22536" lon="6.31461">
        <ele>545.20001220703</ele>
        <time>2020-02-23T15:54:41Z</time>
      </trkpt>
      <trkpt lat="46.22547" lon="6.31463">
        <ele>545.20001220703</ele>
        <time>2020-02-23T15:54:43Z</time>
      </trkpt>
      <trkpt lat="46.22553" lon="6.31464">
        <ele>545</ele>
        <time>2020-02-23T15:54:44Z</time>
      </trkpt>
      <trkpt lat="46.22559" lon="6.31465">
        <ele>545</ele>
        <time>2020-02-23T15:54:45Z</time>
      </trkpt>
      <trkpt lat="46.22564" lon="6.31466">
        <ele>545</ele>
        <time>2020-02-23T15:54:46Z</time>
      </trkpt>
      <trkpt lat="46.22569" lon="6.31467">
        <ele>545.20001220703</ele>
        <time>2020-02-23T15:54:47Z</time>
      </trkpt>
      <trkpt lat="46.22574" lon="6.31468">
        <ele>545.20001220703</ele>
        <time>2020-02-23T15:54:48Z</time>
      </trkpt>
      <trkpt lat="46.22579" lon="6.31468">
        <ele>545</ele>
        <time>2020-02-23T15:54:49Z</time>
      </trkpt>
      <trkpt lat="46.22584" lon="6.31469">
        <ele>545</ele>
        <time>2020-02-23T15:54:50Z</time>
      </trkpt>
      <trkpt lat="46.22589" lon="6.3147">
        <ele>545</ele>
        <time>2020-02-23T15:54:51Z</time>
      </trkpt>
      <trkpt lat="46.22593" lon="6.31471">
        <ele>545.20001220703</ele>
        <time>2020-02-23T15:54:52Z</time>
      </trkpt>
      <trkpt lat="46.22598" lon="6.31471">
        <ele>545</ele>
        <time>2020-02-23T15:54:53Z</time>
      </trkpt>
      <trkpt lat="46.22602" lon="6.31472">
        <ele>545.20001220703</ele>
        <time>2020-02-23T15:54:54Z</time>
      </trkpt>
      <trkpt lat="46.22606" lon="6.31473">
        <ele>545.20001220703</ele>
        <time>2020-02-23T15:54:55Z</time>
      </trkpt>
      <trkpt lat="46.22611" lon="6.31473">
        <ele>545</ele>
        <time>2020-02-23T15:54:56Z</time>
      </trkpt>
      <trkpt lat="46.22615" lon="6.31474">
        <ele>545.20001220703</ele>
        <time>2020-02-23T15:54:57Z</time>
      </trkpt>
      <trkpt lat="46.22618" lon="6.31474">
        <ele>545</ele>
        <time>2020-02-23T15:54:58Z</time>
      </trkpt>
      <trkpt lat="46.22622" lon="6.31474">
        <ele>545.20001220703</ele>
        <time>2020-02-23T15:54:59Z</time>
      </trkpt>
      <trkpt lat="46.22626" lon="6.31474">
        <ele>545.20001220703</ele>
        <time>2020-02-23T15:55:00Z</time>
      </trkpt>
      <trkpt lat="46.22629" lon="6.31474">
        <ele>545.20001220703</ele>
        <time>2020-02-23T15:55:01Z</time>
      </trkpt>
      <trkpt lat="46.22632" lon="6.31475">
        <ele>545.20001220703</ele>
        <time>2020-02-23T15:55:02Z</time>
      </trkpt>
      <trkpt lat="46.22636" lon="6.31473">
        <ele>545.40002441406</ele>
        <time>2020-02-23T15:55:03Z</time>
      </trkpt>
      <trkpt lat="46.22639" lon="6.3147">
        <ele>545.20001220703</ele>
        <time>2020-02-23T15:55:04Z</time>
      </trkpt>
      <trkpt lat="46.22641" lon="6.31466">
        <ele>545.20001220703</ele>
        <time>2020-02-23T15:55:05Z</time>
      </trkpt>
      <trkpt lat="46.22643" lon="6.31461">
        <ele>545.40002441406</ele>
        <time>2020-02-23T15:55:06Z</time>
      </trkpt>
      <trkpt lat="46.22644" lon="6.31456">
        <ele>545.20001220703</ele>
        <time>2020-02-23T15:55:07Z</time>
      </trkpt>
      <trkpt lat="46.22645" lon="6.31443">
        <ele>545.20001220703</ele>
        <time>2020-02-23T15:55:09Z</time>
      </trkpt>
      <trkpt lat="46.22646" lon="6.31437">
        <ele>545.20001220703</ele>
        <time>2020-02-23T15:55:10Z</time>
      </trkpt>
      <trkpt lat="46.22648" lon="6.31414">
        <ele>545.20001220703</ele>
        <time>2020-02-23T15:55:13Z</time>
      </trkpt>
      <trkpt lat="46.22651" lon="6.31389">
        <ele>545</ele>
        <time>2020-02-23T15:55:16Z</time>
      </trkpt>
      <trkpt lat="46.22652" lon="6.3138">
        <ele>544.59997558594</ele>
        <time>2020-02-23T15:55:17Z</time>
      </trkpt>
      <trkpt lat="46.22653" lon="6.31372">
        <ele>544.59997558594</ele>
        <time>2020-02-23T15:55:18Z</time>
      </trkpt>
      <trkpt lat="46.22654" lon="6.31364">
        <ele>544</ele>
        <time>2020-02-23T15:55:19Z</time>
      </trkpt>
      <trkpt lat="46.22656" lon="6.31356">
        <ele>543.79998779297</ele>
        <time>2020-02-23T15:55:20Z</time>
      </trkpt>
      <trkpt lat="46.22657" lon="6.31349">
        <ele>543.59997558594</ele>
        <time>2020-02-23T15:55:21Z</time>
      </trkpt>
      <trkpt lat="46.22659" lon="6.31342">
        <ele>543.59997558594</ele>
        <time>2020-02-23T15:55:22Z</time>
      </trkpt>
      <trkpt lat="46.22661" lon="6.31337">
        <ele>543.59997558594</ele>
        <time>2020-02-23T15:55:23Z</time>
      </trkpt>
      <trkpt lat="46.22664" lon="6.31331">
        <ele>543.59997558594</ele>
        <time>2020-02-23T15:55:24Z</time>
      </trkpt>
      <trkpt lat="46.22667" lon="6.31326">
        <ele>543.59997558594</ele>
        <time>2020-02-23T15:55:25Z</time>
      </trkpt>
      <trkpt lat="46.22669" lon="6.31321">
        <ele>543.40002441406</ele>
        <time>2020-02-23T15:55:26Z</time>
      </trkpt>
      <trkpt lat="46.2267" lon="6.31315">
        <ele>543.59997558594</ele>
        <time>2020-02-23T15:55:27Z</time>
      </trkpt>
      <trkpt lat="46.22671" lon="6.31309">
        <ele>543.59997558594</ele>
        <time>2020-02-23T15:55:28Z</time>
      </trkpt>
      <trkpt lat="46.22672" lon="6.31303">
        <ele>543.59997558594</ele>
        <time>2020-02-23T15:55:29Z</time>
      </trkpt>
      <trkpt lat="46.22672" lon="6.31297">
        <ele>543.59997558594</ele>
        <time>2020-02-23T15:55:30Z</time>
      </trkpt>
      <trkpt lat="46.22672" lon="6.3129">
        <ele>543.59997558594</ele>
        <time>2020-02-23T15:55:31Z</time>
      </trkpt>
      <trkpt lat="46.22673" lon="6.31284">
        <ele>543.79998779297</ele>
        <time>2020-02-23T15:55:32Z</time>
      </trkpt>
      <trkpt lat="46.22674" lon="6.31277">
        <ele>544</ele>
        <time>2020-02-23T15:55:33Z</time>
      </trkpt>
      <trkpt lat="46.22675" lon="6.31271">
        <ele>544.20001220703</ele>
        <time>2020-02-23T15:55:34Z</time>
      </trkpt>
      <trkpt lat="46.22676" lon="6.31265">
        <ele>544.59997558594</ele>
        <time>2020-02-23T15:55:35Z</time>
      </trkpt>
      <trkpt lat="46.22678" lon="6.31259">
        <ele>544.79998779297</ele>
        <time>2020-02-23T15:55:36Z</time>
      </trkpt>
      <trkpt lat="46.22679" lon="6.31254">
        <ele>544.59997558594</ele>
        <time>2020-02-23T15:55:37Z</time>
      </trkpt>
      <trkpt lat="46.22682" lon="6.31242">
        <ele>544.79998779297</ele>
        <time>2020-02-23T15:55:39Z</time>
      </trkpt>
      <trkpt lat="46.22683" lon="6.31237">
        <ele>544.79998779297</ele>
        <time>2020-02-23T15:55:40Z</time>
      </trkpt>
      <trkpt lat="46.22685" lon="6.31231">
        <ele>544.79998779297</ele>
        <time>2020-02-23T15:55:41Z</time>
      </trkpt>
      <trkpt lat="46.22689" lon="6.31219">
        <ele>544.79998779297</ele>
        <time>2020-02-23T15:55:43Z</time>
      </trkpt>
      <trkpt lat="46.22691" lon="6.31214">
        <ele>545</ele>
        <time>2020-02-23T15:55:44Z</time>
      </trkpt>
      <trkpt lat="46.22694" lon="6.31209">
        <ele>545</ele>
        <time>2020-02-23T15:55:45Z</time>
      </trkpt>
      <trkpt lat="46.22697" lon="6.31205">
        <ele>545.20001220703</ele>
        <time>2020-02-23T15:55:46Z</time>
      </trkpt>
      <trkpt lat="46.22699" lon="6.31202">
        <ele>545</ele>
        <time>2020-02-23T15:55:47Z</time>
      </trkpt>
      <trkpt lat="46.22702" lon="6.31197">
        <ele>545.40002441406</ele>
        <time>2020-02-23T15:55:48Z</time>
      </trkpt>
      <trkpt lat="46.22703" lon="6.31193">
        <ele>545.20001220703</ele>
        <time>2020-02-23T15:55:49Z</time>
      </trkpt>
      <trkpt lat="46.22707" lon="6.31183">
        <ele>545.40002441406</ele>
        <time>2020-02-23T15:55:51Z</time>
      </trkpt>
      <trkpt lat="46.22709" lon="6.31177">
        <ele>545.40002441406</ele>
        <time>2020-02-23T15:55:52Z</time>
      </trkpt>
      <trkpt lat="46.22717" lon="6.31162">
        <ele>545.20001220703</ele>
        <time>2020-02-23T15:55:55Z</time>
      </trkpt>
      <trkpt lat="46.22718" lon="6.31157">
        <ele>545.20001220703</ele>
        <time>2020-02-23T15:55:56Z</time>
      </trkpt>
      <trkpt lat="46.22719" lon="6.3115">
        <ele>545.20001220703</ele>
        <time>2020-02-23T15:55:57Z</time>
      </trkpt>
      <trkpt lat="46.22719" lon="6.31143">
        <ele>545.20001220703</ele>
        <time>2020-02-23T15:55:58Z</time>
      </trkpt>
      <trkpt lat="46.22718" lon="6.31136">
        <ele>545</ele>
        <time>2020-02-23T15:55:59Z</time>
      </trkpt>
      <trkpt lat="46.22715" lon="6.3112">
        <ele>544.59997558594</ele>
        <time>2020-02-23T15:56:01Z</time>
      </trkpt>
      <trkpt lat="46.22712" lon="6.31102">
        <ele>544</ele>
        <time>2020-02-23T15:56:03Z</time>
      </trkpt>
      <trkpt lat="46.2271" lon="6.31093">
        <ele>544</ele>
        <time>2020-02-23T15:56:04Z</time>
      </trkpt>
      <trkpt lat="46.22707" lon="6.31073">
        <ele>543.40002441406</ele>
        <time>2020-02-23T15:56:06Z</time>
      </trkpt>
      <trkpt lat="46.22704" lon="6.31051">
        <ele>542.40002441406</ele>
        <time>2020-02-23T15:56:08Z</time>
      </trkpt>
      <trkpt lat="46.227" lon="6.31029">
        <ele>541.20001220703</ele>
        <time>2020-02-23T15:56:10Z</time>
      </trkpt>
      <trkpt lat="46.22699" lon="6.31017">
        <ele>540.59997558594</ele>
        <time>2020-02-23T15:56:11Z</time>
      </trkpt>
      <trkpt lat="46.22697" lon="6.31006">
        <ele>539.79998779297</ele>
        <time>2020-02-23T15:56:12Z</time>
      </trkpt>
      <trkpt lat="46.22696" lon="6.30994">
        <ele>539.20001220703</ele>
        <time>2020-02-23T15:56:13Z</time>
      </trkpt>
      <trkpt lat="46.22693" lon="6.30969">
        <ele>537.59997558594</ele>
        <time>2020-02-23T15:56:15Z</time>
      </trkpt>
      <trkpt lat="46.22691" lon="6.30944">
        <ele>536.40002441406</ele>
        <time>2020-02-23T15:56:17Z</time>
      </trkpt>
      <trkpt lat="46.2269" lon="6.30932">
        <ele>536</ele>
        <time>2020-02-23T15:56:18Z</time>
      </trkpt>
      <trkpt lat="46.2269" lon="6.30919">
        <ele>535.40002441406</ele>
        <time>2020-02-23T15:56:19Z</time>
      </trkpt>
      <trkpt lat="46.2269" lon="6.30867">
        <ele>531.40002441406</ele>
        <time>2020-02-23T15:56:23Z</time>
      </trkpt>
      <trkpt lat="46.22691" lon="6.30854">
        <ele>530.59997558594</ele>
        <time>2020-02-23T15:56:24Z</time>
      </trkpt>
      <trkpt lat="46.22693" lon="6.30842">
        <ele>529.79998779297</ele>
        <time>2020-02-23T15:56:25Z</time>
      </trkpt>
      <trkpt lat="46.22696" lon="6.3083">
        <ele>529.40002441406</ele>
        <time>2020-02-23T15:56:26Z</time>
      </trkpt>
      <trkpt lat="46.227" lon="6.30819">
        <ele>529.20001220703</ele>
        <time>2020-02-23T15:56:27Z</time>
      </trkpt>
      <trkpt lat="46.22704" lon="6.3081">
        <ele>529.20001220703</ele>
        <time>2020-02-23T15:56:28Z</time>
      </trkpt>
      <trkpt lat="46.22709" lon="6.308">
        <ele>528.20001220703</ele>
        <time>2020-02-23T15:56:29Z</time>
      </trkpt>
      <trkpt lat="46.22713" lon="6.30792">
        <ele>527.59997558594</ele>
        <time>2020-02-23T15:56:30Z</time>
      </trkpt>
      <trkpt lat="46.22718" lon="6.30783">
        <ele>527.20001220703</ele>
        <time>2020-02-23T15:56:31Z</time>
      </trkpt>
      <trkpt lat="46.22722" lon="6.30776">
        <ele>526.79998779297</ele>
        <time>2020-02-23T15:56:32Z</time>
      </trkpt>
      <trkpt lat="46.22726" lon="6.30768">
        <ele>527</ele>
        <time>2020-02-23T15:56:33Z</time>
      </trkpt>
      <trkpt lat="46.22729" lon="6.30761">
        <ele>526.79998779297</ele>
        <time>2020-02-23T15:56:34Z</time>
      </trkpt>
      <trkpt lat="46.22733" lon="6.30754">
        <ele>527</ele>
        <time>2020-02-23T15:56:35Z</time>
      </trkpt>
      <trkpt lat="46.22735" lon="6.30748">
        <ele>526.79998779297</ele>
        <time>2020-02-23T15:56:36Z</time>
      </trkpt>
      <trkpt lat="46.22738" lon="6.30742">
        <ele>526.79998779297</ele>
        <time>2020-02-23T15:56:37Z</time>
      </trkpt>
      <trkpt lat="46.22741" lon="6.30736">
        <ele>526.79998779297</ele>
        <time>2020-02-23T15:56:38Z</time>
      </trkpt>
      <trkpt lat="46.22743" lon="6.30731">
        <ele>526.79998779297</ele>
        <time>2020-02-23T15:56:39Z</time>
      </trkpt>
      <trkpt lat="46.22745" lon="6.30726">
        <ele>526.79998779297</ele>
        <time>2020-02-23T15:56:40Z</time>
      </trkpt>
      <trkpt lat="46.22748" lon="6.30721">
        <ele>527.20001220703</ele>
        <time>2020-02-23T15:56:41Z</time>
      </trkpt>
      <trkpt lat="46.2275" lon="6.30717">
        <ele>527.40002441406</ele>
        <time>2020-02-23T15:56:42Z</time>
      </trkpt>
      <trkpt lat="46.22752" lon="6.30712">
        <ele>528</ele>
        <time>2020-02-23T15:56:43Z</time>
      </trkpt>
      <trkpt lat="46.22753" lon="6.30707">
        <ele>528.20001220703</ele>
        <time>2020-02-23T15:56:44Z</time>
      </trkpt>
      <trkpt lat="46.22755" lon="6.30703">
        <ele>528.40002441406</ele>
        <time>2020-02-23T15:56:45Z</time>
      </trkpt>
      <trkpt lat="46.22757" lon="6.30698">
        <ele>528.79998779297</ele>
        <time>2020-02-23T15:56:46Z</time>
      </trkpt>
      <trkpt lat="46.22761" lon="6.30688">
        <ele>529.40002441406</ele>
        <time>2020-02-23T15:56:48Z</time>
      </trkpt>
      <trkpt lat="46.22767" lon="6.30673">
        <ele>529.59997558594</ele>
        <time>2020-02-23T15:56:51Z</time>
      </trkpt>
      <trkpt lat="46.22777" lon="6.30645">
        <ele>530</ele>
        <time>2020-02-23T15:56:56Z</time>
      </trkpt>
      <trkpt lat="46.22784" lon="6.30626">
        <ele>530</ele>
        <time>2020-02-23T15:56:59Z</time>
      </trkpt>
      <trkpt lat="46.22789" lon="6.30612">
        <ele>530</ele>
        <time>2020-02-23T15:57:01Z</time>
      </trkpt>
      <trkpt lat="46.2279" lon="6.30604">
        <ele>529.79998779297</ele>
        <time>2020-02-23T15:57:02Z</time>
      </trkpt>
      <trkpt lat="46.22789" lon="6.30596">
        <ele>529.79998779297</ele>
        <time>2020-02-23T15:57:03Z</time>
      </trkpt>
      <trkpt lat="46.22787" lon="6.30588">
        <ele>529.79998779297</ele>
        <time>2020-02-23T15:57:04Z</time>
      </trkpt>
      <trkpt lat="46.22783" lon="6.3058">
        <ele>529.20001220703</ele>
        <time>2020-02-23T15:57:05Z</time>
      </trkpt>
      <trkpt lat="46.22779" lon="6.30573">
        <ele>529.20001220703</ele>
        <time>2020-02-23T15:57:06Z</time>
      </trkpt>
      <trkpt lat="46.22768" lon="6.3056">
        <ele>528.79998779297</ele>
        <time>2020-02-23T15:57:08Z</time>
      </trkpt>
      <trkpt lat="46.22756" lon="6.30547">
        <ele>528</ele>
        <time>2020-02-23T15:57:10Z</time>
      </trkpt>
      <trkpt lat="46.22751" lon="6.30541">
        <ele>527.40002441406</ele>
        <time>2020-02-23T15:57:11Z</time>
      </trkpt>
      <trkpt lat="46.22745" lon="6.30535">
        <ele>526.40002441406</ele>
        <time>2020-02-23T15:57:12Z</time>
      </trkpt>
      <trkpt lat="46.22739" lon="6.3053">
        <ele>524.79998779297</ele>
        <time>2020-02-23T15:57:13Z</time>
      </trkpt>
      <trkpt lat="46.22732" lon="6.30525">
        <ele>523.20001220703</ele>
        <time>2020-02-23T15:57:14Z</time>
      </trkpt>
      <trkpt lat="46.22705" lon="6.3051">
        <ele>521</ele>
        <time>2020-02-23T15:57:18Z</time>
      </trkpt>
      <trkpt lat="46.2269" lon="6.30505">
        <ele>520</ele>
        <time>2020-02-23T15:57:20Z</time>
      </trkpt>
      <trkpt lat="46.22674" lon="6.30502">
        <ele>519.20001220703</ele>
        <time>2020-02-23T15:57:22Z</time>
      </trkpt>
      <trkpt lat="46.22666" lon="6.305">
        <ele>518.79998779297</ele>
        <time>2020-02-23T15:57:23Z</time>
      </trkpt>
      <trkpt lat="46.22657" lon="6.30499">
        <ele>518.59997558594</ele>
        <time>2020-02-23T15:57:24Z</time>
      </trkpt>
      <trkpt lat="46.22638" lon="6.30495">
        <ele>518.40002441406</ele>
        <time>2020-02-23T15:57:26Z</time>
      </trkpt>
      <trkpt lat="46.22628" lon="6.30492">
        <ele>518.20001220703</ele>
        <time>2020-02-23T15:57:27Z</time>
      </trkpt>
      <trkpt lat="46.22618" lon="6.30488">
        <ele>517.79998779297</ele>
        <time>2020-02-23T15:57:28Z</time>
      </trkpt>
      <trkpt lat="46.22609" lon="6.30481">
        <ele>517.20001220703</ele>
        <time>2020-02-23T15:57:29Z</time>
      </trkpt>
      <trkpt lat="46.226" lon="6.30472">
        <ele>516.59997558594</ele>
        <time>2020-02-23T15:57:30Z</time>
      </trkpt>
      <trkpt lat="46.22584" lon="6.30452">
        <ele>515</ele>
        <time>2020-02-23T15:57:32Z</time>
      </trkpt>
      <trkpt lat="46.22576" lon="6.30442">
        <ele>513.59997558594</ele>
        <time>2020-02-23T15:57:33Z</time>
      </trkpt>
      <trkpt lat="46.22559" lon="6.30423">
        <ele>511.79998779297</ele>
        <time>2020-02-23T15:57:35Z</time>
      </trkpt>
      <trkpt lat="46.2255" lon="6.30414">
        <ele>511</ele>
        <time>2020-02-23T15:57:36Z</time>
      </trkpt>
      <trkpt lat="46.22543" lon="6.30406">
        <ele>510.39999389648</ele>
        <time>2020-02-23T15:57:37Z</time>
      </trkpt>
      <trkpt lat="46.22536" lon="6.30399">
        <ele>509.20001220703</ele>
        <time>2020-02-23T15:57:38Z</time>
      </trkpt>
      <trkpt lat="46.22529" lon="6.30392">
        <ele>508.60000610352</ele>
        <time>2020-02-23T15:57:39Z</time>
      </trkpt>
      <trkpt lat="46.22522" lon="6.30384">
        <ele>508</ele>
        <time>2020-02-23T15:57:40Z</time>
      </trkpt>
      <trkpt lat="46.22516" lon="6.30376">
        <ele>508</ele>
        <time>2020-02-23T15:57:41Z</time>
      </trkpt>
      <trkpt lat="46.2251" lon="6.30366">
        <ele>507.20001220703</ele>
        <time>2020-02-23T15:57:42Z</time>
      </trkpt>
      <trkpt lat="46.22505" lon="6.30355">
        <ele>505.79998779297</ele>
        <time>2020-02-23T15:57:43Z</time>
      </trkpt>
      <trkpt lat="46.22497" lon="6.30332">
        <ele>504.60000610352</ele>
        <time>2020-02-23T15:57:45Z</time>
      </trkpt>
      <trkpt lat="46.22492" lon="6.30321">
        <ele>504.20001220703</ele>
        <time>2020-02-23T15:57:46Z</time>
      </trkpt>
      <trkpt lat="46.22488" lon="6.3031">
        <ele>503.60000610352</ele>
        <time>2020-02-23T15:57:47Z</time>
      </trkpt>
      <trkpt lat="46.22484" lon="6.30298">
        <ele>503</ele>
        <time>2020-02-23T15:57:48Z</time>
      </trkpt>
      <trkpt lat="46.22481" lon="6.30286">
        <ele>502</ele>
        <time>2020-02-23T15:57:49Z</time>
      </trkpt>
      <trkpt lat="46.2248" lon="6.30274">
        <ele>501.20001220703</ele>
        <time>2020-02-23T15:57:50Z</time>
      </trkpt>
      <trkpt lat="46.22479" lon="6.30262">
        <ele>500.60000610352</ele>
        <time>2020-02-23T15:57:51Z</time>
      </trkpt>
      <trkpt lat="46.22478" lon="6.3025">
        <ele>500</ele>
        <time>2020-02-23T15:57:52Z</time>
      </trkpt>
      <trkpt lat="46.22478" lon="6.30239">
        <ele>499.60000610352</ele>
        <time>2020-02-23T15:57:53Z</time>
      </trkpt>
      <trkpt lat="46.22478" lon="6.30228">
        <ele>499.20001220703</ele>
        <time>2020-02-23T15:57:54Z</time>
      </trkpt>
      <trkpt lat="46.22478" lon="6.30216">
        <ele>498.79998779297</ele>
        <time>2020-02-23T15:57:55Z</time>
      </trkpt>
      <trkpt lat="46.22479" lon="6.30205">
        <ele>498.60000610352</ele>
        <time>2020-02-23T15:57:56Z</time>
      </trkpt>
      <trkpt lat="46.2248" lon="6.30195">
        <ele>498.60000610352</ele>
        <time>2020-02-23T15:57:57Z</time>
      </trkpt>
      <trkpt lat="46.22483" lon="6.30185">
        <ele>498.39999389648</ele>
        <time>2020-02-23T15:57:58Z</time>
      </trkpt>
      <trkpt lat="46.22485" lon="6.30175">
        <ele>498.39999389648</ele>
        <time>2020-02-23T15:57:59Z</time>
      </trkpt>
      <trkpt lat="46.22488" lon="6.30166">
        <ele>498.39999389648</ele>
        <time>2020-02-23T15:58:00Z</time>
      </trkpt>
      <trkpt lat="46.2249" lon="6.30157">
        <ele>498.20001220703</ele>
        <time>2020-02-23T15:58:01Z</time>
      </trkpt>
      <trkpt lat="46.22492" lon="6.30149">
        <ele>498</ele>
        <time>2020-02-23T15:58:02Z</time>
      </trkpt>
      <trkpt lat="46.22493" lon="6.3014">
        <ele>498.20001220703</ele>
        <time>2020-02-23T15:58:03Z</time>
      </trkpt>
      <trkpt lat="46.22494" lon="6.30131">
        <ele>498</ele>
        <time>2020-02-23T15:58:04Z</time>
      </trkpt>
      <trkpt lat="46.225" lon="6.30086">
        <ele>497.60000610352</ele>
        <time>2020-02-23T15:58:09Z</time>
      </trkpt>
      <trkpt lat="46.22503" lon="6.30057">
        <ele>497.60000610352</ele>
        <time>2020-02-23T15:58:12Z</time>
      </trkpt>
      <trkpt lat="46.22504" lon="6.30047">
        <ele>497.39999389648</ele>
        <time>2020-02-23T15:58:13Z</time>
      </trkpt>
      <trkpt lat="46.22504" lon="6.30038">
        <ele>497.20001220703</ele>
        <time>2020-02-23T15:58:14Z</time>
      </trkpt>
      <trkpt lat="46.22505" lon="6.30029">
        <ele>497</ele>
        <time>2020-02-23T15:58:15Z</time>
      </trkpt>
      <trkpt lat="46.22506" lon="6.3002">
        <ele>497</ele>
        <time>2020-02-23T15:58:16Z</time>
      </trkpt>
      <trkpt lat="46.22507" lon="6.30012">
        <ele>496.79998779297</ele>
        <time>2020-02-23T15:58:17Z</time>
      </trkpt>
      <trkpt lat="46.22507" lon="6.30004">
        <ele>496.79998779297</ele>
        <time>2020-02-23T15:58:18Z</time>
      </trkpt>
      <trkpt lat="46.22509" lon="6.29996">
        <ele>496.60000610352</ele>
        <time>2020-02-23T15:58:19Z</time>
      </trkpt>
      <trkpt lat="46.2251" lon="6.29988">
        <ele>496.20001220703</ele>
        <time>2020-02-23T15:58:20Z</time>
      </trkpt>
      <trkpt lat="46.22511" lon="6.29981">
        <ele>496</ele>
        <time>2020-02-23T15:58:21Z</time>
      </trkpt>
      <trkpt lat="46.22513" lon="6.29974">
        <ele>495.79998779297</ele>
        <time>2020-02-23T15:58:22Z</time>
      </trkpt>
      <trkpt lat="46.22514" lon="6.29967">
        <ele>495.79998779297</ele>
        <time>2020-02-23T15:58:23Z</time>
      </trkpt>
      <trkpt lat="46.22515" lon="6.29961">
        <ele>495.79998779297</ele>
        <time>2020-02-23T15:58:24Z</time>
      </trkpt>
      <trkpt lat="46.22516" lon="6.29956">
        <ele>495.79998779297</ele>
        <time>2020-02-23T15:58:25Z</time>
      </trkpt>
      <trkpt lat="46.22517" lon="6.29951">
        <ele>495.79998779297</ele>
        <time>2020-02-23T15:58:26Z</time>
      </trkpt>
      <trkpt lat="46.22517" lon="6.29946">
        <ele>495.79998779297</ele>
        <time>2020-02-23T15:58:27Z</time>
      </trkpt>
      <trkpt lat="46.22517" lon="6.29941">
        <ele>495.79998779297</ele>
        <time>2020-02-23T15:58:28Z</time>
      </trkpt>
      <trkpt lat="46.22517" lon="6.29936">
        <ele>495.79998779297</ele>
        <time>2020-02-23T15:58:29Z</time>
      </trkpt>
      <trkpt lat="46.22517" lon="6.29932">
        <ele>495.79998779297</ele>
        <time>2020-02-23T15:58:30Z</time>
      </trkpt>
      <trkpt lat="46.22517" lon="6.29927">
        <ele>495.79998779297</ele>
        <time>2020-02-23T15:58:31Z</time>
      </trkpt>
      <trkpt lat="46.22516" lon="6.29922">
        <ele>496</ele>
        <time>2020-02-23T15:58:32Z</time>
      </trkpt>
      <trkpt lat="46.22515" lon="6.29917">
        <ele>496</ele>
        <time>2020-02-23T15:58:33Z</time>
      </trkpt>
      <trkpt lat="46.22514" lon="6.29912">
        <ele>496</ele>
        <time>2020-02-23T15:58:34Z</time>
      </trkpt>
      <trkpt lat="46.22512" lon="6.29908">
        <ele>496.20001220703</ele>
        <time>2020-02-23T15:58:35Z</time>
      </trkpt>
      <trkpt lat="46.22511" lon="6.29904">
        <ele>496.39999389648</ele>
        <time>2020-02-23T15:58:36Z</time>
      </trkpt>
      <trkpt lat="46.2251" lon="6.299">
        <ele>496.39999389648</ele>
        <time>2020-02-23T15:58:37Z</time>
      </trkpt>
      <trkpt lat="46.22508" lon="6.29896">
        <ele>496.39999389648</ele>
        <time>2020-02-23T15:58:38Z</time>
      </trkpt>
      <trkpt lat="46.22507" lon="6.29892">
        <ele>496.39999389648</ele>
        <time>2020-02-23T15:58:39Z</time>
      </trkpt>
      <trkpt lat="46.22506" lon="6.29888">
        <ele>496.39999389648</ele>
        <time>2020-02-23T15:58:40Z</time>
      </trkpt>
      <trkpt lat="46.22505" lon="6.29884">
        <ele>496.79998779297</ele>
        <time>2020-02-23T15:58:41Z</time>
      </trkpt>
      <trkpt lat="46.22503" lon="6.29879">
        <ele>496.79998779297</ele>
        <time>2020-02-23T15:58:42Z</time>
      </trkpt>
      <trkpt lat="46.22502" lon="6.29875">
        <ele>496.79998779297</ele>
        <time>2020-02-23T15:58:43Z</time>
      </trkpt>
      <trkpt lat="46.22501" lon="6.29871">
        <ele>496.79998779297</ele>
        <time>2020-02-23T15:58:44Z</time>
      </trkpt>
      <trkpt lat="46.22499" lon="6.29866">
        <ele>497</ele>
        <time>2020-02-23T15:58:45Z</time>
      </trkpt>
      <trkpt lat="46.22498" lon="6.29862">
        <ele>497.20001220703</ele>
        <time>2020-02-23T15:58:46Z</time>
      </trkpt>
      <trkpt lat="46.22497" lon="6.29857">
        <ele>497.60000610352</ele>
        <time>2020-02-23T15:58:47Z</time>
      </trkpt>
      <trkpt lat="46.22495" lon="6.29853">
        <ele>497.79998779297</ele>
        <time>2020-02-23T15:58:48Z</time>
      </trkpt>
      <trkpt lat="46.22494" lon="6.29849">
        <ele>498.39999389648</ele>
        <time>2020-02-23T15:58:49Z</time>
      </trkpt>
      <trkpt lat="46.22492" lon="6.29845">
        <ele>498.39999389648</ele>
        <time>2020-02-23T15:58:50Z</time>
      </trkpt>
      <trkpt lat="46.22491" lon="6.2984">
        <ele>498.60000610352</ele>
        <time>2020-02-23T15:58:51Z</time>
      </trkpt>
      <trkpt lat="46.2249" lon="6.29836">
        <ele>498.60000610352</ele>
        <time>2020-02-23T15:58:52Z</time>
      </trkpt>
      <trkpt lat="46.22488" lon="6.29832">
        <ele>498.60000610352</ele>
        <time>2020-02-23T15:58:53Z</time>
      </trkpt>
      <trkpt lat="46.22487" lon="6.29828">
        <ele>498.60000610352</ele>
        <time>2020-02-23T15:58:54Z</time>
      </trkpt>
      <trkpt lat="46.22486" lon="6.29825">
        <ele>499</ele>
        <time>2020-02-23T15:58:55Z</time>
      </trkpt>
      <trkpt lat="46.22486" lon="6.29822">
        <ele>499.20001220703</ele>
        <time>2020-02-23T15:58:56Z</time>
      </trkpt>
      <trkpt lat="46.22485" lon="6.29819">
        <ele>499.20001220703</ele>
        <time>2020-02-23T15:58:57Z</time>
      </trkpt>
      <trkpt lat="46.22484" lon="6.29816">
        <ele>499.60000610352</ele>
        <time>2020-02-23T15:58:58Z</time>
      </trkpt>
      <trkpt lat="46.22483" lon="6.29813">
        <ele>499.79998779297</ele>
        <time>2020-02-23T15:58:59Z</time>
      </trkpt>
      <trkpt lat="46.22482" lon="6.29809">
        <ele>500.20001220703</ele>
        <time>2020-02-23T15:59:00Z</time>
      </trkpt>
      <trkpt lat="46.2248" lon="6.29805">
        <ele>500.39999389648</ele>
        <time>2020-02-23T15:59:01Z</time>
      </trkpt>
      <trkpt lat="46.22479" lon="6.29801">
        <ele>500.79998779297</ele>
        <time>2020-02-23T15:59:02Z</time>
      </trkpt>
      <trkpt lat="46.22478" lon="6.29797">
        <ele>501</ele>
        <time>2020-02-23T15:59:03Z</time>
      </trkpt>
      <trkpt lat="46.22477" lon="6.29794">
        <ele>501.20001220703</ele>
        <time>2020-02-23T15:59:04Z</time>
      </trkpt>
      <trkpt lat="46.22476" lon="6.2979">
        <ele>501.39999389648</ele>
        <time>2020-02-23T15:59:05Z</time>
      </trkpt>
      <trkpt lat="46.22475" lon="6.29786">
        <ele>501.60000610352</ele>
        <time>2020-02-23T15:59:06Z</time>
      </trkpt>
      <trkpt lat="46.22474" lon="6.29782">
        <ele>501.79998779297</ele>
        <time>2020-02-23T15:59:07Z</time>
      </trkpt>
      <trkpt lat="46.22473" lon="6.29778">
        <ele>501.79998779297</ele>
        <time>2020-02-23T15:59:08Z</time>
      </trkpt>
      <trkpt lat="46.22471" lon="6.29774">
        <ele>502</ele>
        <time>2020-02-23T15:59:09Z</time>
      </trkpt>
      <trkpt lat="46.2247" lon="6.29771">
        <ele>502</ele>
        <time>2020-02-23T15:59:10Z</time>
      </trkpt>
      <trkpt lat="46.22469" lon="6.29767">
        <ele>502</ele>
        <time>2020-02-23T15:59:11Z</time>
      </trkpt>
      <trkpt lat="46.22468" lon="6.29763">
        <ele>502.39999389648</ele>
        <time>2020-02-23T15:59:12Z</time>
      </trkpt>
      <trkpt lat="46.22467" lon="6.2976">
        <ele>502.39999389648</ele>
        <time>2020-02-23T15:59:13Z</time>
      </trkpt>
      <trkpt lat="46.22466" lon="6.29756">
        <ele>502.60000610352</ele>
        <time>2020-02-23T15:59:14Z</time>
      </trkpt>
      <trkpt lat="46.22464" lon="6.29753">
        <ele>502.60000610352</ele>
        <time>2020-02-23T15:59:15Z</time>
      </trkpt>
      <trkpt lat="46.22463" lon="6.2975">
        <ele>502.79998779297</ele>
        <time>2020-02-23T15:59:16Z</time>
      </trkpt>
      <trkpt lat="46.22463" lon="6.29746">
        <ele>503</ele>
        <time>2020-02-23T15:59:17Z</time>
      </trkpt>
      <trkpt lat="46.22462" lon="6.29743">
        <ele>503</ele>
        <time>2020-02-23T15:59:18Z</time>
      </trkpt>
      <trkpt lat="46.22461" lon="6.29739">
        <ele>503</ele>
        <time>2020-02-23T15:59:19Z</time>
      </trkpt>
      <trkpt lat="46.2246" lon="6.29736">
        <ele>503.20001220703</ele>
        <time>2020-02-23T15:59:20Z</time>
      </trkpt>
      <trkpt lat="46.22459" lon="6.29732">
        <ele>503.20001220703</ele>
        <time>2020-02-23T15:59:21Z</time>
      </trkpt>
      <trkpt lat="46.22458" lon="6.29729">
        <ele>503.39999389648</ele>
        <time>2020-02-23T15:59:22Z</time>
      </trkpt>
      <trkpt lat="46.22457" lon="6.29726">
        <ele>503.39999389648</ele>
        <time>2020-02-23T15:59:23Z</time>
      </trkpt>
      <trkpt lat="46.22456" lon="6.29723">
        <ele>503.39999389648</ele>
        <time>2020-02-23T15:59:24Z</time>
      </trkpt>
      <trkpt lat="46.22455" lon="6.2972">
        <ele>503.60000610352</ele>
        <time>2020-02-23T15:59:25Z</time>
      </trkpt>
      <trkpt lat="46.22454" lon="6.29716">
        <ele>503.79998779297</ele>
        <time>2020-02-23T15:59:26Z</time>
      </trkpt>
      <trkpt lat="46.22453" lon="6.29712">
        <ele>503.79998779297</ele>
        <time>2020-02-23T15:59:27Z</time>
      </trkpt>
      <trkpt lat="46.22452" lon="6.29709">
        <ele>504</ele>
        <time>2020-02-23T15:59:28Z</time>
      </trkpt>
      <trkpt lat="46.22451" lon="6.29705">
        <ele>504.39999389648</ele>
        <time>2020-02-23T15:59:29Z</time>
      </trkpt>
      <trkpt lat="46.2245" lon="6.29702">
        <ele>504.39999389648</ele>
        <time>2020-02-23T15:59:30Z</time>
      </trkpt>
      <trkpt lat="46.22449" lon="6.29699">
        <ele>504.60000610352</ele>
        <time>2020-02-23T15:59:31Z</time>
      </trkpt>
      <trkpt lat="46.22448" lon="6.29696">
        <ele>504.79998779297</ele>
        <time>2020-02-23T15:59:32Z</time>
      </trkpt>
      <trkpt lat="46.22447" lon="6.29693">
        <ele>504.79998779297</ele>
        <time>2020-02-23T15:59:33Z</time>
      </trkpt>
      <trkpt lat="46.22447" lon="6.29689">
        <ele>505</ele>
        <time>2020-02-23T15:59:34Z</time>
      </trkpt>
      <trkpt lat="46.22446" lon="6.29686">
        <ele>505.20001220703</ele>
        <time>2020-02-23T15:59:35Z</time>
      </trkpt>
      <trkpt lat="46.22446" lon="6.29683">
        <ele>505.20001220703</ele>
        <time>2020-02-23T15:59:36Z</time>
      </trkpt>
      <trkpt lat="46.22446" lon="6.29679">
        <ele>505.60000610352</ele>
        <time>2020-02-23T15:59:37Z</time>
      </trkpt>
      <trkpt lat="46.22445" lon="6.29676">
        <ele>505.79998779297</ele>
        <time>2020-02-23T15:59:38Z</time>
      </trkpt>
      <trkpt lat="46.22445" lon="6.29673">
        <ele>506</ele>
        <time>2020-02-23T15:59:39Z</time>
      </trkpt>
      <trkpt lat="46.22445" lon="6.2967">
        <ele>506.39999389648</ele>
        <time>2020-02-23T15:59:40Z</time>
      </trkpt>
      <trkpt lat="46.22444" lon="6.29667">
        <ele>506.60000610352</ele>
        <time>2020-02-23T15:59:41Z</time>
      </trkpt>
      <trkpt lat="46.22444" lon="6.29664">
        <ele>506.60000610352</ele>
        <time>2020-02-23T15:59:42Z</time>
      </trkpt>
      <trkpt lat="46.22444" lon="6.2966">
        <ele>506.60000610352</ele>
        <time>2020-02-23T15:59:43Z</time>
      </trkpt>
      <trkpt lat="46.22444" lon="6.29657">
        <ele>507</ele>
        <time>2020-02-23T15:59:44Z</time>
      </trkpt>
      <trkpt lat="46.22444" lon="6.29654">
        <ele>507.39999389648</ele>
        <time>2020-02-23T15:59:45Z</time>
      </trkpt>
      <trkpt lat="46.22444" lon="6.2965">
        <ele>507.60000610352</ele>
        <time>2020-02-23T15:59:46Z</time>
      </trkpt>
      <trkpt lat="46.22444" lon="6.29647">
        <ele>507.79998779297</ele>
        <time>2020-02-23T15:59:47Z</time>
      </trkpt>
      <trkpt lat="46.22445" lon="6.29644">
        <ele>507.79998779297</ele>
        <time>2020-02-23T15:59:48Z</time>
      </trkpt>
      <trkpt lat="46.22445" lon="6.2964">
        <ele>507.79998779297</ele>
        <time>2020-02-23T15:59:49Z</time>
      </trkpt>
      <trkpt lat="46.22446" lon="6.29637">
        <ele>507.79998779297</ele>
        <time>2020-02-23T15:59:50Z</time>
      </trkpt>
      <trkpt lat="46.22446" lon="6.29633">
        <ele>508</ele>
        <time>2020-02-23T15:59:51Z</time>
      </trkpt>
      <trkpt lat="46.22447" lon="6.2963">
        <ele>508</ele>
        <time>2020-02-23T15:59:52Z</time>
      </trkpt>
      <trkpt lat="46.22447" lon="6.29627">
        <ele>508.39999389648</ele>
        <time>2020-02-23T15:59:53Z</time>
      </trkpt>
      <trkpt lat="46.22447" lon="6.29624">
        <ele>508.60000610352</ele>
        <time>2020-02-23T15:59:54Z</time>
      </trkpt>
      <trkpt lat="46.22447" lon="6.29621">
        <ele>508.79998779297</ele>
        <time>2020-02-23T15:59:55Z</time>
      </trkpt>
      <trkpt lat="46.22448" lon="6.29618">
        <ele>508.79998779297</ele>
        <time>2020-02-23T15:59:56Z</time>
      </trkpt>
      <trkpt lat="46.22448" lon="6.29614">
        <ele>508.79998779297</ele>
        <time>2020-02-23T15:59:57Z</time>
      </trkpt>
      <trkpt lat="46.22449" lon="6.29611">
        <ele>509</ele>
        <time>2020-02-23T15:59:58Z</time>
      </trkpt>
      <trkpt lat="46.22449" lon="6.29608">
        <ele>509.20001220703</ele>
        <time>2020-02-23T15:59:59Z</time>
      </trkpt>
      <trkpt lat="46.22451" lon="6.29606">
        <ele>509.20001220703</ele>
        <time>2020-02-23T16:00:00Z</time>
      </trkpt>
      <trkpt lat="46.22453" lon="6.29606">
        <ele>509.60000610352</ele>
        <time>2020-02-23T16:00:01Z</time>
      </trkpt>
      <trkpt lat="46.22455" lon="6.29608">
        <ele>509.79998779297</ele>
        <time>2020-02-23T16:00:02Z</time>
      </trkpt>
      <trkpt lat="46.22456" lon="6.29611">
        <ele>509.79998779297</ele>
        <time>2020-02-23T16:00:03Z</time>
      </trkpt>
      <trkpt lat="46.22458" lon="6.29623">
        <ele>510.20001220703</ele>
        <time>2020-02-23T16:00:06Z</time>
      </trkpt>
      <trkpt lat="46.22461" lon="6.29635">
        <ele>510.39999389648</ele>
        <time>2020-02-23T16:00:09Z</time>
      </trkpt>
      <trkpt lat="46.22462" lon="6.29639">
        <ele>510.60000610352</ele>
        <time>2020-02-23T16:00:10Z</time>
      </trkpt>
      <trkpt lat="46.22464" lon="6.29642">
        <ele>510.60000610352</ele>
        <time>2020-02-23T16:00:11Z</time>
      </trkpt>
      <trkpt lat="46.22465" lon="6.29645">
        <ele>510.60000610352</ele>
        <time>2020-02-23T16:00:12Z</time>
      </trkpt>
      <trkpt lat="46.22466" lon="6.29648">
        <ele>510.60000610352</ele>
        <time>2020-02-23T16:00:13Z</time>
      </trkpt>
      <trkpt lat="46.22468" lon="6.29651">
        <ele>510.60000610352</ele>
        <time>2020-02-23T16:00:14Z</time>
      </trkpt>
      <trkpt lat="46.2247" lon="6.29654">
        <ele>510.60000610352</ele>
        <time>2020-02-23T16:00:15Z</time>
      </trkpt>
      <trkpt lat="46.22478" lon="6.29671">
        <ele>511.39999389648</ele>
        <time>2020-02-23T16:00:20Z</time>
      </trkpt>
      <trkpt lat="46.2249" lon="6.29694">
        <ele>511.60000610352</ele>
        <time>2020-02-23T16:00:26Z</time>
      </trkpt>
      <trkpt lat="46.22492" lon="6.29697">
        <ele>511.60000610352</ele>
        <time>2020-02-23T16:00:27Z</time>
      </trkpt>
      <trkpt lat="46.22494" lon="6.297">
        <ele>511.60000610352</ele>
        <time>2020-02-23T16:00:28Z</time>
      </trkpt>
      <trkpt lat="46.22496" lon="6.29703">
        <ele>511.60000610352</ele>
        <time>2020-02-23T16:00:29Z</time>
      </trkpt>
      <trkpt lat="46.22498" lon="6.29706">
        <ele>511.79998779297</ele>
        <time>2020-02-23T16:00:30Z</time>
      </trkpt>
      <trkpt lat="46.22499" lon="6.29708">
        <ele>511.79998779297</ele>
        <time>2020-02-23T16:00:31Z</time>
      </trkpt>
      <trkpt lat="46.22501" lon="6.29711">
        <ele>511.79998779297</ele>
        <time>2020-02-23T16:00:32Z</time>
      </trkpt>
      <trkpt lat="46.22508" lon="6.29725">
        <ele>512</ele>
        <time>2020-02-23T16:00:36Z</time>
      </trkpt>
      <trkpt lat="46.22517" lon="6.29742">
        <ele>512.20001220703</ele>
        <time>2020-02-23T16:00:40Z</time>
      </trkpt>
      <trkpt lat="46.2252" lon="6.29746">
        <ele>512.40002441406</ele>
        <time>2020-02-23T16:00:41Z</time>
      </trkpt>
      <trkpt lat="46.22522" lon="6.2975">
        <ele>512.40002441406</ele>
        <time>2020-02-23T16:00:42Z</time>
      </trkpt>
      <trkpt lat="46.22524" lon="6.29754">
        <ele>512.40002441406</ele>
        <time>2020-02-23T16:00:43Z</time>
      </trkpt>
      <trkpt lat="46.22526" lon="6.29757">
        <ele>512.59997558594</ele>
        <time>2020-02-23T16:00:44Z</time>
      </trkpt>
      <trkpt lat="46.22527" lon="6.29761">
        <ele>512.59997558594</ele>
        <time>2020-02-23T16:00:45Z</time>
      </trkpt>
      <trkpt lat="46.22536" lon="6.29782">
        <ele>512.79998779297</ele>
        <time>2020-02-23T16:00:50Z</time>
      </trkpt>
      <trkpt lat="46.22554" lon="6.29824">
        <ele>513.40002441406</ele>
        <time>2020-02-23T16:00:58Z</time>
      </trkpt>
      <trkpt lat="46.22556" lon="6.29829">
        <ele>513.20001220703</ele>
        <time>2020-02-23T16:00:59Z</time>
      </trkpt>
      <trkpt lat="46.22558" lon="6.29835">
        <ele>513.40002441406</ele>
        <time>2020-02-23T16:01:00Z</time>
      </trkpt>
      <trkpt lat="46.2256" lon="6.2984">
        <ele>513.40002441406</ele>
        <time>2020-02-23T16:01:01Z</time>
      </trkpt>
      <trkpt lat="46.22562" lon="6.29846">
        <ele>513.20001220703</ele>
        <time>2020-02-23T16:01:02Z</time>
      </trkpt>
      <trkpt lat="46.22564" lon="6.2985">
        <ele>513.40002441406</ele>
        <time>2020-02-23T16:01:03Z</time>
      </trkpt>
      <trkpt lat="46.22566" lon="6.29855">
        <ele>513.20001220703</ele>
        <time>2020-02-23T16:01:04Z</time>
      </trkpt>
      <trkpt lat="46.22568" lon="6.2986">
        <ele>513.20001220703</ele>
        <time>2020-02-23T16:01:05Z</time>
      </trkpt>
      <trkpt lat="46.2257" lon="6.29864">
        <ele>513.40002441406</ele>
        <time>2020-02-23T16:01:06Z</time>
      </trkpt>
      <trkpt lat="46.22572" lon="6.29868">
        <ele>513.40002441406</ele>
        <time>2020-02-23T16:01:07Z</time>
      </trkpt>
      <trkpt lat="46.22583" lon="6.29896">
        <ele>513.79998779297</ele>
        <time>2020-02-23T16:01:13Z</time>
      </trkpt>
      <trkpt lat="46.22585" lon="6.29901">
        <ele>513.79998779297</ele>
        <time>2020-02-23T16:01:14Z</time>
      </trkpt>
      <trkpt lat="46.22587" lon="6.29906">
        <ele>514</ele>
        <time>2020-02-23T16:01:15Z</time>
      </trkpt>
      <trkpt lat="46.22589" lon="6.2991">
        <ele>513.79998779297</ele>
        <time>2020-02-23T16:01:16Z</time>
      </trkpt>
      <trkpt lat="46.2259" lon="6.29914">
        <ele>513.79998779297</ele>
        <time>2020-02-23T16:01:17Z</time>
      </trkpt>
      <trkpt lat="46.22592" lon="6.29919">
        <ele>514</ele>
        <time>2020-02-23T16:01:18Z</time>
      </trkpt>
      <trkpt lat="46.22593" lon="6.29923">
        <ele>514</ele>
        <time>2020-02-23T16:01:19Z</time>
      </trkpt>
      <trkpt lat="46.22595" lon="6.29927">
        <ele>514</ele>
        <time>2020-02-23T16:01:20Z</time>
      </trkpt>
      <trkpt lat="46.22596" lon="6.29931">
        <ele>514</ele>
        <time>2020-02-23T16:01:21Z</time>
      </trkpt>
      <trkpt lat="46.22598" lon="6.29934">
        <ele>514</ele>
        <time>2020-02-23T16:01:22Z</time>
      </trkpt>
      <trkpt lat="46.226" lon="6.29938">
        <ele>514</ele>
        <time>2020-02-23T16:01:23Z</time>
      </trkpt>
      <trkpt lat="46.22611" lon="6.29965">
        <ele>514.40002441406</ele>
        <time>2020-02-23T16:01:29Z</time>
      </trkpt>
      <trkpt lat="46.22622" lon="6.29994">
        <ele>514.40002441406</ele>
        <time>2020-02-23T16:01:34Z</time>
      </trkpt>
      <trkpt lat="46.22624" lon="6.3">
        <ele>514.40002441406</ele>
        <time>2020-02-23T16:01:35Z</time>
      </trkpt>
      <trkpt lat="46.22626" lon="6.30005">
        <ele>514.40002441406</ele>
        <time>2020-02-23T16:01:36Z</time>
      </trkpt>
      <trkpt lat="46.22631" lon="6.30016">
        <ele>514.59997558594</ele>
        <time>2020-02-23T16:01:38Z</time>
      </trkpt>
      <trkpt lat="46.22633" lon="6.30021">
        <ele>514.59997558594</ele>
        <time>2020-02-23T16:01:39Z</time>
      </trkpt>
      <trkpt lat="46.22635" lon="6.30026">
        <ele>514.40002441406</ele>
        <time>2020-02-23T16:01:40Z</time>
      </trkpt>
      <trkpt lat="46.22637" lon="6.30031">
        <ele>514.59997558594</ele>
        <time>2020-02-23T16:01:41Z</time>
      </trkpt>
      <trkpt lat="46.22639" lon="6.30035">
        <ele>514.40002441406</ele>
        <time>2020-02-23T16:01:42Z</time>
      </trkpt>
      <trkpt lat="46.2264" lon="6.30039">
        <ele>514.40002441406</ele>
        <time>2020-02-23T16:01:43Z</time>
      </trkpt>
      <trkpt lat="46.22642" lon="6.30042">
        <ele>514.40002441406</ele>
        <time>2020-02-23T16:01:44Z</time>
      </trkpt>
      <trkpt lat="46.22643" lon="6.30046">
        <ele>514.59997558594</ele>
        <time>2020-02-23T16:01:45Z</time>
      </trkpt>
      <trkpt lat="46.22653" lon="6.30071">
        <ele>514.79998779297</ele>
        <time>2020-02-23T16:01:51Z</time>
      </trkpt>
      <trkpt lat="46.22654" lon="6.30075">
        <ele>515.20001220703</ele>
        <time>2020-02-23T16:01:52Z</time>
      </trkpt>
      <trkpt lat="46.2267" lon="6.30113">
        <ele>515.40002441406</ele>
        <time>2020-02-23T16:02:00Z</time>
      </trkpt>
      <trkpt lat="46.22673" lon="6.30117">
        <ele>515.59997558594</ele>
        <time>2020-02-23T16:02:01Z</time>
      </trkpt>
      <trkpt lat="46.22677" lon="6.30121">
        <ele>515.59997558594</ele>
        <time>2020-02-23T16:02:02Z</time>
      </trkpt>
      <trkpt lat="46.2268" lon="6.30125">
        <ele>515.79998779297</ele>
        <time>2020-02-23T16:02:03Z</time>
      </trkpt>
      <trkpt lat="46.22692" lon="6.30136">
        <ele>516</ele>
        <time>2020-02-23T16:02:06Z</time>
      </trkpt>
      <trkpt lat="46.22696" lon="6.30139">
        <ele>516.20001220703</ele>
        <time>2020-02-23T16:02:07Z</time>
      </trkpt>
      <trkpt lat="46.22701" lon="6.30141">
        <ele>516.20001220703</ele>
        <time>2020-02-23T16:02:08Z</time>
      </trkpt>
      <trkpt lat="46.22705" lon="6.30143">
        <ele>516.40002441406</ele>
        <time>2020-02-23T16:02:09Z</time>
      </trkpt>
      <trkpt lat="46.22708" lon="6.30145">
        <ele>516.40002441406</ele>
        <time>2020-02-23T16:02:10Z</time>
      </trkpt>
      <trkpt lat="46.22712" lon="6.30146">
        <ele>516.40002441406</ele>
        <time>2020-02-23T16:02:11Z</time>
      </trkpt>
      <trkpt lat="46.22715" lon="6.30148">
        <ele>516.40002441406</ele>
        <time>2020-02-23T16:02:12Z</time>
      </trkpt>
      <trkpt lat="46.22723" lon="6.30151">
        <ele>516.59997558594</ele>
        <time>2020-02-23T16:02:14Z</time>
      </trkpt>
      <trkpt lat="46.22726" lon="6.30152">
        <ele>516.79998779297</ele>
        <time>2020-02-23T16:02:15Z</time>
      </trkpt>
      <trkpt lat="46.2273" lon="6.30152">
        <ele>516.79998779297</ele>
        <time>2020-02-23T16:02:16Z</time>
      </trkpt>
      <trkpt lat="46.22733" lon="6.30153">
        <ele>516.79998779297</ele>
        <time>2020-02-23T16:02:17Z</time>
      </trkpt>
      <trkpt lat="46.22737" lon="6.30153">
        <ele>516.79998779297</ele>
        <time>2020-02-23T16:02:18Z</time>
      </trkpt>
      <trkpt lat="46.22748" lon="6.30155">
        <ele>517</ele>
        <time>2020-02-23T16:02:21Z</time>
      </trkpt>
      <trkpt lat="46.22751" lon="6.30155">
        <ele>517</ele>
        <time>2020-02-23T16:02:22Z</time>
      </trkpt>
      <trkpt lat="46.22755" lon="6.30155">
        <ele>517</ele>
        <time>2020-02-23T16:02:23Z</time>
      </trkpt>
      <trkpt lat="46.22758" lon="6.30155">
        <ele>517</ele>
        <time>2020-02-23T16:02:24Z</time>
      </trkpt>
      <trkpt lat="46.22767" lon="6.30156">
        <ele>517.20001220703</ele>
        <time>2020-02-23T16:02:26Z</time>
      </trkpt>
      <trkpt lat="46.2278" lon="6.30156">
        <ele>517</ele>
        <time>2020-02-23T16:02:29Z</time>
      </trkpt>
      <trkpt lat="46.228" lon="6.30158">
        <ele>517</ele>
        <time>2020-02-23T16:02:33Z</time>
      </trkpt>
      <trkpt lat="46.22805" lon="6.30157">
        <ele>516.79998779297</ele>
        <time>2020-02-23T16:02:34Z</time>
      </trkpt>
      <trkpt lat="46.2281" lon="6.30157">
        <ele>516.59997558594</ele>
        <time>2020-02-23T16:02:35Z</time>
      </trkpt>
      <trkpt lat="46.22814" lon="6.30157">
        <ele>516.59997558594</ele>
        <time>2020-02-23T16:02:36Z</time>
      </trkpt>
      <trkpt lat="46.22818" lon="6.30157">
        <ele>516.40002441406</ele>
        <time>2020-02-23T16:02:37Z</time>
      </trkpt>
      <trkpt lat="46.22822" lon="6.30156">
        <ele>516.20001220703</ele>
        <time>2020-02-23T16:02:38Z</time>
      </trkpt>
      <trkpt lat="46.22825" lon="6.30156">
        <ele>516.20001220703</ele>
        <time>2020-02-23T16:02:39Z</time>
      </trkpt>
      <trkpt lat="46.22829" lon="6.30156">
        <ele>516</ele>
        <time>2020-02-23T16:02:40Z</time>
      </trkpt>
      <trkpt lat="46.22832" lon="6.30155">
        <ele>516.20001220703</ele>
        <time>2020-02-23T16:02:41Z</time>
      </trkpt>
      <trkpt lat="46.22835" lon="6.30155">
        <ele>516</ele>
        <time>2020-02-23T16:02:42Z</time>
      </trkpt>
      <trkpt lat="46.22838" lon="6.30154">
        <ele>516</ele>
        <time>2020-02-23T16:02:43Z</time>
      </trkpt>
      <trkpt lat="46.22849" lon="6.30153">
        <ele>516.20001220703</ele>
        <time>2020-02-23T16:02:46Z</time>
      </trkpt>
      <trkpt lat="46.22871" lon="6.30154">
        <ele>516</ele>
        <time>2020-02-23T16:02:51Z</time>
      </trkpt>
      <trkpt lat="46.22875" lon="6.30155">
        <ele>516.20001220703</ele>
        <time>2020-02-23T16:02:52Z</time>
      </trkpt>
      <trkpt lat="46.2288" lon="6.30155">
        <ele>516.20001220703</ele>
        <time>2020-02-23T16:02:53Z</time>
      </trkpt>
      <trkpt lat="46.22883" lon="6.30155">
        <ele>516.20001220703</ele>
        <time>2020-02-23T16:02:54Z</time>
      </trkpt>
      <trkpt lat="46.22887" lon="6.30156">
        <ele>516.20001220703</ele>
        <time>2020-02-23T16:02:55Z</time>
      </trkpt>
      <trkpt lat="46.22891" lon="6.30157">
        <ele>516.20001220703</ele>
        <time>2020-02-23T16:02:56Z</time>
      </trkpt>
      <trkpt lat="46.22895" lon="6.30157">
        <ele>516.40002441406</ele>
        <time>2020-02-23T16:02:57Z</time>
      </trkpt>
      <trkpt lat="46.22906" lon="6.30159">
        <ele>516.40002441406</ele>
        <time>2020-02-23T16:03:00Z</time>
      </trkpt>
      <trkpt lat="46.22935" lon="6.30169">
        <ele>516.59997558594</ele>
        <time>2020-02-23T16:03:06Z</time>
      </trkpt>
      <trkpt lat="46.2294" lon="6.30172">
        <ele>516.40002441406</ele>
        <time>2020-02-23T16:03:07Z</time>
      </trkpt>
      <trkpt lat="46.22963" lon="6.30187">
        <ele>516.40002441406</ele>
        <time>2020-02-23T16:03:11Z</time>
      </trkpt>
      <trkpt lat="46.22968" lon="6.30191">
        <ele>516.40002441406</ele>
        <time>2020-02-23T16:03:12Z</time>
      </trkpt>
      <trkpt lat="46.22973" lon="6.30194">
        <ele>516.40002441406</ele>
        <time>2020-02-23T16:03:13Z</time>
      </trkpt>
      <trkpt lat="46.22978" lon="6.30198">
        <ele>516.40002441406</ele>
        <time>2020-02-23T16:03:14Z</time>
      </trkpt>
      <trkpt lat="46.22984" lon="6.30201">
        <ele>516.40002441406</ele>
        <time>2020-02-23T16:03:15Z</time>
      </trkpt>
      <trkpt lat="46.22994" lon="6.30209">
        <ele>515.79998779297</ele>
        <time>2020-02-23T16:03:17Z</time>
      </trkpt>
      <trkpt lat="46.22999" lon="6.30212">
        <ele>515.59997558594</ele>
        <time>2020-02-23T16:03:18Z</time>
      </trkpt>
      <trkpt lat="46.23004" lon="6.30216">
        <ele>515.40002441406</ele>
        <time>2020-02-23T16:03:19Z</time>
      </trkpt>
      <trkpt lat="46.23009" lon="6.3022">
        <ele>515.40002441406</ele>
        <time>2020-02-23T16:03:20Z</time>
      </trkpt>
      <trkpt lat="46.23013" lon="6.30224">
        <ele>515.40002441406</ele>
        <time>2020-02-23T16:03:21Z</time>
      </trkpt>
      <trkpt lat="46.23018" lon="6.30229">
        <ele>515.20001220703</ele>
        <time>2020-02-23T16:03:22Z</time>
      </trkpt>
      <trkpt lat="46.23023" lon="6.30233">
        <ele>515.20001220703</ele>
        <time>2020-02-23T16:03:23Z</time>
      </trkpt>
      <trkpt lat="46.23027" lon="6.30237">
        <ele>515.20001220703</ele>
        <time>2020-02-23T16:03:24Z</time>
      </trkpt>
      <trkpt lat="46.23032" lon="6.30241">
        <ele>515</ele>
        <time>2020-02-23T16:03:25Z</time>
      </trkpt>
      <trkpt lat="46.23037" lon="6.30246">
        <ele>514.79998779297</ele>
        <time>2020-02-23T16:03:26Z</time>
      </trkpt>
      <trkpt lat="46.23041" lon="6.3025">
        <ele>514.79998779297</ele>
        <time>2020-02-23T16:03:27Z</time>
      </trkpt>
      <trkpt lat="46.23045" lon="6.30255">
        <ele>514.40002441406</ele>
        <time>2020-02-23T16:03:28Z</time>
      </trkpt>
      <trkpt lat="46.2305" lon="6.30259">
        <ele>514.20001220703</ele>
        <time>2020-02-23T16:03:29Z</time>
      </trkpt>
      <trkpt lat="46.23054" lon="6.30263">
        <ele>514.20001220703</ele>
        <time>2020-02-23T16:03:30Z</time>
      </trkpt>
      <trkpt lat="46.23059" lon="6.30266">
        <ele>514</ele>
        <time>2020-02-23T16:03:31Z</time>
      </trkpt>
      <trkpt lat="46.23063" lon="6.3027">
        <ele>513.79998779297</ele>
        <time>2020-02-23T16:03:32Z</time>
      </trkpt>
      <trkpt lat="46.23067" lon="6.30273">
        <ele>513.79998779297</ele>
        <time>2020-02-23T16:03:33Z</time>
      </trkpt>
      <trkpt lat="46.23071" lon="6.30276">
        <ele>513.79998779297</ele>
        <time>2020-02-23T16:03:34Z</time>
      </trkpt>
      <trkpt lat="46.23092" lon="6.30294">
        <ele>513.79998779297</ele>
        <time>2020-02-23T16:03:39Z</time>
      </trkpt>
      <trkpt lat="46.23096" lon="6.30297">
        <ele>513.79998779297</ele>
        <time>2020-02-23T16:03:40Z</time>
      </trkpt>
      <trkpt lat="46.23133" lon="6.3032">
        <ele>513.59997558594</ele>
        <time>2020-02-23T16:03:48Z</time>
      </trkpt>
      <trkpt lat="46.23138" lon="6.30323">
        <ele>513.79998779297</ele>
        <time>2020-02-23T16:03:49Z</time>
      </trkpt>
      <trkpt lat="46.23142" lon="6.30326">
        <ele>513.79998779297</ele>
        <time>2020-02-23T16:03:50Z</time>
      </trkpt>
      <trkpt lat="46.2318" lon="6.30351">
        <ele>514.20001220703</ele>
        <time>2020-02-23T16:03:58Z</time>
      </trkpt>
      <trkpt lat="46.23185" lon="6.30354">
        <ele>514.40002441406</ele>
        <time>2020-02-23T16:03:59Z</time>
      </trkpt>
      <trkpt lat="46.2319" lon="6.30357">
        <ele>514.20001220703</ele>
        <time>2020-02-23T16:04:00Z</time>
      </trkpt>
      <trkpt lat="46.23195" lon="6.3036">
        <ele>514.40002441406</ele>
        <time>2020-02-23T16:04:01Z</time>
      </trkpt>
      <trkpt lat="46.23199" lon="6.30363">
        <ele>514.59997558594</ele>
        <time>2020-02-23T16:04:02Z</time>
      </trkpt>
      <trkpt lat="46.23204" lon="6.30366">
        <ele>514.59997558594</ele>
        <time>2020-02-23T16:04:03Z</time>
      </trkpt>
      <trkpt lat="46.23208" lon="6.30369">
        <ele>514.79998779297</ele>
        <time>2020-02-23T16:04:04Z</time>
      </trkpt>
      <trkpt lat="46.23212" lon="6.30372">
        <ele>514.79998779297</ele>
        <time>2020-02-23T16:04:05Z</time>
      </trkpt>
      <trkpt lat="46.23216" lon="6.30375">
        <ele>514.79998779297</ele>
        <time>2020-02-23T16:04:06Z</time>
      </trkpt>
      <trkpt lat="46.23219" lon="6.30378">
        <ele>515.20001220703</ele>
        <time>2020-02-23T16:04:07Z</time>
      </trkpt>
      <trkpt lat="46.23223" lon="6.30381">
        <ele>515.20001220703</ele>
        <time>2020-02-23T16:04:08Z</time>
      </trkpt>
      <trkpt lat="46.23226" lon="6.30384">
        <ele>515.40002441406</ele>
        <time>2020-02-23T16:04:09Z</time>
      </trkpt>
      <trkpt lat="46.23229" lon="6.30387">
        <ele>515.79998779297</ele>
        <time>2020-02-23T16:04:10Z</time>
      </trkpt>
      <trkpt lat="46.23233" lon="6.30389">
        <ele>516.20001220703</ele>
        <time>2020-02-23T16:04:11Z</time>
      </trkpt>
      <trkpt lat="46.23236" lon="6.30392">
        <ele>516.40002441406</ele>
        <time>2020-02-23T16:04:12Z</time>
      </trkpt>
      <trkpt lat="46.23239" lon="6.30395">
        <ele>516.59997558594</ele>
        <time>2020-02-23T16:04:13Z</time>
      </trkpt>
      <trkpt lat="46.23242" lon="6.30398">
        <ele>517</ele>
        <time>2020-02-23T16:04:14Z</time>
      </trkpt>
      <trkpt lat="46.23245" lon="6.30401">
        <ele>517.40002441406</ele>
        <time>2020-02-23T16:04:15Z</time>
      </trkpt>
      <trkpt lat="46.23248" lon="6.30405">
        <ele>517.40002441406</ele>
        <time>2020-02-23T16:04:16Z</time>
      </trkpt>
      <trkpt lat="46.23251" lon="6.30409">
        <ele>517.59997558594</ele>
        <time>2020-02-23T16:04:17Z</time>
      </trkpt>
      <trkpt lat="46.23254" lon="6.30413">
        <ele>518</ele>
        <time>2020-02-23T16:04:18Z</time>
      </trkpt>
      <trkpt lat="46.23257" lon="6.30417">
        <ele>518.20001220703</ele>
        <time>2020-02-23T16:04:19Z</time>
      </trkpt>
      <trkpt lat="46.23259" lon="6.30421">
        <ele>518.40002441406</ele>
        <time>2020-02-23T16:04:20Z</time>
      </trkpt>
      <trkpt lat="46.23262" lon="6.30425">
        <ele>518.59997558594</ele>
        <time>2020-02-23T16:04:21Z</time>
      </trkpt>
      <trkpt lat="46.23265" lon="6.30429">
        <ele>519</ele>
        <time>2020-02-23T16:04:22Z</time>
      </trkpt>
      <trkpt lat="46.23267" lon="6.30432">
        <ele>519</ele>
        <time>2020-02-23T16:04:23Z</time>
      </trkpt>
      <trkpt lat="46.23269" lon="6.30435">
        <ele>519</ele>
        <time>2020-02-23T16:04:24Z</time>
      </trkpt>
      <trkpt lat="46.23271" lon="6.30437">
        <ele>519.20001220703</ele>
        <time>2020-02-23T16:04:25Z</time>
      </trkpt>
      <trkpt lat="46.23273" lon="6.3044">
        <ele>519.20001220703</ele>
        <time>2020-02-23T16:04:26Z</time>
      </trkpt>
      <trkpt lat="46.23274" lon="6.30441">
        <ele>519.40002441406</ele>
        <time>2020-02-23T16:04:27Z</time>
      </trkpt>
      <trkpt lat="46.23275" lon="6.30443">
        <ele>519.59997558594</ele>
        <time>2020-02-23T16:04:28Z</time>
      </trkpt>
      <trkpt lat="46.23276" lon="6.30445">
        <ele>519.79998779297</ele>
        <time>2020-02-23T16:04:29Z</time>
      </trkpt>
      <trkpt lat="46.23277" lon="6.30446">
        <ele>520</ele>
        <time>2020-02-23T16:04:30Z</time>
      </trkpt>
      <trkpt lat="46.23278" lon="6.30448">
        <ele>520</ele>
        <time>2020-02-23T16:04:31Z</time>
      </trkpt>
      <trkpt lat="46.23281" lon="6.30452">
        <ele>520</ele>
        <time>2020-02-23T16:04:33Z</time>
      </trkpt>
      <trkpt lat="46.23282" lon="6.30454">
        <ele>520.20001220703</ele>
        <time>2020-02-23T16:04:34Z</time>
      </trkpt>
      <trkpt lat="46.23288" lon="6.30463">
        <ele>520.40002441406</ele>
        <time>2020-02-23T16:04:37Z</time>
      </trkpt>
      <trkpt lat="46.233" lon="6.3048">
        <ele>520.79998779297</ele>
        <time>2020-02-23T16:04:42Z</time>
      </trkpt>
      <trkpt lat="46.23302" lon="6.30484">
        <ele>521</ele>
        <time>2020-02-23T16:04:43Z</time>
      </trkpt>
      <trkpt lat="46.23304" lon="6.30488">
        <ele>521</ele>
        <time>2020-02-23T16:04:44Z</time>
      </trkpt>
      <trkpt lat="46.23305" lon="6.30492">
        <ele>521.20001220703</ele>
        <time>2020-02-23T16:04:45Z</time>
      </trkpt>
      <trkpt lat="46.23306" lon="6.30496">
        <ele>521.20001220703</ele>
        <time>2020-02-23T16:04:46Z</time>
      </trkpt>
      <trkpt lat="46.23306" lon="6.305">
        <ele>521.20001220703</ele>
        <time>2020-02-23T16:04:47Z</time>
      </trkpt>
      <trkpt lat="46.23306" lon="6.30504">
        <ele>521.40002441406</ele>
        <time>2020-02-23T16:04:48Z</time>
      </trkpt>
      <trkpt lat="46.23306" lon="6.30508">
        <ele>521.40002441406</ele>
        <time>2020-02-23T16:04:49Z</time>
      </trkpt>
      <trkpt lat="46.23306" lon="6.30513">
        <ele>521.40002441406</ele>
        <time>2020-02-23T16:04:50Z</time>
      </trkpt>
      <trkpt lat="46.23305" lon="6.30517">
        <ele>521.59997558594</ele>
        <time>2020-02-23T16:04:51Z</time>
      </trkpt>
      <trkpt lat="46.23305" lon="6.30521">
        <ele>521.59997558594</ele>
        <time>2020-02-23T16:04:52Z</time>
      </trkpt>
      <trkpt lat="46.23304" lon="6.30526">
        <ele>521.59997558594</ele>
        <time>2020-02-23T16:04:53Z</time>
      </trkpt>
      <trkpt lat="46.23304" lon="6.30531">
        <ele>521.79998779297</ele>
        <time>2020-02-23T16:04:54Z</time>
      </trkpt>
      <trkpt lat="46.23304" lon="6.30536">
        <ele>522</ele>
        <time>2020-02-23T16:04:55Z</time>
      </trkpt>
      <trkpt lat="46.23305" lon="6.30541">
        <ele>522.20001220703</ele>
        <time>2020-02-23T16:04:56Z</time>
      </trkpt>
      <trkpt lat="46.23306" lon="6.30546">
        <ele>522.20001220703</ele>
        <time>2020-02-23T16:04:57Z</time>
      </trkpt>
      <trkpt lat="46.23308" lon="6.3055">
        <ele>522.20001220703</ele>
        <time>2020-02-23T16:04:58Z</time>
      </trkpt>
      <trkpt lat="46.23311" lon="6.30554">
        <ele>522.40002441406</ele>
        <time>2020-02-23T16:04:59Z</time>
      </trkpt>
      <trkpt lat="46.23314" lon="6.30558">
        <ele>522.79998779297</ele>
        <time>2020-02-23T16:05:00Z</time>
      </trkpt>
      <trkpt lat="46.23317" lon="6.30561">
        <ele>523</ele>
        <time>2020-02-23T16:05:01Z</time>
      </trkpt>
      <trkpt lat="46.23321" lon="6.30564">
        <ele>523.20001220703</ele>
        <time>2020-02-23T16:05:02Z</time>
      </trkpt>
      <trkpt lat="46.23324" lon="6.30567">
        <ele>523.20001220703</ele>
        <time>2020-02-23T16:05:03Z</time>
      </trkpt>
      <trkpt lat="46.23327" lon="6.3057">
        <ele>523.40002441406</ele>
        <time>2020-02-23T16:05:04Z</time>
      </trkpt>
      <trkpt lat="46.23329" lon="6.30572">
        <ele>523.59997558594</ele>
        <time>2020-02-23T16:05:05Z</time>
      </trkpt>
      <trkpt lat="46.23332" lon="6.30575">
        <ele>523.59997558594</ele>
        <time>2020-02-23T16:05:06Z</time>
      </trkpt>
      <trkpt lat="46.23334" lon="6.30577">
        <ele>523.59997558594</ele>
        <time>2020-02-23T16:05:07Z</time>
      </trkpt>
      <trkpt lat="46.23336" lon="6.3058">
        <ele>523.59997558594</ele>
        <time>2020-02-23T16:05:08Z</time>
      </trkpt>
      <trkpt lat="46.23341" lon="6.30585">
        <ele>523.79998779297</ele>
        <time>2020-02-23T16:05:10Z</time>
      </trkpt>
      <trkpt lat="46.23346" lon="6.3059">
        <ele>524</ele>
        <time>2020-02-23T16:05:12Z</time>
      </trkpt>
      <trkpt lat="46.23362" lon="6.30605">
        <ele>524.20001220703</ele>
        <time>2020-02-23T16:05:17Z</time>
      </trkpt>
      <trkpt lat="46.23377" lon="6.30618">
        <ele>524.20001220703</ele>
        <time>2020-02-23T16:05:21Z</time>
      </trkpt>
      <trkpt lat="46.23381" lon="6.30621">
        <ele>524.40002441406</ele>
        <time>2020-02-23T16:05:22Z</time>
      </trkpt>
      <trkpt lat="46.23385" lon="6.30623">
        <ele>524.40002441406</ele>
        <time>2020-02-23T16:05:23Z</time>
      </trkpt>
      <trkpt lat="46.23389" lon="6.30625">
        <ele>524.40002441406</ele>
        <time>2020-02-23T16:05:24Z</time>
      </trkpt>
      <trkpt lat="46.23407" lon="6.30632">
        <ele>524.59997558594</ele>
        <time>2020-02-23T16:05:28Z</time>
      </trkpt>
      <trkpt lat="46.23411" lon="6.30635">
        <ele>524.40002441406</ele>
        <time>2020-02-23T16:05:29Z</time>
      </trkpt>
      <trkpt lat="46.23416" lon="6.30637">
        <ele>524.40002441406</ele>
        <time>2020-02-23T16:05:30Z</time>
      </trkpt>
      <trkpt lat="46.2342" lon="6.30639">
        <ele>524.40002441406</ele>
        <time>2020-02-23T16:05:31Z</time>
      </trkpt>
      <trkpt lat="46.23438" lon="6.30649">
        <ele>524.59997558594</ele>
        <time>2020-02-23T16:05:35Z</time>
      </trkpt>
      <trkpt lat="46.23453" lon="6.30658">
        <ele>524.40002441406</ele>
        <time>2020-02-23T16:05:38Z</time>
      </trkpt>
      <trkpt lat="46.23459" lon="6.30662">
        <ele>524.40002441406</ele>
        <time>2020-02-23T16:05:39Z</time>
      </trkpt>
      <trkpt lat="46.23484" lon="6.30687">
        <ele>523.79998779297</ele>
        <time>2020-02-23T16:05:44Z</time>
      </trkpt>
      <trkpt lat="46.23499" lon="6.30703">
        <ele>523.40002441406</ele>
        <time>2020-02-23T16:05:47Z</time>
      </trkpt>
      <trkpt lat="46.23515" lon="6.30718">
        <ele>522.59997558594</ele>
        <time>2020-02-23T16:05:50Z</time>
      </trkpt>
      <trkpt lat="46.23521" lon="6.30722">
        <ele>522.40002441406</ele>
        <time>2020-02-23T16:05:51Z</time>
      </trkpt>
      <trkpt lat="46.23526" lon="6.30726">
        <ele>522.20001220703</ele>
        <time>2020-02-23T16:05:52Z</time>
      </trkpt>
      <trkpt lat="46.23532" lon="6.30729">
        <ele>522</ele>
        <time>2020-02-23T16:05:53Z</time>
      </trkpt>
      <trkpt lat="46.23538" lon="6.30731">
        <ele>521.79998779297</ele>
        <time>2020-02-23T16:05:54Z</time>
      </trkpt>
      <trkpt lat="46.23543" lon="6.30734">
        <ele>521.59997558594</ele>
        <time>2020-02-23T16:05:55Z</time>
      </trkpt>
      <trkpt lat="46.23549" lon="6.30736">
        <ele>521.59997558594</ele>
        <time>2020-02-23T16:05:56Z</time>
      </trkpt>
      <trkpt lat="46.23555" lon="6.30738">
        <ele>521.59997558594</ele>
        <time>2020-02-23T16:05:57Z</time>
      </trkpt>
      <trkpt lat="46.2356" lon="6.3074">
        <ele>521.40002441406</ele>
        <time>2020-02-23T16:05:58Z</time>
      </trkpt>
      <trkpt lat="46.23565" lon="6.30742">
        <ele>521.20001220703</ele>
        <time>2020-02-23T16:05:59Z</time>
      </trkpt>
      <trkpt lat="46.2357" lon="6.30744">
        <ele>521.20001220703</ele>
        <time>2020-02-23T16:06:00Z</time>
      </trkpt>
      <trkpt lat="46.23575" lon="6.30745">
        <ele>521.40002441406</ele>
        <time>2020-02-23T16:06:01Z</time>
      </trkpt>
      <trkpt lat="46.2358" lon="6.30747">
        <ele>521.20001220703</ele>
        <time>2020-02-23T16:06:02Z</time>
      </trkpt>
      <trkpt lat="46.23595" lon="6.30753">
        <ele>521.20001220703</ele>
        <time>2020-02-23T16:06:05Z</time>
      </trkpt>
      <trkpt lat="46.23611" lon="6.30761">
        <ele>521.20001220703</ele>
        <time>2020-02-23T16:06:08Z</time>
      </trkpt>
      <trkpt lat="46.23616" lon="6.30764">
        <ele>521.20001220703</ele>
        <time>2020-02-23T16:06:09Z</time>
      </trkpt>
      <trkpt lat="46.2362" lon="6.30766">
        <ele>521.20001220703</ele>
        <time>2020-02-23T16:06:10Z</time>
      </trkpt>
      <trkpt lat="46.23625" lon="6.30769">
        <ele>521.20001220703</ele>
        <time>2020-02-23T16:06:11Z</time>
      </trkpt>
      <trkpt lat="46.2363" lon="6.3077">
        <ele>521</ele>
        <time>2020-02-23T16:06:12Z</time>
      </trkpt>
      <trkpt lat="46.23634" lon="6.30772">
        <ele>521.20001220703</ele>
        <time>2020-02-23T16:06:13Z</time>
      </trkpt>
      <trkpt lat="46.23639" lon="6.30773">
        <ele>521</ele>
        <time>2020-02-23T16:06:14Z</time>
      </trkpt>
      <trkpt lat="46.23643" lon="6.30774">
        <ele>521.20001220703</ele>
        <time>2020-02-23T16:06:15Z</time>
      </trkpt>
      <trkpt lat="46.23648" lon="6.30775">
        <ele>521.20001220703</ele>
        <time>2020-02-23T16:06:16Z</time>
      </trkpt>
      <trkpt lat="46.23652" lon="6.30777">
        <ele>521.40002441406</ele>
        <time>2020-02-23T16:06:17Z</time>
      </trkpt>
      <trkpt lat="46.23656" lon="6.30777">
        <ele>521.20001220703</ele>
        <time>2020-02-23T16:06:18Z</time>
      </trkpt>
      <trkpt lat="46.23664" lon="6.30779">
        <ele>521.20001220703</ele>
        <time>2020-02-23T16:06:20Z</time>
      </trkpt>
      <trkpt lat="46.23678" lon="6.30784">
        <ele>521.20001220703</ele>
        <time>2020-02-23T16:06:23Z</time>
      </trkpt>
      <trkpt lat="46.23682" lon="6.30786">
        <ele>521.20001220703</ele>
        <time>2020-02-23T16:06:24Z</time>
      </trkpt>
      <trkpt lat="46.23686" lon="6.30789">
        <ele>521</ele>
        <time>2020-02-23T16:06:25Z</time>
      </trkpt>
      <trkpt lat="46.2369" lon="6.30791">
        <ele>521.20001220703</ele>
        <time>2020-02-23T16:06:26Z</time>
      </trkpt>
      <trkpt lat="46.23693" lon="6.30794">
        <ele>521.20001220703</ele>
        <time>2020-02-23T16:06:27Z</time>
      </trkpt>
      <trkpt lat="46.23697" lon="6.30796">
        <ele>521</ele>
        <time>2020-02-23T16:06:28Z</time>
      </trkpt>
      <trkpt lat="46.23718" lon="6.3081">
        <ele>521.20001220703</ele>
        <time>2020-02-23T16:06:33Z</time>
      </trkpt>
      <trkpt lat="46.23722" lon="6.30812">
        <ele>521.20001220703</ele>
        <time>2020-02-23T16:06:34Z</time>
      </trkpt>
      <trkpt lat="46.23758" lon="6.30823">
        <ele>521.40002441406</ele>
        <time>2020-02-23T16:06:41Z</time>
      </trkpt>
      <trkpt lat="46.23763" lon="6.30824">
        <ele>521.40002441406</ele>
        <time>2020-02-23T16:06:42Z</time>
      </trkpt>
      <trkpt lat="46.23767" lon="6.30826">
        <ele>521.40002441406</ele>
        <time>2020-02-23T16:06:43Z</time>
      </trkpt>
      <trkpt lat="46.23772" lon="6.30827">
        <ele>521.40002441406</ele>
        <time>2020-02-23T16:06:44Z</time>
      </trkpt>
      <trkpt lat="46.23777" lon="6.30828">
        <ele>521.59997558594</ele>
        <time>2020-02-23T16:06:45Z</time>
      </trkpt>
      <trkpt lat="46.23781" lon="6.3083">
        <ele>521.59997558594</ele>
        <time>2020-02-23T16:06:46Z</time>
      </trkpt>
      <trkpt lat="46.23785" lon="6.30832">
        <ele>521.79998779297</ele>
        <time>2020-02-23T16:06:47Z</time>
      </trkpt>
      <trkpt lat="46.23789" lon="6.30834">
        <ele>521.79998779297</ele>
        <time>2020-02-23T16:06:48Z</time>
      </trkpt>
      <trkpt lat="46.23793" lon="6.30836">
        <ele>521.79998779297</ele>
        <time>2020-02-23T16:06:49Z</time>
      </trkpt>
      <trkpt lat="46.23797" lon="6.30839">
        <ele>521.79998779297</ele>
        <time>2020-02-23T16:06:50Z</time>
      </trkpt>
      <trkpt lat="46.23801" lon="6.30842">
        <ele>521.79998779297</ele>
        <time>2020-02-23T16:06:51Z</time>
      </trkpt>
      <trkpt lat="46.23804" lon="6.30844">
        <ele>521.79998779297</ele>
        <time>2020-02-23T16:06:52Z</time>
      </trkpt>
      <trkpt lat="46.23808" lon="6.30847">
        <ele>522</ele>
        <time>2020-02-23T16:06:53Z</time>
      </trkpt>
      <trkpt lat="46.23812" lon="6.3085">
        <ele>522</ele>
        <time>2020-02-23T16:06:54Z</time>
      </trkpt>
      <trkpt lat="46.23841" lon="6.30872">
        <ele>522</ele>
        <time>2020-02-23T16:07:01Z</time>
      </trkpt>
      <trkpt lat="46.23845" lon="6.30876">
        <ele>522</ele>
        <time>2020-02-23T16:07:02Z</time>
      </trkpt>
      <trkpt lat="46.2385" lon="6.30879">
        <ele>522</ele>
        <time>2020-02-23T16:07:03Z</time>
      </trkpt>
      <trkpt lat="46.23854" lon="6.30883">
        <ele>522</ele>
        <time>2020-02-23T16:07:04Z</time>
      </trkpt>
      <trkpt lat="46.23858" lon="6.30886">
        <ele>522</ele>
        <time>2020-02-23T16:07:05Z</time>
      </trkpt>
      <trkpt lat="46.23871" lon="6.30896">
        <ele>522</ele>
        <time>2020-02-23T16:07:08Z</time>
      </trkpt>
      <trkpt lat="46.23875" lon="6.309">
        <ele>521.79998779297</ele>
        <time>2020-02-23T16:07:09Z</time>
      </trkpt>
      <trkpt lat="46.23879" lon="6.30903">
        <ele>521.79998779297</ele>
        <time>2020-02-23T16:07:10Z</time>
      </trkpt>
      <trkpt lat="46.23884" lon="6.30906">
        <ele>521.79998779297</ele>
        <time>2020-02-23T16:07:11Z</time>
      </trkpt>
      <trkpt lat="46.23888" lon="6.30909">
        <ele>521.79998779297</ele>
        <time>2020-02-23T16:07:12Z</time>
      </trkpt>
      <trkpt lat="46.23905" lon="6.30921">
        <ele>521.79998779297</ele>
        <time>2020-02-23T16:07:16Z</time>
      </trkpt>
      <trkpt lat="46.2391" lon="6.30922">
        <ele>521.59997558594</ele>
        <time>2020-02-23T16:07:17Z</time>
      </trkpt>
      <trkpt lat="46.23913" lon="6.30923">
        <ele>521.59997558594</ele>
        <time>2020-02-23T16:07:18Z</time>
      </trkpt>
      <trkpt lat="46.23916" lon="6.30924">
        <ele>521.59997558594</ele>
        <time>2020-02-23T16:07:19Z</time>
      </trkpt>
      <trkpt lat="46.23918" lon="6.30924">
        <ele>521.59997558594</ele>
        <time>2020-02-23T16:07:20Z</time>
      </trkpt>
      <trkpt lat="46.2392" lon="6.30924">
        <ele>521.59997558594</ele>
        <time>2020-02-23T16:07:21Z</time>
      </trkpt>
      <trkpt lat="46.23921" lon="6.30922">
        <ele>521.59997558594</ele>
        <time>2020-02-23T16:07:22Z</time>
      </trkpt>
      <trkpt lat="46.23922" lon="6.30919">
        <ele>521.59997558594</ele>
        <time>2020-02-23T16:07:23Z</time>
      </trkpt>
      <trkpt lat="46.23922" lon="6.30917">
        <ele>521.40002441406</ele>
        <time>2020-02-23T16:07:24Z</time>
      </trkpt>
      <trkpt lat="46.23922" lon="6.30914">
        <ele>521.40002441406</ele>
        <time>2020-02-23T16:07:25Z</time>
      </trkpt>
      <trkpt lat="46.23922" lon="6.30911">
        <ele>521.40002441406</ele>
        <time>2020-02-23T16:07:26Z</time>
      </trkpt>
      <trkpt lat="46.23923" lon="6.30908">
        <ele>521.40002441406</ele>
        <time>2020-02-23T16:07:27Z</time>
      </trkpt>
      <trkpt lat="46.23923" lon="6.30905">
        <ele>521.40002441406</ele>
        <time>2020-02-23T16:07:28Z</time>
      </trkpt>
      <trkpt lat="46.23926" lon="6.30893">
        <ele>521.40002441406</ele>
        <time>2020-02-23T16:07:31Z</time>
      </trkpt>
      <trkpt lat="46.23934" lon="6.30857">
        <ele>521</ele>
        <time>2020-02-23T16:07:38Z</time>
      </trkpt>
      <trkpt lat="46.23941" lon="6.3083">
        <ele>521</ele>
        <time>2020-02-23T16:07:42Z</time>
      </trkpt>
      <trkpt lat="46.23943" lon="6.30824">
        <ele>521</ele>
        <time>2020-02-23T16:07:43Z</time>
      </trkpt>
      <trkpt lat="46.23944" lon="6.30817">
        <ele>521</ele>
        <time>2020-02-23T16:07:44Z</time>
      </trkpt>
      <trkpt lat="46.23946" lon="6.30811">
        <ele>520.59997558594</ele>
        <time>2020-02-23T16:07:45Z</time>
      </trkpt>
      <trkpt lat="46.23947" lon="6.30804">
        <ele>520.59997558594</ele>
        <time>2020-02-23T16:07:46Z</time>
      </trkpt>
      <trkpt lat="46.23948" lon="6.30798">
        <ele>520.59997558594</ele>
        <time>2020-02-23T16:07:47Z</time>
      </trkpt>
      <trkpt lat="46.23953" lon="6.30779">
        <ele>520.40002441406</ele>
        <time>2020-02-23T16:07:50Z</time>
      </trkpt>
      <trkpt lat="46.23955" lon="6.30772">
        <ele>520.40002441406</ele>
        <time>2020-02-23T16:07:51Z</time>
      </trkpt>
      <trkpt lat="46.23956" lon="6.30766">
        <ele>520.20001220703</ele>
        <time>2020-02-23T16:07:52Z</time>
      </trkpt>
      <trkpt lat="46.23959" lon="6.30753">
        <ele>520.20001220703</ele>
        <time>2020-02-23T16:07:54Z</time>
      </trkpt>
      <trkpt lat="46.23961" lon="6.30747">
        <ele>520.20001220703</ele>
        <time>2020-02-23T16:07:55Z</time>
      </trkpt>
      <trkpt lat="46.23963" lon="6.3074">
        <ele>520</ele>
        <time>2020-02-23T16:07:56Z</time>
      </trkpt>
      <trkpt lat="46.23965" lon="6.30735">
        <ele>520</ele>
        <time>2020-02-23T16:07:57Z</time>
      </trkpt>
      <trkpt lat="46.23968" lon="6.3073">
        <ele>520.20001220703</ele>
        <time>2020-02-23T16:07:58Z</time>
      </trkpt>
      <trkpt lat="46.23971" lon="6.30725">
        <ele>520</ele>
        <time>2020-02-23T16:07:59Z</time>
      </trkpt>
      <trkpt lat="46.23975" lon="6.30721">
        <ele>519.79998779297</ele>
        <time>2020-02-23T16:08:00Z</time>
      </trkpt>
      <trkpt lat="46.23979" lon="6.30719">
        <ele>519.59997558594</ele>
        <time>2020-02-23T16:08:01Z</time>
      </trkpt>
      <trkpt lat="46.23984" lon="6.30718">
        <ele>519.59997558594</ele>
        <time>2020-02-23T16:08:02Z</time>
      </trkpt>
      <trkpt lat="46.23988" lon="6.30718">
        <ele>519.40002441406</ele>
        <time>2020-02-23T16:08:03Z</time>
      </trkpt>
      <trkpt lat="46.23992" lon="6.3072">
        <ele>519.40002441406</ele>
        <time>2020-02-23T16:08:04Z</time>
      </trkpt>
      <trkpt lat="46.23996" lon="6.30723">
        <ele>519.40002441406</ele>
        <time>2020-02-23T16:08:05Z</time>
      </trkpt>
      <trkpt lat="46.23999" lon="6.30726">
        <ele>519.40002441406</ele>
        <time>2020-02-23T16:08:06Z</time>
      </trkpt>
      <trkpt lat="46.24003" lon="6.30729">
        <ele>519.20001220703</ele>
        <time>2020-02-23T16:08:07Z</time>
      </trkpt>
      <trkpt lat="46.24006" lon="6.30732">
        <ele>519.20001220703</ele>
        <time>2020-02-23T16:08:08Z</time>
      </trkpt>
      <trkpt lat="46.2401" lon="6.30735">
        <ele>519.20001220703</ele>
        <time>2020-02-23T16:08:09Z</time>
      </trkpt>
      <trkpt lat="46.24013" lon="6.30738">
        <ele>519.20001220703</ele>
        <time>2020-02-23T16:08:10Z</time>
      </trkpt>
      <trkpt lat="46.24028" lon="6.3075">
        <ele>519.20001220703</ele>
        <time>2020-02-23T16:08:14Z</time>
      </trkpt>
      <trkpt lat="46.24056" lon="6.30773">
        <ele>519.40002441406</ele>
        <time>2020-02-23T16:08:21Z</time>
      </trkpt>
      <trkpt lat="46.24065" lon="6.30781">
        <ele>519.40002441406</ele>
        <time>2020-02-23T16:08:23Z</time>
      </trkpt>
      <trkpt lat="46.24069" lon="6.30784">
        <ele>519.59997558594</ele>
        <time>2020-02-23T16:08:24Z</time>
      </trkpt>
      <trkpt lat="46.24074" lon="6.30788">
        <ele>519.40002441406</ele>
        <time>2020-02-23T16:08:25Z</time>
      </trkpt>
      <trkpt lat="46.24078" lon="6.30791">
        <ele>519.59997558594</ele>
        <time>2020-02-23T16:08:26Z</time>
      </trkpt>
      <trkpt lat="46.24081" lon="6.30795">
        <ele>519.59997558594</ele>
        <time>2020-02-23T16:08:27Z</time>
      </trkpt>
      <trkpt lat="46.24085" lon="6.30798">
        <ele>519.59997558594</ele>
        <time>2020-02-23T16:08:28Z</time>
      </trkpt>
      <trkpt lat="46.24088" lon="6.30801">
        <ele>519.59997558594</ele>
        <time>2020-02-23T16:08:29Z</time>
      </trkpt>
      <trkpt lat="46.24091" lon="6.30803">
        <ele>519.59997558594</ele>
        <time>2020-02-23T16:08:30Z</time>
      </trkpt>
      <trkpt lat="46.24095" lon="6.30805">
        <ele>519.59997558594</ele>
        <time>2020-02-23T16:08:31Z</time>
      </trkpt>
      <trkpt lat="46.24098" lon="6.30807">
        <ele>519.79998779297</ele>
        <time>2020-02-23T16:08:32Z</time>
      </trkpt>
      <trkpt lat="46.241" lon="6.3081">
        <ele>520</ele>
        <time>2020-02-23T16:08:33Z</time>
      </trkpt>
      <trkpt lat="46.24103" lon="6.30812">
        <ele>519.79998779297</ele>
        <time>2020-02-23T16:08:34Z</time>
      </trkpt>
      <trkpt lat="46.24105" lon="6.30815">
        <ele>519.79998779297</ele>
        <time>2020-02-23T16:08:35Z</time>
      </trkpt>
      <trkpt lat="46.24107" lon="6.30817">
        <ele>520</ele>
        <time>2020-02-23T16:08:36Z</time>
      </trkpt>
      <trkpt lat="46.2411" lon="6.30818">
        <ele>520</ele>
        <time>2020-02-23T16:08:37Z</time>
      </trkpt>
      <trkpt lat="46.24112" lon="6.3082">
        <ele>520</ele>
        <time>2020-02-23T16:08:38Z</time>
      </trkpt>
      <trkpt lat="46.24113" lon="6.30821">
        <ele>520</ele>
        <time>2020-02-23T16:08:39Z</time>
      </trkpt>
      <trkpt lat="46.24115" lon="6.30823">
        <ele>520.20001220703</ele>
        <time>2020-02-23T16:08:40Z</time>
      </trkpt>
      <trkpt lat="46.24127" lon="6.30831">
        <ele>520.40002441406</ele>
        <time>2020-02-23T16:08:45Z</time>
      </trkpt>
      <trkpt lat="46.24129" lon="6.30833">
        <ele>520.59997558594</ele>
        <time>2020-02-23T16:08:46Z</time>
      </trkpt>
      <trkpt lat="46.24131" lon="6.30834">
        <ele>520.59997558594</ele>
        <time>2020-02-23T16:08:47Z</time>
      </trkpt>
      <trkpt lat="46.24148" lon="6.30848">
        <ele>520.79998779297</ele>
        <time>2020-02-23T16:08:53Z</time>
      </trkpt>
      <trkpt lat="46.24159" lon="6.30857">
        <ele>521</ele>
        <time>2020-02-23T16:08:56Z</time>
      </trkpt>
      <trkpt lat="46.24163" lon="6.3086">
        <ele>520.79998779297</ele>
        <time>2020-02-23T16:08:57Z</time>
      </trkpt>
      <trkpt lat="46.24166" lon="6.30863">
        <ele>521</ele>
        <time>2020-02-23T16:08:58Z</time>
      </trkpt>
      <trkpt lat="46.2417" lon="6.30866">
        <ele>521</ele>
        <time>2020-02-23T16:08:59Z</time>
      </trkpt>
      <trkpt lat="46.24173" lon="6.30868">
        <ele>521</ele>
        <time>2020-02-23T16:09:00Z</time>
      </trkpt>
      <trkpt lat="46.24177" lon="6.30871">
        <ele>520.79998779297</ele>
        <time>2020-02-23T16:09:01Z</time>
      </trkpt>
      <trkpt lat="46.2418" lon="6.30874">
        <ele>520.79998779297</ele>
        <time>2020-02-23T16:09:02Z</time>
      </trkpt>
      <trkpt lat="46.24184" lon="6.30876">
        <ele>521</ele>
        <time>2020-02-23T16:09:03Z</time>
      </trkpt>
      <trkpt lat="46.24201" lon="6.30889">
        <ele>520.79998779297</ele>
        <time>2020-02-23T16:09:08Z</time>
      </trkpt>
      <trkpt lat="46.24205" lon="6.30892">
        <ele>520.79998779297</ele>
        <time>2020-02-23T16:09:09Z</time>
      </trkpt>
      <trkpt lat="46.24227" lon="6.3091">
        <ele>520</ele>
        <time>2020-02-23T16:09:15Z</time>
      </trkpt>
      <trkpt lat="46.24231" lon="6.30913">
        <ele>520</ele>
        <time>2020-02-23T16:09:16Z</time>
      </trkpt>
      <trkpt lat="46.24265" lon="6.30945">
        <ele>519.59997558594</ele>
        <time>2020-02-23T16:09:25Z</time>
      </trkpt>
      <trkpt lat="46.24269" lon="6.30949">
        <ele>519.59997558594</ele>
        <time>2020-02-23T16:09:26Z</time>
      </trkpt>
      <trkpt lat="46.24277" lon="6.30956">
        <ele>519.20001220703</ele>
        <time>2020-02-23T16:09:28Z</time>
      </trkpt>
      <trkpt lat="46.24281" lon="6.30959">
        <ele>519</ele>
        <time>2020-02-23T16:09:29Z</time>
      </trkpt>
      <trkpt lat="46.2429" lon="6.30965">
        <ele>518.79998779297</ele>
        <time>2020-02-23T16:09:31Z</time>
      </trkpt>
      <trkpt lat="46.24299" lon="6.30971">
        <ele>518.59997558594</ele>
        <time>2020-02-23T16:09:33Z</time>
      </trkpt>
      <trkpt lat="46.24325" lon="6.30987">
        <ele>518.20001220703</ele>
        <time>2020-02-23T16:09:38Z</time>
      </trkpt>
      <trkpt lat="46.24331" lon="6.3099">
        <ele>518.20001220703</ele>
        <time>2020-02-23T16:09:39Z</time>
      </trkpt>
      <trkpt lat="46.24359" lon="6.31008">
        <ele>516.79998779297</ele>
        <time>2020-02-23T16:09:44Z</time>
      </trkpt>
      <trkpt lat="46.24364" lon="6.31012">
        <ele>516.59997558594</ele>
        <time>2020-02-23T16:09:45Z</time>
      </trkpt>
      <trkpt lat="46.2437" lon="6.31017">
        <ele>516.40002441406</ele>
        <time>2020-02-23T16:09:46Z</time>
      </trkpt>
      <trkpt lat="46.24374" lon="6.31023">
        <ele>516.40002441406</ele>
        <time>2020-02-23T16:09:47Z</time>
      </trkpt>
      <trkpt lat="46.24379" lon="6.31029">
        <ele>515.79998779297</ele>
        <time>2020-02-23T16:09:48Z</time>
      </trkpt>
      <trkpt lat="46.24383" lon="6.31034">
        <ele>515.59997558594</ele>
        <time>2020-02-23T16:09:49Z</time>
      </trkpt>
      <trkpt lat="46.24388" lon="6.31038">
        <ele>515.40002441406</ele>
        <time>2020-02-23T16:09:50Z</time>
      </trkpt>
      <trkpt lat="46.24394" lon="6.3104">
        <ele>515.40002441406</ele>
        <time>2020-02-23T16:09:51Z</time>
      </trkpt>
      <trkpt lat="46.24399" lon="6.3104">
        <ele>515.20001220703</ele>
        <time>2020-02-23T16:09:52Z</time>
      </trkpt>
      <trkpt lat="46.24403" lon="6.31038">
        <ele>515.40002441406</ele>
        <time>2020-02-23T16:09:53Z</time>
      </trkpt>
      <trkpt lat="46.24407" lon="6.31036">
        <ele>515.20001220703</ele>
        <time>2020-02-23T16:09:54Z</time>
      </trkpt>
      <trkpt lat="46.24411" lon="6.31035">
        <ele>515.20001220703</ele>
        <time>2020-02-23T16:09:55Z</time>
      </trkpt>
      <trkpt lat="46.24415" lon="6.31033">
        <ele>515.20001220703</ele>
        <time>2020-02-23T16:09:56Z</time>
      </trkpt>
      <trkpt lat="46.24418" lon="6.31032">
        <ele>515.20001220703</ele>
        <time>2020-02-23T16:09:57Z</time>
      </trkpt>
      <trkpt lat="46.24421" lon="6.3103">
        <ele>515.20001220703</ele>
        <time>2020-02-23T16:09:58Z</time>
      </trkpt>
      <trkpt lat="46.24425" lon="6.31029">
        <ele>515.20001220703</ele>
        <time>2020-02-23T16:09:59Z</time>
      </trkpt>
      <trkpt lat="46.24428" lon="6.31027">
        <ele>515.20001220703</ele>
        <time>2020-02-23T16:10:00Z</time>
      </trkpt>
      <trkpt lat="46.24432" lon="6.31025">
        <ele>515.20001220703</ele>
        <time>2020-02-23T16:10:01Z</time>
      </trkpt>
      <trkpt lat="46.24435" lon="6.31024">
        <ele>515.20001220703</ele>
        <time>2020-02-23T16:10:02Z</time>
      </trkpt>
      <trkpt lat="46.24439" lon="6.31023">
        <ele>515.40002441406</ele>
        <time>2020-02-23T16:10:03Z</time>
      </trkpt>
      <trkpt lat="46.24443" lon="6.31021">
        <ele>515.59997558594</ele>
        <time>2020-02-23T16:10:04Z</time>
      </trkpt>
      <trkpt lat="46.24447" lon="6.3102">
        <ele>516</ele>
        <time>2020-02-23T16:10:05Z</time>
      </trkpt>
      <trkpt lat="46.24451" lon="6.31018">
        <ele>516.20001220703</ele>
        <time>2020-02-23T16:10:06Z</time>
      </trkpt>
      <trkpt lat="46.24456" lon="6.31017">
        <ele>516.59997558594</ele>
        <time>2020-02-23T16:10:07Z</time>
      </trkpt>
      <trkpt lat="46.2446" lon="6.31016">
        <ele>516.59997558594</ele>
        <time>2020-02-23T16:10:08Z</time>
      </trkpt>
      <trkpt lat="46.24464" lon="6.31015">
        <ele>516.79998779297</ele>
        <time>2020-02-23T16:10:09Z</time>
      </trkpt>
      <trkpt lat="46.24469" lon="6.31014">
        <ele>517</ele>
        <time>2020-02-23T16:10:10Z</time>
      </trkpt>
      <trkpt lat="46.24488" lon="6.31012">
        <ele>517.20001220703</ele>
        <time>2020-02-23T16:10:14Z</time>
      </trkpt>
      <trkpt lat="46.24493" lon="6.31012">
        <ele>517.59997558594</ele>
        <time>2020-02-23T16:10:15Z</time>
      </trkpt>
      <trkpt lat="46.24497" lon="6.31011">
        <ele>517.40002441406</ele>
        <time>2020-02-23T16:10:16Z</time>
      </trkpt>
      <trkpt lat="46.24501" lon="6.31011">
        <ele>517.59997558594</ele>
        <time>2020-02-23T16:10:17Z</time>
      </trkpt>
      <trkpt lat="46.24505" lon="6.31011">
        <ele>517.79998779297</ele>
        <time>2020-02-23T16:10:18Z</time>
      </trkpt>
      <trkpt lat="46.24509" lon="6.31011">
        <ele>517.79998779297</ele>
        <time>2020-02-23T16:10:19Z</time>
      </trkpt>
      <trkpt lat="46.24512" lon="6.3101">
        <ele>517.79998779297</ele>
        <time>2020-02-23T16:10:20Z</time>
      </trkpt>
      <trkpt lat="46.24515" lon="6.31009">
        <ele>517.79998779297</ele>
        <time>2020-02-23T16:10:21Z</time>
      </trkpt>
      <trkpt lat="46.24518" lon="6.31008">
        <ele>518</ele>
        <time>2020-02-23T16:10:22Z</time>
      </trkpt>
      <trkpt lat="46.24522" lon="6.31007">
        <ele>518</ele>
        <time>2020-02-23T16:10:23Z</time>
      </trkpt>
      <trkpt lat="46.24529" lon="6.31004">
        <ele>518.59997558594</ele>
        <time>2020-02-23T16:10:25Z</time>
      </trkpt>
      <trkpt lat="46.24532" lon="6.31002">
        <ele>519</ele>
        <time>2020-02-23T16:10:26Z</time>
      </trkpt>
      <trkpt lat="46.24535" lon="6.30999">
        <ele>519</ele>
        <time>2020-02-23T16:10:27Z</time>
      </trkpt>
      <trkpt lat="46.24539" lon="6.30995">
        <ele>519.20001220703</ele>
        <time>2020-02-23T16:10:28Z</time>
      </trkpt>
      <trkpt lat="46.24566" lon="6.30958">
        <ele>519.40002441406</ele>
        <time>2020-02-23T16:10:36Z</time>
      </trkpt>
      <trkpt lat="46.24574" lon="6.30949">
        <ele>519.40002441406</ele>
        <time>2020-02-23T16:10:38Z</time>
      </trkpt>
      <trkpt lat="46.24578" lon="6.30945">
        <ele>519.40002441406</ele>
        <time>2020-02-23T16:10:39Z</time>
      </trkpt>
      <trkpt lat="46.24583" lon="6.30942">
        <ele>519.59997558594</ele>
        <time>2020-02-23T16:10:40Z</time>
      </trkpt>
      <trkpt lat="46.24587" lon="6.3094">
        <ele>519.59997558594</ele>
        <time>2020-02-23T16:10:41Z</time>
      </trkpt>
      <trkpt lat="46.24591" lon="6.30938">
        <ele>519.59997558594</ele>
        <time>2020-02-23T16:10:42Z</time>
      </trkpt>
      <trkpt lat="46.24595" lon="6.30937">
        <ele>519.40002441406</ele>
        <time>2020-02-23T16:10:43Z</time>
      </trkpt>
      <trkpt lat="46.24599" lon="6.30936">
        <ele>519.59997558594</ele>
        <time>2020-02-23T16:10:44Z</time>
      </trkpt>
      <trkpt lat="46.24602" lon="6.30935">
        <ele>519.40002441406</ele>
        <time>2020-02-23T16:10:45Z</time>
      </trkpt>
      <trkpt lat="46.24606" lon="6.30935">
        <ele>519.40002441406</ele>
        <time>2020-02-23T16:10:46Z</time>
      </trkpt>
      <trkpt lat="46.24634" lon="6.3093">
        <ele>519.79998779297</ele>
        <time>2020-02-23T16:10:53Z</time>
      </trkpt>
      <trkpt lat="46.24648" lon="6.30926">
        <ele>519.59997558594</ele>
        <time>2020-02-23T16:10:56Z</time>
      </trkpt>
      <trkpt lat="46.24653" lon="6.30925">
        <ele>519.79998779297</ele>
        <time>2020-02-23T16:10:57Z</time>
      </trkpt>
      <trkpt lat="46.24657" lon="6.30923">
        <ele>519.79998779297</ele>
        <time>2020-02-23T16:10:58Z</time>
      </trkpt>
      <trkpt lat="46.24661" lon="6.30922">
        <ele>519.79998779297</ele>
        <time>2020-02-23T16:10:59Z</time>
      </trkpt>
      <trkpt lat="46.24665" lon="6.3092">
        <ele>519.79998779297</ele>
        <time>2020-02-23T16:11:00Z</time>
      </trkpt>
      <trkpt lat="46.24669" lon="6.30918">
        <ele>519.79998779297</ele>
        <time>2020-02-23T16:11:01Z</time>
      </trkpt>
      <trkpt lat="46.24673" lon="6.30916">
        <ele>519.79998779297</ele>
        <time>2020-02-23T16:11:02Z</time>
      </trkpt>
      <trkpt lat="46.24676" lon="6.30915">
        <ele>519.79998779297</ele>
        <time>2020-02-23T16:11:03Z</time>
      </trkpt>
      <trkpt lat="46.2468" lon="6.30913">
        <ele>519.79998779297</ele>
        <time>2020-02-23T16:11:04Z</time>
      </trkpt>
      <trkpt lat="46.24691" lon="6.30908">
        <ele>519.79998779297</ele>
        <time>2020-02-23T16:11:07Z</time>
      </trkpt>
      <trkpt lat="46.24713" lon="6.30898">
        <ele>519.79998779297</ele>
        <time>2020-02-23T16:11:12Z</time>
      </trkpt>
      <trkpt lat="46.24727" lon="6.30893">
        <ele>519.79998779297</ele>
        <time>2020-02-23T16:11:15Z</time>
      </trkpt>
      <trkpt lat="46.24732" lon="6.30891">
        <ele>519.79998779297</ele>
        <time>2020-02-23T16:11:16Z</time>
      </trkpt>
      <trkpt lat="46.24736" lon="6.3089">
        <ele>519.79998779297</ele>
        <time>2020-02-23T16:11:17Z</time>
      </trkpt>
      <trkpt lat="46.2474" lon="6.30888">
        <ele>519.79998779297</ele>
        <time>2020-02-23T16:11:18Z</time>
      </trkpt>
      <trkpt lat="46.24744" lon="6.30886">
        <ele>519.79998779297</ele>
        <time>2020-02-23T16:11:19Z</time>
      </trkpt>
      <trkpt lat="46.24748" lon="6.30884">
        <ele>520</ele>
        <time>2020-02-23T16:11:20Z</time>
      </trkpt>
      <trkpt lat="46.24752" lon="6.30883">
        <ele>519.79998779297</ele>
        <time>2020-02-23T16:11:21Z</time>
      </trkpt>
      <trkpt lat="46.24773" lon="6.30879">
        <ele>519.79998779297</ele>
        <time>2020-02-23T16:11:26Z</time>
      </trkpt>
      <trkpt lat="46.24778" lon="6.3088">
        <ele>520</ele>
        <time>2020-02-23T16:11:27Z</time>
      </trkpt>
      <trkpt lat="46.24783" lon="6.30882">
        <ele>520</ele>
        <time>2020-02-23T16:11:28Z</time>
      </trkpt>
      <trkpt lat="46.24787" lon="6.30884">
        <ele>520</ele>
        <time>2020-02-23T16:11:29Z</time>
      </trkpt>
      <trkpt lat="46.24792" lon="6.30886">
        <ele>519.79998779297</ele>
        <time>2020-02-23T16:11:30Z</time>
      </trkpt>
      <trkpt lat="46.24796" lon="6.30888">
        <ele>520</ele>
        <time>2020-02-23T16:11:31Z</time>
      </trkpt>
      <trkpt lat="46.248" lon="6.3089">
        <ele>520</ele>
        <time>2020-02-23T16:11:32Z</time>
      </trkpt>
      <trkpt lat="46.24804" lon="6.30893">
        <ele>519.79998779297</ele>
        <time>2020-02-23T16:11:33Z</time>
      </trkpt>
      <trkpt lat="46.24808" lon="6.30894">
        <ele>520</ele>
        <time>2020-02-23T16:11:34Z</time>
      </trkpt>
      <trkpt lat="46.24812" lon="6.30896">
        <ele>520</ele>
        <time>2020-02-23T16:11:35Z</time>
      </trkpt>
      <trkpt lat="46.24815" lon="6.30897">
        <ele>520</ele>
        <time>2020-02-23T16:11:36Z</time>
      </trkpt>
      <trkpt lat="46.24818" lon="6.30899">
        <ele>520</ele>
        <time>2020-02-23T16:11:37Z</time>
      </trkpt>
      <trkpt lat="46.24825" lon="6.30902">
        <ele>520</ele>
        <time>2020-02-23T16:11:39Z</time>
      </trkpt>
      <trkpt lat="46.24852" lon="6.30914">
        <ele>519.79998779297</ele>
        <time>2020-02-23T16:11:45Z</time>
      </trkpt>
      <trkpt lat="46.24874" lon="6.30919">
        <ele>520</ele>
        <time>2020-02-23T16:11:49Z</time>
      </trkpt>
      <trkpt lat="46.2488" lon="6.3092">
        <ele>520</ele>
        <time>2020-02-23T16:11:50Z</time>
      </trkpt>
      <trkpt lat="46.24885" lon="6.30921">
        <ele>519.59997558594</ele>
        <time>2020-02-23T16:11:51Z</time>
      </trkpt>
      <trkpt lat="46.2489" lon="6.30922">
        <ele>519.59997558594</ele>
        <time>2020-02-23T16:11:52Z</time>
      </trkpt>
      <trkpt lat="46.24896" lon="6.30923">
        <ele>519.20001220703</ele>
        <time>2020-02-23T16:11:53Z</time>
      </trkpt>
      <trkpt lat="46.24901" lon="6.30924">
        <ele>519</ele>
        <time>2020-02-23T16:11:54Z</time>
      </trkpt>
      <trkpt lat="46.24906" lon="6.30925">
        <ele>518.79998779297</ele>
        <time>2020-02-23T16:11:55Z</time>
      </trkpt>
      <trkpt lat="46.24911" lon="6.30926">
        <ele>518.59997558594</ele>
        <time>2020-02-23T16:11:56Z</time>
      </trkpt>
      <trkpt lat="46.24916" lon="6.30927">
        <ele>518.40002441406</ele>
        <time>2020-02-23T16:11:57Z</time>
      </trkpt>
      <trkpt lat="46.2492" lon="6.30928">
        <ele>518.40002441406</ele>
        <time>2020-02-23T16:11:58Z</time>
      </trkpt>
      <trkpt lat="46.24925" lon="6.30929">
        <ele>518.40002441406</ele>
        <time>2020-02-23T16:11:59Z</time>
      </trkpt>
      <trkpt lat="46.2493" lon="6.3093">
        <ele>518.40002441406</ele>
        <time>2020-02-23T16:12:00Z</time>
      </trkpt>
      <trkpt lat="46.24935" lon="6.30931">
        <ele>518.40002441406</ele>
        <time>2020-02-23T16:12:01Z</time>
      </trkpt>
      <trkpt lat="46.2494" lon="6.30932">
        <ele>518.40002441406</ele>
        <time>2020-02-23T16:12:02Z</time>
      </trkpt>
      <trkpt lat="46.24954" lon="6.30936">
        <ele>518</ele>
        <time>2020-02-23T16:12:05Z</time>
      </trkpt>
      <trkpt lat="46.24959" lon="6.30938">
        <ele>518.20001220703</ele>
        <time>2020-02-23T16:12:06Z</time>
      </trkpt>
      <trkpt lat="46.24963" lon="6.30939">
        <ele>518</ele>
        <time>2020-02-23T16:12:07Z</time>
      </trkpt>
      <trkpt lat="46.24968" lon="6.3094">
        <ele>518</ele>
        <time>2020-02-23T16:12:08Z</time>
      </trkpt>
      <trkpt lat="46.24972" lon="6.30941">
        <ele>518</ele>
        <time>2020-02-23T16:12:09Z</time>
      </trkpt>
      <trkpt lat="46.24977" lon="6.30943">
        <ele>518</ele>
        <time>2020-02-23T16:12:10Z</time>
      </trkpt>
      <trkpt lat="46.24981" lon="6.30945">
        <ele>517.79998779297</ele>
        <time>2020-02-23T16:12:11Z</time>
      </trkpt>
      <trkpt lat="46.24985" lon="6.30946">
        <ele>517.79998779297</ele>
        <time>2020-02-23T16:12:12Z</time>
      </trkpt>
      <trkpt lat="46.24989" lon="6.30947">
        <ele>517.59997558594</ele>
        <time>2020-02-23T16:12:13Z</time>
      </trkpt>
      <trkpt lat="46.24993" lon="6.30949">
        <ele>517.59997558594</ele>
        <time>2020-02-23T16:12:14Z</time>
      </trkpt>
      <trkpt lat="46.24998" lon="6.30949">
        <ele>517.79998779297</ele>
        <time>2020-02-23T16:12:15Z</time>
      </trkpt>
      <trkpt lat="46.25002" lon="6.30949">
        <ele>517.59997558594</ele>
        <time>2020-02-23T16:12:16Z</time>
      </trkpt>
      <trkpt lat="46.25006" lon="6.30948">
        <ele>517.59997558594</ele>
        <time>2020-02-23T16:12:17Z</time>
      </trkpt>
      <trkpt lat="46.2501" lon="6.30947">
        <ele>517.59997558594</ele>
        <time>2020-02-23T16:12:18Z</time>
      </trkpt>
      <trkpt lat="46.25014" lon="6.30945">
        <ele>517.59997558594</ele>
        <time>2020-02-23T16:12:19Z</time>
      </trkpt>
      <trkpt lat="46.25017" lon="6.30943">
        <ele>517.40002441406</ele>
        <time>2020-02-23T16:12:20Z</time>
      </trkpt>
      <trkpt lat="46.25021" lon="6.30941">
        <ele>517.59997558594</ele>
        <time>2020-02-23T16:12:21Z</time>
      </trkpt>
      <trkpt lat="46.25024" lon="6.30938">
        <ele>517.40002441406</ele>
        <time>2020-02-23T16:12:22Z</time>
      </trkpt>
      <trkpt lat="46.25031" lon="6.30935">
        <ele>517.59997558594</ele>
        <time>2020-02-23T16:12:24Z</time>
      </trkpt>
      <trkpt lat="46.25035" lon="6.30934">
        <ele>517.40002441406</ele>
        <time>2020-02-23T16:12:25Z</time>
      </trkpt>
      <trkpt lat="46.25039" lon="6.30935">
        <ele>517.40002441406</ele>
        <time>2020-02-23T16:12:26Z</time>
      </trkpt>
      <trkpt lat="46.25043" lon="6.30936">
        <ele>517.59997558594</ele>
        <time>2020-02-23T16:12:27Z</time>
      </trkpt>
      <trkpt lat="46.25046" lon="6.30937">
        <ele>517.40002441406</ele>
        <time>2020-02-23T16:12:28Z</time>
      </trkpt>
      <trkpt lat="46.2505" lon="6.30939">
        <ele>517.59997558594</ele>
        <time>2020-02-23T16:12:29Z</time>
      </trkpt>
      <trkpt lat="46.25056" lon="6.30944">
        <ele>517.40002441406</ele>
        <time>2020-02-23T16:12:31Z</time>
      </trkpt>
      <trkpt lat="46.2506" lon="6.30947">
        <ele>517.40002441406</ele>
        <time>2020-02-23T16:12:32Z</time>
      </trkpt>
      <trkpt lat="46.25067" lon="6.30952">
        <ele>517.59997558594</ele>
        <time>2020-02-23T16:12:34Z</time>
      </trkpt>
      <trkpt lat="46.25074" lon="6.30957">
        <ele>517.59997558594</ele>
        <time>2020-02-23T16:12:36Z</time>
      </trkpt>
      <trkpt lat="46.25105" lon="6.30981">
        <ele>518.20001220703</ele>
        <time>2020-02-23T16:12:44Z</time>
      </trkpt>
      <trkpt lat="46.25123" lon="6.30992">
        <ele>518.20001220703</ele>
        <time>2020-02-23T16:12:48Z</time>
      </trkpt>
      <trkpt lat="46.25128" lon="6.30994">
        <ele>518.40002441406</ele>
        <time>2020-02-23T16:12:49Z</time>
      </trkpt>
      <trkpt lat="46.25133" lon="6.30995">
        <ele>518.40002441406</ele>
        <time>2020-02-23T16:12:50Z</time>
      </trkpt>
      <trkpt lat="46.25137" lon="6.30997">
        <ele>518.40002441406</ele>
        <time>2020-02-23T16:12:51Z</time>
      </trkpt>
      <trkpt lat="46.25141" lon="6.30998">
        <ele>518.40002441406</ele>
        <time>2020-02-23T16:12:52Z</time>
      </trkpt>
      <trkpt lat="46.25146" lon="6.30998">
        <ele>518.40002441406</ele>
        <time>2020-02-23T16:12:53Z</time>
      </trkpt>
      <trkpt lat="46.2515" lon="6.30999">
        <ele>518.40002441406</ele>
        <time>2020-02-23T16:12:54Z</time>
      </trkpt>
      <trkpt lat="46.25167" lon="6.31001">
        <ele>518.59997558594</ele>
        <time>2020-02-23T16:12:58Z</time>
      </trkpt>
      <trkpt lat="46.25176" lon="6.31002">
        <ele>519</ele>
        <time>2020-02-23T16:13:00Z</time>
      </trkpt>
      <trkpt lat="46.25181" lon="6.31003">
        <ele>519</ele>
        <time>2020-02-23T16:13:01Z</time>
      </trkpt>
      <trkpt lat="46.25185" lon="6.31004">
        <ele>519.20001220703</ele>
        <time>2020-02-23T16:13:02Z</time>
      </trkpt>
      <trkpt lat="46.2519" lon="6.31005">
        <ele>519.20001220703</ele>
        <time>2020-02-23T16:13:03Z</time>
      </trkpt>
      <trkpt lat="46.25194" lon="6.31006">
        <ele>519</ele>
        <time>2020-02-23T16:13:04Z</time>
      </trkpt>
      <trkpt lat="46.25198" lon="6.31007">
        <ele>519</ele>
        <time>2020-02-23T16:13:05Z</time>
      </trkpt>
      <trkpt lat="46.25201" lon="6.31008">
        <ele>519.20001220703</ele>
        <time>2020-02-23T16:13:06Z</time>
      </trkpt>
      <trkpt lat="46.25226" lon="6.3102">
        <ele>519.20001220703</ele>
        <time>2020-02-23T16:13:12Z</time>
      </trkpt>
      <trkpt lat="46.25247" lon="6.31032">
        <ele>519.20001220703</ele>
        <time>2020-02-23T16:13:17Z</time>
      </trkpt>
      <trkpt lat="46.25251" lon="6.31034">
        <ele>519.20001220703</ele>
        <time>2020-02-23T16:13:18Z</time>
      </trkpt>
      <trkpt lat="46.25256" lon="6.31036">
        <ele>519.20001220703</ele>
        <time>2020-02-23T16:13:19Z</time>
      </trkpt>
      <trkpt lat="46.2526" lon="6.31039">
        <ele>519.20001220703</ele>
        <time>2020-02-23T16:13:20Z</time>
      </trkpt>
      <trkpt lat="46.25264" lon="6.31041">
        <ele>519.20001220703</ele>
        <time>2020-02-23T16:13:21Z</time>
      </trkpt>
      <trkpt lat="46.253" lon="6.31057">
        <ele>519</ele>
        <time>2020-02-23T16:13:29Z</time>
      </trkpt>
      <trkpt lat="46.25305" lon="6.31059">
        <ele>519</ele>
        <time>2020-02-23T16:13:30Z</time>
      </trkpt>
      <trkpt lat="46.25309" lon="6.31062">
        <ele>518.79998779297</ele>
        <time>2020-02-23T16:13:31Z</time>
      </trkpt>
      <trkpt lat="46.25318" lon="6.31069">
        <ele>519</ele>
        <time>2020-02-23T16:13:33Z</time>
      </trkpt>
      <trkpt lat="46.25322" lon="6.31073">
        <ele>518.59997558594</ele>
        <time>2020-02-23T16:13:34Z</time>
      </trkpt>
      <trkpt lat="46.25325" lon="6.31077">
        <ele>518.79998779297</ele>
        <time>2020-02-23T16:13:35Z</time>
      </trkpt>
      <trkpt lat="46.25329" lon="6.31082">
        <ele>518.79998779297</ele>
        <time>2020-02-23T16:13:36Z</time>
      </trkpt>
      <trkpt lat="46.25346" lon="6.3111">
        <ele>518.20001220703</ele>
        <time>2020-02-23T16:13:41Z</time>
      </trkpt>
      <trkpt lat="46.25351" lon="6.31123">
        <ele>518.20001220703</ele>
        <time>2020-02-23T16:13:43Z</time>
      </trkpt>
      <trkpt lat="46.25353" lon="6.3113">
        <ele>518.20001220703</ele>
        <time>2020-02-23T16:13:44Z</time>
      </trkpt>
      <trkpt lat="46.25355" lon="6.31137">
        <ele>518</ele>
        <time>2020-02-23T16:13:45Z</time>
      </trkpt>
      <trkpt lat="46.25357" lon="6.31143">
        <ele>518</ele>
        <time>2020-02-23T16:13:46Z</time>
      </trkpt>
      <trkpt lat="46.25358" lon="6.31149">
        <ele>518.20001220703</ele>
        <time>2020-02-23T16:13:47Z</time>
      </trkpt>
      <trkpt lat="46.2536" lon="6.31155">
        <ele>518</ele>
        <time>2020-02-23T16:13:48Z</time>
      </trkpt>
      <trkpt lat="46.25361" lon="6.3116">
        <ele>518.20001220703</ele>
        <time>2020-02-23T16:13:49Z</time>
      </trkpt>
      <trkpt lat="46.25362" lon="6.31165">
        <ele>518.20001220703</ele>
        <time>2020-02-23T16:13:50Z</time>
      </trkpt>
      <trkpt lat="46.25363" lon="6.3117">
        <ele>518.20001220703</ele>
        <time>2020-02-23T16:13:51Z</time>
      </trkpt>
      <trkpt lat="46.25364" lon="6.31174">
        <ele>518</ele>
        <time>2020-02-23T16:13:52Z</time>
      </trkpt>
      <trkpt lat="46.25365" lon="6.31179">
        <ele>518.20001220703</ele>
        <time>2020-02-23T16:13:53Z</time>
      </trkpt>
      <trkpt lat="46.25366" lon="6.31183">
        <ele>518.20001220703</ele>
        <time>2020-02-23T16:13:54Z</time>
      </trkpt>
      <trkpt lat="46.25368" lon="6.31192">
        <ele>518.20001220703</ele>
        <time>2020-02-23T16:13:56Z</time>
      </trkpt>
      <trkpt lat="46.25371" lon="6.312">
        <ele>518.59997558594</ele>
        <time>2020-02-23T16:13:58Z</time>
      </trkpt>
      <trkpt lat="46.25374" lon="6.31202">
        <ele>518.59997558594</ele>
        <time>2020-02-23T16:13:59Z</time>
      </trkpt>
      <trkpt lat="46.25377" lon="6.31203">
        <ele>518.79998779297</ele>
        <time>2020-02-23T16:14:00Z</time>
      </trkpt>
      <trkpt lat="46.25381" lon="6.31201">
        <ele>518.79998779297</ele>
        <time>2020-02-23T16:14:01Z</time>
      </trkpt>
      <trkpt lat="46.25384" lon="6.31196">
        <ele>519</ele>
        <time>2020-02-23T16:14:02Z</time>
      </trkpt>
      <trkpt lat="46.25386" lon="6.3119">
        <ele>519.20001220703</ele>
        <time>2020-02-23T16:14:03Z</time>
      </trkpt>
      <trkpt lat="46.25391" lon="6.31177">
        <ele>519</ele>
        <time>2020-02-23T16:14:05Z</time>
      </trkpt>
      <trkpt lat="46.25397" lon="6.31163">
        <ele>519</ele>
        <time>2020-02-23T16:14:07Z</time>
      </trkpt>
      <trkpt lat="46.254" lon="6.31155">
        <ele>519</ele>
        <time>2020-02-23T16:14:08Z</time>
      </trkpt>
      <trkpt lat="46.25407" lon="6.3114">
        <ele>519</ele>
        <time>2020-02-23T16:14:10Z</time>
      </trkpt>
      <trkpt lat="46.25418" lon="6.31114">
        <ele>518.59997558594</ele>
        <time>2020-02-23T16:14:13Z</time>
      </trkpt>
      <trkpt lat="46.25434" lon="6.31077">
        <ele>517.40002441406</ele>
        <time>2020-02-23T16:14:17Z</time>
      </trkpt>
      <trkpt lat="46.25442" lon="6.31057">
        <ele>516.20001220703</ele>
        <time>2020-02-23T16:14:19Z</time>
      </trkpt>
      <trkpt lat="46.25446" lon="6.31046">
        <ele>515.40002441406</ele>
        <time>2020-02-23T16:14:20Z</time>
      </trkpt>
      <trkpt lat="46.2545" lon="6.31036">
        <ele>514.79998779297</ele>
        <time>2020-02-23T16:14:21Z</time>
      </trkpt>
      <trkpt lat="46.25457" lon="6.31015">
        <ele>514</ele>
        <time>2020-02-23T16:14:23Z</time>
      </trkpt>
      <trkpt lat="46.25471" lon="6.30985">
        <ele>512.59997558594</ele>
        <time>2020-02-23T16:14:26Z</time>
      </trkpt>
      <trkpt lat="46.25475" lon="6.30975">
        <ele>512</ele>
        <time>2020-02-23T16:14:27Z</time>
      </trkpt>
      <trkpt lat="46.2548" lon="6.30964">
        <ele>511.39999389648</ele>
        <time>2020-02-23T16:14:28Z</time>
      </trkpt>
      <trkpt lat="46.25484" lon="6.30954">
        <ele>510.79998779297</ele>
        <time>2020-02-23T16:14:29Z</time>
      </trkpt>
      <trkpt lat="46.25488" lon="6.30944">
        <ele>510</ele>
        <time>2020-02-23T16:14:30Z</time>
      </trkpt>
      <trkpt lat="46.25492" lon="6.30934">
        <ele>509.60000610352</ele>
        <time>2020-02-23T16:14:31Z</time>
      </trkpt>
      <trkpt lat="46.25497" lon="6.30924">
        <ele>509</ele>
        <time>2020-02-23T16:14:32Z</time>
      </trkpt>
      <trkpt lat="46.25501" lon="6.30914">
        <ele>508.60000610352</ele>
        <time>2020-02-23T16:14:33Z</time>
      </trkpt>
      <trkpt lat="46.25505" lon="6.30905">
        <ele>508.20001220703</ele>
        <time>2020-02-23T16:14:34Z</time>
      </trkpt>
      <trkpt lat="46.25509" lon="6.30895">
        <ele>508.39999389648</ele>
        <time>2020-02-23T16:14:35Z</time>
      </trkpt>
      <trkpt lat="46.25513" lon="6.30886">
        <ele>508</ele>
        <time>2020-02-23T16:14:36Z</time>
      </trkpt>
      <trkpt lat="46.25517" lon="6.30877">
        <ele>507.39999389648</ele>
        <time>2020-02-23T16:14:37Z</time>
      </trkpt>
      <trkpt lat="46.2552" lon="6.30869">
        <ele>507</ele>
        <time>2020-02-23T16:14:38Z</time>
      </trkpt>
      <trkpt lat="46.25522" lon="6.30861">
        <ele>506.79998779297</ele>
        <time>2020-02-23T16:14:39Z</time>
      </trkpt>
      <trkpt lat="46.25523" lon="6.30856">
        <ele>506.79998779297</ele>
        <time>2020-02-23T16:14:40Z</time>
      </trkpt>
      <trkpt lat="46.25524" lon="6.30852">
        <ele>506.79998779297</ele>
        <time>2020-02-23T16:14:41Z</time>
      </trkpt>
      <trkpt lat="46.25524" lon="6.3085">
        <ele>506.60000610352</ele>
        <time>2020-02-23T16:14:42Z</time>
      </trkpt>
      <trkpt lat="46.25525" lon="6.30849">
        <ele>506.60000610352</ele>
        <time>2020-02-23T16:14:44Z</time>
      </trkpt>
      <trkpt lat="46.25525" lon="6.30848">
        <ele>506.39999389648</ele>
        <time>2020-02-23T16:14:45Z</time>
      </trkpt>
      <trkpt lat="46.25526" lon="6.30846">
        <ele>506.39999389648</ele>
        <time>2020-02-23T16:14:46Z</time>
      </trkpt>
      <trkpt lat="46.25527" lon="6.30841">
        <ele>506.39999389648</ele>
        <time>2020-02-23T16:14:48Z</time>
      </trkpt>
      <trkpt lat="46.25527" lon="6.30838">
        <ele>506.39999389648</ele>
        <time>2020-02-23T16:14:49Z</time>
      </trkpt>
      <trkpt lat="46.25527" lon="6.30834">
        <ele>506.39999389648</ele>
        <time>2020-02-23T16:14:50Z</time>
      </trkpt>
      <trkpt lat="46.25527" lon="6.3083">
        <ele>506.39999389648</ele>
        <time>2020-02-23T16:14:51Z</time>
      </trkpt>
      <trkpt lat="46.25527" lon="6.30826">
        <ele>506.39999389648</ele>
        <time>2020-02-23T16:14:52Z</time>
      </trkpt>
      <trkpt lat="46.25528" lon="6.30821">
        <ele>506.20001220703</ele>
        <time>2020-02-23T16:14:53Z</time>
      </trkpt>
      <trkpt lat="46.25529" lon="6.30816">
        <ele>506.39999389648</ele>
        <time>2020-02-23T16:14:54Z</time>
      </trkpt>
      <trkpt lat="46.25533" lon="6.30798">
        <ele>506.20001220703</ele>
        <time>2020-02-23T16:14:57Z</time>
      </trkpt>
      <trkpt lat="46.25535" lon="6.30791">
        <ele>506.20001220703</ele>
        <time>2020-02-23T16:14:58Z</time>
      </trkpt>
      <trkpt lat="46.25536" lon="6.30785">
        <ele>505.79998779297</ele>
        <time>2020-02-23T16:14:59Z</time>
      </trkpt>
      <trkpt lat="46.25538" lon="6.30778">
        <ele>505.60000610352</ele>
        <time>2020-02-23T16:15:00Z</time>
      </trkpt>
      <trkpt lat="46.2554" lon="6.30771">
        <ele>505.39999389648</ele>
        <time>2020-02-23T16:15:01Z</time>
      </trkpt>
      <trkpt lat="46.25542" lon="6.30763">
        <ele>505.20001220703</ele>
        <time>2020-02-23T16:15:02Z</time>
      </trkpt>
      <trkpt lat="46.25554" lon="6.30723">
        <ele>503.39999389648</ele>
        <time>2020-02-23T16:15:07Z</time>
      </trkpt>
      <trkpt lat="46.25558" lon="6.30706">
        <ele>502.79998779297</ele>
        <time>2020-02-23T16:15:09Z</time>
      </trkpt>
      <trkpt lat="46.2556" lon="6.30696">
        <ele>502.39999389648</ele>
        <time>2020-02-23T16:15:10Z</time>
      </trkpt>
      <trkpt lat="46.25562" lon="6.30685">
        <ele>502</ele>
        <time>2020-02-23T16:15:11Z</time>
      </trkpt>
      <trkpt lat="46.25565" lon="6.30664">
        <ele>501.60000610352</ele>
        <time>2020-02-23T16:15:13Z</time>
      </trkpt>
      <trkpt lat="46.25565" lon="6.30653">
        <ele>501.39999389648</ele>
        <time>2020-02-23T16:15:14Z</time>
      </trkpt>
      <trkpt lat="46.25564" lon="6.3063">
        <ele>500.60000610352</ele>
        <time>2020-02-23T16:15:16Z</time>
      </trkpt>
      <trkpt lat="46.25564" lon="6.30607">
        <ele>499.39999389648</ele>
        <time>2020-02-23T16:15:18Z</time>
      </trkpt>
      <trkpt lat="46.25565" lon="6.30584">
        <ele>498.79998779297</ele>
        <time>2020-02-23T16:15:20Z</time>
      </trkpt>
      <trkpt lat="46.25569" lon="6.3055">
        <ele>497.79998779297</ele>
        <time>2020-02-23T16:15:23Z</time>
      </trkpt>
      <trkpt lat="46.25571" lon="6.30538">
        <ele>497.60000610352</ele>
        <time>2020-02-23T16:15:24Z</time>
      </trkpt>
      <trkpt lat="46.25573" lon="6.30525">
        <ele>497.39999389648</ele>
        <time>2020-02-23T16:15:25Z</time>
      </trkpt>
      <trkpt lat="46.25575" lon="6.30512">
        <ele>497</ele>
        <time>2020-02-23T16:15:26Z</time>
      </trkpt>
      <trkpt lat="46.25581" lon="6.30486">
        <ele>496.39999389648</ele>
        <time>2020-02-23T16:15:28Z</time>
      </trkpt>
      <trkpt lat="46.25585" lon="6.30474">
        <ele>496.39999389648</ele>
        <time>2020-02-23T16:15:29Z</time>
      </trkpt>
      <trkpt lat="46.2559" lon="6.30463">
        <ele>496.20001220703</ele>
        <time>2020-02-23T16:15:30Z</time>
      </trkpt>
      <trkpt lat="46.25596" lon="6.30454">
        <ele>495.79998779297</ele>
        <time>2020-02-23T16:15:31Z</time>
      </trkpt>
      <trkpt lat="46.25602" lon="6.30446">
        <ele>495.60000610352</ele>
        <time>2020-02-23T16:15:32Z</time>
      </trkpt>
      <trkpt lat="46.25608" lon="6.30438">
        <ele>494.79998779297</ele>
        <time>2020-02-23T16:15:33Z</time>
      </trkpt>
      <trkpt lat="46.25613" lon="6.30431">
        <ele>493.79998779297</ele>
        <time>2020-02-23T16:15:34Z</time>
      </trkpt>
      <trkpt lat="46.25617" lon="6.30424">
        <ele>493.39999389648</ele>
        <time>2020-02-23T16:15:35Z</time>
      </trkpt>
      <trkpt lat="46.2562" lon="6.30418">
        <ele>493</ele>
        <time>2020-02-23T16:15:36Z</time>
      </trkpt>
      <trkpt lat="46.25623" lon="6.30413">
        <ele>493</ele>
        <time>2020-02-23T16:15:37Z</time>
      </trkpt>
      <trkpt lat="46.25626" lon="6.30408">
        <ele>493</ele>
        <time>2020-02-23T16:15:38Z</time>
      </trkpt>
      <trkpt lat="46.25628" lon="6.30403">
        <ele>492.79998779297</ele>
        <time>2020-02-23T16:15:39Z</time>
      </trkpt>
      <trkpt lat="46.2563" lon="6.30398">
        <ele>492.79998779297</ele>
        <time>2020-02-23T16:15:40Z</time>
      </trkpt>
      <trkpt lat="46.25632" lon="6.30393">
        <ele>492.79998779297</ele>
        <time>2020-02-23T16:15:41Z</time>
      </trkpt>
      <trkpt lat="46.25633" lon="6.30388">
        <ele>492.79998779297</ele>
        <time>2020-02-23T16:15:42Z</time>
      </trkpt>
      <trkpt lat="46.25636" lon="6.30383">
        <ele>492.79998779297</ele>
        <time>2020-02-23T16:15:43Z</time>
      </trkpt>
      <trkpt lat="46.25638" lon="6.30378">
        <ele>493.20001220703</ele>
        <time>2020-02-23T16:15:44Z</time>
      </trkpt>
      <trkpt lat="46.25645" lon="6.30362">
        <ele>493.79998779297</ele>
        <time>2020-02-23T16:15:47Z</time>
      </trkpt>
      <trkpt lat="46.25653" lon="6.30338">
        <ele>493.79998779297</ele>
        <time>2020-02-23T16:15:51Z</time>
      </trkpt>
      <trkpt lat="46.25658" lon="6.3032">
        <ele>493.79998779297</ele>
        <time>2020-02-23T16:15:54Z</time>
      </trkpt>
      <trkpt lat="46.25672" lon="6.30274">
        <ele>493.20001220703</ele>
        <time>2020-02-23T16:16:01Z</time>
      </trkpt>
      <trkpt lat="46.25674" lon="6.30268">
        <ele>493.20001220703</ele>
        <time>2020-02-23T16:16:02Z</time>
      </trkpt>
      <trkpt lat="46.25676" lon="6.30262">
        <ele>493</ele>
        <time>2020-02-23T16:16:03Z</time>
      </trkpt>
      <trkpt lat="46.25677" lon="6.30256">
        <ele>492.79998779297</ele>
        <time>2020-02-23T16:16:04Z</time>
      </trkpt>
      <trkpt lat="46.25679" lon="6.30249">
        <ele>492.79998779297</ele>
        <time>2020-02-23T16:16:05Z</time>
      </trkpt>
      <trkpt lat="46.25681" lon="6.30243">
        <ele>492.79998779297</ele>
        <time>2020-02-23T16:16:06Z</time>
      </trkpt>
      <trkpt lat="46.25683" lon="6.30237">
        <ele>492.39999389648</ele>
        <time>2020-02-23T16:16:07Z</time>
      </trkpt>
      <trkpt lat="46.25684" lon="6.30231">
        <ele>492.60000610352</ele>
        <time>2020-02-23T16:16:08Z</time>
      </trkpt>
      <trkpt lat="46.25686" lon="6.30225">
        <ele>492.39999389648</ele>
        <time>2020-02-23T16:16:09Z</time>
      </trkpt>
      <trkpt lat="46.25688" lon="6.30219">
        <ele>492.20001220703</ele>
        <time>2020-02-23T16:16:10Z</time>
      </trkpt>
      <trkpt lat="46.25695" lon="6.30194">
        <ele>492.20001220703</ele>
        <time>2020-02-23T16:16:14Z</time>
      </trkpt>
      <trkpt lat="46.25702" lon="6.30168">
        <ele>491.60000610352</ele>
        <time>2020-02-23T16:16:18Z</time>
      </trkpt>
      <trkpt lat="46.2571" lon="6.3014">
        <ele>491.39999389648</ele>
        <time>2020-02-23T16:16:22Z</time>
      </trkpt>
      <trkpt lat="46.25721" lon="6.30104">
        <ele>490.20001220703</ele>
        <time>2020-02-23T16:16:27Z</time>
      </trkpt>
      <trkpt lat="46.25723" lon="6.30097">
        <ele>490</ele>
        <time>2020-02-23T16:16:28Z</time>
      </trkpt>
      <trkpt lat="46.25725" lon="6.3009">
        <ele>489.79998779297</ele>
        <time>2020-02-23T16:16:29Z</time>
      </trkpt>
      <trkpt lat="46.25726" lon="6.30082">
        <ele>489.60000610352</ele>
        <time>2020-02-23T16:16:30Z</time>
      </trkpt>
      <trkpt lat="46.25728" lon="6.30075">
        <ele>489.60000610352</ele>
        <time>2020-02-23T16:16:31Z</time>
      </trkpt>
      <trkpt lat="46.2573" lon="6.30068">
        <ele>489.39999389648</ele>
        <time>2020-02-23T16:16:32Z</time>
      </trkpt>
      <trkpt lat="46.25732" lon="6.30061">
        <ele>489.20001220703</ele>
        <time>2020-02-23T16:16:33Z</time>
      </trkpt>
      <trkpt lat="46.25734" lon="6.30054">
        <ele>489.20001220703</ele>
        <time>2020-02-23T16:16:34Z</time>
      </trkpt>
      <trkpt lat="46.25736" lon="6.30047">
        <ele>489.20001220703</ele>
        <time>2020-02-23T16:16:35Z</time>
      </trkpt>
      <trkpt lat="46.25738" lon="6.3004">
        <ele>489</ele>
        <time>2020-02-23T16:16:36Z</time>
      </trkpt>
      <trkpt lat="46.25742" lon="6.30026">
        <ele>488.60000610352</ele>
        <time>2020-02-23T16:16:38Z</time>
      </trkpt>
      <trkpt lat="46.25748" lon="6.30003">
        <ele>488.20001220703</ele>
        <time>2020-02-23T16:16:41Z</time>
      </trkpt>
      <trkpt lat="46.25757" lon="6.29971">
        <ele>487.39999389648</ele>
        <time>2020-02-23T16:16:45Z</time>
      </trkpt>
      <trkpt lat="46.2576" lon="6.29963">
        <ele>487</ele>
        <time>2020-02-23T16:16:46Z</time>
      </trkpt>
      <trkpt lat="46.25767" lon="6.29939">
        <ele>486.39999389648</ele>
        <time>2020-02-23T16:16:49Z</time>
      </trkpt>
      <trkpt lat="46.25778" lon="6.29898">
        <ele>484.60000610352</ele>
        <time>2020-02-23T16:16:54Z</time>
      </trkpt>
      <trkpt lat="46.25784" lon="6.29881">
        <ele>484</ele>
        <time>2020-02-23T16:16:56Z</time>
      </trkpt>
      <trkpt lat="46.25792" lon="6.29855">
        <ele>483.60000610352</ele>
        <time>2020-02-23T16:16:59Z</time>
      </trkpt>
      <trkpt lat="46.258" lon="6.29829">
        <ele>483.20001220703</ele>
        <time>2020-02-23T16:17:02Z</time>
      </trkpt>
      <trkpt lat="46.25802" lon="6.29821">
        <ele>483.20001220703</ele>
        <time>2020-02-23T16:17:03Z</time>
      </trkpt>
      <trkpt lat="46.25803" lon="6.29816">
        <ele>483</ele>
        <time>2020-02-23T16:17:04Z</time>
      </trkpt>
      <trkpt lat="46.25804" lon="6.29813">
        <ele>482.79998779297</ele>
        <time>2020-02-23T16:17:05Z</time>
      </trkpt>
      <trkpt lat="46.25805" lon="6.29811">
        <ele>482.79998779297</ele>
        <time>2020-02-23T16:17:06Z</time>
      </trkpt>
      <trkpt lat="46.25805" lon="6.29811">
        <ele>482.39999389648</ele>
        <time>2020-02-23T16:17:07Z</time>
      </trkpt>
      <trkpt lat="46.25805" lon="6.29812">
        <ele>480.79998779297</ele>
        <time>2020-02-23T16:17:22Z</time>
      </trkpt>
      <trkpt lat="46.25806" lon="6.29812">
        <ele>480.79998779297</ele>
        <time>2020-02-23T16:17:23Z</time>
      </trkpt>
      <trkpt lat="46.25806" lon="6.29811">
        <ele>480.79998779297</ele>
        <time>2020-02-23T16:17:24Z</time>
      </trkpt>
      <trkpt lat="46.25806" lon="6.29811">
        <ele>480.79998779297</ele>
        <time>2020-02-23T16:17:29Z</time>
      </trkpt>
      <trkpt lat="46.25807" lon="6.29811">
        <ele>480.60000610352</ele>
        <time>2020-02-23T16:17:41Z</time>
      </trkpt>
      <trkpt lat="46.25807" lon="6.29812">
        <ele>480.79998779297</ele>
        <time>2020-02-23T16:18:15Z</time>
      </trkpt>
      <trkpt lat="46.25806" lon="6.29812">
        <ele>480.39999389648</ele>
        <time>2020-02-23T16:18:53Z</time>
      </trkpt>
      <trkpt lat="46.25806" lon="6.29813">
        <ele>480</ele>
        <time>2020-02-23T16:19:39Z</time>
      </trkpt>
      <trkpt lat="46.25807" lon="6.29813">
        <ele>479.79998779297</ele>
        <time>2020-02-23T16:20:55Z</time>
      </trkpt>
      <trkpt lat="46.25806" lon="6.29811">
        <ele>480</ele>
        <time>2020-02-23T16:22:05Z</time>
      </trkpt>
      <trkpt lat="46.25806" lon="6.2981">
        <ele>480</ele>
        <time>2020-02-23T16:22:06Z</time>
      </trkpt>
      <trkpt lat="46.25806" lon="6.29808">
        <ele>480</ele>
        <time>2020-02-23T16:22:07Z</time>
      </trkpt>
      <trkpt lat="46.25806" lon="6.29807">
        <ele>479.79998779297</ele>
        <time>2020-02-23T16:22:08Z</time>
      </trkpt>
      <trkpt lat="46.25806" lon="6.29806">
        <ele>480</ele>
        <time>2020-02-23T16:22:09Z</time>
      </trkpt>
      <trkpt lat="46.25806" lon="6.29805">
        <ele>480</ele>
        <time>2020-02-23T16:22:10Z</time>
      </trkpt>
      <trkpt lat="46.25805" lon="6.29803">
        <ele>480</ele>
        <time>2020-02-23T16:22:11Z</time>
      </trkpt>
      <trkpt lat="46.25805" lon="6.29802">
        <ele>480</ele>
        <time>2020-02-23T16:22:12Z</time>
      </trkpt>
      <trkpt lat="46.25805" lon="6.29801">
        <ele>480</ele>
        <time>2020-02-23T16:22:13Z</time>
      </trkpt>
      <trkpt lat="46.25805" lon="6.298">
        <ele>480</ele>
        <time>2020-02-23T16:22:16Z</time>
      </trkpt>
      <trkpt lat="46.25805" lon="6.29799">
        <ele>480.20001220703</ele>
        <time>2020-02-23T16:22:18Z</time>
      </trkpt>
      <trkpt lat="46.25806" lon="6.29798">
        <ele>480</ele>
        <time>2020-02-23T16:22:31Z</time>
      </trkpt>
      <trkpt lat="46.25806" lon="6.29796">
        <ele>480</ele>
        <time>2020-02-23T16:22:32Z</time>
      </trkpt>
      <trkpt lat="46.25806" lon="6.29795">
        <ele>480</ele>
        <time>2020-02-23T16:22:33Z</time>
      </trkpt>
      <trkpt lat="46.25805" lon="6.2979">
        <ele>480</ele>
        <time>2020-02-23T16:22:35Z</time>
      </trkpt>
      <trkpt lat="46.25804" lon="6.29789">
        <ele>480</ele>
        <time>2020-02-23T16:22:36Z</time>
      </trkpt>
      <trkpt lat="46.25803" lon="6.29787">
        <ele>480</ele>
        <time>2020-02-23T16:22:37Z</time>
      </trkpt>
      <trkpt lat="46.25802" lon="6.29785">
        <ele>480</ele>
        <time>2020-02-23T16:22:38Z</time>
      </trkpt>
      <trkpt lat="46.258" lon="6.29783">
        <ele>480</ele>
        <time>2020-02-23T16:22:39Z</time>
      </trkpt>
      <trkpt lat="46.25792" lon="6.29775">
        <ele>479.79998779297</ele>
        <time>2020-02-23T16:22:43Z</time>
      </trkpt>
      <trkpt lat="46.25789" lon="6.29773">
        <ele>479.79998779297</ele>
        <time>2020-02-23T16:22:44Z</time>
      </trkpt>
      <trkpt lat="46.25787" lon="6.29772">
        <ele>479.79998779297</ele>
        <time>2020-02-23T16:22:45Z</time>
      </trkpt>
      <trkpt lat="46.2577" lon="6.29761">
        <ele>479.39999389648</ele>
        <time>2020-02-23T16:22:51Z</time>
      </trkpt>
      <trkpt lat="46.25761" lon="6.29755">
        <ele>479.39999389648</ele>
        <time>2020-02-23T16:22:54Z</time>
      </trkpt>
      <trkpt lat="46.25728" lon="6.29733">
        <ele>479.39999389648</ele>
        <time>2020-02-23T16:23:03Z</time>
      </trkpt>
      <trkpt lat="46.25711" lon="6.29722">
        <ele>479.39999389648</ele>
        <time>2020-02-23T16:23:07Z</time>
      </trkpt>
      <trkpt lat="46.25698" lon="6.29714">
        <ele>479.39999389648</ele>
        <time>2020-02-23T16:23:10Z</time>
      </trkpt>
      <trkpt lat="46.25689" lon="6.29708">
        <ele>479.60000610352</ele>
        <time>2020-02-23T16:23:12Z</time>
      </trkpt>
      <trkpt lat="46.25685" lon="6.29705">
        <ele>479.60000610352</ele>
        <time>2020-02-23T16:23:13Z</time>
      </trkpt>
      <trkpt lat="46.25681" lon="6.29702">
        <ele>479.60000610352</ele>
        <time>2020-02-23T16:23:14Z</time>
      </trkpt>
      <trkpt lat="46.25677" lon="6.297">
        <ele>479.60000610352</ele>
        <time>2020-02-23T16:23:15Z</time>
      </trkpt>
      <trkpt lat="46.25674" lon="6.29698">
        <ele>479.39999389648</ele>
        <time>2020-02-23T16:23:16Z</time>
      </trkpt>
      <trkpt lat="46.2567" lon="6.29696">
        <ele>479.60000610352</ele>
        <time>2020-02-23T16:23:17Z</time>
      </trkpt>
      <trkpt lat="46.25667" lon="6.29694">
        <ele>479.60000610352</ele>
        <time>2020-02-23T16:23:18Z</time>
      </trkpt>
      <trkpt lat="46.25664" lon="6.29692">
        <ele>479.60000610352</ele>
        <time>2020-02-23T16:23:19Z</time>
      </trkpt>
      <trkpt lat="46.25661" lon="6.29689">
        <ele>479.79998779297</ele>
        <time>2020-02-23T16:23:20Z</time>
      </trkpt>
      <trkpt lat="46.25658" lon="6.29687">
        <ele>479.79998779297</ele>
        <time>2020-02-23T16:23:21Z</time>
      </trkpt>
      <trkpt lat="46.25633" lon="6.2967">
        <ele>480</ele>
        <time>2020-02-23T16:23:28Z</time>
      </trkpt>
      <trkpt lat="46.25622" lon="6.29663">
        <ele>480</ele>
        <time>2020-02-23T16:23:31Z</time>
      </trkpt>
      <trkpt lat="46.25613" lon="6.29657">
        <ele>480</ele>
        <time>2020-02-23T16:23:33Z</time>
      </trkpt>
      <trkpt lat="46.25609" lon="6.29653">
        <ele>479.79998779297</ele>
        <time>2020-02-23T16:23:34Z</time>
      </trkpt>
      <trkpt lat="46.25606" lon="6.29649">
        <ele>480</ele>
        <time>2020-02-23T16:23:35Z</time>
      </trkpt>
      <trkpt lat="46.25602" lon="6.29643">
        <ele>480</ele>
        <time>2020-02-23T16:23:36Z</time>
      </trkpt>
      <trkpt lat="46.25596" lon="6.29629">
        <ele>479.79998779297</ele>
        <time>2020-02-23T16:23:38Z</time>
      </trkpt>
      <trkpt lat="46.25594" lon="6.29622">
        <ele>479.79998779297</ele>
        <time>2020-02-23T16:23:39Z</time>
      </trkpt>
      <trkpt lat="46.25592" lon="6.29616">
        <ele>479.79998779297</ele>
        <time>2020-02-23T16:23:40Z</time>
      </trkpt>
      <trkpt lat="46.2559" lon="6.29612">
        <ele>479.60000610352</ele>
        <time>2020-02-23T16:23:41Z</time>
      </trkpt>
      <trkpt lat="46.25588" lon="6.29608">
        <ele>479.60000610352</ele>
        <time>2020-02-23T16:23:42Z</time>
      </trkpt>
      <trkpt lat="46.25587" lon="6.29606">
        <ele>479.39999389648</ele>
        <time>2020-02-23T16:23:43Z</time>
      </trkpt>
      <trkpt lat="46.25586" lon="6.29605">
        <ele>479</ele>
        <time>2020-02-23T16:23:44Z</time>
      </trkpt>
      <trkpt lat="46.25586" lon="6.29606">
        <ele>478.20001220703</ele>
        <time>2020-02-23T16:23:47Z</time>
      </trkpt>
      <trkpt lat="46.25588" lon="6.29602">
        <ele>477.60000610352</ele>
        <time>2020-02-23T16:23:57Z</time>
      </trkpt>
      <trkpt lat="46.25587" lon="6.29601">
        <ele>477.60000610352</ele>
        <time>2020-02-23T16:23:58Z</time>
      </trkpt>
      <trkpt lat="46.25587" lon="6.296">
        <ele>477.60000610352</ele>
        <time>2020-02-23T16:23:59Z</time>
      </trkpt>
      <trkpt lat="46.25587" lon="6.296">
        <ele>477.60000610352</ele>
        <time>2020-02-23T16:24:00Z</time>
      </trkpt>
      <trkpt lat="46.25587" lon="6.29599">
        <ele>477.60000610352</ele>
        <time>2020-02-23T16:24:01Z</time>
      </trkpt>
      <trkpt lat="46.25587" lon="6.29598">
        <ele>477.60000610352</ele>
        <time>2020-02-23T16:24:02Z</time>
      </trkpt>
      <trkpt lat="46.25586" lon="6.29597">
        <ele>477.39999389648</ele>
        <time>2020-02-23T16:24:03Z</time>
      </trkpt>
      <trkpt lat="46.25586" lon="6.29596">
        <ele>477.39999389648</ele>
        <time>2020-02-23T16:24:04Z</time>
      </trkpt>
      <trkpt lat="46.25586" lon="6.29595">
        <ele>477.39999389648</ele>
        <time>2020-02-23T16:24:05Z</time>
      </trkpt>
      <trkpt lat="46.25586" lon="6.29595">
        <ele>477.60000610352</ele>
        <time>2020-02-23T16:24:06Z</time>
      </trkpt>
      <trkpt lat="46.25586" lon="6.29594">
        <ele>477.39999389648</ele>
        <time>2020-02-23T16:24:07Z</time>
      </trkpt>
      <trkpt lat="46.25587" lon="6.29591">
        <ele>477.39999389648</ele>
        <time>2020-02-23T16:24:09Z</time>
      </trkpt>
      <trkpt lat="46.25587" lon="6.2959">
        <ele>477.39999389648</ele>
        <time>2020-02-23T16:24:10Z</time>
      </trkpt>
      <trkpt lat="46.25587" lon="6.29589">
        <ele>477.39999389648</ele>
        <time>2020-02-23T16:24:11Z</time>
      </trkpt>
      <trkpt lat="46.25586" lon="6.29587">
        <ele>477.60000610352</ele>
        <time>2020-02-23T16:24:12Z</time>
      </trkpt>
      <trkpt lat="46.25586" lon="6.29586">
        <ele>477.60000610352</ele>
        <time>2020-02-23T16:24:13Z</time>
      </trkpt>
      <trkpt lat="46.25585" lon="6.29584">
        <ele>477.60000610352</ele>
        <time>2020-02-23T16:24:14Z</time>
      </trkpt>
      <trkpt lat="46.25585" lon="6.29583">
        <ele>477.39999389648</ele>
        <time>2020-02-23T16:24:15Z</time>
      </trkpt>
      <trkpt lat="46.25583" lon="6.29579">
        <ele>477.39999389648</ele>
        <time>2020-02-23T16:24:17Z</time>
      </trkpt>
      <trkpt lat="46.25581" lon="6.29576">
        <ele>477.39999389648</ele>
        <time>2020-02-23T16:24:18Z</time>
      </trkpt>
      <trkpt lat="46.25578" lon="6.29572">
        <ele>477.39999389648</ele>
        <time>2020-02-23T16:24:20Z</time>
      </trkpt>
      <trkpt lat="46.25571" lon="6.29566">
        <ele>477.60000610352</ele>
        <time>2020-02-23T16:24:23Z</time>
      </trkpt>
      <trkpt lat="46.25569" lon="6.29563">
        <ele>477.39999389648</ele>
        <time>2020-02-23T16:24:24Z</time>
      </trkpt>
      <trkpt lat="46.25565" lon="6.29561">
        <ele>477.39999389648</ele>
        <time>2020-02-23T16:24:25Z</time>
      </trkpt>
      <trkpt lat="46.25563" lon="6.29559">
        <ele>477.20001220703</ele>
        <time>2020-02-23T16:24:26Z</time>
      </trkpt>
      <trkpt lat="46.25553" lon="6.29552">
        <ele>477.39999389648</ele>
        <time>2020-02-23T16:24:29Z</time>
      </trkpt>
      <trkpt lat="46.25551" lon="6.29549">
        <ele>477.39999389648</ele>
        <time>2020-02-23T16:24:30Z</time>
      </trkpt>
      <trkpt lat="46.25549" lon="6.29547">
        <ele>477.20001220703</ele>
        <time>2020-02-23T16:24:31Z</time>
      </trkpt>
      <trkpt lat="46.25546" lon="6.29544">
        <ele>477.39999389648</ele>
        <time>2020-02-23T16:24:32Z</time>
      </trkpt>
      <trkpt lat="46.2554" lon="6.29537">
        <ele>477.39999389648</ele>
        <time>2020-02-23T16:24:34Z</time>
      </trkpt>
      <trkpt lat="46.25538" lon="6.29533">
        <ele>477.60000610352</ele>
        <time>2020-02-23T16:24:35Z</time>
      </trkpt>
      <trkpt lat="46.25537" lon="6.29528">
        <ele>477.39999389648</ele>
        <time>2020-02-23T16:24:36Z</time>
      </trkpt>
      <trkpt lat="46.25532" lon="6.29516">
        <ele>477.39999389648</ele>
        <time>2020-02-23T16:24:38Z</time>
      </trkpt>
      <trkpt lat="46.2553" lon="6.29509">
        <ele>477.39999389648</ele>
        <time>2020-02-23T16:24:39Z</time>
      </trkpt>
      <trkpt lat="46.25529" lon="6.29503">
        <ele>477.39999389648</ele>
        <time>2020-02-23T16:24:40Z</time>
      </trkpt>
      <trkpt lat="46.25526" lon="6.29491">
        <ele>477.20001220703</ele>
        <time>2020-02-23T16:24:42Z</time>
      </trkpt>
      <trkpt lat="46.25525" lon="6.29485">
        <ele>477.20001220703</ele>
        <time>2020-02-23T16:24:43Z</time>
      </trkpt>
      <trkpt lat="46.25525" lon="6.29479">
        <ele>476.79998779297</ele>
        <time>2020-02-23T16:24:44Z</time>
      </trkpt>
      <trkpt lat="46.25525" lon="6.29472">
        <ele>476.79998779297</ele>
        <time>2020-02-23T16:24:45Z</time>
      </trkpt>
      <trkpt lat="46.25525" lon="6.29466">
        <ele>476.79998779297</ele>
        <time>2020-02-23T16:24:46Z</time>
      </trkpt>
      <trkpt lat="46.25527" lon="6.29459">
        <ele>476.60000610352</ele>
        <time>2020-02-23T16:24:47Z</time>
      </trkpt>
      <trkpt lat="46.2553" lon="6.29445">
        <ele>476.60000610352</ele>
        <time>2020-02-23T16:24:49Z</time>
      </trkpt>
      <trkpt lat="46.25546" lon="6.29401">
        <ele>476.20001220703</ele>
        <time>2020-02-23T16:24:55Z</time>
      </trkpt>
      <trkpt lat="46.25549" lon="6.29394">
        <ele>476</ele>
        <time>2020-02-23T16:24:56Z</time>
      </trkpt>
      <trkpt lat="46.25552" lon="6.29387">
        <ele>475.79998779297</ele>
        <time>2020-02-23T16:24:57Z</time>
      </trkpt>
      <trkpt lat="46.25555" lon="6.2938">
        <ele>475.79998779297</ele>
        <time>2020-02-23T16:24:58Z</time>
      </trkpt>
      <trkpt lat="46.25558" lon="6.29374">
        <ele>475.79998779297</ele>
        <time>2020-02-23T16:24:59Z</time>
      </trkpt>
      <trkpt lat="46.25563" lon="6.2936">
        <ele>475.39999389648</ele>
        <time>2020-02-23T16:25:01Z</time>
      </trkpt>
      <trkpt lat="46.25566" lon="6.29353">
        <ele>475.20001220703</ele>
        <time>2020-02-23T16:25:02Z</time>
      </trkpt>
      <trkpt lat="46.25569" lon="6.29346">
        <ele>475</ele>
        <time>2020-02-23T16:25:03Z</time>
      </trkpt>
      <trkpt lat="46.25571" lon="6.29338">
        <ele>475.20001220703</ele>
        <time>2020-02-23T16:25:04Z</time>
      </trkpt>
      <trkpt lat="46.25573" lon="6.29321">
        <ele>474.79998779297</ele>
        <time>2020-02-23T16:25:06Z</time>
      </trkpt>
      <trkpt lat="46.25573" lon="6.29313">
        <ele>474.60000610352</ele>
        <time>2020-02-23T16:25:07Z</time>
      </trkpt>
      <trkpt lat="46.25572" lon="6.29304">
        <ele>474.60000610352</ele>
        <time>2020-02-23T16:25:08Z</time>
      </trkpt>
      <trkpt lat="46.25571" lon="6.29296">
        <ele>474.39999389648</ele>
        <time>2020-02-23T16:25:09Z</time>
      </trkpt>
      <trkpt lat="46.25569" lon="6.29288">
        <ele>474.20001220703</ele>
        <time>2020-02-23T16:25:10Z</time>
      </trkpt>
      <trkpt lat="46.25568" lon="6.2928">
        <ele>474.20001220703</ele>
        <time>2020-02-23T16:25:11Z</time>
      </trkpt>
      <trkpt lat="46.25566" lon="6.29274">
        <ele>474</ele>
        <time>2020-02-23T16:25:12Z</time>
      </trkpt>
      <trkpt lat="46.25564" lon="6.29268">
        <ele>474</ele>
        <time>2020-02-23T16:25:13Z</time>
      </trkpt>
      <trkpt lat="46.25561" lon="6.29263">
        <ele>474</ele>
        <time>2020-02-23T16:25:14Z</time>
      </trkpt>
      <trkpt lat="46.25559" lon="6.2926">
        <ele>474</ele>
        <time>2020-02-23T16:25:15Z</time>
      </trkpt>
      <trkpt lat="46.25557" lon="6.29258">
        <ele>474</ele>
        <time>2020-02-23T16:25:16Z</time>
      </trkpt>
      <trkpt lat="46.25556" lon="6.29256">
        <ele>474</ele>
        <time>2020-02-23T16:25:17Z</time>
      </trkpt>
      <trkpt lat="46.25555" lon="6.29255">
        <ele>474.20001220703</ele>
        <time>2020-02-23T16:25:18Z</time>
      </trkpt>
      <trkpt lat="46.25555" lon="6.29253">
        <ele>474</ele>
        <time>2020-02-23T16:25:19Z</time>
      </trkpt>
      <trkpt lat="46.25555" lon="6.29251">
        <ele>474</ele>
        <time>2020-02-23T16:25:20Z</time>
      </trkpt>
      <trkpt lat="46.25556" lon="6.2925">
        <ele>474.20001220703</ele>
        <time>2020-02-23T16:25:21Z</time>
      </trkpt>
      <trkpt lat="46.25558" lon="6.2925">
        <ele>474</ele>
        <time>2020-02-23T16:25:22Z</time>
      </trkpt>
      <trkpt lat="46.2556" lon="6.2925">
        <ele>474.20001220703</ele>
        <time>2020-02-23T16:25:23Z</time>
      </trkpt>
      <trkpt lat="46.25561" lon="6.29248">
        <ele>474.20001220703</ele>
        <time>2020-02-23T16:25:24Z</time>
      </trkpt>
      <trkpt lat="46.25563" lon="6.29246">
        <ele>474.39999389648</ele>
        <time>2020-02-23T16:25:25Z</time>
      </trkpt>
      <trkpt lat="46.25566" lon="6.29245">
        <ele>474.20001220703</ele>
        <time>2020-02-23T16:25:26Z</time>
      </trkpt>
      <trkpt lat="46.25569" lon="6.29244">
        <ele>474.20001220703</ele>
        <time>2020-02-23T16:25:27Z</time>
      </trkpt>
      <trkpt lat="46.25572" lon="6.29244">
        <ele>474.39999389648</ele>
        <time>2020-02-23T16:25:28Z</time>
      </trkpt>
      <trkpt lat="46.25593" lon="6.29243">
        <ele>474.39999389648</ele>
        <time>2020-02-23T16:25:33Z</time>
      </trkpt>
      <trkpt lat="46.25598" lon="6.29243">
        <ele>474.60000610352</ele>
        <time>2020-02-23T16:25:34Z</time>
      </trkpt>
      <trkpt lat="46.25629" lon="6.29249">
        <ele>474.20001220703</ele>
        <time>2020-02-23T16:25:40Z</time>
      </trkpt>
      <trkpt lat="46.25654" lon="6.29259">
        <ele>474.20001220703</ele>
        <time>2020-02-23T16:25:44Z</time>
      </trkpt>
      <trkpt lat="46.2566" lon="6.29262">
        <ele>474.20001220703</ele>
        <time>2020-02-23T16:25:45Z</time>
      </trkpt>
      <trkpt lat="46.25665" lon="6.29265">
        <ele>474.20001220703</ele>
        <time>2020-02-23T16:25:46Z</time>
      </trkpt>
      <trkpt lat="46.25671" lon="6.29268">
        <ele>474</ele>
        <time>2020-02-23T16:25:47Z</time>
      </trkpt>
      <trkpt lat="46.25676" lon="6.29271">
        <ele>474</ele>
        <time>2020-02-23T16:25:48Z</time>
      </trkpt>
      <trkpt lat="46.25681" lon="6.29274">
        <ele>473.79998779297</ele>
        <time>2020-02-23T16:25:49Z</time>
      </trkpt>
      <trkpt lat="46.25686" lon="6.29276">
        <ele>473.79998779297</ele>
        <time>2020-02-23T16:25:50Z</time>
      </trkpt>
      <trkpt lat="46.25691" lon="6.29278">
        <ele>473.79998779297</ele>
        <time>2020-02-23T16:25:51Z</time>
      </trkpt>
      <trkpt lat="46.25695" lon="6.2928">
        <ele>473.60000610352</ele>
        <time>2020-02-23T16:25:52Z</time>
      </trkpt>
      <trkpt lat="46.257" lon="6.29282">
        <ele>473.39999389648</ele>
        <time>2020-02-23T16:25:53Z</time>
      </trkpt>
      <trkpt lat="46.25704" lon="6.29285">
        <ele>473.20001220703</ele>
        <time>2020-02-23T16:25:54Z</time>
      </trkpt>
      <trkpt lat="46.25708" lon="6.29287">
        <ele>473.20001220703</ele>
        <time>2020-02-23T16:25:55Z</time>
      </trkpt>
      <trkpt lat="46.25712" lon="6.29289">
        <ele>473.20001220703</ele>
        <time>2020-02-23T16:25:56Z</time>
      </trkpt>
      <trkpt lat="46.25715" lon="6.29291">
        <ele>473.20001220703</ele>
        <time>2020-02-23T16:25:57Z</time>
      </trkpt>
      <trkpt lat="46.25718" lon="6.29292">
        <ele>473</ele>
        <time>2020-02-23T16:25:58Z</time>
      </trkpt>
      <trkpt lat="46.25722" lon="6.29293">
        <ele>473.20001220703</ele>
        <time>2020-02-23T16:25:59Z</time>
      </trkpt>
      <trkpt lat="46.25725" lon="6.29295">
        <ele>473.20001220703</ele>
        <time>2020-02-23T16:26:00Z</time>
      </trkpt>
      <trkpt lat="46.25728" lon="6.29297">
        <ele>473</ele>
        <time>2020-02-23T16:26:01Z</time>
      </trkpt>
      <trkpt lat="46.25732" lon="6.293">
        <ele>473</ele>
        <time>2020-02-23T16:26:02Z</time>
      </trkpt>
      <trkpt lat="46.25736" lon="6.29302">
        <ele>472.79998779297</ele>
        <time>2020-02-23T16:26:03Z</time>
      </trkpt>
      <trkpt lat="46.25747" lon="6.29308">
        <ele>472.79998779297</ele>
        <time>2020-02-23T16:26:06Z</time>
      </trkpt>
      <trkpt lat="46.25751" lon="6.29311">
        <ele>472.79998779297</ele>
        <time>2020-02-23T16:26:07Z</time>
      </trkpt>
      <trkpt lat="46.25755" lon="6.29312">
        <ele>472.60000610352</ele>
        <time>2020-02-23T16:26:08Z</time>
      </trkpt>
      <trkpt lat="46.25757" lon="6.29314">
        <ele>472.60000610352</ele>
        <time>2020-02-23T16:26:09Z</time>
      </trkpt>
      <trkpt lat="46.25759" lon="6.29314">
        <ele>472.60000610352</ele>
        <time>2020-02-23T16:26:10Z</time>
      </trkpt>
      <trkpt lat="46.25761" lon="6.29314">
        <ele>472.60000610352</ele>
        <time>2020-02-23T16:26:11Z</time>
      </trkpt>
      <trkpt lat="46.25762" lon="6.29312">
        <ele>472.60000610352</ele>
        <time>2020-02-23T16:26:12Z</time>
      </trkpt>
      <trkpt lat="46.25765" lon="6.29308">
        <ele>472.60000610352</ele>
        <time>2020-02-23T16:26:14Z</time>
      </trkpt>
      <trkpt lat="46.25768" lon="6.29302">
        <ele>472.79998779297</ele>
        <time>2020-02-23T16:26:16Z</time>
      </trkpt>
      <trkpt lat="46.25777" lon="6.29288">
        <ele>472.79998779297</ele>
        <time>2020-02-23T16:26:20Z</time>
      </trkpt>
      <trkpt lat="46.25779" lon="6.29284">
        <ele>472.60000610352</ele>
        <time>2020-02-23T16:26:21Z</time>
      </trkpt>
      <trkpt lat="46.25782" lon="6.29281">
        <ele>472.60000610352</ele>
        <time>2020-02-23T16:26:22Z</time>
      </trkpt>
      <trkpt lat="46.25797" lon="6.29266">
        <ele>472.60000610352</ele>
        <time>2020-02-23T16:26:26Z</time>
      </trkpt>
      <trkpt lat="46.25806" lon="6.29259">
        <ele>472.60000610352</ele>
        <time>2020-02-23T16:26:28Z</time>
      </trkpt>
      <trkpt lat="46.2581" lon="6.29255">
        <ele>472.60000610352</ele>
        <time>2020-02-23T16:26:29Z</time>
      </trkpt>
      <trkpt lat="46.2582" lon="6.29246">
        <ele>472.60000610352</ele>
        <time>2020-02-23T16:26:31Z</time>
      </trkpt>
      <trkpt lat="46.25824" lon="6.29241">
        <ele>472.39999389648</ele>
        <time>2020-02-23T16:26:32Z</time>
      </trkpt>
      <trkpt lat="46.25828" lon="6.29236">
        <ele>472.20001220703</ele>
        <time>2020-02-23T16:26:33Z</time>
      </trkpt>
      <trkpt lat="46.25833" lon="6.29231">
        <ele>472.20001220703</ele>
        <time>2020-02-23T16:26:34Z</time>
      </trkpt>
      <trkpt lat="46.25842" lon="6.29221">
        <ele>472</ele>
        <time>2020-02-23T16:26:36Z</time>
      </trkpt>
      <trkpt lat="46.25854" lon="6.29204">
        <ele>471.79998779297</ele>
        <time>2020-02-23T16:26:39Z</time>
      </trkpt>
      <trkpt lat="46.25858" lon="6.29198">
        <ele>471.79998779297</ele>
        <time>2020-02-23T16:26:40Z</time>
      </trkpt>
      <trkpt lat="46.25863" lon="6.29184">
        <ele>471.79998779297</ele>
        <time>2020-02-23T16:26:42Z</time>
      </trkpt>
      <trkpt lat="46.25865" lon="6.29176">
        <ele>471.60000610352</ele>
        <time>2020-02-23T16:26:43Z</time>
      </trkpt>
      <trkpt lat="46.25867" lon="6.29169">
        <ele>471.39999389648</ele>
        <time>2020-02-23T16:26:44Z</time>
      </trkpt>
      <trkpt lat="46.25869" lon="6.29161">
        <ele>471.39999389648</ele>
        <time>2020-02-23T16:26:45Z</time>
      </trkpt>
      <trkpt lat="46.25872" lon="6.29154">
        <ele>471.60000610352</ele>
        <time>2020-02-23T16:26:46Z</time>
      </trkpt>
      <trkpt lat="46.25874" lon="6.29147">
        <ele>471.39999389648</ele>
        <time>2020-02-23T16:26:47Z</time>
      </trkpt>
      <trkpt lat="46.25876" lon="6.29141">
        <ele>471.39999389648</ele>
        <time>2020-02-23T16:26:48Z</time>
      </trkpt>
      <trkpt lat="46.25877" lon="6.29135">
        <ele>471.60000610352</ele>
        <time>2020-02-23T16:26:49Z</time>
      </trkpt>
      <trkpt lat="46.25878" lon="6.29128">
        <ele>471.60000610352</ele>
        <time>2020-02-23T16:26:50Z</time>
      </trkpt>
      <trkpt lat="46.2588" lon="6.29122">
        <ele>471.39999389648</ele>
        <time>2020-02-23T16:26:51Z</time>
      </trkpt>
      <trkpt lat="46.2588" lon="6.29116">
        <ele>471.39999389648</ele>
        <time>2020-02-23T16:26:52Z</time>
      </trkpt>
      <trkpt lat="46.25881" lon="6.2911">
        <ele>471.60000610352</ele>
        <time>2020-02-23T16:26:53Z</time>
      </trkpt>
      <trkpt lat="46.2588" lon="6.29105">
        <ele>471.39999389648</ele>
        <time>2020-02-23T16:26:54Z</time>
      </trkpt>
      <trkpt lat="46.25877" lon="6.291">
        <ele>471.39999389648</ele>
        <time>2020-02-23T16:26:55Z</time>
      </trkpt>
      <trkpt lat="46.25874" lon="6.29097">
        <ele>471.60000610352</ele>
        <time>2020-02-23T16:26:56Z</time>
      </trkpt>
      <trkpt lat="46.25871" lon="6.29094">
        <ele>471.60000610352</ele>
        <time>2020-02-23T16:26:57Z</time>
      </trkpt>
      <trkpt lat="46.25867" lon="6.29092">
        <ele>471.39999389648</ele>
        <time>2020-02-23T16:26:58Z</time>
      </trkpt>
      <trkpt lat="46.25864" lon="6.2909">
        <ele>471.60000610352</ele>
        <time>2020-02-23T16:26:59Z</time>
      </trkpt>
      <trkpt lat="46.25862" lon="6.29089">
        <ele>471.60000610352</ele>
        <time>2020-02-23T16:27:00Z</time>
      </trkpt>
      <trkpt lat="46.25859" lon="6.29088">
        <ele>471.60000610352</ele>
        <time>2020-02-23T16:27:01Z</time>
      </trkpt>
      <trkpt lat="46.25857" lon="6.29087">
        <ele>471.79998779297</ele>
        <time>2020-02-23T16:27:02Z</time>
      </trkpt>
      <trkpt lat="46.25855" lon="6.29086">
        <ele>471.60000610352</ele>
        <time>2020-02-23T16:27:03Z</time>
      </trkpt>
      <trkpt lat="46.25852" lon="6.29085">
        <ele>472</ele>
        <time>2020-02-23T16:27:04Z</time>
      </trkpt>
      <trkpt lat="46.25844" lon="6.29081">
        <ele>472</ele>
        <time>2020-02-23T16:27:07Z</time>
      </trkpt>
      <trkpt lat="46.25829" lon="6.29072">
        <ele>472.20001220703</ele>
        <time>2020-02-23T16:27:12Z</time>
      </trkpt>
      <trkpt lat="46.25826" lon="6.29069">
        <ele>472.20001220703</ele>
        <time>2020-02-23T16:27:13Z</time>
      </trkpt>
      <trkpt lat="46.25806" lon="6.29054">
        <ele>472.39999389648</ele>
        <time>2020-02-23T16:27:19Z</time>
      </trkpt>
      <trkpt lat="46.25799" lon="6.29049">
        <ele>472.39999389648</ele>
        <time>2020-02-23T16:27:21Z</time>
      </trkpt>
      <trkpt lat="46.25795" lon="6.29046">
        <ele>472.39999389648</ele>
        <time>2020-02-23T16:27:22Z</time>
      </trkpt>
      <trkpt lat="46.25792" lon="6.29044">
        <ele>472.39999389648</ele>
        <time>2020-02-23T16:27:23Z</time>
      </trkpt>
      <trkpt lat="46.25789" lon="6.29041">
        <ele>472.20001220703</ele>
        <time>2020-02-23T16:27:24Z</time>
      </trkpt>
      <trkpt lat="46.25787" lon="6.29039">
        <ele>472.39999389648</ele>
        <time>2020-02-23T16:27:25Z</time>
      </trkpt>
      <trkpt lat="46.25784" lon="6.29036">
        <ele>472.20001220703</ele>
        <time>2020-02-23T16:27:26Z</time>
      </trkpt>
      <trkpt lat="46.25782" lon="6.29034">
        <ele>472.20001220703</ele>
        <time>2020-02-23T16:27:27Z</time>
      </trkpt>
      <trkpt lat="46.25779" lon="6.29032">
        <ele>472.39999389648</ele>
        <time>2020-02-23T16:27:28Z</time>
      </trkpt>
      <trkpt lat="46.25777" lon="6.2903">
        <ele>472.39999389648</ele>
        <time>2020-02-23T16:27:29Z</time>
      </trkpt>
      <trkpt lat="46.25775" lon="6.29029">
        <ele>472.39999389648</ele>
        <time>2020-02-23T16:27:30Z</time>
      </trkpt>
      <trkpt lat="46.25774" lon="6.29027">
        <ele>472.39999389648</ele>
        <time>2020-02-23T16:27:31Z</time>
      </trkpt>
      <trkpt lat="46.25772" lon="6.29026">
        <ele>472.60000610352</ele>
        <time>2020-02-23T16:27:32Z</time>
      </trkpt>
      <trkpt lat="46.2577" lon="6.29025">
        <ele>472.60000610352</ele>
        <time>2020-02-23T16:27:33Z</time>
      </trkpt>
      <trkpt lat="46.25768" lon="6.29024">
        <ele>472.79998779297</ele>
        <time>2020-02-23T16:27:34Z</time>
      </trkpt>
      <trkpt lat="46.25766" lon="6.29023">
        <ele>472.79998779297</ele>
        <time>2020-02-23T16:27:35Z</time>
      </trkpt>
      <trkpt lat="46.2576" lon="6.29017">
        <ele>473</ele>
        <time>2020-02-23T16:27:38Z</time>
      </trkpt>
      <trkpt lat="46.25753" lon="6.29011">
        <ele>473.20001220703</ele>
        <time>2020-02-23T16:27:41Z</time>
      </trkpt>
      <trkpt lat="46.25751" lon="6.2901">
        <ele>473.20001220703</ele>
        <time>2020-02-23T16:27:42Z</time>
      </trkpt>
      <trkpt lat="46.25749" lon="6.29008">
        <ele>473.20001220703</ele>
        <time>2020-02-23T16:27:43Z</time>
      </trkpt>
      <trkpt lat="46.25747" lon="6.29006">
        <ele>473.20001220703</ele>
        <time>2020-02-23T16:27:44Z</time>
      </trkpt>
      <trkpt lat="46.25746" lon="6.29005">
        <ele>473.39999389648</ele>
        <time>2020-02-23T16:27:45Z</time>
      </trkpt>
      <trkpt lat="46.25744" lon="6.29004">
        <ele>473.39999389648</ele>
        <time>2020-02-23T16:27:46Z</time>
      </trkpt>
      <trkpt lat="46.25742" lon="6.29003">
        <ele>473.20001220703</ele>
        <time>2020-02-23T16:27:47Z</time>
      </trkpt>
      <trkpt lat="46.25741" lon="6.29002">
        <ele>473.39999389648</ele>
        <time>2020-02-23T16:27:48Z</time>
      </trkpt>
      <trkpt lat="46.25741" lon="6.29002">
        <ele>473.39999389648</ele>
        <time>2020-02-23T16:27:49Z</time>
      </trkpt>
      <trkpt lat="46.2574" lon="6.29">
        <ele>473.60000610352</ele>
        <time>2020-02-23T16:27:57Z</time>
      </trkpt>
      <trkpt lat="46.25738" lon="6.28999">
        <ele>473.60000610352</ele>
        <time>2020-02-23T16:27:59Z</time>
      </trkpt>
      <trkpt lat="46.25736" lon="6.28998">
        <ele>473.60000610352</ele>
        <time>2020-02-23T16:28:00Z</time>
      </trkpt>
      <trkpt lat="46.25734" lon="6.28997">
        <ele>473.79998779297</ele>
        <time>2020-02-23T16:28:01Z</time>
      </trkpt>
      <trkpt lat="46.2573" lon="6.28995">
        <ele>473.79998779297</ele>
        <time>2020-02-23T16:28:03Z</time>
      </trkpt>
      <trkpt lat="46.25728" lon="6.28993">
        <ele>473.79998779297</ele>
        <time>2020-02-23T16:28:04Z</time>
      </trkpt>
      <trkpt lat="46.25722" lon="6.2899">
        <ele>473.60000610352</ele>
        <time>2020-02-23T16:28:06Z</time>
      </trkpt>
      <trkpt lat="46.25715" lon="6.28986">
        <ele>473.60000610352</ele>
        <time>2020-02-23T16:28:08Z</time>
      </trkpt>
      <trkpt lat="46.25706" lon="6.28981">
        <ele>473.79998779297</ele>
        <time>2020-02-23T16:28:10Z</time>
      </trkpt>
      <trkpt lat="46.25683" lon="6.28964">
        <ele>473.39999389648</ele>
        <time>2020-02-23T16:28:15Z</time>
      </trkpt>
      <trkpt lat="46.25678" lon="6.28961">
        <ele>473.20001220703</ele>
        <time>2020-02-23T16:28:16Z</time>
      </trkpt>
      <trkpt lat="46.25658" lon="6.28947">
        <ele>472.39999389648</ele>
        <time>2020-02-23T16:28:20Z</time>
      </trkpt>
      <trkpt lat="46.25654" lon="6.28943">
        <ele>472.39999389648</ele>
        <time>2020-02-23T16:28:21Z</time>
      </trkpt>
      <trkpt lat="46.2565" lon="6.2894">
        <ele>472.39999389648</ele>
        <time>2020-02-23T16:28:22Z</time>
      </trkpt>
      <trkpt lat="46.25646" lon="6.28937">
        <ele>472.39999389648</ele>
        <time>2020-02-23T16:28:23Z</time>
      </trkpt>
      <trkpt lat="46.25642" lon="6.28934">
        <ele>472.20001220703</ele>
        <time>2020-02-23T16:28:24Z</time>
      </trkpt>
      <trkpt lat="46.25638" lon="6.28931">
        <ele>472.20001220703</ele>
        <time>2020-02-23T16:28:25Z</time>
      </trkpt>
      <trkpt lat="46.25633" lon="6.28928">
        <ele>472.20001220703</ele>
        <time>2020-02-23T16:28:26Z</time>
      </trkpt>
      <trkpt lat="46.25629" lon="6.28925">
        <ele>472.20001220703</ele>
        <time>2020-02-23T16:28:27Z</time>
      </trkpt>
      <trkpt lat="46.25616" lon="6.28914">
        <ele>472.20001220703</ele>
        <time>2020-02-23T16:28:30Z</time>
      </trkpt>
      <trkpt lat="46.25612" lon="6.28911">
        <ele>472.20001220703</ele>
        <time>2020-02-23T16:28:31Z</time>
      </trkpt>
      <trkpt lat="46.25608" lon="6.28907">
        <ele>472.39999389648</ele>
        <time>2020-02-23T16:28:32Z</time>
      </trkpt>
      <trkpt lat="46.25604" lon="6.28902">
        <ele>472.39999389648</ele>
        <time>2020-02-23T16:28:33Z</time>
      </trkpt>
      <trkpt lat="46.25602" lon="6.28897">
        <ele>472.39999389648</ele>
        <time>2020-02-23T16:28:34Z</time>
      </trkpt>
      <trkpt lat="46.25599" lon="6.28891">
        <ele>472.39999389648</ele>
        <time>2020-02-23T16:28:35Z</time>
      </trkpt>
      <trkpt lat="46.25595" lon="6.2888">
        <ele>472.39999389648</ele>
        <time>2020-02-23T16:28:37Z</time>
      </trkpt>
      <trkpt lat="46.25589" lon="6.2886">
        <ele>472.39999389648</ele>
        <time>2020-02-23T16:28:40Z</time>
      </trkpt>
      <trkpt lat="46.25583" lon="6.28838">
        <ele>472.20001220703</ele>
        <time>2020-02-23T16:28:43Z</time>
      </trkpt>
      <trkpt lat="46.25576" lon="6.28816">
        <ele>472.39999389648</ele>
        <time>2020-02-23T16:28:46Z</time>
      </trkpt>
      <trkpt lat="46.25575" lon="6.28809">
        <ele>472.20001220703</ele>
        <time>2020-02-23T16:28:47Z</time>
      </trkpt>
      <trkpt lat="46.25573" lon="6.28803">
        <ele>472.39999389648</ele>
        <time>2020-02-23T16:28:48Z</time>
      </trkpt>
      <trkpt lat="46.25571" lon="6.28797">
        <ele>472.39999389648</ele>
        <time>2020-02-23T16:28:49Z</time>
      </trkpt>
      <trkpt lat="46.2557" lon="6.28791">
        <ele>472.39999389648</ele>
        <time>2020-02-23T16:28:50Z</time>
      </trkpt>
      <trkpt lat="46.25569" lon="6.28786">
        <ele>472.39999389648</ele>
        <time>2020-02-23T16:28:51Z</time>
      </trkpt>
      <trkpt lat="46.25568" lon="6.2878">
        <ele>472.39999389648</ele>
        <time>2020-02-23T16:28:52Z</time>
      </trkpt>
      <trkpt lat="46.25567" lon="6.28774">
        <ele>472.60000610352</ele>
        <time>2020-02-23T16:28:53Z</time>
      </trkpt>
      <trkpt lat="46.25566" lon="6.28769">
        <ele>472.39999389648</ele>
        <time>2020-02-23T16:28:54Z</time>
      </trkpt>
      <trkpt lat="46.25559" lon="6.28724">
        <ele>473</ele>
        <time>2020-02-23T16:29:01Z</time>
      </trkpt>
      <trkpt lat="46.25556" lon="6.28705">
        <ele>473.20001220703</ele>
        <time>2020-02-23T16:29:04Z</time>
      </trkpt>
      <trkpt lat="46.2555" lon="6.28672">
        <ele>473.20001220703</ele>
        <time>2020-02-23T16:29:09Z</time>
      </trkpt>
      <trkpt lat="46.25545" lon="6.28644">
        <ele>473.20001220703</ele>
        <time>2020-02-23T16:29:13Z</time>
      </trkpt>
      <trkpt lat="46.25543" lon="6.28638">
        <ele>473.20001220703</ele>
        <time>2020-02-23T16:29:14Z</time>
      </trkpt>
      <trkpt lat="46.25541" lon="6.28631">
        <ele>473.20001220703</ele>
        <time>2020-02-23T16:29:15Z</time>
      </trkpt>
      <trkpt lat="46.2554" lon="6.28625">
        <ele>473.20001220703</ele>
        <time>2020-02-23T16:29:16Z</time>
      </trkpt>
      <trkpt lat="46.25538" lon="6.2862">
        <ele>473</ele>
        <time>2020-02-23T16:29:17Z</time>
      </trkpt>
      <trkpt lat="46.25536" lon="6.28614">
        <ele>473</ele>
        <time>2020-02-23T16:29:18Z</time>
      </trkpt>
      <trkpt lat="46.25534" lon="6.28609">
        <ele>473</ele>
        <time>2020-02-23T16:29:19Z</time>
      </trkpt>
      <trkpt lat="46.25532" lon="6.28604">
        <ele>473.20001220703</ele>
        <time>2020-02-23T16:29:20Z</time>
      </trkpt>
      <trkpt lat="46.25529" lon="6.28599">
        <ele>473.20001220703</ele>
        <time>2020-02-23T16:29:21Z</time>
      </trkpt>
      <trkpt lat="46.25527" lon="6.28594">
        <ele>473.20001220703</ele>
        <time>2020-02-23T16:29:22Z</time>
      </trkpt>
      <trkpt lat="46.25524" lon="6.28589">
        <ele>473.20001220703</ele>
        <time>2020-02-23T16:29:23Z</time>
      </trkpt>
      <trkpt lat="46.25521" lon="6.28584">
        <ele>473.20001220703</ele>
        <time>2020-02-23T16:29:24Z</time>
      </trkpt>
      <trkpt lat="46.25511" lon="6.28562">
        <ele>473.20001220703</ele>
        <time>2020-02-23T16:29:28Z</time>
      </trkpt>
      <trkpt lat="46.25508" lon="6.28557">
        <ele>473.20001220703</ele>
        <time>2020-02-23T16:29:29Z</time>
      </trkpt>
      <trkpt lat="46.25505" lon="6.28552">
        <ele>473.20001220703</ele>
        <time>2020-02-23T16:29:30Z</time>
      </trkpt>
      <trkpt lat="46.25503" lon="6.28548">
        <ele>473.20001220703</ele>
        <time>2020-02-23T16:29:31Z</time>
      </trkpt>
      <trkpt lat="46.25494" lon="6.28535">
        <ele>473.20001220703</ele>
        <time>2020-02-23T16:29:34Z</time>
      </trkpt>
      <trkpt lat="46.25491" lon="6.28531">
        <ele>473.39999389648</ele>
        <time>2020-02-23T16:29:35Z</time>
      </trkpt>
      <trkpt lat="46.25485" lon="6.28523">
        <ele>473.39999389648</ele>
        <time>2020-02-23T16:29:37Z</time>
      </trkpt>
      <trkpt lat="46.25482" lon="6.28518">
        <ele>473.20001220703</ele>
        <time>2020-02-23T16:29:38Z</time>
      </trkpt>
      <trkpt lat="46.25471" lon="6.28504">
        <ele>473.39999389648</ele>
        <time>2020-02-23T16:29:41Z</time>
      </trkpt>
      <trkpt lat="46.25463" lon="6.28493">
        <ele>473.20001220703</ele>
        <time>2020-02-23T16:29:43Z</time>
      </trkpt>
      <trkpt lat="46.25448" lon="6.28471">
        <ele>473.39999389648</ele>
        <time>2020-02-23T16:29:47Z</time>
      </trkpt>
      <trkpt lat="46.25444" lon="6.28466">
        <ele>473.39999389648</ele>
        <time>2020-02-23T16:29:48Z</time>
      </trkpt>
      <trkpt lat="46.25441" lon="6.28461">
        <ele>473.20001220703</ele>
        <time>2020-02-23T16:29:49Z</time>
      </trkpt>
      <trkpt lat="46.25437" lon="6.28455">
        <ele>473.39999389648</ele>
        <time>2020-02-23T16:29:50Z</time>
      </trkpt>
      <trkpt lat="46.25434" lon="6.2845">
        <ele>473.20001220703</ele>
        <time>2020-02-23T16:29:51Z</time>
      </trkpt>
      <trkpt lat="46.25431" lon="6.28445">
        <ele>473</ele>
        <time>2020-02-23T16:29:52Z</time>
      </trkpt>
      <trkpt lat="46.25424" lon="6.28435">
        <ele>472.79998779297</ele>
        <time>2020-02-23T16:29:54Z</time>
      </trkpt>
      <trkpt lat="46.25421" lon="6.2843">
        <ele>472.60000610352</ele>
        <time>2020-02-23T16:29:55Z</time>
      </trkpt>
      <trkpt lat="46.25419" lon="6.28426">
        <ele>472.60000610352</ele>
        <time>2020-02-23T16:29:56Z</time>
      </trkpt>
      <trkpt lat="46.25417" lon="6.28423">
        <ele>472.60000610352</ele>
        <time>2020-02-23T16:29:57Z</time>
      </trkpt>
      <trkpt lat="46.25416" lon="6.28421">
        <ele>472.60000610352</ele>
        <time>2020-02-23T16:29:58Z</time>
      </trkpt>
      <trkpt lat="46.25414" lon="6.2842">
        <ele>472.60000610352</ele>
        <time>2020-02-23T16:29:59Z</time>
      </trkpt>
      <trkpt lat="46.25413" lon="6.28419">
        <ele>472.60000610352</ele>
        <time>2020-02-23T16:30:03Z</time>
      </trkpt>
      <trkpt lat="46.25411" lon="6.28418">
        <ele>473.20001220703</ele>
        <time>2020-02-23T16:30:10Z</time>
      </trkpt>
      <trkpt lat="46.25409" lon="6.28416">
        <ele>473.39999389648</ele>
        <time>2020-02-23T16:30:12Z</time>
      </trkpt>
      <trkpt lat="46.25408" lon="6.28414">
        <ele>473.20001220703</ele>
        <time>2020-02-23T16:30:13Z</time>
      </trkpt>
      <trkpt lat="46.25407" lon="6.28413">
        <ele>473.39999389648</ele>
        <time>2020-02-23T16:30:14Z</time>
      </trkpt>
      <trkpt lat="46.25405" lon="6.28411">
        <ele>473.39999389648</ele>
        <time>2020-02-23T16:30:15Z</time>
      </trkpt>
      <trkpt lat="46.25403" lon="6.2841">
        <ele>473.39999389648</ele>
        <time>2020-02-23T16:30:16Z</time>
      </trkpt>
      <trkpt lat="46.25402" lon="6.28408">
        <ele>473.39999389648</ele>
        <time>2020-02-23T16:30:17Z</time>
      </trkpt>
      <trkpt lat="46.254" lon="6.28405">
        <ele>473.20001220703</ele>
        <time>2020-02-23T16:30:18Z</time>
      </trkpt>
      <trkpt lat="46.2539" lon="6.28388">
        <ele>472.79998779297</ele>
        <time>2020-02-23T16:30:22Z</time>
      </trkpt>
      <trkpt lat="46.25382" lon="6.28376">
        <ele>472.79998779297</ele>
        <time>2020-02-23T16:30:24Z</time>
      </trkpt>
      <trkpt lat="46.25369" lon="6.28358">
        <ele>472.39999389648</ele>
        <time>2020-02-23T16:30:27Z</time>
      </trkpt>
      <trkpt lat="46.25359" lon="6.28347">
        <ele>472</ele>
        <time>2020-02-23T16:30:29Z</time>
      </trkpt>
      <trkpt lat="46.25354" lon="6.28341">
        <ele>471.79998779297</ele>
        <time>2020-02-23T16:30:30Z</time>
      </trkpt>
      <trkpt lat="46.2535" lon="6.28335">
        <ele>471.39999389648</ele>
        <time>2020-02-23T16:30:31Z</time>
      </trkpt>
      <trkpt lat="46.25347" lon="6.28329">
        <ele>471.39999389648</ele>
        <time>2020-02-23T16:30:32Z</time>
      </trkpt>
      <trkpt lat="46.25344" lon="6.28324">
        <ele>471</ele>
        <time>2020-02-23T16:30:33Z</time>
      </trkpt>
      <trkpt lat="46.2534" lon="6.28319">
        <ele>470.79998779297</ele>
        <time>2020-02-23T16:30:34Z</time>
      </trkpt>
      <trkpt lat="46.25326" lon="6.28297">
        <ele>470.39999389648</ele>
        <time>2020-02-23T16:30:38Z</time>
      </trkpt>
      <trkpt lat="46.25322" lon="6.28292">
        <ele>470.39999389648</ele>
        <time>2020-02-23T16:30:39Z</time>
      </trkpt>
      <trkpt lat="46.25314" lon="6.28281">
        <ele>470.20001220703</ele>
        <time>2020-02-23T16:30:41Z</time>
      </trkpt>
      <trkpt lat="46.25297" lon="6.28262">
        <ele>470.20001220703</ele>
        <time>2020-02-23T16:30:45Z</time>
      </trkpt>
      <trkpt lat="46.25293" lon="6.28257">
        <ele>470.20001220703</ele>
        <time>2020-02-23T16:30:46Z</time>
      </trkpt>
      <trkpt lat="46.25289" lon="6.28253">
        <ele>470.20001220703</ele>
        <time>2020-02-23T16:30:47Z</time>
      </trkpt>
      <trkpt lat="46.25285" lon="6.28248">
        <ele>470.20001220703</ele>
        <time>2020-02-23T16:30:48Z</time>
      </trkpt>
      <trkpt lat="46.25281" lon="6.28244">
        <ele>470</ele>
        <time>2020-02-23T16:30:49Z</time>
      </trkpt>
      <trkpt lat="46.25265" lon="6.28227">
        <ele>469.79998779297</ele>
        <time>2020-02-23T16:30:53Z</time>
      </trkpt>
      <trkpt lat="46.25253" lon="6.28213">
        <ele>469.39999389648</ele>
        <time>2020-02-23T16:30:56Z</time>
      </trkpt>
      <trkpt lat="46.25227" lon="6.2818">
        <ele>469.39999389648</ele>
        <time>2020-02-23T16:31:02Z</time>
      </trkpt>
      <trkpt lat="46.25223" lon="6.28175">
        <ele>469.39999389648</ele>
        <time>2020-02-23T16:31:03Z</time>
      </trkpt>
      <trkpt lat="46.25219" lon="6.28169">
        <ele>469.39999389648</ele>
        <time>2020-02-23T16:31:04Z</time>
      </trkpt>
      <trkpt lat="46.25215" lon="6.28164">
        <ele>469.20001220703</ele>
        <time>2020-02-23T16:31:05Z</time>
      </trkpt>
      <trkpt lat="46.25211" lon="6.2816">
        <ele>469.20001220703</ele>
        <time>2020-02-23T16:31:06Z</time>
      </trkpt>
      <trkpt lat="46.25207" lon="6.28155">
        <ele>469.20001220703</ele>
        <time>2020-02-23T16:31:07Z</time>
      </trkpt>
      <trkpt lat="46.25204" lon="6.28151">
        <ele>469.20001220703</ele>
        <time>2020-02-23T16:31:08Z</time>
      </trkpt>
      <trkpt lat="46.252" lon="6.28147">
        <ele>469.20001220703</ele>
        <time>2020-02-23T16:31:09Z</time>
      </trkpt>
      <trkpt lat="46.25196" lon="6.28143">
        <ele>469.20001220703</ele>
        <time>2020-02-23T16:31:10Z</time>
      </trkpt>
      <trkpt lat="46.25193" lon="6.28138">
        <ele>469.20001220703</ele>
        <time>2020-02-23T16:31:11Z</time>
      </trkpt>
      <trkpt lat="46.25172" lon="6.28118">
        <ele>469</ele>
        <time>2020-02-23T16:31:16Z</time>
      </trkpt>
      <trkpt lat="46.25167" lon="6.28114">
        <ele>469</ele>
        <time>2020-02-23T16:31:17Z</time>
      </trkpt>
      <trkpt lat="46.25164" lon="6.2811">
        <ele>469</ele>
        <time>2020-02-23T16:31:18Z</time>
      </trkpt>
      <trkpt lat="46.2516" lon="6.28106">
        <ele>469</ele>
        <time>2020-02-23T16:31:19Z</time>
      </trkpt>
      <trkpt lat="46.25156" lon="6.28102">
        <ele>469</ele>
        <time>2020-02-23T16:31:20Z</time>
      </trkpt>
      <trkpt lat="46.25153" lon="6.28098">
        <ele>469</ele>
        <time>2020-02-23T16:31:21Z</time>
      </trkpt>
      <trkpt lat="46.2515" lon="6.28094">
        <ele>469</ele>
        <time>2020-02-23T16:31:22Z</time>
      </trkpt>
      <trkpt lat="46.25147" lon="6.28089">
        <ele>468.79998779297</ele>
        <time>2020-02-23T16:31:23Z</time>
      </trkpt>
      <trkpt lat="46.25143" lon="6.28085">
        <ele>469</ele>
        <time>2020-02-23T16:31:24Z</time>
      </trkpt>
      <trkpt lat="46.25141" lon="6.2808">
        <ele>469</ele>
        <time>2020-02-23T16:31:25Z</time>
      </trkpt>
      <trkpt lat="46.2514" lon="6.28075">
        <ele>468.79998779297</ele>
        <time>2020-02-23T16:31:26Z</time>
      </trkpt>
      <trkpt lat="46.25139" lon="6.28069">
        <ele>468.79998779297</ele>
        <time>2020-02-23T16:31:27Z</time>
      </trkpt>
      <trkpt lat="46.25138" lon="6.28062">
        <ele>468.79998779297</ele>
        <time>2020-02-23T16:31:28Z</time>
      </trkpt>
      <trkpt lat="46.25138" lon="6.28056">
        <ele>468.79998779297</ele>
        <time>2020-02-23T16:31:29Z</time>
      </trkpt>
      <trkpt lat="46.2514" lon="6.28026">
        <ele>468.60000610352</ele>
        <time>2020-02-23T16:31:33Z</time>
      </trkpt>
      <trkpt lat="46.25141" lon="6.28018">
        <ele>468.60000610352</ele>
        <time>2020-02-23T16:31:34Z</time>
      </trkpt>
      <trkpt lat="46.25141" lon="6.28003">
        <ele>468.60000610352</ele>
        <time>2020-02-23T16:31:36Z</time>
      </trkpt>
      <trkpt lat="46.2514" lon="6.27995">
        <ele>468.60000610352</ele>
        <time>2020-02-23T16:31:37Z</time>
      </trkpt>
      <trkpt lat="46.25138" lon="6.27987">
        <ele>468.60000610352</ele>
        <time>2020-02-23T16:31:38Z</time>
      </trkpt>
      <trkpt lat="46.25125" lon="6.27952">
        <ele>468.39999389648</ele>
        <time>2020-02-23T16:31:43Z</time>
      </trkpt>
      <trkpt lat="46.25122" lon="6.27946">
        <ele>468.20001220703</ele>
        <time>2020-02-23T16:31:44Z</time>
      </trkpt>
      <trkpt lat="46.25118" lon="6.2794">
        <ele>468.39999389648</ele>
        <time>2020-02-23T16:31:45Z</time>
      </trkpt>
      <trkpt lat="46.25115" lon="6.27935">
        <ele>468.39999389648</ele>
        <time>2020-02-23T16:31:46Z</time>
      </trkpt>
      <trkpt lat="46.25111" lon="6.27929">
        <ele>468.20001220703</ele>
        <time>2020-02-23T16:31:47Z</time>
      </trkpt>
      <trkpt lat="46.25108" lon="6.27924">
        <ele>468.20001220703</ele>
        <time>2020-02-23T16:31:48Z</time>
      </trkpt>
      <trkpt lat="46.25105" lon="6.27919">
        <ele>468.20001220703</ele>
        <time>2020-02-23T16:31:49Z</time>
      </trkpt>
      <trkpt lat="46.25102" lon="6.27914">
        <ele>468.20001220703</ele>
        <time>2020-02-23T16:31:50Z</time>
      </trkpt>
      <trkpt lat="46.25099" lon="6.27909">
        <ele>468.20001220703</ele>
        <time>2020-02-23T16:31:51Z</time>
      </trkpt>
      <trkpt lat="46.25096" lon="6.27904">
        <ele>468.20001220703</ele>
        <time>2020-02-23T16:31:52Z</time>
      </trkpt>
      <trkpt lat="46.25091" lon="6.27895">
        <ele>468.20001220703</ele>
        <time>2020-02-23T16:31:54Z</time>
      </trkpt>
      <trkpt lat="46.25085" lon="6.27884">
        <ele>468.20001220703</ele>
        <time>2020-02-23T16:31:56Z</time>
      </trkpt>
      <trkpt lat="46.2508" lon="6.27874">
        <ele>468.39999389648</ele>
        <time>2020-02-23T16:31:58Z</time>
      </trkpt>
      <trkpt lat="46.25074" lon="6.27863">
        <ele>468.20001220703</ele>
        <time>2020-02-23T16:32:00Z</time>
      </trkpt>
      <trkpt lat="46.25069" lon="6.27851">
        <ele>468.20001220703</ele>
        <time>2020-02-23T16:32:02Z</time>
      </trkpt>
      <trkpt lat="46.25064" lon="6.27839">
        <ele>468.20001220703</ele>
        <time>2020-02-23T16:32:04Z</time>
      </trkpt>
      <trkpt lat="46.25056" lon="6.27821">
        <ele>468.20001220703</ele>
        <time>2020-02-23T16:32:07Z</time>
      </trkpt>
      <trkpt lat="46.25054" lon="6.27815">
        <ele>468.20001220703</ele>
        <time>2020-02-23T16:32:08Z</time>
      </trkpt>
      <trkpt lat="46.25051" lon="6.2781">
        <ele>468</ele>
        <time>2020-02-23T16:32:09Z</time>
      </trkpt>
      <trkpt lat="46.25049" lon="6.27804">
        <ele>468.20001220703</ele>
        <time>2020-02-23T16:32:10Z</time>
      </trkpt>
      <trkpt lat="46.25047" lon="6.27799">
        <ele>468.20001220703</ele>
        <time>2020-02-23T16:32:11Z</time>
      </trkpt>
      <trkpt lat="46.25044" lon="6.27793">
        <ele>468.20001220703</ele>
        <time>2020-02-23T16:32:12Z</time>
      </trkpt>
      <trkpt lat="46.25042" lon="6.27789">
        <ele>468.20001220703</ele>
        <time>2020-02-23T16:32:13Z</time>
      </trkpt>
      <trkpt lat="46.2504" lon="6.27784">
        <ele>468.20001220703</ele>
        <time>2020-02-23T16:32:14Z</time>
      </trkpt>
      <trkpt lat="46.25038" lon="6.2778">
        <ele>468.20001220703</ele>
        <time>2020-02-23T16:32:15Z</time>
      </trkpt>
      <trkpt lat="46.25036" lon="6.27777">
        <ele>468.20001220703</ele>
        <time>2020-02-23T16:32:16Z</time>
      </trkpt>
      <trkpt lat="46.25034" lon="6.27773">
        <ele>468.20001220703</ele>
        <time>2020-02-23T16:32:17Z</time>
      </trkpt>
      <trkpt lat="46.25033" lon="6.2777">
        <ele>468.20001220703</ele>
        <time>2020-02-23T16:32:18Z</time>
      </trkpt>
      <trkpt lat="46.25032" lon="6.27767">
        <ele>468.39999389648</ele>
        <time>2020-02-23T16:32:19Z</time>
      </trkpt>
      <trkpt lat="46.2503" lon="6.27764">
        <ele>468.39999389648</ele>
        <time>2020-02-23T16:32:20Z</time>
      </trkpt>
      <trkpt lat="46.25029" lon="6.27761">
        <ele>468.60000610352</ele>
        <time>2020-02-23T16:32:21Z</time>
      </trkpt>
      <trkpt lat="46.25028" lon="6.27758">
        <ele>468.79998779297</ele>
        <time>2020-02-23T16:32:22Z</time>
      </trkpt>
      <trkpt lat="46.25028" lon="6.27757">
        <ele>468.79998779297</ele>
        <time>2020-02-23T16:32:23Z</time>
      </trkpt>
      <trkpt lat="46.25027" lon="6.27756">
        <ele>468.60000610352</ele>
        <time>2020-02-23T16:32:24Z</time>
      </trkpt>
      <trkpt lat="46.25027" lon="6.27756">
        <ele>469.79998779297</ele>
        <time>2020-02-23T16:32:37Z</time>
      </trkpt>
      <trkpt lat="46.25027" lon="6.27755">
        <ele>469.60000610352</ele>
        <time>2020-02-23T16:32:54Z</time>
      </trkpt>
      <trkpt lat="46.25027" lon="6.27755">
        <ele>469.79998779297</ele>
        <time>2020-02-23T16:32:56Z</time>
      </trkpt>
      <trkpt lat="46.25026" lon="6.27755">
        <ele>469.60000610352</ele>
        <time>2020-02-23T16:33:04Z</time>
      </trkpt>
      <trkpt lat="46.25026" lon="6.27754">
        <ele>469.60000610352</ele>
        <time>2020-02-23T16:33:05Z</time>
      </trkpt>
      <trkpt lat="46.25025" lon="6.27754">
        <ele>469.60000610352</ele>
        <time>2020-02-23T16:33:06Z</time>
      </trkpt>
      <trkpt lat="46.25024" lon="6.27753">
        <ele>469.60000610352</ele>
        <time>2020-02-23T16:33:07Z</time>
      </trkpt>
      <trkpt lat="46.25024" lon="6.27752">
        <ele>469.60000610352</ele>
        <time>2020-02-23T16:33:08Z</time>
      </trkpt>
      <trkpt lat="46.25023" lon="6.27751">
        <ele>469.60000610352</ele>
        <time>2020-02-23T16:33:09Z</time>
      </trkpt>
      <trkpt lat="46.25022" lon="6.27749">
        <ele>469.60000610352</ele>
        <time>2020-02-23T16:33:10Z</time>
      </trkpt>
      <trkpt lat="46.2502" lon="6.27745">
        <ele>469.60000610352</ele>
        <time>2020-02-23T16:33:12Z</time>
      </trkpt>
      <trkpt lat="46.25019" lon="6.2774">
        <ele>469.60000610352</ele>
        <time>2020-02-23T16:33:14Z</time>
      </trkpt>
      <trkpt lat="46.25018" lon="6.27738">
        <ele>469.39999389648</ele>
        <time>2020-02-23T16:33:15Z</time>
      </trkpt>
      <trkpt lat="46.25018" lon="6.27737">
        <ele>469.39999389648</ele>
        <time>2020-02-23T16:33:16Z</time>
      </trkpt>
      <trkpt lat="46.25019" lon="6.27736">
        <ele>469.60000610352</ele>
        <time>2020-02-23T16:33:17Z</time>
      </trkpt>
      <trkpt lat="46.2502" lon="6.27734">
        <ele>469.39999389648</ele>
        <time>2020-02-23T16:33:18Z</time>
      </trkpt>
      <trkpt lat="46.25021" lon="6.27732">
        <ele>469.39999389648</ele>
        <time>2020-02-23T16:33:19Z</time>
      </trkpt>
      <trkpt lat="46.25023" lon="6.2773">
        <ele>469.39999389648</ele>
        <time>2020-02-23T16:33:20Z</time>
      </trkpt>
      <trkpt lat="46.25024" lon="6.27727">
        <ele>469.39999389648</ele>
        <time>2020-02-23T16:33:21Z</time>
      </trkpt>
      <trkpt lat="46.25025" lon="6.27725">
        <ele>469.39999389648</ele>
        <time>2020-02-23T16:33:22Z</time>
      </trkpt>
      <trkpt lat="46.25026" lon="6.27724">
        <ele>469.39999389648</ele>
        <time>2020-02-23T16:33:23Z</time>
      </trkpt>
      <trkpt lat="46.25028" lon="6.27722">
        <ele>469.39999389648</ele>
        <time>2020-02-23T16:33:24Z</time>
      </trkpt>
      <trkpt lat="46.25029" lon="6.27719">
        <ele>469.20001220703</ele>
        <time>2020-02-23T16:33:25Z</time>
      </trkpt>
      <trkpt lat="46.25034" lon="6.27712">
        <ele>469</ele>
        <time>2020-02-23T16:33:28Z</time>
      </trkpt>
      <trkpt lat="46.25041" lon="6.27704">
        <ele>469.20001220703</ele>
        <time>2020-02-23T16:33:31Z</time>
      </trkpt>
      <trkpt lat="46.25043" lon="6.27701">
        <ele>469.20001220703</ele>
        <time>2020-02-23T16:33:32Z</time>
      </trkpt>
      <trkpt lat="46.25062" lon="6.27677">
        <ele>468.79998779297</ele>
        <time>2020-02-23T16:33:38Z</time>
      </trkpt>
      <trkpt lat="46.25065" lon="6.27674">
        <ele>468.79998779297</ele>
        <time>2020-02-23T16:33:39Z</time>
      </trkpt>
      <trkpt lat="46.25069" lon="6.2767">
        <ele>468.60000610352</ele>
        <time>2020-02-23T16:33:40Z</time>
      </trkpt>
      <trkpt lat="46.25071" lon="6.27667">
        <ele>468.60000610352</ele>
        <time>2020-02-23T16:33:41Z</time>
      </trkpt>
      <trkpt lat="46.25074" lon="6.27663">
        <ele>468.39999389648</ele>
        <time>2020-02-23T16:33:42Z</time>
      </trkpt>
      <trkpt lat="46.25076" lon="6.2766">
        <ele>468.39999389648</ele>
        <time>2020-02-23T16:33:43Z</time>
      </trkpt>
      <trkpt lat="46.25079" lon="6.27657">
        <ele>468.20001220703</ele>
        <time>2020-02-23T16:33:44Z</time>
      </trkpt>
      <trkpt lat="46.25081" lon="6.27654">
        <ele>468</ele>
        <time>2020-02-23T16:33:45Z</time>
      </trkpt>
      <trkpt lat="46.25082" lon="6.27652">
        <ele>468</ele>
        <time>2020-02-23T16:33:46Z</time>
      </trkpt>
      <trkpt lat="46.25084" lon="6.2765">
        <ele>468</ele>
        <time>2020-02-23T16:33:47Z</time>
      </trkpt>
      <trkpt lat="46.25085" lon="6.27649">
        <ele>467.60000610352</ele>
        <time>2020-02-23T16:33:48Z</time>
      </trkpt>
      <trkpt lat="46.25087" lon="6.27647">
        <ele>467.60000610352</ele>
        <time>2020-02-23T16:33:49Z</time>
      </trkpt>
      <trkpt lat="46.25088" lon="6.27645">
        <ele>467.39999389648</ele>
        <time>2020-02-23T16:33:50Z</time>
      </trkpt>
      <trkpt lat="46.2509" lon="6.27641">
        <ele>467.60000610352</ele>
        <time>2020-02-23T16:33:52Z</time>
      </trkpt>
      <trkpt lat="46.2509" lon="6.27638">
        <ele>467.60000610352</ele>
        <time>2020-02-23T16:33:53Z</time>
      </trkpt>
      <trkpt lat="46.25089" lon="6.27635">
        <ele>467.39999389648</ele>
        <time>2020-02-23T16:33:54Z</time>
      </trkpt>
      <trkpt lat="46.25088" lon="6.27632">
        <ele>467.39999389648</ele>
        <time>2020-02-23T16:33:55Z</time>
      </trkpt>
      <trkpt lat="46.25087" lon="6.27628">
        <ele>467.39999389648</ele>
        <time>2020-02-23T16:33:56Z</time>
      </trkpt>
      <trkpt lat="46.25082" lon="6.27608">
        <ele>467.20001220703</ele>
        <time>2020-02-23T16:34:00Z</time>
      </trkpt>
      <trkpt lat="46.2508" lon="6.27602">
        <ele>467.20001220703</ele>
        <time>2020-02-23T16:34:01Z</time>
      </trkpt>
      <trkpt lat="46.25074" lon="6.2758">
        <ele>467</ele>
        <time>2020-02-23T16:34:05Z</time>
      </trkpt>
      <trkpt lat="46.25068" lon="6.27555">
        <ele>466.60000610352</ele>
        <time>2020-02-23T16:34:09Z</time>
      </trkpt>
      <trkpt lat="46.25063" lon="6.27536">
        <ele>465.60000610352</ele>
        <time>2020-02-23T16:34:12Z</time>
      </trkpt>
      <trkpt lat="46.2506" lon="6.27523">
        <ele>465.20001220703</ele>
        <time>2020-02-23T16:34:14Z</time>
      </trkpt>
      <trkpt lat="46.25058" lon="6.27517">
        <ele>465.20001220703</ele>
        <time>2020-02-23T16:34:15Z</time>
      </trkpt>
      <trkpt lat="46.25056" lon="6.27511">
        <ele>465.20001220703</ele>
        <time>2020-02-23T16:34:16Z</time>
      </trkpt>
      <trkpt lat="46.25055" lon="6.27505">
        <ele>465.20001220703</ele>
        <time>2020-02-23T16:34:17Z</time>
      </trkpt>
      <trkpt lat="46.25053" lon="6.275">
        <ele>465.20001220703</ele>
        <time>2020-02-23T16:34:18Z</time>
      </trkpt>
      <trkpt lat="46.25051" lon="6.27495">
        <ele>465.20001220703</ele>
        <time>2020-02-23T16:34:19Z</time>
      </trkpt>
      <trkpt lat="46.25049" lon="6.27491">
        <ele>465.20001220703</ele>
        <time>2020-02-23T16:34:20Z</time>
      </trkpt>
      <trkpt lat="46.25047" lon="6.27488">
        <ele>465.20001220703</ele>
        <time>2020-02-23T16:34:21Z</time>
      </trkpt>
      <trkpt lat="46.25045" lon="6.27486">
        <ele>465.20001220703</ele>
        <time>2020-02-23T16:34:22Z</time>
      </trkpt>
      <trkpt lat="46.25043" lon="6.27485">
        <ele>465.20001220703</ele>
        <time>2020-02-23T16:34:23Z</time>
      </trkpt>
      <trkpt lat="46.25041" lon="6.27485">
        <ele>465.20001220703</ele>
        <time>2020-02-23T16:34:24Z</time>
      </trkpt>
      <trkpt lat="46.25039" lon="6.27485">
        <ele>465.39999389648</ele>
        <time>2020-02-23T16:34:25Z</time>
      </trkpt>
      <trkpt lat="46.25037" lon="6.27484">
        <ele>465.39999389648</ele>
        <time>2020-02-23T16:34:26Z</time>
      </trkpt>
      <trkpt lat="46.25036" lon="6.27482">
        <ele>465.39999389648</ele>
        <time>2020-02-23T16:34:27Z</time>
      </trkpt>
      <trkpt lat="46.25031" lon="6.27478">
        <ele>465.60000610352</ele>
        <time>2020-02-23T16:34:29Z</time>
      </trkpt>
      <trkpt lat="46.25025" lon="6.27471">
        <ele>465.79998779297</ele>
        <time>2020-02-23T16:34:31Z</time>
      </trkpt>
      <trkpt lat="46.2501" lon="6.27442">
        <ele>465.79998779297</ele>
        <time>2020-02-23T16:34:37Z</time>
      </trkpt>
      <trkpt lat="46.25008" lon="6.27436">
        <ele>465.79998779297</ele>
        <time>2020-02-23T16:34:38Z</time>
      </trkpt>
      <trkpt lat="46.25006" lon="6.2743">
        <ele>465.79998779297</ele>
        <time>2020-02-23T16:34:39Z</time>
      </trkpt>
      <trkpt lat="46.25" lon="6.27409">
        <ele>465.79998779297</ele>
        <time>2020-02-23T16:34:42Z</time>
      </trkpt>
      <trkpt lat="46.24994" lon="6.27388">
        <ele>465.39999389648</ele>
        <time>2020-02-23T16:34:45Z</time>
      </trkpt>
      <trkpt lat="46.24992" lon="6.27382">
        <ele>465.39999389648</ele>
        <time>2020-02-23T16:34:46Z</time>
      </trkpt>
      <trkpt lat="46.24989" lon="6.27376">
        <ele>465.39999389648</ele>
        <time>2020-02-23T16:34:47Z</time>
      </trkpt>
      <trkpt lat="46.24986" lon="6.27371">
        <ele>465.20001220703</ele>
        <time>2020-02-23T16:34:48Z</time>
      </trkpt>
      <trkpt lat="46.24983" lon="6.27365">
        <ele>465.39999389648</ele>
        <time>2020-02-23T16:34:49Z</time>
      </trkpt>
      <trkpt lat="46.2498" lon="6.27361">
        <ele>465.20001220703</ele>
        <time>2020-02-23T16:34:50Z</time>
      </trkpt>
      <trkpt lat="46.24978" lon="6.27356">
        <ele>465.39999389648</ele>
        <time>2020-02-23T16:34:51Z</time>
      </trkpt>
      <trkpt lat="46.24975" lon="6.27352">
        <ele>465.20001220703</ele>
        <time>2020-02-23T16:34:52Z</time>
      </trkpt>
      <trkpt lat="46.24972" lon="6.27348">
        <ele>465.20001220703</ele>
        <time>2020-02-23T16:34:53Z</time>
      </trkpt>
      <trkpt lat="46.2497" lon="6.27345">
        <ele>465.20001220703</ele>
        <time>2020-02-23T16:34:54Z</time>
      </trkpt>
      <trkpt lat="46.24967" lon="6.27342">
        <ele>465.39999389648</ele>
        <time>2020-02-23T16:34:55Z</time>
      </trkpt>
      <trkpt lat="46.24965" lon="6.27339">
        <ele>465.39999389648</ele>
        <time>2020-02-23T16:34:56Z</time>
      </trkpt>
      <trkpt lat="46.24964" lon="6.27338">
        <ele>465.39999389648</ele>
        <time>2020-02-23T16:34:57Z</time>
      </trkpt>
      <trkpt lat="46.24964" lon="6.27338">
        <ele>465.60000610352</ele>
        <time>2020-02-23T16:35:00Z</time>
      </trkpt>
      <trkpt lat="46.24964" lon="6.27338">
        <ele>465.60000610352</ele>
        <time>2020-02-23T16:35:01Z</time>
      </trkpt>
      <trkpt lat="46.24964" lon="6.27337">
        <ele>465.60000610352</ele>
        <time>2020-02-23T16:35:02Z</time>
      </trkpt>
      <trkpt lat="46.24963" lon="6.27336">
        <ele>466</ele>
        <time>2020-02-23T16:35:08Z</time>
      </trkpt>
      <trkpt lat="46.24963" lon="6.27335">
        <ele>466</ele>
        <time>2020-02-23T16:35:09Z</time>
      </trkpt>
      <trkpt lat="46.24962" lon="6.27334">
        <ele>466.20001220703</ele>
        <time>2020-02-23T16:35:10Z</time>
      </trkpt>
      <trkpt lat="46.24961" lon="6.27333">
        <ele>466.20001220703</ele>
        <time>2020-02-23T16:35:11Z</time>
      </trkpt>
      <trkpt lat="46.2496" lon="6.27331">
        <ele>466</ele>
        <time>2020-02-23T16:35:12Z</time>
      </trkpt>
      <trkpt lat="46.24956" lon="6.27322">
        <ele>466</ele>
        <time>2020-02-23T16:35:15Z</time>
      </trkpt>
      <trkpt lat="46.24955" lon="6.27318">
        <ele>466.20001220703</ele>
        <time>2020-02-23T16:35:16Z</time>
      </trkpt>
      <trkpt lat="46.24953" lon="6.27314">
        <ele>466.20001220703</ele>
        <time>2020-02-23T16:35:17Z</time>
      </trkpt>
      <trkpt lat="46.24945" lon="6.27294">
        <ele>465.79998779297</ele>
        <time>2020-02-23T16:35:21Z</time>
      </trkpt>
      <trkpt lat="46.24943" lon="6.27288">
        <ele>465.79998779297</ele>
        <time>2020-02-23T16:35:22Z</time>
      </trkpt>
      <trkpt lat="46.24933" lon="6.27262">
        <ele>465.60000610352</ele>
        <time>2020-02-23T16:35:26Z</time>
      </trkpt>
      <trkpt lat="46.24928" lon="6.2724">
        <ele>465.20001220703</ele>
        <time>2020-02-23T16:35:29Z</time>
      </trkpt>
      <trkpt lat="46.24926" lon="6.27233">
        <ele>465</ele>
        <time>2020-02-23T16:35:30Z</time>
      </trkpt>
      <trkpt lat="46.24924" lon="6.27226">
        <ele>464.79998779297</ele>
        <time>2020-02-23T16:35:31Z</time>
      </trkpt>
      <trkpt lat="46.24922" lon="6.27219">
        <ele>464.79998779297</ele>
        <time>2020-02-23T16:35:32Z</time>
      </trkpt>
      <trkpt lat="46.2492" lon="6.27212">
        <ele>464.79998779297</ele>
        <time>2020-02-23T16:35:33Z</time>
      </trkpt>
      <trkpt lat="46.24919" lon="6.27206">
        <ele>464.60000610352</ele>
        <time>2020-02-23T16:35:34Z</time>
      </trkpt>
      <trkpt lat="46.24917" lon="6.272">
        <ele>464.60000610352</ele>
        <time>2020-02-23T16:35:35Z</time>
      </trkpt>
      <trkpt lat="46.24915" lon="6.27195">
        <ele>464.60000610352</ele>
        <time>2020-02-23T16:35:36Z</time>
      </trkpt>
      <trkpt lat="46.24914" lon="6.27189">
        <ele>464.60000610352</ele>
        <time>2020-02-23T16:35:37Z</time>
      </trkpt>
      <trkpt lat="46.24912" lon="6.27184">
        <ele>464.39999389648</ele>
        <time>2020-02-23T16:35:38Z</time>
      </trkpt>
      <trkpt lat="46.24911" lon="6.27178">
        <ele>464.60000610352</ele>
        <time>2020-02-23T16:35:39Z</time>
      </trkpt>
      <trkpt lat="46.24903" lon="6.27151">
        <ele>464.60000610352</ele>
        <time>2020-02-23T16:35:44Z</time>
      </trkpt>
      <trkpt lat="46.249" lon="6.27139">
        <ele>464.39999389648</ele>
        <time>2020-02-23T16:35:46Z</time>
      </trkpt>
      <trkpt lat="46.24898" lon="6.27133">
        <ele>464.39999389648</ele>
        <time>2020-02-23T16:35:47Z</time>
      </trkpt>
      <trkpt lat="46.24896" lon="6.27127">
        <ele>464.39999389648</ele>
        <time>2020-02-23T16:35:48Z</time>
      </trkpt>
      <trkpt lat="46.24894" lon="6.27122">
        <ele>464.20001220703</ele>
        <time>2020-02-23T16:35:49Z</time>
      </trkpt>
      <trkpt lat="46.24892" lon="6.27117">
        <ele>464.39999389648</ele>
        <time>2020-02-23T16:35:50Z</time>
      </trkpt>
      <trkpt lat="46.24887" lon="6.27107">
        <ele>464.39999389648</ele>
        <time>2020-02-23T16:35:52Z</time>
      </trkpt>
      <trkpt lat="46.2488" lon="6.27091">
        <ele>464.20001220703</ele>
        <time>2020-02-23T16:35:55Z</time>
      </trkpt>
      <trkpt lat="46.24877" lon="6.27086">
        <ele>464.20001220703</ele>
        <time>2020-02-23T16:35:56Z</time>
      </trkpt>
      <trkpt lat="46.24875" lon="6.27081">
        <ele>464.39999389648</ele>
        <time>2020-02-23T16:35:57Z</time>
      </trkpt>
      <trkpt lat="46.24874" lon="6.27076">
        <ele>464.39999389648</ele>
        <time>2020-02-23T16:35:58Z</time>
      </trkpt>
      <trkpt lat="46.24872" lon="6.27071">
        <ele>464.39999389648</ele>
        <time>2020-02-23T16:35:59Z</time>
      </trkpt>
      <trkpt lat="46.24871" lon="6.27067">
        <ele>464.39999389648</ele>
        <time>2020-02-23T16:36:00Z</time>
      </trkpt>
      <trkpt lat="46.24869" lon="6.27063">
        <ele>464.39999389648</ele>
        <time>2020-02-23T16:36:01Z</time>
      </trkpt>
      <trkpt lat="46.24868" lon="6.27059">
        <ele>464.39999389648</ele>
        <time>2020-02-23T16:36:02Z</time>
      </trkpt>
      <trkpt lat="46.24867" lon="6.27055">
        <ele>464.39999389648</ele>
        <time>2020-02-23T16:36:03Z</time>
      </trkpt>
      <trkpt lat="46.24865" lon="6.27052">
        <ele>464.39999389648</ele>
        <time>2020-02-23T16:36:04Z</time>
      </trkpt>
      <trkpt lat="46.24861" lon="6.27039">
        <ele>464.39999389648</ele>
        <time>2020-02-23T16:36:07Z</time>
      </trkpt>
      <trkpt lat="46.24854" lon="6.27026">
        <ele>464.60000610352</ele>
        <time>2020-02-23T16:36:10Z</time>
      </trkpt>
      <trkpt lat="46.24852" lon="6.27022">
        <ele>464.60000610352</ele>
        <time>2020-02-23T16:36:11Z</time>
      </trkpt>
      <trkpt lat="46.2485" lon="6.27018">
        <ele>464.60000610352</ele>
        <time>2020-02-23T16:36:12Z</time>
      </trkpt>
      <trkpt lat="46.24839" lon="6.26998">
        <ele>464.39999389648</ele>
        <time>2020-02-23T16:36:16Z</time>
      </trkpt>
      <trkpt lat="46.24826" lon="6.26965">
        <ele>464</ele>
        <time>2020-02-23T16:36:21Z</time>
      </trkpt>
      <trkpt lat="46.24823" lon="6.26949">
        <ele>463.79998779297</ele>
        <time>2020-02-23T16:36:23Z</time>
      </trkpt>
      <trkpt lat="46.24817" lon="6.26926">
        <ele>463.39999389648</ele>
        <time>2020-02-23T16:36:26Z</time>
      </trkpt>
      <trkpt lat="46.24816" lon="6.26919">
        <ele>463.39999389648</ele>
        <time>2020-02-23T16:36:27Z</time>
      </trkpt>
      <trkpt lat="46.24814" lon="6.26912">
        <ele>463.39999389648</ele>
        <time>2020-02-23T16:36:28Z</time>
      </trkpt>
      <trkpt lat="46.24812" lon="6.26905">
        <ele>463.20001220703</ele>
        <time>2020-02-23T16:36:29Z</time>
      </trkpt>
      <trkpt lat="46.24811" lon="6.26898">
        <ele>463.20001220703</ele>
        <time>2020-02-23T16:36:30Z</time>
      </trkpt>
      <trkpt lat="46.24809" lon="6.26891">
        <ele>463.20001220703</ele>
        <time>2020-02-23T16:36:31Z</time>
      </trkpt>
      <trkpt lat="46.24807" lon="6.26885">
        <ele>463.20001220703</ele>
        <time>2020-02-23T16:36:32Z</time>
      </trkpt>
      <trkpt lat="46.24806" lon="6.26878">
        <ele>463.20001220703</ele>
        <time>2020-02-23T16:36:33Z</time>
      </trkpt>
      <trkpt lat="46.24804" lon="6.26872">
        <ele>463.20001220703</ele>
        <time>2020-02-23T16:36:34Z</time>
      </trkpt>
      <trkpt lat="46.24802" lon="6.26867">
        <ele>463.20001220703</ele>
        <time>2020-02-23T16:36:35Z</time>
      </trkpt>
      <trkpt lat="46.24801" lon="6.26861">
        <ele>463.39999389648</ele>
        <time>2020-02-23T16:36:36Z</time>
      </trkpt>
      <trkpt lat="46.24799" lon="6.26855">
        <ele>463.20001220703</ele>
        <time>2020-02-23T16:36:37Z</time>
      </trkpt>
      <trkpt lat="46.24798" lon="6.2685">
        <ele>463.20001220703</ele>
        <time>2020-02-23T16:36:38Z</time>
      </trkpt>
      <trkpt lat="46.24797" lon="6.26845">
        <ele>463.20001220703</ele>
        <time>2020-02-23T16:36:39Z</time>
      </trkpt>
      <trkpt lat="46.24795" lon="6.26839">
        <ele>463.20001220703</ele>
        <time>2020-02-23T16:36:40Z</time>
      </trkpt>
      <trkpt lat="46.24788" lon="6.26815">
        <ele>463</ele>
        <time>2020-02-23T16:36:44Z</time>
      </trkpt>
      <trkpt lat="46.24775" lon="6.26768">
        <ele>462.79998779297</ele>
        <time>2020-02-23T16:36:51Z</time>
      </trkpt>
      <trkpt lat="46.24774" lon="6.26761">
        <ele>462.79998779297</ele>
        <time>2020-02-23T16:36:52Z</time>
      </trkpt>
      <trkpt lat="46.24772" lon="6.26755">
        <ele>462.60000610352</ele>
        <time>2020-02-23T16:36:53Z</time>
      </trkpt>
      <trkpt lat="46.2477" lon="6.26749">
        <ele>462.60000610352</ele>
        <time>2020-02-23T16:36:54Z</time>
      </trkpt>
      <trkpt lat="46.24768" lon="6.26743">
        <ele>462.39999389648</ele>
        <time>2020-02-23T16:36:55Z</time>
      </trkpt>
      <trkpt lat="46.24766" lon="6.26738">
        <ele>462.39999389648</ele>
        <time>2020-02-23T16:36:56Z</time>
      </trkpt>
      <trkpt lat="46.24765" lon="6.26732">
        <ele>462.39999389648</ele>
        <time>2020-02-23T16:36:57Z</time>
      </trkpt>
      <trkpt lat="46.24763" lon="6.26727">
        <ele>462.39999389648</ele>
        <time>2020-02-23T16:36:58Z</time>
      </trkpt>
      <trkpt lat="46.24761" lon="6.26722">
        <ele>462.20001220703</ele>
        <time>2020-02-23T16:36:59Z</time>
      </trkpt>
      <trkpt lat="46.24759" lon="6.26716">
        <ele>462.20001220703</ele>
        <time>2020-02-23T16:37:00Z</time>
      </trkpt>
      <trkpt lat="46.24757" lon="6.26711">
        <ele>462.20001220703</ele>
        <time>2020-02-23T16:37:01Z</time>
      </trkpt>
      <trkpt lat="46.24756" lon="6.26707">
        <ele>462</ele>
        <time>2020-02-23T16:37:02Z</time>
      </trkpt>
      <trkpt lat="46.24754" lon="6.26704">
        <ele>462.20001220703</ele>
        <time>2020-02-23T16:37:03Z</time>
      </trkpt>
      <trkpt lat="46.24752" lon="6.267">
        <ele>462</ele>
        <time>2020-02-23T16:37:04Z</time>
      </trkpt>
      <trkpt lat="46.24751" lon="6.26697">
        <ele>462</ele>
        <time>2020-02-23T16:37:05Z</time>
      </trkpt>
      <trkpt lat="46.24745" lon="6.26684">
        <ele>462</ele>
        <time>2020-02-23T16:37:08Z</time>
      </trkpt>
      <trkpt lat="46.24736" lon="6.26666">
        <ele>462.20001220703</ele>
        <time>2020-02-23T16:37:12Z</time>
      </trkpt>
      <trkpt lat="46.2473" lon="6.2665">
        <ele>462.20001220703</ele>
        <time>2020-02-23T16:37:15Z</time>
      </trkpt>
      <trkpt lat="46.24725" lon="6.2664">
        <ele>462.20001220703</ele>
        <time>2020-02-23T16:37:17Z</time>
      </trkpt>
      <trkpt lat="46.24722" lon="6.26634">
        <ele>462</ele>
        <time>2020-02-23T16:37:18Z</time>
      </trkpt>
      <trkpt lat="46.24709" lon="6.26614">
        <ele>461.79998779297</ele>
        <time>2020-02-23T16:37:22Z</time>
      </trkpt>
      <trkpt lat="46.24706" lon="6.26609">
        <ele>461.79998779297</ele>
        <time>2020-02-23T16:37:23Z</time>
      </trkpt>
      <trkpt lat="46.24703" lon="6.26604">
        <ele>461.79998779297</ele>
        <time>2020-02-23T16:37:24Z</time>
      </trkpt>
      <trkpt lat="46.247" lon="6.266">
        <ele>461.79998779297</ele>
        <time>2020-02-23T16:37:25Z</time>
      </trkpt>
      <trkpt lat="46.24696" lon="6.26595">
        <ele>461.60000610352</ele>
        <time>2020-02-23T16:37:26Z</time>
      </trkpt>
      <trkpt lat="46.24693" lon="6.2659">
        <ele>461.60000610352</ele>
        <time>2020-02-23T16:37:27Z</time>
      </trkpt>
      <trkpt lat="46.2469" lon="6.26586">
        <ele>461.39999389648</ele>
        <time>2020-02-23T16:37:28Z</time>
      </trkpt>
      <trkpt lat="46.24688" lon="6.26582">
        <ele>461.60000610352</ele>
        <time>2020-02-23T16:37:29Z</time>
      </trkpt>
      <trkpt lat="46.24685" lon="6.26578">
        <ele>461.39999389648</ele>
        <time>2020-02-23T16:37:30Z</time>
      </trkpt>
      <trkpt lat="46.24683" lon="6.26575">
        <ele>461.39999389648</ele>
        <time>2020-02-23T16:37:31Z</time>
      </trkpt>
      <trkpt lat="46.2468" lon="6.26571">
        <ele>461.39999389648</ele>
        <time>2020-02-23T16:37:32Z</time>
      </trkpt>
      <trkpt lat="46.24678" lon="6.26568">
        <ele>461.20001220703</ele>
        <time>2020-02-23T16:37:33Z</time>
      </trkpt>
      <trkpt lat="46.24676" lon="6.26565">
        <ele>461.20001220703</ele>
        <time>2020-02-23T16:37:34Z</time>
      </trkpt>
      <trkpt lat="46.24674" lon="6.26562">
        <ele>461.20001220703</ele>
        <time>2020-02-23T16:37:35Z</time>
      </trkpt>
      <trkpt lat="46.24672" lon="6.2656">
        <ele>461.20001220703</ele>
        <time>2020-02-23T16:37:36Z</time>
      </trkpt>
      <trkpt lat="46.2467" lon="6.26558">
        <ele>461.39999389648</ele>
        <time>2020-02-23T16:37:37Z</time>
      </trkpt>
      <trkpt lat="46.24668" lon="6.26555">
        <ele>461.20001220703</ele>
        <time>2020-02-23T16:37:38Z</time>
      </trkpt>
      <trkpt lat="46.24666" lon="6.26553">
        <ele>461.39999389648</ele>
        <time>2020-02-23T16:37:39Z</time>
      </trkpt>
      <trkpt lat="46.24664" lon="6.2655">
        <ele>461.20001220703</ele>
        <time>2020-02-23T16:37:40Z</time>
      </trkpt>
      <trkpt lat="46.24662" lon="6.26548">
        <ele>461.39999389648</ele>
        <time>2020-02-23T16:37:41Z</time>
      </trkpt>
      <trkpt lat="46.2466" lon="6.26546">
        <ele>461.39999389648</ele>
        <time>2020-02-23T16:37:42Z</time>
      </trkpt>
      <trkpt lat="46.24659" lon="6.26545">
        <ele>461.39999389648</ele>
        <time>2020-02-23T16:37:43Z</time>
      </trkpt>
      <trkpt lat="46.24657" lon="6.26543">
        <ele>461.39999389648</ele>
        <time>2020-02-23T16:37:44Z</time>
      </trkpt>
      <trkpt lat="46.24656" lon="6.26542">
        <ele>461.60000610352</ele>
        <time>2020-02-23T16:37:45Z</time>
      </trkpt>
      <trkpt lat="46.24654" lon="6.26541">
        <ele>461.60000610352</ele>
        <time>2020-02-23T16:37:46Z</time>
      </trkpt>
      <trkpt lat="46.24652" lon="6.26539">
        <ele>461.39999389648</ele>
        <time>2020-02-23T16:37:47Z</time>
      </trkpt>
      <trkpt lat="46.24648" lon="6.26535">
        <ele>461.60000610352</ele>
        <time>2020-02-23T16:37:49Z</time>
      </trkpt>
      <trkpt lat="46.24644" lon="6.26531">
        <ele>461.60000610352</ele>
        <time>2020-02-23T16:37:51Z</time>
      </trkpt>
      <trkpt lat="46.24638" lon="6.26527">
        <ele>461.39999389648</ele>
        <time>2020-02-23T16:37:53Z</time>
      </trkpt>
      <trkpt lat="46.24636" lon="6.26524">
        <ele>461.39999389648</ele>
        <time>2020-02-23T16:37:54Z</time>
      </trkpt>
      <trkpt lat="46.24633" lon="6.26522">
        <ele>461.39999389648</ele>
        <time>2020-02-23T16:37:55Z</time>
      </trkpt>
      <trkpt lat="46.24628" lon="6.26517">
        <ele>461.60000610352</ele>
        <time>2020-02-23T16:37:57Z</time>
      </trkpt>
      <trkpt lat="46.24626" lon="6.26516">
        <ele>461.60000610352</ele>
        <time>2020-02-23T16:37:58Z</time>
      </trkpt>
      <trkpt lat="46.2462" lon="6.26512">
        <ele>461.39999389648</ele>
        <time>2020-02-23T16:38:00Z</time>
      </trkpt>
      <trkpt lat="46.24618" lon="6.2651">
        <ele>461.20001220703</ele>
        <time>2020-02-23T16:38:01Z</time>
      </trkpt>
      <trkpt lat="46.24613" lon="6.26506">
        <ele>461</ele>
        <time>2020-02-23T16:38:03Z</time>
      </trkpt>
      <trkpt lat="46.24607" lon="6.26503">
        <ele>461</ele>
        <time>2020-02-23T16:38:05Z</time>
      </trkpt>
      <trkpt lat="46.246" lon="6.26498">
        <ele>460.79998779297</ele>
        <time>2020-02-23T16:38:07Z</time>
      </trkpt>
      <trkpt lat="46.24598" lon="6.26495">
        <ele>460.79998779297</ele>
        <time>2020-02-23T16:38:08Z</time>
      </trkpt>
      <trkpt lat="46.24595" lon="6.26493">
        <ele>460.79998779297</ele>
        <time>2020-02-23T16:38:09Z</time>
      </trkpt>
      <trkpt lat="46.24593" lon="6.2649">
        <ele>460.79998779297</ele>
        <time>2020-02-23T16:38:10Z</time>
      </trkpt>
      <trkpt lat="46.2459" lon="6.26487">
        <ele>461</ele>
        <time>2020-02-23T16:38:11Z</time>
      </trkpt>
      <trkpt lat="46.24588" lon="6.26485">
        <ele>460.79998779297</ele>
        <time>2020-02-23T16:38:12Z</time>
      </trkpt>
      <trkpt lat="46.24586" lon="6.26484">
        <ele>460.79998779297</ele>
        <time>2020-02-23T16:38:13Z</time>
      </trkpt>
      <trkpt lat="46.24584" lon="6.26481">
        <ele>460.79998779297</ele>
        <time>2020-02-23T16:38:14Z</time>
      </trkpt>
      <trkpt lat="46.24579" lon="6.26476">
        <ele>460.79998779297</ele>
        <time>2020-02-23T16:38:16Z</time>
      </trkpt>
      <trkpt lat="46.24577" lon="6.26473">
        <ele>461</ele>
        <time>2020-02-23T16:38:17Z</time>
      </trkpt>
      <trkpt lat="46.24576" lon="6.26471">
        <ele>461.20001220703</ele>
        <time>2020-02-23T16:38:18Z</time>
      </trkpt>
      <trkpt lat="46.24575" lon="6.2647">
        <ele>461.20001220703</ele>
        <time>2020-02-23T16:38:19Z</time>
      </trkpt>
      <trkpt lat="46.24575" lon="6.26469">
        <ele>461.20001220703</ele>
        <time>2020-02-23T16:38:20Z</time>
      </trkpt>
      <trkpt lat="46.24575" lon="6.26469">
        <ele>462</ele>
        <time>2020-02-23T16:38:33Z</time>
      </trkpt>
      <trkpt lat="46.24575" lon="6.26469">
        <ele>461.60000610352</ele>
        <time>2020-02-23T16:38:59Z</time>
      </trkpt>
      <trkpt lat="46.24575" lon="6.26468">
        <ele>461.39999389648</ele>
        <time>2020-02-23T16:39:44Z</time>
      </trkpt>
      <trkpt lat="46.24574" lon="6.26467">
        <ele>461.39999389648</ele>
        <time>2020-02-23T16:39:49Z</time>
      </trkpt>
      <trkpt lat="46.24574" lon="6.26466">
        <ele>461.60000610352</ele>
        <time>2020-02-23T16:39:50Z</time>
      </trkpt>
      <trkpt lat="46.24574" lon="6.26462">
        <ele>461.39999389648</ele>
        <time>2020-02-23T16:39:52Z</time>
      </trkpt>
      <trkpt lat="46.24574" lon="6.2646">
        <ele>461.60000610352</ele>
        <time>2020-02-23T16:39:53Z</time>
      </trkpt>
      <trkpt lat="46.24575" lon="6.26457">
        <ele>461.60000610352</ele>
        <time>2020-02-23T16:39:54Z</time>
      </trkpt>
      <trkpt lat="46.24576" lon="6.26454">
        <ele>461.60000610352</ele>
        <time>2020-02-23T16:39:55Z</time>
      </trkpt>
      <trkpt lat="46.24577" lon="6.2645">
        <ele>461.39999389648</ele>
        <time>2020-02-23T16:39:56Z</time>
      </trkpt>
      <trkpt lat="46.24578" lon="6.26447">
        <ele>461.60000610352</ele>
        <time>2020-02-23T16:39:57Z</time>
      </trkpt>
      <trkpt lat="46.24583" lon="6.26428">
        <ele>461.60000610352</ele>
        <time>2020-02-23T16:40:02Z</time>
      </trkpt>
      <trkpt lat="46.24584" lon="6.26423">
        <ele>461.60000610352</ele>
        <time>2020-02-23T16:40:03Z</time>
      </trkpt>
      <trkpt lat="46.24586" lon="6.26418">
        <ele>461.39999389648</ele>
        <time>2020-02-23T16:40:04Z</time>
      </trkpt>
      <trkpt lat="46.24594" lon="6.26393">
        <ele>461.39999389648</ele>
        <time>2020-02-23T16:40:09Z</time>
      </trkpt>
      <trkpt lat="46.24598" lon="6.26381">
        <ele>461.39999389648</ele>
        <time>2020-02-23T16:40:11Z</time>
      </trkpt>
      <trkpt lat="46.24599" lon="6.26374">
        <ele>461.20001220703</ele>
        <time>2020-02-23T16:40:12Z</time>
      </trkpt>
      <trkpt lat="46.24602" lon="6.26359">
        <ele>461.20001220703</ele>
        <time>2020-02-23T16:40:14Z</time>
      </trkpt>
      <trkpt lat="46.24606" lon="6.26335">
        <ele>461</ele>
        <time>2020-02-23T16:40:17Z</time>
      </trkpt>
      <trkpt lat="46.24607" lon="6.26328">
        <ele>460.79998779297</ele>
        <time>2020-02-23T16:40:18Z</time>
      </trkpt>
      <trkpt lat="46.24609" lon="6.2632">
        <ele>461</ele>
        <time>2020-02-23T16:40:19Z</time>
      </trkpt>
      <trkpt lat="46.2461" lon="6.26314">
        <ele>460.79998779297</ele>
        <time>2020-02-23T16:40:20Z</time>
      </trkpt>
      <trkpt lat="46.24611" lon="6.26307">
        <ele>460.79998779297</ele>
        <time>2020-02-23T16:40:21Z</time>
      </trkpt>
      <trkpt lat="46.24613" lon="6.26301">
        <ele>461</ele>
        <time>2020-02-23T16:40:22Z</time>
      </trkpt>
      <trkpt lat="46.24614" lon="6.26295">
        <ele>461</ele>
        <time>2020-02-23T16:40:23Z</time>
      </trkpt>
      <trkpt lat="46.24619" lon="6.26269">
        <ele>460.79998779297</ele>
        <time>2020-02-23T16:40:27Z</time>
      </trkpt>
      <trkpt lat="46.24621" lon="6.26263">
        <ele>460.79998779297</ele>
        <time>2020-02-23T16:40:28Z</time>
      </trkpt>
      <trkpt lat="46.24622" lon="6.26257">
        <ele>460.79998779297</ele>
        <time>2020-02-23T16:40:29Z</time>
      </trkpt>
      <trkpt lat="46.24634" lon="6.26205">
        <ele>461.20001220703</ele>
        <time>2020-02-23T16:40:37Z</time>
      </trkpt>
      <trkpt lat="46.24636" lon="6.26198">
        <ele>461.20001220703</ele>
        <time>2020-02-23T16:40:38Z</time>
      </trkpt>
      <trkpt lat="46.24637" lon="6.26192">
        <ele>461</ele>
        <time>2020-02-23T16:40:39Z</time>
      </trkpt>
      <trkpt lat="46.24639" lon="6.26186">
        <ele>461.20001220703</ele>
        <time>2020-02-23T16:40:40Z</time>
      </trkpt>
      <trkpt lat="46.2464" lon="6.2618">
        <ele>461</ele>
        <time>2020-02-23T16:40:41Z</time>
      </trkpt>
      <trkpt lat="46.24641" lon="6.26174">
        <ele>461.20001220703</ele>
        <time>2020-02-23T16:40:42Z</time>
      </trkpt>
      <trkpt lat="46.24643" lon="6.26169">
        <ele>461.20001220703</ele>
        <time>2020-02-23T16:40:43Z</time>
      </trkpt>
      <trkpt lat="46.24644" lon="6.26163">
        <ele>461.20001220703</ele>
        <time>2020-02-23T16:40:44Z</time>
      </trkpt>
      <trkpt lat="46.24645" lon="6.26158">
        <ele>461.20001220703</ele>
        <time>2020-02-23T16:40:45Z</time>
      </trkpt>
      <trkpt lat="46.24646" lon="6.26153">
        <ele>461.20001220703</ele>
        <time>2020-02-23T16:40:46Z</time>
      </trkpt>
      <trkpt lat="46.24655" lon="6.26117">
        <ele>461.39999389648</ele>
        <time>2020-02-23T16:40:53Z</time>
      </trkpt>
      <trkpt lat="46.24668" lon="6.26062">
        <ele>461.60000610352</ele>
        <time>2020-02-23T16:41:02Z</time>
      </trkpt>
      <trkpt lat="46.24675" lon="6.26029">
        <ele>461.79998779297</ele>
        <time>2020-02-23T16:41:07Z</time>
      </trkpt>
      <trkpt lat="46.24677" lon="6.26022">
        <ele>461.79998779297</ele>
        <time>2020-02-23T16:41:08Z</time>
      </trkpt>
      <trkpt lat="46.24679" lon="6.26016">
        <ele>461.60000610352</ele>
        <time>2020-02-23T16:41:09Z</time>
      </trkpt>
      <trkpt lat="46.24682" lon="6.26003">
        <ele>461.60000610352</ele>
        <time>2020-02-23T16:41:11Z</time>
      </trkpt>
      <trkpt lat="46.24683" lon="6.25996">
        <ele>461.60000610352</ele>
        <time>2020-02-23T16:41:12Z</time>
      </trkpt>
      <trkpt lat="46.24685" lon="6.2599">
        <ele>461.79998779297</ele>
        <time>2020-02-23T16:41:13Z</time>
      </trkpt>
      <trkpt lat="46.24686" lon="6.25984">
        <ele>461.60000610352</ele>
        <time>2020-02-23T16:41:14Z</time>
      </trkpt>
      <trkpt lat="46.24688" lon="6.25978">
        <ele>461.79998779297</ele>
        <time>2020-02-23T16:41:15Z</time>
      </trkpt>
      <trkpt lat="46.24689" lon="6.25972">
        <ele>461.60000610352</ele>
        <time>2020-02-23T16:41:16Z</time>
      </trkpt>
      <trkpt lat="46.24691" lon="6.25965">
        <ele>461.60000610352</ele>
        <time>2020-02-23T16:41:17Z</time>
      </trkpt>
      <trkpt lat="46.24696" lon="6.25947">
        <ele>461.79998779297</ele>
        <time>2020-02-23T16:41:20Z</time>
      </trkpt>
      <trkpt lat="46.24697" lon="6.25941">
        <ele>461.79998779297</ele>
        <time>2020-02-23T16:41:21Z</time>
      </trkpt>
      <trkpt lat="46.247" lon="6.25929">
        <ele>462</ele>
        <time>2020-02-23T16:41:23Z</time>
      </trkpt>
      <trkpt lat="46.24703" lon="6.25916">
        <ele>462.20001220703</ele>
        <time>2020-02-23T16:41:25Z</time>
      </trkpt>
      <trkpt lat="46.24709" lon="6.25891">
        <ele>462.39999389648</ele>
        <time>2020-02-23T16:41:29Z</time>
      </trkpt>
      <trkpt lat="46.24711" lon="6.25885">
        <ele>462.39999389648</ele>
        <time>2020-02-23T16:41:30Z</time>
      </trkpt>
      <trkpt lat="46.24712" lon="6.25878">
        <ele>462.60000610352</ele>
        <time>2020-02-23T16:41:31Z</time>
      </trkpt>
      <trkpt lat="46.24714" lon="6.25872">
        <ele>462.60000610352</ele>
        <time>2020-02-23T16:41:32Z</time>
      </trkpt>
      <trkpt lat="46.24715" lon="6.25867">
        <ele>462.60000610352</ele>
        <time>2020-02-23T16:41:33Z</time>
      </trkpt>
      <trkpt lat="46.24717" lon="6.25861">
        <ele>462.60000610352</ele>
        <time>2020-02-23T16:41:34Z</time>
      </trkpt>
      <trkpt lat="46.24718" lon="6.25856">
        <ele>462.79998779297</ele>
        <time>2020-02-23T16:41:35Z</time>
      </trkpt>
      <trkpt lat="46.24719" lon="6.25851">
        <ele>462.79998779297</ele>
        <time>2020-02-23T16:41:36Z</time>
      </trkpt>
      <trkpt lat="46.2472" lon="6.25847">
        <ele>463</ele>
        <time>2020-02-23T16:41:37Z</time>
      </trkpt>
      <trkpt lat="46.24721" lon="6.25843">
        <ele>463</ele>
        <time>2020-02-23T16:41:38Z</time>
      </trkpt>
      <trkpt lat="46.24722" lon="6.25839">
        <ele>463.20001220703</ele>
        <time>2020-02-23T16:41:39Z</time>
      </trkpt>
      <trkpt lat="46.24723" lon="6.25834">
        <ele>463.20001220703</ele>
        <time>2020-02-23T16:41:40Z</time>
      </trkpt>
      <trkpt lat="46.24724" lon="6.2583">
        <ele>463.20001220703</ele>
        <time>2020-02-23T16:41:41Z</time>
      </trkpt>
      <trkpt lat="46.24725" lon="6.25827">
        <ele>463.39999389648</ele>
        <time>2020-02-23T16:41:42Z</time>
      </trkpt>
      <trkpt lat="46.24726" lon="6.25824">
        <ele>463.60000610352</ele>
        <time>2020-02-23T16:41:43Z</time>
      </trkpt>
      <trkpt lat="46.24727" lon="6.2582">
        <ele>463.79998779297</ele>
        <time>2020-02-23T16:41:44Z</time>
      </trkpt>
      <trkpt lat="46.24728" lon="6.25816">
        <ele>463.79998779297</ele>
        <time>2020-02-23T16:41:45Z</time>
      </trkpt>
      <trkpt lat="46.24732" lon="6.25795">
        <ele>464</ele>
        <time>2020-02-23T16:41:50Z</time>
      </trkpt>
      <trkpt lat="46.24741" lon="6.25761">
        <ele>464.39999389648</ele>
        <time>2020-02-23T16:41:57Z</time>
      </trkpt>
      <trkpt lat="46.24743" lon="6.25756">
        <ele>464.20001220703</ele>
        <time>2020-02-23T16:41:58Z</time>
      </trkpt>
      <trkpt lat="46.24745" lon="6.25753">
        <ele>464.39999389648</ele>
        <time>2020-02-23T16:41:59Z</time>
      </trkpt>
      <trkpt lat="46.24748" lon="6.25751">
        <ele>464.39999389648</ele>
        <time>2020-02-23T16:42:00Z</time>
      </trkpt>
      <trkpt lat="46.24751" lon="6.25751">
        <ele>464.39999389648</ele>
        <time>2020-02-23T16:42:01Z</time>
      </trkpt>
      <trkpt lat="46.24754" lon="6.25753">
        <ele>464.39999389648</ele>
        <time>2020-02-23T16:42:02Z</time>
      </trkpt>
      <trkpt lat="46.24769" lon="6.25763">
        <ele>464.20001220703</ele>
        <time>2020-02-23T16:42:06Z</time>
      </trkpt>
      <trkpt lat="46.24801" lon="6.25783">
        <ele>464.20001220703</ele>
        <time>2020-02-23T16:42:13Z</time>
      </trkpt>
      <trkpt lat="46.24806" lon="6.25786">
        <ele>464.20001220703</ele>
        <time>2020-02-23T16:42:14Z</time>
      </trkpt>
      <trkpt lat="46.24842" lon="6.25806">
        <ele>463.39999389648</ele>
        <time>2020-02-23T16:42:21Z</time>
      </trkpt>
      <trkpt lat="46.24847" lon="6.25809">
        <ele>463.39999389648</ele>
        <time>2020-02-23T16:42:22Z</time>
      </trkpt>
      <trkpt lat="46.24852" lon="6.25812">
        <ele>463.39999389648</ele>
        <time>2020-02-23T16:42:23Z</time>
      </trkpt>
      <trkpt lat="46.24875" lon="6.25825">
        <ele>463</ele>
        <time>2020-02-23T16:42:27Z</time>
      </trkpt>
      <trkpt lat="46.24886" lon="6.25832">
        <ele>463</ele>
        <time>2020-02-23T16:42:29Z</time>
      </trkpt>
      <trkpt lat="46.24899" lon="6.25839">
        <ele>462.60000610352</ele>
        <time>2020-02-23T16:42:31Z</time>
      </trkpt>
      <trkpt lat="46.24924" lon="6.25854">
        <ele>461.79998779297</ele>
        <time>2020-02-23T16:42:35Z</time>
      </trkpt>
      <trkpt lat="46.24963" lon="6.25879">
        <ele>460.20001220703</ele>
        <time>2020-02-23T16:42:41Z</time>
      </trkpt>
      <trkpt lat="46.24969" lon="6.25883">
        <ele>459.60000610352</ele>
        <time>2020-02-23T16:42:42Z</time>
      </trkpt>
      <trkpt lat="46.24976" lon="6.25887">
        <ele>459.20001220703</ele>
        <time>2020-02-23T16:42:43Z</time>
      </trkpt>
      <trkpt lat="46.24982" lon="6.25891">
        <ele>459</ele>
        <time>2020-02-23T16:42:44Z</time>
      </trkpt>
      <trkpt lat="46.24989" lon="6.25895">
        <ele>458.39999389648</ele>
        <time>2020-02-23T16:42:45Z</time>
      </trkpt>
      <trkpt lat="46.24995" lon="6.25899">
        <ele>458.20001220703</ele>
        <time>2020-02-23T16:42:46Z</time>
      </trkpt>
      <trkpt lat="46.25001" lon="6.25903">
        <ele>458</ele>
        <time>2020-02-23T16:42:47Z</time>
      </trkpt>
      <trkpt lat="46.25006" lon="6.25907">
        <ele>458</ele>
        <time>2020-02-23T16:42:48Z</time>
      </trkpt>
      <trkpt lat="46.25012" lon="6.25911">
        <ele>457.79998779297</ele>
        <time>2020-02-23T16:42:49Z</time>
      </trkpt>
      <trkpt lat="46.25017" lon="6.25915">
        <ele>457.60000610352</ele>
        <time>2020-02-23T16:42:50Z</time>
      </trkpt>
      <trkpt lat="46.25023" lon="6.25919">
        <ele>457.60000610352</ele>
        <time>2020-02-23T16:42:51Z</time>
      </trkpt>
      <trkpt lat="46.25028" lon="6.25923">
        <ele>457.60000610352</ele>
        <time>2020-02-23T16:42:52Z</time>
      </trkpt>
      <trkpt lat="46.25033" lon="6.25927">
        <ele>457.60000610352</ele>
        <time>2020-02-23T16:42:53Z</time>
      </trkpt>
      <trkpt lat="46.25049" lon="6.25938">
        <ele>457.39999389648</ele>
        <time>2020-02-23T16:42:56Z</time>
      </trkpt>
      <trkpt lat="46.25059" lon="6.25946">
        <ele>457.39999389648</ele>
        <time>2020-02-23T16:42:58Z</time>
      </trkpt>
      <trkpt lat="46.2507" lon="6.25953">
        <ele>457.39999389648</ele>
        <time>2020-02-23T16:43:00Z</time>
      </trkpt>
      <trkpt lat="46.25075" lon="6.25956">
        <ele>457.39999389648</ele>
        <time>2020-02-23T16:43:01Z</time>
      </trkpt>
      <trkpt lat="46.2508" lon="6.2596">
        <ele>457.39999389648</ele>
        <time>2020-02-23T16:43:02Z</time>
      </trkpt>
      <trkpt lat="46.25085" lon="6.25963">
        <ele>457.39999389648</ele>
        <time>2020-02-23T16:43:03Z</time>
      </trkpt>
      <trkpt lat="46.25089" lon="6.25967">
        <ele>457.60000610352</ele>
        <time>2020-02-23T16:43:04Z</time>
      </trkpt>
      <trkpt lat="46.25093" lon="6.2597">
        <ele>457.60000610352</ele>
        <time>2020-02-23T16:43:05Z</time>
      </trkpt>
      <trkpt lat="46.25098" lon="6.25974">
        <ele>457.60000610352</ele>
        <time>2020-02-23T16:43:06Z</time>
      </trkpt>
      <trkpt lat="46.25102" lon="6.25976">
        <ele>457.60000610352</ele>
        <time>2020-02-23T16:43:07Z</time>
      </trkpt>
      <trkpt lat="46.25105" lon="6.25979">
        <ele>457.79998779297</ele>
        <time>2020-02-23T16:43:08Z</time>
      </trkpt>
      <trkpt lat="46.25109" lon="6.25982">
        <ele>457.60000610352</ele>
        <time>2020-02-23T16:43:09Z</time>
      </trkpt>
      <trkpt lat="46.25112" lon="6.25984">
        <ele>457.60000610352</ele>
        <time>2020-02-23T16:43:10Z</time>
      </trkpt>
      <trkpt lat="46.25115" lon="6.25986">
        <ele>457.60000610352</ele>
        <time>2020-02-23T16:43:11Z</time>
      </trkpt>
      <trkpt lat="46.25118" lon="6.25988">
        <ele>457.79998779297</ele>
        <time>2020-02-23T16:43:12Z</time>
      </trkpt>
      <trkpt lat="46.25121" lon="6.2599">
        <ele>457.79998779297</ele>
        <time>2020-02-23T16:43:13Z</time>
      </trkpt>
      <trkpt lat="46.25123" lon="6.25992">
        <ele>458.20001220703</ele>
        <time>2020-02-23T16:43:14Z</time>
      </trkpt>
      <trkpt lat="46.25125" lon="6.25994">
        <ele>458.39999389648</ele>
        <time>2020-02-23T16:43:15Z</time>
      </trkpt>
      <trkpt lat="46.25127" lon="6.25996">
        <ele>458.79998779297</ele>
        <time>2020-02-23T16:43:16Z</time>
      </trkpt>
      <trkpt lat="46.2513" lon="6.25997">
        <ele>458.79998779297</ele>
        <time>2020-02-23T16:43:17Z</time>
      </trkpt>
      <trkpt lat="46.25132" lon="6.25999">
        <ele>458.79998779297</ele>
        <time>2020-02-23T16:43:18Z</time>
      </trkpt>
      <trkpt lat="46.25139" lon="6.26004">
        <ele>459.39999389648</ele>
        <time>2020-02-23T16:43:21Z</time>
      </trkpt>
      <trkpt lat="46.25142" lon="6.26006">
        <ele>459.39999389648</ele>
        <time>2020-02-23T16:43:22Z</time>
      </trkpt>
      <trkpt lat="46.25164" lon="6.26017">
        <ele>459.79998779297</ele>
        <time>2020-02-23T16:43:29Z</time>
      </trkpt>
      <trkpt lat="46.25167" lon="6.26017">
        <ele>459.79998779297</ele>
        <time>2020-02-23T16:43:30Z</time>
      </trkpt>
      <trkpt lat="46.25171" lon="6.26017">
        <ele>459.79998779297</ele>
        <time>2020-02-23T16:43:31Z</time>
      </trkpt>
      <trkpt lat="46.25175" lon="6.26016">
        <ele>459.79998779297</ele>
        <time>2020-02-23T16:43:32Z</time>
      </trkpt>
      <trkpt lat="46.25178" lon="6.26015">
        <ele>459.79998779297</ele>
        <time>2020-02-23T16:43:33Z</time>
      </trkpt>
      <trkpt lat="46.25181" lon="6.26015">
        <ele>459.79998779297</ele>
        <time>2020-02-23T16:43:34Z</time>
      </trkpt>
      <trkpt lat="46.25184" lon="6.26017">
        <ele>459.79998779297</ele>
        <time>2020-02-23T16:43:35Z</time>
      </trkpt>
      <trkpt lat="46.25187" lon="6.26019">
        <ele>459.79998779297</ele>
        <time>2020-02-23T16:43:36Z</time>
      </trkpt>
      <trkpt lat="46.25189" lon="6.26021">
        <ele>459.79998779297</ele>
        <time>2020-02-23T16:43:37Z</time>
      </trkpt>
      <trkpt lat="46.25192" lon="6.26024">
        <ele>459.79998779297</ele>
        <time>2020-02-23T16:43:38Z</time>
      </trkpt>
      <trkpt lat="46.25194" lon="6.26027">
        <ele>459.79998779297</ele>
        <time>2020-02-23T16:43:39Z</time>
      </trkpt>
      <trkpt lat="46.25197" lon="6.26029">
        <ele>459.79998779297</ele>
        <time>2020-02-23T16:43:40Z</time>
      </trkpt>
      <trkpt lat="46.25199" lon="6.26031">
        <ele>459.79998779297</ele>
        <time>2020-02-23T16:43:41Z</time>
      </trkpt>
      <trkpt lat="46.25201" lon="6.26034">
        <ele>459.79998779297</ele>
        <time>2020-02-23T16:43:42Z</time>
      </trkpt>
      <trkpt lat="46.25203" lon="6.26035">
        <ele>459.79998779297</ele>
        <time>2020-02-23T16:43:43Z</time>
      </trkpt>
      <trkpt lat="46.25204" lon="6.26037">
        <ele>459.79998779297</ele>
        <time>2020-02-23T16:43:44Z</time>
      </trkpt>
      <trkpt lat="46.25204" lon="6.26037">
        <ele>459.79998779297</ele>
        <time>2020-02-23T16:43:48Z</time>
      </trkpt>
      <trkpt lat="46.25204" lon="6.26037">
        <ele>459.79998779297</ele>
        <time>2020-02-23T16:43:49Z</time>
      </trkpt>
      <trkpt lat="46.25204" lon="6.26037">
        <ele>459.60000610352</ele>
        <time>2020-02-23T16:43:51Z</time>
      </trkpt>
      <trkpt lat="46.25205" lon="6.26037">
        <ele>459.60000610352</ele>
        <time>2020-02-23T16:43:53Z</time>
      </trkpt>
      <trkpt lat="46.25206" lon="6.26037">
        <ele>459.79998779297</ele>
        <time>2020-02-23T16:43:54Z</time>
      </trkpt>
      <trkpt lat="46.25209" lon="6.2604">
        <ele>459.60000610352</ele>
        <time>2020-02-23T16:43:56Z</time>
      </trkpt>
      <trkpt lat="46.25211" lon="6.26041">
        <ele>459.79998779297</ele>
        <time>2020-02-23T16:43:57Z</time>
      </trkpt>
      <trkpt lat="46.25213" lon="6.26043">
        <ele>459.79998779297</ele>
        <time>2020-02-23T16:43:58Z</time>
      </trkpt>
      <trkpt lat="46.25224" lon="6.26052">
        <ele>459.79998779297</ele>
        <time>2020-02-23T16:44:02Z</time>
      </trkpt>
      <trkpt lat="46.25246" lon="6.2607">
        <ele>459.60000610352</ele>
        <time>2020-02-23T16:44:08Z</time>
      </trkpt>
      <trkpt lat="46.2525" lon="6.26074">
        <ele>459.39999389648</ele>
        <time>2020-02-23T16:44:09Z</time>
      </trkpt>
      <trkpt lat="46.25275" lon="6.26089">
        <ele>458.79998779297</ele>
        <time>2020-02-23T16:44:14Z</time>
      </trkpt>
      <trkpt lat="46.2528" lon="6.2609">
        <ele>458.79998779297</ele>
        <time>2020-02-23T16:44:15Z</time>
      </trkpt>
      <trkpt lat="46.25286" lon="6.26092">
        <ele>459</ele>
        <time>2020-02-23T16:44:16Z</time>
      </trkpt>
      <trkpt lat="46.25291" lon="6.26094">
        <ele>458.79998779297</ele>
        <time>2020-02-23T16:44:17Z</time>
      </trkpt>
      <trkpt lat="46.25296" lon="6.26095">
        <ele>458.60000610352</ele>
        <time>2020-02-23T16:44:18Z</time>
      </trkpt>
      <trkpt lat="46.253" lon="6.26097">
        <ele>458.60000610352</ele>
        <time>2020-02-23T16:44:19Z</time>
      </trkpt>
      <trkpt lat="46.25303" lon="6.26098">
        <ele>458.60000610352</ele>
        <time>2020-02-23T16:44:20Z</time>
      </trkpt>
      <trkpt lat="46.25306" lon="6.26099">
        <ele>458.60000610352</ele>
        <time>2020-02-23T16:44:21Z</time>
      </trkpt>
      <trkpt lat="46.25308" lon="6.261">
        <ele>458.60000610352</ele>
        <time>2020-02-23T16:44:22Z</time>
      </trkpt>
      <trkpt lat="46.25311" lon="6.26101">
        <ele>458.39999389648</ele>
        <time>2020-02-23T16:44:23Z</time>
      </trkpt>
      <trkpt lat="46.25316" lon="6.26103">
        <ele>458.60000610352</ele>
        <time>2020-02-23T16:44:25Z</time>
      </trkpt>
      <trkpt lat="46.25318" lon="6.26104">
        <ele>458.39999389648</ele>
        <time>2020-02-23T16:44:26Z</time>
      </trkpt>
      <trkpt lat="46.25321" lon="6.26105">
        <ele>458.39999389648</ele>
        <time>2020-02-23T16:44:27Z</time>
      </trkpt>
      <trkpt lat="46.25326" lon="6.26106">
        <ele>458.60000610352</ele>
        <time>2020-02-23T16:44:29Z</time>
      </trkpt>
      <trkpt lat="46.25328" lon="6.26105">
        <ele>458.39999389648</ele>
        <time>2020-02-23T16:44:30Z</time>
      </trkpt>
      <trkpt lat="46.25331" lon="6.26105">
        <ele>458.60000610352</ele>
        <time>2020-02-23T16:44:31Z</time>
      </trkpt>
      <trkpt lat="46.25333" lon="6.26104">
        <ele>458.60000610352</ele>
        <time>2020-02-23T16:44:32Z</time>
      </trkpt>
      <trkpt lat="46.25335" lon="6.26104">
        <ele>458.39999389648</ele>
        <time>2020-02-23T16:44:33Z</time>
      </trkpt>
      <trkpt lat="46.25337" lon="6.26105">
        <ele>458.39999389648</ele>
        <time>2020-02-23T16:44:34Z</time>
      </trkpt>
      <trkpt lat="46.25338" lon="6.26105">
        <ele>458.60000610352</ele>
        <time>2020-02-23T16:44:35Z</time>
      </trkpt>
      <trkpt lat="46.25339" lon="6.26105">
        <ele>458.60000610352</ele>
        <time>2020-02-23T16:44:36Z</time>
      </trkpt>
      <trkpt lat="46.25339" lon="6.26106">
        <ele>458.60000610352</ele>
        <time>2020-02-23T16:44:37Z</time>
      </trkpt>
      <trkpt lat="46.25339" lon="6.26106">
        <ele>458.39999389648</ele>
        <time>2020-02-23T16:44:38Z</time>
      </trkpt>
      <trkpt lat="46.25338" lon="6.26107">
        <ele>458.39999389648</ele>
        <time>2020-02-23T16:44:39Z</time>
      </trkpt>
      <trkpt lat="46.25338" lon="6.26108">
        <ele>458.60000610352</ele>
        <time>2020-02-23T16:44:40Z</time>
      </trkpt>
      <trkpt lat="46.25339" lon="6.26109">
        <ele>458.60000610352</ele>
        <time>2020-02-23T16:44:41Z</time>
      </trkpt>
      <trkpt lat="46.2534" lon="6.26111">
        <ele>458.39999389648</ele>
        <time>2020-02-23T16:44:44Z</time>
      </trkpt>
      <trkpt lat="46.2534" lon="6.26112">
        <ele>458.60000610352</ele>
        <time>2020-02-23T16:44:45Z</time>
      </trkpt>
      <trkpt lat="46.25341" lon="6.26113">
        <ele>458.60000610352</ele>
        <time>2020-02-23T16:44:46Z</time>
      </trkpt>
      <trkpt lat="46.25342" lon="6.26114">
        <ele>458.39999389648</ele>
        <time>2020-02-23T16:44:47Z</time>
      </trkpt>
      <trkpt lat="46.25344" lon="6.26115">
        <ele>458.39999389648</ele>
        <time>2020-02-23T16:44:48Z</time>
      </trkpt>
      <trkpt lat="46.25349" lon="6.26118">
        <ele>458.39999389648</ele>
        <time>2020-02-23T16:44:50Z</time>
      </trkpt>
      <trkpt lat="46.25369" lon="6.26127">
        <ele>458.39999389648</ele>
        <time>2020-02-23T16:44:57Z</time>
      </trkpt>
      <trkpt lat="46.25372" lon="6.26129">
        <ele>458.20001220703</ele>
        <time>2020-02-23T16:44:58Z</time>
      </trkpt>
      <trkpt lat="46.254" lon="6.26142">
        <ele>457.79998779297</ele>
        <time>2020-02-23T16:45:05Z</time>
      </trkpt>
      <trkpt lat="46.25433" lon="6.26157">
        <ele>457</ele>
        <time>2020-02-23T16:45:12Z</time>
      </trkpt>
      <trkpt lat="46.25438" lon="6.26159">
        <ele>456.79998779297</ele>
        <time>2020-02-23T16:45:13Z</time>
      </trkpt>
      <trkpt lat="46.25449" lon="6.26164">
        <ele>456.20001220703</ele>
        <time>2020-02-23T16:45:15Z</time>
      </trkpt>
      <trkpt lat="46.25459" lon="6.26168">
        <ele>456</ele>
        <time>2020-02-23T16:45:17Z</time>
      </trkpt>
      <trkpt lat="46.25464" lon="6.2617">
        <ele>455.79998779297</ele>
        <time>2020-02-23T16:45:18Z</time>
      </trkpt>
      <trkpt lat="46.25469" lon="6.26173">
        <ele>455.60000610352</ele>
        <time>2020-02-23T16:45:19Z</time>
      </trkpt>
      <trkpt lat="46.25474" lon="6.26175">
        <ele>455.39999389648</ele>
        <time>2020-02-23T16:45:20Z</time>
      </trkpt>
      <trkpt lat="46.25479" lon="6.26176">
        <ele>455.39999389648</ele>
        <time>2020-02-23T16:45:21Z</time>
      </trkpt>
      <trkpt lat="46.25484" lon="6.26178">
        <ele>455</ele>
        <time>2020-02-23T16:45:22Z</time>
      </trkpt>
      <trkpt lat="46.25488" lon="6.26181">
        <ele>455</ele>
        <time>2020-02-23T16:45:23Z</time>
      </trkpt>
      <trkpt lat="46.25513" lon="6.26196">
        <ele>454.60000610352</ele>
        <time>2020-02-23T16:45:28Z</time>
      </trkpt>
      <trkpt lat="46.25548" lon="6.26224">
        <ele>454.39999389648</ele>
        <time>2020-02-23T16:45:35Z</time>
      </trkpt>
      <trkpt lat="46.25577" lon="6.26246">
        <ele>453.79998779297</ele>
        <time>2020-02-23T16:45:40Z</time>
      </trkpt>
      <trkpt lat="46.25582" lon="6.2625">
        <ele>453.60000610352</ele>
        <time>2020-02-23T16:45:41Z</time>
      </trkpt>
      <trkpt lat="46.25588" lon="6.26255">
        <ele>453.79998779297</ele>
        <time>2020-02-23T16:45:42Z</time>
      </trkpt>
      <trkpt lat="46.25593" lon="6.26259">
        <ele>453.79998779297</ele>
        <time>2020-02-23T16:45:43Z</time>
      </trkpt>
      <trkpt lat="46.25599" lon="6.26263">
        <ele>453.60000610352</ele>
        <time>2020-02-23T16:45:44Z</time>
      </trkpt>
      <trkpt lat="46.25604" lon="6.26267">
        <ele>453.39999389648</ele>
        <time>2020-02-23T16:45:45Z</time>
      </trkpt>
      <trkpt lat="46.25609" lon="6.2627">
        <ele>453.39999389648</ele>
        <time>2020-02-23T16:45:46Z</time>
      </trkpt>
      <trkpt lat="46.25614" lon="6.26273">
        <ele>453.39999389648</ele>
        <time>2020-02-23T16:45:47Z</time>
      </trkpt>
      <trkpt lat="46.25619" lon="6.26277">
        <ele>453.39999389648</ele>
        <time>2020-02-23T16:45:48Z</time>
      </trkpt>
      <trkpt lat="46.25624" lon="6.2628">
        <ele>453.39999389648</ele>
        <time>2020-02-23T16:45:49Z</time>
      </trkpt>
      <trkpt lat="46.25628" lon="6.26282">
        <ele>453.60000610352</ele>
        <time>2020-02-23T16:45:50Z</time>
      </trkpt>
      <trkpt lat="46.25632" lon="6.26283">
        <ele>453.39999389648</ele>
        <time>2020-02-23T16:45:51Z</time>
      </trkpt>
      <trkpt lat="46.25635" lon="6.26284">
        <ele>453.39999389648</ele>
        <time>2020-02-23T16:45:52Z</time>
      </trkpt>
      <trkpt lat="46.25637" lon="6.26284">
        <ele>453.39999389648</ele>
        <time>2020-02-23T16:45:53Z</time>
      </trkpt>
      <trkpt lat="46.2564" lon="6.26282">
        <ele>453.39999389648</ele>
        <time>2020-02-23T16:45:54Z</time>
      </trkpt>
      <trkpt lat="46.25641" lon="6.26279">
        <ele>453.39999389648</ele>
        <time>2020-02-23T16:45:55Z</time>
      </trkpt>
      <trkpt lat="46.25642" lon="6.26276">
        <ele>453.60000610352</ele>
        <time>2020-02-23T16:45:56Z</time>
      </trkpt>
      <trkpt lat="46.25643" lon="6.26272">
        <ele>453.60000610352</ele>
        <time>2020-02-23T16:45:57Z</time>
      </trkpt>
      <trkpt lat="46.25644" lon="6.26269">
        <ele>453.60000610352</ele>
        <time>2020-02-23T16:45:58Z</time>
      </trkpt>
      <trkpt lat="46.25645" lon="6.26266">
        <ele>453.79998779297</ele>
        <time>2020-02-23T16:45:59Z</time>
      </trkpt>
      <trkpt lat="46.25645" lon="6.26263">
        <ele>453.79998779297</ele>
        <time>2020-02-23T16:46:00Z</time>
      </trkpt>
      <trkpt lat="46.25646" lon="6.2626">
        <ele>453.79998779297</ele>
        <time>2020-02-23T16:46:01Z</time>
      </trkpt>
      <trkpt lat="46.25647" lon="6.26254">
        <ele>454</ele>
        <time>2020-02-23T16:46:03Z</time>
      </trkpt>
      <trkpt lat="46.25649" lon="6.26248">
        <ele>453.79998779297</ele>
        <time>2020-02-23T16:46:05Z</time>
      </trkpt>
      <trkpt lat="46.2565" lon="6.26246">
        <ele>453.79998779297</ele>
        <time>2020-02-23T16:46:06Z</time>
      </trkpt>
      <trkpt lat="46.2565" lon="6.26244">
        <ele>453.79998779297</ele>
        <time>2020-02-23T16:46:07Z</time>
      </trkpt>
      <trkpt lat="46.25649" lon="6.26243">
        <ele>453.79998779297</ele>
        <time>2020-02-23T16:46:08Z</time>
      </trkpt>
      <trkpt lat="46.25648" lon="6.26243">
        <ele>453.79998779297</ele>
        <time>2020-02-23T16:46:09Z</time>
      </trkpt>
      <trkpt lat="46.25647" lon="6.26243">
        <ele>453.79998779297</ele>
        <time>2020-02-23T16:46:10Z</time>
      </trkpt>
      <trkpt lat="46.25646" lon="6.26244">
        <ele>453.79998779297</ele>
        <time>2020-02-23T16:46:11Z</time>
      </trkpt>
      <trkpt lat="46.25646" lon="6.26245">
        <ele>453.79998779297</ele>
        <time>2020-02-23T16:46:12Z</time>
      </trkpt>
      <trkpt lat="46.25646" lon="6.26247">
        <ele>453.60000610352</ele>
        <time>2020-02-23T16:46:13Z</time>
      </trkpt>
      <trkpt lat="46.25646" lon="6.26248">
        <ele>453.60000610352</ele>
        <time>2020-02-23T16:46:14Z</time>
      </trkpt>
      <trkpt lat="46.25645" lon="6.26256">
        <ele>453.79998779297</ele>
        <time>2020-02-23T16:46:17Z</time>
      </trkpt>
      <trkpt lat="46.25644" lon="6.26259">
        <ele>453.79998779297</ele>
        <time>2020-02-23T16:46:18Z</time>
      </trkpt>
      <trkpt lat="46.2564" lon="6.26268">
        <ele>453.60000610352</ele>
        <time>2020-02-23T16:46:21Z</time>
      </trkpt>
      <trkpt lat="46.25639" lon="6.26272">
        <ele>453.60000610352</ele>
        <time>2020-02-23T16:46:22Z</time>
      </trkpt>
      <trkpt lat="46.25638" lon="6.26277">
        <ele>453.60000610352</ele>
        <time>2020-02-23T16:46:23Z</time>
      </trkpt>
      <trkpt lat="46.25639" lon="6.26281">
        <ele>453.39999389648</ele>
        <time>2020-02-23T16:46:24Z</time>
      </trkpt>
      <trkpt lat="46.2564" lon="6.26286">
        <ele>453.39999389648</ele>
        <time>2020-02-23T16:46:25Z</time>
      </trkpt>
      <trkpt lat="46.25643" lon="6.2629">
        <ele>453.39999389648</ele>
        <time>2020-02-23T16:46:26Z</time>
      </trkpt>
      <trkpt lat="46.25646" lon="6.26294">
        <ele>453.39999389648</ele>
        <time>2020-02-23T16:46:27Z</time>
      </trkpt>
      <trkpt lat="46.2565" lon="6.26297">
        <ele>453.60000610352</ele>
        <time>2020-02-23T16:46:28Z</time>
      </trkpt>
      <trkpt lat="46.25675" lon="6.26316">
        <ele>453.39999389648</ele>
        <time>2020-02-23T16:46:33Z</time>
      </trkpt>
      <trkpt lat="46.2568" lon="6.2632">
        <ele>453.39999389648</ele>
        <time>2020-02-23T16:46:34Z</time>
      </trkpt>
      <trkpt lat="46.2569" lon="6.26328">
        <ele>453.20001220703</ele>
        <time>2020-02-23T16:46:36Z</time>
      </trkpt>
      <trkpt lat="46.25695" lon="6.26332">
        <ele>453.20001220703</ele>
        <time>2020-02-23T16:46:37Z</time>
      </trkpt>
      <trkpt lat="46.257" lon="6.26336">
        <ele>453</ele>
        <time>2020-02-23T16:46:38Z</time>
      </trkpt>
      <trkpt lat="46.25705" lon="6.2634">
        <ele>453</ele>
        <time>2020-02-23T16:46:39Z</time>
      </trkpt>
      <trkpt lat="46.2571" lon="6.26344">
        <ele>453</ele>
        <time>2020-02-23T16:46:40Z</time>
      </trkpt>
      <trkpt lat="46.25715" lon="6.26348">
        <ele>452.60000610352</ele>
        <time>2020-02-23T16:46:41Z</time>
      </trkpt>
      <trkpt lat="46.2572" lon="6.26352">
        <ele>452.39999389648</ele>
        <time>2020-02-23T16:46:42Z</time>
      </trkpt>
      <trkpt lat="46.25725" lon="6.26356">
        <ele>452</ele>
        <time>2020-02-23T16:46:43Z</time>
      </trkpt>
      <trkpt lat="46.25729" lon="6.2636">
        <ele>452</ele>
        <time>2020-02-23T16:46:44Z</time>
      </trkpt>
      <trkpt lat="46.25738" lon="6.26367">
        <ele>452</ele>
        <time>2020-02-23T16:46:46Z</time>
      </trkpt>
      <trkpt lat="46.25743" lon="6.26371">
        <ele>452</ele>
        <time>2020-02-23T16:46:47Z</time>
      </trkpt>
      <trkpt lat="46.25748" lon="6.26375">
        <ele>451.79998779297</ele>
        <time>2020-02-23T16:46:48Z</time>
      </trkpt>
      <trkpt lat="46.25752" lon="6.26378">
        <ele>451.60000610352</ele>
        <time>2020-02-23T16:46:49Z</time>
      </trkpt>
      <trkpt lat="46.25757" lon="6.26381">
        <ele>451.60000610352</ele>
        <time>2020-02-23T16:46:50Z</time>
      </trkpt>
      <trkpt lat="46.25761" lon="6.26383">
        <ele>451.39999389648</ele>
        <time>2020-02-23T16:46:51Z</time>
      </trkpt>
      <trkpt lat="46.25765" lon="6.26386">
        <ele>451.60000610352</ele>
        <time>2020-02-23T16:46:52Z</time>
      </trkpt>
      <trkpt lat="46.25769" lon="6.26388">
        <ele>451.60000610352</ele>
        <time>2020-02-23T16:46:53Z</time>
      </trkpt>
      <trkpt lat="46.25773" lon="6.2639">
        <ele>451.60000610352</ele>
        <time>2020-02-23T16:46:54Z</time>
      </trkpt>
      <trkpt lat="46.25777" lon="6.26392">
        <ele>451.60000610352</ele>
        <time>2020-02-23T16:46:55Z</time>
      </trkpt>
      <trkpt lat="46.25785" lon="6.26394">
        <ele>451.60000610352</ele>
        <time>2020-02-23T16:46:57Z</time>
      </trkpt>
      <trkpt lat="46.25819" lon="6.26402">
        <ele>451.39999389648</ele>
        <time>2020-02-23T16:47:04Z</time>
      </trkpt>
      <trkpt lat="46.25831" lon="6.26404">
        <ele>451.39999389648</ele>
        <time>2020-02-23T16:47:06Z</time>
      </trkpt>
      <trkpt lat="46.25863" lon="6.26409">
        <ele>451.39999389648</ele>
        <time>2020-02-23T16:47:11Z</time>
      </trkpt>
      <trkpt lat="46.25869" lon="6.2641">
        <ele>451.39999389648</ele>
        <time>2020-02-23T16:47:12Z</time>
      </trkpt>
      <trkpt lat="46.25876" lon="6.26411">
        <ele>451.39999389648</ele>
        <time>2020-02-23T16:47:13Z</time>
      </trkpt>
      <trkpt lat="46.25882" lon="6.26411">
        <ele>451.20001220703</ele>
        <time>2020-02-23T16:47:14Z</time>
      </trkpt>
      <trkpt lat="46.25888" lon="6.26412">
        <ele>451</ele>
        <time>2020-02-23T16:47:15Z</time>
      </trkpt>
      <trkpt lat="46.25895" lon="6.26411">
        <ele>450.60000610352</ele>
        <time>2020-02-23T16:47:16Z</time>
      </trkpt>
      <trkpt lat="46.25901" lon="6.26411">
        <ele>450.60000610352</ele>
        <time>2020-02-23T16:47:17Z</time>
      </trkpt>
      <trkpt lat="46.25907" lon="6.26411">
        <ele>450.39999389648</ele>
        <time>2020-02-23T16:47:18Z</time>
      </trkpt>
      <trkpt lat="46.25913" lon="6.26411">
        <ele>450.20001220703</ele>
        <time>2020-02-23T16:47:19Z</time>
      </trkpt>
      <trkpt lat="46.25918" lon="6.26413">
        <ele>449.79998779297</ele>
        <time>2020-02-23T16:47:20Z</time>
      </trkpt>
      <trkpt lat="46.25924" lon="6.26416">
        <ele>449.79998779297</ele>
        <time>2020-02-23T16:47:21Z</time>
      </trkpt>
      <trkpt lat="46.25929" lon="6.26419">
        <ele>449.60000610352</ele>
        <time>2020-02-23T16:47:22Z</time>
      </trkpt>
      <trkpt lat="46.25934" lon="6.26422">
        <ele>449.79998779297</ele>
        <time>2020-02-23T16:47:23Z</time>
      </trkpt>
      <trkpt lat="46.25939" lon="6.26425">
        <ele>449.60000610352</ele>
        <time>2020-02-23T16:47:24Z</time>
      </trkpt>
      <trkpt lat="46.25944" lon="6.26429">
        <ele>449.39999389648</ele>
        <time>2020-02-23T16:47:25Z</time>
      </trkpt>
      <trkpt lat="46.25949" lon="6.26433">
        <ele>449.39999389648</ele>
        <time>2020-02-23T16:47:26Z</time>
      </trkpt>
      <trkpt lat="46.25953" lon="6.26437">
        <ele>449.20001220703</ele>
        <time>2020-02-23T16:47:27Z</time>
      </trkpt>
      <trkpt lat="46.25958" lon="6.26441">
        <ele>449.20001220703</ele>
        <time>2020-02-23T16:47:28Z</time>
      </trkpt>
      <trkpt lat="46.25962" lon="6.26446">
        <ele>449.20001220703</ele>
        <time>2020-02-23T16:47:29Z</time>
      </trkpt>
      <trkpt lat="46.25981" lon="6.2646">
        <ele>449</ele>
        <time>2020-02-23T16:47:33Z</time>
      </trkpt>
      <trkpt lat="46.25986" lon="6.26463">
        <ele>449</ele>
        <time>2020-02-23T16:47:34Z</time>
      </trkpt>
      <trkpt lat="46.2599" lon="6.26466">
        <ele>448.79998779297</ele>
        <time>2020-02-23T16:47:35Z</time>
      </trkpt>
      <trkpt lat="46.25995" lon="6.26468">
        <ele>449</ele>
        <time>2020-02-23T16:47:36Z</time>
      </trkpt>
      <trkpt lat="46.26005" lon="6.26473">
        <ele>448.79998779297</ele>
        <time>2020-02-23T16:47:38Z</time>
      </trkpt>
      <trkpt lat="46.2601" lon="6.26475">
        <ele>448.60000610352</ele>
        <time>2020-02-23T16:47:39Z</time>
      </trkpt>
      <trkpt lat="46.26014" lon="6.26476">
        <ele>448.79998779297</ele>
        <time>2020-02-23T16:47:40Z</time>
      </trkpt>
      <trkpt lat="46.26018" lon="6.26478">
        <ele>448.60000610352</ele>
        <time>2020-02-23T16:47:41Z</time>
      </trkpt>
      <trkpt lat="46.26042" lon="6.26491">
        <ele>448.39999389648</ele>
        <time>2020-02-23T16:47:46Z</time>
      </trkpt>
      <trkpt lat="46.26059" lon="6.265">
        <ele>448.20001220703</ele>
        <time>2020-02-23T16:47:49Z</time>
      </trkpt>
      <trkpt lat="46.26082" lon="6.2651">
        <ele>447.79998779297</ele>
        <time>2020-02-23T16:47:53Z</time>
      </trkpt>
      <trkpt lat="46.26107" lon="6.2652">
        <ele>447.60000610352</ele>
        <time>2020-02-23T16:47:57Z</time>
      </trkpt>
      <trkpt lat="46.26144" lon="6.26541">
        <ele>446.60000610352</ele>
        <time>2020-02-23T16:48:03Z</time>
      </trkpt>
      <trkpt lat="46.26164" lon="6.2655">
        <ele>446.20001220703</ele>
        <time>2020-02-23T16:48:06Z</time>
      </trkpt>
      <trkpt lat="46.2617" lon="6.26552">
        <ele>446</ele>
        <time>2020-02-23T16:48:07Z</time>
      </trkpt>
      <trkpt lat="46.26176" lon="6.26555">
        <ele>446</ele>
        <time>2020-02-23T16:48:08Z</time>
      </trkpt>
      <trkpt lat="46.26182" lon="6.26558">
        <ele>445.79998779297</ele>
        <time>2020-02-23T16:48:09Z</time>
      </trkpt>
      <trkpt lat="46.26188" lon="6.26561">
        <ele>445.79998779297</ele>
        <time>2020-02-23T16:48:10Z</time>
      </trkpt>
      <trkpt lat="46.26194" lon="6.26564">
        <ele>445.79998779297</ele>
        <time>2020-02-23T16:48:11Z</time>
      </trkpt>
      <trkpt lat="46.26199" lon="6.26567">
        <ele>445.60000610352</ele>
        <time>2020-02-23T16:48:12Z</time>
      </trkpt>
      <trkpt lat="46.26205" lon="6.2657">
        <ele>445.60000610352</ele>
        <time>2020-02-23T16:48:13Z</time>
      </trkpt>
      <trkpt lat="46.2621" lon="6.26573">
        <ele>445.60000610352</ele>
        <time>2020-02-23T16:48:14Z</time>
      </trkpt>
      <trkpt lat="46.26215" lon="6.26575">
        <ele>445.60000610352</ele>
        <time>2020-02-23T16:48:15Z</time>
      </trkpt>
      <trkpt lat="46.2622" lon="6.26578">
        <ele>445.60000610352</ele>
        <time>2020-02-23T16:48:16Z</time>
      </trkpt>
      <trkpt lat="46.26225" lon="6.2658">
        <ele>445.60000610352</ele>
        <time>2020-02-23T16:48:17Z</time>
      </trkpt>
      <trkpt lat="46.2623" lon="6.26582">
        <ele>445.60000610352</ele>
        <time>2020-02-23T16:48:18Z</time>
      </trkpt>
      <trkpt lat="46.26235" lon="6.26584">
        <ele>445.60000610352</ele>
        <time>2020-02-23T16:48:19Z</time>
      </trkpt>
      <trkpt lat="46.2624" lon="6.26587">
        <ele>445.60000610352</ele>
        <time>2020-02-23T16:48:20Z</time>
      </trkpt>
      <trkpt lat="46.26244" lon="6.2659">
        <ele>445.60000610352</ele>
        <time>2020-02-23T16:48:21Z</time>
      </trkpt>
      <trkpt lat="46.26248" lon="6.26593">
        <ele>445.60000610352</ele>
        <time>2020-02-23T16:48:22Z</time>
      </trkpt>
      <trkpt lat="46.26252" lon="6.26596">
        <ele>445.60000610352</ele>
        <time>2020-02-23T16:48:23Z</time>
      </trkpt>
      <trkpt lat="46.26256" lon="6.26598">
        <ele>445.60000610352</ele>
        <time>2020-02-23T16:48:24Z</time>
      </trkpt>
      <trkpt lat="46.2626" lon="6.26601">
        <ele>445.79998779297</ele>
        <time>2020-02-23T16:48:25Z</time>
      </trkpt>
      <trkpt lat="46.26289" lon="6.26618">
        <ele>446</ele>
        <time>2020-02-23T16:48:32Z</time>
      </trkpt>
      <trkpt lat="46.26336" lon="6.26648">
        <ele>446.20001220703</ele>
        <time>2020-02-23T16:48:42Z</time>
      </trkpt>
      <trkpt lat="46.2634" lon="6.2665">
        <ele>446.20001220703</ele>
        <time>2020-02-23T16:48:43Z</time>
      </trkpt>
      <trkpt lat="46.26344" lon="6.26653">
        <ele>446.20001220703</ele>
        <time>2020-02-23T16:48:44Z</time>
      </trkpt>
      <trkpt lat="46.26349" lon="6.26656">
        <ele>446.20001220703</ele>
        <time>2020-02-23T16:48:45Z</time>
      </trkpt>
      <trkpt lat="46.26353" lon="6.26659">
        <ele>446.20001220703</ele>
        <time>2020-02-23T16:48:46Z</time>
      </trkpt>
      <trkpt lat="46.26357" lon="6.26661">
        <ele>446.20001220703</ele>
        <time>2020-02-23T16:48:47Z</time>
      </trkpt>
      <trkpt lat="46.26361" lon="6.26664">
        <ele>446.20001220703</ele>
        <time>2020-02-23T16:48:48Z</time>
      </trkpt>
      <trkpt lat="46.26366" lon="6.26666">
        <ele>446.20001220703</ele>
        <time>2020-02-23T16:48:49Z</time>
      </trkpt>
      <trkpt lat="46.2637" lon="6.26668">
        <ele>446.39999389648</ele>
        <time>2020-02-23T16:48:50Z</time>
      </trkpt>
      <trkpt lat="46.26374" lon="6.2667">
        <ele>446.20001220703</ele>
        <time>2020-02-23T16:48:51Z</time>
      </trkpt>
      <trkpt lat="46.26378" lon="6.26672">
        <ele>446.20001220703</ele>
        <time>2020-02-23T16:48:52Z</time>
      </trkpt>
      <trkpt lat="46.26382" lon="6.26673">
        <ele>446.39999389648</ele>
        <time>2020-02-23T16:48:53Z</time>
      </trkpt>
      <trkpt lat="46.26397" lon="6.26676">
        <ele>446.20001220703</ele>
        <time>2020-02-23T16:48:56Z</time>
      </trkpt>
      <trkpt lat="46.26402" lon="6.26676">
        <ele>446.20001220703</ele>
        <time>2020-02-23T16:48:57Z</time>
      </trkpt>
      <trkpt lat="46.26425" lon="6.26675">
        <ele>446.20001220703</ele>
        <time>2020-02-23T16:49:01Z</time>
      </trkpt>
      <trkpt lat="46.26444" lon="6.26673">
        <ele>445.79998779297</ele>
        <time>2020-02-23T16:49:04Z</time>
      </trkpt>
      <trkpt lat="46.2645" lon="6.26673">
        <ele>445.60000610352</ele>
        <time>2020-02-23T16:49:05Z</time>
      </trkpt>
      <trkpt lat="46.26456" lon="6.26672">
        <ele>445.60000610352</ele>
        <time>2020-02-23T16:49:06Z</time>
      </trkpt>
      <trkpt lat="46.26474" lon="6.26672">
        <ele>445.20001220703</ele>
        <time>2020-02-23T16:49:09Z</time>
      </trkpt>
      <trkpt lat="46.2648" lon="6.26673">
        <ele>445.20001220703</ele>
        <time>2020-02-23T16:49:10Z</time>
      </trkpt>
      <trkpt lat="46.26486" lon="6.26673">
        <ele>444.79998779297</ele>
        <time>2020-02-23T16:49:11Z</time>
      </trkpt>
      <trkpt lat="46.26491" lon="6.26674">
        <ele>444.39999389648</ele>
        <time>2020-02-23T16:49:12Z</time>
      </trkpt>
      <trkpt lat="46.26497" lon="6.26676">
        <ele>444.39999389648</ele>
        <time>2020-02-23T16:49:13Z</time>
      </trkpt>
      <trkpt lat="46.26502" lon="6.26678">
        <ele>444.20001220703</ele>
        <time>2020-02-23T16:49:14Z</time>
      </trkpt>
      <trkpt lat="46.26507" lon="6.2668">
        <ele>444.20001220703</ele>
        <time>2020-02-23T16:49:15Z</time>
      </trkpt>
      <trkpt lat="46.26512" lon="6.26682">
        <ele>444.20001220703</ele>
        <time>2020-02-23T16:49:16Z</time>
      </trkpt>
      <trkpt lat="46.26517" lon="6.26684">
        <ele>444</ele>
        <time>2020-02-23T16:49:17Z</time>
      </trkpt>
      <trkpt lat="46.26521" lon="6.26686">
        <ele>443.79998779297</ele>
        <time>2020-02-23T16:49:18Z</time>
      </trkpt>
      <trkpt lat="46.26526" lon="6.26688">
        <ele>443.79998779297</ele>
        <time>2020-02-23T16:49:19Z</time>
      </trkpt>
      <trkpt lat="46.2653" lon="6.2669">
        <ele>443.79998779297</ele>
        <time>2020-02-23T16:49:20Z</time>
      </trkpt>
      <trkpt lat="46.26545" lon="6.26698">
        <ele>443.60000610352</ele>
        <time>2020-02-23T16:49:23Z</time>
      </trkpt>
      <trkpt lat="46.26555" lon="6.26703">
        <ele>443.39999389648</ele>
        <time>2020-02-23T16:49:25Z</time>
      </trkpt>
      <trkpt lat="46.26567" lon="6.26709">
        <ele>443.20001220703</ele>
        <time>2020-02-23T16:49:27Z</time>
      </trkpt>
      <trkpt lat="46.26573" lon="6.26712">
        <ele>443</ele>
        <time>2020-02-23T16:49:28Z</time>
      </trkpt>
      <trkpt lat="46.2658" lon="6.26716">
        <ele>442.79998779297</ele>
        <time>2020-02-23T16:49:29Z</time>
      </trkpt>
      <trkpt lat="46.26594" lon="6.26727">
        <ele>442.60000610352</ele>
        <time>2020-02-23T16:49:31Z</time>
      </trkpt>
      <trkpt lat="46.26599" lon="6.26732">
        <ele>442.60000610352</ele>
        <time>2020-02-23T16:49:32Z</time>
      </trkpt>
      <trkpt lat="46.26603" lon="6.26736">
        <ele>442</ele>
        <time>2020-02-23T16:49:33Z</time>
      </trkpt>
      <trkpt lat="46.26607" lon="6.26741">
        <ele>441.60000610352</ele>
        <time>2020-02-23T16:49:34Z</time>
      </trkpt>
      <trkpt lat="46.26611" lon="6.26746">
        <ele>440.60000610352</ele>
        <time>2020-02-23T16:49:35Z</time>
      </trkpt>
      <trkpt lat="46.26613" lon="6.26752">
        <ele>439.79998779297</ele>
        <time>2020-02-23T16:49:36Z</time>
      </trkpt>
      <trkpt lat="46.26616" lon="6.26758">
        <ele>438.60000610352</ele>
        <time>2020-02-23T16:49:37Z</time>
      </trkpt>
      <trkpt lat="46.26618" lon="6.26765">
        <ele>438.20001220703</ele>
        <time>2020-02-23T16:49:38Z</time>
      </trkpt>
      <trkpt lat="46.2662" lon="6.26771">
        <ele>437.60000610352</ele>
        <time>2020-02-23T16:49:39Z</time>
      </trkpt>
      <trkpt lat="46.26622" lon="6.26778">
        <ele>437.39999389648</ele>
        <time>2020-02-23T16:49:40Z</time>
      </trkpt>
      <trkpt lat="46.26624" lon="6.26784">
        <ele>437.20001220703</ele>
        <time>2020-02-23T16:49:41Z</time>
      </trkpt>
      <trkpt lat="46.26626" lon="6.26791">
        <ele>437.20001220703</ele>
        <time>2020-02-23T16:49:42Z</time>
      </trkpt>
      <trkpt lat="46.26628" lon="6.26797">
        <ele>437.20001220703</ele>
        <time>2020-02-23T16:49:43Z</time>
      </trkpt>
      <trkpt lat="46.2663" lon="6.26803">
        <ele>437.20001220703</ele>
        <time>2020-02-23T16:49:44Z</time>
      </trkpt>
      <trkpt lat="46.26632" lon="6.26809">
        <ele>437</ele>
        <time>2020-02-23T16:49:45Z</time>
      </trkpt>
      <trkpt lat="46.26634" lon="6.26815">
        <ele>436.79998779297</ele>
        <time>2020-02-23T16:49:46Z</time>
      </trkpt>
      <trkpt lat="46.26636" lon="6.26821">
        <ele>436.79998779297</ele>
        <time>2020-02-23T16:49:47Z</time>
      </trkpt>
      <trkpt lat="46.26638" lon="6.26826">
        <ele>436.79998779297</ele>
        <time>2020-02-23T16:49:48Z</time>
      </trkpt>
      <trkpt lat="46.2664" lon="6.26832">
        <ele>436.60000610352</ele>
        <time>2020-02-23T16:49:49Z</time>
      </trkpt>
      <trkpt lat="46.26648" lon="6.26854">
        <ele>436.39999389648</ele>
        <time>2020-02-23T16:49:53Z</time>
      </trkpt>
      <trkpt lat="46.26652" lon="6.26866">
        <ele>436.60000610352</ele>
        <time>2020-02-23T16:49:55Z</time>
      </trkpt>
      <trkpt lat="46.26654" lon="6.26871">
        <ele>436.39999389648</ele>
        <time>2020-02-23T16:49:56Z</time>
      </trkpt>
      <trkpt lat="46.26655" lon="6.26877">
        <ele>436.60000610352</ele>
        <time>2020-02-23T16:49:57Z</time>
      </trkpt>
      <trkpt lat="46.26656" lon="6.26883">
        <ele>436.39999389648</ele>
        <time>2020-02-23T16:49:58Z</time>
      </trkpt>
      <trkpt lat="46.26659" lon="6.26902">
        <ele>436.60000610352</ele>
        <time>2020-02-23T16:50:01Z</time>
      </trkpt>
      <trkpt lat="46.26661" lon="6.26923">
        <ele>436.39999389648</ele>
        <time>2020-02-23T16:50:04Z</time>
      </trkpt>
      <trkpt lat="46.26661" lon="6.2693">
        <ele>436.60000610352</ele>
        <time>2020-02-23T16:50:05Z</time>
      </trkpt>
      <trkpt lat="46.26661" lon="6.26937">
        <ele>436.60000610352</ele>
        <time>2020-02-23T16:50:06Z</time>
      </trkpt>
      <trkpt lat="46.26661" lon="6.26943">
        <ele>436.60000610352</ele>
        <time>2020-02-23T16:50:07Z</time>
      </trkpt>
      <trkpt lat="46.26662" lon="6.2695">
        <ele>436.60000610352</ele>
        <time>2020-02-23T16:50:08Z</time>
      </trkpt>
      <trkpt lat="46.26662" lon="6.26957">
        <ele>436.60000610352</ele>
        <time>2020-02-23T16:50:09Z</time>
      </trkpt>
      <trkpt lat="46.26662" lon="6.26963">
        <ele>436.60000610352</ele>
        <time>2020-02-23T16:50:10Z</time>
      </trkpt>
      <trkpt lat="46.26663" lon="6.26969">
        <ele>436.60000610352</ele>
        <time>2020-02-23T16:50:11Z</time>
      </trkpt>
      <trkpt lat="46.26664" lon="6.26974">
        <ele>436.39999389648</ele>
        <time>2020-02-23T16:50:12Z</time>
      </trkpt>
      <trkpt lat="46.26665" lon="6.26979">
        <ele>436.60000610352</ele>
        <time>2020-02-23T16:50:13Z</time>
      </trkpt>
      <trkpt lat="46.26667" lon="6.26984">
        <ele>436.60000610352</ele>
        <time>2020-02-23T16:50:14Z</time>
      </trkpt>
      <trkpt lat="46.26669" lon="6.26989">
        <ele>436.60000610352</ele>
        <time>2020-02-23T16:50:15Z</time>
      </trkpt>
      <trkpt lat="46.2667" lon="6.26993">
        <ele>436.79998779297</ele>
        <time>2020-02-23T16:50:16Z</time>
      </trkpt>
      <trkpt lat="46.26672" lon="6.26998">
        <ele>437</ele>
        <time>2020-02-23T16:50:17Z</time>
      </trkpt>
      <trkpt lat="46.26674" lon="6.27002">
        <ele>437.20001220703</ele>
        <time>2020-02-23T16:50:18Z</time>
      </trkpt>
      <trkpt lat="46.26677" lon="6.27007">
        <ele>437.20001220703</ele>
        <time>2020-02-23T16:50:19Z</time>
      </trkpt>
      <trkpt lat="46.26687" lon="6.27023">
        <ele>437.60000610352</ele>
        <time>2020-02-23T16:50:22Z</time>
      </trkpt>
      <trkpt lat="46.26695" lon="6.27033">
        <ele>438</ele>
        <time>2020-02-23T16:50:24Z</time>
      </trkpt>
      <trkpt lat="46.26709" lon="6.27046">
        <ele>437.79998779297</ele>
        <time>2020-02-23T16:50:27Z</time>
      </trkpt>
      <trkpt lat="46.26713" lon="6.2705">
        <ele>437.79998779297</ele>
        <time>2020-02-23T16:50:28Z</time>
      </trkpt>
      <trkpt lat="46.26718" lon="6.27054">
        <ele>437.79998779297</ele>
        <time>2020-02-23T16:50:29Z</time>
      </trkpt>
      <trkpt lat="46.26722" lon="6.27058">
        <ele>437.79998779297</ele>
        <time>2020-02-23T16:50:30Z</time>
      </trkpt>
      <trkpt lat="46.26726" lon="6.27061">
        <ele>437.60000610352</ele>
        <time>2020-02-23T16:50:31Z</time>
      </trkpt>
      <trkpt lat="46.26728" lon="6.27064">
        <ele>437.39999389648</ele>
        <time>2020-02-23T16:50:32Z</time>
      </trkpt>
      <trkpt lat="46.2673" lon="6.27067">
        <ele>437.39999389648</ele>
        <time>2020-02-23T16:50:33Z</time>
      </trkpt>
      <trkpt lat="46.26732" lon="6.27069">
        <ele>437.39999389648</ele>
        <time>2020-02-23T16:50:34Z</time>
      </trkpt>
      <trkpt lat="46.26734" lon="6.2707">
        <ele>437.20001220703</ele>
        <time>2020-02-23T16:50:35Z</time>
      </trkpt>
      <trkpt lat="46.26735" lon="6.27071">
        <ele>437.39999389648</ele>
        <time>2020-02-23T16:50:36Z</time>
      </trkpt>
      <trkpt lat="46.26737" lon="6.27072">
        <ele>437.39999389648</ele>
        <time>2020-02-23T16:50:37Z</time>
      </trkpt>
      <trkpt lat="46.26738" lon="6.27072">
        <ele>437.39999389648</ele>
        <time>2020-02-23T16:50:38Z</time>
      </trkpt>
      <trkpt lat="46.2674" lon="6.27071">
        <ele>437.39999389648</ele>
        <time>2020-02-23T16:50:39Z</time>
      </trkpt>
      <trkpt lat="46.26742" lon="6.27068">
        <ele>437.20001220703</ele>
        <time>2020-02-23T16:50:40Z</time>
      </trkpt>
      <trkpt lat="46.26743" lon="6.27065">
        <ele>437.20001220703</ele>
        <time>2020-02-23T16:50:41Z</time>
      </trkpt>
      <trkpt lat="46.26746" lon="6.27055">
        <ele>437</ele>
        <time>2020-02-23T16:50:43Z</time>
      </trkpt>
      <trkpt lat="46.26748" lon="6.27049">
        <ele>437</ele>
        <time>2020-02-23T16:50:44Z</time>
      </trkpt>
      <trkpt lat="46.2675" lon="6.27043">
        <ele>437</ele>
        <time>2020-02-23T16:50:45Z</time>
      </trkpt>
      <trkpt lat="46.26755" lon="6.27032">
        <ele>437</ele>
        <time>2020-02-23T16:50:47Z</time>
      </trkpt>
      <trkpt lat="46.26757" lon="6.27027">
        <ele>437.20001220703</ele>
        <time>2020-02-23T16:50:48Z</time>
      </trkpt>
      <trkpt lat="46.26758" lon="6.27022">
        <ele>437.20001220703</ele>
        <time>2020-02-23T16:50:49Z</time>
      </trkpt>
      <trkpt lat="46.2676" lon="6.27017">
        <ele>437.20001220703</ele>
        <time>2020-02-23T16:50:50Z</time>
      </trkpt>
      <trkpt lat="46.26762" lon="6.27012">
        <ele>437</ele>
        <time>2020-02-23T16:50:51Z</time>
      </trkpt>
      <trkpt lat="46.26764" lon="6.27007">
        <ele>436.79998779297</ele>
        <time>2020-02-23T16:50:52Z</time>
      </trkpt>
      <trkpt lat="46.26767" lon="6.27003">
        <ele>436.39999389648</ele>
        <time>2020-02-23T16:50:53Z</time>
      </trkpt>
      <trkpt lat="46.26768" lon="6.27001">
        <ele>436.39999389648</ele>
        <time>2020-02-23T16:50:54Z</time>
      </trkpt>
      <trkpt lat="46.26769" lon="6.26999">
        <ele>436.20001220703</ele>
        <time>2020-02-23T16:50:55Z</time>
      </trkpt>
      <trkpt lat="46.26769" lon="6.26999">
        <ele>436.20001220703</ele>
        <time>2020-02-23T16:50:58Z</time>
      </trkpt>
      <trkpt lat="46.26769" lon="6.27">
        <ele>436</ele>
        <time>2020-02-23T16:51:00Z</time>
      </trkpt>
      <trkpt lat="46.26769" lon="6.27001">
        <ele>436</ele>
        <time>2020-02-23T16:51:01Z</time>
      </trkpt>
      <trkpt lat="46.26769" lon="6.27002">
        <ele>436.20001220703</ele>
        <time>2020-02-23T16:51:02Z</time>
      </trkpt>
      <trkpt lat="46.26768" lon="6.27003">
        <ele>436</ele>
        <time>2020-02-23T16:51:03Z</time>
      </trkpt>
      <trkpt lat="46.26765" lon="6.27005">
        <ele>436</ele>
        <time>2020-02-23T16:51:05Z</time>
      </trkpt>
      <trkpt lat="46.26762" lon="6.27009">
        <ele>436.20001220703</ele>
        <time>2020-02-23T16:51:07Z</time>
      </trkpt>
      <trkpt lat="46.26761" lon="6.27011">
        <ele>436.20001220703</ele>
        <time>2020-02-23T16:51:08Z</time>
      </trkpt>
      <trkpt lat="46.26758" lon="6.27016">
        <ele>436</ele>
        <time>2020-02-23T16:51:10Z</time>
      </trkpt>
      <trkpt lat="46.26757" lon="6.2702">
        <ele>436</ele>
        <time>2020-02-23T16:51:11Z</time>
      </trkpt>
      <trkpt lat="46.26755" lon="6.27028">
        <ele>436</ele>
        <time>2020-02-23T16:51:13Z</time>
      </trkpt>
      <trkpt lat="46.26753" lon="6.27032">
        <ele>435.79998779297</ele>
        <time>2020-02-23T16:51:14Z</time>
      </trkpt>
      <trkpt lat="46.26748" lon="6.27041">
        <ele>435.60000610352</ele>
        <time>2020-02-23T16:51:16Z</time>
      </trkpt>
      <trkpt lat="46.26741" lon="6.27055">
        <ele>435.79998779297</ele>
        <time>2020-02-23T16:51:19Z</time>
      </trkpt>
      <trkpt lat="46.26739" lon="6.27059">
        <ele>435.60000610352</ele>
        <time>2020-02-23T16:51:20Z</time>
      </trkpt>
      <trkpt lat="46.26737" lon="6.27061">
        <ele>435.79998779297</ele>
        <time>2020-02-23T16:51:21Z</time>
      </trkpt>
      <trkpt lat="46.26736" lon="6.27062">
        <ele>435.60000610352</ele>
        <time>2020-02-23T16:51:22Z</time>
      </trkpt>
      <trkpt lat="46.26734" lon="6.27061">
        <ele>435.60000610352</ele>
        <time>2020-02-23T16:51:23Z</time>
      </trkpt>
      <trkpt lat="46.26732" lon="6.2706">
        <ele>435.60000610352</ele>
        <time>2020-02-23T16:51:24Z</time>
      </trkpt>
      <trkpt lat="46.2673" lon="6.27057">
        <ele>435.60000610352</ele>
        <time>2020-02-23T16:51:25Z</time>
      </trkpt>
      <trkpt lat="46.2673" lon="6.27054">
        <ele>435.60000610352</ele>
        <time>2020-02-23T16:51:26Z</time>
      </trkpt>
      <trkpt lat="46.26731" lon="6.27051">
        <ele>435.60000610352</ele>
        <time>2020-02-23T16:51:27Z</time>
      </trkpt>
      <trkpt lat="46.26732" lon="6.27049">
        <ele>436</ele>
        <time>2020-02-23T16:51:28Z</time>
      </trkpt>
      <trkpt lat="46.26733" lon="6.27046">
        <ele>436.39999389648</ele>
        <time>2020-02-23T16:51:29Z</time>
      </trkpt>
      <trkpt lat="46.26735" lon="6.27042">
        <ele>436.60000610352</ele>
        <time>2020-02-23T16:51:30Z</time>
      </trkpt>
      <trkpt lat="46.26737" lon="6.27037">
        <ele>436.79998779297</ele>
        <time>2020-02-23T16:51:31Z</time>
      </trkpt>
      <trkpt lat="46.26741" lon="6.27027">
        <ele>436.79998779297</ele>
        <time>2020-02-23T16:51:33Z</time>
      </trkpt>
      <trkpt lat="46.26743" lon="6.27022">
        <ele>436.60000610352</ele>
        <time>2020-02-23T16:51:34Z</time>
      </trkpt>
      <trkpt lat="46.26745" lon="6.27018">
        <ele>436.79998779297</ele>
        <time>2020-02-23T16:51:35Z</time>
      </trkpt>
      <trkpt lat="46.26753" lon="6.26998">
        <ele>436.79998779297</ele>
        <time>2020-02-23T16:51:39Z</time>
      </trkpt>
      <trkpt lat="46.26755" lon="6.26993">
        <ele>436.39999389648</ele>
        <time>2020-02-23T16:51:40Z</time>
      </trkpt>
      <trkpt lat="46.26756" lon="6.26988">
        <ele>435.79998779297</ele>
        <time>2020-02-23T16:51:41Z</time>
      </trkpt>
      <trkpt lat="46.26757" lon="6.26983">
        <ele>435.79998779297</ele>
        <time>2020-02-23T16:51:42Z</time>
      </trkpt>
      <trkpt lat="46.26757" lon="6.26978">
        <ele>435.20001220703</ele>
        <time>2020-02-23T16:51:43Z</time>
      </trkpt>
      <trkpt lat="46.26756" lon="6.26975">
        <ele>435</ele>
        <time>2020-02-23T16:51:44Z</time>
      </trkpt>
      <trkpt lat="46.26757" lon="6.26972">
        <ele>434.79998779297</ele>
        <time>2020-02-23T16:51:45Z</time>
      </trkpt>
      <trkpt lat="46.26758" lon="6.26969">
        <ele>434.79998779297</ele>
        <time>2020-02-23T16:51:46Z</time>
      </trkpt>
      <trkpt lat="46.26759" lon="6.26966">
        <ele>434.79998779297</ele>
        <time>2020-02-23T16:51:47Z</time>
      </trkpt>
      <trkpt lat="46.26763" lon="6.26959">
        <ele>434.79998779297</ele>
        <time>2020-02-23T16:51:49Z</time>
      </trkpt>
      <trkpt lat="46.2677" lon="6.26937">
        <ele>434.79998779297</ele>
        <time>2020-02-23T16:51:54Z</time>
      </trkpt>
      <trkpt lat="46.2677" lon="6.26933">
        <ele>434.79998779297</ele>
        <time>2020-02-23T16:51:55Z</time>
      </trkpt>
      <trkpt lat="46.26768" lon="6.26929">
        <ele>435</ele>
        <time>2020-02-23T16:51:56Z</time>
      </trkpt>
      <trkpt lat="46.26767" lon="6.26926">
        <ele>435</ele>
        <time>2020-02-23T16:51:57Z</time>
      </trkpt>
      <trkpt lat="46.26766" lon="6.26923">
        <ele>435</ele>
        <time>2020-02-23T16:51:58Z</time>
      </trkpt>
      <trkpt lat="46.26764" lon="6.2692">
        <ele>435.20001220703</ele>
        <time>2020-02-23T16:51:59Z</time>
      </trkpt>
      <trkpt lat="46.26764" lon="6.26918">
        <ele>435</ele>
        <time>2020-02-23T16:52:00Z</time>
      </trkpt>
      <trkpt lat="46.26763" lon="6.26916">
        <ele>435.20001220703</ele>
        <time>2020-02-23T16:52:05Z</time>
      </trkpt>
      <trkpt lat="46.26763" lon="6.26915">
        <ele>435.60000610352</ele>
        <time>2020-02-23T16:52:07Z</time>
      </trkpt>
      <trkpt lat="46.26764" lon="6.26914">
        <ele>436</ele>
        <time>2020-02-23T16:52:09Z</time>
      </trkpt>
      <trkpt lat="46.26764" lon="6.26913">
        <ele>436</ele>
        <time>2020-02-23T16:52:10Z</time>
      </trkpt>
      <trkpt lat="46.26765" lon="6.26912">
        <ele>436</ele>
        <time>2020-02-23T16:52:11Z</time>
      </trkpt>
      <trkpt lat="46.26766" lon="6.26911">
        <ele>436.20001220703</ele>
        <time>2020-02-23T16:52:13Z</time>
      </trkpt>
      <trkpt lat="46.26766" lon="6.2691">
        <ele>436.20001220703</ele>
        <time>2020-02-23T16:52:14Z</time>
      </trkpt>
      <trkpt lat="46.26767" lon="6.26908">
        <ele>436</ele>
        <time>2020-02-23T16:52:15Z</time>
      </trkpt>
      <trkpt lat="46.26768" lon="6.26907">
        <ele>436.20001220703</ele>
        <time>2020-02-23T16:52:16Z</time>
      </trkpt>
      <trkpt lat="46.2677" lon="6.26904">
        <ele>436.20001220703</ele>
        <time>2020-02-23T16:52:18Z</time>
      </trkpt>
      <trkpt lat="46.26772" lon="6.26903">
        <ele>436.20001220703</ele>
        <time>2020-02-23T16:52:19Z</time>
      </trkpt>
      <trkpt lat="46.26773" lon="6.26902">
        <ele>436.20001220703</ele>
        <time>2020-02-23T16:52:20Z</time>
      </trkpt>
      <trkpt lat="46.26774" lon="6.26902">
        <ele>436.20001220703</ele>
        <time>2020-02-23T16:52:21Z</time>
      </trkpt>
      <trkpt lat="46.26775" lon="6.26903">
        <ele>436.20001220703</ele>
        <time>2020-02-23T16:52:22Z</time>
      </trkpt>
      <trkpt lat="46.26776" lon="6.26904">
        <ele>436.20001220703</ele>
        <time>2020-02-23T16:52:23Z</time>
      </trkpt>
      <trkpt lat="46.26776" lon="6.26905">
        <ele>436.20001220703</ele>
        <time>2020-02-23T16:52:25Z</time>
      </trkpt>
      <trkpt lat="46.26775" lon="6.26906">
        <ele>435.79998779297</ele>
        <time>2020-02-23T16:52:39Z</time>
      </trkpt>
      <trkpt lat="46.26774" lon="6.26904">
        <ele>435.60000610352</ele>
        <time>2020-02-23T16:52:49Z</time>
      </trkpt>
      <trkpt lat="46.26773" lon="6.26903">
        <ele>435.79998779297</ele>
        <time>2020-02-23T16:52:56Z</time>
      </trkpt>
      <trkpt lat="46.26772" lon="6.26902">
        <ele>435.79998779297</ele>
        <time>2020-02-23T16:52:57Z</time>
      </trkpt>
      <trkpt lat="46.26772" lon="6.269">
        <ele>436</ele>
        <time>2020-02-23T16:52:58Z</time>
      </trkpt>
      <trkpt lat="46.26771" lon="6.26897">
        <ele>436</ele>
        <time>2020-02-23T16:52:59Z</time>
      </trkpt>
      <trkpt lat="46.26767" lon="6.26889">
        <ele>436</ele>
        <time>2020-02-23T16:53:02Z</time>
      </trkpt>
      <trkpt lat="46.26766" lon="6.26888">
        <ele>435.79998779297</ele>
        <time>2020-02-23T16:53:03Z</time>
      </trkpt>
      <trkpt lat="46.26766" lon="6.26887">
        <ele>435.79998779297</ele>
        <time>2020-02-23T16:53:04Z</time>
      </trkpt>
      <trkpt lat="46.26763" lon="6.26885">
        <ele>435.20001220703</ele>
        <time>2020-02-23T16:53:14Z</time>
      </trkpt>
      <trkpt lat="46.26763" lon="6.26883">
        <ele>435.20001220703</ele>
        <time>2020-02-23T16:53:16Z</time>
      </trkpt>
      <trkpt lat="46.26762" lon="6.26881">
        <ele>435.20001220703</ele>
        <time>2020-02-23T16:53:18Z</time>
      </trkpt>
      <trkpt lat="46.26759" lon="6.26874">
        <ele>435.20001220703</ele>
        <time>2020-02-23T16:53:21Z</time>
      </trkpt>
      <trkpt lat="46.26755" lon="6.26868">
        <ele>435.20001220703</ele>
        <time>2020-02-23T16:53:23Z</time>
      </trkpt>
      <trkpt lat="46.26745" lon="6.26854">
        <ele>434.79998779297</ele>
        <time>2020-02-23T16:53:27Z</time>
      </trkpt>
      <trkpt lat="46.26738" lon="6.26846">
        <ele>434.79998779297</ele>
        <time>2020-02-23T16:53:29Z</time>
      </trkpt>
      <trkpt lat="46.26732" lon="6.26837">
        <ele>434.60000610352</ele>
        <time>2020-02-23T16:53:31Z</time>
      </trkpt>
      <trkpt lat="46.26729" lon="6.26832">
        <ele>434.39999389648</ele>
        <time>2020-02-23T16:53:32Z</time>
      </trkpt>
      <trkpt lat="46.26727" lon="6.26826">
        <ele>434.39999389648</ele>
        <time>2020-02-23T16:53:33Z</time>
      </trkpt>
      <trkpt lat="46.26724" lon="6.26821">
        <ele>434.39999389648</ele>
        <time>2020-02-23T16:53:34Z</time>
      </trkpt>
      <trkpt lat="46.26718" lon="6.2681">
        <ele>434.20001220703</ele>
        <time>2020-02-23T16:53:36Z</time>
      </trkpt>
      <trkpt lat="46.26716" lon="6.26805">
        <ele>434.39999389648</ele>
        <time>2020-02-23T16:53:37Z</time>
      </trkpt>
      <trkpt lat="46.26714" lon="6.268">
        <ele>434.20001220703</ele>
        <time>2020-02-23T16:53:38Z</time>
      </trkpt>
      <trkpt lat="46.26713" lon="6.26795">
        <ele>434.20001220703</ele>
        <time>2020-02-23T16:53:39Z</time>
      </trkpt>
      <trkpt lat="46.26711" lon="6.2679">
        <ele>434</ele>
        <time>2020-02-23T16:53:40Z</time>
      </trkpt>
      <trkpt lat="46.26709" lon="6.26786">
        <ele>433.60000610352</ele>
        <time>2020-02-23T16:53:41Z</time>
      </trkpt>
      <trkpt lat="46.26708" lon="6.26781">
        <ele>433.20001220703</ele>
        <time>2020-02-23T16:53:42Z</time>
      </trkpt>
      <trkpt lat="46.26706" lon="6.26777">
        <ele>433</ele>
        <time>2020-02-23T16:53:43Z</time>
      </trkpt>
      <trkpt lat="46.26705" lon="6.26774">
        <ele>432.79998779297</ele>
        <time>2020-02-23T16:53:44Z</time>
      </trkpt>
      <trkpt lat="46.26703" lon="6.2677">
        <ele>432.79998779297</ele>
        <time>2020-02-23T16:53:45Z</time>
      </trkpt>
      <trkpt lat="46.267" lon="6.26762">
        <ele>432.79998779297</ele>
        <time>2020-02-23T16:53:47Z</time>
      </trkpt>
      <trkpt lat="46.26695" lon="6.26745">
        <ele>432.60000610352</ele>
        <time>2020-02-23T16:53:51Z</time>
      </trkpt>
      <trkpt lat="46.2669" lon="6.26716">
        <ele>432.79998779297</ele>
        <time>2020-02-23T16:53:57Z</time>
      </trkpt>
      <trkpt lat="46.26689" lon="6.26711">
        <ele>432.79998779297</ele>
        <time>2020-02-23T16:53:58Z</time>
      </trkpt>
      <trkpt lat="46.26688" lon="6.26706">
        <ele>432.79998779297</ele>
        <time>2020-02-23T16:53:59Z</time>
      </trkpt>
      <trkpt lat="46.26687" lon="6.26701">
        <ele>432.79998779297</ele>
        <time>2020-02-23T16:54:00Z</time>
      </trkpt>
      <trkpt lat="46.26685" lon="6.26692">
        <ele>432.79998779297</ele>
        <time>2020-02-23T16:54:02Z</time>
      </trkpt>
      <trkpt lat="46.26683" lon="6.26687">
        <ele>432.60000610352</ele>
        <time>2020-02-23T16:54:03Z</time>
      </trkpt>
      <trkpt lat="46.26681" lon="6.26683">
        <ele>432.60000610352</ele>
        <time>2020-02-23T16:54:04Z</time>
      </trkpt>
      <trkpt lat="46.2668" lon="6.26678">
        <ele>432.60000610352</ele>
        <time>2020-02-23T16:54:05Z</time>
      </trkpt>
      <trkpt lat="46.26677" lon="6.26669">
        <ele>432.39999389648</ele>
        <time>2020-02-23T16:54:07Z</time>
      </trkpt>
      <trkpt lat="46.26675" lon="6.26665">
        <ele>432.39999389648</ele>
        <time>2020-02-23T16:54:08Z</time>
      </trkpt>
      <trkpt lat="46.26671" lon="6.26655">
        <ele>432.39999389648</ele>
        <time>2020-02-23T16:54:10Z</time>
      </trkpt>
      <trkpt lat="46.26669" lon="6.26651">
        <ele>432.39999389648</ele>
        <time>2020-02-23T16:54:11Z</time>
      </trkpt>
      <trkpt lat="46.26668" lon="6.26647">
        <ele>432.60000610352</ele>
        <time>2020-02-23T16:54:12Z</time>
      </trkpt>
      <trkpt lat="46.26666" lon="6.26643">
        <ele>432.60000610352</ele>
        <time>2020-02-23T16:54:13Z</time>
      </trkpt>
      <trkpt lat="46.26665" lon="6.26639">
        <ele>432.60000610352</ele>
        <time>2020-02-23T16:54:14Z</time>
      </trkpt>
      <trkpt lat="46.26665" lon="6.26635">
        <ele>432.39999389648</ele>
        <time>2020-02-23T16:54:15Z</time>
      </trkpt>
      <trkpt lat="46.26664" lon="6.26632">
        <ele>432.60000610352</ele>
        <time>2020-02-23T16:54:16Z</time>
      </trkpt>
      <trkpt lat="46.26663" lon="6.26629">
        <ele>432.39999389648</ele>
        <time>2020-02-23T16:54:17Z</time>
      </trkpt>
      <trkpt lat="46.2666" lon="6.26622">
        <ele>432.60000610352</ele>
        <time>2020-02-23T16:54:19Z</time>
      </trkpt>
      <trkpt lat="46.26656" lon="6.26605">
        <ele>432.39999389648</ele>
        <time>2020-02-23T16:54:23Z</time>
      </trkpt>
      <trkpt lat="46.26655" lon="6.26601">
        <ele>432.60000610352</ele>
        <time>2020-02-23T16:54:24Z</time>
      </trkpt>
      <trkpt lat="46.26654" lon="6.26597">
        <ele>432.60000610352</ele>
        <time>2020-02-23T16:54:25Z</time>
      </trkpt>
      <trkpt lat="46.26653" lon="6.26593">
        <ele>432.60000610352</ele>
        <time>2020-02-23T16:54:26Z</time>
      </trkpt>
      <trkpt lat="46.26652" lon="6.26589">
        <ele>432.39999389648</ele>
        <time>2020-02-23T16:54:27Z</time>
      </trkpt>
      <trkpt lat="46.26651" lon="6.26584">
        <ele>432.39999389648</ele>
        <time>2020-02-23T16:54:28Z</time>
      </trkpt>
      <trkpt lat="46.26649" lon="6.26573">
        <ele>432.60000610352</ele>
        <time>2020-02-23T16:54:30Z</time>
      </trkpt>
      <trkpt lat="46.26644" lon="6.2656">
        <ele>432.39999389648</ele>
        <time>2020-02-23T16:54:32Z</time>
      </trkpt>
      <trkpt lat="46.26639" lon="6.26542">
        <ele>432.39999389648</ele>
        <time>2020-02-23T16:54:35Z</time>
      </trkpt>
      <trkpt lat="46.26638" lon="6.26537">
        <ele>432.39999389648</ele>
        <time>2020-02-23T16:54:36Z</time>
      </trkpt>
      <trkpt lat="46.26636" lon="6.26532">
        <ele>432.20001220703</ele>
        <time>2020-02-23T16:54:37Z</time>
      </trkpt>
      <trkpt lat="46.26635" lon="6.26528">
        <ele>432.20001220703</ele>
        <time>2020-02-23T16:54:38Z</time>
      </trkpt>
      <trkpt lat="46.26633" lon="6.26524">
        <ele>432.20001220703</ele>
        <time>2020-02-23T16:54:39Z</time>
      </trkpt>
      <trkpt lat="46.26632" lon="6.2652">
        <ele>432.20001220703</ele>
        <time>2020-02-23T16:54:40Z</time>
      </trkpt>
      <trkpt lat="46.26631" lon="6.26516">
        <ele>432</ele>
        <time>2020-02-23T16:54:41Z</time>
      </trkpt>
      <trkpt lat="46.26631" lon="6.26512">
        <ele>432.20001220703</ele>
        <time>2020-02-23T16:54:42Z</time>
      </trkpt>
      <trkpt lat="46.2663" lon="6.26508">
        <ele>432.20001220703</ele>
        <time>2020-02-23T16:54:43Z</time>
      </trkpt>
      <trkpt lat="46.26629" lon="6.26503">
        <ele>432</ele>
        <time>2020-02-23T16:54:44Z</time>
      </trkpt>
      <trkpt lat="46.26628" lon="6.26498">
        <ele>432</ele>
        <time>2020-02-23T16:54:45Z</time>
      </trkpt>
      <trkpt lat="46.26624" lon="6.26476">
        <ele>432</ele>
        <time>2020-02-23T16:54:49Z</time>
      </trkpt>
      <trkpt lat="46.26623" lon="6.26464">
        <ele>432</ele>
        <time>2020-02-23T16:54:51Z</time>
      </trkpt>
      <trkpt lat="46.26622" lon="6.26459">
        <ele>432</ele>
        <time>2020-02-23T16:54:52Z</time>
      </trkpt>
      <trkpt lat="46.26623" lon="6.26454">
        <ele>432</ele>
        <time>2020-02-23T16:54:53Z</time>
      </trkpt>
      <trkpt lat="46.26623" lon="6.26449">
        <ele>432</ele>
        <time>2020-02-23T16:54:54Z</time>
      </trkpt>
      <trkpt lat="46.26623" lon="6.26444">
        <ele>432</ele>
        <time>2020-02-23T16:54:55Z</time>
      </trkpt>
      <trkpt lat="46.26623" lon="6.2644">
        <ele>432</ele>
        <time>2020-02-23T16:54:56Z</time>
      </trkpt>
      <trkpt lat="46.26624" lon="6.26432">
        <ele>432</ele>
        <time>2020-02-23T16:54:58Z</time>
      </trkpt>
      <trkpt lat="46.26625" lon="6.26422">
        <ele>431.79998779297</ele>
        <time>2020-02-23T16:55:00Z</time>
      </trkpt>
      <trkpt lat="46.26627" lon="6.26412">
        <ele>431.79998779297</ele>
        <time>2020-02-23T16:55:02Z</time>
      </trkpt>
      <trkpt lat="46.26628" lon="6.264">
        <ele>431.79998779297</ele>
        <time>2020-02-23T16:55:04Z</time>
      </trkpt>
      <trkpt lat="46.26629" lon="6.26394">
        <ele>431.60000610352</ele>
        <time>2020-02-23T16:55:05Z</time>
      </trkpt>
      <trkpt lat="46.26629" lon="6.26388">
        <ele>431.60000610352</ele>
        <time>2020-02-23T16:55:06Z</time>
      </trkpt>
      <trkpt lat="46.2663" lon="6.26384">
        <ele>431.60000610352</ele>
        <time>2020-02-23T16:55:07Z</time>
      </trkpt>
      <trkpt lat="46.26632" lon="6.26379">
        <ele>431.60000610352</ele>
        <time>2020-02-23T16:55:08Z</time>
      </trkpt>
      <trkpt lat="46.26633" lon="6.26375">
        <ele>431.60000610352</ele>
        <time>2020-02-23T16:55:09Z</time>
      </trkpt>
      <trkpt lat="46.26634" lon="6.2637">
        <ele>431.60000610352</ele>
        <time>2020-02-23T16:55:10Z</time>
      </trkpt>
      <trkpt lat="46.26634" lon="6.26366">
        <ele>431.39999389648</ele>
        <time>2020-02-23T16:55:11Z</time>
      </trkpt>
      <trkpt lat="46.26635" lon="6.26362">
        <ele>431.60000610352</ele>
        <time>2020-02-23T16:55:12Z</time>
      </trkpt>
      <trkpt lat="46.26636" lon="6.26359">
        <ele>431.60000610352</ele>
        <time>2020-02-23T16:55:13Z</time>
      </trkpt>
      <trkpt lat="46.26637" lon="6.26355">
        <ele>431.39999389648</ele>
        <time>2020-02-23T16:55:14Z</time>
      </trkpt>
      <trkpt lat="46.26638" lon="6.26346">
        <ele>431.20001220703</ele>
        <time>2020-02-23T16:55:16Z</time>
      </trkpt>
      <trkpt lat="46.26638" lon="6.26342">
        <ele>431.39999389648</ele>
        <time>2020-02-23T16:55:17Z</time>
      </trkpt>
      <trkpt lat="46.26638" lon="6.26338">
        <ele>431.39999389648</ele>
        <time>2020-02-23T16:55:18Z</time>
      </trkpt>
      <trkpt lat="46.26639" lon="6.26328">
        <ele>431.39999389648</ele>
        <time>2020-02-23T16:55:20Z</time>
      </trkpt>
      <trkpt lat="46.2664" lon="6.26324">
        <ele>431.20001220703</ele>
        <time>2020-02-23T16:55:21Z</time>
      </trkpt>
      <trkpt lat="46.26641" lon="6.2632">
        <ele>431.39999389648</ele>
        <time>2020-02-23T16:55:22Z</time>
      </trkpt>
      <trkpt lat="46.26641" lon="6.26317">
        <ele>431.39999389648</ele>
        <time>2020-02-23T16:55:23Z</time>
      </trkpt>
      <trkpt lat="46.26642" lon="6.26315">
        <ele>431.39999389648</ele>
        <time>2020-02-23T16:55:24Z</time>
      </trkpt>
      <trkpt lat="46.26642" lon="6.26313">
        <ele>431.60000610352</ele>
        <time>2020-02-23T16:55:25Z</time>
      </trkpt>
      <trkpt lat="46.26642" lon="6.26311">
        <ele>431.60000610352</ele>
        <time>2020-02-23T16:55:26Z</time>
      </trkpt>
      <trkpt lat="46.26642" lon="6.26309">
        <ele>431.60000610352</ele>
        <time>2020-02-23T16:55:27Z</time>
      </trkpt>
      <trkpt lat="46.26644" lon="6.26302">
        <ele>431.60000610352</ele>
        <time>2020-02-23T16:55:29Z</time>
      </trkpt>
      <trkpt lat="46.26645" lon="6.26295">
        <ele>431.79998779297</ele>
        <time>2020-02-23T16:55:31Z</time>
      </trkpt>
      <trkpt lat="46.26646" lon="6.26291">
        <ele>432</ele>
        <time>2020-02-23T16:55:32Z</time>
      </trkpt>
      <trkpt lat="46.26647" lon="6.26288">
        <ele>432.20001220703</ele>
        <time>2020-02-23T16:55:33Z</time>
      </trkpt>
      <trkpt lat="46.26648" lon="6.26285">
        <ele>432.20001220703</ele>
        <time>2020-02-23T16:55:34Z</time>
      </trkpt>
      <trkpt lat="46.2665" lon="6.26282">
        <ele>432.20001220703</ele>
        <time>2020-02-23T16:55:35Z</time>
      </trkpt>
      <trkpt lat="46.26652" lon="6.26279">
        <ele>432.39999389648</ele>
        <time>2020-02-23T16:55:36Z</time>
      </trkpt>
      <trkpt lat="46.26654" lon="6.26275">
        <ele>432.20001220703</ele>
        <time>2020-02-23T16:55:37Z</time>
      </trkpt>
      <trkpt lat="46.26657" lon="6.26266">
        <ele>432.20001220703</ele>
        <time>2020-02-23T16:55:39Z</time>
      </trkpt>
      <trkpt lat="46.26658" lon="6.26262">
        <ele>432.39999389648</ele>
        <time>2020-02-23T16:55:40Z</time>
      </trkpt>
      <trkpt lat="46.2666" lon="6.26257">
        <ele>432.20001220703</ele>
        <time>2020-02-23T16:55:41Z</time>
      </trkpt>
      <trkpt lat="46.26662" lon="6.26253">
        <ele>432.39999389648</ele>
        <time>2020-02-23T16:55:42Z</time>
      </trkpt>
      <trkpt lat="46.26665" lon="6.26244">
        <ele>432.20001220703</ele>
        <time>2020-02-23T16:55:44Z</time>
      </trkpt>
      <trkpt lat="46.26668" lon="6.26236">
        <ele>432</ele>
        <time>2020-02-23T16:55:46Z</time>
      </trkpt>
      <trkpt lat="46.2667" lon="6.26227">
        <ele>432</ele>
        <time>2020-02-23T16:55:48Z</time>
      </trkpt>
      <trkpt lat="46.26671" lon="6.26223">
        <ele>432</ele>
        <time>2020-02-23T16:55:49Z</time>
      </trkpt>
      <trkpt lat="46.26672" lon="6.26219">
        <ele>432.20001220703</ele>
        <time>2020-02-23T16:55:50Z</time>
      </trkpt>
      <trkpt lat="46.26673" lon="6.26216">
        <ele>432.20001220703</ele>
        <time>2020-02-23T16:55:51Z</time>
      </trkpt>
      <trkpt lat="46.26674" lon="6.26212">
        <ele>432.20001220703</ele>
        <time>2020-02-23T16:55:52Z</time>
      </trkpt>
      <trkpt lat="46.26675" lon="6.26209">
        <ele>432.20001220703</ele>
        <time>2020-02-23T16:55:53Z</time>
      </trkpt>
      <trkpt lat="46.26675" lon="6.26207">
        <ele>432</ele>
        <time>2020-02-23T16:55:54Z</time>
      </trkpt>
      <trkpt lat="46.26676" lon="6.26201">
        <ele>432</ele>
        <time>2020-02-23T16:55:56Z</time>
      </trkpt>
      <trkpt lat="46.26677" lon="6.26194">
        <ele>432</ele>
        <time>2020-02-23T16:55:58Z</time>
      </trkpt>
      <trkpt lat="46.26679" lon="6.2618">
        <ele>432.20001220703</ele>
        <time>2020-02-23T16:56:01Z</time>
      </trkpt>
      <trkpt lat="46.2668" lon="6.26175">
        <ele>432.20001220703</ele>
        <time>2020-02-23T16:56:02Z</time>
      </trkpt>
      <trkpt lat="46.26683" lon="6.26165">
        <ele>432.20001220703</ele>
        <time>2020-02-23T16:56:04Z</time>
      </trkpt>
      <trkpt lat="46.26684" lon="6.2616">
        <ele>432.20001220703</ele>
        <time>2020-02-23T16:56:05Z</time>
      </trkpt>
      <trkpt lat="46.26684" lon="6.26155">
        <ele>432</ele>
        <time>2020-02-23T16:56:06Z</time>
      </trkpt>
      <trkpt lat="46.26684" lon="6.26149">
        <ele>432</ele>
        <time>2020-02-23T16:56:07Z</time>
      </trkpt>
      <trkpt lat="46.26684" lon="6.26144">
        <ele>432.20001220703</ele>
        <time>2020-02-23T16:56:08Z</time>
      </trkpt>
      <trkpt lat="46.26683" lon="6.26139">
        <ele>432</ele>
        <time>2020-02-23T16:56:09Z</time>
      </trkpt>
      <trkpt lat="46.26682" lon="6.26135">
        <ele>432</ele>
        <time>2020-02-23T16:56:10Z</time>
      </trkpt>
      <trkpt lat="46.26682" lon="6.26131">
        <ele>432</ele>
        <time>2020-02-23T16:56:11Z</time>
      </trkpt>
      <trkpt lat="46.26681" lon="6.26128">
        <ele>431.79998779297</ele>
        <time>2020-02-23T16:56:12Z</time>
      </trkpt>
      <trkpt lat="46.26681" lon="6.26124">
        <ele>431.60000610352</ele>
        <time>2020-02-23T16:56:13Z</time>
      </trkpt>
      <trkpt lat="46.26681" lon="6.2612">
        <ele>431.79998779297</ele>
        <time>2020-02-23T16:56:14Z</time>
      </trkpt>
      <trkpt lat="46.26682" lon="6.26111">
        <ele>431.60000610352</ele>
        <time>2020-02-23T16:56:16Z</time>
      </trkpt>
      <trkpt lat="46.26683" lon="6.26102">
        <ele>431.60000610352</ele>
        <time>2020-02-23T16:56:18Z</time>
      </trkpt>
      <trkpt lat="46.26684" lon="6.26097">
        <ele>431.60000610352</ele>
        <time>2020-02-23T16:56:19Z</time>
      </trkpt>
      <trkpt lat="46.26684" lon="6.26093">
        <ele>431.39999389648</ele>
        <time>2020-02-23T16:56:20Z</time>
      </trkpt>
      <trkpt lat="46.26686" lon="6.26088">
        <ele>431.39999389648</ele>
        <time>2020-02-23T16:56:21Z</time>
      </trkpt>
      <trkpt lat="46.26688" lon="6.26079">
        <ele>431.39999389648</ele>
        <time>2020-02-23T16:56:23Z</time>
      </trkpt>
      <trkpt lat="46.26692" lon="6.26058">
        <ele>431.39999389648</ele>
        <time>2020-02-23T16:56:27Z</time>
      </trkpt>
      <trkpt lat="46.26693" lon="6.26053">
        <ele>431.39999389648</ele>
        <time>2020-02-23T16:56:28Z</time>
      </trkpt>
      <trkpt lat="46.26694" lon="6.26048">
        <ele>431.20001220703</ele>
        <time>2020-02-23T16:56:29Z</time>
      </trkpt>
      <trkpt lat="46.26695" lon="6.26044">
        <ele>431.39999389648</ele>
        <time>2020-02-23T16:56:30Z</time>
      </trkpt>
      <trkpt lat="46.26696" lon="6.26041">
        <ele>431.20001220703</ele>
        <time>2020-02-23T16:56:31Z</time>
      </trkpt>
      <trkpt lat="46.26696" lon="6.26038">
        <ele>431.39999389648</ele>
        <time>2020-02-23T16:56:32Z</time>
      </trkpt>
      <trkpt lat="46.26696" lon="6.26036">
        <ele>431.39999389648</ele>
        <time>2020-02-23T16:56:33Z</time>
      </trkpt>
      <trkpt lat="46.26697" lon="6.26034">
        <ele>431.39999389648</ele>
        <time>2020-02-23T16:56:34Z</time>
      </trkpt>
      <trkpt lat="46.26696" lon="6.26033">
        <ele>431.39999389648</ele>
        <time>2020-02-23T16:56:35Z</time>
      </trkpt>
      <trkpt lat="46.26696" lon="6.26031">
        <ele>431.39999389648</ele>
        <time>2020-02-23T16:56:36Z</time>
      </trkpt>
      <trkpt lat="46.26695" lon="6.2603">
        <ele>431.60000610352</ele>
        <time>2020-02-23T16:56:39Z</time>
      </trkpt>
      <trkpt lat="46.26695" lon="6.26031">
        <ele>432.39999389648</ele>
        <time>2020-02-23T16:56:49Z</time>
      </trkpt>
      <trkpt lat="46.26693" lon="6.2603">
        <ele>432.60000610352</ele>
        <time>2020-02-23T16:56:53Z</time>
      </trkpt>
      <trkpt lat="46.26692" lon="6.2603">
        <ele>432.60000610352</ele>
        <time>2020-02-23T16:56:54Z</time>
      </trkpt>
      <trkpt lat="46.26691" lon="6.2603">
        <ele>432.60000610352</ele>
        <time>2020-02-23T16:56:55Z</time>
      </trkpt>
      <trkpt lat="46.26688" lon="6.2603">
        <ele>432.60000610352</ele>
        <time>2020-02-23T16:56:57Z</time>
      </trkpt>
      <trkpt lat="46.26682" lon="6.26029">
        <ele>432.60000610352</ele>
        <time>2020-02-23T16:57:00Z</time>
      </trkpt>
      <trkpt lat="46.26672" lon="6.26029">
        <ele>432.39999389648</ele>
        <time>2020-02-23T16:57:03Z</time>
      </trkpt>
      <trkpt lat="46.26657" lon="6.2603">
        <ele>432.60000610352</ele>
        <time>2020-02-23T16:57:07Z</time>
      </trkpt>
      <trkpt lat="46.26653" lon="6.2603">
        <ele>432.39999389648</ele>
        <time>2020-02-23T16:57:08Z</time>
      </trkpt>
      <trkpt lat="46.2665" lon="6.26031">
        <ele>432.39999389648</ele>
        <time>2020-02-23T16:57:09Z</time>
      </trkpt>
      <trkpt lat="46.26646" lon="6.26031">
        <ele>432</ele>
        <time>2020-02-23T16:57:10Z</time>
      </trkpt>
      <trkpt lat="46.26643" lon="6.26031">
        <ele>432</ele>
        <time>2020-02-23T16:57:11Z</time>
      </trkpt>
      <trkpt lat="46.26639" lon="6.26032">
        <ele>432</ele>
        <time>2020-02-23T16:57:12Z</time>
      </trkpt>
      <trkpt lat="46.26636" lon="6.26032">
        <ele>431.79998779297</ele>
        <time>2020-02-23T16:57:13Z</time>
      </trkpt>
      <trkpt lat="46.26633" lon="6.26032">
        <ele>431.79998779297</ele>
        <time>2020-02-23T16:57:14Z</time>
      </trkpt>
      <trkpt lat="46.2663" lon="6.26032">
        <ele>431.79998779297</ele>
        <time>2020-02-23T16:57:15Z</time>
      </trkpt>
      <trkpt lat="46.26627" lon="6.26032">
        <ele>431.79998779297</ele>
        <time>2020-02-23T16:57:16Z</time>
      </trkpt>
      <trkpt lat="46.26624" lon="6.26032">
        <ele>432</ele>
        <time>2020-02-23T16:57:17Z</time>
      </trkpt>
      <trkpt lat="46.26621" lon="6.26033">
        <ele>431.79998779297</ele>
        <time>2020-02-23T16:57:18Z</time>
      </trkpt>
      <trkpt lat="46.26618" lon="6.26033">
        <ele>431.79998779297</ele>
        <time>2020-02-23T16:57:19Z</time>
      </trkpt>
      <trkpt lat="46.26611" lon="6.26033">
        <ele>431.79998779297</ele>
        <time>2020-02-23T16:57:21Z</time>
      </trkpt>
      <trkpt lat="46.26608" lon="6.26033">
        <ele>432</ele>
        <time>2020-02-23T16:57:22Z</time>
      </trkpt>
      <trkpt lat="46.26606" lon="6.26033">
        <ele>432</ele>
        <time>2020-02-23T16:57:23Z</time>
      </trkpt>
      <trkpt lat="46.26603" lon="6.26033">
        <ele>432.20001220703</ele>
        <time>2020-02-23T16:57:24Z</time>
      </trkpt>
      <trkpt lat="46.266" lon="6.26034">
        <ele>432.20001220703</ele>
        <time>2020-02-23T16:57:25Z</time>
      </trkpt>
      <trkpt lat="46.26598" lon="6.26034">
        <ele>432.39999389648</ele>
        <time>2020-02-23T16:57:26Z</time>
      </trkpt>
      <trkpt lat="46.26596" lon="6.26034">
        <ele>432.39999389648</ele>
        <time>2020-02-23T16:57:27Z</time>
      </trkpt>
      <trkpt lat="46.26595" lon="6.26033">
        <ele>432.39999389648</ele>
        <time>2020-02-23T16:57:28Z</time>
      </trkpt>
      <trkpt lat="46.26593" lon="6.26031">
        <ele>432.60000610352</ele>
        <time>2020-02-23T16:57:29Z</time>
      </trkpt>
      <trkpt lat="46.26593" lon="6.26028">
        <ele>432.60000610352</ele>
        <time>2020-02-23T16:57:30Z</time>
      </trkpt>
      <trkpt lat="46.26592" lon="6.26026">
        <ele>432.79998779297</ele>
        <time>2020-02-23T16:57:31Z</time>
      </trkpt>
      <trkpt lat="46.26592" lon="6.26023">
        <ele>433</ele>
        <time>2020-02-23T16:57:32Z</time>
      </trkpt>
      <trkpt lat="46.26592" lon="6.2602">
        <ele>433.20001220703</ele>
        <time>2020-02-23T16:57:33Z</time>
      </trkpt>
      <trkpt lat="46.26592" lon="6.26017">
        <ele>433.20001220703</ele>
        <time>2020-02-23T16:57:34Z</time>
      </trkpt>
      <trkpt lat="46.26592" lon="6.26013">
        <ele>433.60000610352</ele>
        <time>2020-02-23T16:57:35Z</time>
      </trkpt>
      <trkpt lat="46.26591" lon="6.26009">
        <ele>433.79998779297</ele>
        <time>2020-02-23T16:57:36Z</time>
      </trkpt>
      <trkpt lat="46.26591" lon="6.26005">
        <ele>433.79998779297</ele>
        <time>2020-02-23T16:57:37Z</time>
      </trkpt>
      <trkpt lat="46.26588" lon="6.25983">
        <ele>434</ele>
        <time>2020-02-23T16:57:42Z</time>
      </trkpt>
      <trkpt lat="46.26587" lon="6.25979">
        <ele>434</ele>
        <time>2020-02-23T16:57:43Z</time>
      </trkpt>
      <trkpt lat="46.26587" lon="6.25976">
        <ele>434</ele>
        <time>2020-02-23T16:57:44Z</time>
      </trkpt>
      <trkpt lat="46.26586" lon="6.25972">
        <ele>434.20001220703</ele>
        <time>2020-02-23T16:57:45Z</time>
      </trkpt>
      <trkpt lat="46.26586" lon="6.25969">
        <ele>434</ele>
        <time>2020-02-23T16:57:46Z</time>
      </trkpt>
      <trkpt lat="46.26582" lon="6.25942">
        <ele>434.39999389648</ele>
        <time>2020-02-23T16:57:53Z</time>
      </trkpt>
      <trkpt lat="46.26581" lon="6.25934">
        <ele>434.79998779297</ele>
        <time>2020-02-23T16:57:55Z</time>
      </trkpt>
      <trkpt lat="46.26581" lon="6.2593">
        <ele>434.79998779297</ele>
        <time>2020-02-23T16:57:56Z</time>
      </trkpt>
      <trkpt lat="46.2658" lon="6.25922">
        <ele>434.79998779297</ele>
        <time>2020-02-23T16:57:58Z</time>
      </trkpt>
      <trkpt lat="46.26579" lon="6.25918">
        <ele>435</ele>
        <time>2020-02-23T16:57:59Z</time>
      </trkpt>
      <trkpt lat="46.26579" lon="6.25914">
        <ele>435</ele>
        <time>2020-02-23T16:58:00Z</time>
      </trkpt>
      <trkpt lat="46.26579" lon="6.25911">
        <ele>435.20001220703</ele>
        <time>2020-02-23T16:58:01Z</time>
      </trkpt>
      <trkpt lat="46.26579" lon="6.25908">
        <ele>435.20001220703</ele>
        <time>2020-02-23T16:58:02Z</time>
      </trkpt>
      <trkpt lat="46.26579" lon="6.25906">
        <ele>435.39999389648</ele>
        <time>2020-02-23T16:58:03Z</time>
      </trkpt>
      <trkpt lat="46.26579" lon="6.25904">
        <ele>435.39999389648</ele>
        <time>2020-02-23T16:58:04Z</time>
      </trkpt>
      <trkpt lat="46.2658" lon="6.25902">
        <ele>435.60000610352</ele>
        <time>2020-02-23T16:58:05Z</time>
      </trkpt>
      <trkpt lat="46.26581" lon="6.259">
        <ele>435.39999389648</ele>
        <time>2020-02-23T16:58:06Z</time>
      </trkpt>
      <trkpt lat="46.26582" lon="6.25899">
        <ele>435.60000610352</ele>
        <time>2020-02-23T16:58:07Z</time>
      </trkpt>
      <trkpt lat="46.26584" lon="6.25898">
        <ele>435.60000610352</ele>
        <time>2020-02-23T16:58:08Z</time>
      </trkpt>
      <trkpt lat="46.26585" lon="6.25897">
        <ele>435.60000610352</ele>
        <time>2020-02-23T16:58:09Z</time>
      </trkpt>
      <trkpt lat="46.26586" lon="6.25897">
        <ele>436</ele>
        <time>2020-02-23T16:58:10Z</time>
      </trkpt>
      <trkpt lat="46.26588" lon="6.25897">
        <ele>436</ele>
        <time>2020-02-23T16:58:11Z</time>
      </trkpt>
      <trkpt lat="46.26589" lon="6.25896">
        <ele>436</ele>
        <time>2020-02-23T16:58:12Z</time>
      </trkpt>
      <trkpt lat="46.2659" lon="6.25896">
        <ele>436</ele>
        <time>2020-02-23T16:58:13Z</time>
      </trkpt>
      <trkpt lat="46.26591" lon="6.25893">
        <ele>436.20001220703</ele>
        <time>2020-02-23T16:58:14Z</time>
      </trkpt>
      <trkpt lat="46.26593" lon="6.25887">
        <ele>436.20001220703</ele>
        <time>2020-02-23T16:58:16Z</time>
      </trkpt>
      <trkpt lat="46.26593" lon="6.25885">
        <ele>436.20001220703</ele>
        <time>2020-02-23T16:58:17Z</time>
      </trkpt>
      <trkpt lat="46.26594" lon="6.25883">
        <ele>436.20001220703</ele>
        <time>2020-02-23T16:58:18Z</time>
      </trkpt>
      <trkpt lat="46.26595" lon="6.25881">
        <ele>436.20001220703</ele>
        <time>2020-02-23T16:58:19Z</time>
      </trkpt>
      <trkpt lat="46.26596" lon="6.2588">
        <ele>436.20001220703</ele>
        <time>2020-02-23T16:58:20Z</time>
      </trkpt>
      <trkpt lat="46.26597" lon="6.25879">
        <ele>436</ele>
        <time>2020-02-23T16:58:21Z</time>
      </trkpt>
      <trkpt lat="46.26598" lon="6.25878">
        <ele>436</ele>
        <time>2020-02-23T16:58:22Z</time>
      </trkpt>
      <trkpt lat="46.266" lon="6.25877">
        <ele>435.79998779297</ele>
        <time>2020-02-23T16:58:23Z</time>
      </trkpt>
      <trkpt lat="46.266" lon="6.25875">
        <ele>435.79998779297</ele>
        <time>2020-02-23T16:58:24Z</time>
      </trkpt>
      <trkpt lat="46.266" lon="6.25873">
        <ele>435.79998779297</ele>
        <time>2020-02-23T16:58:25Z</time>
      </trkpt>
      <trkpt lat="46.26599" lon="6.25872">
        <ele>435.60000610352</ele>
        <time>2020-02-23T16:58:26Z</time>
      </trkpt>
      <trkpt lat="46.26598" lon="6.25872">
        <ele>435.60000610352</ele>
        <time>2020-02-23T16:58:27Z</time>
      </trkpt>
      <trkpt lat="46.26596" lon="6.25873">
        <ele>435.60000610352</ele>
        <time>2020-02-23T16:58:28Z</time>
      </trkpt>
      <trkpt lat="46.26595" lon="6.25874">
        <ele>435.39999389648</ele>
        <time>2020-02-23T16:58:29Z</time>
      </trkpt>
      <trkpt lat="46.26595" lon="6.25876">
        <ele>435.20001220703</ele>
        <time>2020-02-23T16:58:30Z</time>
      </trkpt>
      <trkpt lat="46.26594" lon="6.25878">
        <ele>435.20001220703</ele>
        <time>2020-02-23T16:58:31Z</time>
      </trkpt>
      <trkpt lat="46.26592" lon="6.25885">
        <ele>435.20001220703</ele>
        <time>2020-02-23T16:58:34Z</time>
      </trkpt>
      <trkpt lat="46.26591" lon="6.25887">
        <ele>435.20001220703</ele>
        <time>2020-02-23T16:58:35Z</time>
      </trkpt>
      <trkpt lat="46.26589" lon="6.2589">
        <ele>435.20001220703</ele>
        <time>2020-02-23T16:58:36Z</time>
      </trkpt>
      <trkpt lat="46.26587" lon="6.25892">
        <ele>435.20001220703</ele>
        <time>2020-02-23T16:58:37Z</time>
      </trkpt>
      <trkpt lat="46.26585" lon="6.25893">
        <ele>435.20001220703</ele>
        <time>2020-02-23T16:58:38Z</time>
      </trkpt>
      <trkpt lat="46.26583" lon="6.25895">
        <ele>435.20001220703</ele>
        <time>2020-02-23T16:58:39Z</time>
      </trkpt>
      <trkpt lat="46.26581" lon="6.25896">
        <ele>435.20001220703</ele>
        <time>2020-02-23T16:58:40Z</time>
      </trkpt>
      <trkpt lat="46.26579" lon="6.25897">
        <ele>435.39999389648</ele>
        <time>2020-02-23T16:58:41Z</time>
      </trkpt>
      <trkpt lat="46.26577" lon="6.25896">
        <ele>435.20001220703</ele>
        <time>2020-02-23T16:58:42Z</time>
      </trkpt>
      <trkpt lat="46.26575" lon="6.25895">
        <ele>435.39999389648</ele>
        <time>2020-02-23T16:58:43Z</time>
      </trkpt>
      <trkpt lat="46.26574" lon="6.25892">
        <ele>435.39999389648</ele>
        <time>2020-02-23T16:58:44Z</time>
      </trkpt>
      <trkpt lat="46.26573" lon="6.2589">
        <ele>435.60000610352</ele>
        <time>2020-02-23T16:58:45Z</time>
      </trkpt>
      <trkpt lat="46.26572" lon="6.25887">
        <ele>435.60000610352</ele>
        <time>2020-02-23T16:58:46Z</time>
      </trkpt>
      <trkpt lat="46.26571" lon="6.25884">
        <ele>435.60000610352</ele>
        <time>2020-02-23T16:58:47Z</time>
      </trkpt>
      <trkpt lat="46.26569" lon="6.25881">
        <ele>436</ele>
        <time>2020-02-23T16:58:48Z</time>
      </trkpt>
      <trkpt lat="46.26563" lon="6.25873">
        <ele>436</ele>
        <time>2020-02-23T16:58:51Z</time>
      </trkpt>
      <trkpt lat="46.2656" lon="6.2587">
        <ele>436</ele>
        <time>2020-02-23T16:58:52Z</time>
      </trkpt>
      <trkpt lat="46.26558" lon="6.25867">
        <ele>436.20001220703</ele>
        <time>2020-02-23T16:58:53Z</time>
      </trkpt>
      <trkpt lat="46.26556" lon="6.25865">
        <ele>436.20001220703</ele>
        <time>2020-02-23T16:58:54Z</time>
      </trkpt>
      <trkpt lat="46.26554" lon="6.25862">
        <ele>436.20001220703</ele>
        <time>2020-02-23T16:58:55Z</time>
      </trkpt>
      <trkpt lat="46.26547" lon="6.25856">
        <ele>436.39999389648</ele>
        <time>2020-02-23T16:58:58Z</time>
      </trkpt>
      <trkpt lat="46.26545" lon="6.25854">
        <ele>436.39999389648</ele>
        <time>2020-02-23T16:58:59Z</time>
      </trkpt>
      <trkpt lat="46.26542" lon="6.25852">
        <ele>436.39999389648</ele>
        <time>2020-02-23T16:59:00Z</time>
      </trkpt>
      <trkpt lat="46.26539" lon="6.2585">
        <ele>436.39999389648</ele>
        <time>2020-02-23T16:59:01Z</time>
      </trkpt>
      <trkpt lat="46.26536" lon="6.25848">
        <ele>436.39999389648</ele>
        <time>2020-02-23T16:59:02Z</time>
      </trkpt>
      <trkpt lat="46.26531" lon="6.25843">
        <ele>436.60000610352</ele>
        <time>2020-02-23T16:59:04Z</time>
      </trkpt>
      <trkpt lat="46.26528" lon="6.25841">
        <ele>436.60000610352</ele>
        <time>2020-02-23T16:59:05Z</time>
      </trkpt>
      <trkpt lat="46.26526" lon="6.25839">
        <ele>436.60000610352</ele>
        <time>2020-02-23T16:59:06Z</time>
      </trkpt>
      <trkpt lat="46.26524" lon="6.25837">
        <ele>436.60000610352</ele>
        <time>2020-02-23T16:59:07Z</time>
      </trkpt>
      <trkpt lat="46.26523" lon="6.25836">
        <ele>436.79998779297</ele>
        <time>2020-02-23T16:59:08Z</time>
      </trkpt>
      <trkpt lat="46.26521" lon="6.25834">
        <ele>436.79998779297</ele>
        <time>2020-02-23T16:59:09Z</time>
      </trkpt>
      <trkpt lat="46.2652" lon="6.25833">
        <ele>436.79998779297</ele>
        <time>2020-02-23T16:59:10Z</time>
      </trkpt>
      <trkpt lat="46.26516" lon="6.25829">
        <ele>436.79998779297</ele>
        <time>2020-02-23T16:59:12Z</time>
      </trkpt>
      <trkpt lat="46.26514" lon="6.25827">
        <ele>436.79998779297</ele>
        <time>2020-02-23T16:59:13Z</time>
      </trkpt>
      <trkpt lat="46.26507" lon="6.25819">
        <ele>436.79998779297</ele>
        <time>2020-02-23T16:59:16Z</time>
      </trkpt>
      <trkpt lat="46.26504" lon="6.25815">
        <ele>437</ele>
        <time>2020-02-23T16:59:17Z</time>
      </trkpt>
      <trkpt lat="46.26502" lon="6.25811">
        <ele>437</ele>
        <time>2020-02-23T16:59:18Z</time>
      </trkpt>
      <trkpt lat="46.26501" lon="6.25807">
        <ele>437</ele>
        <time>2020-02-23T16:59:19Z</time>
      </trkpt>
      <trkpt lat="46.26498" lon="6.25798">
        <ele>437.39999389648</ele>
        <time>2020-02-23T16:59:21Z</time>
      </trkpt>
      <trkpt lat="46.26497" lon="6.25793">
        <ele>437.39999389648</ele>
        <time>2020-02-23T16:59:22Z</time>
      </trkpt>
      <trkpt lat="46.26496" lon="6.25788">
        <ele>437.39999389648</ele>
        <time>2020-02-23T16:59:23Z</time>
      </trkpt>
      <trkpt lat="46.26496" lon="6.25783">
        <ele>437.39999389648</ele>
        <time>2020-02-23T16:59:24Z</time>
      </trkpt>
      <trkpt lat="46.26497" lon="6.25778">
        <ele>437.39999389648</ele>
        <time>2020-02-23T16:59:25Z</time>
      </trkpt>
      <trkpt lat="46.26497" lon="6.25773">
        <ele>437.20001220703</ele>
        <time>2020-02-23T16:59:26Z</time>
      </trkpt>
      <trkpt lat="46.26498" lon="6.25768">
        <ele>437.39999389648</ele>
        <time>2020-02-23T16:59:27Z</time>
      </trkpt>
      <trkpt lat="46.265" lon="6.25754">
        <ele>437.60000610352</ele>
        <time>2020-02-23T16:59:30Z</time>
      </trkpt>
      <trkpt lat="46.26504" lon="6.25735">
        <ele>437.60000610352</ele>
        <time>2020-02-23T16:59:34Z</time>
      </trkpt>
      <trkpt lat="46.26505" lon="6.25724">
        <ele>437.60000610352</ele>
        <time>2020-02-23T16:59:36Z</time>
      </trkpt>
      <trkpt lat="46.26506" lon="6.25719">
        <ele>437.39999389648</ele>
        <time>2020-02-23T16:59:37Z</time>
      </trkpt>
      <trkpt lat="46.26507" lon="6.25715">
        <ele>437.60000610352</ele>
        <time>2020-02-23T16:59:38Z</time>
      </trkpt>
      <trkpt lat="46.26508" lon="6.2571">
        <ele>437.60000610352</ele>
        <time>2020-02-23T16:59:39Z</time>
      </trkpt>
      <trkpt lat="46.26508" lon="6.25705">
        <ele>437.39999389648</ele>
        <time>2020-02-23T16:59:40Z</time>
      </trkpt>
      <trkpt lat="46.26509" lon="6.25701">
        <ele>437.20001220703</ele>
        <time>2020-02-23T16:59:41Z</time>
      </trkpt>
      <trkpt lat="46.2651" lon="6.25696">
        <ele>437.20001220703</ele>
        <time>2020-02-23T16:59:42Z</time>
      </trkpt>
      <trkpt lat="46.26511" lon="6.25692">
        <ele>437.20001220703</ele>
        <time>2020-02-23T16:59:43Z</time>
      </trkpt>
      <trkpt lat="46.26512" lon="6.25687">
        <ele>437</ele>
        <time>2020-02-23T16:59:44Z</time>
      </trkpt>
      <trkpt lat="46.26513" lon="6.25678">
        <ele>437</ele>
        <time>2020-02-23T16:59:46Z</time>
      </trkpt>
      <trkpt lat="46.26514" lon="6.25674">
        <ele>436.79998779297</ele>
        <time>2020-02-23T16:59:47Z</time>
      </trkpt>
      <trkpt lat="46.26514" lon="6.25669">
        <ele>436.79998779297</ele>
        <time>2020-02-23T16:59:48Z</time>
      </trkpt>
      <trkpt lat="46.26515" lon="6.25664">
        <ele>436.79998779297</ele>
        <time>2020-02-23T16:59:49Z</time>
      </trkpt>
      <trkpt lat="46.26516" lon="6.2566">
        <ele>436.79998779297</ele>
        <time>2020-02-23T16:59:50Z</time>
      </trkpt>
      <trkpt lat="46.26516" lon="6.25656">
        <ele>436.79998779297</ele>
        <time>2020-02-23T16:59:51Z</time>
      </trkpt>
      <trkpt lat="46.26517" lon="6.25651">
        <ele>436.79998779297</ele>
        <time>2020-02-23T16:59:52Z</time>
      </trkpt>
      <trkpt lat="46.26518" lon="6.25647">
        <ele>436.60000610352</ele>
        <time>2020-02-23T16:59:53Z</time>
      </trkpt>
      <trkpt lat="46.26519" lon="6.25642">
        <ele>436.79998779297</ele>
        <time>2020-02-23T16:59:54Z</time>
      </trkpt>
      <trkpt lat="46.2652" lon="6.25638">
        <ele>436.79998779297</ele>
        <time>2020-02-23T16:59:55Z</time>
      </trkpt>
      <trkpt lat="46.26523" lon="6.25625">
        <ele>436.60000610352</ele>
        <time>2020-02-23T16:59:58Z</time>
      </trkpt>
      <trkpt lat="46.26524" lon="6.25621">
        <ele>436.60000610352</ele>
        <time>2020-02-23T16:59:59Z</time>
      </trkpt>
      <trkpt lat="46.26525" lon="6.25616">
        <ele>436.60000610352</ele>
        <time>2020-02-23T17:00:00Z</time>
      </trkpt>
      <trkpt lat="46.26526" lon="6.25612">
        <ele>436.60000610352</ele>
        <time>2020-02-23T17:00:01Z</time>
      </trkpt>
      <trkpt lat="46.26526" lon="6.25607">
        <ele>436.60000610352</ele>
        <time>2020-02-23T17:00:02Z</time>
      </trkpt>
      <trkpt lat="46.26527" lon="6.25603">
        <ele>436.60000610352</ele>
        <time>2020-02-23T17:00:03Z</time>
      </trkpt>
      <trkpt lat="46.26528" lon="6.25598">
        <ele>436.60000610352</ele>
        <time>2020-02-23T17:00:04Z</time>
      </trkpt>
      <trkpt lat="46.26529" lon="6.25594">
        <ele>436.39999389648</ele>
        <time>2020-02-23T17:00:05Z</time>
      </trkpt>
      <trkpt lat="46.2653" lon="6.2559">
        <ele>436.20001220703</ele>
        <time>2020-02-23T17:00:06Z</time>
      </trkpt>
      <trkpt lat="46.26531" lon="6.25581">
        <ele>436</ele>
        <time>2020-02-23T17:00:08Z</time>
      </trkpt>
      <trkpt lat="46.26532" lon="6.25577">
        <ele>436</ele>
        <time>2020-02-23T17:00:09Z</time>
      </trkpt>
      <trkpt lat="46.26533" lon="6.25572">
        <ele>436</ele>
        <time>2020-02-23T17:00:10Z</time>
      </trkpt>
      <trkpt lat="46.26534" lon="6.25564">
        <ele>436</ele>
        <time>2020-02-23T17:00:12Z</time>
      </trkpt>
      <trkpt lat="46.26532" lon="6.2556">
        <ele>435.79998779297</ele>
        <time>2020-02-23T17:00:13Z</time>
      </trkpt>
      <trkpt lat="46.2653" lon="6.25557">
        <ele>435.60000610352</ele>
        <time>2020-02-23T17:00:14Z</time>
      </trkpt>
      <trkpt lat="46.26528" lon="6.25555">
        <ele>435.79998779297</ele>
        <time>2020-02-23T17:00:15Z</time>
      </trkpt>
      <trkpt lat="46.26526" lon="6.25553">
        <ele>435.60000610352</ele>
        <time>2020-02-23T17:00:16Z</time>
      </trkpt>
      <trkpt lat="46.26517" lon="6.25545">
        <ele>435.39999389648</ele>
        <time>2020-02-23T17:00:19Z</time>
      </trkpt>
      <trkpt lat="46.26515" lon="6.25541">
        <ele>435.39999389648</ele>
        <time>2020-02-23T17:00:20Z</time>
      </trkpt>
      <trkpt lat="46.26513" lon="6.25538">
        <ele>435.20001220703</ele>
        <time>2020-02-23T17:00:21Z</time>
      </trkpt>
      <trkpt lat="46.26511" lon="6.25534">
        <ele>435.20001220703</ele>
        <time>2020-02-23T17:00:22Z</time>
      </trkpt>
      <trkpt lat="46.26508" lon="6.25524">
        <ele>435.20001220703</ele>
        <time>2020-02-23T17:00:24Z</time>
      </trkpt>
      <trkpt lat="46.26508" lon="6.25519">
        <ele>435.20001220703</ele>
        <time>2020-02-23T17:00:25Z</time>
      </trkpt>
      <trkpt lat="46.26508" lon="6.25513">
        <ele>435.20001220703</ele>
        <time>2020-02-23T17:00:26Z</time>
      </trkpt>
      <trkpt lat="46.26509" lon="6.25508">
        <ele>435.20001220703</ele>
        <time>2020-02-23T17:00:27Z</time>
      </trkpt>
      <trkpt lat="46.2651" lon="6.25502">
        <ele>435.20001220703</ele>
        <time>2020-02-23T17:00:28Z</time>
      </trkpt>
      <trkpt lat="46.26514" lon="6.25484">
        <ele>435</ele>
        <time>2020-02-23T17:00:31Z</time>
      </trkpt>
      <trkpt lat="46.26515" lon="6.25478">
        <ele>435</ele>
        <time>2020-02-23T17:00:32Z</time>
      </trkpt>
      <trkpt lat="46.26517" lon="6.25472">
        <ele>434.79998779297</ele>
        <time>2020-02-23T17:00:33Z</time>
      </trkpt>
      <trkpt lat="46.26518" lon="6.25467">
        <ele>435</ele>
        <time>2020-02-23T17:00:34Z</time>
      </trkpt>
      <trkpt lat="46.26519" lon="6.25461">
        <ele>435</ele>
        <time>2020-02-23T17:00:35Z</time>
      </trkpt>
      <trkpt lat="46.26521" lon="6.25456">
        <ele>434.79998779297</ele>
        <time>2020-02-23T17:00:36Z</time>
      </trkpt>
      <trkpt lat="46.26522" lon="6.2545">
        <ele>434.79998779297</ele>
        <time>2020-02-23T17:00:37Z</time>
      </trkpt>
      <trkpt lat="46.26523" lon="6.25445">
        <ele>434.79998779297</ele>
        <time>2020-02-23T17:00:38Z</time>
      </trkpt>
      <trkpt lat="46.26524" lon="6.2544">
        <ele>434.79998779297</ele>
        <time>2020-02-23T17:00:39Z</time>
      </trkpt>
      <trkpt lat="46.26525" lon="6.25434">
        <ele>434.60000610352</ele>
        <time>2020-02-23T17:00:40Z</time>
      </trkpt>
      <trkpt lat="46.26526" lon="6.25429">
        <ele>434.60000610352</ele>
        <time>2020-02-23T17:00:41Z</time>
      </trkpt>
      <trkpt lat="46.26526" lon="6.25423">
        <ele>434.79998779297</ele>
        <time>2020-02-23T17:00:42Z</time>
      </trkpt>
      <trkpt lat="46.26527" lon="6.25418">
        <ele>434.60000610352</ele>
        <time>2020-02-23T17:00:43Z</time>
      </trkpt>
      <trkpt lat="46.26527" lon="6.25413">
        <ele>434.39999389648</ele>
        <time>2020-02-23T17:00:44Z</time>
      </trkpt>
      <trkpt lat="46.26527" lon="6.25407">
        <ele>434.39999389648</ele>
        <time>2020-02-23T17:00:45Z</time>
      </trkpt>
      <trkpt lat="46.26527" lon="6.25402">
        <ele>434.39999389648</ele>
        <time>2020-02-23T17:00:46Z</time>
      </trkpt>
      <trkpt lat="46.26527" lon="6.25392">
        <ele>434.39999389648</ele>
        <time>2020-02-23T17:00:48Z</time>
      </trkpt>
      <trkpt lat="46.26523" lon="6.25349">
        <ele>434.20001220703</ele>
        <time>2020-02-23T17:00:55Z</time>
      </trkpt>
      <trkpt lat="46.26522" lon="6.25343">
        <ele>434</ele>
        <time>2020-02-23T17:00:56Z</time>
      </trkpt>
      <trkpt lat="46.26522" lon="6.25337">
        <ele>434</ele>
        <time>2020-02-23T17:00:57Z</time>
      </trkpt>
      <trkpt lat="46.26522" lon="6.25331">
        <ele>434</ele>
        <time>2020-02-23T17:00:58Z</time>
      </trkpt>
      <trkpt lat="46.26521" lon="6.25325">
        <ele>433.79998779297</ele>
        <time>2020-02-23T17:00:59Z</time>
      </trkpt>
      <trkpt lat="46.26521" lon="6.2532">
        <ele>433.79998779297</ele>
        <time>2020-02-23T17:01:00Z</time>
      </trkpt>
      <trkpt lat="46.2652" lon="6.25315">
        <ele>433.60000610352</ele>
        <time>2020-02-23T17:01:01Z</time>
      </trkpt>
      <trkpt lat="46.2652" lon="6.2531">
        <ele>433.60000610352</ele>
        <time>2020-02-23T17:01:02Z</time>
      </trkpt>
      <trkpt lat="46.26518" lon="6.25306">
        <ele>433.60000610352</ele>
        <time>2020-02-23T17:01:03Z</time>
      </trkpt>
      <trkpt lat="46.26517" lon="6.25301">
        <ele>433.60000610352</ele>
        <time>2020-02-23T17:01:04Z</time>
      </trkpt>
      <trkpt lat="46.26515" lon="6.25297">
        <ele>433.60000610352</ele>
        <time>2020-02-23T17:01:05Z</time>
      </trkpt>
      <trkpt lat="46.26513" lon="6.25294">
        <ele>433.60000610352</ele>
        <time>2020-02-23T17:01:06Z</time>
      </trkpt>
      <trkpt lat="46.26512" lon="6.2529">
        <ele>433.60000610352</ele>
        <time>2020-02-23T17:01:07Z</time>
      </trkpt>
      <trkpt lat="46.26509" lon="6.25287">
        <ele>433.60000610352</ele>
        <time>2020-02-23T17:01:08Z</time>
      </trkpt>
      <trkpt lat="46.26507" lon="6.25285">
        <ele>433.60000610352</ele>
        <time>2020-02-23T17:01:09Z</time>
      </trkpt>
      <trkpt lat="46.26499" lon="6.25277">
        <ele>433.60000610352</ele>
        <time>2020-02-23T17:01:12Z</time>
      </trkpt>
      <trkpt lat="46.26498" lon="6.25274">
        <ele>433.79998779297</ele>
        <time>2020-02-23T17:01:13Z</time>
      </trkpt>
      <trkpt lat="46.26497" lon="6.2527">
        <ele>433.79998779297</ele>
        <time>2020-02-23T17:01:14Z</time>
      </trkpt>
      <trkpt lat="46.26498" lon="6.25267">
        <ele>433.79998779297</ele>
        <time>2020-02-23T17:01:15Z</time>
      </trkpt>
      <trkpt lat="46.265" lon="6.25265">
        <ele>434</ele>
        <time>2020-02-23T17:01:16Z</time>
      </trkpt>
      <trkpt lat="46.26503" lon="6.25264">
        <ele>434</ele>
        <time>2020-02-23T17:01:17Z</time>
      </trkpt>
      <trkpt lat="46.26506" lon="6.25264">
        <ele>433.79998779297</ele>
        <time>2020-02-23T17:01:18Z</time>
      </trkpt>
      <trkpt lat="46.26526" lon="6.25267">
        <ele>434</ele>
        <time>2020-02-23T17:01:23Z</time>
      </trkpt>
      <trkpt lat="46.26531" lon="6.25268">
        <ele>434.20001220703</ele>
        <time>2020-02-23T17:01:24Z</time>
      </trkpt>
      <trkpt lat="46.26545" lon="6.25273">
        <ele>433.79998779297</ele>
        <time>2020-02-23T17:01:27Z</time>
      </trkpt>
      <trkpt lat="46.26549" lon="6.25276">
        <ele>433.79998779297</ele>
        <time>2020-02-23T17:01:28Z</time>
      </trkpt>
      <trkpt lat="46.26553" lon="6.25278">
        <ele>433.60000610352</ele>
        <time>2020-02-23T17:01:29Z</time>
      </trkpt>
      <trkpt lat="46.26556" lon="6.25281">
        <ele>433.60000610352</ele>
        <time>2020-02-23T17:01:30Z</time>
      </trkpt>
      <trkpt lat="46.2656" lon="6.25284">
        <ele>433.39999389648</ele>
        <time>2020-02-23T17:01:31Z</time>
      </trkpt>
      <trkpt lat="46.26563" lon="6.25287">
        <ele>433.39999389648</ele>
        <time>2020-02-23T17:01:32Z</time>
      </trkpt>
      <trkpt lat="46.26577" lon="6.253">
        <ele>433.39999389648</ele>
        <time>2020-02-23T17:01:36Z</time>
      </trkpt>
      <trkpt lat="46.26607" lon="6.25326">
        <ele>433.20001220703</ele>
        <time>2020-02-23T17:01:44Z</time>
      </trkpt>
      <trkpt lat="46.2661" lon="6.25329">
        <ele>433.20001220703</ele>
        <time>2020-02-23T17:01:45Z</time>
      </trkpt>
      <trkpt lat="46.26614" lon="6.25332">
        <ele>433.20001220703</ele>
        <time>2020-02-23T17:01:46Z</time>
      </trkpt>
      <trkpt lat="46.26617" lon="6.25335">
        <ele>433.20001220703</ele>
        <time>2020-02-23T17:01:47Z</time>
      </trkpt>
      <trkpt lat="46.2662" lon="6.25338">
        <ele>433.20001220703</ele>
        <time>2020-02-23T17:01:48Z</time>
      </trkpt>
      <trkpt lat="46.26623" lon="6.2534">
        <ele>433.20001220703</ele>
        <time>2020-02-23T17:01:49Z</time>
      </trkpt>
      <trkpt lat="46.26636" lon="6.25351">
        <ele>433.20001220703</ele>
        <time>2020-02-23T17:01:53Z</time>
      </trkpt>
      <trkpt lat="46.26639" lon="6.25354">
        <ele>433.39999389648</ele>
        <time>2020-02-23T17:01:54Z</time>
      </trkpt>
      <trkpt lat="46.26643" lon="6.25356">
        <ele>433.39999389648</ele>
        <time>2020-02-23T17:01:55Z</time>
      </trkpt>
      <trkpt lat="46.26646" lon="6.25358">
        <ele>433.39999389648</ele>
        <time>2020-02-23T17:01:56Z</time>
      </trkpt>
      <trkpt lat="46.26658" lon="6.2537">
        <ele>433.60000610352</ele>
        <time>2020-02-23T17:02:00Z</time>
      </trkpt>
      <trkpt lat="46.26666" lon="6.25376">
        <ele>433.39999389648</ele>
        <time>2020-02-23T17:02:02Z</time>
      </trkpt>
      <trkpt lat="46.26669" lon="6.25379">
        <ele>433.39999389648</ele>
        <time>2020-02-23T17:02:03Z</time>
      </trkpt>
      <trkpt lat="46.26673" lon="6.25382">
        <ele>433.39999389648</ele>
        <time>2020-02-23T17:02:04Z</time>
      </trkpt>
      <trkpt lat="46.26676" lon="6.25385">
        <ele>433.39999389648</ele>
        <time>2020-02-23T17:02:05Z</time>
      </trkpt>
      <trkpt lat="46.2668" lon="6.25388">
        <ele>433.39999389648</ele>
        <time>2020-02-23T17:02:06Z</time>
      </trkpt>
      <trkpt lat="46.26691" lon="6.25398">
        <ele>433.39999389648</ele>
        <time>2020-02-23T17:02:09Z</time>
      </trkpt>
      <trkpt lat="46.26698" lon="6.25404">
        <ele>433.39999389648</ele>
        <time>2020-02-23T17:02:11Z</time>
      </trkpt>
      <trkpt lat="46.26701" lon="6.25408">
        <ele>433.60000610352</ele>
        <time>2020-02-23T17:02:12Z</time>
      </trkpt>
      <trkpt lat="46.26708" lon="6.25414">
        <ele>433.39999389648</ele>
        <time>2020-02-23T17:02:14Z</time>
      </trkpt>
      <trkpt lat="46.2673" lon="6.25438">
        <ele>432.60000610352</ele>
        <time>2020-02-23T17:02:20Z</time>
      </trkpt>
      <trkpt lat="46.26739" lon="6.25454">
        <ele>432.20001220703</ele>
        <time>2020-02-23T17:02:23Z</time>
      </trkpt>
      <trkpt lat="46.26752" lon="6.25476">
        <ele>431.79998779297</ele>
        <time>2020-02-23T17:02:27Z</time>
      </trkpt>
      <trkpt lat="46.26755" lon="6.25481">
        <ele>431.60000610352</ele>
        <time>2020-02-23T17:02:28Z</time>
      </trkpt>
      <trkpt lat="46.26758" lon="6.25486">
        <ele>431.60000610352</ele>
        <time>2020-02-23T17:02:29Z</time>
      </trkpt>
      <trkpt lat="46.26761" lon="6.25492">
        <ele>431.39999389648</ele>
        <time>2020-02-23T17:02:30Z</time>
      </trkpt>
      <trkpt lat="46.26763" lon="6.25497">
        <ele>431.39999389648</ele>
        <time>2020-02-23T17:02:31Z</time>
      </trkpt>
      <trkpt lat="46.26766" lon="6.25502">
        <ele>431.39999389648</ele>
        <time>2020-02-23T17:02:32Z</time>
      </trkpt>
      <trkpt lat="46.26769" lon="6.25507">
        <ele>431.20001220703</ele>
        <time>2020-02-23T17:02:33Z</time>
      </trkpt>
      <trkpt lat="46.26771" lon="6.25512">
        <ele>431</ele>
        <time>2020-02-23T17:02:34Z</time>
      </trkpt>
      <trkpt lat="46.26774" lon="6.25517">
        <ele>430.79998779297</ele>
        <time>2020-02-23T17:02:35Z</time>
      </trkpt>
      <trkpt lat="46.26776" lon="6.25522">
        <ele>430.79998779297</ele>
        <time>2020-02-23T17:02:36Z</time>
      </trkpt>
      <trkpt lat="46.26779" lon="6.25526">
        <ele>430.60000610352</ele>
        <time>2020-02-23T17:02:37Z</time>
      </trkpt>
      <trkpt lat="46.26782" lon="6.2553">
        <ele>430.60000610352</ele>
        <time>2020-02-23T17:02:38Z</time>
      </trkpt>
      <trkpt lat="46.26785" lon="6.25534">
        <ele>430.39999389648</ele>
        <time>2020-02-23T17:02:39Z</time>
      </trkpt>
      <trkpt lat="46.26788" lon="6.25538">
        <ele>430.39999389648</ele>
        <time>2020-02-23T17:02:40Z</time>
      </trkpt>
      <trkpt lat="46.26791" lon="6.25541">
        <ele>430.39999389648</ele>
        <time>2020-02-23T17:02:41Z</time>
      </trkpt>
      <trkpt lat="46.26794" lon="6.25544">
        <ele>430.20001220703</ele>
        <time>2020-02-23T17:02:42Z</time>
      </trkpt>
      <trkpt lat="46.26797" lon="6.25547">
        <ele>430.20001220703</ele>
        <time>2020-02-23T17:02:43Z</time>
      </trkpt>
      <trkpt lat="46.26809" lon="6.25555">
        <ele>430.20001220703</ele>
        <time>2020-02-23T17:02:46Z</time>
      </trkpt>
      <trkpt lat="46.26821" lon="6.25562">
        <ele>430.20001220703</ele>
        <time>2020-02-23T17:02:49Z</time>
      </trkpt>
      <trkpt lat="46.26824" lon="6.25565">
        <ele>430.39999389648</ele>
        <time>2020-02-23T17:02:50Z</time>
      </trkpt>
      <trkpt lat="46.26828" lon="6.25567">
        <ele>430.20001220703</ele>
        <time>2020-02-23T17:02:51Z</time>
      </trkpt>
      <trkpt lat="46.26832" lon="6.25569">
        <ele>430.20001220703</ele>
        <time>2020-02-23T17:02:52Z</time>
      </trkpt>
      <trkpt lat="46.26836" lon="6.25571">
        <ele>430.20001220703</ele>
        <time>2020-02-23T17:02:53Z</time>
      </trkpt>
      <trkpt lat="46.26839" lon="6.25573">
        <ele>430.20001220703</ele>
        <time>2020-02-23T17:02:54Z</time>
      </trkpt>
      <trkpt lat="46.26842" lon="6.25576">
        <ele>430.20001220703</ele>
        <time>2020-02-23T17:02:55Z</time>
      </trkpt>
      <trkpt lat="46.26843" lon="6.2558">
        <ele>430.39999389648</ele>
        <time>2020-02-23T17:02:56Z</time>
      </trkpt>
      <trkpt lat="46.26844" lon="6.25585">
        <ele>430.20001220703</ele>
        <time>2020-02-23T17:02:57Z</time>
      </trkpt>
      <trkpt lat="46.26844" lon="6.2559">
        <ele>430.39999389648</ele>
        <time>2020-02-23T17:02:58Z</time>
      </trkpt>
      <trkpt lat="46.26843" lon="6.25595">
        <ele>430.20001220703</ele>
        <time>2020-02-23T17:02:59Z</time>
      </trkpt>
      <trkpt lat="46.26843" lon="6.25599">
        <ele>430.20001220703</ele>
        <time>2020-02-23T17:03:00Z</time>
      </trkpt>
      <trkpt lat="46.26843" lon="6.25604">
        <ele>430.20001220703</ele>
        <time>2020-02-23T17:03:01Z</time>
      </trkpt>
      <trkpt lat="46.26843" lon="6.25609">
        <ele>430.20001220703</ele>
        <time>2020-02-23T17:03:02Z</time>
      </trkpt>
      <trkpt lat="46.26842" lon="6.25613">
        <ele>430.39999389648</ele>
        <time>2020-02-23T17:03:03Z</time>
      </trkpt>
      <trkpt lat="46.26841" lon="6.25617">
        <ele>430.20001220703</ele>
        <time>2020-02-23T17:03:04Z</time>
      </trkpt>
      <trkpt lat="46.26839" lon="6.25621">
        <ele>430.20001220703</ele>
        <time>2020-02-23T17:03:05Z</time>
      </trkpt>
      <trkpt lat="46.26838" lon="6.25625">
        <ele>430.20001220703</ele>
        <time>2020-02-23T17:03:06Z</time>
      </trkpt>
      <trkpt lat="46.26828" lon="6.25659">
        <ele>430</ele>
        <time>2020-02-23T17:03:13Z</time>
      </trkpt>
      <trkpt lat="46.26826" lon="6.25664">
        <ele>430</ele>
        <time>2020-02-23T17:03:14Z</time>
      </trkpt>
      <trkpt lat="46.26826" lon="6.25669">
        <ele>430</ele>
        <time>2020-02-23T17:03:15Z</time>
      </trkpt>
      <trkpt lat="46.26825" lon="6.25674">
        <ele>430.20001220703</ele>
        <time>2020-02-23T17:03:16Z</time>
      </trkpt>
      <trkpt lat="46.26825" lon="6.25679">
        <ele>430.20001220703</ele>
        <time>2020-02-23T17:03:17Z</time>
      </trkpt>
      <trkpt lat="46.26825" lon="6.25682">
        <ele>430.20001220703</ele>
        <time>2020-02-23T17:03:18Z</time>
      </trkpt>
      <trkpt lat="46.26825" lon="6.25684">
        <ele>430.20001220703</ele>
        <time>2020-02-23T17:03:19Z</time>
      </trkpt>
      <trkpt lat="46.26825" lon="6.25685">
        <ele>430.20001220703</ele>
        <time>2020-02-23T17:03:20Z</time>
      </trkpt>
      <trkpt lat="46.26825" lon="6.25685">
        <ele>430.20001220703</ele>
        <time>2020-02-23T17:03:23Z</time>
      </trkpt>
      <trkpt lat="46.26823" lon="6.25687">
        <ele>430.39999389648</ele>
        <time>2020-02-23T17:03:27Z</time>
      </trkpt>
      <trkpt lat="46.26823" lon="6.25687">
        <ele>430.39999389648</ele>
        <time>2020-02-23T17:03:29Z</time>
      </trkpt>
      <trkpt lat="46.26824" lon="6.25687">
        <ele>430.60000610352</ele>
        <time>2020-02-23T17:03:32Z</time>
      </trkpt>
      <trkpt lat="46.26824" lon="6.25687">
        <ele>430.60000610352</ele>
        <time>2020-02-23T17:03:34Z</time>
      </trkpt>
      <trkpt lat="46.26824" lon="6.25687">
        <ele>430.60000610352</ele>
        <time>2020-02-23T17:03:36Z</time>
      </trkpt>
    </trkseg>
  </trk>
</gpx>